<?xml version="1.0" encoding="UTF-8" standalone="no" ?>
<gpx xmlns="http://www.topografix.com/GPX/1/1" xmlns:xsi="http://www.w3.org/2001/XMLSchema-instance" xsi:schemaLocation="http://www.topografix.com/GPX/1/1 http://www.topografix.com/GPX/1/1/gpx.xsd" version="1.1" creator="VisuGPX - https://www.visugpx.com">
  <metadata>
    <name>Tour d'Europe: étape 090</name>
    <desc><![CDATA[Étape 090]]></desc>
  </metadata>
  <trk>
    <name><![CDATA[Tour d'Europe: étape 090]]></name>
    <trkseg>
      <trkpt lat="65.58361" lon="22.16006">
        <ele>59.630182</ele>
        <time>2020-09-26T07:59:26.383Z</time>
      </trkpt>
      <trkpt lat="65.58371" lon="22.16034">
        <ele>59.630182</ele>
        <time>2020-09-26T07:59:27.223Z</time>
      </trkpt>
      <trkpt lat="65.58364" lon="22.16049">
        <ele>59.630182</ele>
        <time>2020-09-26T08:02:50.267Z</time>
      </trkpt>
      <trkpt lat="65.58355" lon="22.16023">
        <ele>59.630182</ele>
        <time>2020-09-26T08:02:56.242Z</time>
      </trkpt>
      <trkpt lat="65.58353" lon="22.15992">
        <ele>59.630182</ele>
        <time>2020-09-26T08:02:59.225Z</time>
      </trkpt>
      <trkpt lat="65.5835" lon="22.1597">
        <ele>59.630182</ele>
        <time>2020-09-26T08:03:01.252Z</time>
      </trkpt>
      <trkpt lat="65.58348" lon="22.15944">
        <ele>59.630182</ele>
        <time>2020-09-26T08:03:03.259Z</time>
      </trkpt>
      <trkpt lat="65.58346" lon="22.15915">
        <ele>59.630182</ele>
        <time>2020-09-26T08:03:05.275Z</time>
      </trkpt>
      <trkpt lat="65.58345" lon="22.15888">
        <ele>59.467206</ele>
        <time>2020-09-26T08:03:07.224Z</time>
      </trkpt>
      <trkpt lat="65.58341" lon="22.15864">
        <ele>59.124918</ele>
        <time>2020-09-26T08:03:09.242Z</time>
      </trkpt>
      <trkpt lat="65.58336" lon="22.15844">
        <ele>58.825016</ele>
        <time>2020-09-26T08:03:11.236Z</time>
      </trkpt>
      <trkpt lat="65.58333" lon="22.15818">
        <ele>58.474107</ele>
        <time>2020-09-26T08:03:14.242Z</time>
      </trkpt>
      <trkpt lat="65.58329" lon="22.15793">
        <ele>58.129165</ele>
        <time>2020-09-26T08:03:17.224Z</time>
      </trkpt>
      <trkpt lat="65.58326" lon="22.15767">
        <ele>57.775047</ele>
        <time>2020-09-26T08:03:20.257Z</time>
      </trkpt>
      <trkpt lat="65.58324" lon="22.15739">
        <ele>57.402062</ele>
        <time>2020-09-26T08:03:23.272Z</time>
      </trkpt>
      <trkpt lat="65.58321" lon="22.15712">
        <ele>57.041648</ele>
        <time>2020-09-26T08:03:26.254Z</time>
      </trkpt>
      <trkpt lat="65.58318" lon="22.15688">
        <ele>56.717565</ele>
        <time>2020-09-26T08:03:29.260Z</time>
      </trkpt>
      <trkpt lat="65.58315" lon="22.15666">
        <ele>56.406443</ele>
        <time>2020-09-26T08:03:32.222Z</time>
      </trkpt>
      <trkpt lat="65.58312" lon="22.15645">
        <ele>56.117694</ele>
        <time>2020-09-26T08:03:34.233Z</time>
      </trkpt>
      <trkpt lat="65.58311" lon="22.15623">
        <ele>55.830596</ele>
        <time>2020-09-26T08:03:36.231Z</time>
      </trkpt>
      <trkpt lat="65.58308" lon="22.15598">
        <ele>55.492732</ele>
        <time>2020-09-26T08:03:38.237Z</time>
      </trkpt>
      <trkpt lat="65.58303" lon="22.15574">
        <ele>55.152996</ele>
        <time>2020-09-26T08:03:40.293Z</time>
      </trkpt>
      <trkpt lat="65.58299" lon="22.15551">
        <ele>54.820271</ele>
        <time>2020-09-26T08:03:42.296Z</time>
      </trkpt>
      <trkpt lat="65.58295" lon="22.15529">
        <ele>54.518764</ele>
        <time>2020-09-26T08:03:44.238Z</time>
      </trkpt>
      <trkpt lat="65.58292" lon="22.155">
        <ele>54.126175</ele>
        <time>2020-09-26T08:03:47.224Z</time>
      </trkpt>
      <trkpt lat="65.5829" lon="22.15473">
        <ele>53.61834</ele>
        <time>2020-09-26T08:03:50.228Z</time>
      </trkpt>
      <trkpt lat="65.58287" lon="22.15445">
        <ele>52.999775</ele>
        <time>2020-09-26T08:03:53.242Z</time>
      </trkpt>
      <trkpt lat="65.58286" lon="22.15418">
        <ele>52.397106</ele>
        <time>2020-09-26T08:03:56.273Z</time>
      </trkpt>
      <trkpt lat="65.58282" lon="22.15394">
        <ele>51.852175</ele>
        <time>2020-09-26T08:03:59.250Z</time>
      </trkpt>
      <trkpt lat="65.58279" lon="22.1537">
        <ele>51.295185</ele>
        <time>2020-09-26T08:04:02.256Z</time>
      </trkpt>
      <trkpt lat="65.58275" lon="22.15347">
        <ele>50.739201</ele>
        <time>2020-09-26T08:04:05.231Z</time>
      </trkpt>
      <trkpt lat="65.58274" lon="22.15323">
        <ele>50.215128</ele>
        <time>2020-09-26T08:04:10.230Z</time>
      </trkpt>
      <trkpt lat="65.58266" lon="22.15303">
        <ele>49.612509</ele>
        <time>2020-09-26T08:04:16.235Z</time>
      </trkpt>
      <trkpt lat="65.58256" lon="22.15301">
        <ele>49.039983</ele>
        <time>2020-09-26T08:04:20.252Z</time>
      </trkpt>
      <trkpt lat="65.58245" lon="22.1531">
        <ele>48.443388</ele>
        <time>2020-09-26T08:04:23.245Z</time>
      </trkpt>
      <trkpt lat="65.58234" lon="22.15319">
        <ele>47.831819</ele>
        <time>2020-09-26T08:04:26.231Z</time>
      </trkpt>
      <trkpt lat="65.58224" lon="22.15326">
        <ele>47.289888</ele>
        <time>2020-09-26T08:04:29.274Z</time>
      </trkpt>
      <trkpt lat="65.58213" lon="22.15324">
        <ele>46.720875</ele>
        <time>2020-09-26T08:04:33.221Z</time>
      </trkpt>
      <trkpt lat="65.58208" lon="22.15306">
        <ele>46.241746</ele>
        <time>2020-09-26T08:04:36.246Z</time>
      </trkpt>
      <trkpt lat="65.58204" lon="22.1528">
        <ele>45.63304</ele>
        <time>2020-09-26T08:04:40.228Z</time>
      </trkpt>
      <trkpt lat="65.58198" lon="22.15259">
        <ele>45.081857</ele>
        <time>2020-09-26T08:04:43.268Z</time>
      </trkpt>
      <trkpt lat="65.58194" lon="22.15233">
        <ele>44.474521</ele>
        <time>2020-09-26T08:04:47.231Z</time>
      </trkpt>
      <trkpt lat="65.58192" lon="22.15211">
        <ele>44.730741</ele>
        <time>2020-09-26T08:04:50.253Z</time>
      </trkpt>
      <trkpt lat="65.5819" lon="22.15189">
        <ele>45.024035</ele>
        <time>2020-09-26T08:04:53.300Z</time>
      </trkpt>
      <trkpt lat="65.58188" lon="22.15168">
        <ele>45.301194</ele>
        <time>2020-09-26T08:04:56.231Z</time>
      </trkpt>
      <trkpt lat="65.58186" lon="22.15144">
        <ele>45.609504</ele>
        <time>2020-09-26T08:04:59.217Z</time>
      </trkpt>
      <trkpt lat="65.58183" lon="22.15118">
        <ele>45.95067</ele>
        <time>2020-09-26T08:05:02.246Z</time>
      </trkpt>
      <trkpt lat="65.5818" lon="22.15092">
        <ele>46.297728</ele>
        <time>2020-09-26T08:05:05.236Z</time>
      </trkpt>
      <trkpt lat="65.58175" lon="22.15068">
        <ele>46.641897</ele>
        <time>2020-09-26T08:05:08.227Z</time>
      </trkpt>
      <trkpt lat="65.58169" lon="22.15043">
        <ele>47.004519</ele>
        <time>2020-09-26T08:05:11.269Z</time>
      </trkpt>
      <trkpt lat="65.58168" lon="22.15019">
        <ele>47.311749</ele>
        <time>2020-09-26T08:05:14.231Z</time>
      </trkpt>
      <trkpt lat="65.58164" lon="22.14995">
        <ele>47.634693</ele>
        <time>2020-09-26T08:05:17.233Z</time>
      </trkpt>
      <trkpt lat="65.58162" lon="22.1497">
        <ele>47.970276</ele>
        <time>2020-09-26T08:05:20.240Z</time>
      </trkpt>
      <trkpt lat="65.58159" lon="22.14941">
        <ele>48.346512</ele>
        <time>2020-09-26T08:05:23.235Z</time>
      </trkpt>
      <trkpt lat="65.58158" lon="22.14914">
        <ele>48.693076</ele>
        <time>2020-09-26T08:05:26.229Z</time>
      </trkpt>
      <trkpt lat="65.58156" lon="22.14887">
        <ele>49.045683</ele>
        <time>2020-09-26T08:05:29.225Z</time>
      </trkpt>
      <trkpt lat="65.58154" lon="22.14859">
        <ele>49.411201</ele>
        <time>2020-09-26T08:05:32.221Z</time>
      </trkpt>
      <trkpt lat="65.58152" lon="22.14829">
        <ele>49.794136</ele>
        <time>2020-09-26T08:05:35.236Z</time>
      </trkpt>
      <trkpt lat="65.58149" lon="22.14799">
        <ele>49.708879</ele>
        <time>2020-09-26T08:05:38.244Z</time>
      </trkpt>
      <trkpt lat="65.58148" lon="22.14766">
        <ele>49.10156</ele>
        <time>2020-09-26T08:05:41.235Z</time>
      </trkpt>
      <trkpt lat="65.58144" lon="22.14744">
        <ele>48.652961</ele>
        <time>2020-09-26T08:05:43.230Z</time>
      </trkpt>
      <trkpt lat="65.58141" lon="22.14724">
        <ele>48.235708</ele>
        <time>2020-09-26T08:05:45.261Z</time>
      </trkpt>
      <trkpt lat="65.58137" lon="22.14703">
        <ele>47.80259</ele>
        <time>2020-09-26T08:05:47.269Z</time>
      </trkpt>
      <trkpt lat="65.58133" lon="22.14677">
        <ele>47.283566</ele>
        <time>2020-09-26T08:05:49.283Z</time>
      </trkpt>
      <trkpt lat="65.58129" lon="22.14648">
        <ele>46.716947</ele>
        <time>2020-09-26T08:05:51.235Z</time>
      </trkpt>
      <trkpt lat="65.58126" lon="22.14618">
        <ele>46.116106</ele>
        <time>2020-09-26T08:05:53.302Z</time>
      </trkpt>
      <trkpt lat="65.58119" lon="22.14595">
        <ele>45.568487</ele>
        <time>2020-09-26T08:05:55.230Z</time>
      </trkpt>
      <trkpt lat="65.58109" lon="22.14581">
        <ele>45.075815</ele>
        <time>2020-09-26T08:05:57.232Z</time>
      </trkpt>
      <trkpt lat="65.58097" lon="22.14584">
        <ele>44.515215</ele>
        <time>2020-09-26T08:05:59.245Z</time>
      </trkpt>
      <trkpt lat="65.58087" lon="22.14593">
        <ele>44.007568</ele>
        <time>2020-09-26T08:06:01.253Z</time>
      </trkpt>
      <trkpt lat="65.58076" lon="22.14591">
        <ele>43.521707</ele>
        <time>2020-09-26T08:06:03.236Z</time>
      </trkpt>
      <trkpt lat="65.58067" lon="22.14585">
        <ele>43.10894</ele>
        <time>2020-09-26T08:06:05.235Z</time>
      </trkpt>
      <trkpt lat="65.58059" lon="22.14572">
        <ele>42.644657</ele>
        <time>2020-09-26T08:06:07.268Z</time>
      </trkpt>
      <trkpt lat="65.5805" lon="22.14551">
        <ele>42.093644</ele>
        <time>2020-09-26T08:06:09.234Z</time>
      </trkpt>
      <trkpt lat="65.58044" lon="22.14534">
        <ele>41.862425</ele>
        <time>2020-09-26T08:06:11.269Z</time>
      </trkpt>
      <trkpt lat="65.58038" lon="22.14515">
        <ele>42.123607</ele>
        <time>2020-09-26T08:06:13.238Z</time>
      </trkpt>
      <trkpt lat="65.58032" lon="22.14491">
        <ele>42.453345</ele>
        <time>2020-09-26T08:06:16.243Z</time>
      </trkpt>
      <trkpt lat="65.58031" lon="22.14466">
        <ele>42.740641</ele>
        <time>2020-09-26T08:06:19.222Z</time>
      </trkpt>
      <trkpt lat="65.58028" lon="22.14438">
        <ele>43.075048</ele>
        <time>2020-09-26T08:06:22.231Z</time>
      </trkpt>
      <trkpt lat="65.58025" lon="22.14407">
        <ele>43.440677</ele>
        <time>2020-09-26T08:06:25.264Z</time>
      </trkpt>
      <trkpt lat="65.58022" lon="22.14378">
        <ele>43.782996</ele>
        <time>2020-09-26T08:06:28.256Z</time>
      </trkpt>
      <trkpt lat="65.5802" lon="22.14349">
        <ele>44.116295</ele>
        <time>2020-09-26T08:06:31.228Z</time>
      </trkpt>
      <trkpt lat="65.58016" lon="22.1432">
        <ele>44.467141</ele>
        <time>2020-09-26T08:06:34.232Z</time>
      </trkpt>
      <trkpt lat="65.58012" lon="22.14291">
        <ele>44.822006</ele>
        <time>2020-09-26T08:06:37.255Z</time>
      </trkpt>
      <trkpt lat="65.58007" lon="22.14261">
        <ele>45.187983</ele>
        <time>2020-09-26T08:06:40.240Z</time>
      </trkpt>
      <trkpt lat="65.58003" lon="22.14232">
        <ele>45.53825</ele>
        <time>2020-09-26T08:06:43.231Z</time>
      </trkpt>
      <trkpt lat="65.58001" lon="22.14211">
        <ele>45.79232</ele>
        <time>2020-09-26T08:06:45.256Z</time>
      </trkpt>
      <trkpt lat="65.57998" lon="22.14183">
        <ele>46.123362</ele>
        <time>2020-09-26T08:06:48.256Z</time>
      </trkpt>
      <trkpt lat="65.57995" lon="22.14161">
        <ele>46.383489</ele>
        <time>2020-09-26T08:06:50.226Z</time>
      </trkpt>
      <trkpt lat="65.57991" lon="22.14137">
        <ele>46.679648</ele>
        <time>2020-09-26T08:06:52.236Z</time>
      </trkpt>
      <trkpt lat="65.57989" lon="22.14115">
        <ele>47.035431</ele>
        <time>2020-09-26T08:06:54.219Z</time>
      </trkpt>
      <trkpt lat="65.57987" lon="22.14092">
        <ele>47.43088</ele>
        <time>2020-09-26T08:06:56.247Z</time>
      </trkpt>
      <trkpt lat="65.57984" lon="22.14062">
        <ele>47.972616</ele>
        <time>2020-09-26T08:06:59.242Z</time>
      </trkpt>
      <trkpt lat="65.57983" lon="22.1404">
        <ele>48.354737</ele>
        <time>2020-09-26T08:07:01.229Z</time>
      </trkpt>
      <trkpt lat="65.57982" lon="22.14014">
        <ele>48.81084</ele>
        <time>2020-09-26T08:07:04.217Z</time>
      </trkpt>
      <trkpt lat="65.57981" lon="22.13988">
        <ele>49.269668</ele>
        <time>2020-09-26T08:07:08.245Z</time>
      </trkpt>
      <trkpt lat="65.5798" lon="22.1396">
        <ele>49.753671</ele>
        <time>2020-09-26T08:07:13.228Z</time>
      </trkpt>
      <trkpt lat="65.57978" lon="22.13934">
        <ele>50.220681</ele>
        <time>2020-09-26T08:07:17.272Z</time>
      </trkpt>
      <trkpt lat="65.57976" lon="22.13906">
        <ele>50.70564</ele>
        <time>2020-09-26T08:07:21.233Z</time>
      </trkpt>
      <trkpt lat="65.5797" lon="22.13883">
        <ele>51.185436</ele>
        <time>2020-09-26T08:07:24.222Z</time>
      </trkpt>
      <trkpt lat="65.57965" lon="22.13862">
        <ele>51.599339</ele>
        <time>2020-09-26T08:07:26.246Z</time>
      </trkpt>
      <trkpt lat="65.5796" lon="22.1384">
        <ele>52.037973</ele>
        <time>2020-09-26T08:07:28.236Z</time>
      </trkpt>
      <trkpt lat="65.57957" lon="22.13819">
        <ele>52.420587</ele>
        <time>2020-09-26T08:07:30.252Z</time>
      </trkpt>
      <trkpt lat="65.57954" lon="22.1379">
        <ele>52.949245</ele>
        <time>2020-09-26T08:07:33.230Z</time>
      </trkpt>
      <trkpt lat="65.57951" lon="22.13758">
        <ele>53.502927</ele>
        <time>2020-09-26T08:07:36.231Z</time>
      </trkpt>
      <trkpt lat="65.5795" lon="22.13737">
        <ele>53.882666</ele>
        <time>2020-09-26T08:07:38.232Z</time>
      </trkpt>
      <trkpt lat="65.57948" lon="22.13708">
        <ele>54.252077</ele>
        <time>2020-09-26T08:07:41.261Z</time>
      </trkpt>
      <trkpt lat="65.57947" lon="22.13683">
        <ele>53.564462</ele>
        <time>2020-09-26T08:07:44.222Z</time>
      </trkpt>
      <trkpt lat="65.57943" lon="22.13657">
        <ele>52.813841</ele>
        <time>2020-09-26T08:07:47.276Z</time>
      </trkpt>
      <trkpt lat="65.57938" lon="22.13633">
        <ele>52.10826</ele>
        <time>2020-09-26T08:07:50.245Z</time>
      </trkpt>
      <trkpt lat="65.57936" lon="22.13611">
        <ele>51.488752</ele>
        <time>2020-09-26T08:07:53.243Z</time>
      </trkpt>
      <trkpt lat="65.57935" lon="22.13586">
        <ele>50.812755</ele>
        <time>2020-09-26T08:07:57.235Z</time>
      </trkpt>
      <trkpt lat="65.57939" lon="22.13566">
        <ele>50.19205</ele>
        <time>2020-09-26T08:08:01.235Z</time>
      </trkpt>
      <trkpt lat="65.57946" lon="22.13547">
        <ele>49.520243</ele>
        <time>2020-09-26T08:08:05.225Z</time>
      </trkpt>
      <trkpt lat="65.57954" lon="22.13536">
        <ele>48.875589</ele>
        <time>2020-09-26T08:08:08.227Z</time>
      </trkpt>
      <trkpt lat="65.57966" lon="22.13533">
        <ele>48.13434</ele>
        <time>2020-09-26T08:08:11.248Z</time>
      </trkpt>
      <trkpt lat="65.57979" lon="22.13531">
        <ele>47.226809</ele>
        <time>2020-09-26T08:08:14.248Z</time>
      </trkpt>
      <trkpt lat="65.57992" lon="22.13526">
        <ele>46.386977</ele>
        <time>2020-09-26T08:08:17.239Z</time>
      </trkpt>
      <trkpt lat="65.58001" lon="22.13508">
        <ele>45.640594</ele>
        <time>2020-09-26T08:08:20.245Z</time>
      </trkpt>
      <trkpt lat="65.58005" lon="22.13485">
        <ele>44.937491</ele>
        <time>2020-09-26T08:08:23.239Z</time>
      </trkpt>
      <trkpt lat="65.58004" lon="22.1346">
        <ele>44.267703</ele>
        <time>2020-09-26T08:08:26.230Z</time>
      </trkpt>
      <trkpt lat="65.58003" lon="22.13437">
        <ele>43.615762</ele>
        <time>2020-09-26T08:08:29.223Z</time>
      </trkpt>
      <trkpt lat="65.58" lon="22.13413">
        <ele>42.949098</ele>
        <time>2020-09-26T08:08:32.228Z</time>
      </trkpt>
      <trkpt lat="65.57997" lon="22.13387">
        <ele>42.211618</ele>
        <time>2020-09-26T08:08:35.231Z</time>
      </trkpt>
      <trkpt lat="65.57993" lon="22.13359">
        <ele>41.44908</ele>
        <time>2020-09-26T08:08:38.268Z</time>
      </trkpt>
      <trkpt lat="65.5799" lon="22.13333">
        <ele>40.730525</ele>
        <time>2020-09-26T08:08:41.257Z</time>
      </trkpt>
      <trkpt lat="65.57986" lon="22.13308">
        <ele>40.015067</ele>
        <time>2020-09-26T08:08:44.223Z</time>
      </trkpt>
      <trkpt lat="65.57982" lon="22.13283">
        <ele>39.314062</ele>
        <time>2020-09-26T08:08:47.249Z</time>
      </trkpt>
      <trkpt lat="65.57979" lon="22.13259">
        <ele>38.646003</ele>
        <time>2020-09-26T08:08:50.251Z</time>
      </trkpt>
      <trkpt lat="65.57978" lon="22.13234">
        <ele>37.97361</ele>
        <time>2020-09-26T08:08:53.259Z</time>
      </trkpt>
      <trkpt lat="65.57976" lon="22.13209">
        <ele>37.314956</ele>
        <time>2020-09-26T08:08:56.255Z</time>
      </trkpt>
      <trkpt lat="65.57974" lon="22.13186">
        <ele>36.669035</ele>
        <time>2020-09-26T08:08:59.242Z</time>
      </trkpt>
      <trkpt lat="65.57971" lon="22.13162">
        <ele>36.001009</ele>
        <time>2020-09-26T08:09:02.246Z</time>
      </trkpt>
      <trkpt lat="65.57968" lon="22.13137">
        <ele>35.321003</ele>
        <time>2020-09-26T08:09:05.230Z</time>
      </trkpt>
      <trkpt lat="65.57965" lon="22.13112">
        <ele>34.649723</ele>
        <time>2020-09-26T08:09:08.220Z</time>
      </trkpt>
      <trkpt lat="65.57963" lon="22.13088">
        <ele>33.972345</ele>
        <time>2020-09-26T08:09:11.222Z</time>
      </trkpt>
      <trkpt lat="65.57961" lon="22.13062">
        <ele>33.286805</ele>
        <time>2020-09-26T08:09:14.239Z</time>
      </trkpt>
      <trkpt lat="65.57958" lon="22.13036">
        <ele>32.564191</ele>
        <time>2020-09-26T08:09:17.232Z</time>
      </trkpt>
      <trkpt lat="65.57955" lon="22.1301">
        <ele>31.8502</ele>
        <time>2020-09-26T08:09:20.249Z</time>
      </trkpt>
      <trkpt lat="65.57953" lon="22.12984">
        <ele>31.164738</ele>
        <time>2020-09-26T08:09:23.229Z</time>
      </trkpt>
      <trkpt lat="65.57951" lon="22.1296">
        <ele>30.999146</ele>
        <time>2020-09-26T08:09:26.283Z</time>
      </trkpt>
      <trkpt lat="65.57948" lon="22.12935">
        <ele>31.016005</ele>
        <time>2020-09-26T08:09:29.225Z</time>
      </trkpt>
      <trkpt lat="65.57944" lon="22.12909">
        <ele>31.033266</ele>
        <time>2020-09-26T08:09:32.265Z</time>
      </trkpt>
      <trkpt lat="65.57941" lon="22.12883">
        <ele>31.051177</ele>
        <time>2020-09-26T08:09:35.266Z</time>
      </trkpt>
      <trkpt lat="65.57939" lon="22.12857">
        <ele>31.068134</ele>
        <time>2020-09-26T08:09:38.227Z</time>
      </trkpt>
      <trkpt lat="65.57937" lon="22.12831">
        <ele>31.085419</ele>
        <time>2020-09-26T08:09:41.243Z</time>
      </trkpt>
      <trkpt lat="65.57934" lon="22.12805">
        <ele>31.102706</ele>
        <time>2020-09-26T08:09:44.238Z</time>
      </trkpt>
      <trkpt lat="65.57931" lon="22.12777">
        <ele>31.121572</ele>
        <time>2020-09-26T08:09:47.253Z</time>
      </trkpt>
      <trkpt lat="65.57927" lon="22.1275">
        <ele>31.140048</ele>
        <time>2020-09-26T08:09:50.245Z</time>
      </trkpt>
      <trkpt lat="65.57924" lon="22.12722">
        <ele>31.159059</ele>
        <time>2020-09-26T08:09:53.283Z</time>
      </trkpt>
      <trkpt lat="65.5792" lon="22.12692">
        <ele>31.17884</ele>
        <time>2020-09-26T08:09:56.270Z</time>
      </trkpt>
      <trkpt lat="65.57917" lon="22.12661">
        <ele>31.199597</ele>
        <time>2020-09-26T08:09:59.262Z</time>
      </trkpt>
      <trkpt lat="65.57915" lon="22.1264">
        <ele>31.213629</ele>
        <time>2020-09-26T08:10:01.231Z</time>
      </trkpt>
      <trkpt lat="65.57912" lon="22.1261">
        <ele>31.233371</ele>
        <time>2020-09-26T08:10:04.262Z</time>
      </trkpt>
      <trkpt lat="65.57908" lon="22.12582">
        <ele>31.252612</ele>
        <time>2020-09-26T08:10:07.249Z</time>
      </trkpt>
      <trkpt lat="65.57905" lon="22.12551">
        <ele>31.400777</ele>
        <time>2020-09-26T08:10:10.241Z</time>
      </trkpt>
      <trkpt lat="65.57902" lon="22.1252">
        <ele>31.935828</ele>
        <time>2020-09-26T08:10:13.220Z</time>
      </trkpt>
      <trkpt lat="65.57899" lon="22.12491">
        <ele>32.437573</ele>
        <time>2020-09-26T08:10:16.233Z</time>
      </trkpt>
      <trkpt lat="65.57896" lon="22.12461">
        <ele>32.962108</ele>
        <time>2020-09-26T08:10:19.258Z</time>
      </trkpt>
      <trkpt lat="65.57894" lon="22.12439">
        <ele>33.347171</ele>
        <time>2020-09-26T08:10:21.244Z</time>
      </trkpt>
      <trkpt lat="65.57892" lon="22.12417">
        <ele>33.729818</ele>
        <time>2020-09-26T08:10:23.224Z</time>
      </trkpt>
      <trkpt lat="65.57889" lon="22.12386">
        <ele>34.272675</ele>
        <time>2020-09-26T08:10:26.229Z</time>
      </trkpt>
      <trkpt lat="65.57886" lon="22.12365">
        <ele>34.645156</ele>
        <time>2020-09-26T08:10:28.252Z</time>
      </trkpt>
      <trkpt lat="65.57884" lon="22.12344">
        <ele>35.023154</ele>
        <time>2020-09-26T08:10:30.233Z</time>
      </trkpt>
      <trkpt lat="65.57882" lon="22.12322">
        <ele>35.394859</ele>
        <time>2020-09-26T08:10:32.303Z</time>
      </trkpt>
      <trkpt lat="65.57879" lon="22.12292">
        <ele>35.926145</ele>
        <time>2020-09-26T08:10:35.222Z</time>
      </trkpt>
      <trkpt lat="65.57876" lon="22.1227">
        <ele>36.316752</ele>
        <time>2020-09-26T08:10:37.232Z</time>
      </trkpt>
      <trkpt lat="65.57874" lon="22.12248">
        <ele>36.69517</ele>
        <time>2020-09-26T08:10:39.229Z</time>
      </trkpt>
      <trkpt lat="65.57871" lon="22.12217">
        <ele>37.242136</ele>
        <time>2020-09-26T08:10:42.267Z</time>
      </trkpt>
      <trkpt lat="65.57869" lon="22.12196">
        <ele>37.62612</ele>
        <time>2020-09-26T08:10:44.239Z</time>
      </trkpt>
      <trkpt lat="65.57866" lon="22.12174">
        <ele>38.011749</ele>
        <time>2020-09-26T08:10:46.232Z</time>
      </trkpt>
      <trkpt lat="65.57862" lon="22.12143">
        <ele>38.553945</ele>
        <time>2020-09-26T08:10:49.264Z</time>
      </trkpt>
      <trkpt lat="65.57859" lon="22.12113">
        <ele>38.620317</ele>
        <time>2020-09-26T08:10:52.228Z</time>
      </trkpt>
      <trkpt lat="65.57857" lon="22.12091">
        <ele>38.569427</ele>
        <time>2020-09-26T08:10:54.247Z</time>
      </trkpt>
      <trkpt lat="65.57855" lon="22.12068">
        <ele>38.517793</ele>
        <time>2020-09-26T08:10:56.248Z</time>
      </trkpt>
      <trkpt lat="65.57852" lon="22.12046">
        <ele>38.469036</ele>
        <time>2020-09-26T08:10:58.224Z</time>
      </trkpt>
      <trkpt lat="65.5785" lon="22.12024">
        <ele>38.41912</ele>
        <time>2020-09-26T08:11:00.239Z</time>
      </trkpt>
      <trkpt lat="65.57848" lon="22.12002">
        <ele>38.370239</ele>
        <time>2020-09-26T08:11:02.222Z</time>
      </trkpt>
      <trkpt lat="65.57845" lon="22.11971">
        <ele>38.300688</ele>
        <time>2020-09-26T08:11:05.229Z</time>
      </trkpt>
      <trkpt lat="65.57842" lon="22.11942">
        <ele>38.235162</ele>
        <time>2020-09-26T08:11:08.238Z</time>
      </trkpt>
      <trkpt lat="65.5784" lon="22.11919">
        <ele>38.184366</ele>
        <time>2020-09-26T08:11:10.230Z</time>
      </trkpt>
      <trkpt lat="65.57837" lon="22.11897">
        <ele>38.133741</ele>
        <time>2020-09-26T08:11:12.244Z</time>
      </trkpt>
      <trkpt lat="65.57835" lon="22.11875">
        <ele>38.084523</ele>
        <time>2020-09-26T08:11:14.254Z</time>
      </trkpt>
      <trkpt lat="65.57832" lon="22.11854">
        <ele>38.035029</ele>
        <time>2020-09-26T08:11:16.290Z</time>
      </trkpt>
      <trkpt lat="65.5783" lon="22.11831">
        <ele>37.982788</ele>
        <time>2020-09-26T08:11:18.254Z</time>
      </trkpt>
      <trkpt lat="65.57828" lon="22.11809">
        <ele>37.934796</ele>
        <time>2020-09-26T08:11:20.232Z</time>
      </trkpt>
      <trkpt lat="65.57826" lon="22.11787">
        <ele>37.884246</ele>
        <time>2020-09-26T08:11:22.251Z</time>
      </trkpt>
      <trkpt lat="65.57823" lon="22.11764">
        <ele>37.833697</ele>
        <time>2020-09-26T08:11:24.228Z</time>
      </trkpt>
      <trkpt lat="65.57821" lon="22.1174">
        <ele>37.778186</ele>
        <time>2020-09-26T08:11:26.266Z</time>
      </trkpt>
      <trkpt lat="65.57818" lon="22.11718">
        <ele>37.727559</ele>
        <time>2020-09-26T08:11:28.227Z</time>
      </trkpt>
      <trkpt lat="65.57815" lon="22.11696">
        <ele>37.326454</ele>
        <time>2020-09-26T08:11:30.245Z</time>
      </trkpt>
      <trkpt lat="65.57812" lon="22.11673">
        <ele>36.853159</ele>
        <time>2020-09-26T08:11:32.242Z</time>
      </trkpt>
      <trkpt lat="65.5781" lon="22.1165">
        <ele>36.400858</ele>
        <time>2020-09-26T08:11:34.228Z</time>
      </trkpt>
      <trkpt lat="65.57808" lon="22.11628">
        <ele>35.940917</ele>
        <time>2020-09-26T08:11:36.251Z</time>
      </trkpt>
      <trkpt lat="65.57806" lon="22.11606">
        <ele>35.502238</ele>
        <time>2020-09-26T08:11:38.232Z</time>
      </trkpt>
      <trkpt lat="65.57804" lon="22.11584">
        <ele>35.053512</ele>
        <time>2020-09-26T08:11:40.233Z</time>
      </trkpt>
      <trkpt lat="65.57801" lon="22.11558">
        <ele>34.535573</ele>
        <time>2020-09-26T08:11:42.263Z</time>
      </trkpt>
      <trkpt lat="65.578" lon="22.11534">
        <ele>34.04475</ele>
        <time>2020-09-26T08:11:44.246Z</time>
      </trkpt>
      <trkpt lat="65.57797" lon="22.11508">
        <ele>33.535562</ele>
        <time>2020-09-26T08:11:46.244Z</time>
      </trkpt>
      <trkpt lat="65.57794" lon="22.11483">
        <ele>33.017258</ele>
        <time>2020-09-26T08:11:48.224Z</time>
      </trkpt>
      <trkpt lat="65.57792" lon="22.11458">
        <ele>32.516547</ele>
        <time>2020-09-26T08:11:50.236Z</time>
      </trkpt>
      <trkpt lat="65.57789" lon="22.11433">
        <ele>32.008956</ele>
        <time>2020-09-26T08:11:52.262Z</time>
      </trkpt>
      <trkpt lat="65.57787" lon="22.11408">
        <ele>31.487987</ele>
        <time>2020-09-26T08:11:54.231Z</time>
      </trkpt>
      <trkpt lat="65.57784" lon="22.11384">
        <ele>30.998238</ele>
        <time>2020-09-26T08:11:56.247Z</time>
      </trkpt>
      <trkpt lat="65.57781" lon="22.11359">
        <ele>30.501528</ele>
        <time>2020-09-26T08:11:58.259Z</time>
      </trkpt>
      <trkpt lat="65.57779" lon="22.11335">
        <ele>30.014192</ele>
        <time>2020-09-26T08:12:00.255Z</time>
      </trkpt>
      <trkpt lat="65.57775" lon="22.11313">
        <ele>29.537361</ele>
        <time>2020-09-26T08:12:02.241Z</time>
      </trkpt>
      <trkpt lat="65.57768" lon="22.11294">
        <ele>29.272735</ele>
        <time>2020-09-26T08:12:04.260Z</time>
      </trkpt>
      <trkpt lat="65.57759" lon="22.11274">
        <ele>29.926381</ele>
        <time>2020-09-26T08:12:06.227Z</time>
      </trkpt>
      <trkpt lat="65.5775" lon="22.1125">
        <ele>30.662518</ele>
        <time>2020-09-26T08:12:08.251Z</time>
      </trkpt>
      <trkpt lat="65.57741" lon="22.11233">
        <ele>31.253252</ele>
        <time>2020-09-26T08:12:10.250Z</time>
      </trkpt>
      <trkpt lat="65.57736" lon="22.11213">
        <ele>31.77369</ele>
        <time>2020-09-26T08:12:13.236Z</time>
      </trkpt>
      <trkpt lat="65.57735" lon="22.11188">
        <ele>32.344003</ele>
        <time>2020-09-26T08:12:16.243Z</time>
      </trkpt>
      <trkpt lat="65.57735" lon="22.1116">
        <ele>32.957393</ele>
        <time>2020-09-26T08:12:19.283Z</time>
      </trkpt>
      <trkpt lat="65.57736" lon="22.11134">
        <ele>33.534708</ele>
        <time>2020-09-26T08:12:22.228Z</time>
      </trkpt>
      <trkpt lat="65.57737" lon="22.1111">
        <ele>34.06171</ele>
        <time>2020-09-26T08:12:25.237Z</time>
      </trkpt>
      <trkpt lat="65.57736" lon="22.11086">
        <ele>34.598003</ele>
        <time>2020-09-26T08:12:28.231Z</time>
      </trkpt>
      <trkpt lat="65.57735" lon="22.1106">
        <ele>35.18883</ele>
        <time>2020-09-26T08:12:32.224Z</time>
      </trkpt>
      <trkpt lat="65.57732" lon="22.11038">
        <ele>35.701399</ele>
        <time>2020-09-26T08:12:36.241Z</time>
      </trkpt>
      <trkpt lat="65.57728" lon="22.11014">
        <ele>36.266503</ele>
        <time>2020-09-26T08:12:40.225Z</time>
      </trkpt>
      <trkpt lat="65.57723" lon="22.10988">
        <ele>36.8972</ele>
        <time>2020-09-26T08:12:44.227Z</time>
      </trkpt>
      <trkpt lat="65.5772" lon="22.10967">
        <ele>37.386557</ele>
        <time>2020-09-26T08:12:47.256Z</time>
      </trkpt>
      <trkpt lat="65.57717" lon="22.10946">
        <ele>37.88102</ele>
        <time>2020-09-26T08:12:51.230Z</time>
      </trkpt>
      <trkpt lat="65.57713" lon="22.10922">
        <ele>38.442191</ele>
        <time>2020-09-26T08:12:55.261Z</time>
      </trkpt>
      <trkpt lat="65.57711" lon="22.10899">
        <ele>38.767753</ele>
        <time>2020-09-26T08:12:59.293Z</time>
      </trkpt>
      <trkpt lat="65.57709" lon="22.10873">
        <ele>38.704169</ele>
        <time>2020-09-26T08:13:03.222Z</time>
      </trkpt>
      <trkpt lat="65.57707" lon="22.10846">
        <ele>38.638969</ele>
        <time>2020-09-26T08:13:07.222Z</time>
      </trkpt>
      <trkpt lat="65.57704" lon="22.10818">
        <ele>38.568585</ele>
        <time>2020-09-26T08:13:11.252Z</time>
      </trkpt>
      <trkpt lat="65.57702" lon="22.10789">
        <ele>38.498518</ele>
        <time>2020-09-26T08:13:15.228Z</time>
      </trkpt>
      <trkpt lat="65.577" lon="22.10765">
        <ele>38.440903</ele>
        <time>2020-09-26T08:13:18.230Z</time>
      </trkpt>
      <trkpt lat="65.577" lon="22.10741">
        <ele>38.383081</ele>
        <time>2020-09-26T08:13:21.224Z</time>
      </trkpt>
      <trkpt lat="65.57701" lon="22.10715">
        <ele>38.319811</ele>
        <time>2020-09-26T08:13:24.238Z</time>
      </trkpt>
      <trkpt lat="65.57701" lon="22.10683">
        <ele>38.243959</ele>
        <time>2020-09-26T08:13:27.236Z</time>
      </trkpt>
      <trkpt lat="65.57701" lon="22.10659">
        <ele>38.186605</ele>
        <time>2020-09-26T08:13:29.228Z</time>
      </trkpt>
      <trkpt lat="65.577" lon="22.10636">
        <ele>38.131176</ele>
        <time>2020-09-26T08:13:31.240Z</time>
      </trkpt>
      <trkpt lat="65.57699" lon="22.10613">
        <ele>38.075798</ele>
        <time>2020-09-26T08:13:33.232Z</time>
      </trkpt>
      <trkpt lat="65.57699" lon="22.10588">
        <ele>38.014606</ele>
        <time>2020-09-26T08:13:35.232Z</time>
      </trkpt>
      <trkpt lat="65.57698" lon="22.10562">
        <ele>37.953571</ele>
        <time>2020-09-26T08:13:37.242Z</time>
      </trkpt>
      <trkpt lat="65.57698" lon="22.10532">
        <ele>37.881591</ele>
        <time>2020-09-26T08:13:39.240Z</time>
      </trkpt>
      <trkpt lat="65.57696" lon="22.10498">
        <ele>37.798122</ele>
        <time>2020-09-26T08:13:41.225Z</time>
      </trkpt>
      <trkpt lat="65.57691" lon="22.10464">
        <ele>37.76227</ele>
        <time>2020-09-26T08:13:43.250Z</time>
      </trkpt>
      <trkpt lat="65.57687" lon="22.10432">
        <ele>37.804438</ele>
        <time>2020-09-26T08:13:45.243Z</time>
      </trkpt>
      <trkpt lat="65.57684" lon="22.10403">
        <ele>37.842346</ele>
        <time>2020-09-26T08:13:47.253Z</time>
      </trkpt>
      <trkpt lat="65.57684" lon="22.10372">
        <ele>37.881763</ele>
        <time>2020-09-26T08:13:49.280Z</time>
      </trkpt>
      <trkpt lat="65.57682" lon="22.10349">
        <ele>37.912511</ele>
        <time>2020-09-26T08:13:51.246Z</time>
      </trkpt>
      <trkpt lat="65.57679" lon="22.10323">
        <ele>37.946638</ele>
        <time>2020-09-26T08:13:54.239Z</time>
      </trkpt>
      <trkpt lat="65.57677" lon="22.10298">
        <ele>37.97802</ele>
        <time>2020-09-26T08:13:58.263Z</time>
      </trkpt>
      <trkpt lat="65.57678" lon="22.10276">
        <ele>38.006013</ele>
        <time>2020-09-26T08:14:04.247Z</time>
      </trkpt>
      <trkpt lat="65.57681" lon="22.10255">
        <ele>38.034376</ele>
        <time>2020-09-26T08:14:08.234Z</time>
      </trkpt>
      <trkpt lat="65.57681" lon="22.10227">
        <ele>38.070144</ele>
        <time>2020-09-26T08:14:12.230Z</time>
      </trkpt>
      <trkpt lat="65.57682" lon="22.10202">
        <ele>38.102087</ele>
        <time>2020-09-26T08:14:16.250Z</time>
      </trkpt>
      <trkpt lat="65.57683" lon="22.10177">
        <ele>38.133527</ele>
        <time>2020-09-26T08:14:20.232Z</time>
      </trkpt>
      <trkpt lat="65.57684" lon="22.10151">
        <ele>38.167375</ele>
        <time>2020-09-26T08:14:24.238Z</time>
      </trkpt>
      <trkpt lat="65.57685" lon="22.10129">
        <ele>38.195004</ele>
        <time>2020-09-26T08:14:28.232Z</time>
      </trkpt>
      <trkpt lat="65.57685" lon="22.10102">
        <ele>38.229094</ele>
        <time>2020-09-26T08:14:33.227Z</time>
      </trkpt>
      <trkpt lat="65.57685" lon="22.10076">
        <ele>38.262561</ele>
        <time>2020-09-26T08:14:38.228Z</time>
      </trkpt>
      <trkpt lat="65.57687" lon="22.10052">
        <ele>38.29333</ele>
        <time>2020-09-26T08:14:42.237Z</time>
      </trkpt>
      <trkpt lat="65.57687" lon="22.1003">
        <ele>38.110408</ele>
        <time>2020-09-26T08:14:46.230Z</time>
      </trkpt>
      <trkpt lat="65.57688" lon="22.10004">
        <ele>37.854932</ele>
        <time>2020-09-26T08:14:51.244Z</time>
      </trkpt>
      <trkpt lat="65.5769" lon="22.09979">
        <ele>37.600926</ele>
        <time>2020-09-26T08:14:57.247Z</time>
      </trkpt>
      <trkpt lat="65.57691" lon="22.09936">
        <ele>37.178335</ele>
        <time>2020-09-26T08:17:55.271Z</time>
      </trkpt>
      <trkpt lat="65.5769" lon="22.0991">
        <ele>36.917929</ele>
        <time>2020-09-26T08:18:00.243Z</time>
      </trkpt>
      <trkpt lat="65.5769" lon="22.09888">
        <ele>36.697533</ele>
        <time>2020-09-26T08:18:03.274Z</time>
      </trkpt>
      <trkpt lat="65.5769" lon="22.0986">
        <ele>36.426785</ele>
        <time>2020-09-26T08:18:07.257Z</time>
      </trkpt>
      <trkpt lat="65.5769" lon="22.09837">
        <ele>36.196547</ele>
        <time>2020-09-26T08:18:10.242Z</time>
      </trkpt>
      <trkpt lat="65.57689" lon="22.09815">
        <ele>35.972541</ele>
        <time>2020-09-26T08:18:13.247Z</time>
      </trkpt>
      <trkpt lat="65.57686" lon="22.0979">
        <ele>35.719784</ele>
        <time>2020-09-26T08:18:16.230Z</time>
      </trkpt>
      <trkpt lat="65.57685" lon="22.0976">
        <ele>35.422214</ele>
        <time>2020-09-26T08:18:19.271Z</time>
      </trkpt>
      <trkpt lat="65.57688" lon="22.09733">
        <ele>35.145928</ele>
        <time>2020-09-26T08:18:21.242Z</time>
      </trkpt>
      <trkpt lat="65.57692" lon="22.09699">
        <ele>34.796642</ele>
        <time>2020-09-26T08:18:23.245Z</time>
      </trkpt>
      <trkpt lat="65.57696" lon="22.09669">
        <ele>34.482909</ele>
        <time>2020-09-26T08:18:25.270Z</time>
      </trkpt>
      <trkpt lat="65.57699" lon="22.09643">
        <ele>34.221859</ele>
        <time>2020-09-26T08:18:27.240Z</time>
      </trkpt>
      <trkpt lat="65.57699" lon="22.09619">
        <ele>34.021196</ele>
        <time>2020-09-26T08:18:29.235Z</time>
      </trkpt>
      <trkpt lat="65.57694" lon="22.096">
        <ele>34.354848</ele>
        <time>2020-09-26T08:18:31.245Z</time>
      </trkpt>
      <trkpt lat="65.57683" lon="22.09589">
        <ele>34.769641</ele>
        <time>2020-09-26T08:18:34.237Z</time>
      </trkpt>
      <trkpt lat="65.57674" lon="22.09584">
        <ele>35.11086</ele>
        <time>2020-09-26T08:18:37.236Z</time>
      </trkpt>
      <trkpt lat="65.57664" lon="22.09577">
        <ele>35.452446</ele>
        <time>2020-09-26T08:18:40.223Z</time>
      </trkpt>
      <trkpt lat="65.57656" lon="22.0957">
        <ele>35.784993</ele>
        <time>2020-09-26T08:18:43.227Z</time>
      </trkpt>
      <trkpt lat="65.57644" lon="22.09563">
        <ele>36.198067</ele>
        <time>2020-09-26T08:18:47.239Z</time>
      </trkpt>
      <trkpt lat="65.57635" lon="22.09557">
        <ele>36.527299</ele>
        <time>2020-09-26T08:18:50.226Z</time>
      </trkpt>
      <trkpt lat="65.57624" lon="22.09549">
        <ele>36.942706</ele>
        <time>2020-09-26T08:18:54.240Z</time>
      </trkpt>
      <trkpt lat="65.57615" lon="22.09545">
        <ele>37.27787</ele>
        <time>2020-09-26T08:18:57.241Z</time>
      </trkpt>
      <trkpt lat="65.57606" lon="22.09538">
        <ele>37.609129</ele>
        <time>2020-09-26T08:19:00.224Z</time>
      </trkpt>
      <trkpt lat="65.57597" lon="22.09533">
        <ele>37.938913</ele>
        <time>2020-09-26T08:19:03.268Z</time>
      </trkpt>
      <trkpt lat="65.57588" lon="22.09529">
        <ele>38.277279</ele>
        <time>2020-09-26T08:19:06.224Z</time>
      </trkpt>
      <trkpt lat="65.57578" lon="22.09523">
        <ele>38.628258</ele>
        <time>2020-09-26T08:19:09.245Z</time>
      </trkpt>
      <trkpt lat="65.57567" lon="22.09515">
        <ele>39.040244</ele>
        <time>2020-09-26T08:19:13.264Z</time>
      </trkpt>
      <trkpt lat="65.57556" lon="22.09506">
        <ele>39.47782</ele>
        <time>2020-09-26T08:19:17.235Z</time>
      </trkpt>
      <trkpt lat="65.57546" lon="22.09501">
        <ele>39.837476</ele>
        <time>2020-09-26T08:19:20.231Z</time>
      </trkpt>
      <trkpt lat="65.57536" lon="22.09497">
        <ele>40.180536</ele>
        <time>2020-09-26T08:19:23.256Z</time>
      </trkpt>
      <trkpt lat="65.57526" lon="22.09489">
        <ele>40.577492</ele>
        <time>2020-09-26T08:19:27.235Z</time>
      </trkpt>
      <trkpt lat="65.57516" lon="22.09484">
        <ele>40.935271</ele>
        <time>2020-09-26T08:19:30.261Z</time>
      </trkpt>
      <trkpt lat="65.57508" lon="22.09477">
        <ele>41.272705</ele>
        <time>2020-09-26T08:19:33.246Z</time>
      </trkpt>
      <trkpt lat="65.57498" lon="22.0947">
        <ele>41.639786</ele>
        <time>2020-09-26T08:19:36.244Z</time>
      </trkpt>
      <trkpt lat="65.57488" lon="22.09463">
        <ele>42.035442</ele>
        <time>2020-09-26T08:19:39.225Z</time>
      </trkpt>
      <trkpt lat="65.57478" lon="22.09455">
        <ele>42.427213</ele>
        <time>2020-09-26T08:19:43.249Z</time>
      </trkpt>
      <trkpt lat="65.57469" lon="22.09448">
        <ele>42.791815</ele>
        <time>2020-09-26T08:19:47.269Z</time>
      </trkpt>
      <trkpt lat="65.5746" lon="22.09441">
        <ele>43.13493</ele>
        <time>2020-09-26T08:19:50.244Z</time>
      </trkpt>
      <trkpt lat="65.57449" lon="22.0944">
        <ele>43.55981</ele>
        <time>2020-09-26T08:19:54.221Z</time>
      </trkpt>
      <trkpt lat="65.57439" lon="22.09437">
        <ele>43.920699</ele>
        <time>2020-09-26T08:19:57.244Z</time>
      </trkpt>
      <trkpt lat="65.57429" lon="22.09431">
        <ele>44.309919</ele>
        <time>2020-09-26T08:20:00.266Z</time>
      </trkpt>
      <trkpt lat="65.57419" lon="22.09424">
        <ele>44.7052</ele>
        <time>2020-09-26T08:20:03.256Z</time>
      </trkpt>
      <trkpt lat="65.5741" lon="22.0942">
        <ele>45.039848</ele>
        <time>2020-09-26T08:20:06.237Z</time>
      </trkpt>
      <trkpt lat="65.57401" lon="22.09415">
        <ele>45.395672</ele>
        <time>2020-09-26T08:20:09.250Z</time>
      </trkpt>
      <trkpt lat="65.57391" lon="22.09407">
        <ele>45.782484</ele>
        <time>2020-09-26T08:20:12.239Z</time>
      </trkpt>
      <trkpt lat="65.5738" lon="22.09398">
        <ele>46.21092</ele>
        <time>2020-09-26T08:20:15.248Z</time>
      </trkpt>
      <trkpt lat="65.57369" lon="22.09392">
        <ele>46.631545</ele>
        <time>2020-09-26T08:20:18.267Z</time>
      </trkpt>
      <trkpt lat="65.57359" lon="22.09388">
        <ele>47.000689</ele>
        <time>2020-09-26T08:20:21.235Z</time>
      </trkpt>
      <trkpt lat="65.57349" lon="22.09381">
        <ele>47.036252</ele>
        <time>2020-09-26T08:20:24.229Z</time>
      </trkpt>
      <trkpt lat="65.57339" lon="22.09375">
        <ele>46.930836</ele>
        <time>2020-09-26T08:20:27.233Z</time>
      </trkpt>
      <trkpt lat="65.57328" lon="22.09369">
        <ele>46.817147</ele>
        <time>2020-09-26T08:20:30.268Z</time>
      </trkpt>
      <trkpt lat="65.57318" lon="22.09362">
        <ele>46.707798</ele>
        <time>2020-09-26T08:20:33.258Z</time>
      </trkpt>
      <trkpt lat="65.57307" lon="22.09355">
        <ele>46.587112</ele>
        <time>2020-09-26T08:20:36.265Z</time>
      </trkpt>
      <trkpt lat="65.57297" lon="22.09344">
        <ele>46.474237</ele>
        <time>2020-09-26T08:20:39.271Z</time>
      </trkpt>
      <trkpt lat="65.57287" lon="22.09334">
        <ele>46.363696</ele>
        <time>2020-09-26T08:20:42.270Z</time>
      </trkpt>
      <trkpt lat="65.57276" lon="22.09323">
        <ele>46.239751</ele>
        <time>2020-09-26T08:20:45.255Z</time>
      </trkpt>
      <trkpt lat="65.57265" lon="22.09313">
        <ele>46.114107</ele>
        <time>2020-09-26T08:20:48.240Z</time>
      </trkpt>
      <trkpt lat="65.57254" lon="22.09295">
        <ele>45.980202</ele>
        <time>2020-09-26T08:20:51.272Z</time>
      </trkpt>
      <trkpt lat="65.57246" lon="22.09272">
        <ele>45.846171</ele>
        <time>2020-09-26T08:20:54.239Z</time>
      </trkpt>
      <trkpt lat="65.57239" lon="22.09248">
        <ele>45.720915</ele>
        <time>2020-09-26T08:20:57.278Z</time>
      </trkpt>
      <trkpt lat="65.57233" lon="22.09227">
        <ele>45.613397</ele>
        <time>2020-09-26T08:21:00.243Z</time>
      </trkpt>
      <trkpt lat="65.57226" lon="22.09209">
        <ele>45.505127</ele>
        <time>2020-09-26T08:21:03.243Z</time>
      </trkpt>
      <trkpt lat="65.57218" lon="22.0919">
        <ele>45.389957</ele>
        <time>2020-09-26T08:21:06.230Z</time>
      </trkpt>
      <trkpt lat="65.5721" lon="22.0917">
        <ele>45.272733</ele>
        <time>2020-09-26T08:21:09.238Z</time>
      </trkpt>
      <trkpt lat="65.57203" lon="22.0915">
        <ele>45.145584</ele>
        <time>2020-09-26T08:21:12.243Z</time>
      </trkpt>
      <trkpt lat="65.57195" lon="22.09133">
        <ele>45.025598</ele>
        <time>2020-09-26T08:21:15.254Z</time>
      </trkpt>
      <trkpt lat="65.57187" lon="22.09118">
        <ele>44.905288</ele>
        <time>2020-09-26T08:21:18.241Z</time>
      </trkpt>
      <trkpt lat="65.57179" lon="22.09101">
        <ele>44.786122</ele>
        <time>2020-09-26T08:21:21.220Z</time>
      </trkpt>
      <trkpt lat="65.57172" lon="22.09084">
        <ele>44.664136</ele>
        <time>2020-09-26T08:21:24.228Z</time>
      </trkpt>
      <trkpt lat="65.57163" lon="22.09068">
        <ele>44.5413</ele>
        <time>2020-09-26T08:21:27.243Z</time>
      </trkpt>
      <trkpt lat="65.57155" lon="22.09054">
        <ele>44.426824</ele>
        <time>2020-09-26T08:21:30.224Z</time>
      </trkpt>
      <trkpt lat="65.57147" lon="22.0904">
        <ele>44.311127</ele>
        <time>2020-09-26T08:21:33.256Z</time>
      </trkpt>
      <trkpt lat="65.57138" lon="22.09024">
        <ele>44.182281</ele>
        <time>2020-09-26T08:21:36.236Z</time>
      </trkpt>
      <trkpt lat="65.57128" lon="22.0901">
        <ele>44.046606</ele>
        <time>2020-09-26T08:21:39.245Z</time>
      </trkpt>
      <trkpt lat="65.57117" lon="22.08998">
        <ele>43.911131</ele>
        <time>2020-09-26T08:21:42.239Z</time>
      </trkpt>
      <trkpt lat="65.57107" lon="22.08986">
        <ele>43.779428</ele>
        <time>2020-09-26T08:21:45.230Z</time>
      </trkpt>
      <trkpt lat="65.57097" lon="22.08973">
        <ele>43.646793</ele>
        <time>2020-09-26T08:21:48.227Z</time>
      </trkpt>
      <trkpt lat="65.57085" lon="22.0896">
        <ele>43.497973</ele>
        <time>2020-09-26T08:21:51.227Z</time>
      </trkpt>
      <trkpt lat="65.57077" lon="22.08952">
        <ele>43.391831</ele>
        <time>2020-09-26T08:21:53.244Z</time>
      </trkpt>
      <trkpt lat="65.57065" lon="22.08939">
        <ele>43.239861</ele>
        <time>2020-09-26T08:21:56.249Z</time>
      </trkpt>
      <trkpt lat="65.57057" lon="22.0893">
        <ele>43.129096</ele>
        <time>2020-09-26T08:21:58.248Z</time>
      </trkpt>
      <trkpt lat="65.57048" lon="22.08922">
        <ele>43.005561</ele>
        <time>2020-09-26T08:22:00.228Z</time>
      </trkpt>
      <trkpt lat="65.57036" lon="22.08909">
        <ele>42.823257</ele>
        <time>2020-09-26T08:22:03.219Z</time>
      </trkpt>
      <trkpt lat="65.57024" lon="22.08897">
        <ele>42.649289</ele>
        <time>2020-09-26T08:22:06.229Z</time>
      </trkpt>
      <trkpt lat="65.57012" lon="22.08883">
        <ele>42.474945</ele>
        <time>2020-09-26T08:22:09.243Z</time>
      </trkpt>
      <trkpt lat="65.57001" lon="22.08868">
        <ele>42.295718</ele>
        <time>2020-09-26T08:22:12.232Z</time>
      </trkpt>
      <trkpt lat="65.56989" lon="22.08855">
        <ele>42.119918</ele>
        <time>2020-09-26T08:22:15.238Z</time>
      </trkpt>
      <trkpt lat="65.56981" lon="22.08845">
        <ele>41.99673</ele>
        <time>2020-09-26T08:22:17.241Z</time>
      </trkpt>
      <trkpt lat="65.56972" lon="22.08835">
        <ele>41.870131</ele>
        <time>2020-09-26T08:22:19.266Z</time>
      </trkpt>
      <trkpt lat="65.56963" lon="22.08826">
        <ele>41.741056</ele>
        <time>2020-09-26T08:22:21.243Z</time>
      </trkpt>
      <trkpt lat="65.56951" lon="22.08813">
        <ele>41.56065</ele>
        <time>2020-09-26T08:22:24.250Z</time>
      </trkpt>
      <trkpt lat="65.56939" lon="22.088">
        <ele>41.384543</ele>
        <time>2020-09-26T08:22:27.236Z</time>
      </trkpt>
      <trkpt lat="65.56931" lon="22.0879">
        <ele>41.259856</ele>
        <time>2020-09-26T08:22:29.239Z</time>
      </trkpt>
      <trkpt lat="65.56923" lon="22.08782">
        <ele>41.135695</ele>
        <time>2020-09-26T08:22:31.247Z</time>
      </trkpt>
      <trkpt lat="65.56914" lon="22.08773">
        <ele>41.005682</ele>
        <time>2020-09-26T08:22:33.269Z</time>
      </trkpt>
      <trkpt lat="65.56903" lon="22.08758">
        <ele>40.836923</ele>
        <time>2020-09-26T08:22:36.293Z</time>
      </trkpt>
      <trkpt lat="65.56891" lon="22.08744">
        <ele>40.739241</ele>
        <time>2020-09-26T08:22:39.270Z</time>
      </trkpt>
      <trkpt lat="65.56879" lon="22.08731">
        <ele>40.762042</ele>
        <time>2020-09-26T08:22:42.248Z</time>
      </trkpt>
      <trkpt lat="65.56868" lon="22.08718">
        <ele>40.785464</ele>
        <time>2020-09-26T08:22:45.248Z</time>
      </trkpt>
      <trkpt lat="65.56856" lon="22.08706">
        <ele>40.808976</ele>
        <time>2020-09-26T08:22:48.261Z</time>
      </trkpt>
      <trkpt lat="65.56844" lon="22.08693">
        <ele>40.832696</ele>
        <time>2020-09-26T08:22:51.233Z</time>
      </trkpt>
      <trkpt lat="65.56832" lon="22.0868">
        <ele>40.855861</ele>
        <time>2020-09-26T08:22:54.259Z</time>
      </trkpt>
      <trkpt lat="65.5682" lon="22.08667">
        <ele>40.879207</ele>
        <time>2020-09-26T08:22:57.220Z</time>
      </trkpt>
      <trkpt lat="65.56808" lon="22.08656">
        <ele>40.903137</ele>
        <time>2020-09-26T08:23:00.263Z</time>
      </trkpt>
      <trkpt lat="65.56799" lon="22.08651">
        <ele>40.919812</ele>
        <time>2020-09-26T08:23:02.244Z</time>
      </trkpt>
      <trkpt lat="65.56786" lon="22.08641">
        <ele>40.943471</ele>
        <time>2020-09-26T08:23:05.241Z</time>
      </trkpt>
      <trkpt lat="65.56777" lon="22.08638">
        <ele>40.96007</ele>
        <time>2020-09-26T08:23:07.233Z</time>
      </trkpt>
      <trkpt lat="65.56768" lon="22.08636">
        <ele>40.97654</ele>
        <time>2020-09-26T08:23:09.254Z</time>
      </trkpt>
      <trkpt lat="65.56755" lon="22.08633">
        <ele>41.000494</ele>
        <time>2020-09-26T08:23:12.258Z</time>
      </trkpt>
      <trkpt lat="65.56746" lon="22.08627">
        <ele>41.016871</ele>
        <time>2020-09-26T08:23:14.249Z</time>
      </trkpt>
      <trkpt lat="65.56734" lon="22.08617">
        <ele>41.039914</ele>
        <time>2020-09-26T08:23:17.264Z</time>
      </trkpt>
      <trkpt lat="65.56721" lon="22.08607">
        <ele>41.223697</ele>
        <time>2020-09-26T08:23:20.235Z</time>
      </trkpt>
      <trkpt lat="65.56712" lon="22.086">
        <ele>41.517239</ele>
        <time>2020-09-26T08:23:22.230Z</time>
      </trkpt>
      <trkpt lat="65.56702" lon="22.08594">
        <ele>41.82695</ele>
        <time>2020-09-26T08:23:24.252Z</time>
      </trkpt>
      <trkpt lat="65.56692" lon="22.08589">
        <ele>42.145855</ele>
        <time>2020-09-26T08:23:26.248Z</time>
      </trkpt>
      <trkpt lat="65.56681" lon="22.08589">
        <ele>42.490171</ele>
        <time>2020-09-26T08:23:28.248Z</time>
      </trkpt>
      <trkpt lat="65.56669" lon="22.0859">
        <ele>42.856632</ele>
        <time>2020-09-26T08:23:30.233Z</time>
      </trkpt>
      <trkpt lat="65.56656" lon="22.08594">
        <ele>43.246588</ele>
        <time>2020-09-26T08:23:32.239Z</time>
      </trkpt>
      <trkpt lat="65.56643" lon="22.08597">
        <ele>43.663889</ele>
        <time>2020-09-26T08:23:34.233Z</time>
      </trkpt>
      <trkpt lat="65.56629" lon="22.08598">
        <ele>44.100416</ele>
        <time>2020-09-26T08:23:36.238Z</time>
      </trkpt>
      <trkpt lat="65.56616" lon="22.08595">
        <ele>44.501787</ele>
        <time>2020-09-26T08:23:38.247Z</time>
      </trkpt>
      <trkpt lat="65.56603" lon="22.08594">
        <ele>44.889181</ele>
        <time>2020-09-26T08:23:41.260Z</time>
      </trkpt>
      <trkpt lat="65.5659" lon="22.08593">
        <ele>45.279981</ele>
        <time>2020-09-26T08:23:43.261Z</time>
      </trkpt>
      <trkpt lat="65.56576" lon="22.08597">
        <ele>45.728388</ele>
        <time>2020-09-26T08:23:45.266Z</time>
      </trkpt>
      <trkpt lat="65.56565" lon="22.08609">
        <ele>46.09424</ele>
        <time>2020-09-26T08:23:47.246Z</time>
      </trkpt>
      <trkpt lat="65.56556" lon="22.08619">
        <ele>46.395857</ele>
        <time>2020-09-26T08:23:49.288Z</time>
      </trkpt>
      <trkpt lat="65.56548" lon="22.08628">
        <ele>46.656921</ele>
        <time>2020-09-26T08:23:51.270Z</time>
      </trkpt>
      <trkpt lat="65.56537" lon="22.08641">
        <ele>46.957441</ele>
        <time>2020-09-26T08:23:54.232Z</time>
      </trkpt>
      <trkpt lat="65.56526" lon="22.08654">
        <ele>47.249647</ele>
        <time>2020-09-26T08:23:57.259Z</time>
      </trkpt>
      <trkpt lat="65.56515" lon="22.08667">
        <ele>47.538788</ele>
        <time>2020-09-26T08:24:00.251Z</time>
      </trkpt>
      <trkpt lat="65.56505" lon="22.08679">
        <ele>47.822713</ele>
        <time>2020-09-26T08:24:03.231Z</time>
      </trkpt>
      <trkpt lat="65.56495" lon="22.08687">
        <ele>48.06497</ele>
        <time>2020-09-26T08:24:06.244Z</time>
      </trkpt>
      <trkpt lat="65.56484" lon="22.08698">
        <ele>48.35454</ele>
        <time>2020-09-26T08:24:10.251Z</time>
      </trkpt>
      <trkpt lat="65.56474" lon="22.08705">
        <ele>48.604843</ele>
        <time>2020-09-26T08:24:13.251Z</time>
      </trkpt>
      <trkpt lat="65.56464" lon="22.08711">
        <ele>48.863453</ele>
        <time>2020-09-26T08:24:16.254Z</time>
      </trkpt>
      <trkpt lat="65.56453" lon="22.08719">
        <ele>49.15569</ele>
        <time>2020-09-26T08:24:19.296Z</time>
      </trkpt>
      <trkpt lat="65.56441" lon="22.08724">
        <ele>49.447827</ele>
        <time>2020-09-26T08:24:22.234Z</time>
      </trkpt>
      <trkpt lat="65.56428" lon="22.0873">
        <ele>49.761629</ele>
        <time>2020-09-26T08:24:25.250Z</time>
      </trkpt>
      <trkpt lat="65.56416" lon="22.08735">
        <ele>50.061441</ele>
        <time>2020-09-26T08:24:28.249Z</time>
      </trkpt>
      <trkpt lat="65.56403" lon="22.08737">
        <ele>50.368136</ele>
        <time>2020-09-26T08:24:31.268Z</time>
      </trkpt>
      <trkpt lat="65.56391" lon="22.08737">
        <ele>50.674243</ele>
        <time>2020-09-26T08:24:34.239Z</time>
      </trkpt>
      <trkpt lat="65.56377" lon="22.08736">
        <ele>50.859635</ele>
        <time>2020-09-26T08:24:37.250Z</time>
      </trkpt>
      <trkpt lat="65.56368" lon="22.08734">
        <ele>50.377969</ele>
        <time>2020-09-26T08:24:39.267Z</time>
      </trkpt>
      <trkpt lat="65.56358" lon="22.08731">
        <ele>49.923134</ele>
        <time>2020-09-26T08:24:41.252Z</time>
      </trkpt>
      <trkpt lat="65.56345" lon="22.08726">
        <ele>49.267158</ele>
        <time>2020-09-26T08:24:44.228Z</time>
      </trkpt>
      <trkpt lat="65.56335" lon="22.08721">
        <ele>48.764394</ele>
        <time>2020-09-26T08:24:46.235Z</time>
      </trkpt>
      <trkpt lat="65.56325" lon="22.08715">
        <ele>48.266408</ele>
        <time>2020-09-26T08:24:48.247Z</time>
      </trkpt>
      <trkpt lat="65.56316" lon="22.08711">
        <ele>47.783312</ele>
        <time>2020-09-26T08:24:50.265Z</time>
      </trkpt>
      <trkpt lat="65.56305" lon="22.08705">
        <ele>47.257044</ele>
        <time>2020-09-26T08:24:52.284Z</time>
      </trkpt>
      <trkpt lat="65.56295" lon="22.087">
        <ele>46.76429</ele>
        <time>2020-09-26T08:24:54.262Z</time>
      </trkpt>
      <trkpt lat="65.56286" lon="22.08694">
        <ele>46.283441</ele>
        <time>2020-09-26T08:24:56.236Z</time>
      </trkpt>
      <trkpt lat="65.56277" lon="22.08688">
        <ele>45.815765</ele>
        <time>2020-09-26T08:24:58.231Z</time>
      </trkpt>
      <trkpt lat="65.56267" lon="22.08684">
        <ele>45.360814</ele>
        <time>2020-09-26T08:25:00.231Z</time>
      </trkpt>
      <trkpt lat="65.56259" lon="22.08679">
        <ele>44.915874</ele>
        <time>2020-09-26T08:25:02.255Z</time>
      </trkpt>
      <trkpt lat="65.56249" lon="22.08674">
        <ele>44.434871</ele>
        <time>2020-09-26T08:25:04.241Z</time>
      </trkpt>
      <trkpt lat="65.5624" lon="22.08669">
        <ele>43.991238</ele>
        <time>2020-09-26T08:25:06.249Z</time>
      </trkpt>
      <trkpt lat="65.56231" lon="22.08664">
        <ele>43.529876</ele>
        <time>2020-09-26T08:25:08.264Z</time>
      </trkpt>
      <trkpt lat="65.56222" lon="22.08658">
        <ele>43.058516</ele>
        <time>2020-09-26T08:25:10.239Z</time>
      </trkpt>
      <trkpt lat="65.56213" lon="22.08652">
        <ele>42.59292</ele>
        <time>2020-09-26T08:25:12.247Z</time>
      </trkpt>
      <trkpt lat="65.56204" lon="22.08646">
        <ele>42.150491</ele>
        <time>2020-09-26T08:25:14.237Z</time>
      </trkpt>
      <trkpt lat="65.56191" lon="22.08639">
        <ele>42.134964</ele>
        <time>2020-09-26T08:25:17.229Z</time>
      </trkpt>
      <trkpt lat="65.56182" lon="22.08633">
        <ele>42.135514</ele>
        <time>2020-09-26T08:25:19.248Z</time>
      </trkpt>
      <trkpt lat="65.56173" lon="22.08628">
        <ele>42.136065</ele>
        <time>2020-09-26T08:25:21.243Z</time>
      </trkpt>
      <trkpt lat="65.56164" lon="22.08622">
        <ele>42.136612</ele>
        <time>2020-09-26T08:25:23.250Z</time>
      </trkpt>
      <trkpt lat="65.56155" lon="22.08615">
        <ele>42.137152</ele>
        <time>2020-09-26T08:25:25.233Z</time>
      </trkpt>
      <trkpt lat="65.56142" lon="22.08606">
        <ele>42.137931</ele>
        <time>2020-09-26T08:25:28.273Z</time>
      </trkpt>
      <trkpt lat="65.56129" lon="22.08598">
        <ele>42.138722</ele>
        <time>2020-09-26T08:25:31.270Z</time>
      </trkpt>
      <trkpt lat="65.56116" lon="22.08589">
        <ele>42.139513</ele>
        <time>2020-09-26T08:25:34.251Z</time>
      </trkpt>
      <trkpt lat="65.56107" lon="22.08583">
        <ele>42.140083</ele>
        <time>2020-09-26T08:25:36.263Z</time>
      </trkpt>
      <trkpt lat="65.56098" lon="22.08577">
        <ele>42.140608</ele>
        <time>2020-09-26T08:25:38.246Z</time>
      </trkpt>
      <trkpt lat="65.56085" lon="22.08569">
        <ele>42.141388</ele>
        <time>2020-09-26T08:25:41.239Z</time>
      </trkpt>
      <trkpt lat="65.56076" lon="22.08564">
        <ele>42.141934</ele>
        <time>2020-09-26T08:25:43.241Z</time>
      </trkpt>
      <trkpt lat="65.56067" lon="22.08558">
        <ele>42.142478</ele>
        <time>2020-09-26T08:25:45.240Z</time>
      </trkpt>
      <trkpt lat="65.56058" lon="22.08552">
        <ele>42.14301</ele>
        <time>2020-09-26T08:25:47.242Z</time>
      </trkpt>
      <trkpt lat="65.56049" lon="22.08546">
        <ele>42.143557</ele>
        <time>2020-09-26T08:25:49.238Z</time>
      </trkpt>
      <trkpt lat="65.5604" lon="22.08541">
        <ele>42.144106</ele>
        <time>2020-09-26T08:25:51.232Z</time>
      </trkpt>
      <trkpt lat="65.56031" lon="22.08537">
        <ele>42.144674</ele>
        <time>2020-09-26T08:25:53.242Z</time>
      </trkpt>
      <trkpt lat="65.56021" lon="22.08531">
        <ele>42.159208</ele>
        <time>2020-09-26T08:25:55.237Z</time>
      </trkpt>
      <trkpt lat="65.56012" lon="22.08525">
        <ele>42.175022</ele>
        <time>2020-09-26T08:25:57.240Z</time>
      </trkpt>
      <trkpt lat="65.56003" lon="22.08518">
        <ele>42.190816</ele>
        <time>2020-09-26T08:25:59.238Z</time>
      </trkpt>
      <trkpt lat="65.55994" lon="22.08511">
        <ele>42.20699</ele>
        <time>2020-09-26T08:26:01.228Z</time>
      </trkpt>
      <trkpt lat="65.55985" lon="22.08506">
        <ele>42.222712</ele>
        <time>2020-09-26T08:26:03.263Z</time>
      </trkpt>
      <trkpt lat="65.55975" lon="22.08499">
        <ele>42.238725</ele>
        <time>2020-09-26T08:26:05.270Z</time>
      </trkpt>
      <trkpt lat="65.55966" lon="22.08492">
        <ele>42.255517</ele>
        <time>2020-09-26T08:26:07.249Z</time>
      </trkpt>
      <trkpt lat="65.55956" lon="22.08486">
        <ele>42.272909</ele>
        <time>2020-09-26T08:26:09.229Z</time>
      </trkpt>
      <trkpt lat="65.55946" lon="22.0848">
        <ele>42.289082</ele>
        <time>2020-09-26T08:26:11.228Z</time>
      </trkpt>
      <trkpt lat="65.55937" lon="22.08476">
        <ele>42.304941</ele>
        <time>2020-09-26T08:26:13.248Z</time>
      </trkpt>
      <trkpt lat="65.55927" lon="22.0847">
        <ele>42.321651</ele>
        <time>2020-09-26T08:26:15.230Z</time>
      </trkpt>
      <trkpt lat="65.55918" lon="22.08465">
        <ele>42.33711</ele>
        <time>2020-09-26T08:26:17.277Z</time>
      </trkpt>
      <trkpt lat="65.55909" lon="22.0846">
        <ele>42.352614</ele>
        <time>2020-09-26T08:26:19.248Z</time>
      </trkpt>
      <trkpt lat="65.559" lon="22.08455">
        <ele>42.36822</ele>
        <time>2020-09-26T08:26:21.241Z</time>
      </trkpt>
      <trkpt lat="65.55891" lon="22.08449">
        <ele>42.383592</ele>
        <time>2020-09-26T08:26:23.227Z</time>
      </trkpt>
      <trkpt lat="65.55882" lon="22.08442">
        <ele>42.399186</ele>
        <time>2020-09-26T08:26:25.260Z</time>
      </trkpt>
      <trkpt lat="65.55873" lon="22.08436">
        <ele>42.415231</ele>
        <time>2020-09-26T08:26:27.240Z</time>
      </trkpt>
      <trkpt lat="65.55864" lon="22.0843">
        <ele>42.431081</ele>
        <time>2020-09-26T08:26:29.241Z</time>
      </trkpt>
      <trkpt lat="65.55851" lon="22.08423">
        <ele>42.476873</ele>
        <time>2020-09-26T08:26:32.259Z</time>
      </trkpt>
      <trkpt lat="65.55838" lon="22.08415">
        <ele>42.565316</ele>
        <time>2020-09-26T08:26:35.240Z</time>
      </trkpt>
      <trkpt lat="65.55826" lon="22.08408">
        <ele>42.653238</ele>
        <time>2020-09-26T08:26:38.238Z</time>
      </trkpt>
      <trkpt lat="65.55813" lon="22.08399">
        <ele>42.743621</ele>
        <time>2020-09-26T08:26:41.260Z</time>
      </trkpt>
      <trkpt lat="65.558" lon="22.0839">
        <ele>42.833773</ele>
        <time>2020-09-26T08:26:44.229Z</time>
      </trkpt>
      <trkpt lat="65.55791" lon="22.08384">
        <ele>42.895069</ele>
        <time>2020-09-26T08:26:46.237Z</time>
      </trkpt>
      <trkpt lat="65.55782" lon="22.08378">
        <ele>42.956801</ele>
        <time>2020-09-26T08:26:48.278Z</time>
      </trkpt>
      <trkpt lat="65.55769" lon="22.08371">
        <ele>43.044337</ele>
        <time>2020-09-26T08:26:51.280Z</time>
      </trkpt>
      <trkpt lat="65.55757" lon="22.08363">
        <ele>43.129171</ele>
        <time>2020-09-26T08:26:54.238Z</time>
      </trkpt>
      <trkpt lat="65.55745" lon="22.08355">
        <ele>43.216067</ele>
        <time>2020-09-26T08:26:57.248Z</time>
      </trkpt>
      <trkpt lat="65.55732" lon="22.08347">
        <ele>43.302822</ele>
        <time>2020-09-26T08:27:00.258Z</time>
      </trkpt>
      <trkpt lat="65.5572" lon="22.08339">
        <ele>43.389287</ele>
        <time>2020-09-26T08:27:03.281Z</time>
      </trkpt>
      <trkpt lat="65.55707" lon="22.0833">
        <ele>43.477697</ele>
        <time>2020-09-26T08:27:06.246Z</time>
      </trkpt>
      <trkpt lat="65.55698" lon="22.08325">
        <ele>43.54328</ele>
        <time>2020-09-26T08:27:08.232Z</time>
      </trkpt>
      <trkpt lat="65.55689" lon="22.08319">
        <ele>43.606523</ele>
        <time>2020-09-26T08:27:10.247Z</time>
      </trkpt>
      <trkpt lat="65.55677" lon="22.08311">
        <ele>43.871703</ele>
        <time>2020-09-26T08:27:13.242Z</time>
      </trkpt>
      <trkpt lat="65.55665" lon="22.08303">
        <ele>44.427114</ele>
        <time>2020-09-26T08:27:16.250Z</time>
      </trkpt>
      <trkpt lat="65.55652" lon="22.08294">
        <ele>45.01106</ele>
        <time>2020-09-26T08:27:19.272Z</time>
      </trkpt>
      <trkpt lat="65.55639" lon="22.08285">
        <ele>45.583217</ele>
        <time>2020-09-26T08:27:22.227Z</time>
      </trkpt>
      <trkpt lat="65.5563" lon="22.0828">
        <ele>45.975229</ele>
        <time>2020-09-26T08:27:24.244Z</time>
      </trkpt>
      <trkpt lat="65.55618" lon="22.08272">
        <ele>46.553016</ele>
        <time>2020-09-26T08:27:27.273Z</time>
      </trkpt>
      <trkpt lat="65.55604" lon="22.08263">
        <ele>47.150361</ele>
        <time>2020-09-26T08:27:30.255Z</time>
      </trkpt>
      <trkpt lat="65.55595" lon="22.08257">
        <ele>47.585008</ele>
        <time>2020-09-26T08:27:32.252Z</time>
      </trkpt>
      <trkpt lat="65.55585" lon="22.08252">
        <ele>48.019219</ele>
        <time>2020-09-26T08:27:34.249Z</time>
      </trkpt>
      <trkpt lat="65.55572" lon="22.08243">
        <ele>48.598839</ele>
        <time>2020-09-26T08:27:37.256Z</time>
      </trkpt>
      <trkpt lat="65.5556" lon="22.08235">
        <ele>49.155241</ele>
        <time>2020-09-26T08:27:40.244Z</time>
      </trkpt>
      <trkpt lat="65.55547" lon="22.08228">
        <ele>49.708573</ele>
        <time>2020-09-26T08:27:43.242Z</time>
      </trkpt>
      <trkpt lat="65.55535" lon="22.08221">
        <ele>50.251829</ele>
        <time>2020-09-26T08:27:46.249Z</time>
      </trkpt>
      <trkpt lat="65.55522" lon="22.08215">
        <ele>50.817729</ele>
        <time>2020-09-26T08:27:49.243Z</time>
      </trkpt>
      <trkpt lat="65.5551" lon="22.08209">
        <ele>51.366018</ele>
        <time>2020-09-26T08:27:52.252Z</time>
      </trkpt>
      <trkpt lat="65.55497" lon="22.08202">
        <ele>51.549651</ele>
        <time>2020-09-26T08:27:55.254Z</time>
      </trkpt>
      <trkpt lat="65.55488" lon="22.08198">
        <ele>51.622844</ele>
        <time>2020-09-26T08:27:57.264Z</time>
      </trkpt>
      <trkpt lat="65.55479" lon="22.08191">
        <ele>51.694267</ele>
        <time>2020-09-26T08:27:59.302Z</time>
      </trkpt>
      <trkpt lat="65.55467" lon="22.08185">
        <ele>51.785852</ele>
        <time>2020-09-26T08:28:02.241Z</time>
      </trkpt>
      <trkpt lat="65.55455" lon="22.08179">
        <ele>51.880706</ele>
        <time>2020-09-26T08:28:05.247Z</time>
      </trkpt>
      <trkpt lat="65.55443" lon="22.08174">
        <ele>51.969889</ele>
        <time>2020-09-26T08:28:08.245Z</time>
      </trkpt>
      <trkpt lat="65.55431" lon="22.08166">
        <ele>52.061095</ele>
        <time>2020-09-26T08:28:11.237Z</time>
      </trkpt>
      <trkpt lat="65.55422" lon="22.08163">
        <ele>52.129958</ele>
        <time>2020-09-26T08:28:13.300Z</time>
      </trkpt>
      <trkpt lat="65.55409" lon="22.08158">
        <ele>52.229211</ele>
        <time>2020-09-26T08:28:16.247Z</time>
      </trkpt>
      <trkpt lat="65.55399" lon="22.08156">
        <ele>52.305224</ele>
        <time>2020-09-26T08:28:18.250Z</time>
      </trkpt>
      <trkpt lat="65.5539" lon="22.08153">
        <ele>52.375312</ele>
        <time>2020-09-26T08:28:20.229Z</time>
      </trkpt>
      <trkpt lat="65.55376" lon="22.08149">
        <ele>52.478632</ele>
        <time>2020-09-26T08:28:23.251Z</time>
      </trkpt>
      <trkpt lat="65.55363" lon="22.08145">
        <ele>52.577711</ele>
        <time>2020-09-26T08:28:26.271Z</time>
      </trkpt>
      <trkpt lat="65.55351" lon="22.08141">
        <ele>52.672344</ele>
        <time>2020-09-26T08:28:29.239Z</time>
      </trkpt>
      <trkpt lat="65.55338" lon="22.08137">
        <ele>52.774266</ele>
        <time>2020-09-26T08:28:32.240Z</time>
      </trkpt>
      <trkpt lat="65.55329" lon="22.08132">
        <ele>52.773255</ele>
        <time>2020-09-26T08:28:34.231Z</time>
      </trkpt>
      <trkpt lat="65.55317" lon="22.08127">
        <ele>52.403744</ele>
        <time>2020-09-26T08:28:37.259Z</time>
      </trkpt>
      <trkpt lat="65.55305" lon="22.08122">
        <ele>52.040435</ele>
        <time>2020-09-26T08:28:40.231Z</time>
      </trkpt>
      <trkpt lat="65.55292" lon="22.08117">
        <ele>51.638836</ele>
        <time>2020-09-26T08:28:43.227Z</time>
      </trkpt>
      <trkpt lat="65.55279" lon="22.08111">
        <ele>51.239767</ele>
        <time>2020-09-26T08:28:46.231Z</time>
      </trkpt>
      <trkpt lat="65.55267" lon="22.08104">
        <ele>50.843823</ele>
        <time>2020-09-26T08:28:49.228Z</time>
      </trkpt>
      <trkpt lat="65.55257" lon="22.08098">
        <ele>50.556632</ele>
        <time>2020-09-26T08:28:51.260Z</time>
      </trkpt>
      <trkpt lat="65.55248" lon="22.08094">
        <ele>50.26511</ele>
        <time>2020-09-26T08:28:53.232Z</time>
      </trkpt>
      <trkpt lat="65.55235" lon="22.08088">
        <ele>49.868053</ele>
        <time>2020-09-26T08:28:56.264Z</time>
      </trkpt>
      <trkpt lat="65.55225" lon="22.08082">
        <ele>49.538246</ele>
        <time>2020-09-26T08:28:58.264Z</time>
      </trkpt>
      <trkpt lat="65.55213" lon="22.08075">
        <ele>49.163309</ele>
        <time>2020-09-26T08:29:00.283Z</time>
      </trkpt>
      <trkpt lat="65.55202" lon="22.08067">
        <ele>48.814498</ele>
        <time>2020-09-26T08:29:02.237Z</time>
      </trkpt>
      <trkpt lat="65.55191" lon="22.08059">
        <ele>48.47985</ele>
        <time>2020-09-26T08:29:04.281Z</time>
      </trkpt>
      <trkpt lat="65.55181" lon="22.08051">
        <ele>48.15213</ele>
        <time>2020-09-26T08:29:06.255Z</time>
      </trkpt>
      <trkpt lat="65.55171" lon="22.08044">
        <ele>47.84442</ele>
        <time>2020-09-26T08:29:08.285Z</time>
      </trkpt>
      <trkpt lat="65.55162" lon="22.08037">
        <ele>47.544686</ele>
        <time>2020-09-26T08:29:10.235Z</time>
      </trkpt>
      <trkpt lat="65.55151" lon="22.0803">
        <ele>47.217393</ele>
        <time>2020-09-26T08:29:12.252Z</time>
      </trkpt>
      <trkpt lat="65.55134" lon="22.08019">
        <ele>46.701113</ele>
        <time>2020-09-26T08:29:15.248Z</time>
      </trkpt>
      <trkpt lat="65.55122" lon="22.08012">
        <ele>46.361353</ele>
        <time>2020-09-26T08:29:17.239Z</time>
      </trkpt>
      <trkpt lat="65.55111" lon="22.08002">
        <ele>46.010371</ele>
        <time>2020-09-26T08:29:19.248Z</time>
      </trkpt>
      <trkpt lat="65.55098" lon="22.07992">
        <ele>45.62732</ele>
        <time>2020-09-26T08:29:21.258Z</time>
      </trkpt>
      <trkpt lat="65.55084" lon="22.07983">
        <ele>45.2063</ele>
        <time>2020-09-26T08:29:23.291Z</time>
      </trkpt>
      <trkpt lat="65.5507" lon="22.07976">
        <ele>44.788899</ele>
        <time>2020-09-26T08:29:25.269Z</time>
      </trkpt>
      <trkpt lat="65.55057" lon="22.0797">
        <ele>44.402973</ele>
        <time>2020-09-26T08:29:27.260Z</time>
      </trkpt>
      <trkpt lat="65.55047" lon="22.07962">
        <ele>44.105412</ele>
        <time>2020-09-26T08:29:29.276Z</time>
      </trkpt>
      <trkpt lat="65.55037" lon="22.07951">
        <ele>43.779489</ele>
        <time>2020-09-26T08:29:32.237Z</time>
      </trkpt>
      <trkpt lat="65.55025" lon="22.07936">
        <ele>43.385893</ele>
        <time>2020-09-26T08:29:35.276Z</time>
      </trkpt>
      <trkpt lat="65.55016" lon="22.07923">
        <ele>43.09222</ele>
        <time>2020-09-26T08:29:37.242Z</time>
      </trkpt>
      <trkpt lat="65.55008" lon="22.0791">
        <ele>42.803821</ele>
        <time>2020-09-26T08:29:39.266Z</time>
      </trkpt>
      <trkpt lat="65.54999" lon="22.07902">
        <ele>42.521141</ele>
        <time>2020-09-26T08:29:41.241Z</time>
      </trkpt>
      <trkpt lat="65.54988" lon="22.07897">
        <ele>42.206939</ele>
        <time>2020-09-26T08:29:43.237Z</time>
      </trkpt>
      <trkpt lat="65.54977" lon="22.07889">
        <ele>42.020207</ele>
        <time>2020-09-26T08:29:45.265Z</time>
      </trkpt>
      <trkpt lat="65.54965" lon="22.07882">
        <ele>41.848444</ele>
        <time>2020-09-26T08:29:47.242Z</time>
      </trkpt>
      <trkpt lat="65.54954" lon="22.07875">
        <ele>41.678806</ele>
        <time>2020-09-26T08:29:49.240Z</time>
      </trkpt>
      <trkpt lat="65.54942" lon="22.07869">
        <ele>41.51002</ele>
        <time>2020-09-26T08:29:51.230Z</time>
      </trkpt>
      <trkpt lat="65.54931" lon="22.07863">
        <ele>41.346414</ele>
        <time>2020-09-26T08:29:53.233Z</time>
      </trkpt>
      <trkpt lat="65.5492" lon="22.07856">
        <ele>41.185874</ele>
        <time>2020-09-26T08:29:55.243Z</time>
      </trkpt>
      <trkpt lat="65.54909" lon="22.07849">
        <ele>41.022919</ele>
        <time>2020-09-26T08:29:57.238Z</time>
      </trkpt>
      <trkpt lat="65.54897" lon="22.07841">
        <ele>40.859964</ele>
        <time>2020-09-26T08:29:59.243Z</time>
      </trkpt>
      <trkpt lat="65.54886" lon="22.07834">
        <ele>40.69473</ele>
        <time>2020-09-26T08:30:01.237Z</time>
      </trkpt>
      <trkpt lat="65.54875" lon="22.07827">
        <ele>40.535269</ele>
        <time>2020-09-26T08:30:03.240Z</time>
      </trkpt>
      <trkpt lat="65.54864" lon="22.07821">
        <ele>40.369134</ele>
        <time>2020-09-26T08:30:05.243Z</time>
      </trkpt>
      <trkpt lat="65.54852" lon="22.07818">
        <ele>40.200817</ele>
        <time>2020-09-26T08:30:07.240Z</time>
      </trkpt>
      <trkpt lat="65.5484" lon="22.07813">
        <ele>40.026253</ele>
        <time>2020-09-26T08:30:09.237Z</time>
      </trkpt>
      <trkpt lat="65.54827" lon="22.07806">
        <ele>39.847287</ele>
        <time>2020-09-26T08:30:11.242Z</time>
      </trkpt>
      <trkpt lat="65.54815" lon="22.07798">
        <ele>39.669908</ele>
        <time>2020-09-26T08:30:13.245Z</time>
      </trkpt>
      <trkpt lat="65.54803" lon="22.0779">
        <ele>39.633443</ele>
        <time>2020-09-26T08:30:15.273Z</time>
      </trkpt>
      <trkpt lat="65.54792" lon="22.07782">
        <ele>39.658159</ele>
        <time>2020-09-26T08:30:17.237Z</time>
      </trkpt>
      <trkpt lat="65.54779" lon="22.07774">
        <ele>39.683326</ele>
        <time>2020-09-26T08:30:19.259Z</time>
      </trkpt>
      <trkpt lat="65.54767" lon="22.07765">
        <ele>39.709729</ele>
        <time>2020-09-26T08:30:21.240Z</time>
      </trkpt>
      <trkpt lat="65.54754" lon="22.07757">
        <ele>39.736279</ele>
        <time>2020-09-26T08:30:23.240Z</time>
      </trkpt>
      <trkpt lat="65.54741" lon="22.07748">
        <ele>39.763263</ele>
        <time>2020-09-26T08:30:25.231Z</time>
      </trkpt>
      <trkpt lat="65.54728" lon="22.07741">
        <ele>39.790074</ele>
        <time>2020-09-26T08:30:27.244Z</time>
      </trkpt>
      <trkpt lat="65.54716" lon="22.07733">
        <ele>39.816021</ele>
        <time>2020-09-26T08:30:29.266Z</time>
      </trkpt>
      <trkpt lat="65.54704" lon="22.07725">
        <ele>39.840908</ele>
        <time>2020-09-26T08:30:31.243Z</time>
      </trkpt>
      <trkpt lat="65.54692" lon="22.07717">
        <ele>39.865945</ele>
        <time>2020-09-26T08:30:33.257Z</time>
      </trkpt>
      <trkpt lat="65.5468" lon="22.0771">
        <ele>39.891266</ele>
        <time>2020-09-26T08:30:35.242Z</time>
      </trkpt>
      <trkpt lat="65.54667" lon="22.07701">
        <ele>39.917362</ele>
        <time>2020-09-26T08:30:37.280Z</time>
      </trkpt>
      <trkpt lat="65.54655" lon="22.07691">
        <ele>39.944086</ele>
        <time>2020-09-26T08:30:39.248Z</time>
      </trkpt>
      <trkpt lat="65.54641" lon="22.07681">
        <ele>39.971741</ele>
        <time>2020-09-26T08:30:41.279Z</time>
      </trkpt>
      <trkpt lat="65.54628" lon="22.07671">
        <ele>39.865772</ele>
        <time>2020-09-26T08:30:43.274Z</time>
      </trkpt>
      <trkpt lat="65.54617" lon="22.07659">
        <ele>39.73206</ele>
        <time>2020-09-26T08:30:45.251Z</time>
      </trkpt>
      <trkpt lat="65.54606" lon="22.07649">
        <ele>39.611898</ele>
        <time>2020-09-26T08:30:47.237Z</time>
      </trkpt>
      <trkpt lat="65.54595" lon="22.07641">
        <ele>39.491981</ele>
        <time>2020-09-26T08:30:49.232Z</time>
      </trkpt>
      <trkpt lat="65.54584" lon="22.07634">
        <ele>39.364703</ele>
        <time>2020-09-26T08:30:51.289Z</time>
      </trkpt>
      <trkpt lat="65.54572" lon="22.07628">
        <ele>39.238031</ele>
        <time>2020-09-26T08:30:53.232Z</time>
      </trkpt>
      <trkpt lat="65.5456" lon="22.0762">
        <ele>39.109077</ele>
        <time>2020-09-26T08:30:55.244Z</time>
      </trkpt>
      <trkpt lat="65.54548" lon="22.07613">
        <ele>38.977593</ele>
        <time>2020-09-26T08:30:57.261Z</time>
      </trkpt>
      <trkpt lat="65.54536" lon="22.07606">
        <ele>38.847031</ele>
        <time>2020-09-26T08:30:59.252Z</time>
      </trkpt>
      <trkpt lat="65.54524" lon="22.076">
        <ele>38.715901</ele>
        <time>2020-09-26T08:31:01.255Z</time>
      </trkpt>
      <trkpt lat="65.54511" lon="22.07594">
        <ele>38.581155</ele>
        <time>2020-09-26T08:31:03.258Z</time>
      </trkpt>
      <trkpt lat="65.54499" lon="22.07587">
        <ele>38.447917</ele>
        <time>2020-09-26T08:31:05.279Z</time>
      </trkpt>
      <trkpt lat="65.54486" lon="22.07583">
        <ele>38.31107</ele>
        <time>2020-09-26T08:31:07.238Z</time>
      </trkpt>
      <trkpt lat="65.54473" lon="22.07579">
        <ele>38.176096</ele>
        <time>2020-09-26T08:31:09.248Z</time>
      </trkpt>
      <trkpt lat="65.5446" lon="22.07574">
        <ele>38.026297</ele>
        <time>2020-09-26T08:31:11.245Z</time>
      </trkpt>
      <trkpt lat="65.54447" lon="22.07566">
        <ele>37.854562</ele>
        <time>2020-09-26T08:31:13.236Z</time>
      </trkpt>
      <trkpt lat="65.54435" lon="22.07559">
        <ele>37.696284</ele>
        <time>2020-09-26T08:31:15.235Z</time>
      </trkpt>
      <trkpt lat="65.54423" lon="22.07551">
        <ele>37.542617</ele>
        <time>2020-09-26T08:31:17.261Z</time>
      </trkpt>
      <trkpt lat="65.54411" lon="22.07544">
        <ele>37.384211</ele>
        <time>2020-09-26T08:31:19.241Z</time>
      </trkpt>
      <trkpt lat="65.54398" lon="22.07536">
        <ele>37.214564</ele>
        <time>2020-09-26T08:31:21.232Z</time>
      </trkpt>
      <trkpt lat="65.54385" lon="22.07528">
        <ele>37.048739</ele>
        <time>2020-09-26T08:31:23.237Z</time>
      </trkpt>
      <trkpt lat="65.54372" lon="22.0752">
        <ele>36.877622</ele>
        <time>2020-09-26T08:31:25.256Z</time>
      </trkpt>
      <trkpt lat="65.54358" lon="22.07512">
        <ele>36.704775</ele>
        <time>2020-09-26T08:31:27.233Z</time>
      </trkpt>
      <trkpt lat="65.54344" lon="22.07505">
        <ele>36.523987</ele>
        <time>2020-09-26T08:31:29.238Z</time>
      </trkpt>
      <trkpt lat="65.54331" lon="22.07497">
        <ele>36.35079</ele>
        <time>2020-09-26T08:31:31.258Z</time>
      </trkpt>
      <trkpt lat="65.54318" lon="22.07489">
        <ele>36.186279</ele>
        <time>2020-09-26T08:31:33.244Z</time>
      </trkpt>
      <trkpt lat="65.54306" lon="22.07482">
        <ele>36.03234</ele>
        <time>2020-09-26T08:31:35.259Z</time>
      </trkpt>
      <trkpt lat="65.54294" lon="22.07474">
        <ele>35.874891</ele>
        <time>2020-09-26T08:31:37.250Z</time>
      </trkpt>
      <trkpt lat="65.54283" lon="22.07466">
        <ele>35.630953</ele>
        <time>2020-09-26T08:31:39.262Z</time>
      </trkpt>
      <trkpt lat="65.54271" lon="22.07458">
        <ele>35.32807</ele>
        <time>2020-09-26T08:31:41.242Z</time>
      </trkpt>
      <trkpt lat="65.54259" lon="22.07449">
        <ele>35.016304</ele>
        <time>2020-09-26T08:31:43.258Z</time>
      </trkpt>
      <trkpt lat="65.54246" lon="22.0744">
        <ele>34.695466</ele>
        <time>2020-09-26T08:31:45.253Z</time>
      </trkpt>
      <trkpt lat="65.54234" lon="22.07433">
        <ele>34.390574</ele>
        <time>2020-09-26T08:31:47.240Z</time>
      </trkpt>
      <trkpt lat="65.54222" lon="22.07426">
        <ele>34.085936</ele>
        <time>2020-09-26T08:31:49.291Z</time>
      </trkpt>
      <trkpt lat="65.54209" lon="22.07417">
        <ele>33.76284</ele>
        <time>2020-09-26T08:31:51.264Z</time>
      </trkpt>
      <trkpt lat="65.54197" lon="22.0741">
        <ele>33.44051</ele>
        <time>2020-09-26T08:31:53.273Z</time>
      </trkpt>
      <trkpt lat="65.54184" lon="22.07401">
        <ele>33.112398</ele>
        <time>2020-09-26T08:31:55.249Z</time>
      </trkpt>
      <trkpt lat="65.54171" lon="22.07393">
        <ele>32.779009</ele>
        <time>2020-09-26T08:31:57.244Z</time>
      </trkpt>
      <trkpt lat="65.54158" lon="22.07385">
        <ele>32.445879</ele>
        <time>2020-09-26T08:31:59.251Z</time>
      </trkpt>
      <trkpt lat="65.54144" lon="22.07378">
        <ele>32.113458</ele>
        <time>2020-09-26T08:32:01.239Z</time>
      </trkpt>
      <trkpt lat="65.54131" lon="22.0737">
        <ele>31.780839</ele>
        <time>2020-09-26T08:32:03.240Z</time>
      </trkpt>
      <trkpt lat="65.54118" lon="22.0736">
        <ele>31.446459</ele>
        <time>2020-09-26T08:32:05.241Z</time>
      </trkpt>
      <trkpt lat="65.54106" lon="22.07351">
        <ele>31.472239</ele>
        <time>2020-09-26T08:32:07.283Z</time>
      </trkpt>
      <trkpt lat="65.54093" lon="22.07344">
        <ele>31.568342</ele>
        <time>2020-09-26T08:32:09.249Z</time>
      </trkpt>
      <trkpt lat="65.54081" lon="22.07335">
        <ele>31.661886</ele>
        <time>2020-09-26T08:32:11.260Z</time>
      </trkpt>
      <trkpt lat="65.54068" lon="22.07327">
        <ele>31.759573</ele>
        <time>2020-09-26T08:32:13.259Z</time>
      </trkpt>
      <trkpt lat="65.54055" lon="22.07318">
        <ele>31.860036</ele>
        <time>2020-09-26T08:32:15.260Z</time>
      </trkpt>
      <trkpt lat="65.54042" lon="22.07309">
        <ele>31.96113</ele>
        <time>2020-09-26T08:32:17.262Z</time>
      </trkpt>
      <trkpt lat="65.5403" lon="22.07302">
        <ele>32.051997</ele>
        <time>2020-09-26T08:32:19.241Z</time>
      </trkpt>
      <trkpt lat="65.54018" lon="22.07294">
        <ele>32.144935</ele>
        <time>2020-09-26T08:32:21.241Z</time>
      </trkpt>
      <trkpt lat="65.54005" lon="22.07286">
        <ele>32.244622</ele>
        <time>2020-09-26T08:32:23.272Z</time>
      </trkpt>
      <trkpt lat="65.53992" lon="22.07278">
        <ele>32.339692</ele>
        <time>2020-09-26T08:32:25.255Z</time>
      </trkpt>
      <trkpt lat="65.53979" lon="22.07271">
        <ele>32.436146</ele>
        <time>2020-09-26T08:32:27.260Z</time>
      </trkpt>
      <trkpt lat="65.53968" lon="22.07263">
        <ele>32.525031</ele>
        <time>2020-09-26T08:32:29.251Z</time>
      </trkpt>
      <trkpt lat="65.53957" lon="22.07256">
        <ele>32.606304</ele>
        <time>2020-09-26T08:32:31.243Z</time>
      </trkpt>
      <trkpt lat="65.53945" lon="22.07249">
        <ele>32.696303</ele>
        <time>2020-09-26T08:32:33.241Z</time>
      </trkpt>
      <trkpt lat="65.53932" lon="22.07241">
        <ele>32.619033</ele>
        <time>2020-09-26T08:32:35.252Z</time>
      </trkpt>
      <trkpt lat="65.5392" lon="22.07232">
        <ele>32.486088</ele>
        <time>2020-09-26T08:32:37.239Z</time>
      </trkpt>
      <trkpt lat="65.53907" lon="22.07222">
        <ele>32.35482</ele>
        <time>2020-09-26T08:32:39.284Z</time>
      </trkpt>
      <trkpt lat="65.53894" lon="22.07212">
        <ele>32.222517</ele>
        <time>2020-09-26T08:32:41.246Z</time>
      </trkpt>
      <trkpt lat="65.53884" lon="22.07202">
        <ele>32.109072</ele>
        <time>2020-09-26T08:32:43.228Z</time>
      </trkpt>
      <trkpt lat="65.53872" lon="22.07192">
        <ele>31.986253</ele>
        <time>2020-09-26T08:32:45.251Z</time>
      </trkpt>
      <trkpt lat="65.5386" lon="22.07181">
        <ele>31.857134</ele>
        <time>2020-09-26T08:32:47.264Z</time>
      </trkpt>
      <trkpt lat="65.53848" lon="22.07169">
        <ele>31.729436</ele>
        <time>2020-09-26T08:32:49.240Z</time>
      </trkpt>
      <trkpt lat="65.53836" lon="22.07159">
        <ele>31.604961</ele>
        <time>2020-09-26T08:32:51.233Z</time>
      </trkpt>
      <trkpt lat="65.53825" lon="22.07148">
        <ele>31.486002</ele>
        <time>2020-09-26T08:32:53.284Z</time>
      </trkpt>
      <trkpt lat="65.53814" lon="22.07138">
        <ele>31.371969</ele>
        <time>2020-09-26T08:32:55.229Z</time>
      </trkpt>
      <trkpt lat="65.53803" lon="22.07127">
        <ele>31.251956</ele>
        <time>2020-09-26T08:32:57.268Z</time>
      </trkpt>
      <trkpt lat="65.53792" lon="22.07116">
        <ele>31.13225</ele>
        <time>2020-09-26T08:32:59.237Z</time>
      </trkpt>
      <trkpt lat="65.53781" lon="22.07105">
        <ele>31.016979</ele>
        <time>2020-09-26T08:33:01.261Z</time>
      </trkpt>
      <trkpt lat="65.53771" lon="22.07093">
        <ele>30.880561</ele>
        <time>2020-09-26T08:33:03.265Z</time>
      </trkpt>
      <trkpt lat="65.5376" lon="22.07081">
        <ele>30.633445</ele>
        <time>2020-09-26T08:33:05.267Z</time>
      </trkpt>
      <trkpt lat="65.53747" lon="22.07069">
        <ele>30.368076</ele>
        <time>2020-09-26T08:33:07.262Z</time>
      </trkpt>
      <trkpt lat="65.53736" lon="22.07056">
        <ele>30.124351</ele>
        <time>2020-09-26T08:33:09.233Z</time>
      </trkpt>
      <trkpt lat="65.53725" lon="22.07043">
        <ele>29.878494</ele>
        <time>2020-09-26T08:33:11.260Z</time>
      </trkpt>
      <trkpt lat="65.53714" lon="22.07032">
        <ele>29.63479</ele>
        <time>2020-09-26T08:33:13.240Z</time>
      </trkpt>
      <trkpt lat="65.53702" lon="22.07022">
        <ele>29.38969</ele>
        <time>2020-09-26T08:33:15.253Z</time>
      </trkpt>
      <trkpt lat="65.5369" lon="22.07015">
        <ele>29.144344</ele>
        <time>2020-09-26T08:33:17.245Z</time>
      </trkpt>
      <trkpt lat="65.53678" lon="22.07005">
        <ele>28.897622</ele>
        <time>2020-09-26T08:33:19.236Z</time>
      </trkpt>
      <trkpt lat="65.53666" lon="22.06994">
        <ele>28.650889</ele>
        <time>2020-09-26T08:33:21.247Z</time>
      </trkpt>
      <trkpt lat="65.53655" lon="22.06981">
        <ele>28.409673</ele>
        <time>2020-09-26T08:33:23.252Z</time>
      </trkpt>
      <trkpt lat="65.53645" lon="22.06967">
        <ele>28.168044</ele>
        <time>2020-09-26T08:33:25.280Z</time>
      </trkpt>
      <trkpt lat="65.53635" lon="22.06953">
        <ele>27.942055</ele>
        <time>2020-09-26T08:33:27.246Z</time>
      </trkpt>
      <trkpt lat="65.53624" lon="22.0694">
        <ele>27.715128</ele>
        <time>2020-09-26T08:33:29.244Z</time>
      </trkpt>
      <trkpt lat="65.53614" lon="22.06927">
        <ele>27.489748</ele>
        <time>2020-09-26T08:33:31.277Z</time>
      </trkpt>
      <trkpt lat="65.53604" lon="22.06913">
        <ele>27.406059</ele>
        <time>2020-09-26T08:33:33.242Z</time>
      </trkpt>
      <trkpt lat="65.53594" lon="22.069">
        <ele>27.442105</ele>
        <time>2020-09-26T08:33:35.267Z</time>
      </trkpt>
      <trkpt lat="65.53584" lon="22.06886">
        <ele>27.477246</ele>
        <time>2020-09-26T08:33:37.243Z</time>
      </trkpt>
      <trkpt lat="65.53575" lon="22.06871">
        <ele>27.513002</ele>
        <time>2020-09-26T08:33:39.236Z</time>
      </trkpt>
      <trkpt lat="65.53566" lon="22.06855">
        <ele>27.546543</ele>
        <time>2020-09-26T08:33:41.262Z</time>
      </trkpt>
      <trkpt lat="65.53557" lon="22.0684">
        <ele>27.581058</ele>
        <time>2020-09-26T08:33:43.233Z</time>
      </trkpt>
      <trkpt lat="65.53547" lon="22.06826">
        <ele>27.615999</ele>
        <time>2020-09-26T08:33:45.299Z</time>
      </trkpt>
      <trkpt lat="65.53537" lon="22.06812">
        <ele>27.650874</ele>
        <time>2020-09-26T08:33:47.280Z</time>
      </trkpt>
      <trkpt lat="65.53527" lon="22.06797">
        <ele>27.687206</ele>
        <time>2020-09-26T08:33:49.250Z</time>
      </trkpt>
      <trkpt lat="65.53518" lon="22.06781">
        <ele>27.721125</ele>
        <time>2020-09-26T08:33:51.236Z</time>
      </trkpt>
      <trkpt lat="65.5351" lon="22.06766">
        <ele>27.753507</ele>
        <time>2020-09-26T08:33:53.251Z</time>
      </trkpt>
      <trkpt lat="65.53501" lon="22.0675">
        <ele>27.786474</ele>
        <time>2020-09-26T08:33:55.240Z</time>
      </trkpt>
      <trkpt lat="65.53493" lon="22.06734">
        <ele>27.819572</ele>
        <time>2020-09-26T08:33:57.253Z</time>
      </trkpt>
      <trkpt lat="65.53486" lon="22.06717">
        <ele>27.851759</ele>
        <time>2020-09-26T08:33:59.247Z</time>
      </trkpt>
      <trkpt lat="65.53478" lon="22.06699">
        <ele>27.884964</ele>
        <time>2020-09-26T08:34:01.253Z</time>
      </trkpt>
      <trkpt lat="65.53469" lon="22.06683">
        <ele>27.918235</ele>
        <time>2020-09-26T08:34:03.251Z</time>
      </trkpt>
      <trkpt lat="65.53461" lon="22.06664">
        <ele>27.997507</ele>
        <time>2020-09-26T08:34:05.236Z</time>
      </trkpt>
      <trkpt lat="65.53453" lon="22.06646">
        <ele>28.178243</ele>
        <time>2020-09-26T08:34:07.242Z</time>
      </trkpt>
      <trkpt lat="65.53445" lon="22.06628">
        <ele>28.35891</ele>
        <time>2020-09-26T08:34:09.239Z</time>
      </trkpt>
      <trkpt lat="65.53436" lon="22.06612">
        <ele>28.532813</ele>
        <time>2020-09-26T08:34:11.232Z</time>
      </trkpt>
      <trkpt lat="65.53428" lon="22.06595">
        <ele>28.704678</ele>
        <time>2020-09-26T08:34:13.263Z</time>
      </trkpt>
      <trkpt lat="65.5342" lon="22.06578">
        <ele>28.878315</ele>
        <time>2020-09-26T08:34:15.285Z</time>
      </trkpt>
      <trkpt lat="65.53412" lon="22.0656">
        <ele>29.056947</ele>
        <time>2020-09-26T08:34:17.269Z</time>
      </trkpt>
      <trkpt lat="65.53405" lon="22.06542">
        <ele>29.234865</ele>
        <time>2020-09-26T08:34:19.262Z</time>
      </trkpt>
      <trkpt lat="65.53396" lon="22.06523">
        <ele>29.416332</ele>
        <time>2020-09-26T08:34:21.283Z</time>
      </trkpt>
      <trkpt lat="65.53388" lon="22.06504">
        <ele>29.599393</ele>
        <time>2020-09-26T08:34:23.263Z</time>
      </trkpt>
      <trkpt lat="65.5338" lon="22.06487">
        <ele>29.783479</ele>
        <time>2020-09-26T08:34:25.263Z</time>
      </trkpt>
      <trkpt lat="65.53371" lon="22.06468">
        <ele>29.964948</ele>
        <time>2020-09-26T08:34:27.243Z</time>
      </trkpt>
      <trkpt lat="65.53364" lon="22.0645">
        <ele>30.140334</ele>
        <time>2020-09-26T08:34:29.233Z</time>
      </trkpt>
      <trkpt lat="65.53357" lon="22.06429">
        <ele>30.312589</ele>
        <time>2020-09-26T08:34:31.239Z</time>
      </trkpt>
      <trkpt lat="65.53352" lon="22.06408">
        <ele>30.480396</ele>
        <time>2020-09-26T08:34:33.246Z</time>
      </trkpt>
      <trkpt lat="65.53347" lon="22.06389">
        <ele>30.637634</ele>
        <time>2020-09-26T08:34:35.232Z</time>
      </trkpt>
      <trkpt lat="65.53341" lon="22.0637">
        <ele>30.796272</ele>
        <time>2020-09-26T08:34:37.235Z</time>
      </trkpt>
      <trkpt lat="65.53334" lon="22.06353">
        <ele>31.069464</ele>
        <time>2020-09-26T08:34:39.262Z</time>
      </trkpt>
      <trkpt lat="65.53327" lon="22.06337">
        <ele>31.431695</ele>
        <time>2020-09-26T08:34:41.263Z</time>
      </trkpt>
      <trkpt lat="65.5332" lon="22.06321">
        <ele>31.805509</ele>
        <time>2020-09-26T08:34:43.250Z</time>
      </trkpt>
      <trkpt lat="65.53313" lon="22.06304">
        <ele>32.206918</ele>
        <time>2020-09-26T08:34:45.233Z</time>
      </trkpt>
      <trkpt lat="65.53305" lon="22.06287">
        <ele>32.598406</ele>
        <time>2020-09-26T08:34:47.249Z</time>
      </trkpt>
      <trkpt lat="65.53298" lon="22.06269">
        <ele>32.993872</ele>
        <time>2020-09-26T08:34:49.261Z</time>
      </trkpt>
      <trkpt lat="65.53291" lon="22.06251">
        <ele>33.389338</ele>
        <time>2020-09-26T08:34:51.268Z</time>
      </trkpt>
      <trkpt lat="65.53284" lon="22.06234">
        <ele>33.776923</ele>
        <time>2020-09-26T08:34:53.248Z</time>
      </trkpt>
      <trkpt lat="65.53277" lon="22.06217">
        <ele>34.157977</ele>
        <time>2020-09-26T08:34:55.239Z</time>
      </trkpt>
      <trkpt lat="65.53269" lon="22.06201">
        <ele>34.532431</ele>
        <time>2020-09-26T08:34:57.240Z</time>
      </trkpt>
      <trkpt lat="65.53262" lon="22.06186">
        <ele>34.889855</ele>
        <time>2020-09-26T08:34:59.281Z</time>
      </trkpt>
      <trkpt lat="65.53256" lon="22.06169">
        <ele>35.260365</ele>
        <time>2020-09-26T08:35:01.233Z</time>
      </trkpt>
      <trkpt lat="65.53249" lon="22.06153">
        <ele>35.63251</ele>
        <time>2020-09-26T08:35:03.236Z</time>
      </trkpt>
      <trkpt lat="65.53242" lon="22.06136">
        <ele>35.99804</ele>
        <time>2020-09-26T08:35:05.268Z</time>
      </trkpt>
      <trkpt lat="65.53235" lon="22.06118">
        <ele>36.378355</ele>
        <time>2020-09-26T08:35:07.232Z</time>
      </trkpt>
      <trkpt lat="65.53228" lon="22.06102">
        <ele>36.743916</ele>
        <time>2020-09-26T08:35:09.236Z</time>
      </trkpt>
      <trkpt lat="65.53222" lon="22.06087">
        <ele>37.099604</ele>
        <time>2020-09-26T08:35:11.259Z</time>
      </trkpt>
      <trkpt lat="65.53215" lon="22.06071">
        <ele>37.472854</ele>
        <time>2020-09-26T08:35:13.240Z</time>
      </trkpt>
      <trkpt lat="65.53208" lon="22.06054">
        <ele>37.722055</ele>
        <time>2020-09-26T08:35:15.229Z</time>
      </trkpt>
      <trkpt lat="65.53202" lon="22.06037">
        <ele>37.621395</ele>
        <time>2020-09-26T08:35:17.243Z</time>
      </trkpt>
      <trkpt lat="65.53195" lon="22.06021">
        <ele>37.523086</ele>
        <time>2020-09-26T08:35:19.269Z</time>
      </trkpt>
      <trkpt lat="65.53189" lon="22.06005">
        <ele>37.421369</ele>
        <time>2020-09-26T08:35:21.249Z</time>
      </trkpt>
      <trkpt lat="65.53182" lon="22.05988">
        <ele>37.320069</ele>
        <time>2020-09-26T08:35:23.231Z</time>
      </trkpt>
      <trkpt lat="65.53176" lon="22.05972">
        <ele>37.219318</ele>
        <time>2020-09-26T08:35:25.303Z</time>
      </trkpt>
      <trkpt lat="65.53168" lon="22.05958">
        <ele>37.120526</ele>
        <time>2020-09-26T08:35:27.249Z</time>
      </trkpt>
      <trkpt lat="65.53161" lon="22.05943">
        <ele>37.017512</ele>
        <time>2020-09-26T08:35:29.288Z</time>
      </trkpt>
      <trkpt lat="65.53154" lon="22.05928">
        <ele>36.91531</ele>
        <time>2020-09-26T08:35:31.241Z</time>
      </trkpt>
      <trkpt lat="65.53147" lon="22.05911">
        <ele>36.813176</ele>
        <time>2020-09-26T08:35:33.239Z</time>
      </trkpt>
      <trkpt lat="65.53141" lon="22.05896">
        <ele>36.714506</ele>
        <time>2020-09-26T08:35:35.232Z</time>
      </trkpt>
      <trkpt lat="65.53134" lon="22.0588">
        <ele>36.611815</ele>
        <time>2020-09-26T08:35:37.237Z</time>
      </trkpt>
      <trkpt lat="65.53127" lon="22.05865">
        <ele>36.512611</ele>
        <time>2020-09-26T08:35:39.265Z</time>
      </trkpt>
      <trkpt lat="65.53117" lon="22.05844">
        <ele>36.370636</ele>
        <time>2020-09-26T08:35:42.275Z</time>
      </trkpt>
      <trkpt lat="65.53107" lon="22.05824">
        <ele>36.231444</ele>
        <time>2020-09-26T08:35:45.261Z</time>
      </trkpt>
      <trkpt lat="65.53096" lon="22.05804">
        <ele>36.090627</ele>
        <time>2020-09-26T08:35:48.239Z</time>
      </trkpt>
      <trkpt lat="65.53089" lon="22.05783">
        <ele>35.965471</ele>
        <time>2020-09-26T08:35:51.243Z</time>
      </trkpt>
      <trkpt lat="65.53081" lon="22.05765">
        <ele>35.846406</ele>
        <time>2020-09-26T08:35:54.240Z</time>
      </trkpt>
      <trkpt lat="65.53071" lon="22.05749">
        <ele>35.622829</ele>
        <time>2020-09-26T08:35:57.241Z</time>
      </trkpt>
      <trkpt lat="65.53062" lon="22.05732">
        <ele>35.363402</ele>
        <time>2020-09-26T08:36:00.257Z</time>
      </trkpt>
      <trkpt lat="65.53053" lon="22.05712">
        <ele>35.08919</ele>
        <time>2020-09-26T08:36:03.240Z</time>
      </trkpt>
      <trkpt lat="65.53043" lon="22.05694">
        <ele>34.806975</ele>
        <time>2020-09-26T08:36:06.242Z</time>
      </trkpt>
      <trkpt lat="65.53033" lon="22.05675">
        <ele>34.519681</ele>
        <time>2020-09-26T08:36:09.241Z</time>
      </trkpt>
      <trkpt lat="65.53022" lon="22.05656">
        <ele>34.222837</ele>
        <time>2020-09-26T08:36:12.279Z</time>
      </trkpt>
      <trkpt lat="65.53012" lon="22.05637">
        <ele>33.93962</ele>
        <time>2020-09-26T08:36:15.263Z</time>
      </trkpt>
      <trkpt lat="65.53003" lon="22.05618">
        <ele>33.667347</ele>
        <time>2020-09-26T08:36:18.268Z</time>
      </trkpt>
      <trkpt lat="65.52994" lon="22.05596">
        <ele>33.380221</ele>
        <time>2020-09-26T08:36:21.236Z</time>
      </trkpt>
      <trkpt lat="65.52987" lon="22.05581">
        <ele>33.177009</ele>
        <time>2020-09-26T08:36:23.249Z</time>
      </trkpt>
      <trkpt lat="65.52978" lon="22.05561">
        <ele>32.899281</ele>
        <time>2020-09-26T08:36:26.251Z</time>
      </trkpt>
      <trkpt lat="65.52968" lon="22.0554">
        <ele>32.60582</ele>
        <time>2020-09-26T08:36:29.239Z</time>
      </trkpt>
      <trkpt lat="65.52959" lon="22.05518">
        <ele>32.318488</ele>
        <time>2020-09-26T08:36:32.241Z</time>
      </trkpt>
      <trkpt lat="65.52951" lon="22.05496">
        <ele>32.046147</ele>
        <time>2020-09-26T08:36:35.248Z</time>
      </trkpt>
      <trkpt lat="65.52941" lon="22.05475">
        <ele>31.806439</ele>
        <time>2020-09-26T08:36:38.243Z</time>
      </trkpt>
      <trkpt lat="65.52931" lon="22.05461">
        <ele>31.837321</ele>
        <time>2020-09-26T08:36:41.241Z</time>
      </trkpt>
      <trkpt lat="65.52927" lon="22.05435">
        <ele>31.867132</ele>
        <time>2020-09-26T08:36:44.233Z</time>
      </trkpt>
      <trkpt lat="65.52924" lon="22.05407">
        <ele>31.897993</ele>
        <time>2020-09-26T08:36:47.254Z</time>
      </trkpt>
      <trkpt lat="65.52917" lon="22.05385">
        <ele>31.927654</ele>
        <time>2020-09-26T08:36:50.277Z</time>
      </trkpt>
      <trkpt lat="65.52908" lon="22.05362">
        <ele>31.962125</ele>
        <time>2020-09-26T08:36:53.242Z</time>
      </trkpt>
      <trkpt lat="65.52902" lon="22.05346">
        <ele>31.985352</ele>
        <time>2020-09-26T08:36:55.258Z</time>
      </trkpt>
      <trkpt lat="65.52895" lon="22.05331">
        <ele>32.008995</ele>
        <time>2020-09-26T08:36:57.293Z</time>
      </trkpt>
      <trkpt lat="65.52889" lon="22.05316">
        <ele>32.032244</ele>
        <time>2020-09-26T08:36:59.240Z</time>
      </trkpt>
      <trkpt lat="65.52882" lon="22.05299">
        <ele>32.056674</ele>
        <time>2020-09-26T08:37:01.267Z</time>
      </trkpt>
      <trkpt lat="65.52875" lon="22.05282">
        <ele>32.082733</ele>
        <time>2020-09-26T08:37:03.261Z</time>
      </trkpt>
      <trkpt lat="65.52868" lon="22.05263">
        <ele>32.109887</ele>
        <time>2020-09-26T08:37:05.281Z</time>
      </trkpt>
      <trkpt lat="65.52861" lon="22.05243">
        <ele>32.138045</ele>
        <time>2020-09-26T08:37:07.229Z</time>
      </trkpt>
      <trkpt lat="65.52854" lon="22.05225">
        <ele>32.164997</ele>
        <time>2020-09-26T08:37:09.279Z</time>
      </trkpt>
      <trkpt lat="65.52847" lon="22.05206">
        <ele>32.191773</ele>
        <time>2020-09-26T08:37:11.271Z</time>
      </trkpt>
      <trkpt lat="65.5284" lon="22.05187">
        <ele>32.219681</ele>
        <time>2020-09-26T08:37:13.243Z</time>
      </trkpt>
      <trkpt lat="65.52833" lon="22.05167">
        <ele>32.247662</ele>
        <time>2020-09-26T08:37:15.250Z</time>
      </trkpt>
      <trkpt lat="65.52826" lon="22.05148">
        <ele>32.275076</ele>
        <time>2020-09-26T08:37:17.271Z</time>
      </trkpt>
      <trkpt lat="65.52819" lon="22.05128">
        <ele>32.300999</ele>
        <time>2020-09-26T08:37:19.245Z</time>
      </trkpt>
      <trkpt lat="65.52811" lon="22.05108">
        <ele>32.327467</ele>
        <time>2020-09-26T08:37:21.277Z</time>
      </trkpt>
      <trkpt lat="65.52804" lon="22.05089">
        <ele>32.353549</ele>
        <time>2020-09-26T08:37:23.264Z</time>
      </trkpt>
      <trkpt lat="65.52797" lon="22.05071">
        <ele>32.378664</ele>
        <time>2020-09-26T08:37:25.249Z</time>
      </trkpt>
      <trkpt lat="65.5279" lon="22.05051">
        <ele>32.4042</ele>
        <time>2020-09-26T08:37:27.252Z</time>
      </trkpt>
      <trkpt lat="65.52784" lon="22.05033">
        <ele>32.428647</ele>
        <time>2020-09-26T08:37:29.276Z</time>
      </trkpt>
      <trkpt lat="65.52777" lon="22.05015">
        <ele>32.45241</ele>
        <time>2020-09-26T08:37:31.237Z</time>
      </trkpt>
      <trkpt lat="65.52771" lon="22.04997">
        <ele>32.476498</ele>
        <time>2020-09-26T08:37:33.241Z</time>
      </trkpt>
      <trkpt lat="65.52764" lon="22.04979">
        <ele>32.501346</ele>
        <time>2020-09-26T08:37:35.278Z</time>
      </trkpt>
      <trkpt lat="65.52757" lon="22.04961">
        <ele>32.526296</ele>
        <time>2020-09-26T08:37:37.247Z</time>
      </trkpt>
      <trkpt lat="65.5275" lon="22.04943">
        <ele>32.551099</ele>
        <time>2020-09-26T08:37:39.265Z</time>
      </trkpt>
      <trkpt lat="65.52743" lon="22.04925">
        <ele>32.575997</ele>
        <time>2020-09-26T08:37:41.240Z</time>
      </trkpt>
      <trkpt lat="65.52736" lon="22.04907">
        <ele>32.599461</ele>
        <time>2020-09-26T08:37:43.265Z</time>
      </trkpt>
      <trkpt lat="65.52729" lon="22.04889">
        <ele>32.624411</ele>
        <time>2020-09-26T08:37:45.266Z</time>
      </trkpt>
      <trkpt lat="65.52722" lon="22.0487">
        <ele>32.649789</ele>
        <time>2020-09-26T08:37:47.250Z</time>
      </trkpt>
      <trkpt lat="65.52716" lon="22.04852">
        <ele>32.674401</ele>
        <time>2020-09-26T08:37:49.251Z</time>
      </trkpt>
      <trkpt lat="65.52709" lon="22.04833">
        <ele>32.699324</ele>
        <time>2020-09-26T08:37:51.263Z</time>
      </trkpt>
      <trkpt lat="65.52702" lon="22.04815">
        <ele>32.794702</ele>
        <time>2020-09-26T08:37:53.275Z</time>
      </trkpt>
      <trkpt lat="65.52695" lon="22.04797">
        <ele>32.900915</ele>
        <time>2020-09-26T08:37:55.267Z</time>
      </trkpt>
      <trkpt lat="65.52688" lon="22.04779">
        <ele>33.003929</ele>
        <time>2020-09-26T08:37:57.261Z</time>
      </trkpt>
      <trkpt lat="65.52682" lon="22.04762">
        <ele>33.106096</ele>
        <time>2020-09-26T08:37:59.263Z</time>
      </trkpt>
      <trkpt lat="65.52675" lon="22.04744">
        <ele>33.205898</ele>
        <time>2020-09-26T08:38:01.249Z</time>
      </trkpt>
      <trkpt lat="65.52669" lon="22.04727">
        <ele>33.304609</ele>
        <time>2020-09-26T08:38:03.239Z</time>
      </trkpt>
      <trkpt lat="65.52662" lon="22.04711">
        <ele>33.398935</ele>
        <time>2020-09-26T08:38:05.241Z</time>
      </trkpt>
      <trkpt lat="65.52656" lon="22.04695">
        <ele>33.494589</ele>
        <time>2020-09-26T08:38:07.240Z</time>
      </trkpt>
      <trkpt lat="65.5265" lon="22.04677">
        <ele>33.592461</ele>
        <time>2020-09-26T08:38:09.239Z</time>
      </trkpt>
      <trkpt lat="65.52643" lon="22.04661">
        <ele>33.689223</ele>
        <time>2020-09-26T08:38:11.243Z</time>
      </trkpt>
      <trkpt lat="65.52637" lon="22.04644">
        <ele>33.78715</ele>
        <time>2020-09-26T08:38:13.264Z</time>
      </trkpt>
      <trkpt lat="65.52631" lon="22.04627">
        <ele>33.883338</ele>
        <time>2020-09-26T08:38:15.245Z</time>
      </trkpt>
      <trkpt lat="65.52622" lon="22.04603">
        <ele>34.020341</ele>
        <time>2020-09-26T08:38:18.232Z</time>
      </trkpt>
      <trkpt lat="65.52613" lon="22.04579">
        <ele>34.157467</ele>
        <time>2020-09-26T08:38:21.263Z</time>
      </trkpt>
      <trkpt lat="65.52607" lon="22.04562">
        <ele>34.253656</ele>
        <time>2020-09-26T08:38:23.255Z</time>
      </trkpt>
      <trkpt lat="65.52599" lon="22.04538">
        <ele>34.390092</ele>
        <time>2020-09-26T08:38:26.260Z</time>
      </trkpt>
      <trkpt lat="65.5259" lon="22.04516">
        <ele>34.522122</ele>
        <time>2020-09-26T08:38:29.238Z</time>
      </trkpt>
      <trkpt lat="65.52581" lon="22.04492">
        <ele>34.547419</ele>
        <time>2020-09-26T08:38:32.241Z</time>
      </trkpt>
      <trkpt lat="65.52573" lon="22.04468">
        <ele>34.53095</ele>
        <time>2020-09-26T08:38:35.251Z</time>
      </trkpt>
      <trkpt lat="65.52564" lon="22.04447">
        <ele>34.515224</ele>
        <time>2020-09-26T08:38:38.283Z</time>
      </trkpt>
      <trkpt lat="65.52555" lon="22.04425">
        <ele>34.499485</ele>
        <time>2020-09-26T08:38:41.241Z</time>
      </trkpt>
      <trkpt lat="65.52547" lon="22.04403">
        <ele>34.483772</ele>
        <time>2020-09-26T08:38:44.252Z</time>
      </trkpt>
      <trkpt lat="65.52538" lon="22.04378">
        <ele>34.467102</ele>
        <time>2020-09-26T08:38:47.231Z</time>
      </trkpt>
      <trkpt lat="65.5253" lon="22.04355">
        <ele>34.450909</ele>
        <time>2020-09-26T08:38:50.268Z</time>
      </trkpt>
      <trkpt lat="65.52522" lon="22.04332">
        <ele>34.434884</ele>
        <time>2020-09-26T08:38:53.246Z</time>
      </trkpt>
      <trkpt lat="65.52513" lon="22.04309">
        <ele>34.419136</ele>
        <time>2020-09-26T08:38:56.245Z</time>
      </trkpt>
      <trkpt lat="65.52506" lon="22.04287">
        <ele>34.404115</ele>
        <time>2020-09-26T08:38:59.263Z</time>
      </trkpt>
      <trkpt lat="65.52498" lon="22.04264">
        <ele>34.389008</ele>
        <time>2020-09-26T08:39:02.258Z</time>
      </trkpt>
      <trkpt lat="65.52492" lon="22.04241">
        <ele>34.37447</ele>
        <time>2020-09-26T08:39:05.260Z</time>
      </trkpt>
      <trkpt lat="65.52486" lon="22.04217">
        <ele>34.36005</ele>
        <time>2020-09-26T08:39:08.259Z</time>
      </trkpt>
      <trkpt lat="65.5248" lon="22.04191">
        <ele>34.344312</ele>
        <time>2020-09-26T08:39:11.239Z</time>
      </trkpt>
      <trkpt lat="65.52474" lon="22.04165">
        <ele>34.362645</ele>
        <time>2020-09-26T08:39:14.240Z</time>
      </trkpt>
      <trkpt lat="65.5247" lon="22.04138">
        <ele>34.480326</ele>
        <time>2020-09-26T08:39:17.259Z</time>
      </trkpt>
      <trkpt lat="65.52465" lon="22.04113">
        <ele>34.594031</ele>
        <time>2020-09-26T08:39:20.233Z</time>
      </trkpt>
      <trkpt lat="65.52461" lon="22.0409">
        <ele>34.695124</ele>
        <time>2020-09-26T08:39:23.237Z</time>
      </trkpt>
      <trkpt lat="65.52457" lon="22.04065">
        <ele>34.804277</ele>
        <time>2020-09-26T08:39:26.243Z</time>
      </trkpt>
      <trkpt lat="65.52453" lon="22.04039">
        <ele>34.915684</ele>
        <time>2020-09-26T08:39:29.240Z</time>
      </trkpt>
      <trkpt lat="65.5245" lon="22.04014">
        <ele>35.022807</ele>
        <time>2020-09-26T08:39:32.259Z</time>
      </trkpt>
      <trkpt lat="65.52447" lon="22.03988">
        <ele>35.13209</ele>
        <time>2020-09-26T08:39:35.258Z</time>
      </trkpt>
      <trkpt lat="65.52445" lon="22.03964">
        <ele>35.233241</ele>
        <time>2020-09-26T08:39:38.263Z</time>
      </trkpt>
      <trkpt lat="65.52443" lon="22.03942">
        <ele>35.323793</ele>
        <time>2020-09-26T08:39:41.251Z</time>
      </trkpt>
      <trkpt lat="65.52442" lon="22.0392">
        <ele>35.414986</ele>
        <time>2020-09-26T08:39:44.257Z</time>
      </trkpt>
      <trkpt lat="65.52439" lon="22.03896">
        <ele>35.515931</ele>
        <time>2020-09-26T08:39:47.239Z</time>
      </trkpt>
      <trkpt lat="65.52437" lon="22.03873">
        <ele>35.613162</ele>
        <time>2020-09-26T08:39:50.252Z</time>
      </trkpt>
      <trkpt lat="65.52435" lon="22.03849">
        <ele>35.71274</ele>
        <time>2020-09-26T08:39:53.250Z</time>
      </trkpt>
      <trkpt lat="65.52433" lon="22.03822">
        <ele>35.825482</ele>
        <time>2020-09-26T08:39:56.253Z</time>
      </trkpt>
      <trkpt lat="65.52431" lon="22.03799">
        <ele>35.923049</ele>
        <time>2020-09-26T08:39:59.242Z</time>
      </trkpt>
      <trkpt lat="65.52429" lon="22.03774">
        <ele>36.023354</ele>
        <time>2020-09-26T08:40:02.272Z</time>
      </trkpt>
      <trkpt lat="65.52428" lon="22.03748">
        <ele>36.130915</ele>
        <time>2020-09-26T08:40:05.238Z</time>
      </trkpt>
      <trkpt lat="65.52426" lon="22.03723">
        <ele>36.226255</ele>
        <time>2020-09-26T08:40:08.248Z</time>
      </trkpt>
      <trkpt lat="65.52424" lon="22.037">
        <ele>36.315298</ele>
        <time>2020-09-26T08:40:11.256Z</time>
      </trkpt>
      <trkpt lat="65.52422" lon="22.03673">
        <ele>36.421177</ele>
        <time>2020-09-26T08:40:14.233Z</time>
      </trkpt>
      <trkpt lat="65.5242" lon="22.03642">
        <ele>36.54159</ele>
        <time>2020-09-26T08:40:17.279Z</time>
      </trkpt>
      <trkpt lat="65.52417" lon="22.03612">
        <ele>36.657638</ele>
        <time>2020-09-26T08:40:20.245Z</time>
      </trkpt>
      <trkpt lat="65.52414" lon="22.03584">
        <ele>36.766986</ele>
        <time>2020-09-26T08:40:23.249Z</time>
      </trkpt>
      <trkpt lat="65.52412" lon="22.03558">
        <ele>36.871068</ele>
        <time>2020-09-26T08:40:26.235Z</time>
      </trkpt>
      <trkpt lat="65.52409" lon="22.03531">
        <ele>36.977445</ele>
        <time>2020-09-26T08:40:29.237Z</time>
      </trkpt>
      <trkpt lat="65.52407" lon="22.03502">
        <ele>37.087882</ele>
        <time>2020-09-26T08:40:32.271Z</time>
      </trkpt>
      <trkpt lat="65.52404" lon="22.03474">
        <ele>37.198887</ele>
        <time>2020-09-26T08:40:35.262Z</time>
      </trkpt>
      <trkpt lat="65.52401" lon="22.03443">
        <ele>37.319807</ele>
        <time>2020-09-26T08:40:38.270Z</time>
      </trkpt>
      <trkpt lat="65.524" lon="22.03421">
        <ele>37.40438</ele>
        <time>2020-09-26T08:40:40.269Z</time>
      </trkpt>
      <trkpt lat="65.52398" lon="22.03392">
        <ele>37.517713</ele>
        <time>2020-09-26T08:40:43.242Z</time>
      </trkpt>
      <trkpt lat="65.52396" lon="22.03364">
        <ele>37.62669</ele>
        <time>2020-09-26T08:40:46.238Z</time>
      </trkpt>
      <trkpt lat="65.52393" lon="22.03338">
        <ele>37.727018</ele>
        <time>2020-09-26T08:40:49.264Z</time>
      </trkpt>
      <trkpt lat="65.52389" lon="22.03317">
        <ele>38.008603</ele>
        <time>2020-09-26T08:40:52.243Z</time>
      </trkpt>
      <trkpt lat="65.52386" lon="22.03292">
        <ele>38.467957</ele>
        <time>2020-09-26T08:40:55.238Z</time>
      </trkpt>
      <trkpt lat="65.52384" lon="22.03263">
        <ele>38.990349</ele>
        <time>2020-09-26T08:40:58.231Z</time>
      </trkpt>
      <trkpt lat="65.52381" lon="22.03234">
        <ele>39.508526</ele>
        <time>2020-09-26T08:41:01.234Z</time>
      </trkpt>
      <trkpt lat="65.5238" lon="22.03203">
        <ele>40.051397</ele>
        <time>2020-09-26T08:41:04.263Z</time>
      </trkpt>
      <trkpt lat="65.52379" lon="22.03173">
        <ele>40.587718</ele>
        <time>2020-09-26T08:41:07.245Z</time>
      </trkpt>
      <trkpt lat="65.52377" lon="22.03146">
        <ele>41.064439</ele>
        <time>2020-09-26T08:41:10.248Z</time>
      </trkpt>
      <trkpt lat="65.52375" lon="22.03122">
        <ele>41.502547</ele>
        <time>2020-09-26T08:41:13.236Z</time>
      </trkpt>
      <trkpt lat="65.52373" lon="22.03099">
        <ele>41.908354</ele>
        <time>2020-09-26T08:41:16.267Z</time>
      </trkpt>
      <trkpt lat="65.52372" lon="22.03073">
        <ele>42.369438</ele>
        <time>2020-09-26T08:41:19.258Z</time>
      </trkpt>
      <trkpt lat="65.52371" lon="22.03046">
        <ele>42.844034</ele>
        <time>2020-09-26T08:41:22.241Z</time>
      </trkpt>
      <trkpt lat="65.52369" lon="22.03022">
        <ele>43.287041</ele>
        <time>2020-09-26T08:41:25.241Z</time>
      </trkpt>
      <trkpt lat="65.52367" lon="22.02997">
        <ele>43.729329</ele>
        <time>2020-09-26T08:41:28.234Z</time>
      </trkpt>
      <trkpt lat="65.52365" lon="22.02974">
        <ele>44.13793</ele>
        <time>2020-09-26T08:41:31.247Z</time>
      </trkpt>
      <trkpt lat="65.52363" lon="22.02951">
        <ele>44.554876</ele>
        <time>2020-09-26T08:41:34.271Z</time>
      </trkpt>
      <trkpt lat="65.5236" lon="22.02928">
        <ele>44.987165</ele>
        <time>2020-09-26T08:41:37.279Z</time>
      </trkpt>
      <trkpt lat="65.52355" lon="22.02902">
        <ele>45.457105</ele>
        <time>2020-09-26T08:41:41.235Z</time>
      </trkpt>
      <trkpt lat="65.5235" lon="22.02875">
        <ele>45.730432</ele>
        <time>2020-09-26T08:41:45.242Z</time>
      </trkpt>
      <trkpt lat="65.52348" lon="22.02851">
        <ele>45.966421</ele>
        <time>2020-09-26T08:41:48.259Z</time>
      </trkpt>
      <trkpt lat="65.52345" lon="22.02827">
        <ele>46.199263</ele>
        <time>2020-09-26T08:41:51.254Z</time>
      </trkpt>
      <trkpt lat="65.52342" lon="22.02805">
        <ele>46.428503</ele>
        <time>2020-09-26T08:41:54.245Z</time>
      </trkpt>
      <trkpt lat="65.52337" lon="22.02782">
        <ele>46.668435</ele>
        <time>2020-09-26T08:41:57.239Z</time>
      </trkpt>
      <trkpt lat="65.52333" lon="22.02761">
        <ele>46.894219</ele>
        <time>2020-09-26T08:42:00.265Z</time>
      </trkpt>
      <trkpt lat="65.5233" lon="22.02738">
        <ele>47.124124</ele>
        <time>2020-09-26T08:42:03.251Z</time>
      </trkpt>
      <trkpt lat="65.52327" lon="22.02715">
        <ele>47.351783</ele>
        <time>2020-09-26T08:42:06.280Z</time>
      </trkpt>
      <trkpt lat="65.52323" lon="22.02689">
        <ele>47.612327</ele>
        <time>2020-09-26T08:42:09.247Z</time>
      </trkpt>
      <trkpt lat="65.52319" lon="22.02661">
        <ele>47.899488</ele>
        <time>2020-09-26T08:42:12.271Z</time>
      </trkpt>
      <trkpt lat="65.52316" lon="22.02632">
        <ele>48.183435</ele>
        <time>2020-09-26T08:42:15.251Z</time>
      </trkpt>
      <trkpt lat="65.52312" lon="22.02604">
        <ele>48.464631</ele>
        <time>2020-09-26T08:42:18.271Z</time>
      </trkpt>
      <trkpt lat="65.52308" lon="22.02578">
        <ele>48.737943</ele>
        <time>2020-09-26T08:42:21.256Z</time>
      </trkpt>
      <trkpt lat="65.52303" lon="22.0255">
        <ele>49.021868</ele>
        <time>2020-09-26T08:42:24.267Z</time>
      </trkpt>
      <trkpt lat="65.52299" lon="22.02522">
        <ele>49.31144</ele>
        <time>2020-09-26T08:42:27.263Z</time>
      </trkpt>
      <trkpt lat="65.52295" lon="22.02493">
        <ele>49.431338</ele>
        <time>2020-09-26T08:42:30.278Z</time>
      </trkpt>
      <trkpt lat="65.52292" lon="22.02471">
        <ele>48.977778</ele>
        <time>2020-09-26T08:42:32.245Z</time>
      </trkpt>
      <trkpt lat="65.52287" lon="22.02441">
        <ele>48.342774</ele>
        <time>2020-09-26T08:42:35.253Z</time>
      </trkpt>
      <trkpt lat="65.52284" lon="22.0242">
        <ele>47.888444</ele>
        <time>2020-09-26T08:42:37.265Z</time>
      </trkpt>
      <trkpt lat="65.52279" lon="22.0239">
        <ele>47.247014</ele>
        <time>2020-09-26T08:42:40.229Z</time>
      </trkpt>
      <trkpt lat="65.52276" lon="22.02368">
        <ele>46.791563</ele>
        <time>2020-09-26T08:42:42.228Z</time>
      </trkpt>
      <trkpt lat="65.52273" lon="22.02346">
        <ele>46.330442</ele>
        <time>2020-09-26T08:42:44.232Z</time>
      </trkpt>
      <trkpt lat="65.5227" lon="22.02325">
        <ele>45.882845</ele>
        <time>2020-09-26T08:42:46.240Z</time>
      </trkpt>
      <trkpt lat="65.52267" lon="22.02304">
        <ele>45.439001</ele>
        <time>2020-09-26T08:42:48.257Z</time>
      </trkpt>
      <trkpt lat="65.52263" lon="22.02275">
        <ele>44.829512</ele>
        <time>2020-09-26T08:42:51.279Z</time>
      </trkpt>
      <trkpt lat="65.52259" lon="22.02246">
        <ele>44.212236</ele>
        <time>2020-09-26T08:42:54.231Z</time>
      </trkpt>
      <trkpt lat="65.52255" lon="22.02224">
        <ele>43.739371</ele>
        <time>2020-09-26T08:42:56.236Z</time>
      </trkpt>
      <trkpt lat="65.5225" lon="22.02202">
        <ele>43.262517</ele>
        <time>2020-09-26T08:42:58.233Z</time>
      </trkpt>
      <trkpt lat="65.52246" lon="22.02178">
        <ele>42.727129</ele>
        <time>2020-09-26T08:43:00.250Z</time>
      </trkpt>
      <trkpt lat="65.52241" lon="22.02154">
        <ele>42.216854</ele>
        <time>2020-09-26T08:43:02.249Z</time>
      </trkpt>
      <trkpt lat="65.52236" lon="22.02132">
        <ele>41.706035</ele>
        <time>2020-09-26T08:43:04.248Z</time>
      </trkpt>
      <trkpt lat="65.5223" lon="22.0211">
        <ele>41.186053</ele>
        <time>2020-09-26T08:43:06.259Z</time>
      </trkpt>
      <trkpt lat="65.52225" lon="22.02088">
        <ele>40.839279</ele>
        <time>2020-09-26T08:43:08.277Z</time>
      </trkpt>
      <trkpt lat="65.52219" lon="22.02067">
        <ele>40.691633</ele>
        <time>2020-09-26T08:43:10.260Z</time>
      </trkpt>
      <trkpt lat="65.52212" lon="22.02046">
        <ele>40.544445</ele>
        <time>2020-09-26T08:43:12.274Z</time>
      </trkpt>
      <trkpt lat="65.52207" lon="22.02026">
        <ele>40.399488</ele>
        <time>2020-09-26T08:43:14.249Z</time>
      </trkpt>
      <trkpt lat="65.52201" lon="22.02004">
        <ele>40.251163</ele>
        <time>2020-09-26T08:43:16.232Z</time>
      </trkpt>
      <trkpt lat="65.52195" lon="22.01982">
        <ele>40.103096</ele>
        <time>2020-09-26T08:43:18.245Z</time>
      </trkpt>
      <trkpt lat="65.5219" lon="22.01961">
        <ele>39.961874</ele>
        <time>2020-09-26T08:43:20.262Z</time>
      </trkpt>
      <trkpt lat="65.52185" lon="22.01942">
        <ele>39.830655</ele>
        <time>2020-09-26T08:43:22.249Z</time>
      </trkpt>
      <trkpt lat="65.52179" lon="22.01923">
        <ele>39.695195</ele>
        <time>2020-09-26T08:43:24.234Z</time>
      </trkpt>
      <trkpt lat="65.52173" lon="22.01902">
        <ele>39.547246</ele>
        <time>2020-09-26T08:43:26.277Z</time>
      </trkpt>
      <trkpt lat="65.52168" lon="22.01881">
        <ele>39.408489</ele>
        <time>2020-09-26T08:43:28.231Z</time>
      </trkpt>
      <trkpt lat="65.52162" lon="22.0186">
        <ele>39.263819</ele>
        <time>2020-09-26T08:43:30.264Z</time>
      </trkpt>
      <trkpt lat="65.52156" lon="22.0184">
        <ele>39.116968</ele>
        <time>2020-09-26T08:43:32.260Z</time>
      </trkpt>
      <trkpt lat="65.5215" lon="22.01818">
        <ele>38.964899</ele>
        <time>2020-09-26T08:43:34.232Z</time>
      </trkpt>
      <trkpt lat="65.52143" lon="22.01796">
        <ele>38.807093</ele>
        <time>2020-09-26T08:43:36.259Z</time>
      </trkpt>
      <trkpt lat="65.52137" lon="22.01773">
        <ele>38.653291</ele>
        <time>2020-09-26T08:43:38.278Z</time>
      </trkpt>
      <trkpt lat="65.52131" lon="22.01752">
        <ele>38.500264</ele>
        <time>2020-09-26T08:43:40.247Z</time>
      </trkpt>
      <trkpt lat="65.52124" lon="22.01731">
        <ele>38.484433</ele>
        <time>2020-09-26T08:43:42.254Z</time>
      </trkpt>
      <trkpt lat="65.52117" lon="22.01711">
        <ele>38.691196</ele>
        <time>2020-09-26T08:43:44.251Z</time>
      </trkpt>
      <trkpt lat="65.5211" lon="22.01693">
        <ele>38.896236</ele>
        <time>2020-09-26T08:43:46.267Z</time>
      </trkpt>
      <trkpt lat="65.52103" lon="22.01674">
        <ele>39.098982</ele>
        <time>2020-09-26T08:43:48.259Z</time>
      </trkpt>
      <trkpt lat="65.52095" lon="22.01656">
        <ele>39.304023</ele>
        <time>2020-09-26T08:43:50.245Z</time>
      </trkpt>
      <trkpt lat="65.52088" lon="22.01639">
        <ele>39.502566</ele>
        <time>2020-09-26T08:43:52.251Z</time>
      </trkpt>
      <trkpt lat="65.5208" lon="22.01622">
        <ele>39.715995</ele>
        <time>2020-09-26T08:43:54.243Z</time>
      </trkpt>
      <trkpt lat="65.52071" lon="22.01605">
        <ele>39.929857</ele>
        <time>2020-09-26T08:43:56.247Z</time>
      </trkpt>
      <trkpt lat="65.52063" lon="22.01588">
        <ele>40.135101</ele>
        <time>2020-09-26T08:43:58.237Z</time>
      </trkpt>
      <trkpt lat="65.52055" lon="22.01573">
        <ele>40.332254</ele>
        <time>2020-09-26T08:44:00.289Z</time>
      </trkpt>
      <trkpt lat="65.52047" lon="22.01559">
        <ele>40.523821</ele>
        <time>2020-09-26T08:44:02.261Z</time>
      </trkpt>
      <trkpt lat="65.5204" lon="22.01544">
        <ele>40.716398</ele>
        <time>2020-09-26T08:44:04.248Z</time>
      </trkpt>
      <trkpt lat="65.52033" lon="22.01528">
        <ele>40.900733</ele>
        <time>2020-09-26T08:44:06.285Z</time>
      </trkpt>
      <trkpt lat="65.52025" lon="22.01515">
        <ele>41.094365</ele>
        <time>2020-09-26T08:44:08.250Z</time>
      </trkpt>
      <trkpt lat="65.52016" lon="22.01501">
        <ele>41.290972</ele>
        <time>2020-09-26T08:44:10.280Z</time>
      </trkpt>
      <trkpt lat="65.52008" lon="22.01487">
        <ele>41.483759</ele>
        <time>2020-09-26T08:44:12.259Z</time>
      </trkpt>
      <trkpt lat="65.52" lon="22.01472">
        <ele>41.684593</ele>
        <time>2020-09-26T08:44:14.285Z</time>
      </trkpt>
      <trkpt lat="65.51992" lon="22.01456">
        <ele>41.88172</ele>
        <time>2020-09-26T08:44:16.266Z</time>
      </trkpt>
      <trkpt lat="65.51984" lon="22.0144">
        <ele>41.774432</ele>
        <time>2020-09-26T08:44:18.264Z</time>
      </trkpt>
      <trkpt lat="65.51977" lon="22.01425">
        <ele>41.634709</ele>
        <time>2020-09-26T08:44:20.252Z</time>
      </trkpt>
      <trkpt lat="65.51969" lon="22.01408">
        <ele>41.486782</ele>
        <time>2020-09-26T08:44:22.228Z</time>
      </trkpt>
      <trkpt lat="65.51962" lon="22.01391">
        <ele>41.33965</ele>
        <time>2020-09-26T08:44:24.250Z</time>
      </trkpt>
      <trkpt lat="65.51955" lon="22.01374">
        <ele>41.198706</ele>
        <time>2020-09-26T08:44:26.263Z</time>
      </trkpt>
      <trkpt lat="65.51948" lon="22.01359">
        <ele>41.062202</ele>
        <time>2020-09-26T08:44:28.251Z</time>
      </trkpt>
      <trkpt lat="65.51942" lon="22.01343">
        <ele>40.932502</ele>
        <time>2020-09-26T08:44:30.267Z</time>
      </trkpt>
      <trkpt lat="65.51936" lon="22.01324">
        <ele>40.793624</ele>
        <time>2020-09-26T08:44:32.261Z</time>
      </trkpt>
      <trkpt lat="65.5193" lon="22.01306">
        <ele>40.661471</ele>
        <time>2020-09-26T08:44:34.278Z</time>
      </trkpt>
      <trkpt lat="65.51923" lon="22.01279">
        <ele>40.472426</ele>
        <time>2020-09-26T08:44:37.230Z</time>
      </trkpt>
      <trkpt lat="65.51918" lon="22.01258">
        <ele>40.328915</ele>
        <time>2020-09-26T08:44:39.278Z</time>
      </trkpt>
      <trkpt lat="65.51914" lon="22.01237">
        <ele>40.188691</ele>
        <time>2020-09-26T08:44:41.234Z</time>
      </trkpt>
      <trkpt lat="65.5191" lon="22.01215">
        <ele>40.048555</ele>
        <time>2020-09-26T08:44:43.260Z</time>
      </trkpt>
      <trkpt lat="65.51906" lon="22.01194">
        <ele>39.916063</ele>
        <time>2020-09-26T08:44:45.255Z</time>
      </trkpt>
      <trkpt lat="65.51901" lon="22.01166">
        <ele>39.729775</ele>
        <time>2020-09-26T08:44:48.254Z</time>
      </trkpt>
      <trkpt lat="65.51898" lon="22.01144">
        <ele>39.592979</ele>
        <time>2020-09-26T08:44:50.233Z</time>
      </trkpt>
      <trkpt lat="65.51896" lon="22.0112">
        <ele>39.449901</ele>
        <time>2020-09-26T08:44:52.244Z</time>
      </trkpt>
      <trkpt lat="65.51894" lon="22.01097">
        <ele>39.288487</ele>
        <time>2020-09-26T08:44:54.262Z</time>
      </trkpt>
      <trkpt lat="65.51892" lon="22.01075">
        <ele>39.023039</ele>
        <time>2020-09-26T08:44:56.261Z</time>
      </trkpt>
      <trkpt lat="65.5189" lon="22.01052">
        <ele>38.760988</ele>
        <time>2020-09-26T08:44:58.240Z</time>
      </trkpt>
      <trkpt lat="65.51889" lon="22.0103">
        <ele>38.501611</ele>
        <time>2020-09-26T08:45:00.312Z</time>
      </trkpt>
      <trkpt lat="65.51888" lon="22.01007">
        <ele>38.232629</ele>
        <time>2020-09-26T08:45:02.272Z</time>
      </trkpt>
      <trkpt lat="65.51888" lon="22.00985">
        <ele>37.982725</ele>
        <time>2020-09-26T08:45:04.270Z</time>
      </trkpt>
      <trkpt lat="65.51887" lon="22.00963">
        <ele>37.725447</ele>
        <time>2020-09-26T08:45:06.253Z</time>
      </trkpt>
      <trkpt lat="65.51887" lon="22.0094">
        <ele>37.457849</ele>
        <time>2020-09-26T08:45:08.243Z</time>
      </trkpt>
      <trkpt lat="65.51888" lon="22.00916">
        <ele>37.181009</ele>
        <time>2020-09-26T08:45:10.278Z</time>
      </trkpt>
      <trkpt lat="65.51888" lon="22.0089">
        <ele>36.889069</ele>
        <time>2020-09-26T08:45:12.251Z</time>
      </trkpt>
      <trkpt lat="65.51888" lon="22.00865">
        <ele>36.59367</ele>
        <time>2020-09-26T08:45:14.229Z</time>
      </trkpt>
      <trkpt lat="65.51889" lon="22.00838">
        <ele>36.287691</ele>
        <time>2020-09-26T08:45:16.239Z</time>
      </trkpt>
      <trkpt lat="65.51889" lon="22.00811">
        <ele>35.969897</ele>
        <time>2020-09-26T08:45:18.241Z</time>
      </trkpt>
      <trkpt lat="65.5189" lon="22.00786">
        <ele>35.678023</ele>
        <time>2020-09-26T08:45:20.239Z</time>
      </trkpt>
      <trkpt lat="65.5189" lon="22.00757">
        <ele>35.351303</ele>
        <time>2020-09-26T08:45:22.251Z</time>
      </trkpt>
      <trkpt lat="65.5189" lon="22.00727">
        <ele>35.007398</ele>
        <time>2020-09-26T08:45:24.289Z</time>
      </trkpt>
      <trkpt lat="65.5189" lon="22.00701">
        <ele>34.707181</ele>
        <time>2020-09-26T08:45:26.253Z</time>
      </trkpt>
      <trkpt lat="65.5189" lon="22.0067">
        <ele>34.34721</ele>
        <time>2020-09-26T08:45:28.229Z</time>
      </trkpt>
      <trkpt lat="65.51891" lon="22.00637">
        <ele>34.079595</ele>
        <time>2020-09-26T08:45:30.268Z</time>
      </trkpt>
      <trkpt lat="65.51893" lon="22.00602">
        <ele>33.810145</ele>
        <time>2020-09-26T08:45:32.233Z</time>
      </trkpt>
      <trkpt lat="65.51894" lon="22.00567">
        <ele>33.531606</ele>
        <time>2020-09-26T08:45:34.244Z</time>
      </trkpt>
      <trkpt lat="65.51896" lon="22.00528">
        <ele>33.229827</ele>
        <time>2020-09-26T08:45:36.252Z</time>
      </trkpt>
      <trkpt lat="65.51899" lon="22.00493">
        <ele>32.947729</ele>
        <time>2020-09-26T08:45:38.273Z</time>
      </trkpt>
      <trkpt lat="65.51903" lon="22.0046">
        <ele>32.683038</ele>
        <time>2020-09-26T08:45:40.244Z</time>
      </trkpt>
      <trkpt lat="65.51907" lon="22.0043">
        <ele>32.437617</ele>
        <time>2020-09-26T08:45:42.245Z</time>
      </trkpt>
      <trkpt lat="65.51912" lon="22.00401">
        <ele>32.189526</ele>
        <time>2020-09-26T08:45:44.246Z</time>
      </trkpt>
      <trkpt lat="65.51916" lon="22.00373">
        <ele>31.958706</ele>
        <time>2020-09-26T08:45:46.249Z</time>
      </trkpt>
      <trkpt lat="65.51919" lon="22.00345">
        <ele>31.737867</ele>
        <time>2020-09-26T08:45:48.272Z</time>
      </trkpt>
      <trkpt lat="65.51923" lon="22.0032">
        <ele>31.527562</ele>
        <time>2020-09-26T08:45:50.239Z</time>
      </trkpt>
      <trkpt lat="65.51927" lon="22.00293">
        <ele>31.305192</ele>
        <time>2020-09-26T08:45:52.248Z</time>
      </trkpt>
      <trkpt lat="65.51931" lon="22.00267">
        <ele>31.091423</ele>
        <time>2020-09-26T08:45:54.283Z</time>
      </trkpt>
      <trkpt lat="65.51935" lon="22.00243">
        <ele>30.91292</ele>
        <time>2020-09-26T08:45:56.249Z</time>
      </trkpt>
      <trkpt lat="65.51939" lon="22.0022">
        <ele>30.797935</ele>
        <time>2020-09-26T08:45:58.244Z</time>
      </trkpt>
      <trkpt lat="65.51942" lon="22.00196">
        <ele>30.684026</ele>
        <time>2020-09-26T08:46:00.261Z</time>
      </trkpt>
      <trkpt lat="65.51946" lon="22.00173">
        <ele>30.568598</ele>
        <time>2020-09-26T08:46:02.243Z</time>
      </trkpt>
      <trkpt lat="65.5195" lon="22.00151">
        <ele>30.461075</ele>
        <time>2020-09-26T08:46:04.279Z</time>
      </trkpt>
      <trkpt lat="65.51953" lon="22.00128">
        <ele>30.350605</ele>
        <time>2020-09-26T08:46:06.231Z</time>
      </trkpt>
      <trkpt lat="65.51957" lon="22.00104">
        <ele>30.235627</ele>
        <time>2020-09-26T08:46:08.241Z</time>
      </trkpt>
      <trkpt lat="65.51961" lon="22.0008">
        <ele>30.1181</ele>
        <time>2020-09-26T08:46:10.246Z</time>
      </trkpt>
      <trkpt lat="65.51964" lon="22.00056">
        <ele>29.997872</ele>
        <time>2020-09-26T08:46:12.253Z</time>
      </trkpt>
      <trkpt lat="65.51968" lon="22.0003">
        <ele>29.876419</ele>
        <time>2020-09-26T08:46:14.268Z</time>
      </trkpt>
      <trkpt lat="65.51972" lon="22.00006">
        <ele>29.756304</ele>
        <time>2020-09-26T08:46:16.243Z</time>
      </trkpt>
      <trkpt lat="65.51976" lon="21.99982">
        <ele>29.638378</ele>
        <time>2020-09-26T08:46:18.248Z</time>
      </trkpt>
      <trkpt lat="65.5198" lon="21.99959">
        <ele>29.525439</ele>
        <time>2020-09-26T08:46:20.268Z</time>
      </trkpt>
      <trkpt lat="65.51983" lon="21.99935">
        <ele>29.408649</ele>
        <time>2020-09-26T08:46:22.234Z</time>
      </trkpt>
      <trkpt lat="65.51986" lon="21.99911">
        <ele>29.295013</ele>
        <time>2020-09-26T08:46:24.288Z</time>
      </trkpt>
      <trkpt lat="65.5199" lon="21.99888">
        <ele>29.184115</ele>
        <time>2020-09-26T08:46:26.246Z</time>
      </trkpt>
      <trkpt lat="65.51993" lon="21.99865">
        <ele>29.074551</ele>
        <time>2020-09-26T08:46:28.257Z</time>
      </trkpt>
      <trkpt lat="65.51997" lon="21.99843">
        <ele>28.97174</ele>
        <time>2020-09-26T08:46:30.243Z</time>
      </trkpt>
      <trkpt lat="65.52" lon="21.99821">
        <ele>29.045621</ele>
        <time>2020-09-26T08:46:32.231Z</time>
      </trkpt>
      <trkpt lat="65.52004" lon="21.998">
        <ele>29.117381</ele>
        <time>2020-09-26T08:46:34.245Z</time>
      </trkpt>
      <trkpt lat="65.52007" lon="21.99778">
        <ele>29.18967</ele>
        <time>2020-09-26T08:46:36.235Z</time>
      </trkpt>
      <trkpt lat="65.52009" lon="21.99757">
        <ele>29.258943</ele>
        <time>2020-09-26T08:46:38.244Z</time>
      </trkpt>
      <trkpt lat="65.52014" lon="21.99728">
        <ele>29.358577</ele>
        <time>2020-09-26T08:46:41.264Z</time>
      </trkpt>
      <trkpt lat="65.52018" lon="21.99699">
        <ele>29.4553</ele>
        <time>2020-09-26T08:46:44.242Z</time>
      </trkpt>
      <trkpt lat="65.52022" lon="21.99671">
        <ele>29.547752</ele>
        <time>2020-09-26T08:46:47.247Z</time>
      </trkpt>
      <trkpt lat="65.52026" lon="21.99647">
        <ele>29.629801</ele>
        <time>2020-09-26T08:46:50.248Z</time>
      </trkpt>
      <trkpt lat="65.52031" lon="21.99621">
        <ele>29.722382</ele>
        <time>2020-09-26T08:46:53.245Z</time>
      </trkpt>
      <trkpt lat="65.52035" lon="21.99593">
        <ele>29.816113</ele>
        <time>2020-09-26T08:46:56.242Z</time>
      </trkpt>
      <trkpt lat="65.52041" lon="21.99567">
        <ele>29.908602</ele>
        <time>2020-09-26T08:46:59.287Z</time>
      </trkpt>
      <trkpt lat="65.52047" lon="21.99541">
        <ele>30.004621</ele>
        <time>2020-09-26T08:47:02.242Z</time>
      </trkpt>
      <trkpt lat="65.52053" lon="21.99513">
        <ele>30.102314</ele>
        <time>2020-09-26T08:47:05.280Z</time>
      </trkpt>
      <trkpt lat="65.52059" lon="21.99487">
        <ele>30.196974</ele>
        <time>2020-09-26T08:47:08.243Z</time>
      </trkpt>
      <trkpt lat="65.52065" lon="21.9946">
        <ele>30.293836</ele>
        <time>2020-09-26T08:47:11.241Z</time>
      </trkpt>
      <trkpt lat="65.52072" lon="21.99434">
        <ele>30.308235</ele>
        <time>2020-09-26T08:47:14.259Z</time>
      </trkpt>
      <trkpt lat="65.52077" lon="21.99416">
        <ele>30.256748</ele>
        <time>2020-09-26T08:47:16.246Z</time>
      </trkpt>
      <trkpt lat="65.52082" lon="21.99396">
        <ele>30.202944</ele>
        <time>2020-09-26T08:47:18.277Z</time>
      </trkpt>
      <trkpt lat="65.52086" lon="21.99377">
        <ele>30.14975</ele>
        <time>2020-09-26T08:47:20.262Z</time>
      </trkpt>
      <trkpt lat="65.52092" lon="21.99358">
        <ele>30.09477</ele>
        <time>2020-09-26T08:47:22.249Z</time>
      </trkpt>
      <trkpt lat="65.52097" lon="21.9934">
        <ele>30.04095</ele>
        <time>2020-09-26T08:47:24.232Z</time>
      </trkpt>
      <trkpt lat="65.52105" lon="21.99314">
        <ele>29.965605</ele>
        <time>2020-09-26T08:47:27.267Z</time>
      </trkpt>
      <trkpt lat="65.52111" lon="21.99296">
        <ele>29.910975</ele>
        <time>2020-09-26T08:47:29.243Z</time>
      </trkpt>
      <trkpt lat="65.52117" lon="21.99276">
        <ele>29.850324</ele>
        <time>2020-09-26T08:47:31.248Z</time>
      </trkpt>
      <trkpt lat="65.52125" lon="21.99256">
        <ele>29.787833</ele>
        <time>2020-09-26T08:47:33.249Z</time>
      </trkpt>
      <trkpt lat="65.52132" lon="21.99237">
        <ele>29.726965</ele>
        <time>2020-09-26T08:47:35.264Z</time>
      </trkpt>
      <trkpt lat="65.52139" lon="21.99217">
        <ele>29.664065</ele>
        <time>2020-09-26T08:47:37.259Z</time>
      </trkpt>
      <trkpt lat="65.52147" lon="21.99196">
        <ele>29.595788</ele>
        <time>2020-09-26T08:47:39.262Z</time>
      </trkpt>
      <trkpt lat="65.52155" lon="21.99174">
        <ele>29.524885</ele>
        <time>2020-09-26T08:47:41.262Z</time>
      </trkpt>
      <trkpt lat="65.52164" lon="21.99151">
        <ele>29.452514</ele>
        <time>2020-09-26T08:47:43.233Z</time>
      </trkpt>
      <trkpt lat="65.52174" lon="21.99127">
        <ele>29.373323</ele>
        <time>2020-09-26T08:47:45.280Z</time>
      </trkpt>
      <trkpt lat="65.52184" lon="21.99102">
        <ele>29.235552</ele>
        <time>2020-09-26T08:47:47.258Z</time>
      </trkpt>
      <trkpt lat="65.52194" lon="21.99077">
        <ele>28.969503</ele>
        <time>2020-09-26T08:47:49.259Z</time>
      </trkpt>
      <trkpt lat="65.52203" lon="21.99053">
        <ele>28.708962</ele>
        <time>2020-09-26T08:47:51.281Z</time>
      </trkpt>
      <trkpt lat="65.52213" lon="21.99028">
        <ele>28.455169</ele>
        <time>2020-09-26T08:47:53.293Z</time>
      </trkpt>
      <trkpt lat="65.52221" lon="21.99003">
        <ele>28.204461</ele>
        <time>2020-09-26T08:47:55.274Z</time>
      </trkpt>
      <trkpt lat="65.52229" lon="21.98978">
        <ele>27.961929</ele>
        <time>2020-09-26T08:47:57.238Z</time>
      </trkpt>
      <trkpt lat="65.52238" lon="21.98955">
        <ele>27.728307</ele>
        <time>2020-09-26T08:47:59.265Z</time>
      </trkpt>
      <trkpt lat="65.52246" lon="21.98932">
        <ele>27.499956</ele>
        <time>2020-09-26T08:48:01.236Z</time>
      </trkpt>
      <trkpt lat="65.52253" lon="21.9891">
        <ele>27.280495</ele>
        <time>2020-09-26T08:48:03.249Z</time>
      </trkpt>
      <trkpt lat="65.52261" lon="21.98888">
        <ele>27.059285</ele>
        <time>2020-09-26T08:48:05.250Z</time>
      </trkpt>
      <trkpt lat="65.52268" lon="21.98866">
        <ele>26.841487</ele>
        <time>2020-09-26T08:48:07.303Z</time>
      </trkpt>
      <trkpt lat="65.52275" lon="21.98843">
        <ele>26.628748</ele>
        <time>2020-09-26T08:48:09.242Z</time>
      </trkpt>
      <trkpt lat="65.52281" lon="21.9882">
        <ele>26.416882</ele>
        <time>2020-09-26T08:48:11.237Z</time>
      </trkpt>
      <trkpt lat="65.52287" lon="21.98797">
        <ele>26.205732</ele>
        <time>2020-09-26T08:48:13.254Z</time>
      </trkpt>
      <trkpt lat="65.52294" lon="21.98773">
        <ele>25.989678</ele>
        <time>2020-09-26T08:48:15.244Z</time>
      </trkpt>
      <trkpt lat="65.523" lon="21.9875">
        <ele>26.034946</ele>
        <time>2020-09-26T08:48:17.245Z</time>
      </trkpt>
      <trkpt lat="65.52306" lon="21.98728">
        <ele>26.07943</ele>
        <time>2020-09-26T08:48:19.240Z</time>
      </trkpt>
      <trkpt lat="65.52311" lon="21.98705">
        <ele>26.122769</ele>
        <time>2020-09-26T08:48:21.261Z</time>
      </trkpt>
      <trkpt lat="65.52316" lon="21.98683">
        <ele>26.164245</ele>
        <time>2020-09-26T08:48:23.255Z</time>
      </trkpt>
      <trkpt lat="65.5232" lon="21.98661">
        <ele>26.206479</ele>
        <time>2020-09-26T08:48:25.290Z</time>
      </trkpt>
      <trkpt lat="65.52325" lon="21.98637">
        <ele>26.251082</ele>
        <time>2020-09-26T08:48:27.261Z</time>
      </trkpt>
      <trkpt lat="65.5233" lon="21.98614">
        <ele>26.294453</ele>
        <time>2020-09-26T08:48:29.251Z</time>
      </trkpt>
      <trkpt lat="65.52334" lon="21.98592">
        <ele>26.335362</ele>
        <time>2020-09-26T08:48:31.250Z</time>
      </trkpt>
      <trkpt lat="65.52339" lon="21.9857">
        <ele>26.37743</ele>
        <time>2020-09-26T08:48:33.246Z</time>
      </trkpt>
      <trkpt lat="65.52344" lon="21.98546">
        <ele>26.422548</ele>
        <time>2020-09-26T08:48:35.254Z</time>
      </trkpt>
      <trkpt lat="65.52349" lon="21.98522">
        <ele>26.467001</ele>
        <time>2020-09-26T08:48:37.242Z</time>
      </trkpt>
      <trkpt lat="65.52354" lon="21.985">
        <ele>26.508393</ele>
        <time>2020-09-26T08:48:39.259Z</time>
      </trkpt>
      <trkpt lat="65.52358" lon="21.9848">
        <ele>26.546446</ele>
        <time>2020-09-26T08:48:41.272Z</time>
      </trkpt>
      <trkpt lat="65.52362" lon="21.98459">
        <ele>26.585279</ele>
        <time>2020-09-26T08:48:43.250Z</time>
      </trkpt>
      <trkpt lat="65.52366" lon="21.98439">
        <ele>26.622528</ele>
        <time>2020-09-26T08:48:45.252Z</time>
      </trkpt>
      <trkpt lat="65.52371" lon="21.98419">
        <ele>26.659749</ele>
        <time>2020-09-26T08:48:47.268Z</time>
      </trkpt>
      <trkpt lat="65.52377" lon="21.98391">
        <ele>26.714544</ele>
        <time>2020-09-26T08:48:50.244Z</time>
      </trkpt>
      <trkpt lat="65.52381" lon="21.9837">
        <ele>26.945329</ele>
        <time>2020-09-26T08:48:52.257Z</time>
      </trkpt>
      <trkpt lat="65.52385" lon="21.98351">
        <ele>27.178473</ele>
        <time>2020-09-26T08:48:54.232Z</time>
      </trkpt>
      <trkpt lat="65.52391" lon="21.98322">
        <ele>27.518649</ele>
        <time>2020-09-26T08:48:57.258Z</time>
      </trkpt>
      <trkpt lat="65.52397" lon="21.98294">
        <ele>27.851738</ele>
        <time>2020-09-26T08:49:00.267Z</time>
      </trkpt>
      <trkpt lat="65.52403" lon="21.98266">
        <ele>28.185989</ele>
        <time>2020-09-26T08:49:03.258Z</time>
      </trkpt>
      <trkpt lat="65.52409" lon="21.9824">
        <ele>28.512594</ele>
        <time>2020-09-26T08:49:06.238Z</time>
      </trkpt>
      <trkpt lat="65.52416" lon="21.98213">
        <ele>28.839903</ele>
        <time>2020-09-26T08:49:09.239Z</time>
      </trkpt>
      <trkpt lat="65.52421" lon="21.98188">
        <ele>29.143833</ele>
        <time>2020-09-26T08:49:12.272Z</time>
      </trkpt>
      <trkpt lat="65.52426" lon="21.98161">
        <ele>29.457463</ele>
        <time>2020-09-26T08:49:15.251Z</time>
      </trkpt>
      <trkpt lat="65.52432" lon="21.98134">
        <ele>29.776795</ele>
        <time>2020-09-26T08:49:18.266Z</time>
      </trkpt>
      <trkpt lat="65.52437" lon="21.98107">
        <ele>30.099941</ele>
        <time>2020-09-26T08:49:21.247Z</time>
      </trkpt>
      <trkpt lat="65.52443" lon="21.98081">
        <ele>30.419074</ele>
        <time>2020-09-26T08:49:24.247Z</time>
      </trkpt>
      <trkpt lat="65.52449" lon="21.98054">
        <ele>30.737575</ele>
        <time>2020-09-26T08:49:27.240Z</time>
      </trkpt>
      <trkpt lat="65.52456" lon="21.98027">
        <ele>31.077617</ele>
        <time>2020-09-26T08:49:30.231Z</time>
      </trkpt>
      <trkpt lat="65.52461" lon="21.97999">
        <ele>31.368387</ele>
        <time>2020-09-26T08:49:33.259Z</time>
      </trkpt>
      <trkpt lat="65.52467" lon="21.97971">
        <ele>31.477806</ele>
        <time>2020-09-26T08:49:36.246Z</time>
      </trkpt>
      <trkpt lat="65.52472" lon="21.97943">
        <ele>31.588426</ele>
        <time>2020-09-26T08:49:39.240Z</time>
      </trkpt>
      <trkpt lat="65.52478" lon="21.97915">
        <ele>31.698306</ele>
        <time>2020-09-26T08:49:42.270Z</time>
      </trkpt>
      <trkpt lat="65.52484" lon="21.97888">
        <ele>31.805837</ele>
        <time>2020-09-26T08:49:45.279Z</time>
      </trkpt>
      <trkpt lat="65.52489" lon="21.9786">
        <ele>31.914951</ele>
        <time>2020-09-26T08:49:48.243Z</time>
      </trkpt>
      <trkpt lat="65.52493" lon="21.97832">
        <ele>32.022088</ele>
        <time>2020-09-26T08:49:51.246Z</time>
      </trkpt>
      <trkpt lat="65.52498" lon="21.97803">
        <ele>32.130037</ele>
        <time>2020-09-26T08:49:54.264Z</time>
      </trkpt>
      <trkpt lat="65.52502" lon="21.97774">
        <ele>32.239321</ele>
        <time>2020-09-26T08:49:57.236Z</time>
      </trkpt>
      <trkpt lat="65.52506" lon="21.97743">
        <ele>32.353105</ele>
        <time>2020-09-26T08:50:00.240Z</time>
      </trkpt>
      <trkpt lat="65.5251" lon="21.97713">
        <ele>32.465959</ele>
        <time>2020-09-26T08:50:03.230Z</time>
      </trkpt>
      <trkpt lat="65.52511" lon="21.9769">
        <ele>32.545486</ele>
        <time>2020-09-26T08:50:05.246Z</time>
      </trkpt>
      <trkpt lat="65.52512" lon="21.97669">
        <ele>32.622591</ele>
        <time>2020-09-26T08:50:07.276Z</time>
      </trkpt>
      <trkpt lat="65.52514" lon="21.97637">
        <ele>32.735655</ele>
        <time>2020-09-26T08:50:10.256Z</time>
      </trkpt>
      <trkpt lat="65.52514" lon="21.97607">
        <ele>32.842131</ele>
        <time>2020-09-26T08:50:13.274Z</time>
      </trkpt>
      <trkpt lat="65.52514" lon="21.97584">
        <ele>32.843895</ele>
        <time>2020-09-26T08:50:15.264Z</time>
      </trkpt>
      <trkpt lat="65.52514" lon="21.97558">
        <ele>32.740677</ele>
        <time>2020-09-26T08:50:17.267Z</time>
      </trkpt>
      <trkpt lat="65.52514" lon="21.97533">
        <ele>32.644541</ele>
        <time>2020-09-26T08:50:19.266Z</time>
      </trkpt>
      <trkpt lat="65.52513" lon="21.9751">
        <ele>32.5536</ele>
        <time>2020-09-26T08:50:21.267Z</time>
      </trkpt>
      <trkpt lat="65.52512" lon="21.97486">
        <ele>32.458761</ele>
        <time>2020-09-26T08:50:23.279Z</time>
      </trkpt>
      <trkpt lat="65.52511" lon="21.97462">
        <ele>32.362471</ele>
        <time>2020-09-26T08:50:25.232Z</time>
      </trkpt>
      <trkpt lat="65.52509" lon="21.9744">
        <ele>32.276548</ele>
        <time>2020-09-26T08:50:27.264Z</time>
      </trkpt>
      <trkpt lat="65.52508" lon="21.97417">
        <ele>32.183535</ele>
        <time>2020-09-26T08:50:29.273Z</time>
      </trkpt>
      <trkpt lat="65.52506" lon="21.97384">
        <ele>32.054239</ele>
        <time>2020-09-26T08:50:32.245Z</time>
      </trkpt>
      <trkpt lat="65.52505" lon="21.97362">
        <ele>31.965948</ele>
        <time>2020-09-26T08:50:34.236Z</time>
      </trkpt>
      <trkpt lat="65.52501" lon="21.97337">
        <ele>31.862637</ele>
        <time>2020-09-26T08:50:37.298Z</time>
      </trkpt>
      <trkpt lat="65.52499" lon="21.97313">
        <ele>31.764313</ele>
        <time>2020-09-26T08:50:40.257Z</time>
      </trkpt>
      <trkpt lat="65.52497" lon="21.97278">
        <ele>31.626659</ele>
        <time>2020-09-26T08:50:43.247Z</time>
      </trkpt>
      <trkpt lat="65.52497" lon="21.97249">
        <ele>31.515241</ele>
        <time>2020-09-26T08:50:45.242Z</time>
      </trkpt>
      <trkpt lat="65.52497" lon="21.97225">
        <ele>31.418338</ele>
        <time>2020-09-26T08:50:47.245Z</time>
      </trkpt>
      <trkpt lat="65.52496" lon="21.97194">
        <ele>31.296813</ele>
        <time>2020-09-26T08:50:50.243Z</time>
      </trkpt>
      <trkpt lat="65.52495" lon="21.97165">
        <ele>31.18227</ele>
        <time>2020-09-26T08:50:53.252Z</time>
      </trkpt>
      <trkpt lat="65.52494" lon="21.97134">
        <ele>31.498994</ele>
        <time>2020-09-26T08:50:56.237Z</time>
      </trkpt>
      <trkpt lat="65.52492" lon="21.97109">
        <ele>31.759478</ele>
        <time>2020-09-26T08:50:59.266Z</time>
      </trkpt>
      <trkpt lat="65.52488" lon="21.97081">
        <ele>32.0532</ele>
        <time>2020-09-26T08:51:03.235Z</time>
      </trkpt>
      <trkpt lat="65.52486" lon="21.97056">
        <ele>32.315619</ele>
        <time>2020-09-26T08:51:06.247Z</time>
      </trkpt>
      <trkpt lat="65.52484" lon="21.97029">
        <ele>32.59655</ele>
        <time>2020-09-26T08:51:09.239Z</time>
      </trkpt>
      <trkpt lat="65.52482" lon="21.97004">
        <ele>32.854608</ele>
        <time>2020-09-26T08:51:12.251Z</time>
      </trkpt>
      <trkpt lat="65.52482" lon="21.96973">
        <ele>33.176872</ele>
        <time>2020-09-26T08:51:15.231Z</time>
      </trkpt>
      <trkpt lat="65.52482" lon="21.96949">
        <ele>33.422491</ele>
        <time>2020-09-26T08:51:17.265Z</time>
      </trkpt>
      <trkpt lat="65.52483" lon="21.96926">
        <ele>33.657493</ele>
        <time>2020-09-26T08:51:19.231Z</time>
      </trkpt>
      <trkpt lat="65.52484" lon="21.96902">
        <ele>33.900861</ele>
        <time>2020-09-26T08:51:21.247Z</time>
      </trkpt>
      <trkpt lat="65.52483" lon="21.96876">
        <ele>34.173202</ele>
        <time>2020-09-26T08:51:24.261Z</time>
      </trkpt>
      <trkpt lat="65.52481" lon="21.96853">
        <ele>34.405526</ele>
        <time>2020-09-26T08:51:27.264Z</time>
      </trkpt>
      <trkpt lat="65.52479" lon="21.96829">
        <ele>34.66242</ele>
        <time>2020-09-26T08:51:30.229Z</time>
      </trkpt>
      <trkpt lat="65.52477" lon="21.96808">
        <ele>34.886547</ele>
        <time>2020-09-26T08:51:33.248Z</time>
      </trkpt>
      <trkpt lat="65.52472" lon="21.96786">
        <ele>35.139456</ele>
        <time>2020-09-26T08:51:37.267Z</time>
      </trkpt>
      <trkpt lat="65.52471" lon="21.96764">
        <ele>35.366058</ele>
        <time>2020-09-26T08:51:40.252Z</time>
      </trkpt>
      <trkpt lat="65.52469" lon="21.96742">
        <ele>35.587874</ele>
        <time>2020-09-26T08:51:43.262Z</time>
      </trkpt>
      <trkpt lat="65.52469" lon="21.96715">
        <ele>35.836223</ele>
        <time>2020-09-26T08:51:46.291Z</time>
      </trkpt>
      <trkpt lat="65.52469" lon="21.96689">
        <ele>36.064987</ele>
        <time>2020-09-26T08:51:49.255Z</time>
      </trkpt>
      <trkpt lat="65.52469" lon="21.96664">
        <ele>36.287814</ele>
        <time>2020-09-26T08:51:52.235Z</time>
      </trkpt>
      <trkpt lat="65.52468" lon="21.9664">
        <ele>36.493618</ele>
        <time>2020-09-26T08:51:55.237Z</time>
      </trkpt>
      <trkpt lat="65.52468" lon="21.96618">
        <ele>36.693511</ele>
        <time>2020-09-26T08:51:58.266Z</time>
      </trkpt>
      <trkpt lat="65.52468" lon="21.96592">
        <ele>36.923238</ele>
        <time>2020-09-26T08:52:01.228Z</time>
      </trkpt>
      <trkpt lat="65.52467" lon="21.96562">
        <ele>37.189507</ele>
        <time>2020-09-26T08:52:05.249Z</time>
      </trkpt>
      <trkpt lat="65.52463" lon="21.9654">
        <ele>37.399233</ele>
        <time>2020-09-26T08:52:09.250Z</time>
      </trkpt>
      <trkpt lat="65.52458" lon="21.96518">
        <ele>37.616998</ele>
        <time>2020-09-26T08:52:13.281Z</time>
      </trkpt>
      <trkpt lat="65.52457" lon="21.96494">
        <ele>37.833687</ele>
        <time>2020-09-26T08:52:16.245Z</time>
      </trkpt>
      <trkpt lat="65.52455" lon="21.96469">
        <ele>38.055193</ele>
        <time>2020-09-26T08:52:19.243Z</time>
      </trkpt>
      <trkpt lat="65.52455" lon="21.9644">
        <ele>38.314897</ele>
        <time>2020-09-26T08:52:22.270Z</time>
      </trkpt>
      <trkpt lat="65.52456" lon="21.96417">
        <ele>38.514034</ele>
        <time>2020-09-26T08:52:24.241Z</time>
      </trkpt>
      <trkpt lat="65.52453" lon="21.96396">
        <ele>38.708143</ele>
        <time>2020-09-26T08:52:27.238Z</time>
      </trkpt>
      <trkpt lat="65.52452" lon="21.96371">
        <ele>38.928435</ele>
        <time>2020-09-26T08:52:30.249Z</time>
      </trkpt>
      <trkpt lat="65.5245" lon="21.96348">
        <ele>39.141631</ele>
        <time>2020-09-26T08:52:33.247Z</time>
      </trkpt>
      <trkpt lat="65.5245" lon="21.96323">
        <ele>39.359798</ele>
        <time>2020-09-26T08:52:35.261Z</time>
      </trkpt>
      <trkpt lat="65.52451" lon="21.96294">
        <ele>39.353339</ele>
        <time>2020-09-26T08:52:37.241Z</time>
      </trkpt>
      <trkpt lat="65.52451" lon="21.96269">
        <ele>39.215723</ele>
        <time>2020-09-26T08:52:39.245Z</time>
      </trkpt>
      <trkpt lat="65.52449" lon="21.96239">
        <ele>39.042585</ele>
        <time>2020-09-26T08:52:42.261Z</time>
      </trkpt>
      <trkpt lat="65.52446" lon="21.96208">
        <ele>38.868401</ele>
        <time>2020-09-26T08:52:45.273Z</time>
      </trkpt>
      <trkpt lat="65.52446" lon="21.96179">
        <ele>38.705837</ele>
        <time>2020-09-26T08:52:47.251Z</time>
      </trkpt>
      <trkpt lat="65.52446" lon="21.9615">
        <ele>38.546592</ele>
        <time>2020-09-26T08:52:49.243Z</time>
      </trkpt>
      <trkpt lat="65.52445" lon="21.96125">
        <ele>38.404109</ele>
        <time>2020-09-26T08:52:51.258Z</time>
      </trkpt>
      <trkpt lat="65.52444" lon="21.961">
        <ele>38.266622</ele>
        <time>2020-09-26T08:52:53.251Z</time>
      </trkpt>
      <trkpt lat="65.52443" lon="21.96074">
        <ele>38.122914</ele>
        <time>2020-09-26T08:52:55.253Z</time>
      </trkpt>
      <trkpt lat="65.52441" lon="21.9605">
        <ele>37.983019</ele>
        <time>2020-09-26T08:52:57.270Z</time>
      </trkpt>
      <trkpt lat="65.5244" lon="21.96023">
        <ele>37.835949</ele>
        <time>2020-09-26T08:52:59.307Z</time>
      </trkpt>
      <trkpt lat="65.52439" lon="21.95995">
        <ele>37.678585</ele>
        <time>2020-09-26T08:53:01.240Z</time>
      </trkpt>
      <trkpt lat="65.52438" lon="21.95969">
        <ele>37.529887</ele>
        <time>2020-09-26T08:53:03.256Z</time>
      </trkpt>
      <trkpt lat="65.52437" lon="21.95945">
        <ele>37.399172</ele>
        <time>2020-09-26T08:53:05.241Z</time>
      </trkpt>
      <trkpt lat="65.52435" lon="21.95911">
        <ele>37.209368</ele>
        <time>2020-09-26T08:53:08.248Z</time>
      </trkpt>
      <trkpt lat="65.52434" lon="21.95886">
        <ele>37.06719</ele>
        <time>2020-09-26T08:53:10.264Z</time>
      </trkpt>
      <trkpt lat="65.52433" lon="21.95863">
        <ele>37.014821</ele>
        <time>2020-09-26T08:53:12.237Z</time>
      </trkpt>
      <trkpt lat="65.5243" lon="21.95836">
        <ele>36.977121</ele>
        <time>2020-09-26T08:53:15.260Z</time>
      </trkpt>
      <trkpt lat="65.52428" lon="21.95808">
        <ele>36.939997</ele>
        <time>2020-09-26T08:53:18.267Z</time>
      </trkpt>
      <trkpt lat="65.52426" lon="21.95784">
        <ele>36.90732</ele>
        <time>2020-09-26T08:53:21.232Z</time>
      </trkpt>
      <trkpt lat="65.52425" lon="21.95753">
        <ele>36.865282</ele>
        <time>2020-09-26T08:53:24.283Z</time>
      </trkpt>
      <trkpt lat="65.52424" lon="21.95731">
        <ele>36.835206</ele>
        <time>2020-09-26T08:53:26.266Z</time>
      </trkpt>
      <trkpt lat="65.52422" lon="21.95701">
        <ele>36.795139</ele>
        <time>2020-09-26T08:53:29.236Z</time>
      </trkpt>
      <trkpt lat="65.52421" lon="21.95672">
        <ele>36.755647</ele>
        <time>2020-09-26T08:53:32.263Z</time>
      </trkpt>
      <trkpt lat="65.5242" lon="21.95644">
        <ele>36.718337</ele>
        <time>2020-09-26T08:53:35.235Z</time>
      </trkpt>
      <trkpt lat="65.52419" lon="21.95616">
        <ele>36.681789</ele>
        <time>2020-09-26T08:53:38.268Z</time>
      </trkpt>
      <trkpt lat="65.52418" lon="21.95588">
        <ele>36.643183</ele>
        <time>2020-09-26T08:53:41.279Z</time>
      </trkpt>
      <trkpt lat="65.52416" lon="21.9556">
        <ele>36.606199</ele>
        <time>2020-09-26T08:53:44.249Z</time>
      </trkpt>
      <trkpt lat="65.52414" lon="21.95538">
        <ele>36.57489</ele>
        <time>2020-09-26T08:53:47.249Z</time>
      </trkpt>
      <trkpt lat="65.52412" lon="21.95509">
        <ele>36.536455</ele>
        <time>2020-09-26T08:53:50.249Z</time>
      </trkpt>
      <trkpt lat="65.5241" lon="21.95479">
        <ele>36.495728</ele>
        <time>2020-09-26T08:53:53.268Z</time>
      </trkpt>
      <trkpt lat="65.52409" lon="21.95446">
        <ele>36.545466</ele>
        <time>2020-09-26T08:53:56.269Z</time>
      </trkpt>
      <trkpt lat="65.52408" lon="21.95419">
        <ele>36.97648</ele>
        <time>2020-09-26T08:53:58.245Z</time>
      </trkpt>
      <trkpt lat="65.52409" lon="21.95393">
        <ele>37.393273</ele>
        <time>2020-09-26T08:54:00.261Z</time>
      </trkpt>
      <trkpt lat="65.52408" lon="21.95368">
        <ele>37.79417</ele>
        <time>2020-09-26T08:54:02.241Z</time>
      </trkpt>
      <trkpt lat="65.52407" lon="21.95339">
        <ele>38.248693</ele>
        <time>2020-09-26T08:54:05.248Z</time>
      </trkpt>
      <trkpt lat="65.52407" lon="21.95308">
        <ele>38.74656</ele>
        <time>2020-09-26T08:54:08.246Z</time>
      </trkpt>
      <trkpt lat="65.52408" lon="21.95282">
        <ele>39.169082</ele>
        <time>2020-09-26T08:54:10.247Z</time>
      </trkpt>
      <trkpt lat="65.52409" lon="21.95257">
        <ele>39.558626</ele>
        <time>2020-09-26T08:54:12.242Z</time>
      </trkpt>
      <trkpt lat="65.5241" lon="21.95233">
        <ele>39.948254</ele>
        <time>2020-09-26T08:54:14.250Z</time>
      </trkpt>
      <trkpt lat="65.52411" lon="21.9521">
        <ele>40.318467</ele>
        <time>2020-09-26T08:54:16.263Z</time>
      </trkpt>
      <trkpt lat="65.52413" lon="21.95187">
        <ele>40.690288</ele>
        <time>2020-09-26T08:54:18.256Z</time>
      </trkpt>
      <trkpt lat="65.52415" lon="21.95163">
        <ele>41.076716</ele>
        <time>2020-09-26T08:54:20.265Z</time>
      </trkpt>
      <trkpt lat="65.52418" lon="21.9514">
        <ele>41.463143</ele>
        <time>2020-09-26T08:54:22.251Z</time>
      </trkpt>
      <trkpt lat="65.5242" lon="21.95114">
        <ele>41.880742</ele>
        <time>2020-09-26T08:54:24.240Z</time>
      </trkpt>
      <trkpt lat="65.52423" lon="21.95089">
        <ele>42.297239</ele>
        <time>2020-09-26T08:54:26.251Z</time>
      </trkpt>
      <trkpt lat="65.52427" lon="21.95065">
        <ele>42.701838</ele>
        <time>2020-09-26T08:54:28.267Z</time>
      </trkpt>
      <trkpt lat="65.52431" lon="21.95042">
        <ele>43.095668</ele>
        <time>2020-09-26T08:54:30.250Z</time>
      </trkpt>
      <trkpt lat="65.52435" lon="21.95019">
        <ele>43.33322</ele>
        <time>2020-09-26T08:54:32.304Z</time>
      </trkpt>
      <trkpt lat="65.52439" lon="21.94995">
        <ele>43.242014</ele>
        <time>2020-09-26T08:54:34.238Z</time>
      </trkpt>
      <trkpt lat="65.52444" lon="21.94974">
        <ele>43.155137</ele>
        <time>2020-09-26T08:54:36.249Z</time>
      </trkpt>
      <trkpt lat="65.52449" lon="21.94953">
        <ele>43.071553</ele>
        <time>2020-09-26T08:54:38.239Z</time>
      </trkpt>
      <trkpt lat="65.52454" lon="21.94933">
        <ele>42.986662</ele>
        <time>2020-09-26T08:54:40.260Z</time>
      </trkpt>
      <trkpt lat="65.52459" lon="21.94911">
        <ele>42.900097</ele>
        <time>2020-09-26T08:54:42.236Z</time>
      </trkpt>
      <trkpt lat="65.52463" lon="21.94891">
        <ele>42.819186</ele>
        <time>2020-09-26T08:54:44.245Z</time>
      </trkpt>
      <trkpt lat="65.52468" lon="21.9487">
        <ele>42.736132</ele>
        <time>2020-09-26T08:54:46.271Z</time>
      </trkpt>
      <trkpt lat="65.52473" lon="21.94849">
        <ele>42.650469</ele>
        <time>2020-09-26T08:54:48.259Z</time>
      </trkpt>
      <trkpt lat="65.52478" lon="21.94829">
        <ele>42.566323</ele>
        <time>2020-09-26T08:54:50.260Z</time>
      </trkpt>
      <trkpt lat="65.52484" lon="21.94808">
        <ele>42.480527</ele>
        <time>2020-09-26T08:54:52.252Z</time>
      </trkpt>
      <trkpt lat="65.52489" lon="21.94786">
        <ele>42.392111</ele>
        <time>2020-09-26T08:54:54.271Z</time>
      </trkpt>
      <trkpt lat="65.52494" lon="21.94767">
        <ele>42.307736</ele>
        <time>2020-09-26T08:54:56.279Z</time>
      </trkpt>
      <trkpt lat="65.525" lon="21.94749">
        <ele>42.230323</ele>
        <time>2020-09-26T08:54:58.264Z</time>
      </trkpt>
      <trkpt lat="65.52504" lon="21.94729">
        <ele>42.149477</ele>
        <time>2020-09-26T08:55:00.283Z</time>
      </trkpt>
      <trkpt lat="65.5251" lon="21.94709">
        <ele>42.064577</ele>
        <time>2020-09-26T08:55:02.278Z</time>
      </trkpt>
      <trkpt lat="65.52515" lon="21.94688">
        <ele>41.976837</ele>
        <time>2020-09-26T08:55:04.233Z</time>
      </trkpt>
      <trkpt lat="65.52521" lon="21.94667">
        <ele>41.891042</ele>
        <time>2020-09-26T08:55:06.257Z</time>
      </trkpt>
      <trkpt lat="65.52526" lon="21.94647">
        <ele>41.755914</ele>
        <time>2020-09-26T08:55:08.247Z</time>
      </trkpt>
      <trkpt lat="65.52531" lon="21.94628">
        <ele>41.501094</ele>
        <time>2020-09-26T08:55:10.257Z</time>
      </trkpt>
      <trkpt lat="65.52536" lon="21.94609">
        <ele>41.256321</ele>
        <time>2020-09-26T08:55:12.233Z</time>
      </trkpt>
      <trkpt lat="65.52542" lon="21.94582">
        <ele>40.902217</ele>
        <time>2020-09-26T08:55:15.250Z</time>
      </trkpt>
      <trkpt lat="65.52549" lon="21.94555">
        <ele>40.549233</ele>
        <time>2020-09-26T08:55:18.232Z</time>
      </trkpt>
      <trkpt lat="65.52556" lon="21.94528">
        <ele>40.183332</ele>
        <time>2020-09-26T08:55:21.251Z</time>
      </trkpt>
      <trkpt lat="65.52562" lon="21.945">
        <ele>39.822034</ele>
        <time>2020-09-26T08:55:24.281Z</time>
      </trkpt>
      <trkpt lat="65.52568" lon="21.94474">
        <ele>39.488039</ele>
        <time>2020-09-26T08:55:27.237Z</time>
      </trkpt>
      <trkpt lat="65.52575" lon="21.94448">
        <ele>39.150885</ele>
        <time>2020-09-26T08:55:30.264Z</time>
      </trkpt>
      <trkpt lat="65.5258" lon="21.94423">
        <ele>38.822153</ele>
        <time>2020-09-26T08:55:33.246Z</time>
      </trkpt>
      <trkpt lat="65.52586" lon="21.94397">
        <ele>38.491137</ele>
        <time>2020-09-26T08:55:36.263Z</time>
      </trkpt>
      <trkpt lat="65.52591" lon="21.94372">
        <ele>38.182141</ele>
        <time>2020-09-26T08:55:39.240Z</time>
      </trkpt>
      <trkpt lat="65.52597" lon="21.94348">
        <ele>37.862576</ele>
        <time>2020-09-26T08:55:42.258Z</time>
      </trkpt>
      <trkpt lat="65.52603" lon="21.94324">
        <ele>37.542171</ele>
        <time>2020-09-26T08:55:45.248Z</time>
      </trkpt>
      <trkpt lat="65.52609" lon="21.94299">
        <ele>37.220259</ele>
        <time>2020-09-26T08:55:48.244Z</time>
      </trkpt>
      <trkpt lat="65.52616" lon="21.94274">
        <ele>36.943543</ele>
        <time>2020-09-26T08:55:51.245Z</time>
      </trkpt>
      <trkpt lat="65.52622" lon="21.94248">
        <ele>37.013658</ele>
        <time>2020-09-26T08:55:54.247Z</time>
      </trkpt>
      <trkpt lat="65.52628" lon="21.94221">
        <ele>37.084633</ele>
        <time>2020-09-26T08:55:57.231Z</time>
      </trkpt>
      <trkpt lat="65.52635" lon="21.94194">
        <ele>37.158411</ele>
        <time>2020-09-26T08:56:00.234Z</time>
      </trkpt>
      <trkpt lat="65.52642" lon="21.94167">
        <ele>37.23217</ele>
        <time>2020-09-26T08:56:03.270Z</time>
      </trkpt>
      <trkpt lat="65.52647" lon="21.94148">
        <ele>37.282689</ele>
        <time>2020-09-26T08:56:05.276Z</time>
      </trkpt>
      <trkpt lat="65.52653" lon="21.94122">
        <ele>37.354875</ele>
        <time>2020-09-26T08:56:08.311Z</time>
      </trkpt>
      <trkpt lat="65.5266" lon="21.94095">
        <ele>37.426467</ele>
        <time>2020-09-26T08:56:11.244Z</time>
      </trkpt>
      <trkpt lat="65.52667" lon="21.94068">
        <ele>37.500011</ele>
        <time>2020-09-26T08:56:14.238Z</time>
      </trkpt>
      <trkpt lat="65.52671" lon="21.94049">
        <ele>37.55104</ele>
        <time>2020-09-26T08:56:16.265Z</time>
      </trkpt>
      <trkpt lat="65.52676" lon="21.9403">
        <ele>37.602642</ele>
        <time>2020-09-26T08:56:18.240Z</time>
      </trkpt>
      <trkpt lat="65.52681" lon="21.94011">
        <ele>37.653871</ele>
        <time>2020-09-26T08:56:20.238Z</time>
      </trkpt>
      <trkpt lat="65.52687" lon="21.93983">
        <ele>37.72701</ele>
        <time>2020-09-26T08:56:23.238Z</time>
      </trkpt>
      <trkpt lat="65.52694" lon="21.93957">
        <ele>37.79939</ele>
        <time>2020-09-26T08:56:26.241Z</time>
      </trkpt>
      <trkpt lat="65.527" lon="21.9393">
        <ele>37.870161</ele>
        <time>2020-09-26T08:56:29.237Z</time>
      </trkpt>
      <trkpt lat="65.52706" lon="21.93902">
        <ele>37.947215</ele>
        <time>2020-09-26T08:56:32.252Z</time>
      </trkpt>
      <trkpt lat="65.52712" lon="21.93875">
        <ele>38.16404</ele>
        <time>2020-09-26T08:56:35.297Z</time>
      </trkpt>
      <trkpt lat="65.52718" lon="21.93847">
        <ele>38.377514</ele>
        <time>2020-09-26T08:56:38.270Z</time>
      </trkpt>
      <trkpt lat="65.52725" lon="21.9382">
        <ele>38.59554</ele>
        <time>2020-09-26T08:56:41.244Z</time>
      </trkpt>
      <trkpt lat="65.52731" lon="21.93794">
        <ele>38.804276</ele>
        <time>2020-09-26T08:56:44.252Z</time>
      </trkpt>
      <trkpt lat="65.52738" lon="21.93768">
        <ele>39.013012</ele>
        <time>2020-09-26T08:56:47.259Z</time>
      </trkpt>
      <trkpt lat="65.52745" lon="21.93742">
        <ele>39.229516</ele>
        <time>2020-09-26T08:56:50.249Z</time>
      </trkpt>
      <trkpt lat="65.52751" lon="21.93716">
        <ele>39.433861</ele>
        <time>2020-09-26T08:56:53.240Z</time>
      </trkpt>
      <trkpt lat="65.52757" lon="21.93691">
        <ele>39.633177</ele>
        <time>2020-09-26T08:56:56.281Z</time>
      </trkpt>
      <trkpt lat="65.52763" lon="21.93666">
        <ele>39.832251</ele>
        <time>2020-09-26T08:56:59.244Z</time>
      </trkpt>
      <trkpt lat="65.52769" lon="21.93639">
        <ele>40.04716</ele>
        <time>2020-09-26T08:57:02.267Z</time>
      </trkpt>
      <trkpt lat="65.52776" lon="21.93613">
        <ele>40.25885</ele>
        <time>2020-09-26T08:57:05.242Z</time>
      </trkpt>
      <trkpt lat="65.52783" lon="21.93586">
        <ele>40.47167</ele>
        <time>2020-09-26T08:57:08.265Z</time>
      </trkpt>
      <trkpt lat="65.52788" lon="21.93561">
        <ele>40.671588</ele>
        <time>2020-09-26T08:57:11.238Z</time>
      </trkpt>
      <trkpt lat="65.52795" lon="21.93534">
        <ele>40.884588</ele>
        <time>2020-09-26T08:57:14.260Z</time>
      </trkpt>
      <trkpt lat="65.52801" lon="21.93509">
        <ele>40.929148</ele>
        <time>2020-09-26T08:57:17.242Z</time>
      </trkpt>
      <trkpt lat="65.52808" lon="21.93483">
        <ele>40.923383</ele>
        <time>2020-09-26T08:57:20.265Z</time>
      </trkpt>
      <trkpt lat="65.52814" lon="21.93458">
        <ele>40.917731</ele>
        <time>2020-09-26T08:57:23.244Z</time>
      </trkpt>
      <trkpt lat="65.5282" lon="21.93432">
        <ele>40.912032</ele>
        <time>2020-09-26T08:57:26.259Z</time>
      </trkpt>
      <trkpt lat="65.52826" lon="21.93407">
        <ele>40.906579</ele>
        <time>2020-09-26T08:57:29.264Z</time>
      </trkpt>
      <trkpt lat="65.52831" lon="21.93383">
        <ele>40.901403</ele>
        <time>2020-09-26T08:57:32.256Z</time>
      </trkpt>
      <trkpt lat="65.52836" lon="21.9336">
        <ele>40.896411</ele>
        <time>2020-09-26T08:57:35.233Z</time>
      </trkpt>
      <trkpt lat="65.52842" lon="21.93337">
        <ele>40.89135</ele>
        <time>2020-09-26T08:57:38.239Z</time>
      </trkpt>
      <trkpt lat="65.52847" lon="21.93314">
        <ele>40.886231</ele>
        <time>2020-09-26T08:57:41.296Z</time>
      </trkpt>
      <trkpt lat="65.52853" lon="21.93289">
        <ele>40.880893</ele>
        <time>2020-09-26T08:57:44.260Z</time>
      </trkpt>
      <trkpt lat="65.52858" lon="21.93266">
        <ele>40.875757</ele>
        <time>2020-09-26T08:57:47.261Z</time>
      </trkpt>
      <trkpt lat="65.52864" lon="21.93244">
        <ele>40.870786</ele>
        <time>2020-09-26T08:57:50.237Z</time>
      </trkpt>
      <trkpt lat="65.52869" lon="21.93221">
        <ele>40.865755</ele>
        <time>2020-09-26T08:57:53.232Z</time>
      </trkpt>
      <trkpt lat="65.52875" lon="21.93199">
        <ele>40.860857</ele>
        <time>2020-09-26T08:57:56.252Z</time>
      </trkpt>
      <trkpt lat="65.5288" lon="21.93176">
        <ele>40.85586</ele>
        <time>2020-09-26T08:57:59.259Z</time>
      </trkpt>
      <trkpt lat="65.52886" lon="21.93154">
        <ele>40.850889</ele>
        <time>2020-09-26T08:58:02.262Z</time>
      </trkpt>
      <trkpt lat="65.52891" lon="21.9313">
        <ele>40.980688</ele>
        <time>2020-09-26T08:58:05.286Z</time>
      </trkpt>
      <trkpt lat="65.52896" lon="21.93106">
        <ele>41.127706</ele>
        <time>2020-09-26T08:58:08.256Z</time>
      </trkpt>
      <trkpt lat="65.52901" lon="21.93082">
        <ele>41.269074</ele>
        <time>2020-09-26T08:58:11.281Z</time>
      </trkpt>
      <trkpt lat="65.52907" lon="21.9306">
        <ele>41.407335</ele>
        <time>2020-09-26T08:58:14.244Z</time>
      </trkpt>
      <trkpt lat="65.52912" lon="21.93037">
        <ele>41.549242</ele>
        <time>2020-09-26T08:58:17.234Z</time>
      </trkpt>
      <trkpt lat="65.52918" lon="21.93015">
        <ele>41.689615</ele>
        <time>2020-09-26T08:58:20.247Z</time>
      </trkpt>
      <trkpt lat="65.52924" lon="21.92993">
        <ele>41.827187</ele>
        <time>2020-09-26T08:58:23.233Z</time>
      </trkpt>
      <trkpt lat="65.52929" lon="21.92971">
        <ele>41.961457</ele>
        <time>2020-09-26T08:58:26.259Z</time>
      </trkpt>
      <trkpt lat="65.52934" lon="21.92949">
        <ele>42.095907</ele>
        <time>2020-09-26T08:58:29.240Z</time>
      </trkpt>
      <trkpt lat="65.52939" lon="21.92926">
        <ele>42.235139</ele>
        <time>2020-09-26T08:58:32.273Z</time>
      </trkpt>
      <trkpt lat="65.52945" lon="21.92902">
        <ele>42.381098</ele>
        <time>2020-09-26T08:58:35.247Z</time>
      </trkpt>
      <trkpt lat="65.52951" lon="21.92879">
        <ele>42.523574</ele>
        <time>2020-09-26T08:58:38.253Z</time>
      </trkpt>
      <trkpt lat="65.52956" lon="21.92856">
        <ele>42.666856</ele>
        <time>2020-09-26T08:58:41.250Z</time>
      </trkpt>
      <trkpt lat="65.52962" lon="21.92835">
        <ele>42.797875</ele>
        <time>2020-09-26T08:58:44.251Z</time>
      </trkpt>
      <trkpt lat="65.52967" lon="21.92813">
        <ele>42.932784</ele>
        <time>2020-09-26T08:58:47.237Z</time>
      </trkpt>
      <trkpt lat="65.52972" lon="21.92792">
        <ele>43.061758</ele>
        <time>2020-09-26T08:58:50.252Z</time>
      </trkpt>
      <trkpt lat="65.52977" lon="21.92769">
        <ele>43.22071</ele>
        <time>2020-09-26T08:58:53.248Z</time>
      </trkpt>
      <trkpt lat="65.52981" lon="21.92745">
        <ele>43.461316</ele>
        <time>2020-09-26T08:58:56.272Z</time>
      </trkpt>
      <trkpt lat="65.52985" lon="21.92725">
        <ele>43.661648</ele>
        <time>2020-09-26T08:58:59.249Z</time>
      </trkpt>
      <trkpt lat="65.52991" lon="21.92703">
        <ele>43.890396</ele>
        <time>2020-09-26T08:59:03.242Z</time>
      </trkpt>
      <trkpt lat="65.52995" lon="21.92683">
        <ele>44.099828</ele>
        <time>2020-09-26T08:59:06.245Z</time>
      </trkpt>
      <trkpt lat="65.53" lon="21.92662">
        <ele>44.315319</ele>
        <time>2020-09-26T08:59:09.249Z</time>
      </trkpt>
      <trkpt lat="65.53005" lon="21.92641">
        <ele>44.532252</ele>
        <time>2020-09-26T08:59:12.267Z</time>
      </trkpt>
      <trkpt lat="65.5301" lon="21.92622">
        <ele>44.735729</ele>
        <time>2020-09-26T08:59:15.246Z</time>
      </trkpt>
      <trkpt lat="65.53015" lon="21.926">
        <ele>44.964144</ele>
        <time>2020-09-26T08:59:18.268Z</time>
      </trkpt>
      <trkpt lat="65.5302" lon="21.92579">
        <ele>45.18253</ele>
        <time>2020-09-26T08:59:21.274Z</time>
      </trkpt>
      <trkpt lat="65.53026" lon="21.92557">
        <ele>45.42427</ele>
        <time>2020-09-26T08:59:24.283Z</time>
      </trkpt>
      <trkpt lat="65.53031" lon="21.92536">
        <ele>45.632994</ele>
        <time>2020-09-26T08:59:27.304Z</time>
      </trkpt>
      <trkpt lat="65.53035" lon="21.92515">
        <ele>45.846534</ele>
        <time>2020-09-26T08:59:30.241Z</time>
      </trkpt>
      <trkpt lat="65.53041" lon="21.92493">
        <ele>46.075634</ele>
        <time>2020-09-26T08:59:33.285Z</time>
      </trkpt>
      <trkpt lat="65.53046" lon="21.92472">
        <ele>46.291904</ele>
        <time>2020-09-26T08:59:36.260Z</time>
      </trkpt>
      <trkpt lat="65.53051" lon="21.92449">
        <ele>46.525253</ele>
        <time>2020-09-26T08:59:39.272Z</time>
      </trkpt>
      <trkpt lat="65.53057" lon="21.92427">
        <ele>46.769365</ele>
        <time>2020-09-26T08:59:42.238Z</time>
      </trkpt>
      <trkpt lat="65.53063" lon="21.92404">
        <ele>47.019634</ele>
        <time>2020-09-26T08:59:45.261Z</time>
      </trkpt>
      <trkpt lat="65.53069" lon="21.92383">
        <ele>46.99951</ele>
        <time>2020-09-26T08:59:48.250Z</time>
      </trkpt>
      <trkpt lat="65.53075" lon="21.92361">
        <ele>46.908431</ele>
        <time>2020-09-26T08:59:51.254Z</time>
      </trkpt>
      <trkpt lat="65.5308" lon="21.92341">
        <ele>46.822041</ele>
        <time>2020-09-26T08:59:54.240Z</time>
      </trkpt>
      <trkpt lat="65.53086" lon="21.92317">
        <ele>46.722312</ele>
        <time>2020-09-26T08:59:57.246Z</time>
      </trkpt>
      <trkpt lat="65.53091" lon="21.92292">
        <ele>46.620166</ele>
        <time>2020-09-26T09:00:00.272Z</time>
      </trkpt>
      <trkpt lat="65.53097" lon="21.92269">
        <ele>46.522866</ele>
        <time>2020-09-26T09:00:03.253Z</time>
      </trkpt>
      <trkpt lat="65.53103" lon="21.92245">
        <ele>46.421732</ele>
        <time>2020-09-26T09:00:06.276Z</time>
      </trkpt>
      <trkpt lat="65.53108" lon="21.92221">
        <ele>46.322849</ele>
        <time>2020-09-26T09:00:09.257Z</time>
      </trkpt>
      <trkpt lat="65.53113" lon="21.92197">
        <ele>46.22612</ele>
        <time>2020-09-26T09:00:12.243Z</time>
      </trkpt>
      <trkpt lat="65.53119" lon="21.92172">
        <ele>46.123943</ele>
        <time>2020-09-26T09:00:15.242Z</time>
      </trkpt>
      <trkpt lat="65.53125" lon="21.92145">
        <ele>46.01505</ele>
        <time>2020-09-26T09:00:18.247Z</time>
      </trkpt>
      <trkpt lat="65.5313" lon="21.92119">
        <ele>45.908035</ele>
        <time>2020-09-26T09:00:21.259Z</time>
      </trkpt>
      <trkpt lat="65.53136" lon="21.92093">
        <ele>45.80294</ele>
        <time>2020-09-26T09:00:24.252Z</time>
      </trkpt>
      <trkpt lat="65.53142" lon="21.92067">
        <ele>45.692302</ele>
        <time>2020-09-26T09:00:27.234Z</time>
      </trkpt>
      <trkpt lat="65.53149" lon="21.92039">
        <ele>45.578876</ele>
        <time>2020-09-26T09:00:30.282Z</time>
      </trkpt>
      <trkpt lat="65.53153" lon="21.92019">
        <ele>45.488704</ele>
        <time>2020-09-26T09:00:32.257Z</time>
      </trkpt>
      <trkpt lat="65.53159" lon="21.91999">
        <ele>45.31897</ele>
        <time>2020-09-26T09:00:34.232Z</time>
      </trkpt>
      <trkpt lat="65.53164" lon="21.91976">
        <ele>45.141802</ele>
        <time>2020-09-26T09:00:36.263Z</time>
      </trkpt>
      <trkpt lat="65.53169" lon="21.91953">
        <ele>44.953286</ele>
        <time>2020-09-26T09:00:38.234Z</time>
      </trkpt>
      <trkpt lat="65.53175" lon="21.9193">
        <ele>44.76477</ele>
        <time>2020-09-26T09:00:40.293Z</time>
      </trkpt>
      <trkpt lat="65.53181" lon="21.91907">
        <ele>44.576857</ele>
        <time>2020-09-26T09:00:42.250Z</time>
      </trkpt>
      <trkpt lat="65.53187" lon="21.91884">
        <ele>44.383311</ele>
        <time>2020-09-26T09:00:44.268Z</time>
      </trkpt>
      <trkpt lat="65.53193" lon="21.91859">
        <ele>44.18462</ele>
        <time>2020-09-26T09:00:46.239Z</time>
      </trkpt>
      <trkpt lat="65.53199" lon="21.91833">
        <ele>43.976565</ele>
        <time>2020-09-26T09:00:48.253Z</time>
      </trkpt>
      <trkpt lat="65.53205" lon="21.91807">
        <ele>43.761243</ele>
        <time>2020-09-26T09:00:50.246Z</time>
      </trkpt>
      <trkpt lat="65.53212" lon="21.9178">
        <ele>43.539867</ele>
        <time>2020-09-26T09:00:52.240Z</time>
      </trkpt>
      <trkpt lat="65.53218" lon="21.91752">
        <ele>43.314976</ele>
        <time>2020-09-26T09:00:54.264Z</time>
      </trkpt>
      <trkpt lat="65.53225" lon="21.91725">
        <ele>43.092235</ele>
        <time>2020-09-26T09:00:56.238Z</time>
      </trkpt>
      <trkpt lat="65.53232" lon="21.91698">
        <ele>42.87337</ele>
        <time>2020-09-26T09:00:58.244Z</time>
      </trkpt>
      <trkpt lat="65.53238" lon="21.9167">
        <ele>42.647874</ele>
        <time>2020-09-26T09:01:00.260Z</time>
      </trkpt>
      <trkpt lat="65.53245" lon="21.91642">
        <ele>42.365041</ele>
        <time>2020-09-26T09:01:02.237Z</time>
      </trkpt>
      <trkpt lat="65.53252" lon="21.91614">
        <ele>41.810645</ele>
        <time>2020-09-26T09:01:04.245Z</time>
      </trkpt>
      <trkpt lat="65.53258" lon="21.91585">
        <ele>41.250849</ele>
        <time>2020-09-26T09:01:06.285Z</time>
      </trkpt>
      <trkpt lat="65.53266" lon="21.91556">
        <ele>40.674272</ele>
        <time>2020-09-26T09:01:08.246Z</time>
      </trkpt>
      <trkpt lat="65.53273" lon="21.91526">
        <ele>40.088266</ele>
        <time>2020-09-26T09:01:10.292Z</time>
      </trkpt>
      <trkpt lat="65.5328" lon="21.91497">
        <ele>39.510228</ele>
        <time>2020-09-26T09:01:12.278Z</time>
      </trkpt>
      <trkpt lat="65.53287" lon="21.91469">
        <ele>38.951395</ele>
        <time>2020-09-26T09:01:14.276Z</time>
      </trkpt>
      <trkpt lat="65.53294" lon="21.91441">
        <ele>38.397891</ele>
        <time>2020-09-26T09:01:16.271Z</time>
      </trkpt>
      <trkpt lat="65.533" lon="21.91413">
        <ele>37.846063</ele>
        <time>2020-09-26T09:01:18.252Z</time>
      </trkpt>
      <trkpt lat="65.53307" lon="21.91385">
        <ele>37.306402</ele>
        <time>2020-09-26T09:01:20.247Z</time>
      </trkpt>
      <trkpt lat="65.53313" lon="21.91359">
        <ele>36.79036</ele>
        <time>2020-09-26T09:01:22.246Z</time>
      </trkpt>
      <trkpt lat="65.53319" lon="21.91333">
        <ele>36.287798</ele>
        <time>2020-09-26T09:01:24.250Z</time>
      </trkpt>
      <trkpt lat="65.53325" lon="21.91308">
        <ele>35.780809</ele>
        <time>2020-09-26T09:01:26.244Z</time>
      </trkpt>
      <trkpt lat="65.53332" lon="21.91282">
        <ele>35.262721</ele>
        <time>2020-09-26T09:01:28.279Z</time>
      </trkpt>
      <trkpt lat="65.53337" lon="21.91255">
        <ele>34.922268</ele>
        <time>2020-09-26T09:01:30.238Z</time>
      </trkpt>
      <trkpt lat="65.53344" lon="21.91229">
        <ele>34.694977</ele>
        <time>2020-09-26T09:01:32.299Z</time>
      </trkpt>
      <trkpt lat="65.5335" lon="21.91202">
        <ele>34.466145</ele>
        <time>2020-09-26T09:01:34.244Z</time>
      </trkpt>
      <trkpt lat="65.53356" lon="21.91175">
        <ele>34.229927</ele>
        <time>2020-09-26T09:01:36.251Z</time>
      </trkpt>
      <trkpt lat="65.53363" lon="21.91147">
        <ele>33.992307</ele>
        <time>2020-09-26T09:01:38.242Z</time>
      </trkpt>
      <trkpt lat="65.5337" lon="21.9112">
        <ele>33.760378</ele>
        <time>2020-09-26T09:01:40.244Z</time>
      </trkpt>
      <trkpt lat="65.53376" lon="21.91094">
        <ele>33.535427</ele>
        <time>2020-09-26T09:01:42.288Z</time>
      </trkpt>
      <trkpt lat="65.53382" lon="21.91069">
        <ele>33.319652</ele>
        <time>2020-09-26T09:01:44.283Z</time>
      </trkpt>
      <trkpt lat="65.53388" lon="21.91045">
        <ele>33.104895</ele>
        <time>2020-09-26T09:01:46.244Z</time>
      </trkpt>
      <trkpt lat="65.53394" lon="21.9102">
        <ele>32.890411</ele>
        <time>2020-09-26T09:01:48.250Z</time>
      </trkpt>
      <trkpt lat="65.534" lon="21.90995">
        <ele>32.669317</ele>
        <time>2020-09-26T09:01:50.248Z</time>
      </trkpt>
      <trkpt lat="65.53406" lon="21.9097">
        <ele>32.455738</ele>
        <time>2020-09-26T09:01:52.235Z</time>
      </trkpt>
      <trkpt lat="65.53412" lon="21.90946">
        <ele>32.246942</ele>
        <time>2020-09-26T09:01:54.257Z</time>
      </trkpt>
      <trkpt lat="65.53417" lon="21.90921">
        <ele>32.040147</ele>
        <time>2020-09-26T09:01:56.259Z</time>
      </trkpt>
      <trkpt lat="65.53423" lon="21.90897">
        <ele>31.840037</ele>
        <time>2020-09-26T09:01:58.269Z</time>
      </trkpt>
      <trkpt lat="65.53428" lon="21.90874">
        <ele>31.772682</ele>
        <time>2020-09-26T09:02:00.243Z</time>
      </trkpt>
      <trkpt lat="65.53433" lon="21.9085">
        <ele>31.729588</ele>
        <time>2020-09-26T09:02:02.258Z</time>
      </trkpt>
      <trkpt lat="65.53439" lon="21.90826">
        <ele>31.684991</ele>
        <time>2020-09-26T09:02:04.240Z</time>
      </trkpt>
      <trkpt lat="65.53444" lon="21.90803">
        <ele>31.640643</ele>
        <time>2020-09-26T09:02:06.250Z</time>
      </trkpt>
      <trkpt lat="65.5345" lon="21.90779">
        <ele>31.596414</ele>
        <time>2020-09-26T09:02:08.241Z</time>
      </trkpt>
      <trkpt lat="65.53456" lon="21.90755">
        <ele>31.551572</ele>
        <time>2020-09-26T09:02:10.250Z</time>
      </trkpt>
      <trkpt lat="65.53462" lon="21.90732">
        <ele>31.5088</ele>
        <time>2020-09-26T09:02:12.237Z</time>
      </trkpt>
      <trkpt lat="65.53467" lon="21.90709">
        <ele>31.465795</ele>
        <time>2020-09-26T09:02:14.269Z</time>
      </trkpt>
      <trkpt lat="65.53473" lon="21.90687">
        <ele>31.422879</ele>
        <time>2020-09-26T09:02:16.274Z</time>
      </trkpt>
      <trkpt lat="65.53479" lon="21.90664">
        <ele>31.380788</ele>
        <time>2020-09-26T09:02:18.242Z</time>
      </trkpt>
      <trkpt lat="65.53485" lon="21.90642">
        <ele>31.338082</ele>
        <time>2020-09-26T09:02:20.248Z</time>
      </trkpt>
      <trkpt lat="65.53491" lon="21.90619">
        <ele>31.294548</ele>
        <time>2020-09-26T09:02:22.242Z</time>
      </trkpt>
      <trkpt lat="65.53496" lon="21.90594">
        <ele>31.249389</ele>
        <time>2020-09-26T09:02:24.277Z</time>
      </trkpt>
      <trkpt lat="65.53502" lon="21.9057">
        <ele>31.204462</ele>
        <time>2020-09-26T09:02:26.260Z</time>
      </trkpt>
      <trkpt lat="65.53507" lon="21.90545">
        <ele>31.159772</ele>
        <time>2020-09-26T09:02:28.246Z</time>
      </trkpt>
      <trkpt lat="65.53513" lon="21.9052">
        <ele>31.114413</ele>
        <time>2020-09-26T09:02:30.263Z</time>
      </trkpt>
      <trkpt lat="65.53518" lon="21.90496">
        <ele>31.074385</ele>
        <time>2020-09-26T09:02:32.269Z</time>
      </trkpt>
      <trkpt lat="65.53524" lon="21.90473">
        <ele>31.034736</ele>
        <time>2020-09-26T09:02:34.280Z</time>
      </trkpt>
      <trkpt lat="65.5353" lon="21.90449">
        <ele>30.995474</ele>
        <time>2020-09-26T09:02:36.247Z</time>
      </trkpt>
      <trkpt lat="65.53536" lon="21.90425">
        <ele>30.954001</ele>
        <time>2020-09-26T09:02:38.244Z</time>
      </trkpt>
      <trkpt lat="65.53542" lon="21.904">
        <ele>30.912505</ele>
        <time>2020-09-26T09:02:40.235Z</time>
      </trkpt>
      <trkpt lat="65.53547" lon="21.90375">
        <ele>30.872226</ele>
        <time>2020-09-26T09:02:42.251Z</time>
      </trkpt>
      <trkpt lat="65.53553" lon="21.90352">
        <ele>30.832774</ele>
        <time>2020-09-26T09:02:44.270Z</time>
      </trkpt>
      <trkpt lat="65.53559" lon="21.90329">
        <ele>30.794187</ele>
        <time>2020-09-26T09:02:46.248Z</time>
      </trkpt>
      <trkpt lat="65.53564" lon="21.90307">
        <ele>30.758249</ele>
        <time>2020-09-26T09:02:48.262Z</time>
      </trkpt>
      <trkpt lat="65.53569" lon="21.90286">
        <ele>30.723638</ele>
        <time>2020-09-26T09:02:50.259Z</time>
      </trkpt>
      <trkpt lat="65.53574" lon="21.90265">
        <ele>30.687803</ele>
        <time>2020-09-26T09:02:52.264Z</time>
      </trkpt>
      <trkpt lat="65.5358" lon="21.90244">
        <ele>30.652092</ele>
        <time>2020-09-26T09:02:54.243Z</time>
      </trkpt>
      <trkpt lat="65.53585" lon="21.90222">
        <ele>30.616533</ele>
        <time>2020-09-26T09:02:56.248Z</time>
      </trkpt>
      <trkpt lat="65.5359" lon="21.902">
        <ele>30.579796</ele>
        <time>2020-09-26T09:02:58.255Z</time>
      </trkpt>
      <trkpt lat="65.53594" lon="21.90177">
        <ele>30.542551</ele>
        <time>2020-09-26T09:03:00.289Z</time>
      </trkpt>
      <trkpt lat="65.536" lon="21.90153">
        <ele>30.504255</ele>
        <time>2020-09-26T09:03:02.243Z</time>
      </trkpt>
      <trkpt lat="65.53605" lon="21.90132">
        <ele>30.475004</ele>
        <time>2020-09-26T09:03:04.267Z</time>
      </trkpt>
      <trkpt lat="65.5361" lon="21.90111">
        <ele>30.455525</ele>
        <time>2020-09-26T09:03:06.250Z</time>
      </trkpt>
      <trkpt lat="65.53615" lon="21.90091">
        <ele>30.436667</ele>
        <time>2020-09-26T09:03:08.263Z</time>
      </trkpt>
      <trkpt lat="65.5362" lon="21.90071">
        <ele>30.417466</ele>
        <time>2020-09-26T09:03:10.267Z</time>
      </trkpt>
      <trkpt lat="65.53625" lon="21.9005">
        <ele>30.39782</ele>
        <time>2020-09-26T09:03:12.240Z</time>
      </trkpt>
      <trkpt lat="65.53631" lon="21.90031">
        <ele>30.379198</ele>
        <time>2020-09-26T09:03:14.252Z</time>
      </trkpt>
      <trkpt lat="65.53636" lon="21.90012">
        <ele>30.360886</ele>
        <time>2020-09-26T09:03:16.256Z</time>
      </trkpt>
      <trkpt lat="65.53641" lon="21.89992">
        <ele>30.34223</ele>
        <time>2020-09-26T09:03:18.237Z</time>
      </trkpt>
      <trkpt lat="65.53645" lon="21.89972">
        <ele>30.32377</ele>
        <time>2020-09-26T09:03:20.248Z</time>
      </trkpt>
      <trkpt lat="65.5365" lon="21.89952">
        <ele>30.305449</ele>
        <time>2020-09-26T09:03:22.264Z</time>
      </trkpt>
      <trkpt lat="65.53655" lon="21.89933">
        <ele>30.287882</ele>
        <time>2020-09-26T09:03:24.267Z</time>
      </trkpt>
      <trkpt lat="65.53659" lon="21.89914">
        <ele>30.270151</ele>
        <time>2020-09-26T09:03:26.262Z</time>
      </trkpt>
      <trkpt lat="65.53663" lon="21.89894">
        <ele>30.252207</ele>
        <time>2020-09-26T09:03:28.261Z</time>
      </trkpt>
      <trkpt lat="65.53668" lon="21.89875">
        <ele>30.234313</ele>
        <time>2020-09-26T09:03:30.251Z</time>
      </trkpt>
      <trkpt lat="65.53672" lon="21.89855">
        <ele>30.216511</ele>
        <time>2020-09-26T09:03:32.260Z</time>
      </trkpt>
      <trkpt lat="65.53676" lon="21.89835">
        <ele>30.198638</ele>
        <time>2020-09-26T09:03:34.252Z</time>
      </trkpt>
      <trkpt lat="65.53681" lon="21.89817">
        <ele>30.180461</ele>
        <time>2020-09-26T09:03:36.260Z</time>
      </trkpt>
      <trkpt lat="65.53686" lon="21.89798">
        <ele>30.162801</ele>
        <time>2020-09-26T09:03:38.253Z</time>
      </trkpt>
      <trkpt lat="65.53693" lon="21.89771">
        <ele>30.137612</ele>
        <time>2020-09-26T09:03:41.268Z</time>
      </trkpt>
      <trkpt lat="65.53699" lon="21.89744">
        <ele>30.268601</ele>
        <time>2020-09-26T09:03:44.306Z</time>
      </trkpt>
      <trkpt lat="65.53705" lon="21.89717">
        <ele>30.427684</ele>
        <time>2020-09-26T09:03:47.268Z</time>
      </trkpt>
      <trkpt lat="65.53711" lon="21.8969">
        <ele>30.585735</ele>
        <time>2020-09-26T09:03:50.247Z</time>
      </trkpt>
      <trkpt lat="65.53716" lon="21.89662">
        <ele>30.744432</ele>
        <time>2020-09-26T09:03:53.289Z</time>
      </trkpt>
      <trkpt lat="65.53723" lon="21.89635">
        <ele>30.906665</ele>
        <time>2020-09-26T09:03:56.250Z</time>
      </trkpt>
      <trkpt lat="65.53729" lon="21.89609">
        <ele>31.060262</ele>
        <time>2020-09-26T09:03:59.239Z</time>
      </trkpt>
      <trkpt lat="65.53737" lon="21.89585">
        <ele>31.22073</ele>
        <time>2020-09-26T09:04:02.268Z</time>
      </trkpt>
      <trkpt lat="65.53744" lon="21.89557">
        <ele>31.387168</ele>
        <time>2020-09-26T09:04:05.237Z</time>
      </trkpt>
      <trkpt lat="65.5375" lon="21.8953">
        <ele>31.548692</ele>
        <time>2020-09-26T09:04:08.263Z</time>
      </trkpt>
      <trkpt lat="65.53756" lon="21.89502">
        <ele>31.711677</ele>
        <time>2020-09-26T09:04:11.263Z</time>
      </trkpt>
      <trkpt lat="65.53763" lon="21.89474">
        <ele>31.874338</ele>
        <time>2020-09-26T09:04:14.295Z</time>
      </trkpt>
      <trkpt lat="65.53769" lon="21.89446">
        <ele>32.041225</ele>
        <time>2020-09-26T09:04:17.266Z</time>
      </trkpt>
      <trkpt lat="65.53776" lon="21.89419">
        <ele>32.204528</ele>
        <time>2020-09-26T09:04:20.258Z</time>
      </trkpt>
      <trkpt lat="65.53783" lon="21.89392">
        <ele>32.367113</ele>
        <time>2020-09-26T09:04:23.261Z</time>
      </trkpt>
      <trkpt lat="65.53787" lon="21.89374">
        <ele>32.283567</ele>
        <time>2020-09-26T09:04:25.246Z</time>
      </trkpt>
      <trkpt lat="65.53795" lon="21.89347">
        <ele>32.128791</ele>
        <time>2020-09-26T09:04:28.243Z</time>
      </trkpt>
      <trkpt lat="65.53803" lon="21.8932">
        <ele>31.976748</ele>
        <time>2020-09-26T09:04:31.238Z</time>
      </trkpt>
      <trkpt lat="65.53808" lon="21.89303">
        <ele>31.872458</ele>
        <time>2020-09-26T09:04:33.258Z</time>
      </trkpt>
      <trkpt lat="65.53814" lon="21.89284">
        <ele>31.762457</ele>
        <time>2020-09-26T09:04:35.252Z</time>
      </trkpt>
      <trkpt lat="65.53819" lon="21.89266">
        <ele>31.653148</ele>
        <time>2020-09-26T09:04:37.253Z</time>
      </trkpt>
      <trkpt lat="65.53825" lon="21.89247">
        <ele>31.54414</ele>
        <time>2020-09-26T09:04:39.254Z</time>
      </trkpt>
      <trkpt lat="65.5383" lon="21.89229">
        <ele>31.437635</ele>
        <time>2020-09-26T09:04:41.251Z</time>
      </trkpt>
      <trkpt lat="65.53836" lon="21.89211">
        <ele>31.333055</ele>
        <time>2020-09-26T09:04:43.252Z</time>
      </trkpt>
      <trkpt lat="65.53841" lon="21.89194">
        <ele>31.22785</ele>
        <time>2020-09-26T09:04:45.249Z</time>
      </trkpt>
      <trkpt lat="65.53847" lon="21.89176">
        <ele>31.12189</ele>
        <time>2020-09-26T09:04:47.264Z</time>
      </trkpt>
      <trkpt lat="65.53853" lon="21.89158">
        <ele>31.012712</ele>
        <time>2020-09-26T09:04:49.280Z</time>
      </trkpt>
      <trkpt lat="65.53859" lon="21.89141">
        <ele>30.904969</ele>
        <time>2020-09-26T09:04:51.263Z</time>
      </trkpt>
      <trkpt lat="65.53865" lon="21.89123">
        <ele>30.797991</ele>
        <time>2020-09-26T09:04:53.263Z</time>
      </trkpt>
      <trkpt lat="65.53871" lon="21.89106">
        <ele>30.688074</ele>
        <time>2020-09-26T09:04:55.242Z</time>
      </trkpt>
      <trkpt lat="65.53877" lon="21.89088">
        <ele>30.578128</ele>
        <time>2020-09-26T09:04:57.268Z</time>
      </trkpt>
      <trkpt lat="65.53884" lon="21.89071">
        <ele>30.467279</ele>
        <time>2020-09-26T09:04:59.249Z</time>
      </trkpt>
      <trkpt lat="65.5389" lon="21.89055">
        <ele>30.360997</ele>
        <time>2020-09-26T09:05:01.252Z</time>
      </trkpt>
      <trkpt lat="65.53897" lon="21.8904">
        <ele>30.324545</ele>
        <time>2020-09-26T09:05:03.237Z</time>
      </trkpt>
      <trkpt lat="65.53904" lon="21.89023">
        <ele>30.349072</ele>
        <time>2020-09-26T09:05:05.270Z</time>
      </trkpt>
      <trkpt lat="65.53911" lon="21.89008">
        <ele>30.372562</ele>
        <time>2020-09-26T09:05:07.250Z</time>
      </trkpt>
      <trkpt lat="65.5392" lon="21.88985">
        <ele>30.406952</ele>
        <time>2020-09-26T09:05:10.236Z</time>
      </trkpt>
      <trkpt lat="65.5393" lon="21.88963">
        <ele>30.441342</ele>
        <time>2020-09-26T09:05:13.244Z</time>
      </trkpt>
      <trkpt lat="65.53939" lon="21.88942">
        <ele>30.474579</ele>
        <time>2020-09-26T09:05:16.251Z</time>
      </trkpt>
      <trkpt lat="65.53948" lon="21.88922">
        <ele>30.50594</ele>
        <time>2020-09-26T09:05:19.323Z</time>
      </trkpt>
      <trkpt lat="65.53957" lon="21.88901">
        <ele>30.537224</ele>
        <time>2020-09-26T09:05:22.283Z</time>
      </trkpt>
      <trkpt lat="65.53966" lon="21.88882">
        <ele>30.568462</ele>
        <time>2020-09-26T09:05:25.261Z</time>
      </trkpt>
      <trkpt lat="65.53975" lon="21.8886">
        <ele>30.599837</ele>
        <time>2020-09-26T09:05:28.283Z</time>
      </trkpt>
      <trkpt lat="65.53983" lon="21.88839">
        <ele>30.631875</ele>
        <time>2020-09-26T09:05:31.264Z</time>
      </trkpt>
      <trkpt lat="65.53992" lon="21.88818">
        <ele>30.663756</ele>
        <time>2020-09-26T09:05:34.253Z</time>
      </trkpt>
      <trkpt lat="65.54001" lon="21.88797">
        <ele>30.695641</ele>
        <time>2020-09-26T09:05:37.230Z</time>
      </trkpt>
      <trkpt lat="65.54009" lon="21.88779">
        <ele>30.723311</ele>
        <time>2020-09-26T09:05:40.231Z</time>
      </trkpt>
      <trkpt lat="65.54017" lon="21.88763">
        <ele>30.749716</ele>
        <time>2020-09-26T09:05:43.232Z</time>
      </trkpt>
      <trkpt lat="65.54025" lon="21.88747">
        <ele>30.789635</ele>
        <time>2020-09-26T09:05:46.222Z</time>
      </trkpt>
      <trkpt lat="65.54033" lon="21.8873">
        <ele>30.90604</ele>
        <time>2020-09-26T09:05:49.229Z</time>
      </trkpt>
      <trkpt lat="65.54041" lon="21.88714">
        <ele>31.019975</ele>
        <time>2020-09-26T09:05:52.230Z</time>
      </trkpt>
      <trkpt lat="65.54048" lon="21.88698">
        <ele>31.128191</ele>
        <time>2020-09-26T09:05:55.261Z</time>
      </trkpt>
      <trkpt lat="65.54055" lon="21.88683">
        <ele>31.231972</ele>
        <time>2020-09-26T09:05:58.234Z</time>
      </trkpt>
      <trkpt lat="65.54061" lon="21.88667">
        <ele>31.336231</ele>
        <time>2020-09-26T09:06:01.260Z</time>
      </trkpt>
      <trkpt lat="65.54068" lon="21.88652">
        <ele>31.436326</ele>
        <time>2020-09-26T09:06:04.267Z</time>
      </trkpt>
      <trkpt lat="65.54076" lon="21.88633">
        <ele>31.55824</ele>
        <time>2020-09-26T09:06:08.234Z</time>
      </trkpt>
      <trkpt lat="65.54084" lon="21.88614">
        <ele>31.688761</ele>
        <time>2020-09-26T09:06:12.240Z</time>
      </trkpt>
      <trkpt lat="65.54093" lon="21.88595">
        <ele>31.819957</ele>
        <time>2020-09-26T09:06:16.254Z</time>
      </trkpt>
      <trkpt lat="65.541" lon="21.8858">
        <ele>31.925173</ele>
        <time>2020-09-26T09:06:19.262Z</time>
      </trkpt>
      <trkpt lat="65.54107" lon="21.88564">
        <ele>32.030518</ele>
        <time>2020-09-26T09:06:22.248Z</time>
      </trkpt>
      <trkpt lat="65.54114" lon="21.88547">
        <ele>32.133817</ele>
        <time>2020-09-26T09:06:25.247Z</time>
      </trkpt>
      <trkpt lat="65.5412" lon="21.88531">
        <ele>32.237098</ele>
        <time>2020-09-26T09:06:28.241Z</time>
      </trkpt>
      <trkpt lat="65.54128" lon="21.88516">
        <ele>32.346833</ele>
        <time>2020-09-26T09:06:31.260Z</time>
      </trkpt>
      <trkpt lat="65.54135" lon="21.88498">
        <ele>32.457024</ele>
        <time>2020-09-26T09:06:34.247Z</time>
      </trkpt>
      <trkpt lat="65.54142" lon="21.88481">
        <ele>32.568741</ele>
        <time>2020-09-26T09:06:37.253Z</time>
      </trkpt>
      <trkpt lat="65.54149" lon="21.88467">
        <ele>32.674918</ele>
        <time>2020-09-26T09:06:40.254Z</time>
      </trkpt>
      <trkpt lat="65.54157" lon="21.88451">
        <ele>32.739158</ele>
        <time>2020-09-26T09:06:43.244Z</time>
      </trkpt>
      <trkpt lat="65.54166" lon="21.88433">
        <ele>32.602119</ele>
        <time>2020-09-26T09:06:46.245Z</time>
      </trkpt>
      <trkpt lat="65.54175" lon="21.88415">
        <ele>32.456324</ele>
        <time>2020-09-26T09:06:49.279Z</time>
      </trkpt>
      <trkpt lat="65.54184" lon="21.88395">
        <ele>32.307151</ele>
        <time>2020-09-26T09:06:52.257Z</time>
      </trkpt>
      <trkpt lat="65.54194" lon="21.88373">
        <ele>32.143885</ele>
        <time>2020-09-26T09:06:55.276Z</time>
      </trkpt>
      <trkpt lat="65.54201" lon="21.88357">
        <ele>32.026247</ele>
        <time>2020-09-26T09:06:57.267Z</time>
      </trkpt>
      <trkpt lat="65.54209" lon="21.88341">
        <ele>31.90522</ele>
        <time>2020-09-26T09:06:59.268Z</time>
      </trkpt>
      <trkpt lat="65.54216" lon="21.88324">
        <ele>31.777887</ele>
        <time>2020-09-26T09:07:01.238Z</time>
      </trkpt>
      <trkpt lat="65.54224" lon="21.88306">
        <ele>31.652548</ele>
        <time>2020-09-26T09:07:03.270Z</time>
      </trkpt>
      <trkpt lat="65.54231" lon="21.8829">
        <ele>31.530506</ele>
        <time>2020-09-26T09:07:05.251Z</time>
      </trkpt>
      <trkpt lat="65.54238" lon="21.88274">
        <ele>31.411615</ele>
        <time>2020-09-26T09:07:07.268Z</time>
      </trkpt>
      <trkpt lat="65.54245" lon="21.88259">
        <ele>31.301674</ele>
        <time>2020-09-26T09:07:09.258Z</time>
      </trkpt>
      <trkpt lat="65.54255" lon="21.88237">
        <ele>31.13741</ele>
        <time>2020-09-26T09:07:12.261Z</time>
      </trkpt>
      <trkpt lat="65.54261" lon="21.88221">
        <ele>31.025546</ele>
        <time>2020-09-26T09:07:14.263Z</time>
      </trkpt>
      <trkpt lat="65.54271" lon="21.882">
        <ele>30.865436</ele>
        <time>2020-09-26T09:07:17.261Z</time>
      </trkpt>
      <trkpt lat="65.54281" lon="21.8818">
        <ele>30.712304</ele>
        <time>2020-09-26T09:07:20.277Z</time>
      </trkpt>
      <trkpt lat="65.5429" lon="21.88159">
        <ele>30.584058</ele>
        <time>2020-09-26T09:07:23.257Z</time>
      </trkpt>
      <trkpt lat="65.54298" lon="21.88139">
        <ele>30.615495</ele>
        <time>2020-09-26T09:07:26.241Z</time>
      </trkpt>
      <trkpt lat="65.54307" lon="21.88119">
        <ele>30.646786</ele>
        <time>2020-09-26T09:07:29.250Z</time>
      </trkpt>
      <trkpt lat="65.54316" lon="21.88098">
        <ele>30.677966</ele>
        <time>2020-09-26T09:07:32.254Z</time>
      </trkpt>
      <trkpt lat="65.54324" lon="21.88077">
        <ele>30.708529</ele>
        <time>2020-09-26T09:07:35.253Z</time>
      </trkpt>
      <trkpt lat="65.54333" lon="21.88056">
        <ele>30.740705</ele>
        <time>2020-09-26T09:07:38.238Z</time>
      </trkpt>
      <trkpt lat="65.54342" lon="21.88033">
        <ele>30.774003</ele>
        <time>2020-09-26T09:07:41.241Z</time>
      </trkpt>
      <trkpt lat="65.54351" lon="21.8801">
        <ele>30.806955</ele>
        <time>2020-09-26T09:07:44.262Z</time>
      </trkpt>
      <trkpt lat="65.54359" lon="21.87988">
        <ele>30.838775</ele>
        <time>2020-09-26T09:07:47.264Z</time>
      </trkpt>
      <trkpt lat="65.54367" lon="21.87966">
        <ele>30.870736</ele>
        <time>2020-09-26T09:07:50.287Z</time>
      </trkpt>
      <trkpt lat="65.54373" lon="21.8795">
        <ele>30.893959</ele>
        <time>2020-09-26T09:07:52.253Z</time>
      </trkpt>
      <trkpt lat="65.54382" lon="21.87926">
        <ele>30.928074</ele>
        <time>2020-09-26T09:07:55.278Z</time>
      </trkpt>
      <trkpt lat="65.54388" lon="21.87909">
        <ele>30.951335</ele>
        <time>2020-09-26T09:07:57.242Z</time>
      </trkpt>
      <trkpt lat="65.54396" lon="21.87884">
        <ele>30.985088</ele>
        <time>2020-09-26T09:08:00.242Z</time>
      </trkpt>
      <trkpt lat="65.54402" lon="21.87868">
        <ele>31.008427</ele>
        <time>2020-09-26T09:08:02.249Z</time>
      </trkpt>
      <trkpt lat="65.54408" lon="21.8785">
        <ele>31.032178</ele>
        <time>2020-09-26T09:08:04.255Z</time>
      </trkpt>
      <trkpt lat="65.54414" lon="21.87833">
        <ele>31.113612</ele>
        <time>2020-09-26T09:08:06.269Z</time>
      </trkpt>
      <trkpt lat="65.5442" lon="21.87815">
        <ele>31.233256</ele>
        <time>2020-09-26T09:08:08.269Z</time>
      </trkpt>
      <trkpt lat="65.54425" lon="21.87796">
        <ele>31.354926</ele>
        <time>2020-09-26T09:08:10.251Z</time>
      </trkpt>
      <trkpt lat="65.5443" lon="21.87778">
        <ele>31.477633</ele>
        <time>2020-09-26T09:08:12.249Z</time>
      </trkpt>
      <trkpt lat="65.54437" lon="21.87752">
        <ele>31.645179</ele>
        <time>2020-09-26T09:08:15.242Z</time>
      </trkpt>
      <trkpt lat="65.54444" lon="21.87725">
        <ele>31.814298</ele>
        <time>2020-09-26T09:08:18.260Z</time>
      </trkpt>
      <trkpt lat="65.5445" lon="21.87696">
        <ele>31.988238</ele>
        <time>2020-09-26T09:08:21.244Z</time>
      </trkpt>
      <trkpt lat="65.54455" lon="21.87676">
        <ele>32.11117</ele>
        <time>2020-09-26T09:08:23.269Z</time>
      </trkpt>
      <trkpt lat="65.5446" lon="21.87657">
        <ele>32.232408</ele>
        <time>2020-09-26T09:08:25.257Z</time>
      </trkpt>
      <trkpt lat="65.54464" lon="21.87638">
        <ele>32.349952</ele>
        <time>2020-09-26T09:08:27.246Z</time>
      </trkpt>
      <trkpt lat="65.54471" lon="21.8761">
        <ele>32.523073</ele>
        <time>2020-09-26T09:08:30.260Z</time>
      </trkpt>
      <trkpt lat="65.54475" lon="21.87591">
        <ele>32.640047</ele>
        <time>2020-09-26T09:08:32.253Z</time>
      </trkpt>
      <trkpt lat="65.54481" lon="21.87561">
        <ele>32.814146</ele>
        <time>2020-09-26T09:08:35.254Z</time>
      </trkpt>
      <trkpt lat="65.54485" lon="21.87542">
        <ele>32.930868</ele>
        <time>2020-09-26T09:08:37.236Z</time>
      </trkpt>
      <trkpt lat="65.5449" lon="21.87514">
        <ele>33.097072</ele>
        <time>2020-09-26T09:08:40.264Z</time>
      </trkpt>
      <trkpt lat="65.54496" lon="21.87486">
        <ele>33.260942</ele>
        <time>2020-09-26T09:08:43.259Z</time>
      </trkpt>
      <trkpt lat="65.545" lon="21.87458">
        <ele>33.361334</ele>
        <time>2020-09-26T09:08:46.275Z</time>
      </trkpt>
      <trkpt lat="65.54505" lon="21.87431">
        <ele>33.310107</ele>
        <time>2020-09-26T09:08:49.250Z</time>
      </trkpt>
      <trkpt lat="65.5451" lon="21.87403">
        <ele>33.258255</ele>
        <time>2020-09-26T09:08:52.249Z</time>
      </trkpt>
      <trkpt lat="65.54514" lon="21.87376">
        <ele>33.207677</ele>
        <time>2020-09-26T09:08:55.273Z</time>
      </trkpt>
      <trkpt lat="65.54518" lon="21.8735">
        <ele>33.159797</ele>
        <time>2020-09-26T09:08:58.257Z</time>
      </trkpt>
      <trkpt lat="65.54522" lon="21.87323">
        <ele>33.110819</ele>
        <time>2020-09-26T09:09:01.239Z</time>
      </trkpt>
      <trkpt lat="65.54525" lon="21.87296">
        <ele>33.061892</ele>
        <time>2020-09-26T09:09:04.248Z</time>
      </trkpt>
      <trkpt lat="65.54528" lon="21.87268">
        <ele>33.012133</ele>
        <time>2020-09-26T09:09:07.273Z</time>
      </trkpt>
      <trkpt lat="65.54532" lon="21.87242">
        <ele>32.964944</ele>
        <time>2020-09-26T09:09:10.285Z</time>
      </trkpt>
      <trkpt lat="65.54535" lon="21.87214">
        <ele>32.914519</ele>
        <time>2020-09-26T09:09:13.257Z</time>
      </trkpt>
      <trkpt lat="65.54538" lon="21.87187">
        <ele>32.864375</ele>
        <time>2020-09-26T09:09:16.251Z</time>
      </trkpt>
      <trkpt lat="65.54542" lon="21.87157">
        <ele>32.811722</ele>
        <time>2020-09-26T09:09:19.251Z</time>
      </trkpt>
      <trkpt lat="65.54545" lon="21.87128">
        <ele>32.757954</ele>
        <time>2020-09-26T09:09:22.243Z</time>
      </trkpt>
      <trkpt lat="65.54548" lon="21.87107">
        <ele>32.719989</ele>
        <time>2020-09-26T09:09:24.249Z</time>
      </trkpt>
      <trkpt lat="65.54551" lon="21.87086">
        <ele>32.681512</ele>
        <time>2020-09-26T09:09:26.248Z</time>
      </trkpt>
      <trkpt lat="65.54555" lon="21.87054">
        <ele>32.623758</ele>
        <time>2020-09-26T09:09:29.262Z</time>
      </trkpt>
      <trkpt lat="65.54557" lon="21.87032">
        <ele>32.577106</ele>
        <time>2020-09-26T09:09:31.256Z</time>
      </trkpt>
      <trkpt lat="65.5456" lon="21.8701">
        <ele>32.529924</ele>
        <time>2020-09-26T09:09:33.246Z</time>
      </trkpt>
      <trkpt lat="65.54563" lon="21.86987">
        <ele>32.478952</ele>
        <time>2020-09-26T09:09:35.249Z</time>
      </trkpt>
      <trkpt lat="65.54565" lon="21.86964">
        <ele>32.428961</ele>
        <time>2020-09-26T09:09:37.252Z</time>
      </trkpt>
      <trkpt lat="65.54569" lon="21.86938">
        <ele>32.373517</ele>
        <time>2020-09-26T09:09:39.284Z</time>
      </trkpt>
      <trkpt lat="65.54572" lon="21.86913">
        <ele>32.319306</ele>
        <time>2020-09-26T09:09:41.249Z</time>
      </trkpt>
      <trkpt lat="65.54575" lon="21.86887">
        <ele>32.262867</ele>
        <time>2020-09-26T09:09:43.261Z</time>
      </trkpt>
      <trkpt lat="65.54578" lon="21.86861">
        <ele>32.20623</ele>
        <time>2020-09-26T09:09:45.264Z</time>
      </trkpt>
      <trkpt lat="65.54582" lon="21.86835">
        <ele>32.148143</ele>
        <time>2020-09-26T09:09:47.274Z</time>
      </trkpt>
      <trkpt lat="65.54585" lon="21.86809">
        <ele>32.091651</ele>
        <time>2020-09-26T09:09:49.252Z</time>
      </trkpt>
      <trkpt lat="65.54588" lon="21.86782">
        <ele>32.033898</ele>
        <time>2020-09-26T09:09:51.248Z</time>
      </trkpt>
      <trkpt lat="65.54591" lon="21.86755">
        <ele>31.974605</ele>
        <time>2020-09-26T09:09:53.248Z</time>
      </trkpt>
      <trkpt lat="65.54595" lon="21.86727">
        <ele>31.913833</ele>
        <time>2020-09-26T09:09:55.261Z</time>
      </trkpt>
      <trkpt lat="65.54598" lon="21.867">
        <ele>31.855057</ele>
        <time>2020-09-26T09:09:57.260Z</time>
      </trkpt>
      <trkpt lat="65.54602" lon="21.86671">
        <ele>31.792652</ele>
        <time>2020-09-26T09:09:59.262Z</time>
      </trkpt>
      <trkpt lat="65.54606" lon="21.86642">
        <ele>31.727843</ele>
        <time>2020-09-26T09:10:01.266Z</time>
      </trkpt>
      <trkpt lat="65.5461" lon="21.86612">
        <ele>31.552013</ele>
        <time>2020-09-26T09:10:03.271Z</time>
      </trkpt>
      <trkpt lat="65.54613" lon="21.86581">
        <ele>31.351371</ele>
        <time>2020-09-26T09:10:05.253Z</time>
      </trkpt>
      <trkpt lat="65.54617" lon="21.86549">
        <ele>31.148544</ele>
        <time>2020-09-26T09:10:07.254Z</time>
      </trkpt>
      <trkpt lat="65.5462" lon="21.86519">
        <ele>30.953812</ele>
        <time>2020-09-26T09:10:09.252Z</time>
      </trkpt>
      <trkpt lat="65.54624" lon="21.86488">
        <ele>30.756317</ele>
        <time>2020-09-26T09:10:11.258Z</time>
      </trkpt>
      <trkpt lat="65.54628" lon="21.86459">
        <ele>30.569483</ele>
        <time>2020-09-26T09:10:13.253Z</time>
      </trkpt>
      <trkpt lat="65.54631" lon="21.86431">
        <ele>30.382352</ele>
        <time>2020-09-26T09:10:15.253Z</time>
      </trkpt>
      <trkpt lat="65.54635" lon="21.864">
        <ele>30.188685</ele>
        <time>2020-09-26T09:10:17.276Z</time>
      </trkpt>
      <trkpt lat="65.54637" lon="21.86372">
        <ele>30.009119</ele>
        <time>2020-09-26T09:10:19.260Z</time>
      </trkpt>
      <trkpt lat="65.5464" lon="21.86345">
        <ele>29.836979</ele>
        <time>2020-09-26T09:10:21.234Z</time>
      </trkpt>
      <trkpt lat="65.54643" lon="21.86319">
        <ele>29.670268</ele>
        <time>2020-09-26T09:10:23.263Z</time>
      </trkpt>
      <trkpt lat="65.54646" lon="21.86292">
        <ele>29.498513</ele>
        <time>2020-09-26T09:10:25.270Z</time>
      </trkpt>
      <trkpt lat="65.54649" lon="21.86265">
        <ele>29.323182</ele>
        <time>2020-09-26T09:10:27.260Z</time>
      </trkpt>
      <trkpt lat="65.54652" lon="21.86238">
        <ele>29.145228</ele>
        <time>2020-09-26T09:10:29.272Z</time>
      </trkpt>
      <trkpt lat="65.54656" lon="21.8621">
        <ele>29.031843</ele>
        <time>2020-09-26T09:10:31.250Z</time>
      </trkpt>
      <trkpt lat="65.54659" lon="21.86183">
        <ele>29.052687</ele>
        <time>2020-09-26T09:10:33.255Z</time>
      </trkpt>
      <trkpt lat="65.54662" lon="21.86157">
        <ele>29.072752</ele>
        <time>2020-09-26T09:10:35.262Z</time>
      </trkpt>
      <trkpt lat="65.54666" lon="21.86132">
        <ele>29.092501</ele>
        <time>2020-09-26T09:10:37.263Z</time>
      </trkpt>
      <trkpt lat="65.54669" lon="21.86107">
        <ele>29.111561</ele>
        <time>2020-09-26T09:10:39.270Z</time>
      </trkpt>
      <trkpt lat="65.54672" lon="21.86082">
        <ele>29.130751</ele>
        <time>2020-09-26T09:10:41.254Z</time>
      </trkpt>
      <trkpt lat="65.54675" lon="21.86058">
        <ele>29.149738</ele>
        <time>2020-09-26T09:10:43.240Z</time>
      </trkpt>
      <trkpt lat="65.54677" lon="21.86033">
        <ele>29.168349</ele>
        <time>2020-09-26T09:10:45.249Z</time>
      </trkpt>
      <trkpt lat="65.5468" lon="21.86009">
        <ele>29.186964</ele>
        <time>2020-09-26T09:10:47.256Z</time>
      </trkpt>
      <trkpt lat="65.54683" lon="21.85986">
        <ele>29.204857</ele>
        <time>2020-09-26T09:10:49.268Z</time>
      </trkpt>
      <trkpt lat="65.54685" lon="21.85964">
        <ele>29.221945</ele>
        <time>2020-09-26T09:10:51.249Z</time>
      </trkpt>
      <trkpt lat="65.54688" lon="21.85942">
        <ele>29.238885</ele>
        <time>2020-09-26T09:10:53.240Z</time>
      </trkpt>
      <trkpt lat="65.54691" lon="21.8592">
        <ele>29.255946</ele>
        <time>2020-09-26T09:10:55.252Z</time>
      </trkpt>
      <trkpt lat="65.54693" lon="21.85899">
        <ele>29.272033</ele>
        <time>2020-09-26T09:10:57.248Z</time>
      </trkpt>
      <trkpt lat="65.54696" lon="21.85878">
        <ele>29.288298</ele>
        <time>2020-09-26T09:10:59.269Z</time>
      </trkpt>
      <trkpt lat="65.54698" lon="21.85857">
        <ele>29.304265</ele>
        <time>2020-09-26T09:11:01.275Z</time>
      </trkpt>
      <trkpt lat="65.54701" lon="21.85835">
        <ele>29.32092</ele>
        <time>2020-09-26T09:11:03.263Z</time>
      </trkpt>
      <trkpt lat="65.54703" lon="21.85813">
        <ele>29.337812</ele>
        <time>2020-09-26T09:11:05.251Z</time>
      </trkpt>
      <trkpt lat="65.54706" lon="21.85791">
        <ele>29.365825</ele>
        <time>2020-09-26T09:11:07.249Z</time>
      </trkpt>
      <trkpt lat="65.54709" lon="21.85767">
        <ele>29.405138</ele>
        <time>2020-09-26T09:11:09.244Z</time>
      </trkpt>
      <trkpt lat="65.54711" lon="21.85745">
        <ele>29.44293</ele>
        <time>2020-09-26T09:11:11.255Z</time>
      </trkpt>
      <trkpt lat="65.54714" lon="21.85723">
        <ele>29.479873</ele>
        <time>2020-09-26T09:11:13.257Z</time>
      </trkpt>
      <trkpt lat="65.54717" lon="21.85701">
        <ele>29.516782</ele>
        <time>2020-09-26T09:11:15.252Z</time>
      </trkpt>
      <trkpt lat="65.5472" lon="21.85679">
        <ele>29.55381</ele>
        <time>2020-09-26T09:11:17.260Z</time>
      </trkpt>
      <trkpt lat="65.54722" lon="21.85658">
        <ele>29.590874</ele>
        <time>2020-09-26T09:11:19.263Z</time>
      </trkpt>
      <trkpt lat="65.54725" lon="21.85636">
        <ele>29.62766</ele>
        <time>2020-09-26T09:11:21.255Z</time>
      </trkpt>
      <trkpt lat="65.54727" lon="21.85615">
        <ele>29.663367</ele>
        <time>2020-09-26T09:11:23.268Z</time>
      </trkpt>
      <trkpt lat="65.54731" lon="21.85584">
        <ele>29.716094</ele>
        <time>2020-09-26T09:11:26.246Z</time>
      </trkpt>
      <trkpt lat="65.54734" lon="21.85563">
        <ele>29.751842</ele>
        <time>2020-09-26T09:11:28.299Z</time>
      </trkpt>
      <trkpt lat="65.54738" lon="21.85533">
        <ele>29.802611</ele>
        <time>2020-09-26T09:11:31.255Z</time>
      </trkpt>
      <trkpt lat="65.54741" lon="21.85503">
        <ele>29.85241</ele>
        <time>2020-09-26T09:11:34.273Z</time>
      </trkpt>
      <trkpt lat="65.54744" lon="21.85472">
        <ele>29.905332</ele>
        <time>2020-09-26T09:11:37.257Z</time>
      </trkpt>
      <trkpt lat="65.54748" lon="21.85441">
        <ele>29.956431</ele>
        <time>2020-09-26T09:11:40.260Z</time>
      </trkpt>
      <trkpt lat="65.54752" lon="21.85413">
        <ele>30.004081</ele>
        <time>2020-09-26T09:11:43.269Z</time>
      </trkpt>
      <trkpt lat="65.54755" lon="21.85385">
        <ele>30.052178</ele>
        <time>2020-09-26T09:11:46.249Z</time>
      </trkpt>
      <trkpt lat="65.54758" lon="21.85357">
        <ele>30.056243</ele>
        <time>2020-09-26T09:11:49.263Z</time>
      </trkpt>
      <trkpt lat="65.54761" lon="21.85328">
        <ele>30.060484</ele>
        <time>2020-09-26T09:11:52.259Z</time>
      </trkpt>
      <trkpt lat="65.54765" lon="21.85298">
        <ele>30.064766</ele>
        <time>2020-09-26T09:11:55.256Z</time>
      </trkpt>
      <trkpt lat="65.54768" lon="21.85269">
        <ele>30.06894</ele>
        <time>2020-09-26T09:11:58.265Z</time>
      </trkpt>
      <trkpt lat="65.54771" lon="21.85239">
        <ele>30.073344</ele>
        <time>2020-09-26T09:12:01.301Z</time>
      </trkpt>
      <trkpt lat="65.54775" lon="21.85209">
        <ele>30.077702</ele>
        <time>2020-09-26T09:12:04.271Z</time>
      </trkpt>
      <trkpt lat="65.54778" lon="21.85179">
        <ele>30.082044</ele>
        <time>2020-09-26T09:12:07.265Z</time>
      </trkpt>
      <trkpt lat="65.54781" lon="21.85148">
        <ele>30.086551</ele>
        <time>2020-09-26T09:12:10.264Z</time>
      </trkpt>
      <trkpt lat="65.54785" lon="21.85119">
        <ele>30.090847</ele>
        <time>2020-09-26T09:12:13.315Z</time>
      </trkpt>
      <trkpt lat="65.54789" lon="21.8509">
        <ele>30.095092</ele>
        <time>2020-09-26T09:12:16.278Z</time>
      </trkpt>
      <trkpt lat="65.54794" lon="21.85062">
        <ele>30.09933</ele>
        <time>2020-09-26T09:12:19.257Z</time>
      </trkpt>
      <trkpt lat="65.54799" lon="21.85032">
        <ele>30.103852</ele>
        <time>2020-09-26T09:12:22.276Z</time>
      </trkpt>
      <trkpt lat="65.54803" lon="21.85012">
        <ele>30.106966</ele>
        <time>2020-09-26T09:12:24.258Z</time>
      </trkpt>
      <trkpt lat="65.54807" lon="21.84993">
        <ele>30.110089</ele>
        <time>2020-09-26T09:12:26.256Z</time>
      </trkpt>
      <trkpt lat="65.54812" lon="21.84974">
        <ele>30.109916</ele>
        <time>2020-09-26T09:12:28.266Z</time>
      </trkpt>
      <trkpt lat="65.54817" lon="21.84955">
        <ele>29.936149</ele>
        <time>2020-09-26T09:12:30.283Z</time>
      </trkpt>
      <trkpt lat="65.54824" lon="21.84928">
        <ele>29.677975</ele>
        <time>2020-09-26T09:12:33.247Z</time>
      </trkpt>
      <trkpt lat="65.54832" lon="21.84903">
        <ele>29.428479</ele>
        <time>2020-09-26T09:12:36.251Z</time>
      </trkpt>
      <trkpt lat="65.54838" lon="21.84886">
        <ele>29.249146</ele>
        <time>2020-09-26T09:12:38.252Z</time>
      </trkpt>
      <trkpt lat="65.54844" lon="21.84868">
        <ele>29.059987</ele>
        <time>2020-09-26T09:12:40.257Z</time>
      </trkpt>
      <trkpt lat="65.5485" lon="21.8485">
        <ele>28.871408</ele>
        <time>2020-09-26T09:12:42.258Z</time>
      </trkpt>
      <trkpt lat="65.54857" lon="21.84833">
        <ele>28.689376</ele>
        <time>2020-09-26T09:12:44.243Z</time>
      </trkpt>
      <trkpt lat="65.54863" lon="21.84815">
        <ele>28.500131</ele>
        <time>2020-09-26T09:12:46.252Z</time>
      </trkpt>
      <trkpt lat="65.5487" lon="21.84799">
        <ele>28.314809</ele>
        <time>2020-09-26T09:12:48.253Z</time>
      </trkpt>
      <trkpt lat="65.54876" lon="21.84783">
        <ele>28.139617</ele>
        <time>2020-09-26T09:12:50.253Z</time>
      </trkpt>
      <trkpt lat="65.54883" lon="21.84766">
        <ele>27.953049</ele>
        <time>2020-09-26T09:12:52.271Z</time>
      </trkpt>
      <trkpt lat="65.54892" lon="21.84744">
        <ele>27.714279</ele>
        <time>2020-09-26T09:12:55.265Z</time>
      </trkpt>
      <trkpt lat="65.54898" lon="21.84728">
        <ele>27.529211</ele>
        <time>2020-09-26T09:12:57.256Z</time>
      </trkpt>
      <trkpt lat="65.54906" lon="21.84704">
        <ele>27.292533</ele>
        <time>2020-09-26T09:13:00.243Z</time>
      </trkpt>
      <trkpt lat="65.54901" lon="21.84681">
        <ele>27.088355</ele>
        <time>2020-09-26T09:13:03.281Z</time>
      </trkpt>
      <trkpt lat="65.54896" lon="21.84663">
        <ele>26.908998</ele>
        <time>2020-09-26T09:13:06.268Z</time>
      </trkpt>
      <trkpt lat="65.54895" lon="21.8464">
        <ele>26.721397</ele>
        <time>2020-09-26T09:13:09.251Z</time>
      </trkpt>
      <trkpt lat="65.54892" lon="21.84619">
        <ele>26.969853</ele>
        <time>2020-09-26T09:13:13.252Z</time>
      </trkpt>
      <trkpt lat="65.54886" lon="21.84601">
        <ele>27.512795</ele>
        <time>2020-09-26T09:13:17.259Z</time>
      </trkpt>
      <trkpt lat="65.54879" lon="21.84585">
        <ele>28.065743</ele>
        <time>2020-09-26T09:13:21.259Z</time>
      </trkpt>
      <trkpt lat="65.54873" lon="21.84566">
        <ele>28.617219</ele>
        <time>2020-09-26T09:13:26.281Z</time>
      </trkpt>
      <trkpt lat="65.54868" lon="21.84545">
        <ele>29.20489</ele>
        <time>2020-09-26T09:13:32.259Z</time>
      </trkpt>
      <trkpt lat="65.54863" lon="21.84527">
        <ele>29.732799</ele>
        <time>2020-09-26T09:13:37.252Z</time>
      </trkpt>
      <trkpt lat="65.5486" lon="21.84503">
        <ele>30.318589</ele>
        <time>2020-09-26T09:13:43.262Z</time>
      </trkpt>
      <trkpt lat="65.54859" lon="21.84478">
        <ele>30.930596</ele>
        <time>2020-09-26T09:13:48.250Z</time>
      </trkpt>
      <trkpt lat="65.54862" lon="21.84455">
        <ele>31.514136</ele>
        <time>2020-09-26T09:13:54.238Z</time>
      </trkpt>
      <trkpt lat="65.54868" lon="21.84434">
        <ele>32.12382</ele>
        <time>2020-09-26T09:14:00.282Z</time>
      </trkpt>
      <trkpt lat="65.54874" lon="21.84415">
        <ele>32.683681</ele>
        <time>2020-09-26T09:14:05.247Z</time>
      </trkpt>
      <trkpt lat="65.5488" lon="21.84396">
        <ele>33.272815</ele>
        <time>2020-09-26T09:14:09.280Z</time>
      </trkpt>
      <trkpt lat="65.54887" lon="21.84378">
        <ele>33.847367</ele>
        <time>2020-09-26T09:14:12.264Z</time>
      </trkpt>
      <trkpt lat="65.54893" lon="21.84361">
        <ele>34.398195</ele>
        <time>2020-09-26T09:14:15.260Z</time>
      </trkpt>
      <trkpt lat="65.549" lon="21.84342">
        <ele>34.996523</ele>
        <time>2020-09-26T09:14:18.244Z</time>
      </trkpt>
      <trkpt lat="65.54906" lon="21.84322">
        <ele>35.58658</ele>
        <time>2020-09-26T09:14:21.259Z</time>
      </trkpt>
      <trkpt lat="65.54912" lon="21.843">
        <ele>36.223209</ele>
        <time>2020-09-26T09:14:24.257Z</time>
      </trkpt>
      <trkpt lat="65.54918" lon="21.84282">
        <ele>36.77913</ele>
        <time>2020-09-26T09:14:27.249Z</time>
      </trkpt>
      <trkpt lat="65.54924" lon="21.84262">
        <ele>37.109218</ele>
        <time>2020-09-26T09:14:30.265Z</time>
      </trkpt>
      <trkpt lat="65.54931" lon="21.84241">
        <ele>37.258062</ele>
        <time>2020-09-26T09:14:33.290Z</time>
      </trkpt>
      <trkpt lat="65.54938" lon="21.8422">
        <ele>37.405553</ele>
        <time>2020-09-26T09:14:36.244Z</time>
      </trkpt>
      <trkpt lat="65.54945" lon="21.84201">
        <ele>37.548921</ele>
        <time>2020-09-26T09:14:39.263Z</time>
      </trkpt>
      <trkpt lat="65.54952" lon="21.84183">
        <ele>37.684438</ele>
        <time>2020-09-26T09:14:42.244Z</time>
      </trkpt>
      <trkpt lat="65.54958" lon="21.84165">
        <ele>37.813543</ele>
        <time>2020-09-26T09:14:45.251Z</time>
      </trkpt>
      <trkpt lat="65.54965" lon="21.84148">
        <ele>37.942085</ele>
        <time>2020-09-26T09:14:48.253Z</time>
      </trkpt>
      <trkpt lat="65.54972" lon="21.84133">
        <ele>38.070648</ele>
        <time>2020-09-26T09:14:51.250Z</time>
      </trkpt>
      <trkpt lat="65.54979" lon="21.84118">
        <ele>38.201526</ele>
        <time>2020-09-26T09:14:54.239Z</time>
      </trkpt>
      <trkpt lat="65.54987" lon="21.84103">
        <ele>38.337626</ele>
        <time>2020-09-26T09:14:57.282Z</time>
      </trkpt>
      <trkpt lat="65.54995" lon="21.84089">
        <ele>38.471157</ele>
        <time>2020-09-26T09:15:00.291Z</time>
      </trkpt>
      <trkpt lat="65.55004" lon="21.84071">
        <ele>38.617591</ele>
        <time>2020-09-26T09:15:04.256Z</time>
      </trkpt>
      <trkpt lat="65.55011" lon="21.84056">
        <ele>38.74746</ele>
        <time>2020-09-26T09:15:08.252Z</time>
      </trkpt>
      <trkpt lat="65.5502" lon="21.84037">
        <ele>38.905965</ele>
        <time>2020-09-26T09:15:12.264Z</time>
      </trkpt>
      <trkpt lat="65.55028" lon="21.84017">
        <ele>39.062443</ele>
        <time>2020-09-26T09:15:16.255Z</time>
      </trkpt>
      <trkpt lat="65.55035" lon="21.83995">
        <ele>39.217649</ele>
        <time>2020-09-26T09:15:20.264Z</time>
      </trkpt>
      <trkpt lat="65.5504" lon="21.83977">
        <ele>39.338243</ele>
        <time>2020-09-26T09:15:23.263Z</time>
      </trkpt>
      <trkpt lat="65.55045" lon="21.83952">
        <ele>39.435199</ele>
        <time>2020-09-26T09:15:27.262Z</time>
      </trkpt>
      <trkpt lat="65.55051" lon="21.83932">
        <ele>39.415266</ele>
        <time>2020-09-26T09:15:30.245Z</time>
      </trkpt>
      <trkpt lat="65.55056" lon="21.8391">
        <ele>39.394425</ele>
        <time>2020-09-26T09:15:33.279Z</time>
      </trkpt>
      <trkpt lat="65.55061" lon="21.83885">
        <ele>39.370008</ele>
        <time>2020-09-26T09:15:36.249Z</time>
      </trkpt>
      <trkpt lat="65.55068" lon="21.8386">
        <ele>39.345199</ele>
        <time>2020-09-26T09:15:39.246Z</time>
      </trkpt>
      <trkpt lat="65.55074" lon="21.83837">
        <ele>39.321695</ele>
        <time>2020-09-26T09:15:42.243Z</time>
      </trkpt>
      <trkpt lat="65.55081" lon="21.83813">
        <ele>39.297072</ele>
        <time>2020-09-26T09:15:45.240Z</time>
      </trkpt>
      <trkpt lat="65.55089" lon="21.83794">
        <ele>39.274651</ele>
        <time>2020-09-26T09:15:48.245Z</time>
      </trkpt>
      <trkpt lat="65.55097" lon="21.83777">
        <ele>39.252398</ele>
        <time>2020-09-26T09:15:51.245Z</time>
      </trkpt>
      <trkpt lat="65.55106" lon="21.83761">
        <ele>39.229264</ele>
        <time>2020-09-26T09:15:54.237Z</time>
      </trkpt>
      <trkpt lat="65.55116" lon="21.83746">
        <ele>39.205743</ele>
        <time>2020-09-26T09:15:57.252Z</time>
      </trkpt>
      <trkpt lat="65.55125" lon="21.83731">
        <ele>39.183017</ele>
        <time>2020-09-26T09:16:00.274Z</time>
      </trkpt>
      <trkpt lat="65.55134" lon="21.83717">
        <ele>39.160937</ele>
        <time>2020-09-26T09:16:03.263Z</time>
      </trkpt>
      <trkpt lat="65.55144" lon="21.83703">
        <ele>39.137851</ele>
        <time>2020-09-26T09:16:06.244Z</time>
      </trkpt>
      <trkpt lat="65.55153" lon="21.83688">
        <ele>39.11678</ele>
        <time>2020-09-26T09:16:09.283Z</time>
      </trkpt>
      <trkpt lat="65.55161" lon="21.83674">
        <ele>39.096174</ele>
        <time>2020-09-26T09:16:12.293Z</time>
      </trkpt>
      <trkpt lat="65.55168" lon="21.83658">
        <ele>39.076077</ele>
        <time>2020-09-26T09:16:15.251Z</time>
      </trkpt>
      <trkpt lat="65.55175" lon="21.8364">
        <ele>39.112492</ele>
        <time>2020-09-26T09:16:18.271Z</time>
      </trkpt>
      <trkpt lat="65.55183" lon="21.83621">
        <ele>39.151325</ele>
        <time>2020-09-26T09:16:21.259Z</time>
      </trkpt>
      <trkpt lat="65.5519" lon="21.83601">
        <ele>39.189906</ele>
        <time>2020-09-26T09:16:24.273Z</time>
      </trkpt>
      <trkpt lat="65.55199" lon="21.83583">
        <ele>39.229524</ele>
        <time>2020-09-26T09:16:27.256Z</time>
      </trkpt>
      <trkpt lat="65.55207" lon="21.83562">
        <ele>39.271174</ele>
        <time>2020-09-26T09:16:30.273Z</time>
      </trkpt>
      <trkpt lat="65.55214" lon="21.83541">
        <ele>39.309978</ele>
        <time>2020-09-26T09:16:33.243Z</time>
      </trkpt>
      <trkpt lat="65.55221" lon="21.83521">
        <ele>39.34834</ele>
        <time>2020-09-26T09:16:36.265Z</time>
      </trkpt>
      <trkpt lat="65.55228" lon="21.83502">
        <ele>39.384692</ele>
        <time>2020-09-26T09:16:39.243Z</time>
      </trkpt>
      <trkpt lat="65.55235" lon="21.8348">
        <ele>39.423431</ele>
        <time>2020-09-26T09:16:42.253Z</time>
      </trkpt>
      <trkpt lat="65.5524" lon="21.83462">
        <ele>39.456835</ele>
        <time>2020-09-26T09:16:45.264Z</time>
      </trkpt>
      <trkpt lat="65.55247" lon="21.83438">
        <ele>39.498855</ele>
        <time>2020-09-26T09:16:48.259Z</time>
      </trkpt>
      <trkpt lat="65.55255" lon="21.83415">
        <ele>39.541588</ele>
        <time>2020-09-26T09:16:51.257Z</time>
      </trkpt>
      <trkpt lat="65.55262" lon="21.83391">
        <ele>39.584164</ele>
        <time>2020-09-26T09:16:54.270Z</time>
      </trkpt>
      <trkpt lat="65.55269" lon="21.83365">
        <ele>39.628012</ele>
        <time>2020-09-26T09:16:57.273Z</time>
      </trkpt>
      <trkpt lat="65.55276" lon="21.83343">
        <ele>39.66993</ele>
        <time>2020-09-26T09:17:00.242Z</time>
      </trkpt>
      <trkpt lat="65.55284" lon="21.83323">
        <ele>39.700718</ele>
        <time>2020-09-26T09:17:03.273Z</time>
      </trkpt>
      <trkpt lat="65.5529" lon="21.83304">
        <ele>39.650922</ele>
        <time>2020-09-26T09:17:06.277Z</time>
      </trkpt>
      <trkpt lat="65.55297" lon="21.83288">
        <ele>39.605865</ele>
        <time>2020-09-26T09:17:09.266Z</time>
      </trkpt>
      <trkpt lat="65.55304" lon="21.83272">
        <ele>39.562448</ele>
        <time>2020-09-26T09:17:12.299Z</time>
      </trkpt>
      <trkpt lat="65.55311" lon="21.83253">
        <ele>39.513333</ele>
        <time>2020-09-26T09:17:15.255Z</time>
      </trkpt>
      <trkpt lat="65.55319" lon="21.83231">
        <ele>39.455894</ele>
        <time>2020-09-26T09:17:18.263Z</time>
      </trkpt>
      <trkpt lat="65.55327" lon="21.83209">
        <ele>39.397338</ele>
        <time>2020-09-26T09:17:21.251Z</time>
      </trkpt>
      <trkpt lat="65.55336" lon="21.83188">
        <ele>39.339769</ele>
        <time>2020-09-26T09:17:24.264Z</time>
      </trkpt>
      <trkpt lat="65.55344" lon="21.83167">
        <ele>39.283663</ele>
        <time>2020-09-26T09:17:27.253Z</time>
      </trkpt>
      <trkpt lat="65.55353" lon="21.83147">
        <ele>39.227248</ele>
        <time>2020-09-26T09:17:30.270Z</time>
      </trkpt>
      <trkpt lat="65.55362" lon="21.83129">
        <ele>39.172294</ele>
        <time>2020-09-26T09:17:33.251Z</time>
      </trkpt>
      <trkpt lat="65.55369" lon="21.8311">
        <ele>39.119828</ele>
        <time>2020-09-26T09:17:36.272Z</time>
      </trkpt>
      <trkpt lat="65.55377" lon="21.83092">
        <ele>39.072204</ele>
        <time>2020-09-26T09:17:39.270Z</time>
      </trkpt>
      <trkpt lat="65.55385" lon="21.83079">
        <ele>39.022964</ele>
        <time>2020-09-26T09:17:42.249Z</time>
      </trkpt>
      <trkpt lat="65.55395" lon="21.83066">
        <ele>38.972931</ele>
        <time>2020-09-26T09:17:45.248Z</time>
      </trkpt>
      <trkpt lat="65.55404" lon="21.83052">
        <ele>38.920181</ele>
        <time>2020-09-26T09:17:48.244Z</time>
      </trkpt>
      <trkpt lat="65.55413" lon="21.83038">
        <ele>38.869938</ele>
        <time>2020-09-26T09:17:51.256Z</time>
      </trkpt>
      <trkpt lat="65.55423" lon="21.83025">
        <ele>39.16965</ele>
        <time>2020-09-26T09:17:54.240Z</time>
      </trkpt>
      <trkpt lat="65.55432" lon="21.83009">
        <ele>39.576643</ele>
        <time>2020-09-26T09:17:57.259Z</time>
      </trkpt>
      <trkpt lat="65.55441" lon="21.82992">
        <ele>39.985109</ele>
        <time>2020-09-26T09:18:00.239Z</time>
      </trkpt>
      <trkpt lat="65.5545" lon="21.82974">
        <ele>40.390829</ele>
        <time>2020-09-26T09:18:03.294Z</time>
      </trkpt>
      <trkpt lat="65.55459" lon="21.82956">
        <ele>40.798777</ele>
        <time>2020-09-26T09:18:06.255Z</time>
      </trkpt>
      <trkpt lat="65.55466" lon="21.82936">
        <ele>41.174385</ele>
        <time>2020-09-26T09:18:09.272Z</time>
      </trkpt>
      <trkpt lat="65.55472" lon="21.82918">
        <ele>41.531664</ele>
        <time>2020-09-26T09:18:12.248Z</time>
      </trkpt>
      <trkpt lat="65.55478" lon="21.829">
        <ele>41.875367</ele>
        <time>2020-09-26T09:18:15.253Z</time>
      </trkpt>
      <trkpt lat="65.55485" lon="21.8288">
        <ele>42.252241</ele>
        <time>2020-09-26T09:18:18.255Z</time>
      </trkpt>
      <trkpt lat="65.55491" lon="21.82859">
        <ele>42.630288</ele>
        <time>2020-09-26T09:18:21.308Z</time>
      </trkpt>
      <trkpt lat="65.55498" lon="21.82842">
        <ele>42.982349</ele>
        <time>2020-09-26T09:18:24.257Z</time>
      </trkpt>
      <trkpt lat="65.55505" lon="21.82823">
        <ele>43.348724</ele>
        <time>2020-09-26T09:18:27.249Z</time>
      </trkpt>
      <trkpt lat="65.55511" lon="21.82805">
        <ele>43.703873</ele>
        <time>2020-09-26T09:18:30.250Z</time>
      </trkpt>
      <trkpt lat="65.55518" lon="21.82787">
        <ele>44.055933</ele>
        <time>2020-09-26T09:18:33.247Z</time>
      </trkpt>
      <trkpt lat="65.55527" lon="21.8277">
        <ele>44.452116</ele>
        <time>2020-09-26T09:18:37.279Z</time>
      </trkpt>
      <trkpt lat="65.55535" lon="21.82767">
        <ele>44.773639</ele>
        <time>2020-09-26T09:18:40.251Z</time>
      </trkpt>
      <trkpt lat="65.55545" lon="21.82762">
        <ele>45.115738</ele>
        <time>2020-09-26T09:18:44.253Z</time>
      </trkpt>
      <trkpt lat="65.55553" lon="21.82752">
        <ele>45.302688</ele>
        <time>2020-09-26T09:18:48.250Z</time>
      </trkpt>
      <trkpt lat="65.55562" lon="21.82743">
        <ele>45.383406</ele>
        <time>2020-09-26T09:18:52.293Z</time>
      </trkpt>
      <trkpt lat="65.55572" lon="21.82732">
        <ele>45.479816</ele>
        <time>2020-09-26T09:18:57.286Z</time>
      </trkpt>
      <trkpt lat="65.55581" lon="21.82722">
        <ele>45.557168</ele>
        <time>2020-09-26T09:19:00.253Z</time>
      </trkpt>
      <trkpt lat="65.55593" lon="21.82717">
        <ele>45.658842</ele>
        <time>2020-09-26T09:19:04.250Z</time>
      </trkpt>
      <trkpt lat="65.55605" lon="21.82722">
        <ele>45.761857</ele>
        <time>2020-09-26T09:19:07.252Z</time>
      </trkpt>
      <trkpt lat="65.55614" lon="21.82729">
        <ele>45.846341</ele>
        <time>2020-09-26T09:19:09.273Z</time>
      </trkpt>
      <trkpt lat="65.55623" lon="21.82735">
        <ele>45.925053</ele>
        <time>2020-09-26T09:19:11.255Z</time>
      </trkpt>
      <trkpt lat="65.55633" lon="21.82744">
        <ele>46.013029</ele>
        <time>2020-09-26T09:19:14.269Z</time>
      </trkpt>
      <trkpt lat="65.55642" lon="21.8275">
        <ele>46.093243</ele>
        <time>2020-09-26T09:19:16.291Z</time>
      </trkpt>
      <trkpt lat="65.5565" lon="21.82737">
        <ele>46.175969</ele>
        <time>2020-09-26T09:19:19.256Z</time>
      </trkpt>
      <trkpt lat="65.55656" lon="21.82719">
        <ele>46.25575</ele>
        <time>2020-09-26T09:19:23.252Z</time>
      </trkpt>
      <trkpt lat="65.55663" lon="21.82705">
        <ele>46.334768</ele>
        <time>2020-09-26T09:19:27.239Z</time>
      </trkpt>
      <trkpt lat="65.55669" lon="21.82687">
        <ele>46.416438</ele>
        <time>2020-09-26T09:19:31.273Z</time>
      </trkpt>
      <trkpt lat="65.55676" lon="21.82667">
        <ele>46.50646</ele>
        <time>2020-09-26T09:19:36.284Z</time>
      </trkpt>
      <trkpt lat="65.55685" lon="21.82652">
        <ele>46.596616</ele>
        <time>2020-09-26T09:19:41.255Z</time>
      </trkpt>
      <trkpt lat="65.5569" lon="21.82634">
        <ele>46.674337</ele>
        <time>2020-09-26T09:19:44.280Z</time>
      </trkpt>
      <trkpt lat="65.55688" lon="21.82611">
        <ele>46.759326</ele>
        <time>2020-09-26T09:19:48.256Z</time>
      </trkpt>
      <trkpt lat="65.5568" lon="21.82599">
        <ele>46.783005</ele>
        <time>2020-09-26T09:19:51.266Z</time>
      </trkpt>
      <trkpt lat="65.55675" lon="21.82573">
        <ele>46.790751</ele>
        <time>2020-09-26T09:19:55.266Z</time>
      </trkpt>
      <trkpt lat="65.55677" lon="21.8255">
        <ele>46.797157</ele>
        <time>2020-09-26T09:19:58.247Z</time>
      </trkpt>
      <trkpt lat="65.5568" lon="21.82527">
        <ele>46.803754</ele>
        <time>2020-09-26T09:20:01.267Z</time>
      </trkpt>
      <trkpt lat="65.55682" lon="21.82506">
        <ele>46.809757</ele>
        <time>2020-09-26T09:20:04.260Z</time>
      </trkpt>
      <trkpt lat="65.55685" lon="21.82481">
        <ele>46.816574</ele>
        <time>2020-09-26T09:20:07.258Z</time>
      </trkpt>
      <trkpt lat="65.55686" lon="21.82456">
        <ele>46.823727</ele>
        <time>2020-09-26T09:20:10.255Z</time>
      </trkpt>
      <trkpt lat="65.55688" lon="21.82428">
        <ele>46.831283</ele>
        <time>2020-09-26T09:20:13.255Z</time>
      </trkpt>
      <trkpt lat="65.55691" lon="21.82397">
        <ele>46.83988</ele>
        <time>2020-09-26T09:20:16.257Z</time>
      </trkpt>
      <trkpt lat="65.55692" lon="21.82375">
        <ele>46.84595</ele>
        <time>2020-09-26T09:20:18.267Z</time>
      </trkpt>
      <trkpt lat="65.55695" lon="21.82344">
        <ele>46.854637</ele>
        <time>2020-09-26T09:20:21.263Z</time>
      </trkpt>
      <trkpt lat="65.55697" lon="21.82314">
        <ele>46.863085</ele>
        <time>2020-09-26T09:20:24.238Z</time>
      </trkpt>
      <trkpt lat="65.55699" lon="21.82286">
        <ele>46.870787</ele>
        <time>2020-09-26T09:20:27.244Z</time>
      </trkpt>
      <trkpt lat="65.55701" lon="21.82258">
        <ele>46.878451</ele>
        <time>2020-09-26T09:20:30.233Z</time>
      </trkpt>
      <trkpt lat="65.55703" lon="21.82228">
        <ele>46.886807</ele>
        <time>2020-09-26T09:20:33.255Z</time>
      </trkpt>
      <trkpt lat="65.55705" lon="21.82197">
        <ele>46.895446</ele>
        <time>2020-09-26T09:20:36.239Z</time>
      </trkpt>
      <trkpt lat="65.55708" lon="21.82169">
        <ele>46.740734</ele>
        <time>2020-09-26T09:20:39.291Z</time>
      </trkpt>
      <trkpt lat="65.55711" lon="21.82143">
        <ele>46.54693</ele>
        <time>2020-09-26T09:20:42.302Z</time>
      </trkpt>
      <trkpt lat="65.55713" lon="21.82112">
        <ele>46.329512</ele>
        <time>2020-09-26T09:20:45.259Z</time>
      </trkpt>
      <trkpt lat="65.55713" lon="21.8209">
        <ele>46.171792</ele>
        <time>2020-09-26T09:20:47.250Z</time>
      </trkpt>
      <trkpt lat="65.55712" lon="21.82059">
        <ele>45.958268</ele>
        <time>2020-09-26T09:20:50.271Z</time>
      </trkpt>
      <trkpt lat="65.5571" lon="21.82032">
        <ele>45.763614</ele>
        <time>2020-09-26T09:20:53.253Z</time>
      </trkpt>
      <trkpt lat="65.5571" lon="21.82001">
        <ele>45.548699</ele>
        <time>2020-09-26T09:20:56.265Z</time>
      </trkpt>
      <trkpt lat="65.55711" lon="21.81969">
        <ele>45.319988</ele>
        <time>2020-09-26T09:20:59.240Z</time>
      </trkpt>
      <trkpt lat="65.55712" lon="21.81947">
        <ele>45.164108</ele>
        <time>2020-09-26T09:21:01.249Z</time>
      </trkpt>
      <trkpt lat="65.55714" lon="21.81925">
        <ele>45.010166</ele>
        <time>2020-09-26T09:21:03.275Z</time>
      </trkpt>
      <trkpt lat="65.55715" lon="21.81894">
        <ele>44.792582</ele>
        <time>2020-09-26T09:21:06.246Z</time>
      </trkpt>
      <trkpt lat="65.55717" lon="21.81873">
        <ele>44.636703</ele>
        <time>2020-09-26T09:21:08.245Z</time>
      </trkpt>
      <trkpt lat="65.55719" lon="21.81849">
        <ele>44.464399</ele>
        <time>2020-09-26T09:21:10.247Z</time>
      </trkpt>
      <trkpt lat="65.55722" lon="21.81827">
        <ele>44.303553</ele>
        <time>2020-09-26T09:21:12.309Z</time>
      </trkpt>
      <trkpt lat="65.55725" lon="21.81794">
        <ele>44.069774</ele>
        <time>2020-09-26T09:21:15.242Z</time>
      </trkpt>
      <trkpt lat="65.55728" lon="21.81767">
        <ele>43.873989</ele>
        <time>2020-09-26T09:21:17.261Z</time>
      </trkpt>
      <trkpt lat="65.5573" lon="21.81741">
        <ele>43.932142</ele>
        <time>2020-09-26T09:21:19.281Z</time>
      </trkpt>
      <trkpt lat="65.5573" lon="21.81715">
        <ele>44.0244</ele>
        <time>2020-09-26T09:21:21.238Z</time>
      </trkpt>
      <trkpt lat="65.55729" lon="21.81689">
        <ele>44.120264</ele>
        <time>2020-09-26T09:21:23.263Z</time>
      </trkpt>
      <trkpt lat="65.55727" lon="21.81663">
        <ele>44.213095</ele>
        <time>2020-09-26T09:21:25.280Z</time>
      </trkpt>
      <trkpt lat="65.55727" lon="21.81638">
        <ele>44.302247</ele>
        <time>2020-09-26T09:21:27.258Z</time>
      </trkpt>
      <trkpt lat="65.55726" lon="21.81613">
        <ele>44.391986</ele>
        <time>2020-09-26T09:21:29.269Z</time>
      </trkpt>
      <trkpt lat="65.55726" lon="21.81587">
        <ele>44.483544</ele>
        <time>2020-09-26T09:21:31.273Z</time>
      </trkpt>
      <trkpt lat="65.55727" lon="21.8156">
        <ele>44.578596</ele>
        <time>2020-09-26T09:21:33.257Z</time>
      </trkpt>
      <trkpt lat="65.55729" lon="21.81537">
        <ele>44.664752</ele>
        <time>2020-09-26T09:21:35.240Z</time>
      </trkpt>
      <trkpt lat="65.55731" lon="21.81515">
        <ele>44.745231</ele>
        <time>2020-09-26T09:21:37.242Z</time>
      </trkpt>
      <trkpt lat="65.55733" lon="21.81492">
        <ele>44.826507</ele>
        <time>2020-09-26T09:21:39.254Z</time>
      </trkpt>
      <trkpt lat="65.55735" lon="21.81468">
        <ele>44.912615</ele>
        <time>2020-09-26T09:21:41.292Z</time>
      </trkpt>
      <trkpt lat="65.55735" lon="21.81443">
        <ele>45.002284</ele>
        <time>2020-09-26T09:21:43.269Z</time>
      </trkpt>
      <trkpt lat="65.55737" lon="21.81418">
        <ele>45.092631</ele>
        <time>2020-09-26T09:21:45.251Z</time>
      </trkpt>
      <trkpt lat="65.5574" lon="21.81393">
        <ele>45.185915</ele>
        <time>2020-09-26T09:21:47.286Z</time>
      </trkpt>
      <trkpt lat="65.55742" lon="21.81369">
        <ele>45.272602</ele>
        <time>2020-09-26T09:21:49.268Z</time>
      </trkpt>
      <trkpt lat="65.55744" lon="21.81346">
        <ele>45.358585</ele>
        <time>2020-09-26T09:21:51.254Z</time>
      </trkpt>
      <trkpt lat="65.55747" lon="21.81322">
        <ele>45.354662</ele>
        <time>2020-09-26T09:21:53.295Z</time>
      </trkpt>
      <trkpt lat="65.55751" lon="21.81301">
        <ele>45.27387</ele>
        <time>2020-09-26T09:21:55.253Z</time>
      </trkpt>
      <trkpt lat="65.55757" lon="21.81278">
        <ele>45.18438</ele>
        <time>2020-09-26T09:21:57.276Z</time>
      </trkpt>
      <trkpt lat="65.55756" lon="21.81256">
        <ele>45.110794</ele>
        <time>2020-09-26T09:21:59.270Z</time>
      </trkpt>
      <trkpt lat="65.55751" lon="21.81233">
        <ele>45.018302</ele>
        <time>2020-09-26T09:22:02.253Z</time>
      </trkpt>
      <trkpt lat="65.55752" lon="21.81211">
        <ele>44.943895</ele>
        <time>2020-09-26T09:22:04.264Z</time>
      </trkpt>
      <trkpt lat="65.55755" lon="21.81186">
        <ele>44.85498</ele>
        <time>2020-09-26T09:22:06.258Z</time>
      </trkpt>
      <trkpt lat="65.55758" lon="21.81161">
        <ele>44.7643</ele>
        <time>2020-09-26T09:22:08.233Z</time>
      </trkpt>
      <trkpt lat="65.55762" lon="21.81134">
        <ele>44.66925</ele>
        <time>2020-09-26T09:22:10.236Z</time>
      </trkpt>
      <trkpt lat="65.55765" lon="21.81107">
        <ele>44.575871</ele>
        <time>2020-09-26T09:22:12.239Z</time>
      </trkpt>
      <trkpt lat="65.55768" lon="21.81081">
        <ele>44.483471</ele>
        <time>2020-09-26T09:22:14.281Z</time>
      </trkpt>
      <trkpt lat="65.55771" lon="21.81056">
        <ele>44.394089</ele>
        <time>2020-09-26T09:22:16.247Z</time>
      </trkpt>
      <trkpt lat="65.55775" lon="21.81031">
        <ele>44.306401</ele>
        <time>2020-09-26T09:22:18.235Z</time>
      </trkpt>
      <trkpt lat="65.55778" lon="21.81005">
        <ele>44.211622</ele>
        <time>2020-09-26T09:22:20.256Z</time>
      </trkpt>
      <trkpt lat="65.55782" lon="21.8098">
        <ele>44.121224</ele>
        <time>2020-09-26T09:22:22.240Z</time>
      </trkpt>
      <trkpt lat="65.55785" lon="21.80956">
        <ele>44.035648</ele>
        <time>2020-09-26T09:22:24.243Z</time>
      </trkpt>
      <trkpt lat="65.55789" lon="21.80931">
        <ele>43.947171</ele>
        <time>2020-09-26T09:22:26.255Z</time>
      </trkpt>
      <trkpt lat="65.55793" lon="21.80906">
        <ele>43.681428</ele>
        <time>2020-09-26T09:22:28.240Z</time>
      </trkpt>
      <trkpt lat="65.55797" lon="21.80881">
        <ele>43.364463</ele>
        <time>2020-09-26T09:22:30.243Z</time>
      </trkpt>
      <trkpt lat="65.55801" lon="21.80856">
        <ele>43.044441</ele>
        <time>2020-09-26T09:22:32.239Z</time>
      </trkpt>
      <trkpt lat="65.55805" lon="21.80829">
        <ele>42.708801</ele>
        <time>2020-09-26T09:22:34.253Z</time>
      </trkpt>
      <trkpt lat="65.55809" lon="21.80802">
        <ele>42.361403</ele>
        <time>2020-09-26T09:22:36.278Z</time>
      </trkpt>
      <trkpt lat="65.55814" lon="21.80775">
        <ele>42.017317</ele>
        <time>2020-09-26T09:22:38.262Z</time>
      </trkpt>
      <trkpt lat="65.55818" lon="21.80749">
        <ele>41.686363</ele>
        <time>2020-09-26T09:22:40.264Z</time>
      </trkpt>
      <trkpt lat="65.55822" lon="21.80725">
        <ele>41.371852</ele>
        <time>2020-09-26T09:22:42.251Z</time>
      </trkpt>
      <trkpt lat="65.55826" lon="21.807">
        <ele>41.052967</ele>
        <time>2020-09-26T09:22:44.241Z</time>
      </trkpt>
      <trkpt lat="65.55831" lon="21.80674">
        <ele>40.726381</ele>
        <time>2020-09-26T09:22:46.251Z</time>
      </trkpt>
      <trkpt lat="65.55835" lon="21.80648">
        <ele>40.392132</ele>
        <time>2020-09-26T09:22:48.237Z</time>
      </trkpt>
      <trkpt lat="65.55839" lon="21.80623">
        <ele>40.070941</ele>
        <time>2020-09-26T09:22:50.244Z</time>
      </trkpt>
      <trkpt lat="65.55844" lon="21.80598">
        <ele>39.747679</ele>
        <time>2020-09-26T09:22:52.280Z</time>
      </trkpt>
      <trkpt lat="65.55848" lon="21.80573">
        <ele>39.428769</ele>
        <time>2020-09-26T09:22:54.255Z</time>
      </trkpt>
      <trkpt lat="65.55852" lon="21.80549">
        <ele>39.117467</ele>
        <time>2020-09-26T09:22:56.243Z</time>
      </trkpt>
      <trkpt lat="65.55856" lon="21.80525">
        <ele>38.814998</ele>
        <time>2020-09-26T09:22:58.243Z</time>
      </trkpt>
      <trkpt lat="65.5586" lon="21.80503">
        <ele>38.65114</ele>
        <time>2020-09-26T09:23:00.251Z</time>
      </trkpt>
      <trkpt lat="65.55864" lon="21.80481">
        <ele>38.511278</ele>
        <time>2020-09-26T09:23:02.268Z</time>
      </trkpt>
      <trkpt lat="65.55869" lon="21.80459">
        <ele>38.368253</ele>
        <time>2020-09-26T09:23:04.252Z</time>
      </trkpt>
      <trkpt lat="65.55873" lon="21.80437">
        <ele>38.223571</ele>
        <time>2020-09-26T09:23:06.245Z</time>
      </trkpt>
      <trkpt lat="65.55877" lon="21.80415">
        <ele>38.080995</ele>
        <time>2020-09-26T09:23:08.265Z</time>
      </trkpt>
      <trkpt lat="65.55882" lon="21.80391">
        <ele>37.93057</ele>
        <time>2020-09-26T09:23:10.246Z</time>
      </trkpt>
      <trkpt lat="65.55886" lon="21.80368">
        <ele>37.778066</ele>
        <time>2020-09-26T09:23:12.259Z</time>
      </trkpt>
      <trkpt lat="65.55892" lon="21.80344">
        <ele>37.619475</ele>
        <time>2020-09-26T09:23:14.232Z</time>
      </trkpt>
      <trkpt lat="65.55897" lon="21.80319">
        <ele>37.462168</ele>
        <time>2020-09-26T09:23:16.245Z</time>
      </trkpt>
      <trkpt lat="65.55902" lon="21.80295">
        <ele>37.305383</ele>
        <time>2020-09-26T09:23:18.237Z</time>
      </trkpt>
      <trkpt lat="65.55907" lon="21.80271">
        <ele>37.143891</ele>
        <time>2020-09-26T09:23:20.242Z</time>
      </trkpt>
      <trkpt lat="65.55912" lon="21.80246">
        <ele>36.982106</ele>
        <time>2020-09-26T09:23:22.252Z</time>
      </trkpt>
      <trkpt lat="65.55918" lon="21.80222">
        <ele>36.821828</ele>
        <time>2020-09-26T09:23:24.250Z</time>
      </trkpt>
      <trkpt lat="65.55923" lon="21.80199">
        <ele>36.667122</ele>
        <time>2020-09-26T09:23:26.236Z</time>
      </trkpt>
      <trkpt lat="65.55928" lon="21.80177">
        <ele>36.520312</ele>
        <time>2020-09-26T09:23:28.255Z</time>
      </trkpt>
      <trkpt lat="65.55933" lon="21.80156">
        <ele>36.381164</ele>
        <time>2020-09-26T09:23:30.243Z</time>
      </trkpt>
      <trkpt lat="65.55938" lon="21.80135">
        <ele>36.235641</ele>
        <time>2020-09-26T09:23:32.251Z</time>
      </trkpt>
      <trkpt lat="65.55943" lon="21.80114">
        <ele>36.268861</ele>
        <time>2020-09-26T09:23:34.252Z</time>
      </trkpt>
      <trkpt lat="65.55949" lon="21.80091">
        <ele>36.308661</ele>
        <time>2020-09-26T09:23:36.254Z</time>
      </trkpt>
      <trkpt lat="65.55954" lon="21.80068">
        <ele>36.347552</ele>
        <time>2020-09-26T09:23:38.246Z</time>
      </trkpt>
      <trkpt lat="65.5596" lon="21.80046">
        <ele>36.386056</ele>
        <time>2020-09-26T09:23:40.261Z</time>
      </trkpt>
      <trkpt lat="65.55965" lon="21.80026">
        <ele>36.420994</ele>
        <time>2020-09-26T09:23:42.250Z</time>
      </trkpt>
      <trkpt lat="65.5597" lon="21.80007">
        <ele>36.455212</ele>
        <time>2020-09-26T09:23:44.262Z</time>
      </trkpt>
      <trkpt lat="65.55976" lon="21.79987">
        <ele>36.491567</ele>
        <time>2020-09-26T09:23:46.241Z</time>
      </trkpt>
      <trkpt lat="65.55981" lon="21.79965">
        <ele>36.530314</ele>
        <time>2020-09-26T09:23:48.245Z</time>
      </trkpt>
      <trkpt lat="65.55987" lon="21.79943">
        <ele>36.568964</ele>
        <time>2020-09-26T09:23:50.265Z</time>
      </trkpt>
      <trkpt lat="65.55993" lon="21.79924">
        <ele>36.605874</ele>
        <time>2020-09-26T09:23:52.258Z</time>
      </trkpt>
      <trkpt lat="65.55999" lon="21.79904">
        <ele>36.642235</ele>
        <time>2020-09-26T09:23:54.274Z</time>
      </trkpt>
      <trkpt lat="65.56005" lon="21.79884">
        <ele>36.678354</ele>
        <time>2020-09-26T09:23:56.258Z</time>
      </trkpt>
      <trkpt lat="65.56011" lon="21.79864">
        <ele>36.714832</ele>
        <time>2020-09-26T09:23:58.299Z</time>
      </trkpt>
      <trkpt lat="65.56016" lon="21.79844">
        <ele>36.751311</ele>
        <time>2020-09-26T09:24:00.242Z</time>
      </trkpt>
      <trkpt lat="65.56022" lon="21.79824">
        <ele>36.786968</ele>
        <time>2020-09-26T09:24:02.259Z</time>
      </trkpt>
      <trkpt lat="65.56027" lon="21.79805">
        <ele>36.82094</ele>
        <time>2020-09-26T09:24:04.252Z</time>
      </trkpt>
      <trkpt lat="65.56032" lon="21.79787">
        <ele>36.854379</ele>
        <time>2020-09-26T09:24:06.243Z</time>
      </trkpt>
      <trkpt lat="65.56038" lon="21.79767">
        <ele>36.893375</ele>
        <time>2020-09-26T09:24:08.244Z</time>
      </trkpt>
      <trkpt lat="65.56043" lon="21.79748">
        <ele>36.948044</ele>
        <time>2020-09-26T09:24:10.263Z</time>
      </trkpt>
      <trkpt lat="65.56049" lon="21.79728">
        <ele>37.003676</ele>
        <time>2020-09-26T09:24:12.240Z</time>
      </trkpt>
      <trkpt lat="65.56054" lon="21.79707">
        <ele>37.061558</ele>
        <time>2020-09-26T09:24:14.240Z</time>
      </trkpt>
      <trkpt lat="65.56061" lon="21.79685">
        <ele>37.123629</ele>
        <time>2020-09-26T09:24:16.257Z</time>
      </trkpt>
      <trkpt lat="65.56067" lon="21.79662">
        <ele>37.188019</ele>
        <time>2020-09-26T09:24:18.258Z</time>
      </trkpt>
      <trkpt lat="65.56072" lon="21.79642">
        <ele>37.242305</ele>
        <time>2020-09-26T09:24:20.240Z</time>
      </trkpt>
      <trkpt lat="65.56078" lon="21.79624">
        <ele>37.295966</ele>
        <time>2020-09-26T09:24:22.253Z</time>
      </trkpt>
      <trkpt lat="65.56083" lon="21.79605">
        <ele>37.350147</ele>
        <time>2020-09-26T09:24:24.237Z</time>
      </trkpt>
      <trkpt lat="65.5609" lon="21.79586">
        <ele>37.405685</ele>
        <time>2020-09-26T09:24:26.244Z</time>
      </trkpt>
      <trkpt lat="65.56095" lon="21.79567">
        <ele>37.460807</ele>
        <time>2020-09-26T09:24:28.251Z</time>
      </trkpt>
      <trkpt lat="65.56101" lon="21.79549">
        <ele>37.513531</ele>
        <time>2020-09-26T09:24:30.236Z</time>
      </trkpt>
      <trkpt lat="65.56107" lon="21.79528">
        <ele>37.571147</ele>
        <time>2020-09-26T09:24:32.238Z</time>
      </trkpt>
      <trkpt lat="65.56113" lon="21.79508">
        <ele>37.629578</ele>
        <time>2020-09-26T09:24:34.261Z</time>
      </trkpt>
      <trkpt lat="65.56118" lon="21.79489">
        <ele>37.683672</ele>
        <time>2020-09-26T09:24:36.262Z</time>
      </trkpt>
      <trkpt lat="65.56124" lon="21.7947">
        <ele>37.737256</ele>
        <time>2020-09-26T09:24:38.241Z</time>
      </trkpt>
      <trkpt lat="65.56129" lon="21.79452">
        <ele>37.788564</ele>
        <time>2020-09-26T09:24:40.261Z</time>
      </trkpt>
      <trkpt lat="65.56135" lon="21.79433">
        <ele>37.842602</ele>
        <time>2020-09-26T09:24:42.267Z</time>
      </trkpt>
      <trkpt lat="65.5614" lon="21.79415">
        <ele>37.888302</ele>
        <time>2020-09-26T09:24:44.279Z</time>
      </trkpt>
      <trkpt lat="65.56145" lon="21.79395">
        <ele>37.766397</ele>
        <time>2020-09-26T09:24:46.238Z</time>
      </trkpt>
      <trkpt lat="65.5615" lon="21.79376">
        <ele>37.646531</ele>
        <time>2020-09-26T09:24:48.259Z</time>
      </trkpt>
      <trkpt lat="65.56157" lon="21.79359">
        <ele>37.524805</ele>
        <time>2020-09-26T09:24:50.240Z</time>
      </trkpt>
      <trkpt lat="65.56163" lon="21.79343">
        <ele>37.409152</ele>
        <time>2020-09-26T09:24:52.276Z</time>
      </trkpt>
      <trkpt lat="65.5617" lon="21.79317">
        <ele>37.23935</ele>
        <time>2020-09-26T09:24:55.245Z</time>
      </trkpt>
      <trkpt lat="65.56177" lon="21.79289">
        <ele>37.066688</ele>
        <time>2020-09-26T09:24:58.273Z</time>
      </trkpt>
      <trkpt lat="65.56182" lon="21.7927">
        <ele>36.942863</ele>
        <time>2020-09-26T09:25:00.251Z</time>
      </trkpt>
      <trkpt lat="65.56188" lon="21.79251">
        <ele>36.819622</ele>
        <time>2020-09-26T09:25:02.235Z</time>
      </trkpt>
      <trkpt lat="65.56193" lon="21.79231">
        <ele>36.695678</ele>
        <time>2020-09-26T09:25:04.244Z</time>
      </trkpt>
      <trkpt lat="65.56198" lon="21.79213">
        <ele>36.576661</ele>
        <time>2020-09-26T09:25:06.241Z</time>
      </trkpt>
      <trkpt lat="65.56206" lon="21.79186">
        <ele>36.403926</ele>
        <time>2020-09-26T09:25:09.256Z</time>
      </trkpt>
      <trkpt lat="65.56211" lon="21.79167">
        <ele>36.282449</ele>
        <time>2020-09-26T09:25:11.242Z</time>
      </trkpt>
      <trkpt lat="65.56218" lon="21.7914">
        <ele>36.109715</ele>
        <time>2020-09-26T09:25:14.244Z</time>
      </trkpt>
      <trkpt lat="65.56223" lon="21.79121">
        <ele>35.987346</ele>
        <time>2020-09-26T09:25:16.257Z</time>
      </trkpt>
      <trkpt lat="65.56229" lon="21.79103">
        <ele>35.867462</ele>
        <time>2020-09-26T09:25:18.253Z</time>
      </trkpt>
      <trkpt lat="65.56234" lon="21.79083">
        <ele>35.745781</ele>
        <time>2020-09-26T09:25:20.233Z</time>
      </trkpt>
      <trkpt lat="65.56239" lon="21.79063">
        <ele>35.620433</ele>
        <time>2020-09-26T09:25:22.237Z</time>
      </trkpt>
      <trkpt lat="65.56244" lon="21.79044">
        <ele>35.406216</ele>
        <time>2020-09-26T09:25:24.237Z</time>
      </trkpt>
      <trkpt lat="65.5625" lon="21.79025">
        <ele>35.136353</ele>
        <time>2020-09-26T09:25:26.241Z</time>
      </trkpt>
      <trkpt lat="65.56256" lon="21.79008">
        <ele>34.881571</ele>
        <time>2020-09-26T09:25:28.243Z</time>
      </trkpt>
      <trkpt lat="65.56261" lon="21.78979">
        <ele>34.515223</ele>
        <time>2020-09-26T09:25:31.240Z</time>
      </trkpt>
      <trkpt lat="65.56262" lon="21.78955">
        <ele>34.24047</ele>
        <time>2020-09-26T09:25:33.258Z</time>
      </trkpt>
      <trkpt lat="65.56257" lon="21.78932">
        <ele>33.941985</ele>
        <time>2020-09-26T09:25:35.249Z</time>
      </trkpt>
      <trkpt lat="65.56249" lon="21.78913">
        <ele>33.633683</ele>
        <time>2020-09-26T09:25:37.238Z</time>
      </trkpt>
      <trkpt lat="65.5624" lon="21.78895">
        <ele>33.293792</ele>
        <time>2020-09-26T09:25:39.240Z</time>
      </trkpt>
      <trkpt lat="65.56231" lon="21.78873">
        <ele>32.942024</ele>
        <time>2020-09-26T09:25:41.269Z</time>
      </trkpt>
      <trkpt lat="65.56221" lon="21.7885">
        <ele>32.574908</ele>
        <time>2020-09-26T09:25:43.269Z</time>
      </trkpt>
      <trkpt lat="65.56212" lon="21.78827">
        <ele>32.204708</ele>
        <time>2020-09-26T09:25:45.247Z</time>
      </trkpt>
      <trkpt lat="65.56203" lon="21.78802">
        <ele>31.821616</ele>
        <time>2020-09-26T09:25:47.245Z</time>
      </trkpt>
      <trkpt lat="65.56194" lon="21.78778">
        <ele>31.446348</ele>
        <time>2020-09-26T09:25:49.247Z</time>
      </trkpt>
      <trkpt lat="65.56185" lon="21.78753">
        <ele>31.07307</ele>
        <time>2020-09-26T09:25:51.237Z</time>
      </trkpt>
      <trkpt lat="65.56178" lon="21.78728">
        <ele>30.716842</ele>
        <time>2020-09-26T09:25:53.240Z</time>
      </trkpt>
      <trkpt lat="65.56171" lon="21.78704">
        <ele>30.230218</ele>
        <time>2020-09-26T09:25:55.273Z</time>
      </trkpt>
      <trkpt lat="65.56164" lon="21.7868">
        <ele>29.670243</ele>
        <time>2020-09-26T09:25:57.242Z</time>
      </trkpt>
      <trkpt lat="65.56158" lon="21.78656">
        <ele>29.105988</ele>
        <time>2020-09-26T09:25:59.260Z</time>
      </trkpt>
      <trkpt lat="65.56151" lon="21.78634">
        <ele>28.558839</ele>
        <time>2020-09-26T09:26:01.252Z</time>
      </trkpt>
      <trkpt lat="65.56144" lon="21.78611">
        <ele>27.999989</ele>
        <time>2020-09-26T09:26:03.240Z</time>
      </trkpt>
      <trkpt lat="65.56135" lon="21.7859">
        <ele>27.413308</ele>
        <time>2020-09-26T09:26:05.240Z</time>
      </trkpt>
      <trkpt lat="65.56128" lon="21.78566">
        <ele>26.841829</ele>
        <time>2020-09-26T09:26:07.249Z</time>
      </trkpt>
      <trkpt lat="65.56121" lon="21.78543">
        <ele>26.278157</ele>
        <time>2020-09-26T09:26:09.259Z</time>
      </trkpt>
      <trkpt lat="65.56116" lon="21.78519">
        <ele>25.739984</ele>
        <time>2020-09-26T09:26:11.244Z</time>
      </trkpt>
      <trkpt lat="65.5611" lon="21.78496">
        <ele>25.206152</ele>
        <time>2020-09-26T09:26:13.262Z</time>
      </trkpt>
      <trkpt lat="65.56103" lon="21.78473">
        <ele>24.668932</ele>
        <time>2020-09-26T09:26:15.240Z</time>
      </trkpt>
      <trkpt lat="65.56096" lon="21.78451">
        <ele>24.114954</ele>
        <time>2020-09-26T09:26:17.258Z</time>
      </trkpt>
      <trkpt lat="65.56089" lon="21.78431">
        <ele>23.569667</ele>
        <time>2020-09-26T09:26:19.244Z</time>
      </trkpt>
      <trkpt lat="65.56081" lon="21.78409">
        <ele>23.011247</ele>
        <time>2020-09-26T09:26:21.241Z</time>
      </trkpt>
      <trkpt lat="65.56073" lon="21.78388">
        <ele>22.455459</ele>
        <time>2020-09-26T09:26:23.239Z</time>
      </trkpt>
      <trkpt lat="65.56067" lon="21.78367">
        <ele>22.034907</ele>
        <time>2020-09-26T09:26:25.269Z</time>
      </trkpt>
      <trkpt lat="65.56062" lon="21.78345">
        <ele>22.099222</ele>
        <time>2020-09-26T09:26:27.248Z</time>
      </trkpt>
      <trkpt lat="65.56057" lon="21.78323">
        <ele>22.162535</ele>
        <time>2020-09-26T09:26:29.244Z</time>
      </trkpt>
      <trkpt lat="65.56052" lon="21.78302">
        <ele>22.224057</ele>
        <time>2020-09-26T09:26:31.235Z</time>
      </trkpt>
      <trkpt lat="65.56047" lon="21.78283">
        <ele>22.28506</ele>
        <time>2020-09-26T09:26:33.256Z</time>
      </trkpt>
      <trkpt lat="65.56042" lon="21.78263">
        <ele>22.343597</ele>
        <time>2020-09-26T09:26:35.240Z</time>
      </trkpt>
      <trkpt lat="65.56035" lon="21.78236">
        <ele>22.424797</ele>
        <time>2020-09-26T09:26:38.243Z</time>
      </trkpt>
      <trkpt lat="65.56029" lon="21.78219">
        <ele>22.480835</ele>
        <time>2020-09-26T09:26:40.258Z</time>
      </trkpt>
      <trkpt lat="65.56023" lon="21.78202">
        <ele>22.540353</ele>
        <time>2020-09-26T09:26:42.263Z</time>
      </trkpt>
      <trkpt lat="65.56016" lon="21.78185">
        <ele>22.600059</ele>
        <time>2020-09-26T09:26:44.251Z</time>
      </trkpt>
      <trkpt lat="65.56011" lon="21.78167">
        <ele>22.656916</ele>
        <time>2020-09-26T09:26:46.276Z</time>
      </trkpt>
      <trkpt lat="65.56006" lon="21.78148">
        <ele>22.713773</ele>
        <time>2020-09-26T09:26:48.279Z</time>
      </trkpt>
      <trkpt lat="65.56" lon="21.7813">
        <ele>22.773191</ele>
        <time>2020-09-26T09:26:50.235Z</time>
      </trkpt>
      <trkpt lat="65.55995" lon="21.78111">
        <ele>22.829886</ele>
        <time>2020-09-26T09:26:52.245Z</time>
      </trkpt>
      <trkpt lat="65.5599" lon="21.78093">
        <ele>22.886052</ele>
        <time>2020-09-26T09:26:54.239Z</time>
      </trkpt>
      <trkpt lat="65.55985" lon="21.78075">
        <ele>22.941964</ele>
        <time>2020-09-26T09:26:56.249Z</time>
      </trkpt>
      <trkpt lat="65.55979" lon="21.78057">
        <ele>22.999384</ele>
        <time>2020-09-26T09:26:58.259Z</time>
      </trkpt>
      <trkpt lat="65.55973" lon="21.78038">
        <ele>23.05941</ele>
        <time>2020-09-26T09:27:00.259Z</time>
      </trkpt>
      <trkpt lat="65.55967" lon="21.78019">
        <ele>23.120802</ele>
        <time>2020-09-26T09:27:02.242Z</time>
      </trkpt>
      <trkpt lat="65.55962" lon="21.78001">
        <ele>23.284564</ele>
        <time>2020-09-26T09:27:04.248Z</time>
      </trkpt>
      <trkpt lat="65.55957" lon="21.77982">
        <ele>23.488097</ele>
        <time>2020-09-26T09:27:06.245Z</time>
      </trkpt>
      <trkpt lat="65.55951" lon="21.77964">
        <ele>23.700239</ele>
        <time>2020-09-26T09:27:08.257Z</time>
      </trkpt>
      <trkpt lat="65.55945" lon="21.77945">
        <ele>23.910582</ele>
        <time>2020-09-26T09:27:10.245Z</time>
      </trkpt>
      <trkpt lat="65.55939" lon="21.77918">
        <ele>24.195728</ele>
        <time>2020-09-26T09:27:13.260Z</time>
      </trkpt>
      <trkpt lat="65.55933" lon="21.779">
        <ele>24.394281</ele>
        <time>2020-09-26T09:27:15.244Z</time>
      </trkpt>
      <trkpt lat="65.55926" lon="21.77874">
        <ele>24.688794</ele>
        <time>2020-09-26T09:27:18.255Z</time>
      </trkpt>
      <trkpt lat="65.55918" lon="21.77847">
        <ele>24.988935</ele>
        <time>2020-09-26T09:27:21.263Z</time>
      </trkpt>
      <trkpt lat="65.55912" lon="21.7783">
        <ele>25.1927</ele>
        <time>2020-09-26T09:27:23.242Z</time>
      </trkpt>
      <trkpt lat="65.55906" lon="21.77811">
        <ele>25.398984</ele>
        <time>2020-09-26T09:27:25.256Z</time>
      </trkpt>
      <trkpt lat="65.55902" lon="21.77793">
        <ele>25.595908</ele>
        <time>2020-09-26T09:27:27.241Z</time>
      </trkpt>
      <trkpt lat="65.55896" lon="21.77774">
        <ele>25.805524</ele>
        <time>2020-09-26T09:27:29.274Z</time>
      </trkpt>
      <trkpt lat="65.5589" lon="21.77756">
        <ele>26.015583</ele>
        <time>2020-09-26T09:27:31.241Z</time>
      </trkpt>
      <trkpt lat="65.55885" lon="21.77738">
        <ele>26.218372</ele>
        <time>2020-09-26T09:27:33.250Z</time>
      </trkpt>
      <trkpt lat="65.55877" lon="21.77711">
        <ele>26.512649</ele>
        <time>2020-09-26T09:27:36.239Z</time>
      </trkpt>
      <trkpt lat="65.55871" lon="21.77694">
        <ele>26.715712</ele>
        <time>2020-09-26T09:27:38.254Z</time>
      </trkpt>
      <trkpt lat="65.55864" lon="21.77669">
        <ele>26.99402</ele>
        <time>2020-09-26T09:27:41.236Z</time>
      </trkpt>
      <trkpt lat="65.55857" lon="21.77644">
        <ele>27.093615</ele>
        <time>2020-09-26T09:27:44.253Z</time>
      </trkpt>
      <trkpt lat="65.55851" lon="21.77619">
        <ele>27.102012</ele>
        <time>2020-09-26T09:27:47.282Z</time>
      </trkpt>
      <trkpt lat="65.55844" lon="21.77595">
        <ele>27.110085</ele>
        <time>2020-09-26T09:27:50.257Z</time>
      </trkpt>
      <trkpt lat="65.55838" lon="21.77571">
        <ele>27.11824</ele>
        <time>2020-09-26T09:27:53.254Z</time>
      </trkpt>
      <trkpt lat="65.55832" lon="21.77545">
        <ele>27.126784</ele>
        <time>2020-09-26T09:27:56.244Z</time>
      </trkpt>
      <trkpt lat="65.55825" lon="21.77521">
        <ele>27.135468</ele>
        <time>2020-09-26T09:27:59.239Z</time>
      </trkpt>
      <trkpt lat="65.5582" lon="21.77502">
        <ele>27.141954</ele>
        <time>2020-09-26T09:28:01.261Z</time>
      </trkpt>
      <trkpt lat="65.55815" lon="21.77481">
        <ele>27.148845</ele>
        <time>2020-09-26T09:28:03.239Z</time>
      </trkpt>
      <trkpt lat="65.55809" lon="21.77461">
        <ele>27.155697</ele>
        <time>2020-09-26T09:28:05.241Z</time>
      </trkpt>
      <trkpt lat="65.55804" lon="21.77441">
        <ele>27.162614</ele>
        <time>2020-09-26T09:28:07.248Z</time>
      </trkpt>
      <trkpt lat="65.55798" lon="21.77421">
        <ele>27.16949</ele>
        <time>2020-09-26T09:28:09.276Z</time>
      </trkpt>
      <trkpt lat="65.55793" lon="21.77401">
        <ele>27.176188</ele>
        <time>2020-09-26T09:28:11.247Z</time>
      </trkpt>
      <trkpt lat="65.55787" lon="21.77381">
        <ele>27.183184</ele>
        <time>2020-09-26T09:28:13.248Z</time>
      </trkpt>
      <trkpt lat="65.55782" lon="21.77361">
        <ele>27.190102</ele>
        <time>2020-09-26T09:28:15.238Z</time>
      </trkpt>
      <trkpt lat="65.55776" lon="21.77342">
        <ele>27.196889</ele>
        <time>2020-09-26T09:28:17.238Z</time>
      </trkpt>
      <trkpt lat="65.55771" lon="21.77323">
        <ele>27.203304</ele>
        <time>2020-09-26T09:28:19.257Z</time>
      </trkpt>
      <trkpt lat="65.55767" lon="21.77302">
        <ele>27.209765</ele>
        <time>2020-09-26T09:28:21.253Z</time>
      </trkpt>
      <trkpt lat="65.55763" lon="21.77283">
        <ele>27.19584</ele>
        <time>2020-09-26T09:28:23.254Z</time>
      </trkpt>
      <trkpt lat="65.55756" lon="21.77255">
        <ele>27.153644</ele>
        <time>2020-09-26T09:28:26.236Z</time>
      </trkpt>
      <trkpt lat="65.55749" lon="21.77227">
        <ele>27.111389</ele>
        <time>2020-09-26T09:28:29.256Z</time>
      </trkpt>
      <trkpt lat="65.55744" lon="21.77208">
        <ele>27.081922</ele>
        <time>2020-09-26T09:28:31.240Z</time>
      </trkpt>
      <trkpt lat="65.55737" lon="21.7719">
        <ele>27.051174</ele>
        <time>2020-09-26T09:28:33.264Z</time>
      </trkpt>
      <trkpt lat="65.55732" lon="21.77173">
        <ele>27.022207</ele>
        <time>2020-09-26T09:28:35.255Z</time>
      </trkpt>
      <trkpt lat="65.55724" lon="21.77146">
        <ele>26.979577</ele>
        <time>2020-09-26T09:28:38.261Z</time>
      </trkpt>
      <trkpt lat="65.55718" lon="21.77128">
        <ele>26.950507</ele>
        <time>2020-09-26T09:28:40.245Z</time>
      </trkpt>
      <trkpt lat="65.5571" lon="21.77102">
        <ele>26.909112</ele>
        <time>2020-09-26T09:28:43.252Z</time>
      </trkpt>
      <trkpt lat="65.55704" lon="21.77077">
        <ele>26.871045</ele>
        <time>2020-09-26T09:28:46.269Z</time>
      </trkpt>
      <trkpt lat="65.55699" lon="21.77049">
        <ele>26.831119</ele>
        <time>2020-09-26T09:28:49.240Z</time>
      </trkpt>
      <trkpt lat="65.55695" lon="21.7703">
        <ele>26.802048</ele>
        <time>2020-09-26T09:28:51.255Z</time>
      </trkpt>
      <trkpt lat="65.55689" lon="21.7701">
        <ele>26.77167</ele>
        <time>2020-09-26T09:28:53.240Z</time>
      </trkpt>
      <trkpt lat="65.55683" lon="21.76989">
        <ele>26.738238</ele>
        <time>2020-09-26T09:28:55.243Z</time>
      </trkpt>
      <trkpt lat="65.55677" lon="21.76966">
        <ele>26.703438</ele>
        <time>2020-09-26T09:28:57.239Z</time>
      </trkpt>
      <trkpt lat="65.55672" lon="21.76942">
        <ele>26.667381</ele>
        <time>2020-09-26T09:28:59.285Z</time>
      </trkpt>
      <trkpt lat="65.55667" lon="21.76917">
        <ele>26.759758</ele>
        <time>2020-09-26T09:29:01.245Z</time>
      </trkpt>
      <trkpt lat="65.55661" lon="21.76894">
        <ele>27.015628</ele>
        <time>2020-09-26T09:29:03.263Z</time>
      </trkpt>
      <trkpt lat="65.55655" lon="21.76871">
        <ele>27.269115</ele>
        <time>2020-09-26T09:29:05.259Z</time>
      </trkpt>
      <trkpt lat="65.5565" lon="21.76848">
        <ele>27.50426</ele>
        <time>2020-09-26T09:29:07.239Z</time>
      </trkpt>
      <trkpt lat="65.55644" lon="21.76828">
        <ele>27.739532</ele>
        <time>2020-09-26T09:29:09.261Z</time>
      </trkpt>
      <trkpt lat="65.55637" lon="21.76812">
        <ele>27.960609</ele>
        <time>2020-09-26T09:29:11.245Z</time>
      </trkpt>
      <trkpt lat="65.55628" lon="21.76801">
        <ele>28.188676</ele>
        <time>2020-09-26T09:29:13.262Z</time>
      </trkpt>
      <trkpt lat="65.55618" lon="21.76793">
        <ele>28.422284</ele>
        <time>2020-09-26T09:29:15.240Z</time>
      </trkpt>
      <trkpt lat="65.55608" lon="21.76787">
        <ele>28.646312</ele>
        <time>2020-09-26T09:29:17.251Z</time>
      </trkpt>
      <trkpt lat="65.55598" lon="21.76784">
        <ele>28.875231</ele>
        <time>2020-09-26T09:29:19.247Z</time>
      </trkpt>
      <trkpt lat="65.55588" lon="21.76781">
        <ele>29.09888</ele>
        <time>2020-09-26T09:29:21.233Z</time>
      </trkpt>
      <trkpt lat="65.55578" lon="21.7678">
        <ele>29.337862</ele>
        <time>2020-09-26T09:29:23.238Z</time>
      </trkpt>
      <trkpt lat="65.55567" lon="21.76778">
        <ele>29.568075</ele>
        <time>2020-09-26T09:29:25.264Z</time>
      </trkpt>
      <trkpt lat="65.55557" lon="21.76776">
        <ele>29.807187</ele>
        <time>2020-09-26T09:29:27.237Z</time>
      </trkpt>
      <trkpt lat="65.55547" lon="21.76774">
        <ele>30.028432</ele>
        <time>2020-09-26T09:29:29.251Z</time>
      </trkpt>
      <trkpt lat="65.55537" lon="21.76771">
        <ele>30.25683</ele>
        <time>2020-09-26T09:29:31.245Z</time>
      </trkpt>
      <trkpt lat="65.55527" lon="21.76769">
        <ele>30.485135</ele>
        <time>2020-09-26T09:29:33.256Z</time>
      </trkpt>
      <trkpt lat="65.55516" lon="21.76768">
        <ele>30.678644</ele>
        <time>2020-09-26T09:29:35.259Z</time>
      </trkpt>
      <trkpt lat="65.55506" lon="21.76767">
        <ele>30.551577</ele>
        <time>2020-09-26T09:29:37.242Z</time>
      </trkpt>
      <trkpt lat="65.55496" lon="21.76765">
        <ele>30.427747</ele>
        <time>2020-09-26T09:29:39.236Z</time>
      </trkpt>
      <trkpt lat="65.55486" lon="21.76763">
        <ele>30.309037</ele>
        <time>2020-09-26T09:29:41.255Z</time>
      </trkpt>
      <trkpt lat="65.55476" lon="21.76761">
        <ele>30.192332</ele>
        <time>2020-09-26T09:29:43.263Z</time>
      </trkpt>
      <trkpt lat="65.55467" lon="21.76759">
        <ele>30.075898</ele>
        <time>2020-09-26T09:29:45.261Z</time>
      </trkpt>
      <trkpt lat="65.55457" lon="21.76757">
        <ele>29.958089</ele>
        <time>2020-09-26T09:29:47.246Z</time>
      </trkpt>
      <trkpt lat="65.55447" lon="21.76755">
        <ele>29.84282</ele>
        <time>2020-09-26T09:29:49.249Z</time>
      </trkpt>
      <trkpt lat="65.55438" lon="21.76754">
        <ele>29.727761</ele>
        <time>2020-09-26T09:29:51.245Z</time>
      </trkpt>
      <trkpt lat="65.55429" lon="21.76751">
        <ele>29.618324</ele>
        <time>2020-09-26T09:29:53.251Z</time>
      </trkpt>
      <trkpt lat="65.5542" lon="21.76748">
        <ele>29.506978</ele>
        <time>2020-09-26T09:29:55.238Z</time>
      </trkpt>
      <trkpt lat="65.55411" lon="21.76745">
        <ele>29.395707</ele>
        <time>2020-09-26T09:29:57.256Z</time>
      </trkpt>
      <trkpt lat="65.55398" lon="21.76744">
        <ele>29.242055</ele>
        <time>2020-09-26T09:30:00.257Z</time>
      </trkpt>
      <trkpt lat="65.55385" lon="21.76742">
        <ele>29.087041</ele>
        <time>2020-09-26T09:30:03.239Z</time>
      </trkpt>
      <trkpt lat="65.55372" lon="21.76738">
        <ele>28.926354</ele>
        <time>2020-09-26T09:30:06.245Z</time>
      </trkpt>
      <trkpt lat="65.55363" lon="21.76736">
        <ele>28.816918</ele>
        <time>2020-09-26T09:30:08.237Z</time>
      </trkpt>
      <trkpt lat="65.55354" lon="21.76732">
        <ele>28.705414</ele>
        <time>2020-09-26T09:30:10.239Z</time>
      </trkpt>
      <trkpt lat="65.55344" lon="21.76726">
        <ele>28.585124</ele>
        <time>2020-09-26T09:30:12.253Z</time>
      </trkpt>
      <trkpt lat="65.55334" lon="21.76718">
        <ele>28.4829</ele>
        <time>2020-09-26T09:30:14.252Z</time>
      </trkpt>
      <trkpt lat="65.55324" lon="21.76707">
        <ele>28.401991</ele>
        <time>2020-09-26T09:30:16.255Z</time>
      </trkpt>
      <trkpt lat="65.55313" lon="21.76695">
        <ele>28.319087</ele>
        <time>2020-09-26T09:30:18.279Z</time>
      </trkpt>
      <trkpt lat="65.55303" lon="21.76682">
        <ele>28.233341</ele>
        <time>2020-09-26T09:30:20.235Z</time>
      </trkpt>
      <trkpt lat="65.55293" lon="21.7667">
        <ele>28.15237</ele>
        <time>2020-09-26T09:30:22.238Z</time>
      </trkpt>
      <trkpt lat="65.55283" lon="21.76657">
        <ele>28.076154</ele>
        <time>2020-09-26T09:30:24.253Z</time>
      </trkpt>
      <trkpt lat="65.55275" lon="21.76643">
        <ele>28.001914</ele>
        <time>2020-09-26T09:30:26.240Z</time>
      </trkpt>
      <trkpt lat="65.55266" lon="21.76628">
        <ele>27.924803</ele>
        <time>2020-09-26T09:30:28.242Z</time>
      </trkpt>
      <trkpt lat="65.55257" lon="21.76616">
        <ele>27.84965</ele>
        <time>2020-09-26T09:30:30.232Z</time>
      </trkpt>
      <trkpt lat="65.55247" lon="21.76603">
        <ele>27.771872</ele>
        <time>2020-09-26T09:30:32.253Z</time>
      </trkpt>
      <trkpt lat="65.55237" lon="21.76591">
        <ele>27.692182</ele>
        <time>2020-09-26T09:30:34.255Z</time>
      </trkpt>
      <trkpt lat="65.55228" lon="21.7658">
        <ele>27.61969</ele>
        <time>2020-09-26T09:30:36.236Z</time>
      </trkpt>
      <trkpt lat="65.55219" lon="21.76568">
        <ele>27.548143</ele>
        <time>2020-09-26T09:30:38.257Z</time>
      </trkpt>
      <trkpt lat="65.5521" lon="21.76556">
        <ele>27.476497</ele>
        <time>2020-09-26T09:30:40.264Z</time>
      </trkpt>
      <trkpt lat="65.55201" lon="21.76545">
        <ele>27.402837</ele>
        <time>2020-09-26T09:30:42.251Z</time>
      </trkpt>
      <trkpt lat="65.55192" lon="21.76533">
        <ele>27.329042</ele>
        <time>2020-09-26T09:30:44.263Z</time>
      </trkpt>
      <trkpt lat="65.55183" lon="21.76524">
        <ele>27.259179</ele>
        <time>2020-09-26T09:30:46.241Z</time>
      </trkpt>
      <trkpt lat="65.55174" lon="21.76518">
        <ele>27.467563</ele>
        <time>2020-09-26T09:30:48.269Z</time>
      </trkpt>
      <trkpt lat="65.55164" lon="21.76516">
        <ele>27.818631</ele>
        <time>2020-09-26T09:30:50.270Z</time>
      </trkpt>
      <trkpt lat="65.55154" lon="21.76516">
        <ele>28.171704</ele>
        <time>2020-09-26T09:30:52.264Z</time>
      </trkpt>
      <trkpt lat="65.55144" lon="21.76515">
        <ele>28.532026</ele>
        <time>2020-09-26T09:30:54.276Z</time>
      </trkpt>
      <trkpt lat="65.55135" lon="21.76515">
        <ele>28.888662</ele>
        <time>2020-09-26T09:30:56.235Z</time>
      </trkpt>
      <trkpt lat="65.55125" lon="21.76516">
        <ele>29.248984</ele>
        <time>2020-09-26T09:30:58.254Z</time>
      </trkpt>
      <trkpt lat="65.55115" lon="21.76516">
        <ele>29.609368</ele>
        <time>2020-09-26T09:31:00.260Z</time>
      </trkpt>
      <trkpt lat="65.55105" lon="21.76518">
        <ele>29.970348</ele>
        <time>2020-09-26T09:31:02.250Z</time>
      </trkpt>
      <trkpt lat="65.55095" lon="21.76519">
        <ele>30.330874</ele>
        <time>2020-09-26T09:31:04.240Z</time>
      </trkpt>
      <trkpt lat="65.55085" lon="21.7652">
        <ele>30.702579</ele>
        <time>2020-09-26T09:31:06.242Z</time>
      </trkpt>
      <trkpt lat="65.55075" lon="21.76521">
        <ele>31.063382</ele>
        <time>2020-09-26T09:31:08.265Z</time>
      </trkpt>
      <trkpt lat="65.55064" lon="21.76522">
        <ele>31.449315</ele>
        <time>2020-09-26T09:31:10.253Z</time>
      </trkpt>
      <trkpt lat="65.55054" lon="21.76523">
        <ele>31.813927</ele>
        <time>2020-09-26T09:31:12.238Z</time>
      </trkpt>
      <trkpt lat="65.55045" lon="21.76525">
        <ele>32.167462</ele>
        <time>2020-09-26T09:31:14.254Z</time>
      </trkpt>
      <trkpt lat="65.55035" lon="21.76525">
        <ele>32.505929</ele>
        <time>2020-09-26T09:31:16.239Z</time>
      </trkpt>
      <trkpt lat="65.55026" lon="21.76525">
        <ele>32.837092</ele>
        <time>2020-09-26T09:31:18.254Z</time>
      </trkpt>
      <trkpt lat="65.55013" lon="21.76527">
        <ele>33.321552</ele>
        <time>2020-09-26T09:31:21.233Z</time>
      </trkpt>
      <trkpt lat="65.55004" lon="21.76528">
        <ele>33.657327</ele>
        <time>2020-09-26T09:31:23.251Z</time>
      </trkpt>
      <trkpt lat="65.5499" lon="21.76531">
        <ele>34.088918</ele>
        <time>2020-09-26T09:31:26.252Z</time>
      </trkpt>
      <trkpt lat="65.54977" lon="21.76532">
        <ele>34.484885</ele>
        <time>2020-09-26T09:31:29.285Z</time>
      </trkpt>
      <trkpt lat="65.54965" lon="21.76535">
        <ele>34.86634</ele>
        <time>2020-09-26T09:31:32.266Z</time>
      </trkpt>
      <trkpt lat="65.54952" lon="21.76536">
        <ele>35.268492</ele>
        <time>2020-09-26T09:31:35.242Z</time>
      </trkpt>
      <trkpt lat="65.54942" lon="21.76538">
        <ele>35.560424</ele>
        <time>2020-09-26T09:31:37.245Z</time>
      </trkpt>
      <trkpt lat="65.54933" lon="21.76537">
        <ele>35.845613</ele>
        <time>2020-09-26T09:31:39.249Z</time>
      </trkpt>
      <trkpt lat="65.54924" lon="21.76538">
        <ele>36.127864</ele>
        <time>2020-09-26T09:31:41.256Z</time>
      </trkpt>
      <trkpt lat="65.54914" lon="21.76539">
        <ele>36.41658</ele>
        <time>2020-09-26T09:31:43.296Z</time>
      </trkpt>
      <trkpt lat="65.54905" lon="21.76542">
        <ele>36.693842</ele>
        <time>2020-09-26T09:31:45.252Z</time>
      </trkpt>
      <trkpt lat="65.54896" lon="21.76543">
        <ele>36.973175</ele>
        <time>2020-09-26T09:31:47.280Z</time>
      </trkpt>
      <trkpt lat="65.54884" lon="21.76543">
        <ele>37.362644</ele>
        <time>2020-09-26T09:31:50.252Z</time>
      </trkpt>
      <trkpt lat="65.54871" lon="21.76545">
        <ele>37.762347</ele>
        <time>2020-09-26T09:31:53.261Z</time>
      </trkpt>
      <trkpt lat="65.54859" lon="21.76547">
        <ele>38.125074</ele>
        <time>2020-09-26T09:31:56.272Z</time>
      </trkpt>
      <trkpt lat="65.54847" lon="21.76547">
        <ele>38.502321</ele>
        <time>2020-09-26T09:31:59.271Z</time>
      </trkpt>
      <trkpt lat="65.54835" lon="21.76546">
        <ele>38.861173</ele>
        <time>2020-09-26T09:32:02.275Z</time>
      </trkpt>
      <trkpt lat="65.54822" lon="21.76545">
        <ele>39.256842</ele>
        <time>2020-09-26T09:32:05.263Z</time>
      </trkpt>
      <trkpt lat="65.54811" lon="21.76543">
        <ele>39.113987</ele>
        <time>2020-09-26T09:32:08.256Z</time>
      </trkpt>
      <trkpt lat="65.54801" lon="21.7654">
        <ele>38.916232</ele>
        <time>2020-09-26T09:32:11.259Z</time>
      </trkpt>
      <trkpt lat="65.5479" lon="21.76533">
        <ele>38.707148</ele>
        <time>2020-09-26T09:32:14.286Z</time>
      </trkpt>
      <trkpt lat="65.5478" lon="21.76523">
        <ele>38.502946</ele>
        <time>2020-09-26T09:32:17.269Z</time>
      </trkpt>
      <trkpt lat="65.5477" lon="21.76511">
        <ele>38.289718</ele>
        <time>2020-09-26T09:32:20.255Z</time>
      </trkpt>
      <trkpt lat="65.5476" lon="21.76497">
        <ele>38.066415</ele>
        <time>2020-09-26T09:32:23.269Z</time>
      </trkpt>
      <trkpt lat="65.54749" lon="21.76481">
        <ele>37.820757</ele>
        <time>2020-09-26T09:32:26.271Z</time>
      </trkpt>
      <trkpt lat="65.54737" lon="21.76465">
        <ele>37.566941</ele>
        <time>2020-09-26T09:32:29.247Z</time>
      </trkpt>
      <trkpt lat="65.54726" lon="21.76447">
        <ele>37.31203</ele>
        <time>2020-09-26T09:32:32.258Z</time>
      </trkpt>
      <trkpt lat="65.54717" lon="21.76435">
        <ele>37.122057</ele>
        <time>2020-09-26T09:32:34.271Z</time>
      </trkpt>
      <trkpt lat="65.54708" lon="21.76423">
        <ele>36.916124</ele>
        <time>2020-09-26T09:32:36.239Z</time>
      </trkpt>
      <trkpt lat="65.54698" lon="21.7641">
        <ele>36.704058</ele>
        <time>2020-09-26T09:32:38.242Z</time>
      </trkpt>
      <trkpt lat="65.54688" lon="21.76397">
        <ele>36.49288</ele>
        <time>2020-09-26T09:32:40.267Z</time>
      </trkpt>
      <trkpt lat="65.54679" lon="21.76386">
        <ele>36.297925</ele>
        <time>2020-09-26T09:32:42.258Z</time>
      </trkpt>
      <trkpt lat="65.54671" lon="21.76374">
        <ele>36.118991</ele>
        <time>2020-09-26T09:32:44.272Z</time>
      </trkpt>
      <trkpt lat="65.54664" lon="21.76361">
        <ele>35.945404</ele>
        <time>2020-09-26T09:32:46.250Z</time>
      </trkpt>
      <trkpt lat="65.54655" lon="21.7635">
        <ele>35.56893</ele>
        <time>2020-09-26T09:32:48.249Z</time>
      </trkpt>
      <trkpt lat="65.54647" lon="21.76339">
        <ele>35.071083</ele>
        <time>2020-09-26T09:32:50.273Z</time>
      </trkpt>
      <trkpt lat="65.54638" lon="21.76327">
        <ele>34.543777</ele>
        <time>2020-09-26T09:32:52.256Z</time>
      </trkpt>
      <trkpt lat="65.5463" lon="21.76315">
        <ele>34.041155</ele>
        <time>2020-09-26T09:32:54.255Z</time>
      </trkpt>
      <trkpt lat="65.54621" lon="21.76303">
        <ele>33.508273</ele>
        <time>2020-09-26T09:32:56.260Z</time>
      </trkpt>
      <trkpt lat="65.54612" lon="21.76292">
        <ele>32.9715</ele>
        <time>2020-09-26T09:32:58.271Z</time>
      </trkpt>
      <trkpt lat="65.54603" lon="21.76281">
        <ele>32.451524</ele>
        <time>2020-09-26T09:33:00.245Z</time>
      </trkpt>
      <trkpt lat="65.54594" lon="21.7627">
        <ele>31.941501</ele>
        <time>2020-09-26T09:33:02.273Z</time>
      </trkpt>
      <trkpt lat="65.54585" lon="21.7626">
        <ele>31.432685</ele>
        <time>2020-09-26T09:33:04.274Z</time>
      </trkpt>
      <trkpt lat="65.54576" lon="21.7625">
        <ele>30.92655</ele>
        <time>2020-09-26T09:33:06.242Z</time>
      </trkpt>
      <trkpt lat="65.54567" lon="21.76242">
        <ele>30.403602</ele>
        <time>2020-09-26T09:33:08.265Z</time>
      </trkpt>
      <trkpt lat="65.54557" lon="21.76236">
        <ele>29.914626</ele>
        <time>2020-09-26T09:33:10.251Z</time>
      </trkpt>
      <trkpt lat="65.54548" lon="21.76231">
        <ele>29.408109</ele>
        <time>2020-09-26T09:33:12.243Z</time>
      </trkpt>
      <trkpt lat="65.54538" lon="21.76229">
        <ele>28.908435</ele>
        <time>2020-09-26T09:33:14.260Z</time>
      </trkpt>
      <trkpt lat="65.54526" lon="21.76227">
        <ele>28.252526</ele>
        <time>2020-09-26T09:33:17.269Z</time>
      </trkpt>
      <trkpt lat="65.54514" lon="21.76224">
        <ele>27.64863</ele>
        <time>2020-09-26T09:33:20.250Z</time>
      </trkpt>
      <trkpt lat="65.54502" lon="21.76222">
        <ele>27.004116</ele>
        <time>2020-09-26T09:33:23.254Z</time>
      </trkpt>
      <trkpt lat="65.54489" lon="21.76221">
        <ele>26.616241</ele>
        <time>2020-09-26T09:33:26.277Z</time>
      </trkpt>
      <trkpt lat="65.54477" lon="21.76222">
        <ele>26.827686</ele>
        <time>2020-09-26T09:33:29.243Z</time>
      </trkpt>
      <trkpt lat="65.54464" lon="21.76224">
        <ele>27.053019</ele>
        <time>2020-09-26T09:33:32.257Z</time>
      </trkpt>
      <trkpt lat="65.54451" lon="21.76228">
        <ele>27.274469</ele>
        <time>2020-09-26T09:33:35.260Z</time>
      </trkpt>
      <trkpt lat="65.54439" lon="21.76237">
        <ele>27.492898</ele>
        <time>2020-09-26T09:33:38.253Z</time>
      </trkpt>
      <trkpt lat="65.54427" lon="21.76251">
        <ele>27.720916</ele>
        <time>2020-09-26T09:33:41.255Z</time>
      </trkpt>
      <trkpt lat="65.54415" lon="21.76268">
        <ele>27.94927</ele>
        <time>2020-09-26T09:33:44.273Z</time>
      </trkpt>
      <trkpt lat="65.54408" lon="21.76283">
        <ele>28.105118</ele>
        <time>2020-09-26T09:33:46.256Z</time>
      </trkpt>
      <trkpt lat="65.54399" lon="21.76305">
        <ele>28.331372</ele>
        <time>2020-09-26T09:33:49.262Z</time>
      </trkpt>
      <trkpt lat="65.54389" lon="21.76327">
        <ele>28.558109</ele>
        <time>2020-09-26T09:33:52.274Z</time>
      </trkpt>
      <trkpt lat="65.54379" lon="21.76349">
        <ele>28.788599</ele>
        <time>2020-09-26T09:33:55.253Z</time>
      </trkpt>
      <trkpt lat="65.54372" lon="21.76363">
        <ele>28.941581</ele>
        <time>2020-09-26T09:33:57.245Z</time>
      </trkpt>
      <trkpt lat="65.54363" lon="21.76385">
        <ele>29.166876</ele>
        <time>2020-09-26T09:34:00.268Z</time>
      </trkpt>
      <trkpt lat="65.54353" lon="21.76407">
        <ele>29.393424</ele>
        <time>2020-09-26T09:34:03.242Z</time>
      </trkpt>
      <trkpt lat="65.54346" lon="21.76422">
        <ele>29.549575</ele>
        <time>2020-09-26T09:34:05.257Z</time>
      </trkpt>
      <trkpt lat="65.54337" lon="21.76444">
        <ele>29.787946</ele>
        <time>2020-09-26T09:34:08.260Z</time>
      </trkpt>
      <trkpt lat="65.5433" lon="21.76458">
        <ele>29.958522</ele>
        <time>2020-09-26T09:34:10.294Z</time>
      </trkpt>
      <trkpt lat="65.54323" lon="21.76473">
        <ele>30.128942</ele>
        <time>2020-09-26T09:34:12.293Z</time>
      </trkpt>
      <trkpt lat="65.54316" lon="21.76488">
        <ele>30.300933</ele>
        <time>2020-09-26T09:34:14.262Z</time>
      </trkpt>
      <trkpt lat="65.5431" lon="21.76503">
        <ele>30.474588</ele>
        <time>2020-09-26T09:34:16.283Z</time>
      </trkpt>
      <trkpt lat="65.543" lon="21.76526">
        <ele>30.729927</ele>
        <time>2020-09-26T09:34:19.285Z</time>
      </trkpt>
      <trkpt lat="65.54293" lon="21.76541">
        <ele>30.901722</ele>
        <time>2020-09-26T09:34:21.254Z</time>
      </trkpt>
      <trkpt lat="65.54287" lon="21.76556">
        <ele>31.0749</ele>
        <time>2020-09-26T09:34:23.255Z</time>
      </trkpt>
      <trkpt lat="65.5428" lon="21.76571">
        <ele>31.24808</ele>
        <time>2020-09-26T09:34:25.261Z</time>
      </trkpt>
      <trkpt lat="65.54273" lon="21.76586">
        <ele>31.420989</ele>
        <time>2020-09-26T09:34:27.258Z</time>
      </trkpt>
      <trkpt lat="65.54266" lon="21.766">
        <ele>31.595423</ele>
        <time>2020-09-26T09:34:29.245Z</time>
      </trkpt>
      <trkpt lat="65.54256" lon="21.7662">
        <ele>31.838094</ele>
        <time>2020-09-26T09:34:32.283Z</time>
      </trkpt>
      <trkpt lat="65.54249" lon="21.76634">
        <ele>32.009002</ele>
        <time>2020-09-26T09:34:34.241Z</time>
      </trkpt>
      <trkpt lat="65.54241" lon="21.76649">
        <ele>32.188687</ele>
        <time>2020-09-26T09:34:36.261Z</time>
      </trkpt>
      <trkpt lat="65.54235" lon="21.76665">
        <ele>32.368626</ele>
        <time>2020-09-26T09:34:38.243Z</time>
      </trkpt>
      <trkpt lat="65.54229" lon="21.76682">
        <ele>32.54078</ele>
        <time>2020-09-26T09:34:40.270Z</time>
      </trkpt>
      <trkpt lat="65.54222" lon="21.76697">
        <ele>32.712323</ele>
        <time>2020-09-26T09:34:42.271Z</time>
      </trkpt>
      <trkpt lat="65.54215" lon="21.76712">
        <ele>32.887173</ele>
        <time>2020-09-26T09:34:44.251Z</time>
      </trkpt>
      <trkpt lat="65.54208" lon="21.76727">
        <ele>33.063482</ele>
        <time>2020-09-26T09:34:46.268Z</time>
      </trkpt>
      <trkpt lat="65.54202" lon="21.76743">
        <ele>33.239976</ele>
        <time>2020-09-26T09:34:48.247Z</time>
      </trkpt>
      <trkpt lat="65.54195" lon="21.76758">
        <ele>33.420368</ele>
        <time>2020-09-26T09:34:50.280Z</time>
      </trkpt>
      <trkpt lat="65.54186" lon="21.76781">
        <ele>33.669723</ele>
        <time>2020-09-26T09:34:53.296Z</time>
      </trkpt>
      <trkpt lat="65.54177" lon="21.76802">
        <ele>33.917927</ele>
        <time>2020-09-26T09:34:56.261Z</time>
      </trkpt>
      <trkpt lat="65.54168" lon="21.76825">
        <ele>34.178658</ele>
        <time>2020-09-26T09:34:59.257Z</time>
      </trkpt>
      <trkpt lat="65.54161" lon="21.76841">
        <ele>34.356542</ele>
        <time>2020-09-26T09:35:01.277Z</time>
      </trkpt>
      <trkpt lat="65.54154" lon="21.76855">
        <ele>34.534257</ele>
        <time>2020-09-26T09:35:03.320Z</time>
      </trkpt>
      <trkpt lat="65.54147" lon="21.76869">
        <ele>34.713971</ele>
        <time>2020-09-26T09:35:05.253Z</time>
      </trkpt>
      <trkpt lat="65.54137" lon="21.76891">
        <ele>34.970064</ele>
        <time>2020-09-26T09:35:08.269Z</time>
      </trkpt>
      <trkpt lat="65.54129" lon="21.76909">
        <ele>35.193835</ele>
        <time>2020-09-26T09:35:11.272Z</time>
      </trkpt>
      <trkpt lat="65.54121" lon="21.76929">
        <ele>35.408941</ele>
        <time>2020-09-26T09:35:14.243Z</time>
      </trkpt>
      <trkpt lat="65.54112" lon="21.76948">
        <ele>35.633122</ele>
        <time>2020-09-26T09:35:17.259Z</time>
      </trkpt>
      <trkpt lat="65.54103" lon="21.7697">
        <ele>35.884897</ele>
        <time>2020-09-26T09:35:20.265Z</time>
      </trkpt>
      <trkpt lat="65.54096" lon="21.76984">
        <ele>36.062614</ele>
        <time>2020-09-26T09:35:22.258Z</time>
      </trkpt>
      <trkpt lat="65.54089" lon="21.76999">
        <ele>36.240962</ele>
        <time>2020-09-26T09:35:24.250Z</time>
      </trkpt>
      <trkpt lat="65.54079" lon="21.7702">
        <ele>36.479016</ele>
        <time>2020-09-26T09:35:27.255Z</time>
      </trkpt>
      <trkpt lat="65.54069" lon="21.7704">
        <ele>36.298777</ele>
        <time>2020-09-26T09:35:30.293Z</time>
      </trkpt>
      <trkpt lat="65.5406" lon="21.77061">
        <ele>36.130118</ele>
        <time>2020-09-26T09:35:33.255Z</time>
      </trkpt>
      <trkpt lat="65.54051" lon="21.77083">
        <ele>35.952572</ele>
        <time>2020-09-26T09:35:36.252Z</time>
      </trkpt>
      <trkpt lat="65.54042" lon="21.77104">
        <ele>35.773629</ele>
        <time>2020-09-26T09:35:39.305Z</time>
      </trkpt>
      <trkpt lat="65.54033" lon="21.77128">
        <ele>35.596904</ele>
        <time>2020-09-26T09:35:42.253Z</time>
      </trkpt>
      <trkpt lat="65.54024" lon="21.77151">
        <ele>35.415738</ele>
        <time>2020-09-26T09:35:45.263Z</time>
      </trkpt>
      <trkpt lat="65.54015" lon="21.77173">
        <ele>35.235929</ele>
        <time>2020-09-26T09:35:48.322Z</time>
      </trkpt>
      <trkpt lat="65.54007" lon="21.77187">
        <ele>35.105311</ele>
        <time>2020-09-26T09:35:50.265Z</time>
      </trkpt>
      <trkpt lat="65.54" lon="21.77202">
        <ele>34.975359</ele>
        <time>2020-09-26T09:35:52.290Z</time>
      </trkpt>
      <trkpt lat="65.53993" lon="21.77216">
        <ele>34.848291</ele>
        <time>2020-09-26T09:35:54.271Z</time>
      </trkpt>
      <trkpt lat="65.53986" lon="21.77231">
        <ele>34.718017</ele>
        <time>2020-09-26T09:35:56.249Z</time>
      </trkpt>
      <trkpt lat="65.53978" lon="21.77246">
        <ele>34.581295</ele>
        <time>2020-09-26T09:35:58.269Z</time>
      </trkpt>
      <trkpt lat="65.53971" lon="21.77263">
        <ele>34.442898</ele>
        <time>2020-09-26T09:36:00.262Z</time>
      </trkpt>
      <trkpt lat="65.53963" lon="21.7728">
        <ele>34.304302</ele>
        <time>2020-09-26T09:36:02.248Z</time>
      </trkpt>
      <trkpt lat="65.53957" lon="21.77295">
        <ele>34.176702</ele>
        <time>2020-09-26T09:36:04.243Z</time>
      </trkpt>
      <trkpt lat="65.53949" lon="21.7731">
        <ele>34.042148</ele>
        <time>2020-09-26T09:36:06.270Z</time>
      </trkpt>
      <trkpt lat="65.53941" lon="21.77325">
        <ele>34.054587</ele>
        <time>2020-09-26T09:36:08.273Z</time>
      </trkpt>
      <trkpt lat="65.53934" lon="21.77341">
        <ele>34.100468</ele>
        <time>2020-09-26T09:36:10.299Z</time>
      </trkpt>
      <trkpt lat="65.53927" lon="21.77356">
        <ele>34.142989</ele>
        <time>2020-09-26T09:36:12.268Z</time>
      </trkpt>
      <trkpt lat="65.53918" lon="21.77378">
        <ele>34.202749</ele>
        <time>2020-09-26T09:36:15.242Z</time>
      </trkpt>
      <trkpt lat="65.53909" lon="21.77397">
        <ele>34.257341</ele>
        <time>2020-09-26T09:36:18.257Z</time>
      </trkpt>
      <trkpt lat="65.53902" lon="21.77415">
        <ele>34.306772</ele>
        <time>2020-09-26T09:36:21.270Z</time>
      </trkpt>
      <trkpt lat="65.53893" lon="21.77433">
        <ele>34.361985</ele>
        <time>2020-09-26T09:36:24.252Z</time>
      </trkpt>
      <trkpt lat="65.53884" lon="21.77454">
        <ele>34.417893</ele>
        <time>2020-09-26T09:36:27.268Z</time>
      </trkpt>
      <trkpt lat="65.53877" lon="21.77473">
        <ele>34.467931</ele>
        <time>2020-09-26T09:36:30.262Z</time>
      </trkpt>
      <trkpt lat="65.53868" lon="21.7749">
        <ele>34.520837</ele>
        <time>2020-09-26T09:36:33.277Z</time>
      </trkpt>
      <trkpt lat="65.5386" lon="21.7751">
        <ele>34.575565</ele>
        <time>2020-09-26T09:36:36.263Z</time>
      </trkpt>
      <trkpt lat="65.5385" lon="21.77531">
        <ele>34.635796</ele>
        <time>2020-09-26T09:36:39.252Z</time>
      </trkpt>
      <trkpt lat="65.53843" lon="21.77546">
        <ele>34.678442</ele>
        <time>2020-09-26T09:36:41.269Z</time>
      </trkpt>
      <trkpt lat="65.53833" lon="21.77567">
        <ele>34.740483</ele>
        <time>2020-09-26T09:36:44.256Z</time>
      </trkpt>
      <trkpt lat="65.53824" lon="21.77586">
        <ele>34.797335</ele>
        <time>2020-09-26T09:36:47.254Z</time>
      </trkpt>
      <trkpt lat="65.53816" lon="21.77606">
        <ele>34.852336</ele>
        <time>2020-09-26T09:36:50.259Z</time>
      </trkpt>
      <trkpt lat="65.53806" lon="21.77627">
        <ele>34.56585</ele>
        <time>2020-09-26T09:36:53.273Z</time>
      </trkpt>
      <trkpt lat="65.53797" lon="21.77649">
        <ele>34.262299</ele>
        <time>2020-09-26T09:36:56.245Z</time>
      </trkpt>
      <trkpt lat="65.53787" lon="21.77671">
        <ele>33.948947</ele>
        <time>2020-09-26T09:36:59.279Z</time>
      </trkpt>
      <trkpt lat="65.53778" lon="21.77693">
        <ele>33.645417</ele>
        <time>2020-09-26T09:37:02.264Z</time>
      </trkpt>
      <trkpt lat="65.53768" lon="21.77715">
        <ele>33.32991</ele>
        <time>2020-09-26T09:37:05.280Z</time>
      </trkpt>
      <trkpt lat="65.53759" lon="21.77734">
        <ele>33.041459</ele>
        <time>2020-09-26T09:37:08.265Z</time>
      </trkpt>
      <trkpt lat="65.5375" lon="21.77755">
        <ele>32.746668</ele>
        <time>2020-09-26T09:37:11.264Z</time>
      </trkpt>
      <trkpt lat="65.5374" lon="21.77776">
        <ele>32.433948</ele>
        <time>2020-09-26T09:37:14.261Z</time>
      </trkpt>
      <trkpt lat="65.53731" lon="21.77799">
        <ele>32.11603</ele>
        <time>2020-09-26T09:37:17.278Z</time>
      </trkpt>
      <trkpt lat="65.53724" lon="21.77815">
        <ele>31.895155</ele>
        <time>2020-09-26T09:37:19.264Z</time>
      </trkpt>
      <trkpt lat="65.53717" lon="21.77831">
        <ele>31.667506</ele>
        <time>2020-09-26T09:37:21.279Z</time>
      </trkpt>
      <trkpt lat="65.53709" lon="21.77847">
        <ele>31.428136</ele>
        <time>2020-09-26T09:37:23.268Z</time>
      </trkpt>
      <trkpt lat="65.53701" lon="21.77864">
        <ele>31.185861</ele>
        <time>2020-09-26T09:37:25.273Z</time>
      </trkpt>
      <trkpt lat="65.53694" lon="21.77879">
        <ele>30.956756</ele>
        <time>2020-09-26T09:37:27.273Z</time>
      </trkpt>
      <trkpt lat="65.53688" lon="21.77895">
        <ele>30.738257</ele>
        <time>2020-09-26T09:37:29.244Z</time>
      </trkpt>
      <trkpt lat="65.53681" lon="21.77911">
        <ele>30.609353</ele>
        <time>2020-09-26T09:37:31.262Z</time>
      </trkpt>
      <trkpt lat="65.53674" lon="21.77926">
        <ele>30.587836</ele>
        <time>2020-09-26T09:37:33.253Z</time>
      </trkpt>
      <trkpt lat="65.53667" lon="21.77942">
        <ele>30.56652</ele>
        <time>2020-09-26T09:37:35.259Z</time>
      </trkpt>
      <trkpt lat="65.5366" lon="21.77957">
        <ele>30.545427</ele>
        <time>2020-09-26T09:37:37.253Z</time>
      </trkpt>
      <trkpt lat="65.53653" lon="21.77971">
        <ele>30.523961</ele>
        <time>2020-09-26T09:37:39.255Z</time>
      </trkpt>
      <trkpt lat="65.53646" lon="21.77987">
        <ele>30.50217</ele>
        <time>2020-09-26T09:37:41.290Z</time>
      </trkpt>
      <trkpt lat="65.53639" lon="21.78002">
        <ele>30.480909</ele>
        <time>2020-09-26T09:37:43.255Z</time>
      </trkpt>
      <trkpt lat="65.53629" lon="21.78023">
        <ele>30.450822</ele>
        <time>2020-09-26T09:37:46.269Z</time>
      </trkpt>
      <trkpt lat="65.53623" lon="21.78038">
        <ele>30.430326</ele>
        <time>2020-09-26T09:37:48.290Z</time>
      </trkpt>
      <trkpt lat="65.53617" lon="21.78054">
        <ele>30.40963</ele>
        <time>2020-09-26T09:37:50.263Z</time>
      </trkpt>
      <trkpt lat="65.53607" lon="21.78075">
        <ele>30.379695</ele>
        <time>2020-09-26T09:37:53.271Z</time>
      </trkpt>
      <trkpt lat="65.53597" lon="21.78098">
        <ele>30.349275</ele>
        <time>2020-09-26T09:37:56.265Z</time>
      </trkpt>
      <trkpt lat="65.53588" lon="21.78118">
        <ele>30.320185</ele>
        <time>2020-09-26T09:37:59.245Z</time>
      </trkpt>
      <trkpt lat="65.53579" lon="21.78139">
        <ele>30.29266</ele>
        <time>2020-09-26T09:38:02.259Z</time>
      </trkpt>
      <trkpt lat="65.5357" lon="21.7816">
        <ele>30.263588</ele>
        <time>2020-09-26T09:38:05.242Z</time>
      </trkpt>
      <trkpt lat="65.5356" lon="21.78181">
        <ele>30.233564</ele>
        <time>2020-09-26T09:38:08.293Z</time>
      </trkpt>
      <trkpt lat="65.53551" lon="21.78203">
        <ele>30.2017</ele>
        <time>2020-09-26T09:38:11.260Z</time>
      </trkpt>
      <trkpt lat="65.53542" lon="21.78223">
        <ele>30.153583</ele>
        <time>2020-09-26T09:38:14.278Z</time>
      </trkpt>
      <trkpt lat="65.53532" lon="21.78244">
        <ele>30.102735</ele>
        <time>2020-09-26T09:38:17.243Z</time>
      </trkpt>
      <trkpt lat="65.53525" lon="21.78259">
        <ele>30.067699</ele>
        <time>2020-09-26T09:38:19.270Z</time>
      </trkpt>
      <trkpt lat="65.53518" lon="21.78273">
        <ele>30.033246</ele>
        <time>2020-09-26T09:38:21.292Z</time>
      </trkpt>
      <trkpt lat="65.53512" lon="21.78288">
        <ele>29.998837</ele>
        <time>2020-09-26T09:38:23.266Z</time>
      </trkpt>
      <trkpt lat="65.53505" lon="21.78303">
        <ele>29.962782</ele>
        <time>2020-09-26T09:38:25.253Z</time>
      </trkpt>
      <trkpt lat="65.53498" lon="21.78319">
        <ele>29.926599</ele>
        <time>2020-09-26T09:38:27.255Z</time>
      </trkpt>
      <trkpt lat="65.53488" lon="21.78341">
        <ele>29.875714</ele>
        <time>2020-09-26T09:38:30.267Z</time>
      </trkpt>
      <trkpt lat="65.53479" lon="21.78362">
        <ele>29.826096</ele>
        <time>2020-09-26T09:38:33.257Z</time>
      </trkpt>
      <trkpt lat="65.53471" lon="21.78383">
        <ele>29.780664</ele>
        <time>2020-09-26T09:38:36.275Z</time>
      </trkpt>
      <trkpt lat="65.53462" lon="21.78401">
        <ele>29.736054</ele>
        <time>2020-09-26T09:38:39.255Z</time>
      </trkpt>
      <trkpt lat="65.53455" lon="21.78415">
        <ele>29.701718</ele>
        <time>2020-09-26T09:38:41.268Z</time>
      </trkpt>
      <trkpt lat="65.53447" lon="21.78428">
        <ele>29.664315</ele>
        <time>2020-09-26T09:38:43.255Z</time>
      </trkpt>
      <trkpt lat="65.53438" lon="21.78441">
        <ele>29.62608</ele>
        <time>2020-09-26T09:38:45.269Z</time>
      </trkpt>
      <trkpt lat="65.53431" lon="21.78456">
        <ele>29.589658</ele>
        <time>2020-09-26T09:38:47.276Z</time>
      </trkpt>
      <trkpt lat="65.53425" lon="21.78473">
        <ele>29.553707</ele>
        <time>2020-09-26T09:38:49.257Z</time>
      </trkpt>
      <trkpt lat="65.53416" lon="21.78497">
        <ele>29.589645</ele>
        <time>2020-09-26T09:38:52.262Z</time>
      </trkpt>
      <trkpt lat="65.53407" lon="21.78519">
        <ele>29.821045</ele>
        <time>2020-09-26T09:38:55.261Z</time>
      </trkpt>
      <trkpt lat="65.534" lon="21.78535">
        <ele>29.978112</ele>
        <time>2020-09-26T09:38:57.252Z</time>
      </trkpt>
      <trkpt lat="65.53391" lon="21.78557">
        <ele>30.201397</ele>
        <time>2020-09-26T09:39:00.273Z</time>
      </trkpt>
      <trkpt lat="65.53382" lon="21.78578">
        <ele>30.408295</ele>
        <time>2020-09-26T09:39:03.264Z</time>
      </trkpt>
      <trkpt lat="65.53374" lon="21.78599">
        <ele>30.620928</ele>
        <time>2020-09-26T09:39:06.301Z</time>
      </trkpt>
      <trkpt lat="65.53367" lon="21.78613">
        <ele>30.776338</ele>
        <time>2020-09-26T09:39:08.325Z</time>
      </trkpt>
      <trkpt lat="65.53357" lon="21.78634">
        <ele>30.998574</ele>
        <time>2020-09-26T09:39:11.274Z</time>
      </trkpt>
      <trkpt lat="65.53348" lon="21.78653">
        <ele>31.209437</ele>
        <time>2020-09-26T09:39:14.285Z</time>
      </trkpt>
      <trkpt lat="65.53338" lon="21.78672">
        <ele>31.425663</ele>
        <time>2020-09-26T09:39:17.280Z</time>
      </trkpt>
      <trkpt lat="65.53329" lon="21.78692">
        <ele>31.625967</ele>
        <time>2020-09-26T09:39:20.249Z</time>
      </trkpt>
      <trkpt lat="65.53321" lon="21.78711">
        <ele>31.821069</ele>
        <time>2020-09-26T09:39:23.258Z</time>
      </trkpt>
      <trkpt lat="65.53313" lon="21.78729">
        <ele>32.015294</ele>
        <time>2020-09-26T09:39:26.262Z</time>
      </trkpt>
      <trkpt lat="65.53305" lon="21.78748">
        <ele>32.21115</ele>
        <time>2020-09-26T09:39:29.261Z</time>
      </trkpt>
      <trkpt lat="65.53296" lon="21.78766">
        <ele>32.399971</ele>
        <time>2020-09-26T09:39:32.297Z</time>
      </trkpt>
      <trkpt lat="65.53288" lon="21.78784">
        <ele>32.587421</ele>
        <time>2020-09-26T09:39:35.243Z</time>
      </trkpt>
      <trkpt lat="65.5328" lon="21.78801">
        <ele>32.526228</ele>
        <time>2020-09-26T09:39:38.261Z</time>
      </trkpt>
      <trkpt lat="65.53273" lon="21.78819">
        <ele>32.436874</ele>
        <time>2020-09-26T09:39:41.261Z</time>
      </trkpt>
      <trkpt lat="65.53265" lon="21.78838">
        <ele>32.345577</ele>
        <time>2020-09-26T09:39:44.252Z</time>
      </trkpt>
      <trkpt lat="65.53257" lon="21.78855">
        <ele>32.254141</ele>
        <time>2020-09-26T09:39:47.247Z</time>
      </trkpt>
      <trkpt lat="65.53248" lon="21.7887">
        <ele>32.165374</ele>
        <time>2020-09-26T09:39:50.259Z</time>
      </trkpt>
      <trkpt lat="65.53238" lon="21.78881">
        <ele>32.076094</ele>
        <time>2020-09-26T09:39:53.259Z</time>
      </trkpt>
      <trkpt lat="65.53227" lon="21.78888">
        <ele>31.981343</ele>
        <time>2020-09-26T09:39:56.250Z</time>
      </trkpt>
      <trkpt lat="65.53216" lon="21.78891">
        <ele>31.88532</ele>
        <time>2020-09-26T09:39:59.303Z</time>
      </trkpt>
      <trkpt lat="65.53205" lon="21.78891">
        <ele>31.790012</ele>
        <time>2020-09-26T09:40:02.283Z</time>
      </trkpt>
      <trkpt lat="65.53193" lon="21.78889">
        <ele>31.694352</ele>
        <time>2020-09-26T09:40:05.281Z</time>
      </trkpt>
      <trkpt lat="65.53184" lon="21.78876">
        <ele>31.60211</ele>
        <time>2020-09-26T09:40:08.252Z</time>
      </trkpt>
      <trkpt lat="65.53179" lon="21.7885">
        <ele>31.503244</ele>
        <time>2020-09-26T09:40:11.257Z</time>
      </trkpt>
      <trkpt lat="65.53179" lon="21.78828">
        <ele>31.42672</ele>
        <time>2020-09-26T09:40:13.296Z</time>
      </trkpt>
      <trkpt lat="65.53178" lon="21.78805">
        <ele>31.348369</ele>
        <time>2020-09-26T09:40:15.269Z</time>
      </trkpt>
      <trkpt lat="65.53176" lon="21.78784">
        <ele>31.271689</ele>
        <time>2020-09-26T09:40:17.276Z</time>
      </trkpt>
      <trkpt lat="65.53172" lon="21.78763">
        <ele>31.194873</ele>
        <time>2020-09-26T09:40:19.260Z</time>
      </trkpt>
      <trkpt lat="65.53168" lon="21.78744">
        <ele>31.119299</ele>
        <time>2020-09-26T09:40:21.280Z</time>
      </trkpt>
      <trkpt lat="65.53162" lon="21.78726">
        <ele>30.955525</ele>
        <time>2020-09-26T09:40:23.273Z</time>
      </trkpt>
      <trkpt lat="65.53157" lon="21.78707">
        <ele>30.766043</ele>
        <time>2020-09-26T09:40:25.263Z</time>
      </trkpt>
      <trkpt lat="65.53152" lon="21.78686">
        <ele>30.576487</ele>
        <time>2020-09-26T09:40:27.284Z</time>
      </trkpt>
      <trkpt lat="65.53147" lon="21.78668">
        <ele>30.390909</ele>
        <time>2020-09-26T09:40:29.249Z</time>
      </trkpt>
      <trkpt lat="65.53141" lon="21.78651">
        <ele>30.203216</ele>
        <time>2020-09-26T09:40:31.306Z</time>
      </trkpt>
      <trkpt lat="65.53134" lon="21.78635">
        <ele>30.024979</ele>
        <time>2020-09-26T09:40:33.277Z</time>
      </trkpt>
      <trkpt lat="65.53128" lon="21.78619">
        <ele>29.843566</ele>
        <time>2020-09-26T09:40:35.258Z</time>
      </trkpt>
      <trkpt lat="65.53122" lon="21.78602">
        <ele>29.656928</ele>
        <time>2020-09-26T09:40:37.261Z</time>
      </trkpt>
      <trkpt lat="65.53115" lon="21.78586">
        <ele>29.469306</ele>
        <time>2020-09-26T09:40:39.245Z</time>
      </trkpt>
      <trkpt lat="65.53108" lon="21.7857">
        <ele>29.278553</ele>
        <time>2020-09-26T09:40:41.298Z</time>
      </trkpt>
      <trkpt lat="65.53102" lon="21.78553">
        <ele>29.094862</ele>
        <time>2020-09-26T09:40:43.279Z</time>
      </trkpt>
      <trkpt lat="65.53094" lon="21.78538">
        <ele>28.898517</ele>
        <time>2020-09-26T09:40:45.290Z</time>
      </trkpt>
      <trkpt lat="65.53086" lon="21.78522">
        <ele>28.690024</ele>
        <time>2020-09-26T09:40:47.259Z</time>
      </trkpt>
      <trkpt lat="65.53077" lon="21.78505">
        <ele>28.474792</ele>
        <time>2020-09-26T09:40:49.262Z</time>
      </trkpt>
      <trkpt lat="65.53069" lon="21.78486">
        <ele>28.252518</ele>
        <time>2020-09-26T09:40:51.248Z</time>
      </trkpt>
      <trkpt lat="65.53062" lon="21.78469">
        <ele>28.045914</ele>
        <time>2020-09-26T09:40:53.271Z</time>
      </trkpt>
      <trkpt lat="65.53055" lon="21.78452">
        <ele>27.848316</ele>
        <time>2020-09-26T09:40:55.259Z</time>
      </trkpt>
      <trkpt lat="65.53048" lon="21.78436">
        <ele>27.665994</ele>
        <time>2020-09-26T09:40:57.275Z</time>
      </trkpt>
      <trkpt lat="65.53041" lon="21.78419">
        <ele>27.456944</ele>
        <time>2020-09-26T09:40:59.271Z</time>
      </trkpt>
      <trkpt lat="65.53034" lon="21.78404">
        <ele>27.200851</ele>
        <time>2020-09-26T09:41:01.291Z</time>
      </trkpt>
      <trkpt lat="65.53026" lon="21.78387">
        <ele>26.941061</ele>
        <time>2020-09-26T09:41:03.271Z</time>
      </trkpt>
      <trkpt lat="65.53019" lon="21.78372">
        <ele>26.683081</ele>
        <time>2020-09-26T09:41:05.266Z</time>
      </trkpt>
      <trkpt lat="65.53012" lon="21.78354">
        <ele>26.435507</ele>
        <time>2020-09-26T09:41:07.282Z</time>
      </trkpt>
      <trkpt lat="65.53005" lon="21.78338">
        <ele>26.185387</ele>
        <time>2020-09-26T09:41:09.263Z</time>
      </trkpt>
      <trkpt lat="65.52998" lon="21.78322">
        <ele>25.92963</ele>
        <time>2020-09-26T09:41:11.255Z</time>
      </trkpt>
      <trkpt lat="65.5299" lon="21.78306">
        <ele>25.674583</ele>
        <time>2020-09-26T09:41:13.267Z</time>
      </trkpt>
      <trkpt lat="65.52983" lon="21.7829">
        <ele>25.418579</ele>
        <time>2020-09-26T09:41:15.302Z</time>
      </trkpt>
      <trkpt lat="65.52976" lon="21.78275">
        <ele>25.176943</ele>
        <time>2020-09-26T09:41:17.253Z</time>
      </trkpt>
      <trkpt lat="65.5297" lon="21.78258">
        <ele>24.942252</ele>
        <time>2020-09-26T09:41:19.251Z</time>
      </trkpt>
      <trkpt lat="65.52964" lon="21.78242">
        <ele>24.713557</ele>
        <time>2020-09-26T09:41:21.273Z</time>
      </trkpt>
      <trkpt lat="65.52956" lon="21.78218">
        <ele>24.386065</ele>
        <time>2020-09-26T09:41:24.257Z</time>
      </trkpt>
      <trkpt lat="65.52948" lon="21.78202">
        <ele>24.133351</ele>
        <time>2020-09-26T09:41:26.257Z</time>
      </trkpt>
      <trkpt lat="65.52941" lon="21.78186">
        <ele>23.882498</ele>
        <time>2020-09-26T09:41:28.265Z</time>
      </trkpt>
      <trkpt lat="65.52935" lon="21.7817">
        <ele>23.647835</ele>
        <time>2020-09-26T09:41:30.244Z</time>
      </trkpt>
      <trkpt lat="65.52926" lon="21.78146">
        <ele>23.307203</ele>
        <time>2020-09-26T09:41:33.248Z</time>
      </trkpt>
      <trkpt lat="65.52918" lon="21.78129">
        <ele>23.031709</ele>
        <time>2020-09-26T09:41:35.256Z</time>
      </trkpt>
      <trkpt lat="65.5291" lon="21.78112">
        <ele>23.306622</ele>
        <time>2020-09-26T09:41:37.250Z</time>
      </trkpt>
      <trkpt lat="65.52902" lon="21.78095">
        <ele>23.770355</ele>
        <time>2020-09-26T09:41:39.272Z</time>
      </trkpt>
      <trkpt lat="65.52895" lon="21.78079">
        <ele>24.239557</ele>
        <time>2020-09-26T09:41:41.251Z</time>
      </trkpt>
      <trkpt lat="65.52889" lon="21.78063">
        <ele>24.666473</ele>
        <time>2020-09-26T09:41:43.284Z</time>
      </trkpt>
      <trkpt lat="65.52879" lon="21.7804">
        <ele>25.297811</ele>
        <time>2020-09-26T09:41:46.262Z</time>
      </trkpt>
      <trkpt lat="65.52872" lon="21.78025">
        <ele>25.726855</ele>
        <time>2020-09-26T09:41:48.250Z</time>
      </trkpt>
      <trkpt lat="65.52865" lon="21.78011">
        <ele>26.163591</ele>
        <time>2020-09-26T09:41:50.243Z</time>
      </trkpt>
      <trkpt lat="65.52857" lon="21.77996">
        <ele>26.624501</ele>
        <time>2020-09-26T09:41:52.265Z</time>
      </trkpt>
      <trkpt lat="65.5285" lon="21.77982">
        <ele>27.043091</ele>
        <time>2020-09-26T09:41:54.252Z</time>
      </trkpt>
      <trkpt lat="65.52843" lon="21.77968">
        <ele>27.462921</ele>
        <time>2020-09-26T09:41:56.261Z</time>
      </trkpt>
      <trkpt lat="65.52836" lon="21.77954">
        <ele>27.887758</ele>
        <time>2020-09-26T09:41:58.249Z</time>
      </trkpt>
      <trkpt lat="65.52829" lon="21.77939">
        <ele>28.323262</ele>
        <time>2020-09-26T09:42:00.280Z</time>
      </trkpt>
      <trkpt lat="65.52819" lon="21.77919">
        <ele>28.93295</ele>
        <time>2020-09-26T09:42:03.254Z</time>
      </trkpt>
      <trkpt lat="65.5281" lon="21.77897">
        <ele>29.556178</ele>
        <time>2020-09-26T09:42:06.268Z</time>
      </trkpt>
      <trkpt lat="65.528" lon="21.77876">
        <ele>30.15356</ele>
        <time>2020-09-26T09:42:09.271Z</time>
      </trkpt>
      <trkpt lat="65.52789" lon="21.77856">
        <ele>30.788747</ele>
        <time>2020-09-26T09:42:12.255Z</time>
      </trkpt>
      <trkpt lat="65.52782" lon="21.77841">
        <ele>31.223026</ele>
        <time>2020-09-26T09:42:14.250Z</time>
      </trkpt>
      <trkpt lat="65.52771" lon="21.77821">
        <ele>31.509078</ele>
        <time>2020-09-26T09:42:17.257Z</time>
      </trkpt>
      <trkpt lat="65.52763" lon="21.77809">
        <ele>31.66314</ele>
        <time>2020-09-26T09:42:19.275Z</time>
      </trkpt>
      <trkpt lat="65.52754" lon="21.7779">
        <ele>31.863884</ele>
        <time>2020-09-26T09:42:22.253Z</time>
      </trkpt>
      <trkpt lat="65.52745" lon="21.77775">
        <ele>32.03559</ele>
        <time>2020-09-26T09:42:25.279Z</time>
      </trkpt>
      <trkpt lat="65.52735" lon="21.77763">
        <ele>32.223846</ele>
        <time>2020-09-26T09:42:28.266Z</time>
      </trkpt>
      <trkpt lat="65.52724" lon="21.77751">
        <ele>32.411622</ele>
        <time>2020-09-26T09:42:32.274Z</time>
      </trkpt>
      <trkpt lat="65.52714" lon="21.77744">
        <ele>32.581715</ele>
        <time>2020-09-26T09:42:37.254Z</time>
      </trkpt>
      <trkpt lat="65.52705" lon="21.77714">
        <ele>32.828877</ele>
        <time>2020-09-26T10:02:55.874Z</time>
      </trkpt>
      <trkpt lat="65.527" lon="21.7769">
        <ele>33.010784</ele>
        <time>2020-09-26T10:02:59.855Z</time>
      </trkpt>
      <trkpt lat="65.52692" lon="21.77669">
        <ele>33.195855</ele>
        <time>2020-09-26T10:03:03.890Z</time>
      </trkpt>
      <trkpt lat="65.52684" lon="21.77649">
        <ele>33.386192</ele>
        <time>2020-09-26T10:03:07.894Z</time>
      </trkpt>
      <trkpt lat="65.52678" lon="21.77633">
        <ele>33.534942</ele>
        <time>2020-09-26T10:03:10.897Z</time>
      </trkpt>
      <trkpt lat="65.52671" lon="21.77618">
        <ele>33.680554</ele>
        <time>2020-09-26T10:03:13.864Z</time>
      </trkpt>
      <trkpt lat="65.52664" lon="21.776">
        <ele>33.843378</ele>
        <time>2020-09-26T10:03:16.918Z</time>
      </trkpt>
      <trkpt lat="65.52658" lon="21.77583">
        <ele>34.003246</ele>
        <time>2020-09-26T10:03:19.888Z</time>
      </trkpt>
      <trkpt lat="65.52652" lon="21.77564">
        <ele>34.163497</ele>
        <time>2020-09-26T10:03:22.863Z</time>
      </trkpt>
      <trkpt lat="65.52645" lon="21.77545">
        <ele>34.259409</ele>
        <time>2020-09-26T10:03:25.873Z</time>
      </trkpt>
      <trkpt lat="65.5264" lon="21.77527">
        <ele>34.289728</ele>
        <time>2020-09-26T10:03:28.880Z</time>
      </trkpt>
      <trkpt lat="65.52634" lon="21.77509">
        <ele>34.320564</ele>
        <time>2020-09-26T10:03:31.886Z</time>
      </trkpt>
      <trkpt lat="65.52628" lon="21.7749">
        <ele>34.351877</ele>
        <time>2020-09-26T10:03:34.895Z</time>
      </trkpt>
      <trkpt lat="65.52623" lon="21.77472">
        <ele>34.382214</ele>
        <time>2020-09-26T10:03:37.878Z</time>
      </trkpt>
      <trkpt lat="65.52617" lon="21.77454">
        <ele>34.411574</ele>
        <time>2020-09-26T10:03:40.873Z</time>
      </trkpt>
      <trkpt lat="65.52612" lon="21.77435">
        <ele>34.443365</ele>
        <time>2020-09-26T10:03:43.891Z</time>
      </trkpt>
      <trkpt lat="65.52606" lon="21.77413">
        <ele>34.478289</ele>
        <time>2020-09-26T10:03:46.883Z</time>
      </trkpt>
      <trkpt lat="65.526" lon="21.77389">
        <ele>34.51519</ele>
        <time>2020-09-26T10:03:49.889Z</time>
      </trkpt>
      <trkpt lat="65.52594" lon="21.77365">
        <ele>34.553319</ele>
        <time>2020-09-26T10:03:52.879Z</time>
      </trkpt>
      <trkpt lat="65.52588" lon="21.7734">
        <ele>34.592002</ele>
        <time>2020-09-26T10:03:55.887Z</time>
      </trkpt>
      <trkpt lat="65.52582" lon="21.77314">
        <ele>34.631502</ele>
        <time>2020-09-26T10:03:58.869Z</time>
      </trkpt>
      <trkpt lat="65.52578" lon="21.77289">
        <ele>34.668107</ele>
        <time>2020-09-26T10:04:01.890Z</time>
      </trkpt>
      <trkpt lat="65.52573" lon="21.77263">
        <ele>34.706322</ele>
        <time>2020-09-26T10:04:04.869Z</time>
      </trkpt>
      <trkpt lat="65.52568" lon="21.77234">
        <ele>34.747763</ele>
        <time>2020-09-26T10:04:07.871Z</time>
      </trkpt>
      <trkpt lat="65.52563" lon="21.77206">
        <ele>34.789471</ele>
        <time>2020-09-26T10:04:10.879Z</time>
      </trkpt>
      <trkpt lat="65.52559" lon="21.77177">
        <ele>34.834994</ele>
        <time>2020-09-26T10:04:13.875Z</time>
      </trkpt>
      <trkpt lat="65.52554" lon="21.77146">
        <ele>34.90807</ele>
        <time>2020-09-26T10:04:16.861Z</time>
      </trkpt>
      <trkpt lat="65.5255" lon="21.77125">
        <ele>34.957571</ele>
        <time>2020-09-26T10:04:18.859Z</time>
      </trkpt>
      <trkpt lat="65.52548" lon="21.77104">
        <ele>35.006049</ele>
        <time>2020-09-26T10:04:20.905Z</time>
      </trkpt>
      <trkpt lat="65.52545" lon="21.77083">
        <ele>35.05607</ele>
        <time>2020-09-26T10:04:22.899Z</time>
      </trkpt>
      <trkpt lat="65.5254" lon="21.77053">
        <ele>35.12716</ele>
        <time>2020-09-26T10:04:25.876Z</time>
      </trkpt>
      <trkpt lat="65.52536" lon="21.77023">
        <ele>35.197442</ele>
        <time>2020-09-26T10:04:28.891Z</time>
      </trkpt>
      <trkpt lat="65.52532" lon="21.76994">
        <ele>35.264543</ele>
        <time>2020-09-26T10:04:31.902Z</time>
      </trkpt>
      <trkpt lat="65.52528" lon="21.76965">
        <ele>35.334381</ele>
        <time>2020-09-26T10:04:34.879Z</time>
      </trkpt>
      <trkpt lat="65.52523" lon="21.76935">
        <ele>35.405745</ele>
        <time>2020-09-26T10:04:37.859Z</time>
      </trkpt>
      <trkpt lat="65.5252" lon="21.76905">
        <ele>35.475071</ele>
        <time>2020-09-26T10:04:40.876Z</time>
      </trkpt>
      <trkpt lat="65.52517" lon="21.76882">
        <ele>35.526537</ele>
        <time>2020-09-26T10:04:42.874Z</time>
      </trkpt>
      <trkpt lat="65.52514" lon="21.76859">
        <ele>35.579502</ele>
        <time>2020-09-26T10:04:44.914Z</time>
      </trkpt>
      <trkpt lat="65.52512" lon="21.76836">
        <ele>35.632328</ele>
        <time>2020-09-26T10:04:46.870Z</time>
      </trkpt>
      <trkpt lat="65.52509" lon="21.76814">
        <ele>35.68452</ele>
        <time>2020-09-26T10:04:48.880Z</time>
      </trkpt>
      <trkpt lat="65.52506" lon="21.76791">
        <ele>35.737777</ele>
        <time>2020-09-26T10:04:50.899Z</time>
      </trkpt>
      <trkpt lat="65.52503" lon="21.76767">
        <ele>35.796533</ele>
        <time>2020-09-26T10:04:52.867Z</time>
      </trkpt>
      <trkpt lat="65.525" lon="21.76744">
        <ele>35.927867</ele>
        <time>2020-09-26T10:04:54.871Z</time>
      </trkpt>
      <trkpt lat="65.52497" lon="21.76722">
        <ele>36.060138</ele>
        <time>2020-09-26T10:04:56.865Z</time>
      </trkpt>
      <trkpt lat="65.52493" lon="21.76699">
        <ele>36.191733</ele>
        <time>2020-09-26T10:04:58.878Z</time>
      </trkpt>
      <trkpt lat="65.5249" lon="21.76676">
        <ele>36.323705</ele>
        <time>2020-09-26T10:05:00.879Z</time>
      </trkpt>
      <trkpt lat="65.52487" lon="21.76653">
        <ele>36.455678</ele>
        <time>2020-09-26T10:05:02.903Z</time>
      </trkpt>
      <trkpt lat="65.52485" lon="21.76631">
        <ele>36.583077</ele>
        <time>2020-09-26T10:05:04.889Z</time>
      </trkpt>
      <trkpt lat="65.52482" lon="21.76608">
        <ele>36.711658</ele>
        <time>2020-09-26T10:05:06.891Z</time>
      </trkpt>
      <trkpt lat="65.52479" lon="21.76586">
        <ele>36.839461</ele>
        <time>2020-09-26T10:05:08.866Z</time>
      </trkpt>
      <trkpt lat="65.52476" lon="21.76564">
        <ele>36.963733</ele>
        <time>2020-09-26T10:05:10.865Z</time>
      </trkpt>
      <trkpt lat="65.52473" lon="21.76543">
        <ele>37.088328</ele>
        <time>2020-09-26T10:05:12.868Z</time>
      </trkpt>
      <trkpt lat="65.5247" lon="21.76523">
        <ele>37.207715</ele>
        <time>2020-09-26T10:05:14.888Z</time>
      </trkpt>
      <trkpt lat="65.52467" lon="21.76502">
        <ele>37.32783</ele>
        <time>2020-09-26T10:05:16.876Z</time>
      </trkpt>
      <trkpt lat="65.52464" lon="21.76481">
        <ele>37.449925</ele>
        <time>2020-09-26T10:05:18.896Z</time>
      </trkpt>
      <trkpt lat="65.5246" lon="21.76459">
        <ele>37.574961</ele>
        <time>2020-09-26T10:05:20.866Z</time>
      </trkpt>
      <trkpt lat="65.52457" lon="21.76438">
        <ele>37.697939</ele>
        <time>2020-09-26T10:05:22.884Z</time>
      </trkpt>
      <trkpt lat="65.52455" lon="21.76416">
        <ele>37.82174</ele>
        <time>2020-09-26T10:05:24.894Z</time>
      </trkpt>
      <trkpt lat="65.52452" lon="21.76393">
        <ele>37.954522</ele>
        <time>2020-09-26T10:05:26.866Z</time>
      </trkpt>
      <trkpt lat="65.52449" lon="21.76369">
        <ele>38.0903</ele>
        <time>2020-09-26T10:05:28.876Z</time>
      </trkpt>
      <trkpt lat="65.52446" lon="21.76346">
        <ele>38.318605</ele>
        <time>2020-09-26T10:05:30.869Z</time>
      </trkpt>
      <trkpt lat="65.52443" lon="21.76322">
        <ele>38.683667</ele>
        <time>2020-09-26T10:05:32.876Z</time>
      </trkpt>
      <trkpt lat="65.52441" lon="21.76299">
        <ele>39.029529</ele>
        <time>2020-09-26T10:05:34.870Z</time>
      </trkpt>
      <trkpt lat="65.52438" lon="21.76276">
        <ele>39.364793</ele>
        <time>2020-09-26T10:05:36.878Z</time>
      </trkpt>
      <trkpt lat="65.52435" lon="21.76254">
        <ele>39.706635</ele>
        <time>2020-09-26T10:05:38.874Z</time>
      </trkpt>
      <trkpt lat="65.52432" lon="21.76232">
        <ele>40.044014</ele>
        <time>2020-09-26T10:05:40.887Z</time>
      </trkpt>
      <trkpt lat="65.52429" lon="21.7621">
        <ele>40.385894</ele>
        <time>2020-09-26T10:05:42.862Z</time>
      </trkpt>
      <trkpt lat="65.52426" lon="21.76188">
        <ele>40.722548</ele>
        <time>2020-09-26T10:05:44.877Z</time>
      </trkpt>
      <trkpt lat="65.52423" lon="21.76166">
        <ele>41.045691</ele>
        <time>2020-09-26T10:05:46.882Z</time>
      </trkpt>
      <trkpt lat="65.5242" lon="21.76145">
        <ele>41.364351</ele>
        <time>2020-09-26T10:05:48.859Z</time>
      </trkpt>
      <trkpt lat="65.52417" lon="21.76124">
        <ele>41.690991</ele>
        <time>2020-09-26T10:05:50.901Z</time>
      </trkpt>
      <trkpt lat="65.52414" lon="21.76104">
        <ele>42.004612</ele>
        <time>2020-09-26T10:05:52.888Z</time>
      </trkpt>
      <trkpt lat="65.52409" lon="21.76074">
        <ele>42.47534</ele>
        <time>2020-09-26T10:05:55.877Z</time>
      </trkpt>
      <trkpt lat="65.52406" lon="21.76052">
        <ele>42.811649</ele>
        <time>2020-09-26T10:05:57.899Z</time>
      </trkpt>
      <trkpt lat="65.52404" lon="21.76029">
        <ele>43.159424</ele>
        <time>2020-09-26T10:05:59.876Z</time>
      </trkpt>
      <trkpt lat="65.52401" lon="21.76007">
        <ele>43.492969</ele>
        <time>2020-09-26T10:06:01.897Z</time>
      </trkpt>
      <trkpt lat="65.52398" lon="21.75984">
        <ele>43.843851</ele>
        <time>2020-09-26T10:06:03.879Z</time>
      </trkpt>
      <trkpt lat="65.52394" lon="21.75962">
        <ele>44.176641</ele>
        <time>2020-09-26T10:06:05.890Z</time>
      </trkpt>
      <trkpt lat="65.52391" lon="21.75941">
        <ele>44.427791</ele>
        <time>2020-09-26T10:06:07.862Z</time>
      </trkpt>
      <trkpt lat="65.52389" lon="21.75919">
        <ele>44.119091</ele>
        <time>2020-09-26T10:06:09.863Z</time>
      </trkpt>
      <trkpt lat="65.52386" lon="21.75897">
        <ele>43.801887</ele>
        <time>2020-09-26T10:06:11.890Z</time>
      </trkpt>
      <trkpt lat="65.52383" lon="21.75875">
        <ele>43.483643</ele>
        <time>2020-09-26T10:06:13.880Z</time>
      </trkpt>
      <trkpt lat="65.52379" lon="21.75852">
        <ele>43.158931</ele>
        <time>2020-09-26T10:06:15.877Z</time>
      </trkpt>
      <trkpt lat="65.52377" lon="21.75831">
        <ele>42.848928</ele>
        <time>2020-09-26T10:06:17.863Z</time>
      </trkpt>
      <trkpt lat="65.52374" lon="21.75809">
        <ele>42.538197</ele>
        <time>2020-09-26T10:06:19.866Z</time>
      </trkpt>
      <trkpt lat="65.5237" lon="21.75787">
        <ele>42.216304</ele>
        <time>2020-09-26T10:06:21.867Z</time>
      </trkpt>
      <trkpt lat="65.52368" lon="21.75765">
        <ele>41.909503</ele>
        <time>2020-09-26T10:06:23.903Z</time>
      </trkpt>
      <trkpt lat="65.52365" lon="21.75744">
        <ele>41.60829</ele>
        <time>2020-09-26T10:06:25.889Z</time>
      </trkpt>
      <trkpt lat="65.52362" lon="21.75722">
        <ele>41.289492</ele>
        <time>2020-09-26T10:06:27.871Z</time>
      </trkpt>
      <trkpt lat="65.52359" lon="21.75701">
        <ele>40.988858</ele>
        <time>2020-09-26T10:06:29.902Z</time>
      </trkpt>
      <trkpt lat="65.52357" lon="21.75679">
        <ele>40.685984</ele>
        <time>2020-09-26T10:06:31.861Z</time>
      </trkpt>
      <trkpt lat="65.52354" lon="21.75658">
        <ele>40.384417</ele>
        <time>2020-09-26T10:06:33.889Z</time>
      </trkpt>
      <trkpt lat="65.52351" lon="21.75637">
        <ele>40.077986</ele>
        <time>2020-09-26T10:06:35.897Z</time>
      </trkpt>
      <trkpt lat="65.52349" lon="21.75616">
        <ele>39.774763</ele>
        <time>2020-09-26T10:06:37.870Z</time>
      </trkpt>
      <trkpt lat="65.52345" lon="21.75594">
        <ele>39.460388</ele>
        <time>2020-09-26T10:06:39.865Z</time>
      </trkpt>
      <trkpt lat="65.52342" lon="21.75573">
        <ele>39.160307</ele>
        <time>2020-09-26T10:06:41.878Z</time>
      </trkpt>
      <trkpt lat="65.52339" lon="21.75552">
        <ele>38.849984</ele>
        <time>2020-09-26T10:06:43.875Z</time>
      </trkpt>
      <trkpt lat="65.52335" lon="21.75522">
        <ele>38.518214</ele>
        <time>2020-09-26T10:06:46.900Z</time>
      </trkpt>
      <trkpt lat="65.52331" lon="21.75492">
        <ele>38.435636</ele>
        <time>2020-09-26T10:06:49.867Z</time>
      </trkpt>
      <trkpt lat="65.52327" lon="21.75462">
        <ele>38.354405</ele>
        <time>2020-09-26T10:06:52.868Z</time>
      </trkpt>
      <trkpt lat="65.52324" lon="21.75432">
        <ele>38.27085</ele>
        <time>2020-09-26T10:06:55.873Z</time>
      </trkpt>
      <trkpt lat="65.5232" lon="21.75401">
        <ele>38.184444</ele>
        <time>2020-09-26T10:06:58.873Z</time>
      </trkpt>
      <trkpt lat="65.52317" lon="21.75379">
        <ele>38.123211</ele>
        <time>2020-09-26T10:07:00.876Z</time>
      </trkpt>
      <trkpt lat="65.52314" lon="21.75357">
        <ele>38.062985</ele>
        <time>2020-09-26T10:07:02.880Z</time>
      </trkpt>
      <trkpt lat="65.52311" lon="21.75335">
        <ele>38.002951</ele>
        <time>2020-09-26T10:07:04.872Z</time>
      </trkpt>
      <trkpt lat="65.52308" lon="21.75312">
        <ele>37.938363</ele>
        <time>2020-09-26T10:07:06.897Z</time>
      </trkpt>
      <trkpt lat="65.52305" lon="21.75289">
        <ele>37.874819</ele>
        <time>2020-09-26T10:07:08.874Z</time>
      </trkpt>
      <trkpt lat="65.52302" lon="21.75266">
        <ele>37.811184</ele>
        <time>2020-09-26T10:07:10.865Z</time>
      </trkpt>
      <trkpt lat="65.52299" lon="21.75243">
        <ele>37.747356</ele>
        <time>2020-09-26T10:07:12.877Z</time>
      </trkpt>
      <trkpt lat="65.52296" lon="21.75221">
        <ele>37.685807</ele>
        <time>2020-09-26T10:07:14.863Z</time>
      </trkpt>
      <trkpt lat="65.52293" lon="21.75198">
        <ele>37.623817</ele>
        <time>2020-09-26T10:07:16.877Z</time>
      </trkpt>
      <trkpt lat="65.5229" lon="21.75177">
        <ele>37.563436</ele>
        <time>2020-09-26T10:07:18.864Z</time>
      </trkpt>
      <trkpt lat="65.52287" lon="21.75156">
        <ele>37.505011</ele>
        <time>2020-09-26T10:07:20.873Z</time>
      </trkpt>
      <trkpt lat="65.52284" lon="21.75135">
        <ele>37.447085</ele>
        <time>2020-09-26T10:07:22.868Z</time>
      </trkpt>
      <trkpt lat="65.52281" lon="21.75114">
        <ele>37.384519</ele>
        <time>2020-09-26T10:07:24.884Z</time>
      </trkpt>
      <trkpt lat="65.52278" lon="21.75092">
        <ele>37.287719</ele>
        <time>2020-09-26T10:07:26.878Z</time>
      </trkpt>
      <trkpt lat="65.52276" lon="21.7507">
        <ele>37.195821</ele>
        <time>2020-09-26T10:07:28.885Z</time>
      </trkpt>
      <trkpt lat="65.52272" lon="21.7504">
        <ele>37.065769</ele>
        <time>2020-09-26T10:07:31.888Z</time>
      </trkpt>
      <trkpt lat="65.52268" lon="21.7501">
        <ele>36.934825</ele>
        <time>2020-09-26T10:07:34.897Z</time>
      </trkpt>
      <trkpt lat="65.52263" lon="21.7498">
        <ele>36.805192</ele>
        <time>2020-09-26T10:07:37.881Z</time>
      </trkpt>
      <trkpt lat="65.52259" lon="21.7495">
        <ele>36.674943</ele>
        <time>2020-09-26T10:07:40.873Z</time>
      </trkpt>
      <trkpt lat="65.52257" lon="21.74929">
        <ele>36.585954</ele>
        <time>2020-09-26T10:07:42.882Z</time>
      </trkpt>
      <trkpt lat="65.52252" lon="21.74899">
        <ele>36.453667</ele>
        <time>2020-09-26T10:07:45.904Z</time>
      </trkpt>
      <trkpt lat="65.52248" lon="21.74869">
        <ele>36.323503</ele>
        <time>2020-09-26T10:07:48.887Z</time>
      </trkpt>
      <trkpt lat="65.52244" lon="21.7484">
        <ele>36.199421</ele>
        <time>2020-09-26T10:07:51.874Z</time>
      </trkpt>
      <trkpt lat="65.5224" lon="21.7481">
        <ele>36.070253</ele>
        <time>2020-09-26T10:07:54.878Z</time>
      </trkpt>
      <trkpt lat="65.52236" lon="21.7478">
        <ele>35.943342</ele>
        <time>2020-09-26T10:07:57.898Z</time>
      </trkpt>
      <trkpt lat="65.52233" lon="21.74752">
        <ele>35.818479</ele>
        <time>2020-09-26T10:08:00.878Z</time>
      </trkpt>
      <trkpt lat="65.52229" lon="21.74723">
        <ele>35.695684</ele>
        <time>2020-09-26T10:08:03.890Z</time>
      </trkpt>
      <trkpt lat="65.52225" lon="21.74693">
        <ele>35.674081</ele>
        <time>2020-09-26T10:08:06.877Z</time>
      </trkpt>
      <trkpt lat="65.52221" lon="21.74663">
        <ele>35.848947</ele>
        <time>2020-09-26T10:08:09.927Z</time>
      </trkpt>
      <trkpt lat="65.52217" lon="21.74634">
        <ele>36.018908</ele>
        <time>2020-09-26T10:08:12.863Z</time>
      </trkpt>
      <trkpt lat="65.52214" lon="21.74604">
        <ele>36.187696</ele>
        <time>2020-09-26T10:08:15.881Z</time>
      </trkpt>
      <trkpt lat="65.5221" lon="21.74575">
        <ele>36.357021</ele>
        <time>2020-09-26T10:08:18.896Z</time>
      </trkpt>
      <trkpt lat="65.52205" lon="21.74548">
        <ele>36.51572</ele>
        <time>2020-09-26T10:08:21.878Z</time>
      </trkpt>
      <trkpt lat="65.52201" lon="21.74518">
        <ele>36.690416</ele>
        <time>2020-09-26T10:08:24.874Z</time>
      </trkpt>
      <trkpt lat="65.52197" lon="21.74488">
        <ele>36.864864</ele>
        <time>2020-09-26T10:08:27.874Z</time>
      </trkpt>
      <trkpt lat="65.52193" lon="21.74459">
        <ele>37.031329</ele>
        <time>2020-09-26T10:08:30.885Z</time>
      </trkpt>
      <trkpt lat="65.52189" lon="21.74429">
        <ele>37.20339</ele>
        <time>2020-09-26T10:08:33.878Z</time>
      </trkpt>
      <trkpt lat="65.52185" lon="21.744">
        <ele>37.37453</ele>
        <time>2020-09-26T10:08:36.890Z</time>
      </trkpt>
      <trkpt lat="65.52181" lon="21.74369">
        <ele>37.551073</ele>
        <time>2020-09-26T10:08:39.876Z</time>
      </trkpt>
      <trkpt lat="65.52178" lon="21.74348">
        <ele>37.675979</ele>
        <time>2020-09-26T10:08:41.871Z</time>
      </trkpt>
      <trkpt lat="65.52176" lon="21.74325">
        <ele>37.8053</ele>
        <time>2020-09-26T10:08:43.885Z</time>
      </trkpt>
      <trkpt lat="65.52173" lon="21.74303">
        <ele>37.931101</ele>
        <time>2020-09-26T10:08:45.866Z</time>
      </trkpt>
      <trkpt lat="65.52171" lon="21.74282">
        <ele>37.972543</ele>
        <time>2020-09-26T10:08:47.886Z</time>
      </trkpt>
      <trkpt lat="65.52168" lon="21.7426">
        <ele>37.89576</ele>
        <time>2020-09-26T10:08:49.875Z</time>
      </trkpt>
      <trkpt lat="65.52165" lon="21.74239">
        <ele>37.820774</ele>
        <time>2020-09-26T10:08:51.918Z</time>
      </trkpt>
      <trkpt lat="65.52162" lon="21.74218">
        <ele>37.746233</ele>
        <time>2020-09-26T10:08:53.889Z</time>
      </trkpt>
      <trkpt lat="65.52158" lon="21.74188">
        <ele>37.638274</ele>
        <time>2020-09-26T10:08:56.870Z</time>
      </trkpt>
      <trkpt lat="65.52155" lon="21.74167">
        <ele>37.56271</ele>
        <time>2020-09-26T10:08:58.864Z</time>
      </trkpt>
      <trkpt lat="65.52153" lon="21.74145">
        <ele>37.484184</ele>
        <time>2020-09-26T10:09:00.903Z</time>
      </trkpt>
      <trkpt lat="65.5215" lon="21.74122">
        <ele>37.403908</ele>
        <time>2020-09-26T10:09:02.903Z</time>
      </trkpt>
      <trkpt lat="65.52147" lon="21.74099">
        <ele>37.320359</ele>
        <time>2020-09-26T10:09:04.857Z</time>
      </trkpt>
      <trkpt lat="65.52145" lon="21.74075">
        <ele>37.238419</ele>
        <time>2020-09-26T10:09:06.912Z</time>
      </trkpt>
      <trkpt lat="65.52143" lon="21.74051">
        <ele>37.15553</ele>
        <time>2020-09-26T10:09:08.873Z</time>
      </trkpt>
      <trkpt lat="65.5214" lon="21.74027">
        <ele>37.069763</ele>
        <time>2020-09-26T10:09:10.877Z</time>
      </trkpt>
      <trkpt lat="65.52138" lon="21.74002">
        <ele>36.983527</ele>
        <time>2020-09-26T10:09:12.867Z</time>
      </trkpt>
      <trkpt lat="65.52136" lon="21.73978">
        <ele>36.899136</ele>
        <time>2020-09-26T10:09:14.866Z</time>
      </trkpt>
      <trkpt lat="65.52134" lon="21.73954">
        <ele>36.815413</ele>
        <time>2020-09-26T10:09:16.892Z</time>
      </trkpt>
      <trkpt lat="65.52132" lon="21.73929">
        <ele>36.73117</ele>
        <time>2020-09-26T10:09:18.872Z</time>
      </trkpt>
      <trkpt lat="65.52131" lon="21.73906">
        <ele>36.651355</ele>
        <time>2020-09-26T10:09:20.880Z</time>
      </trkpt>
      <trkpt lat="65.52129" lon="21.73884">
        <ele>36.574426</ele>
        <time>2020-09-26T10:09:22.886Z</time>
      </trkpt>
      <trkpt lat="65.52127" lon="21.7386">
        <ele>36.544728</ele>
        <time>2020-09-26T10:09:24.905Z</time>
      </trkpt>
      <trkpt lat="65.52126" lon="21.73837">
        <ele>36.584987</ele>
        <time>2020-09-26T10:09:26.874Z</time>
      </trkpt>
      <trkpt lat="65.52124" lon="21.73814">
        <ele>36.624816</ele>
        <time>2020-09-26T10:09:28.888Z</time>
      </trkpt>
      <trkpt lat="65.52122" lon="21.73791">
        <ele>36.665143</ele>
        <time>2020-09-26T10:09:30.876Z</time>
      </trkpt>
      <trkpt lat="65.5212" lon="21.73768">
        <ele>36.705983</ele>
        <time>2020-09-26T10:09:32.879Z</time>
      </trkpt>
      <trkpt lat="65.52118" lon="21.73744">
        <ele>36.74733</ele>
        <time>2020-09-26T10:09:34.874Z</time>
      </trkpt>
      <trkpt lat="65.52116" lon="21.73721">
        <ele>36.787496</ele>
        <time>2020-09-26T10:09:36.877Z</time>
      </trkpt>
      <trkpt lat="65.52114" lon="21.73699">
        <ele>36.827487</ele>
        <time>2020-09-26T10:09:38.914Z</time>
      </trkpt>
      <trkpt lat="65.52113" lon="21.73675">
        <ele>36.868354</ele>
        <time>2020-09-26T10:09:40.875Z</time>
      </trkpt>
      <trkpt lat="65.52111" lon="21.73653">
        <ele>36.907601</ele>
        <time>2020-09-26T10:09:42.860Z</time>
      </trkpt>
      <trkpt lat="65.52109" lon="21.7363">
        <ele>36.947928</ele>
        <time>2020-09-26T10:09:44.891Z</time>
      </trkpt>
      <trkpt lat="65.52107" lon="21.73607">
        <ele>36.98742</ele>
        <time>2020-09-26T10:09:46.915Z</time>
      </trkpt>
      <trkpt lat="65.52106" lon="21.73585">
        <ele>37.026018</ele>
        <time>2020-09-26T10:09:48.900Z</time>
      </trkpt>
      <trkpt lat="65.52104" lon="21.73562">
        <ele>37.065341</ele>
        <time>2020-09-26T10:09:50.866Z</time>
      </trkpt>
      <trkpt lat="65.52102" lon="21.7354">
        <ele>37.104588</ele>
        <time>2020-09-26T10:09:52.877Z</time>
      </trkpt>
      <trkpt lat="65.521" lon="21.73518">
        <ele>37.14316</ele>
        <time>2020-09-26T10:09:54.895Z</time>
      </trkpt>
      <trkpt lat="65.52098" lon="21.73495">
        <ele>37.182563</ele>
        <time>2020-09-26T10:09:56.869Z</time>
      </trkpt>
      <trkpt lat="65.52097" lon="21.73472">
        <ele>37.222317</ele>
        <time>2020-09-26T10:09:58.875Z</time>
      </trkpt>
      <trkpt lat="65.52095" lon="21.7345">
        <ele>37.261395</ele>
        <time>2020-09-26T10:10:00.864Z</time>
      </trkpt>
      <trkpt lat="65.52093" lon="21.73428">
        <ele>37.319867</ele>
        <time>2020-09-26T10:10:02.899Z</time>
      </trkpt>
      <trkpt lat="65.52091" lon="21.73407">
        <ele>37.385201</ele>
        <time>2020-09-26T10:10:04.870Z</time>
      </trkpt>
      <trkpt lat="65.52089" lon="21.73385">
        <ele>37.451136</ele>
        <time>2020-09-26T10:10:06.880Z</time>
      </trkpt>
      <trkpt lat="65.52088" lon="21.73362">
        <ele>37.518207</ele>
        <time>2020-09-26T10:10:08.865Z</time>
      </trkpt>
      <trkpt lat="65.52086" lon="21.7334">
        <ele>37.586872</ele>
        <time>2020-09-26T10:10:10.867Z</time>
      </trkpt>
      <trkpt lat="65.52084" lon="21.73317">
        <ele>37.655982</ele>
        <time>2020-09-26T10:10:12.879Z</time>
      </trkpt>
      <trkpt lat="65.52082" lon="21.73296">
        <ele>37.720006</ele>
        <time>2020-09-26T10:10:14.885Z</time>
      </trkpt>
      <trkpt lat="65.5208" lon="21.73266">
        <ele>37.80888</ele>
        <time>2020-09-26T10:10:17.913Z</time>
      </trkpt>
      <trkpt lat="65.52078" lon="21.73239">
        <ele>37.892082</ele>
        <time>2020-09-26T10:10:20.869Z</time>
      </trkpt>
      <trkpt lat="65.52075" lon="21.7321">
        <ele>37.977588</ele>
        <time>2020-09-26T10:10:23.880Z</time>
      </trkpt>
      <trkpt lat="65.52073" lon="21.73182">
        <ele>38.063545</ele>
        <time>2020-09-26T10:10:26.868Z</time>
      </trkpt>
      <trkpt lat="65.52071" lon="21.73154">
        <ele>38.147914</ele>
        <time>2020-09-26T10:10:29.860Z</time>
      </trkpt>
      <trkpt lat="65.52069" lon="21.73126">
        <ele>38.231867</ele>
        <time>2020-09-26T10:10:32.891Z</time>
      </trkpt>
      <trkpt lat="65.52068" lon="21.73099">
        <ele>38.31137</ele>
        <time>2020-09-26T10:10:35.886Z</time>
      </trkpt>
      <trkpt lat="65.52066" lon="21.73072">
        <ele>38.393518</ele>
        <time>2020-09-26T10:10:38.890Z</time>
      </trkpt>
      <trkpt lat="65.52064" lon="21.73045">
        <ele>38.475889</ele>
        <time>2020-09-26T10:10:41.887Z</time>
      </trkpt>
      <trkpt lat="65.52062" lon="21.73017">
        <ele>38.560002</ele>
        <time>2020-09-26T10:10:44.880Z</time>
      </trkpt>
      <trkpt lat="65.52061" lon="21.72992">
        <ele>38.95994</ele>
        <time>2020-09-26T10:10:47.872Z</time>
      </trkpt>
      <trkpt lat="65.52059" lon="21.72968">
        <ele>39.358183</ele>
        <time>2020-09-26T10:10:50.856Z</time>
      </trkpt>
      <trkpt lat="65.52056" lon="21.72944">
        <ele>39.752512</ele>
        <time>2020-09-26T10:10:53.875Z</time>
      </trkpt>
      <trkpt lat="65.52053" lon="21.72919">
        <ele>40.172951</ele>
        <time>2020-09-26T10:10:56.892Z</time>
      </trkpt>
      <trkpt lat="65.52051" lon="21.72894">
        <ele>40.601289</ele>
        <time>2020-09-26T10:10:59.873Z</time>
      </trkpt>
      <trkpt lat="65.52049" lon="21.72867">
        <ele>41.029158</ele>
        <time>2020-09-26T10:11:02.862Z</time>
      </trkpt>
      <trkpt lat="65.52047" lon="21.72841">
        <ele>41.468656</ele>
        <time>2020-09-26T10:11:05.877Z</time>
      </trkpt>
      <trkpt lat="65.52044" lon="21.72813">
        <ele>41.934198</ele>
        <time>2020-09-26T10:11:08.866Z</time>
      </trkpt>
      <trkpt lat="65.52043" lon="21.72785">
        <ele>42.391877</ele>
        <time>2020-09-26T10:11:11.898Z</time>
      </trkpt>
      <trkpt lat="65.52041" lon="21.72757">
        <ele>42.852669</ele>
        <time>2020-09-26T10:11:14.862Z</time>
      </trkpt>
      <trkpt lat="65.52038" lon="21.72729">
        <ele>43.315116</ele>
        <time>2020-09-26T10:11:17.881Z</time>
      </trkpt>
      <trkpt lat="65.52036" lon="21.72702">
        <ele>43.76677</ele>
        <time>2020-09-26T10:11:20.875Z</time>
      </trkpt>
      <trkpt lat="65.52033" lon="21.72674">
        <ele>44.217273</ele>
        <time>2020-09-26T10:11:23.895Z</time>
      </trkpt>
      <trkpt lat="65.52031" lon="21.72648">
        <ele>44.65923</ele>
        <time>2020-09-26T10:11:26.879Z</time>
      </trkpt>
      <trkpt lat="65.52028" lon="21.72622">
        <ele>45.090735</ele>
        <time>2020-09-26T10:11:29.874Z</time>
      </trkpt>
      <trkpt lat="65.52027" lon="21.72594">
        <ele>45.538764</ele>
        <time>2020-09-26T10:11:32.883Z</time>
      </trkpt>
      <trkpt lat="65.52026" lon="21.72565">
        <ele>45.307604</ele>
        <time>2020-09-26T10:11:35.879Z</time>
      </trkpt>
      <trkpt lat="65.52024" lon="21.72536">
        <ele>45.000589</ele>
        <time>2020-09-26T10:11:38.899Z</time>
      </trkpt>
      <trkpt lat="65.52021" lon="21.72505">
        <ele>44.684501</ele>
        <time>2020-09-26T10:11:41.875Z</time>
      </trkpt>
      <trkpt lat="65.52019" lon="21.72477">
        <ele>44.389127</ele>
        <time>2020-09-26T10:11:44.880Z</time>
      </trkpt>
      <trkpt lat="65.52017" lon="21.72447">
        <ele>44.084126</ele>
        <time>2020-09-26T10:11:47.867Z</time>
      </trkpt>
      <trkpt lat="65.52015" lon="21.72418">
        <ele>43.777244</ele>
        <time>2020-09-26T10:11:50.916Z</time>
      </trkpt>
      <trkpt lat="65.52013" lon="21.72388">
        <ele>43.467343</ele>
        <time>2020-09-26T10:11:53.884Z</time>
      </trkpt>
      <trkpt lat="65.52011" lon="21.72358">
        <ele>43.155435</ele>
        <time>2020-09-26T10:11:56.879Z</time>
      </trkpt>
      <trkpt lat="65.52009" lon="21.72328">
        <ele>42.848825</ele>
        <time>2020-09-26T10:11:59.868Z</time>
      </trkpt>
      <trkpt lat="65.52006" lon="21.72299">
        <ele>42.539932</ele>
        <time>2020-09-26T10:12:02.868Z</time>
      </trkpt>
      <trkpt lat="65.52004" lon="21.72268">
        <ele>42.222996</ele>
        <time>2020-09-26T10:12:05.870Z</time>
      </trkpt>
      <trkpt lat="65.52002" lon="21.72237">
        <ele>41.900023</ele>
        <time>2020-09-26T10:12:08.874Z</time>
      </trkpt>
      <trkpt lat="65.51999" lon="21.72207">
        <ele>41.584643</ele>
        <time>2020-09-26T10:12:11.878Z</time>
      </trkpt>
      <trkpt lat="65.51998" lon="21.72185">
        <ele>41.364161</ele>
        <time>2020-09-26T10:12:13.864Z</time>
      </trkpt>
      <trkpt lat="65.51995" lon="21.72154">
        <ele>41.125365</ele>
        <time>2020-09-26T10:12:16.866Z</time>
      </trkpt>
      <trkpt lat="65.51993" lon="21.72123">
        <ele>41.077405</ele>
        <time>2020-09-26T10:12:19.907Z</time>
      </trkpt>
      <trkpt lat="65.5199" lon="21.72091">
        <ele>41.029521</ele>
        <time>2020-09-26T10:12:22.864Z</time>
      </trkpt>
      <trkpt lat="65.51988" lon="21.7207">
        <ele>40.996924</ele>
        <time>2020-09-26T10:12:24.879Z</time>
      </trkpt>
      <trkpt lat="65.51986" lon="21.72039">
        <ele>40.948735</ele>
        <time>2020-09-26T10:12:27.878Z</time>
      </trkpt>
      <trkpt lat="65.51983" lon="21.72007">
        <ele>40.900262</ele>
        <time>2020-09-26T10:12:30.877Z</time>
      </trkpt>
      <trkpt lat="65.51981" lon="21.71976">
        <ele>40.853188</ele>
        <time>2020-09-26T10:12:33.865Z</time>
      </trkpt>
      <trkpt lat="65.51978" lon="21.71947">
        <ele>40.807663</ele>
        <time>2020-09-26T10:12:36.893Z</time>
      </trkpt>
      <trkpt lat="65.51976" lon="21.71916">
        <ele>40.760402</ele>
        <time>2020-09-26T10:12:39.883Z</time>
      </trkpt>
      <trkpt lat="65.51973" lon="21.71884">
        <ele>40.711782</ele>
        <time>2020-09-26T10:12:42.887Z</time>
      </trkpt>
      <trkpt lat="65.51972" lon="21.71862">
        <ele>40.678337</ele>
        <time>2020-09-26T10:12:44.875Z</time>
      </trkpt>
      <trkpt lat="65.5197" lon="21.71841">
        <ele>40.645257</ele>
        <time>2020-09-26T10:12:46.874Z</time>
      </trkpt>
      <trkpt lat="65.51967" lon="21.71809">
        <ele>40.596328</ele>
        <time>2020-09-26T10:12:49.897Z</time>
      </trkpt>
      <trkpt lat="65.51966" lon="21.71786">
        <ele>40.562188</ele>
        <time>2020-09-26T10:12:51.874Z</time>
      </trkpt>
      <trkpt lat="65.51964" lon="21.71763">
        <ele>40.527184</ele>
        <time>2020-09-26T10:12:53.876Z</time>
      </trkpt>
      <trkpt lat="65.51963" lon="21.71741">
        <ele>40.49245</ele>
        <time>2020-09-26T10:12:55.874Z</time>
      </trkpt>
      <trkpt lat="65.51961" lon="21.71719">
        <ele>40.361081</ele>
        <time>2020-09-26T10:12:57.878Z</time>
      </trkpt>
      <trkpt lat="65.5196" lon="21.71697">
        <ele>40.214301</ele>
        <time>2020-09-26T10:12:59.899Z</time>
      </trkpt>
      <trkpt lat="65.51958" lon="21.71675">
        <ele>40.066466</ele>
        <time>2020-09-26T10:13:01.914Z</time>
      </trkpt>
      <trkpt lat="65.51957" lon="21.71653">
        <ele>39.923205</ele>
        <time>2020-09-26T10:13:03.879Z</time>
      </trkpt>
      <trkpt lat="65.51955" lon="21.71622">
        <ele>39.711701</ele>
        <time>2020-09-26T10:13:06.887Z</time>
      </trkpt>
      <trkpt lat="65.51952" lon="21.71591">
        <ele>39.50061</ele>
        <time>2020-09-26T10:13:09.878Z</time>
      </trkpt>
      <trkpt lat="65.51951" lon="21.71569">
        <ele>39.355388</ele>
        <time>2020-09-26T10:13:11.862Z</time>
      </trkpt>
      <trkpt lat="65.51948" lon="21.71537">
        <ele>39.138758</ele>
        <time>2020-09-26T10:13:14.886Z</time>
      </trkpt>
      <trkpt lat="65.51945" lon="21.71506">
        <ele>38.927965</ele>
        <time>2020-09-26T10:13:17.895Z</time>
      </trkpt>
      <trkpt lat="65.51942" lon="21.71474">
        <ele>38.715804</ele>
        <time>2020-09-26T10:13:20.911Z</time>
      </trkpt>
      <trkpt lat="65.5194" lon="21.71443">
        <ele>38.50287</ele>
        <time>2020-09-26T10:13:23.867Z</time>
      </trkpt>
      <trkpt lat="65.51938" lon="21.71421">
        <ele>38.357484</ele>
        <time>2020-09-26T10:13:25.877Z</time>
      </trkpt>
      <trkpt lat="65.51937" lon="21.71399">
        <ele>38.213039</ele>
        <time>2020-09-26T10:13:27.874Z</time>
      </trkpt>
      <trkpt lat="65.51935" lon="21.71378">
        <ele>38.067653</ele>
        <time>2020-09-26T10:13:29.897Z</time>
      </trkpt>
      <trkpt lat="65.51934" lon="21.71356">
        <ele>37.923481</ele>
        <time>2020-09-26T10:13:31.890Z</time>
      </trkpt>
      <trkpt lat="65.51931" lon="21.71325">
        <ele>37.711692</ele>
        <time>2020-09-26T10:13:34.863Z</time>
      </trkpt>
      <trkpt lat="65.51929" lon="21.71293">
        <ele>37.666967</ele>
        <time>2020-09-26T10:13:37.899Z</time>
      </trkpt>
      <trkpt lat="65.51926" lon="21.71261">
        <ele>37.75174</ele>
        <time>2020-09-26T10:13:40.917Z</time>
      </trkpt>
      <trkpt lat="65.51923" lon="21.7123">
        <ele>37.834827</ele>
        <time>2020-09-26T10:13:43.880Z</time>
      </trkpt>
      <trkpt lat="65.51921" lon="21.71201">
        <ele>37.914179</ele>
        <time>2020-09-26T10:13:46.861Z</time>
      </trkpt>
      <trkpt lat="65.51918" lon="21.71172">
        <ele>37.991336</ele>
        <time>2020-09-26T10:13:49.868Z</time>
      </trkpt>
      <trkpt lat="65.51916" lon="21.71143">
        <ele>38.068546</ele>
        <time>2020-09-26T10:13:52.916Z</time>
      </trkpt>
      <trkpt lat="65.51914" lon="21.71112">
        <ele>38.151389</ele>
        <time>2020-09-26T10:13:55.884Z</time>
      </trkpt>
      <trkpt lat="65.51912" lon="21.71082">
        <ele>38.231007</ele>
        <time>2020-09-26T10:13:58.878Z</time>
      </trkpt>
      <trkpt lat="65.5191" lon="21.71053">
        <ele>38.309676</ele>
        <time>2020-09-26T10:14:01.882Z</time>
      </trkpt>
      <trkpt lat="65.51908" lon="21.71023">
        <ele>38.388446</ele>
        <time>2020-09-26T10:14:04.872Z</time>
      </trkpt>
      <trkpt lat="65.51906" lon="21.70994">
        <ele>38.466176</ele>
        <time>2020-09-26T10:14:07.894Z</time>
      </trkpt>
      <trkpt lat="65.51904" lon="21.70966">
        <ele>38.5409</ele>
        <time>2020-09-26T10:14:10.895Z</time>
      </trkpt>
      <trkpt lat="65.51901" lon="21.70938">
        <ele>38.618339</ele>
        <time>2020-09-26T10:14:13.869Z</time>
      </trkpt>
      <trkpt lat="65.51899" lon="21.70908">
        <ele>38.697958</ele>
        <time>2020-09-26T10:14:16.889Z</time>
      </trkpt>
      <trkpt lat="65.51896" lon="21.70877">
        <ele>38.781043</ele>
        <time>2020-09-26T10:14:19.886Z</time>
      </trkpt>
      <trkpt lat="65.51894" lon="21.70845">
        <ele>38.858838</ele>
        <time>2020-09-26T10:14:22.867Z</time>
      </trkpt>
      <trkpt lat="65.51892" lon="21.70815">
        <ele>38.934415</ele>
        <time>2020-09-26T10:14:25.875Z</time>
      </trkpt>
      <trkpt lat="65.5189" lon="21.70784">
        <ele>39.010087</ele>
        <time>2020-09-26T10:14:28.912Z</time>
      </trkpt>
      <trkpt lat="65.51887" lon="21.70755">
        <ele>39.081999</ele>
        <time>2020-09-26T10:14:31.886Z</time>
      </trkpt>
      <trkpt lat="65.51885" lon="21.70726">
        <ele>39.153964</ele>
        <time>2020-09-26T10:14:34.875Z</time>
      </trkpt>
      <trkpt lat="65.51883" lon="21.70696">
        <ele>39.227856</ele>
        <time>2020-09-26T10:14:37.904Z</time>
      </trkpt>
      <trkpt lat="65.51881" lon="21.70667">
        <ele>39.300851</ele>
        <time>2020-09-26T10:14:40.913Z</time>
      </trkpt>
      <trkpt lat="65.51879" lon="21.70637">
        <ele>39.374196</ele>
        <time>2020-09-26T10:14:43.861Z</time>
      </trkpt>
      <trkpt lat="65.51876" lon="21.70608">
        <ele>39.446982</ele>
        <time>2020-09-26T10:14:46.903Z</time>
      </trkpt>
      <trkpt lat="65.51875" lon="21.70577">
        <ele>39.522386</ele>
        <time>2020-09-26T10:14:49.867Z</time>
      </trkpt>
      <trkpt lat="65.51873" lon="21.70548">
        <ele>39.595704</ele>
        <time>2020-09-26T10:14:52.863Z</time>
      </trkpt>
      <trkpt lat="65.51872" lon="21.70517">
        <ele>39.670884</ele>
        <time>2020-09-26T10:14:55.870Z</time>
      </trkpt>
      <trkpt lat="65.51872" lon="21.70487">
        <ele>39.7431</ele>
        <time>2020-09-26T10:14:58.896Z</time>
      </trkpt>
      <trkpt lat="65.51873" lon="21.70458">
        <ele>39.813913</ele>
        <time>2020-09-26T10:15:01.872Z</time>
      </trkpt>
      <trkpt lat="65.51873" lon="21.70431">
        <ele>40.05731</ele>
        <time>2020-09-26T10:15:04.876Z</time>
      </trkpt>
      <trkpt lat="65.51873" lon="21.70403">
        <ele>40.318175</ele>
        <time>2020-09-26T10:15:07.888Z</time>
      </trkpt>
      <trkpt lat="65.51874" lon="21.70377">
        <ele>40.565404</ele>
        <time>2020-09-26T10:15:10.912Z</time>
      </trkpt>
      <trkpt lat="65.51875" lon="21.70351">
        <ele>40.813743</ele>
        <time>2020-09-26T10:15:13.874Z</time>
      </trkpt>
      <trkpt lat="65.51877" lon="21.70327">
        <ele>41.0446</ele>
        <time>2020-09-26T10:15:16.886Z</time>
      </trkpt>
      <trkpt lat="65.51878" lon="21.70298">
        <ele>41.317432</ele>
        <time>2020-09-26T10:15:20.871Z</time>
      </trkpt>
      <trkpt lat="65.51879" lon="21.7027">
        <ele>41.587194</ele>
        <time>2020-09-26T10:15:24.887Z</time>
      </trkpt>
      <trkpt lat="65.5188" lon="21.70248">
        <ele>41.792109</ele>
        <time>2020-09-26T10:15:27.882Z</time>
      </trkpt>
      <trkpt lat="65.51881" lon="21.70222">
        <ele>42.043855</ele>
        <time>2020-09-26T10:15:31.863Z</time>
      </trkpt>
      <trkpt lat="65.51882" lon="21.70197">
        <ele>42.282967</ele>
        <time>2020-09-26T10:15:35.895Z</time>
      </trkpt>
      <trkpt lat="65.51884" lon="21.70171">
        <ele>42.530099</ele>
        <time>2020-09-26T10:15:39.885Z</time>
      </trkpt>
      <trkpt lat="65.51885" lon="21.70144">
        <ele>42.785478</ele>
        <time>2020-09-26T10:15:43.885Z</time>
      </trkpt>
      <trkpt lat="65.51886" lon="21.70119">
        <ele>43.025345</ele>
        <time>2020-09-26T10:15:47.884Z</time>
      </trkpt>
      <trkpt lat="65.51887" lon="21.70096">
        <ele>43.251246</ele>
        <time>2020-09-26T10:15:51.901Z</time>
      </trkpt>
      <trkpt lat="65.51888" lon="21.70071">
        <ele>43.484923</ele>
        <time>2020-09-26T10:15:55.885Z</time>
      </trkpt>
      <trkpt lat="65.51889" lon="21.70047">
        <ele>43.713437</ele>
        <time>2020-09-26T10:15:59.888Z</time>
      </trkpt>
      <trkpt lat="65.51889" lon="21.70022">
        <ele>43.944454</ele>
        <time>2020-09-26T10:16:03.864Z</time>
      </trkpt>
      <trkpt lat="65.51891" lon="21.69996">
        <ele>44.096788</ele>
        <time>2020-09-26T10:16:07.900Z</time>
      </trkpt>
      <trkpt lat="65.51892" lon="21.69971">
        <ele>44.249075</ele>
        <time>2020-09-26T10:16:11.866Z</time>
      </trkpt>
      <trkpt lat="65.51893" lon="21.69946">
        <ele>44.395005</ele>
        <time>2020-09-26T10:16:15.883Z</time>
      </trkpt>
      <trkpt lat="65.51893" lon="21.69922">
        <ele>44.535448</ele>
        <time>2020-09-26T10:16:19.867Z</time>
      </trkpt>
      <trkpt lat="65.51895" lon="21.69896">
        <ele>44.689973</ele>
        <time>2020-09-26T10:16:23.867Z</time>
      </trkpt>
      <trkpt lat="65.51896" lon="21.69871">
        <ele>44.837596</ele>
        <time>2020-09-26T10:16:27.888Z</time>
      </trkpt>
      <trkpt lat="65.51897" lon="21.69844">
        <ele>44.997699</ele>
        <time>2020-09-26T10:16:31.878Z</time>
      </trkpt>
      <trkpt lat="65.51898" lon="21.69818">
        <ele>45.155019</ele>
        <time>2020-09-26T10:16:35.897Z</time>
      </trkpt>
      <trkpt lat="65.51899" lon="21.69796">
        <ele>45.283036</ele>
        <time>2020-09-26T10:16:38.906Z</time>
      </trkpt>
      <trkpt lat="65.519" lon="21.69768">
        <ele>45.447175</ele>
        <time>2020-09-26T10:16:42.896Z</time>
      </trkpt>
      <trkpt lat="65.51901" lon="21.69746">
        <ele>45.578313</ele>
        <time>2020-09-26T10:16:45.876Z</time>
      </trkpt>
      <trkpt lat="65.51902" lon="21.69723">
        <ele>45.714151</ele>
        <time>2020-09-26T10:16:48.884Z</time>
      </trkpt>
      <trkpt lat="65.51903" lon="21.69699">
        <ele>45.855053</ele>
        <time>2020-09-26T10:16:51.896Z</time>
      </trkpt>
      <trkpt lat="65.51903" lon="21.69676">
        <ele>45.992653</ele>
        <time>2020-09-26T10:16:54.885Z</time>
      </trkpt>
      <trkpt lat="65.51904" lon="21.69653">
        <ele>46.131252</ele>
        <time>2020-09-26T10:16:57.882Z</time>
      </trkpt>
      <trkpt lat="65.51905" lon="21.6963">
        <ele>46.267979</ele>
        <time>2020-09-26T10:17:00.877Z</time>
      </trkpt>
      <trkpt lat="65.51906" lon="21.69605">
        <ele>46.411535</ele>
        <time>2020-09-26T10:17:03.923Z</time>
      </trkpt>
      <trkpt lat="65.51908" lon="21.69581">
        <ele>46.518878</ele>
        <time>2020-09-26T10:17:06.867Z</time>
      </trkpt>
      <trkpt lat="65.51908" lon="21.69556">
        <ele>46.579357</ele>
        <time>2020-09-26T10:17:09.878Z</time>
      </trkpt>
      <trkpt lat="65.51909" lon="21.69529">
        <ele>46.64378</ele>
        <time>2020-09-26T10:17:12.896Z</time>
      </trkpt>
      <trkpt lat="65.5191" lon="21.69503">
        <ele>46.707185</ele>
        <time>2020-09-26T10:17:15.878Z</time>
      </trkpt>
      <trkpt lat="65.51912" lon="21.69477">
        <ele>46.771902</ele>
        <time>2020-09-26T10:17:18.876Z</time>
      </trkpt>
      <trkpt lat="65.51913" lon="21.6945">
        <ele>46.835251</ele>
        <time>2020-09-26T10:17:21.887Z</time>
      </trkpt>
      <trkpt lat="65.51913" lon="21.69425">
        <ele>46.89597</ele>
        <time>2020-09-26T10:17:24.903Z</time>
      </trkpt>
      <trkpt lat="65.51915" lon="21.69399">
        <ele>46.958697</ele>
        <time>2020-09-26T10:17:27.888Z</time>
      </trkpt>
      <trkpt lat="65.51916" lon="21.69373">
        <ele>47.02254</ele>
        <time>2020-09-26T10:17:30.872Z</time>
      </trkpt>
      <trkpt lat="65.51919" lon="21.69346">
        <ele>47.089262</ele>
        <time>2020-09-26T10:17:33.878Z</time>
      </trkpt>
      <trkpt lat="65.51922" lon="21.69319">
        <ele>47.155575</ele>
        <time>2020-09-26T10:17:36.882Z</time>
      </trkpt>
      <trkpt lat="65.51924" lon="21.69293">
        <ele>47.219474</ele>
        <time>2020-09-26T10:17:39.869Z</time>
      </trkpt>
      <trkpt lat="65.51927" lon="21.69267">
        <ele>47.28434</ele>
        <time>2020-09-26T10:17:42.868Z</time>
      </trkpt>
      <trkpt lat="65.51929" lon="21.69242">
        <ele>47.347009</ele>
        <time>2020-09-26T10:17:45.895Z</time>
      </trkpt>
      <trkpt lat="65.51933" lon="21.69218">
        <ele>47.408578</ele>
        <time>2020-09-26T10:17:48.887Z</time>
      </trkpt>
      <trkpt lat="65.51936" lon="21.69195">
        <ele>47.467268</ele>
        <time>2020-09-26T10:17:51.905Z</time>
      </trkpt>
      <trkpt lat="65.51939" lon="21.69171">
        <ele>47.526554</ele>
        <time>2020-09-26T10:17:54.884Z</time>
      </trkpt>
      <trkpt lat="65.51942" lon="21.69148">
        <ele>47.450789</ele>
        <time>2020-09-26T10:17:57.900Z</time>
      </trkpt>
      <trkpt lat="65.51946" lon="21.69126">
        <ele>47.348638</ele>
        <time>2020-09-26T10:18:00.885Z</time>
      </trkpt>
      <trkpt lat="65.51949" lon="21.69104">
        <ele>47.239991</ele>
        <time>2020-09-26T10:18:03.877Z</time>
      </trkpt>
      <trkpt lat="65.51953" lon="21.6908">
        <ele>47.126856</ele>
        <time>2020-09-26T10:18:06.872Z</time>
      </trkpt>
      <trkpt lat="65.51958" lon="21.69058">
        <ele>47.021772</ele>
        <time>2020-09-26T10:18:09.896Z</time>
      </trkpt>
      <trkpt lat="65.51962" lon="21.69036">
        <ele>46.913433</ele>
        <time>2020-09-26T10:18:12.870Z</time>
      </trkpt>
      <trkpt lat="65.51967" lon="21.69013">
        <ele>46.798072</ele>
        <time>2020-09-26T10:18:15.870Z</time>
      </trkpt>
      <trkpt lat="65.51971" lon="21.68988">
        <ele>46.678755</ele>
        <time>2020-09-26T10:18:18.905Z</time>
      </trkpt>
      <trkpt lat="65.51976" lon="21.68965">
        <ele>46.564321</ele>
        <time>2020-09-26T10:18:21.921Z</time>
      </trkpt>
      <trkpt lat="65.51981" lon="21.68943">
        <ele>46.455287</ele>
        <time>2020-09-26T10:18:24.881Z</time>
      </trkpt>
      <trkpt lat="65.51985" lon="21.68922">
        <ele>46.352764</ele>
        <time>2020-09-26T10:18:27.875Z</time>
      </trkpt>
      <trkpt lat="65.51989" lon="21.68902">
        <ele>46.252926</ele>
        <time>2020-09-26T10:18:30.883Z</time>
      </trkpt>
      <trkpt lat="65.51994" lon="21.6888">
        <ele>46.143403</ele>
        <time>2020-09-26T10:18:33.886Z</time>
      </trkpt>
      <trkpt lat="65.51999" lon="21.68858">
        <ele>46.031698</ele>
        <time>2020-09-26T10:18:36.879Z</time>
      </trkpt>
      <trkpt lat="65.52003" lon="21.68836">
        <ele>45.924421</ele>
        <time>2020-09-26T10:18:39.875Z</time>
      </trkpt>
      <trkpt lat="65.52008" lon="21.68813">
        <ele>45.809459</ele>
        <time>2020-09-26T10:18:42.887Z</time>
      </trkpt>
      <trkpt lat="65.52013" lon="21.68791">
        <ele>45.701102</ele>
        <time>2020-09-26T10:18:45.869Z</time>
      </trkpt>
      <trkpt lat="65.52018" lon="21.68769">
        <ele>45.584405</ele>
        <time>2020-09-26T10:18:48.874Z</time>
      </trkpt>
      <trkpt lat="65.52023" lon="21.68747">
        <ele>45.469966</ele>
        <time>2020-09-26T10:18:51.892Z</time>
      </trkpt>
      <trkpt lat="65.52028" lon="21.68721">
        <ele>45.336462</ele>
        <time>2020-09-26T10:18:54.876Z</time>
      </trkpt>
      <trkpt lat="65.52034" lon="21.68693">
        <ele>45.188543</ele>
        <time>2020-09-26T10:18:57.887Z</time>
      </trkpt>
      <trkpt lat="65.52041" lon="21.68665">
        <ele>45.039473</ele>
        <time>2020-09-26T10:19:00.863Z</time>
      </trkpt>
      <trkpt lat="65.52046" lon="21.68646">
        <ele>44.937523</ele>
        <time>2020-09-26T10:19:02.914Z</time>
      </trkpt>
      <trkpt lat="65.5205" lon="21.68627">
        <ele>44.836781</ele>
        <time>2020-09-26T10:19:04.887Z</time>
      </trkpt>
      <trkpt lat="65.52057" lon="21.686">
        <ele>44.690752</ele>
        <time>2020-09-26T10:19:07.876Z</time>
      </trkpt>
      <trkpt lat="65.52063" lon="21.68573">
        <ele>44.55128</ele>
        <time>2020-09-26T10:19:10.865Z</time>
      </trkpt>
      <trkpt lat="65.52068" lon="21.68547">
        <ele>44.415414</ele>
        <time>2020-09-26T10:19:13.897Z</time>
      </trkpt>
      <trkpt lat="65.52074" lon="21.6852">
        <ele>44.275395</ele>
        <time>2020-09-26T10:19:16.880Z</time>
      </trkpt>
      <trkpt lat="65.52079" lon="21.68493">
        <ele>44.135711</ele>
        <time>2020-09-26T10:19:19.872Z</time>
      </trkpt>
      <trkpt lat="65.52085" lon="21.68467">
        <ele>43.99827</ele>
        <time>2020-09-26T10:19:22.866Z</time>
      </trkpt>
      <trkpt lat="65.5209" lon="21.68441">
        <ele>43.864237</ele>
        <time>2020-09-26T10:19:25.878Z</time>
      </trkpt>
      <trkpt lat="65.52095" lon="21.68417">
        <ele>43.73711</ele>
        <time>2020-09-26T10:19:28.894Z</time>
      </trkpt>
      <trkpt lat="65.52101" lon="21.68393">
        <ele>43.608499</ele>
        <time>2020-09-26T10:19:31.888Z</time>
      </trkpt>
      <trkpt lat="65.52106" lon="21.68368">
        <ele>43.707869</ele>
        <time>2020-09-26T10:19:34.879Z</time>
      </trkpt>
      <trkpt lat="65.52112" lon="21.68345">
        <ele>43.812014</ele>
        <time>2020-09-26T10:19:37.874Z</time>
      </trkpt>
      <trkpt lat="65.52117" lon="21.68321">
        <ele>43.914215</ele>
        <time>2020-09-26T10:19:40.908Z</time>
      </trkpt>
      <trkpt lat="65.52121" lon="21.68296">
        <ele>44.015444</ele>
        <time>2020-09-26T10:19:43.864Z</time>
      </trkpt>
      <trkpt lat="65.52126" lon="21.68272">
        <ele>44.118402</ele>
        <time>2020-09-26T10:19:46.882Z</time>
      </trkpt>
      <trkpt lat="65.52131" lon="21.68249">
        <ele>44.218484</ele>
        <time>2020-09-26T10:19:49.903Z</time>
      </trkpt>
      <trkpt lat="65.52136" lon="21.68228">
        <ele>44.310172</ele>
        <time>2020-09-26T10:19:52.883Z</time>
      </trkpt>
      <trkpt lat="65.5214" lon="21.68207">
        <ele>44.398786</ele>
        <time>2020-09-26T10:19:55.885Z</time>
      </trkpt>
      <trkpt lat="65.52145" lon="21.68187">
        <ele>44.487342</ele>
        <time>2020-09-26T10:19:58.866Z</time>
      </trkpt>
      <trkpt lat="65.52149" lon="21.68166">
        <ele>44.574529</ele>
        <time>2020-09-26T10:20:01.927Z</time>
      </trkpt>
      <trkpt lat="65.52153" lon="21.68145">
        <ele>44.661764</ele>
        <time>2020-09-26T10:20:04.880Z</time>
      </trkpt>
      <trkpt lat="65.52157" lon="21.68125">
        <ele>44.749472</ele>
        <time>2020-09-26T10:20:07.918Z</time>
      </trkpt>
      <trkpt lat="65.52162" lon="21.68105">
        <ele>44.837904</ele>
        <time>2020-09-26T10:20:10.882Z</time>
      </trkpt>
      <trkpt lat="65.52167" lon="21.68082">
        <ele>44.938482</ele>
        <time>2020-09-26T10:20:13.881Z</time>
      </trkpt>
      <trkpt lat="65.52172" lon="21.68059">
        <ele>45.035282</ele>
        <time>2020-09-26T10:20:16.898Z</time>
      </trkpt>
      <trkpt lat="65.52177" lon="21.68037">
        <ele>45.129616</ele>
        <time>2020-09-26T10:20:19.867Z</time>
      </trkpt>
      <trkpt lat="65.52181" lon="21.68017">
        <ele>45.216824</ele>
        <time>2020-09-26T10:20:22.903Z</time>
      </trkpt>
      <trkpt lat="65.52186" lon="21.67996">
        <ele>45.27491</ele>
        <time>2020-09-26T10:20:25.892Z</time>
      </trkpt>
      <trkpt lat="65.5219" lon="21.67976">
        <ele>45.301836</ele>
        <time>2020-09-26T10:20:28.926Z</time>
      </trkpt>
      <trkpt lat="65.52195" lon="21.67957">
        <ele>45.32769</ele>
        <time>2020-09-26T10:20:31.880Z</time>
      </trkpt>
      <trkpt lat="65.522" lon="21.67932">
        <ele>45.360479</ele>
        <time>2020-09-26T10:20:35.880Z</time>
      </trkpt>
      <trkpt lat="65.52206" lon="21.67907">
        <ele>45.393394</ele>
        <time>2020-09-26T10:20:39.895Z</time>
      </trkpt>
      <trkpt lat="65.52211" lon="21.67888">
        <ele>45.418666</ele>
        <time>2020-09-26T10:20:42.900Z</time>
      </trkpt>
      <trkpt lat="65.52215" lon="21.67868">
        <ele>45.444764</ele>
        <time>2020-09-26T10:20:45.886Z</time>
      </trkpt>
      <trkpt lat="65.52218" lon="21.67848">
        <ele>45.470051</ele>
        <time>2020-09-26T10:20:48.879Z</time>
      </trkpt>
      <trkpt lat="65.52222" lon="21.67828">
        <ele>45.495762</ele>
        <time>2020-09-26T10:20:51.879Z</time>
      </trkpt>
      <trkpt lat="65.52227" lon="21.67807">
        <ele>45.523069</ele>
        <time>2020-09-26T10:20:54.916Z</time>
      </trkpt>
      <trkpt lat="65.52231" lon="21.67786">
        <ele>45.549773</ele>
        <time>2020-09-26T10:20:57.880Z</time>
      </trkpt>
      <trkpt lat="65.52236" lon="21.67764">
        <ele>45.578291</ele>
        <time>2020-09-26T10:21:00.874Z</time>
      </trkpt>
      <trkpt lat="65.52241" lon="21.67742">
        <ele>45.60808</ele>
        <time>2020-09-26T10:21:03.878Z</time>
      </trkpt>
      <trkpt lat="65.52247" lon="21.67718">
        <ele>45.640352</ele>
        <time>2020-09-26T10:21:06.939Z</time>
      </trkpt>
      <trkpt lat="65.52252" lon="21.67694">
        <ele>45.672994</ele>
        <time>2020-09-26T10:21:09.877Z</time>
      </trkpt>
      <trkpt lat="65.52257" lon="21.67668">
        <ele>45.705508</ele>
        <time>2020-09-26T10:21:12.866Z</time>
      </trkpt>
      <trkpt lat="65.52263" lon="21.67643">
        <ele>45.739303</ele>
        <time>2020-09-26T10:21:15.893Z</time>
      </trkpt>
      <trkpt lat="65.52269" lon="21.67618">
        <ele>45.806996</ele>
        <time>2020-09-26T10:21:18.867Z</time>
      </trkpt>
      <trkpt lat="65.52274" lon="21.67593">
        <ele>45.99485</ele>
        <time>2020-09-26T10:21:21.898Z</time>
      </trkpt>
      <trkpt lat="65.52279" lon="21.67566">
        <ele>46.189356</ele>
        <time>2020-09-26T10:21:24.881Z</time>
      </trkpt>
      <trkpt lat="65.52286" lon="21.67541">
        <ele>46.390751</ele>
        <time>2020-09-26T10:21:27.883Z</time>
      </trkpt>
      <trkpt lat="65.52291" lon="21.67516">
        <ele>46.583037</ele>
        <time>2020-09-26T10:21:30.880Z</time>
      </trkpt>
      <trkpt lat="65.52297" lon="21.6749">
        <ele>46.778743</ele>
        <time>2020-09-26T10:21:33.896Z</time>
      </trkpt>
      <trkpt lat="65.52302" lon="21.67465">
        <ele>46.969031</ele>
        <time>2020-09-26T10:21:36.882Z</time>
      </trkpt>
      <trkpt lat="65.52307" lon="21.67441">
        <ele>47.150686</ele>
        <time>2020-09-26T10:21:39.889Z</time>
      </trkpt>
      <trkpt lat="65.52312" lon="21.67418">
        <ele>47.331351</ele>
        <time>2020-09-26T10:21:42.879Z</time>
      </trkpt>
      <trkpt lat="65.52318" lon="21.67394">
        <ele>47.512812</ele>
        <time>2020-09-26T10:21:45.885Z</time>
      </trkpt>
      <trkpt lat="65.52322" lon="21.67373">
        <ele>47.675666</ele>
        <time>2020-09-26T10:21:48.877Z</time>
      </trkpt>
      <trkpt lat="65.52327" lon="21.6735">
        <ele>47.841655</ele>
        <time>2020-09-26T10:21:51.898Z</time>
      </trkpt>
      <trkpt lat="65.52331" lon="21.67328">
        <ele>48.010411</ele>
        <time>2020-09-26T10:21:54.899Z</time>
      </trkpt>
      <trkpt lat="65.52335" lon="21.67306">
        <ele>48.171277</ele>
        <time>2020-09-26T10:21:57.883Z</time>
      </trkpt>
      <trkpt lat="65.5234" lon="21.67284">
        <ele>48.339431</ele>
        <time>2020-09-26T10:22:00.894Z</time>
      </trkpt>
      <trkpt lat="65.52345" lon="21.67265">
        <ele>48.494107</ele>
        <time>2020-09-26T10:22:03.896Z</time>
      </trkpt>
      <trkpt lat="65.5235" lon="21.67245">
        <ele>48.651661</ele>
        <time>2020-09-26T10:22:06.877Z</time>
      </trkpt>
      <trkpt lat="65.52355" lon="21.67223">
        <ele>48.653238</ele>
        <time>2020-09-26T10:22:09.895Z</time>
      </trkpt>
      <trkpt lat="65.5236" lon="21.672">
        <ele>48.600029</ele>
        <time>2020-09-26T10:22:12.872Z</time>
      </trkpt>
      <trkpt lat="65.52365" lon="21.67177">
        <ele>48.545652</ele>
        <time>2020-09-26T10:22:15.879Z</time>
      </trkpt>
      <trkpt lat="65.52369" lon="21.67153">
        <ele>48.490144</ele>
        <time>2020-09-26T10:22:18.893Z</time>
      </trkpt>
      <trkpt lat="65.52374" lon="21.67129">
        <ele>48.433906</ele>
        <time>2020-09-26T10:22:21.895Z</time>
      </trkpt>
      <trkpt lat="65.52379" lon="21.67104">
        <ele>48.376283</ele>
        <time>2020-09-26T10:22:24.886Z</time>
      </trkpt>
      <trkpt lat="65.52384" lon="21.6708">
        <ele>48.319228</ele>
        <time>2020-09-26T10:22:27.915Z</time>
      </trkpt>
      <trkpt lat="65.52389" lon="21.67057">
        <ele>48.264389</ele>
        <time>2020-09-26T10:22:30.880Z</time>
      </trkpt>
      <trkpt lat="65.52394" lon="21.67033">
        <ele>48.207963</ele>
        <time>2020-09-26T10:22:33.892Z</time>
      </trkpt>
      <trkpt lat="65.524" lon="21.67008">
        <ele>48.149329</ele>
        <time>2020-09-26T10:22:36.882Z</time>
      </trkpt>
      <trkpt lat="65.52405" lon="21.66985">
        <ele>48.092417</ele>
        <time>2020-09-26T10:22:39.888Z</time>
      </trkpt>
      <trkpt lat="65.5241" lon="21.66961">
        <ele>48.036037</ele>
        <time>2020-09-26T10:22:42.889Z</time>
      </trkpt>
      <trkpt lat="65.52416" lon="21.66937">
        <ele>47.977679</ele>
        <time>2020-09-26T10:22:45.873Z</time>
      </trkpt>
      <trkpt lat="65.52422" lon="21.66914">
        <ele>47.919057</ele>
        <time>2020-09-26T10:22:48.867Z</time>
      </trkpt>
      <trkpt lat="65.52428" lon="21.66888">
        <ele>47.856866</ele>
        <time>2020-09-26T10:22:51.897Z</time>
      </trkpt>
      <trkpt lat="65.52433" lon="21.66863">
        <ele>47.798798</ele>
        <time>2020-09-26T10:22:54.878Z</time>
      </trkpt>
      <trkpt lat="65.52439" lon="21.66838">
        <ele>47.755494</ele>
        <time>2020-09-26T10:22:57.921Z</time>
      </trkpt>
      <trkpt lat="65.52444" lon="21.66812">
        <ele>47.718971</ele>
        <time>2020-09-26T10:23:00.880Z</time>
      </trkpt>
      <trkpt lat="65.52449" lon="21.66787">
        <ele>47.684555</ele>
        <time>2020-09-26T10:23:03.868Z</time>
      </trkpt>
      <trkpt lat="65.52454" lon="21.66763">
        <ele>47.650787</ele>
        <time>2020-09-26T10:23:06.867Z</time>
      </trkpt>
      <trkpt lat="65.52459" lon="21.66738">
        <ele>47.61571</ele>
        <time>2020-09-26T10:23:09.887Z</time>
      </trkpt>
      <trkpt lat="65.52465" lon="21.66714">
        <ele>47.580818</ele>
        <time>2020-09-26T10:23:12.891Z</time>
      </trkpt>
      <trkpt lat="65.52471" lon="21.66688">
        <ele>47.544874</ele>
        <time>2020-09-26T10:23:15.873Z</time>
      </trkpt>
      <trkpt lat="65.52476" lon="21.66663">
        <ele>47.509295</ele>
        <time>2020-09-26T10:23:18.882Z</time>
      </trkpt>
      <trkpt lat="65.52482" lon="21.66638">
        <ele>47.472547</ele>
        <time>2020-09-26T10:23:21.881Z</time>
      </trkpt>
      <trkpt lat="65.52487" lon="21.66613">
        <ele>47.438131</ele>
        <time>2020-09-26T10:23:24.922Z</time>
      </trkpt>
      <trkpt lat="65.52492" lon="21.66588">
        <ele>47.403308</ele>
        <time>2020-09-26T10:23:27.878Z</time>
      </trkpt>
      <trkpt lat="65.52497" lon="21.66564">
        <ele>47.369475</ele>
        <time>2020-09-26T10:23:30.913Z</time>
      </trkpt>
      <trkpt lat="65.52502" lon="21.66538">
        <ele>47.333556</ele>
        <time>2020-09-26T10:23:33.881Z</time>
      </trkpt>
      <trkpt lat="65.52508" lon="21.66513">
        <ele>47.297677</ele>
        <time>2020-09-26T10:23:36.903Z</time>
      </trkpt>
      <trkpt lat="65.52513" lon="21.66488">
        <ele>47.262975</ele>
        <time>2020-09-26T10:23:39.899Z</time>
      </trkpt>
      <trkpt lat="65.52519" lon="21.66463">
        <ele>47.264788</ele>
        <time>2020-09-26T10:23:42.889Z</time>
      </trkpt>
      <trkpt lat="65.52524" lon="21.6644">
        <ele>47.375095</ele>
        <time>2020-09-26T10:23:45.879Z</time>
      </trkpt>
      <trkpt lat="65.5253" lon="21.66415">
        <ele>47.487773</ele>
        <time>2020-09-26T10:23:48.885Z</time>
      </trkpt>
      <trkpt lat="65.52535" lon="21.66392">
        <ele>47.596301</ele>
        <time>2020-09-26T10:23:51.874Z</time>
      </trkpt>
      <trkpt lat="65.52541" lon="21.6637">
        <ele>47.702989</ele>
        <time>2020-09-26T10:23:54.870Z</time>
      </trkpt>
      <trkpt lat="65.52547" lon="21.66346">
        <ele>47.815905</ele>
        <time>2020-09-26T10:23:57.880Z</time>
      </trkpt>
      <trkpt lat="65.52552" lon="21.66321">
        <ele>47.926925</ele>
        <time>2020-09-26T10:24:00.884Z</time>
      </trkpt>
      <trkpt lat="65.52556" lon="21.66299">
        <ele>48.029801</ele>
        <time>2020-09-26T10:24:03.869Z</time>
      </trkpt>
      <trkpt lat="65.5256" lon="21.66279">
        <ele>48.119781</ele>
        <time>2020-09-26T10:24:06.895Z</time>
      </trkpt>
      <trkpt lat="65.52565" lon="21.66256">
        <ele>48.219699</ele>
        <time>2020-09-26T10:24:10.917Z</time>
      </trkpt>
      <trkpt lat="65.5257" lon="21.66231">
        <ele>48.336922</ele>
        <time>2020-09-26T10:24:14.878Z</time>
      </trkpt>
      <trkpt lat="65.52574" lon="21.66212">
        <ele>48.424929</ele>
        <time>2020-09-26T10:24:17.890Z</time>
      </trkpt>
      <trkpt lat="65.52578" lon="21.66192">
        <ele>48.513224</ele>
        <time>2020-09-26T10:24:20.899Z</time>
      </trkpt>
      <trkpt lat="65.52582" lon="21.66171">
        <ele>48.604119</ele>
        <time>2020-09-26T10:24:23.888Z</time>
      </trkpt>
      <trkpt lat="65.52586" lon="21.6615">
        <ele>48.701167</ele>
        <time>2020-09-26T10:24:26.916Z</time>
      </trkpt>
      <trkpt lat="65.52591" lon="21.66129">
        <ele>48.800329</ele>
        <time>2020-09-26T10:24:29.881Z</time>
      </trkpt>
      <trkpt lat="65.52596" lon="21.66106">
        <ele>48.904482</ele>
        <time>2020-09-26T10:24:32.869Z</time>
      </trkpt>
      <trkpt lat="65.52601" lon="21.66085">
        <ele>49.007849</ele>
        <time>2020-09-26T10:24:35.876Z</time>
      </trkpt>
      <trkpt lat="65.52606" lon="21.66064">
        <ele>49.338612</ele>
        <time>2020-09-26T10:24:38.882Z</time>
      </trkpt>
      <trkpt lat="65.52611" lon="21.6604">
        <ele>49.715145</ele>
        <time>2020-09-26T10:24:41.909Z</time>
      </trkpt>
      <trkpt lat="65.52616" lon="21.66016">
        <ele>50.086415</ele>
        <time>2020-09-26T10:24:44.878Z</time>
      </trkpt>
      <trkpt lat="65.52621" lon="21.65991">
        <ele>50.477927</ele>
        <time>2020-09-26T10:24:47.875Z</time>
      </trkpt>
      <trkpt lat="65.52626" lon="21.65966">
        <ele>50.87274</ele>
        <time>2020-09-26T10:24:50.904Z</time>
      </trkpt>
      <trkpt lat="65.52632" lon="21.6594">
        <ele>51.279991</ele>
        <time>2020-09-26T10:24:53.898Z</time>
      </trkpt>
      <trkpt lat="65.52637" lon="21.65914">
        <ele>51.692595</ele>
        <time>2020-09-26T10:24:56.882Z</time>
      </trkpt>
      <trkpt lat="65.52643" lon="21.65888">
        <ele>52.0983</ele>
        <time>2020-09-26T10:24:59.891Z</time>
      </trkpt>
      <trkpt lat="65.52649" lon="21.65862">
        <ele>52.510552</ele>
        <time>2020-09-26T10:25:02.872Z</time>
      </trkpt>
      <trkpt lat="65.52653" lon="21.65833">
        <ele>52.941669</ele>
        <time>2020-09-26T10:25:05.883Z</time>
      </trkpt>
      <trkpt lat="65.52657" lon="21.65804">
        <ele>53.372648</ele>
        <time>2020-09-26T10:25:08.929Z</time>
      </trkpt>
      <trkpt lat="65.52661" lon="21.65775">
        <ele>53.798566</ele>
        <time>2020-09-26T10:25:11.884Z</time>
      </trkpt>
      <trkpt lat="65.52665" lon="21.65746">
        <ele>54.223315</ele>
        <time>2020-09-26T10:25:14.894Z</time>
      </trkpt>
      <trkpt lat="65.52668" lon="21.65716">
        <ele>54.646303</ele>
        <time>2020-09-26T10:25:17.892Z</time>
      </trkpt>
      <trkpt lat="65.52671" lon="21.6569">
        <ele>55.03114</ele>
        <time>2020-09-26T10:25:20.883Z</time>
      </trkpt>
      <trkpt lat="65.52673" lon="21.65662">
        <ele>55.147248</ele>
        <time>2020-09-26T10:25:23.889Z</time>
      </trkpt>
      <trkpt lat="65.52675" lon="21.65636">
        <ele>55.23732</ele>
        <time>2020-09-26T10:25:26.914Z</time>
      </trkpt>
      <trkpt lat="65.52677" lon="21.6561">
        <ele>55.325814</ele>
        <time>2020-09-26T10:25:29.894Z</time>
      </trkpt>
      <trkpt lat="65.52678" lon="21.65586">
        <ele>55.406967</ele>
        <time>2020-09-26T10:25:32.869Z</time>
      </trkpt>
      <trkpt lat="65.52679" lon="21.65561">
        <ele>55.493455</ele>
        <time>2020-09-26T10:25:35.870Z</time>
      </trkpt>
      <trkpt lat="65.52681" lon="21.65535">
        <ele>55.579747</ele>
        <time>2020-09-26T10:25:38.880Z</time>
      </trkpt>
      <trkpt lat="65.52683" lon="21.6551">
        <ele>55.666368</ele>
        <time>2020-09-26T10:25:41.884Z</time>
      </trkpt>
      <trkpt lat="65.52685" lon="21.65485">
        <ele>55.750766</ele>
        <time>2020-09-26T10:25:45.886Z</time>
      </trkpt>
      <trkpt lat="65.52683" lon="21.65457">
        <ele>55.845021</ele>
        <time>2020-09-26T10:27:36.891Z</time>
      </trkpt>
      <trkpt lat="65.52682" lon="21.6543">
        <ele>55.935383</ele>
        <time>2020-09-26T10:27:41.891Z</time>
      </trkpt>
      <trkpt lat="65.52682" lon="21.65403">
        <ele>56.026038</ele>
        <time>2020-09-26T10:27:45.903Z</time>
      </trkpt>
      <trkpt lat="65.52682" lon="21.65381">
        <ele>56.101679</ele>
        <time>2020-09-26T10:27:48.914Z</time>
      </trkpt>
      <trkpt lat="65.52681" lon="21.65357">
        <ele>56.181108</ele>
        <time>2020-09-26T10:27:51.899Z</time>
      </trkpt>
      <trkpt lat="65.5268" lon="21.65332">
        <ele>56.26623</ele>
        <time>2020-09-26T10:27:54.878Z</time>
      </trkpt>
      <trkpt lat="65.52679" lon="21.65305">
        <ele>56.35748</ele>
        <time>2020-09-26T10:27:57.876Z</time>
      </trkpt>
      <trkpt lat="65.52677" lon="21.65278">
        <ele>56.449264</ele>
        <time>2020-09-26T10:28:00.889Z</time>
      </trkpt>
      <trkpt lat="65.52676" lon="21.65254">
        <ele>56.512224</ele>
        <time>2020-09-26T10:28:03.872Z</time>
      </trkpt>
      <trkpt lat="65.52674" lon="21.65228">
        <ele>56.460917</ele>
        <time>2020-09-26T10:28:06.909Z</time>
      </trkpt>
      <trkpt lat="65.52671" lon="21.652">
        <ele>56.403719</ele>
        <time>2020-09-26T10:28:09.879Z</time>
      </trkpt>
      <trkpt lat="65.5267" lon="21.65171">
        <ele>56.345212</ele>
        <time>2020-09-26T10:28:12.878Z</time>
      </trkpt>
      <trkpt lat="65.52669" lon="21.65142">
        <ele>56.286258</ele>
        <time>2020-09-26T10:28:15.873Z</time>
      </trkpt>
      <trkpt lat="65.52667" lon="21.65119">
        <ele>56.241172</ele>
        <time>2020-09-26T10:28:17.911Z</time>
      </trkpt>
      <trkpt lat="65.52665" lon="21.65098">
        <ele>56.197736</ele>
        <time>2020-09-26T10:28:19.912Z</time>
      </trkpt>
      <trkpt lat="65.52663" lon="21.65066">
        <ele>56.133938</ele>
        <time>2020-09-26T10:28:22.877Z</time>
      </trkpt>
      <trkpt lat="65.52661" lon="21.65035">
        <ele>56.070026</ele>
        <time>2020-09-26T10:28:25.878Z</time>
      </trkpt>
      <trkpt lat="65.52659" lon="21.65013">
        <ele>56.025691</ele>
        <time>2020-09-26T10:28:27.863Z</time>
      </trkpt>
      <trkpt lat="65.52658" lon="21.64991">
        <ele>55.981972</ele>
        <time>2020-09-26T10:28:29.905Z</time>
      </trkpt>
      <trkpt lat="65.52656" lon="21.64968">
        <ele>55.934732</ele>
        <time>2020-09-26T10:28:31.876Z</time>
      </trkpt>
      <trkpt lat="65.52654" lon="21.64944">
        <ele>55.886513</ele>
        <time>2020-09-26T10:28:33.901Z</time>
      </trkpt>
      <trkpt lat="65.52652" lon="21.64919">
        <ele>55.836056</ele>
        <time>2020-09-26T10:28:35.875Z</time>
      </trkpt>
      <trkpt lat="65.5265" lon="21.64892">
        <ele>55.780632</ele>
        <time>2020-09-26T10:28:37.872Z</time>
      </trkpt>
      <trkpt lat="65.52648" lon="21.64865">
        <ele>55.726006</ele>
        <time>2020-09-26T10:28:39.881Z</time>
      </trkpt>
      <trkpt lat="65.52646" lon="21.64837">
        <ele>55.670878</ele>
        <time>2020-09-26T10:28:41.897Z</time>
      </trkpt>
      <trkpt lat="65.52644" lon="21.6481">
        <ele>55.262815</ele>
        <time>2020-09-26T10:28:43.901Z</time>
      </trkpt>
      <trkpt lat="65.52641" lon="21.64782">
        <ele>54.710127</ele>
        <time>2020-09-26T10:28:45.880Z</time>
      </trkpt>
      <trkpt lat="65.52639" lon="21.64754">
        <ele>54.163003</ele>
        <time>2020-09-26T10:28:47.904Z</time>
      </trkpt>
      <trkpt lat="65.52636" lon="21.64726">
        <ele>53.614833</ele>
        <time>2020-09-26T10:28:49.918Z</time>
      </trkpt>
      <trkpt lat="65.52633" lon="21.64699">
        <ele>53.076243</ele>
        <time>2020-09-26T10:28:51.882Z</time>
      </trkpt>
      <trkpt lat="65.52631" lon="21.64672">
        <ele>52.535807</ele>
        <time>2020-09-26T10:28:53.882Z</time>
      </trkpt>
      <trkpt lat="65.52629" lon="21.64644">
        <ele>51.997217</ele>
        <time>2020-09-26T10:28:55.882Z</time>
      </trkpt>
      <trkpt lat="65.52626" lon="21.64619">
        <ele>51.494494</ele>
        <time>2020-09-26T10:28:57.898Z</time>
      </trkpt>
      <trkpt lat="65.52625" lon="21.64593">
        <ele>50.990494</ele>
        <time>2020-09-26T10:28:59.886Z</time>
      </trkpt>
      <trkpt lat="65.52622" lon="21.64567">
        <ele>50.479238</ele>
        <time>2020-09-26T10:29:01.897Z</time>
      </trkpt>
      <trkpt lat="65.5262" lon="21.64542">
        <ele>49.983074</ele>
        <time>2020-09-26T10:29:03.895Z</time>
      </trkpt>
      <trkpt lat="65.52618" lon="21.64517">
        <ele>49.491551</ele>
        <time>2020-09-26T10:29:05.922Z</time>
      </trkpt>
      <trkpt lat="65.52617" lon="21.64492">
        <ele>49.004269</ele>
        <time>2020-09-26T10:29:07.875Z</time>
      </trkpt>
      <trkpt lat="65.52615" lon="21.64467">
        <ele>48.522217</ele>
        <time>2020-09-26T10:29:09.887Z</time>
      </trkpt>
      <trkpt lat="65.52614" lon="21.64441">
        <ele>48.015866</ele>
        <time>2020-09-26T10:29:11.876Z</time>
      </trkpt>
      <trkpt lat="65.52611" lon="21.64413">
        <ele>47.472601</ele>
        <time>2020-09-26T10:29:13.889Z</time>
      </trkpt>
      <trkpt lat="65.52608" lon="21.64383">
        <ele>46.868931</ele>
        <time>2020-09-26T10:29:15.919Z</time>
      </trkpt>
      <trkpt lat="65.52606" lon="21.64351">
        <ele>46.258937</ele>
        <time>2020-09-26T10:29:17.896Z</time>
      </trkpt>
      <trkpt lat="65.52603" lon="21.64319">
        <ele>45.632411</ele>
        <time>2020-09-26T10:29:19.892Z</time>
      </trkpt>
      <trkpt lat="65.526" lon="21.6429">
        <ele>45.040832</ele>
        <time>2020-09-26T10:29:21.907Z</time>
      </trkpt>
      <trkpt lat="65.52595" lon="21.64261">
        <ele>44.453933</ele>
        <time>2020-09-26T10:29:23.878Z</time>
      </trkpt>
      <trkpt lat="65.5259" lon="21.64233">
        <ele>43.870839</ele>
        <time>2020-09-26T10:29:25.873Z</time>
      </trkpt>
      <trkpt lat="65.52585" lon="21.64207">
        <ele>43.304759</ele>
        <time>2020-09-26T10:29:27.879Z</time>
      </trkpt>
      <trkpt lat="65.5258" lon="21.64181">
        <ele>42.749025</ele>
        <time>2020-09-26T10:29:29.884Z</time>
      </trkpt>
      <trkpt lat="65.52575" lon="21.64155">
        <ele>42.20424</ele>
        <time>2020-09-26T10:29:31.870Z</time>
      </trkpt>
      <trkpt lat="65.5257" lon="21.64131">
        <ele>41.697582</ele>
        <time>2020-09-26T10:29:33.899Z</time>
      </trkpt>
      <trkpt lat="65.52565" lon="21.64109">
        <ele>41.21732</ele>
        <time>2020-09-26T10:29:35.879Z</time>
      </trkpt>
      <trkpt lat="65.5256" lon="21.64088">
        <ele>40.748919</ele>
        <time>2020-09-26T10:29:37.877Z</time>
      </trkpt>
      <trkpt lat="65.52556" lon="21.64067">
        <ele>40.298885</ele>
        <time>2020-09-26T10:29:39.906Z</time>
      </trkpt>
      <trkpt lat="65.52551" lon="21.64046">
        <ele>39.844978</ele>
        <time>2020-09-26T10:29:41.897Z</time>
      </trkpt>
      <trkpt lat="65.52546" lon="21.64028">
        <ele>39.425498</ele>
        <time>2020-09-26T10:29:43.879Z</time>
      </trkpt>
      <trkpt lat="65.52539" lon="21.64001">
        <ele>39.00421</ele>
        <time>2020-09-26T10:29:46.915Z</time>
      </trkpt>
      <trkpt lat="65.52535" lon="21.63982">
        <ele>39.120458</ele>
        <time>2020-09-26T10:29:48.870Z</time>
      </trkpt>
      <trkpt lat="65.5253" lon="21.63962">
        <ele>39.243979</ele>
        <time>2020-09-26T10:29:50.897Z</time>
      </trkpt>
      <trkpt lat="65.52525" lon="21.63944">
        <ele>39.359089</ele>
        <time>2020-09-26T10:29:52.883Z</time>
      </trkpt>
      <trkpt lat="65.52517" lon="21.63918">
        <ele>39.531016</ele>
        <time>2020-09-26T10:29:55.886Z</time>
      </trkpt>
      <trkpt lat="65.52512" lon="21.639">
        <ele>39.647139</ele>
        <time>2020-09-26T10:29:57.897Z</time>
      </trkpt>
      <trkpt lat="65.52506" lon="21.63883">
        <ele>39.762548</ele>
        <time>2020-09-26T10:29:59.898Z</time>
      </trkpt>
      <trkpt lat="65.52501" lon="21.63864">
        <ele>39.880278</ele>
        <time>2020-09-26T10:30:01.878Z</time>
      </trkpt>
      <trkpt lat="65.52496" lon="21.63847">
        <ele>39.995686</ele>
        <time>2020-09-26T10:30:03.900Z</time>
      </trkpt>
      <trkpt lat="65.5249" lon="21.6383">
        <ele>40.11314</ele>
        <time>2020-09-26T10:30:05.895Z</time>
      </trkpt>
      <trkpt lat="65.52482" lon="21.63804">
        <ele>40.286573</ele>
        <time>2020-09-26T10:30:08.900Z</time>
      </trkpt>
      <trkpt lat="65.52475" lon="21.63787">
        <ele>40.40724</ele>
        <time>2020-09-26T10:30:10.875Z</time>
      </trkpt>
      <trkpt lat="65.52469" lon="21.63771">
        <ele>40.528253</ele>
        <time>2020-09-26T10:30:12.902Z</time>
      </trkpt>
      <trkpt lat="65.52462" lon="21.63755">
        <ele>40.646388</ele>
        <time>2020-09-26T10:30:14.889Z</time>
      </trkpt>
      <trkpt lat="65.52455" lon="21.63738">
        <ele>40.772043</ele>
        <time>2020-09-26T10:30:16.865Z</time>
      </trkpt>
      <trkpt lat="65.52449" lon="21.63722">
        <ele>40.89629</ele>
        <time>2020-09-26T10:30:18.914Z</time>
      </trkpt>
      <trkpt lat="65.52441" lon="21.63706">
        <ele>41.024271</ele>
        <time>2020-09-26T10:30:20.875Z</time>
      </trkpt>
      <trkpt lat="65.52433" lon="21.63691">
        <ele>41.153566</ele>
        <time>2020-09-26T10:30:22.875Z</time>
      </trkpt>
      <trkpt lat="65.52425" lon="21.63678">
        <ele>41.274945</ele>
        <time>2020-09-26T10:30:24.877Z</time>
      </trkpt>
      <trkpt lat="65.52418" lon="21.63664">
        <ele>41.4326</ele>
        <time>2020-09-26T10:30:26.913Z</time>
      </trkpt>
      <trkpt lat="65.5241" lon="21.63652">
        <ele>41.592078</ele>
        <time>2020-09-26T10:30:28.877Z</time>
      </trkpt>
      <trkpt lat="65.52402" lon="21.6364">
        <ele>41.753549</ele>
        <time>2020-09-26T10:30:30.882Z</time>
      </trkpt>
      <trkpt lat="65.52394" lon="21.63628">
        <ele>41.917262</ele>
        <time>2020-09-26T10:30:32.891Z</time>
      </trkpt>
      <trkpt lat="65.52386" lon="21.63617">
        <ele>42.077252</ele>
        <time>2020-09-26T10:30:34.895Z</time>
      </trkpt>
      <trkpt lat="65.52378" lon="21.63605">
        <ele>42.237994</ele>
        <time>2020-09-26T10:30:36.893Z</time>
      </trkpt>
      <trkpt lat="65.5237" lon="21.63593">
        <ele>42.401297</ele>
        <time>2020-09-26T10:30:38.881Z</time>
      </trkpt>
      <trkpt lat="65.52361" lon="21.63581">
        <ele>42.572307</ele>
        <time>2020-09-26T10:30:40.882Z</time>
      </trkpt>
      <trkpt lat="65.52353" lon="21.63569">
        <ele>42.734134</ele>
        <time>2020-09-26T10:30:42.891Z</time>
      </trkpt>
      <trkpt lat="65.52345" lon="21.63557">
        <ele>42.898161</ele>
        <time>2020-09-26T10:30:44.869Z</time>
      </trkpt>
      <trkpt lat="65.52337" lon="21.63545">
        <ele>43.061923</ele>
        <time>2020-09-26T10:30:46.891Z</time>
      </trkpt>
      <trkpt lat="65.52329" lon="21.63532">
        <ele>43.231822</ele>
        <time>2020-09-26T10:30:48.896Z</time>
      </trkpt>
      <trkpt lat="65.5232" lon="21.63521">
        <ele>43.3966</ele>
        <time>2020-09-26T10:30:50.873Z</time>
      </trkpt>
      <trkpt lat="65.52312" lon="21.63509">
        <ele>43.566541</ele>
        <time>2020-09-26T10:30:52.875Z</time>
      </trkpt>
      <trkpt lat="65.52303" lon="21.63497">
        <ele>43.742807</ele>
        <time>2020-09-26T10:30:54.876Z</time>
      </trkpt>
      <trkpt lat="65.52294" lon="21.63484">
        <ele>43.923012</ele>
        <time>2020-09-26T10:30:56.894Z</time>
      </trkpt>
      <trkpt lat="65.52285" lon="21.63472">
        <ele>44.099897</ele>
        <time>2020-09-26T10:30:58.881Z</time>
      </trkpt>
      <trkpt lat="65.52276" lon="21.63459">
        <ele>44.277554</ele>
        <time>2020-09-26T10:31:00.874Z</time>
      </trkpt>
      <trkpt lat="65.52267" lon="21.63446">
        <ele>44.297606</ele>
        <time>2020-09-26T10:31:02.877Z</time>
      </trkpt>
      <trkpt lat="65.52258" lon="21.63432">
        <ele>44.194525</ele>
        <time>2020-09-26T10:31:04.878Z</time>
      </trkpt>
      <trkpt lat="65.52248" lon="21.63418">
        <ele>44.086272</ele>
        <time>2020-09-26T10:31:06.875Z</time>
      </trkpt>
      <trkpt lat="65.52238" lon="21.63403">
        <ele>43.972633</ele>
        <time>2020-09-26T10:31:08.885Z</time>
      </trkpt>
      <trkpt lat="65.52228" lon="21.63389">
        <ele>43.860436</ele>
        <time>2020-09-26T10:31:10.923Z</time>
      </trkpt>
      <trkpt lat="65.52218" lon="21.63376">
        <ele>43.750081</ele>
        <time>2020-09-26T10:31:12.870Z</time>
      </trkpt>
      <trkpt lat="65.52208" lon="21.63362">
        <ele>43.639855</ele>
        <time>2020-09-26T10:31:14.896Z</time>
      </trkpt>
      <trkpt lat="65.52198" lon="21.63348">
        <ele>43.529532</ele>
        <time>2020-09-26T10:31:16.893Z</time>
      </trkpt>
      <trkpt lat="65.52189" lon="21.63334">
        <ele>43.422706</ele>
        <time>2020-09-26T10:31:18.882Z</time>
      </trkpt>
      <trkpt lat="65.5218" lon="21.63321">
        <ele>43.319436</ele>
        <time>2020-09-26T10:31:20.886Z</time>
      </trkpt>
      <trkpt lat="65.52171" lon="21.63307">
        <ele>43.218026</ele>
        <time>2020-09-26T10:31:22.899Z</time>
      </trkpt>
      <trkpt lat="65.52163" lon="21.63294">
        <ele>43.118858</ele>
        <time>2020-09-26T10:31:24.896Z</time>
      </trkpt>
      <trkpt lat="65.52154" lon="21.63279">
        <ele>43.018165</ele>
        <time>2020-09-26T10:31:26.875Z</time>
      </trkpt>
      <trkpt lat="65.52146" lon="21.63264">
        <ele>42.9152</ele>
        <time>2020-09-26T10:31:28.880Z</time>
      </trkpt>
      <trkpt lat="65.52137" lon="21.63249">
        <ele>42.815052</ele>
        <time>2020-09-26T10:31:30.888Z</time>
      </trkpt>
      <trkpt lat="65.52129" lon="21.63236">
        <ele>42.719231</ele>
        <time>2020-09-26T10:31:32.902Z</time>
      </trkpt>
      <trkpt lat="65.52121" lon="21.63222">
        <ele>42.622936</ele>
        <time>2020-09-26T10:31:34.896Z</time>
      </trkpt>
      <trkpt lat="65.52113" lon="21.63209">
        <ele>42.683697</ele>
        <time>2020-09-26T10:31:36.883Z</time>
      </trkpt>
      <trkpt lat="65.52105" lon="21.63195">
        <ele>42.761271</ele>
        <time>2020-09-26T10:31:38.881Z</time>
      </trkpt>
      <trkpt lat="65.52098" lon="21.63183">
        <ele>42.835808</ele>
        <time>2020-09-26T10:31:40.895Z</time>
      </trkpt>
      <trkpt lat="65.5209" lon="21.6317">
        <ele>42.910733</ele>
        <time>2020-09-26T10:31:42.897Z</time>
      </trkpt>
      <trkpt lat="65.5208" lon="21.63151">
        <ele>43.017852</ele>
        <time>2020-09-26T10:31:45.895Z</time>
      </trkpt>
      <trkpt lat="65.52069" lon="21.63132">
        <ele>43.126158</ele>
        <time>2020-09-26T10:31:48.892Z</time>
      </trkpt>
      <trkpt lat="65.52058" lon="21.63113">
        <ele>43.236011</ele>
        <time>2020-09-26T10:31:51.890Z</time>
      </trkpt>
      <trkpt lat="65.52049" lon="21.63094">
        <ele>43.338388</ele>
        <time>2020-09-26T10:31:54.903Z</time>
      </trkpt>
      <trkpt lat="65.52039" lon="21.63075">
        <ele>43.43741</ele>
        <time>2020-09-26T10:31:57.876Z</time>
      </trkpt>
      <trkpt lat="65.5203" lon="21.63056">
        <ele>43.537879</ele>
        <time>2020-09-26T10:32:00.893Z</time>
      </trkpt>
      <trkpt lat="65.52021" lon="21.63038">
        <ele>43.631813</ele>
        <time>2020-09-26T10:32:03.878Z</time>
      </trkpt>
      <trkpt lat="65.52012" lon="21.63021">
        <ele>43.727609</ele>
        <time>2020-09-26T10:32:06.880Z</time>
      </trkpt>
      <trkpt lat="65.52003" lon="21.63002">
        <ele>43.827881</ele>
        <time>2020-09-26T10:32:09.862Z</time>
      </trkpt>
      <trkpt lat="65.51994" lon="21.62982">
        <ele>43.928763</ele>
        <time>2020-09-26T10:32:12.897Z</time>
      </trkpt>
      <trkpt lat="65.51984" lon="21.62963">
        <ele>44.029241</ele>
        <time>2020-09-26T10:32:15.920Z</time>
      </trkpt>
      <trkpt lat="65.51974" lon="21.62943">
        <ele>43.998691</ele>
        <time>2020-09-26T10:32:18.884Z</time>
      </trkpt>
      <trkpt lat="65.51964" lon="21.62925">
        <ele>43.824979</ele>
        <time>2020-09-26T10:32:21.912Z</time>
      </trkpt>
      <trkpt lat="65.51954" lon="21.62908">
        <ele>43.653749</ele>
        <time>2020-09-26T10:32:24.874Z</time>
      </trkpt>
      <trkpt lat="65.51944" lon="21.62888">
        <ele>43.472677</ele>
        <time>2020-09-26T10:32:27.901Z</time>
      </trkpt>
      <trkpt lat="65.51934" lon="21.62868">
        <ele>43.289408</ele>
        <time>2020-09-26T10:32:30.902Z</time>
      </trkpt>
      <trkpt lat="65.51927" lon="21.62855">
        <ele>43.164572</ele>
        <time>2020-09-26T10:32:32.904Z</time>
      </trkpt>
      <trkpt lat="65.5192" lon="21.62841">
        <ele>43.038626</ele>
        <time>2020-09-26T10:32:34.882Z</time>
      </trkpt>
      <trkpt lat="65.5191" lon="21.62821">
        <ele>42.853911</ele>
        <time>2020-09-26T10:32:37.867Z</time>
      </trkpt>
      <trkpt lat="65.51899" lon="21.62802">
        <ele>42.669089</ele>
        <time>2020-09-26T10:32:40.893Z</time>
      </trkpt>
      <trkpt lat="65.51889" lon="21.62782">
        <ele>42.484749</ele>
        <time>2020-09-26T10:32:43.929Z</time>
      </trkpt>
      <trkpt lat="65.51882" lon="21.62769">
        <ele>42.355839</ele>
        <time>2020-09-26T10:32:45.895Z</time>
      </trkpt>
      <trkpt lat="65.51874" lon="21.62753">
        <ele>42.217562</ele>
        <time>2020-09-26T10:32:47.874Z</time>
      </trkpt>
      <trkpt lat="65.51866" lon="21.62737">
        <ele>42.070951</ele>
        <time>2020-09-26T10:32:49.926Z</time>
      </trkpt>
      <trkpt lat="65.51858" lon="21.62721">
        <ele>41.92397</ele>
        <time>2020-09-26T10:32:51.869Z</time>
      </trkpt>
      <trkpt lat="65.5185" lon="21.62702">
        <ele>41.76954</ele>
        <time>2020-09-26T10:32:53.880Z</time>
      </trkpt>
      <trkpt lat="65.51842" lon="21.62682">
        <ele>41.603608</ele>
        <time>2020-09-26T10:32:55.881Z</time>
      </trkpt>
      <trkpt lat="65.51833" lon="21.62659">
        <ele>41.394312</ele>
        <time>2020-09-26T10:32:57.872Z</time>
      </trkpt>
      <trkpt lat="65.51824" lon="21.62638">
        <ele>41.177697</ele>
        <time>2020-09-26T10:32:59.894Z</time>
      </trkpt>
      <trkpt lat="65.51815" lon="21.62614">
        <ele>40.949748</ele>
        <time>2020-09-26T10:33:01.892Z</time>
      </trkpt>
      <trkpt lat="65.51806" lon="21.6259">
        <ele>40.722965</ele>
        <time>2020-09-26T10:33:03.879Z</time>
      </trkpt>
      <trkpt lat="65.51797" lon="21.62566">
        <ele>40.49228</ele>
        <time>2020-09-26T10:33:05.871Z</time>
      </trkpt>
      <trkpt lat="65.51789" lon="21.62542">
        <ele>40.272612</ele>
        <time>2020-09-26T10:33:07.921Z</time>
      </trkpt>
      <trkpt lat="65.51781" lon="21.62517">
        <ele>40.051852</ele>
        <time>2020-09-26T10:33:09.891Z</time>
      </trkpt>
      <trkpt lat="65.51772" lon="21.62493">
        <ele>39.821815</ele>
        <time>2020-09-26T10:33:11.883Z</time>
      </trkpt>
      <trkpt lat="65.51763" lon="21.62468">
        <ele>39.595039</ele>
        <time>2020-09-26T10:33:13.874Z</time>
      </trkpt>
      <trkpt lat="65.51756" lon="21.62442">
        <ele>39.37379</ele>
        <time>2020-09-26T10:33:15.884Z</time>
      </trkpt>
      <trkpt lat="65.51748" lon="21.62418">
        <ele>39.156293</ele>
        <time>2020-09-26T10:33:17.878Z</time>
      </trkpt>
      <trkpt lat="65.51739" lon="21.62395">
        <ele>38.93594</ele>
        <time>2020-09-26T10:33:19.888Z</time>
      </trkpt>
      <trkpt lat="65.51731" lon="21.62372">
        <ele>38.726597</ele>
        <time>2020-09-26T10:33:21.884Z</time>
      </trkpt>
      <trkpt lat="65.51724" lon="21.62351">
        <ele>38.527024</ele>
        <time>2020-09-26T10:33:23.907Z</time>
      </trkpt>
      <trkpt lat="65.51717" lon="21.6233">
        <ele>38.433784</ele>
        <time>2020-09-26T10:33:25.884Z</time>
      </trkpt>
      <trkpt lat="65.5171" lon="21.6231">
        <ele>38.357047</ele>
        <time>2020-09-26T10:33:27.901Z</time>
      </trkpt>
      <trkpt lat="65.51704" lon="21.62291">
        <ele>38.285167</ele>
        <time>2020-09-26T10:33:29.934Z</time>
      </trkpt>
      <trkpt lat="65.51698" lon="21.62274">
        <ele>38.217988</ele>
        <time>2020-09-26T10:33:31.900Z</time>
      </trkpt>
      <trkpt lat="65.51691" lon="21.6225">
        <ele>38.127097</ele>
        <time>2020-09-26T10:33:34.892Z</time>
      </trkpt>
      <trkpt lat="65.51684" lon="21.62227">
        <ele>38.04155</ele>
        <time>2020-09-26T10:33:37.884Z</time>
      </trkpt>
      <trkpt lat="65.51677" lon="21.62206">
        <ele>37.958525</ele>
        <time>2020-09-26T10:33:40.905Z</time>
      </trkpt>
      <trkpt lat="65.51669" lon="21.62183">
        <ele>37.872743</ele>
        <time>2020-09-26T10:33:43.885Z</time>
      </trkpt>
      <trkpt lat="65.51661" lon="21.6216">
        <ele>37.782084</ele>
        <time>2020-09-26T10:33:46.887Z</time>
      </trkpt>
      <trkpt lat="65.51653" lon="21.62138">
        <ele>37.692124</ele>
        <time>2020-09-26T10:33:49.888Z</time>
      </trkpt>
      <trkpt lat="65.51646" lon="21.62114">
        <ele>37.602125</ele>
        <time>2020-09-26T10:33:52.893Z</time>
      </trkpt>
      <trkpt lat="65.51638" lon="21.62089">
        <ele>37.508943</ele>
        <time>2020-09-26T10:33:55.900Z</time>
      </trkpt>
      <trkpt lat="65.5163" lon="21.62064">
        <ele>37.414057</ele>
        <time>2020-09-26T10:33:58.885Z</time>
      </trkpt>
      <trkpt lat="65.51622" lon="21.62041">
        <ele>37.323631</ele>
        <time>2020-09-26T10:34:01.885Z</time>
      </trkpt>
      <trkpt lat="65.51615" lon="21.62017">
        <ele>37.231993</ele>
        <time>2020-09-26T10:34:04.878Z</time>
      </trkpt>
      <trkpt lat="65.51607" lon="21.61994">
        <ele>37.432503</ele>
        <time>2020-09-26T10:34:07.901Z</time>
      </trkpt>
      <trkpt lat="65.51598" lon="21.61969">
        <ele>37.832213</ele>
        <time>2020-09-26T10:34:10.913Z</time>
      </trkpt>
      <trkpt lat="65.51591" lon="21.61946">
        <ele>38.207832</ele>
        <time>2020-09-26T10:34:13.898Z</time>
      </trkpt>
      <trkpt lat="65.51584" lon="21.61923">
        <ele>38.561867</ele>
        <time>2020-09-26T10:34:16.882Z</time>
      </trkpt>
      <trkpt lat="65.51578" lon="21.61901">
        <ele>38.902325</ele>
        <time>2020-09-26T10:34:19.883Z</time>
      </trkpt>
      <trkpt lat="65.51572" lon="21.61879">
        <ele>39.231992</ele>
        <time>2020-09-26T10:34:22.906Z</time>
      </trkpt>
      <trkpt lat="65.51566" lon="21.61859">
        <ele>39.549823</ele>
        <time>2020-09-26T10:34:25.885Z</time>
      </trkpt>
      <trkpt lat="65.51561" lon="21.61836">
        <ele>39.872388</ele>
        <time>2020-09-26T10:34:28.880Z</time>
      </trkpt>
      <trkpt lat="65.51556" lon="21.61814">
        <ele>40.197575</ele>
        <time>2020-09-26T10:34:31.869Z</time>
      </trkpt>
      <trkpt lat="65.51551" lon="21.61792">
        <ele>40.50861</ele>
        <time>2020-09-26T10:34:34.889Z</time>
      </trkpt>
      <trkpt lat="65.51547" lon="21.61768">
        <ele>40.835897</ele>
        <time>2020-09-26T10:34:37.896Z</time>
      </trkpt>
      <trkpt lat="65.51543" lon="21.61744">
        <ele>41.161872</ele>
        <time>2020-09-26T10:34:40.902Z</time>
      </trkpt>
      <trkpt lat="65.51539" lon="21.61719">
        <ele>41.510227</ele>
        <time>2020-09-26T10:34:43.919Z</time>
      </trkpt>
      <trkpt lat="65.51536" lon="21.61691">
        <ele>41.876007</ele>
        <time>2020-09-26T10:34:46.889Z</time>
      </trkpt>
      <trkpt lat="65.51532" lon="21.61665">
        <ele>42.223068</ele>
        <time>2020-09-26T10:34:49.887Z</time>
      </trkpt>
      <trkpt lat="65.51529" lon="21.61639">
        <ele>42.559525</ele>
        <time>2020-09-26T10:34:52.875Z</time>
      </trkpt>
      <trkpt lat="65.51527" lon="21.61614">
        <ele>42.846846</ele>
        <time>2020-09-26T10:34:55.870Z</time>
      </trkpt>
      <trkpt lat="65.51524" lon="21.61588">
        <ele>43.090163</ele>
        <time>2020-09-26T10:34:58.878Z</time>
      </trkpt>
      <trkpt lat="65.51523" lon="21.61562">
        <ele>43.334209</ele>
        <time>2020-09-26T10:35:01.908Z</time>
      </trkpt>
      <trkpt lat="65.51521" lon="21.61538">
        <ele>43.563298</ele>
        <time>2020-09-26T10:35:04.895Z</time>
      </trkpt>
      <trkpt lat="65.5152" lon="21.61516">
        <ele>43.775923</ele>
        <time>2020-09-26T10:35:07.886Z</time>
      </trkpt>
      <trkpt lat="65.5152" lon="21.61492">
        <ele>43.995813</ele>
        <time>2020-09-26T10:35:10.865Z</time>
      </trkpt>
      <trkpt lat="65.51519" lon="21.61467">
        <ele>44.235982</ele>
        <time>2020-09-26T10:35:13.897Z</time>
      </trkpt>
      <trkpt lat="65.51518" lon="21.61441">
        <ele>44.480993</ele>
        <time>2020-09-26T10:35:16.874Z</time>
      </trkpt>
      <trkpt lat="65.51518" lon="21.61414">
        <ele>44.728224</ele>
        <time>2020-09-26T10:35:19.894Z</time>
      </trkpt>
      <trkpt lat="65.51516" lon="21.61387">
        <ele>44.980651</ele>
        <time>2020-09-26T10:35:22.892Z</time>
      </trkpt>
      <trkpt lat="65.51515" lon="21.61361">
        <ele>45.225859</ele>
        <time>2020-09-26T10:35:25.877Z</time>
      </trkpt>
      <trkpt lat="65.51514" lon="21.61335">
        <ele>45.47607</ele>
        <time>2020-09-26T10:35:28.936Z</time>
      </trkpt>
      <trkpt lat="65.51513" lon="21.61308">
        <ele>45.724289</ele>
        <time>2020-09-26T10:35:31.876Z</time>
      </trkpt>
      <trkpt lat="65.51512" lon="21.61283">
        <ele>45.964639</ele>
        <time>2020-09-26T10:35:34.894Z</time>
      </trkpt>
      <trkpt lat="65.5151" lon="21.6126">
        <ele>46.183377</ele>
        <time>2020-09-26T10:35:37.875Z</time>
      </trkpt>
      <trkpt lat="65.5151" lon="21.61235">
        <ele>46.415658</ele>
        <time>2020-09-26T10:35:40.894Z</time>
      </trkpt>
      <trkpt lat="65.51509" lon="21.61209">
        <ele>46.653448</ele>
        <time>2020-09-26T10:35:43.880Z</time>
      </trkpt>
      <trkpt lat="65.51509" lon="21.61182">
        <ele>46.824787</ele>
        <time>2020-09-26T10:35:46.909Z</time>
      </trkpt>
      <trkpt lat="65.51508" lon="21.61156">
        <ele>46.928616</ele>
        <time>2020-09-26T10:35:49.892Z</time>
      </trkpt>
      <trkpt lat="65.51508" lon="21.61133">
        <ele>47.021688</ele>
        <time>2020-09-26T10:35:52.879Z</time>
      </trkpt>
      <trkpt lat="65.51507" lon="21.6111">
        <ele>47.113052</ele>
        <time>2020-09-26T10:35:55.904Z</time>
      </trkpt>
      <trkpt lat="65.51505" lon="21.61082">
        <ele>47.226864</ele>
        <time>2020-09-26T10:35:59.907Z</time>
      </trkpt>
      <trkpt lat="65.51505" lon="21.6106">
        <ele>47.313691</ele>
        <time>2020-09-26T10:36:02.898Z</time>
      </trkpt>
      <trkpt lat="65.51504" lon="21.61038">
        <ele>47.404261</ele>
        <time>2020-09-26T10:36:05.886Z</time>
      </trkpt>
      <trkpt lat="65.51503" lon="21.61014">
        <ele>47.497924</ele>
        <time>2020-09-26T10:36:08.907Z</time>
      </trkpt>
      <trkpt lat="65.51502" lon="21.60992">
        <ele>47.589095</ele>
        <time>2020-09-26T10:36:11.880Z</time>
      </trkpt>
      <trkpt lat="65.51501" lon="21.6097">
        <ele>47.677283</ele>
        <time>2020-09-26T10:36:14.883Z</time>
      </trkpt>
      <trkpt lat="65.51499" lon="21.60948">
        <ele>47.764814</ele>
        <time>2020-09-26T10:36:17.905Z</time>
      </trkpt>
      <trkpt lat="65.51498" lon="21.6092">
        <ele>47.878795</ele>
        <time>2020-09-26T10:36:21.893Z</time>
      </trkpt>
      <trkpt lat="65.51497" lon="21.60893">
        <ele>47.98586</ele>
        <time>2020-09-26T10:36:25.880Z</time>
      </trkpt>
      <trkpt lat="65.51497" lon="21.60866">
        <ele>48.093047</ele>
        <time>2020-09-26T10:36:29.888Z</time>
      </trkpt>
      <trkpt lat="65.51495" lon="21.6084">
        <ele>48.198428</ele>
        <time>2020-09-26T10:36:33.875Z</time>
      </trkpt>
      <trkpt lat="65.51495" lon="21.60813">
        <ele>48.307087</ele>
        <time>2020-09-26T10:36:37.884Z</time>
      </trkpt>
      <trkpt lat="65.51493" lon="21.60786">
        <ele>48.412932</ele>
        <time>2020-09-26T10:36:41.898Z</time>
      </trkpt>
      <trkpt lat="65.51492" lon="21.60761">
        <ele>48.540779</ele>
        <time>2020-09-26T10:36:45.907Z</time>
      </trkpt>
      <trkpt lat="65.51491" lon="21.60739">
        <ele>48.780903</ele>
        <time>2020-09-26T10:36:49.875Z</time>
      </trkpt>
      <trkpt lat="65.5149" lon="21.60715">
        <ele>49.031399</ele>
        <time>2020-09-26T10:36:53.881Z</time>
      </trkpt>
      <trkpt lat="65.51489" lon="21.60689">
        <ele>49.29757</ele>
        <time>2020-09-26T10:36:57.907Z</time>
      </trkpt>
      <trkpt lat="65.51488" lon="21.60663">
        <ele>49.568885</ele>
        <time>2020-09-26T10:37:01.894Z</time>
      </trkpt>
      <trkpt lat="65.51487" lon="21.60635">
        <ele>49.865698</ele>
        <time>2020-09-26T10:37:05.907Z</time>
      </trkpt>
      <trkpt lat="65.51486" lon="21.60607">
        <ele>50.1596</ele>
        <time>2020-09-26T10:37:09.897Z</time>
      </trkpt>
      <trkpt lat="65.51485" lon="21.60582">
        <ele>50.425439</ele>
        <time>2020-09-26T10:37:13.907Z</time>
      </trkpt>
      <trkpt lat="65.51483" lon="21.60555">
        <ele>50.702281</ele>
        <time>2020-09-26T10:37:17.877Z</time>
      </trkpt>
      <trkpt lat="65.51483" lon="21.60528">
        <ele>50.992879</ele>
        <time>2020-09-26T10:37:21.876Z</time>
      </trkpt>
      <trkpt lat="65.51482" lon="21.605">
        <ele>51.283662</ele>
        <time>2020-09-26T10:37:25.887Z</time>
      </trkpt>
      <trkpt lat="65.51481" lon="21.60478">
        <ele>51.511883</ele>
        <time>2020-09-26T10:37:28.895Z</time>
      </trkpt>
      <trkpt lat="65.5148" lon="21.60456">
        <ele>51.739566</ele>
        <time>2020-09-26T10:37:31.917Z</time>
      </trkpt>
      <trkpt lat="65.51478" lon="21.6043">
        <ele>52.016109</ele>
        <time>2020-09-26T10:37:35.884Z</time>
      </trkpt>
      <trkpt lat="65.51477" lon="21.60402">
        <ele>52.316024</ele>
        <time>2020-09-26T10:37:39.925Z</time>
      </trkpt>
      <trkpt lat="65.51476" lon="21.60379">
        <ele>52.553395</ele>
        <time>2020-09-26T10:37:42.878Z</time>
      </trkpt>
      <trkpt lat="65.51474" lon="21.60351">
        <ele>52.841947</ele>
        <time>2020-09-26T10:37:46.887Z</time>
      </trkpt>
      <trkpt lat="65.51473" lon="21.60329">
        <ele>53.01459</ele>
        <time>2020-09-26T10:37:49.892Z</time>
      </trkpt>
      <trkpt lat="65.51472" lon="21.60306">
        <ele>52.986965</ele>
        <time>2020-09-26T10:37:52.892Z</time>
      </trkpt>
      <trkpt lat="65.51471" lon="21.60282">
        <ele>52.959107</ele>
        <time>2020-09-26T10:37:55.885Z</time>
      </trkpt>
      <trkpt lat="65.51469" lon="21.60259">
        <ele>52.931355</ele>
        <time>2020-09-26T10:37:58.894Z</time>
      </trkpt>
      <trkpt lat="65.51468" lon="21.60235">
        <ele>52.903141</ele>
        <time>2020-09-26T10:38:01.895Z</time>
      </trkpt>
      <trkpt lat="65.51466" lon="21.60212">
        <ele>52.875018</ele>
        <time>2020-09-26T10:38:04.902Z</time>
      </trkpt>
      <trkpt lat="65.51464" lon="21.60186">
        <ele>52.844559</ele>
        <time>2020-09-26T10:38:07.910Z</time>
      </trkpt>
      <trkpt lat="65.51462" lon="21.60157">
        <ele>52.809984</ele>
        <time>2020-09-26T10:38:10.892Z</time>
      </trkpt>
      <trkpt lat="65.51459" lon="21.60126">
        <ele>52.772593</ele>
        <time>2020-09-26T10:38:13.877Z</time>
      </trkpt>
      <trkpt lat="65.51457" lon="21.60105">
        <ele>52.74715</ele>
        <time>2020-09-26T10:38:15.890Z</time>
      </trkpt>
      <trkpt lat="65.51455" lon="21.60083">
        <ele>52.721627</ele>
        <time>2020-09-26T10:38:17.886Z</time>
      </trkpt>
      <trkpt lat="65.51452" lon="21.60062">
        <ele>52.69575</ele>
        <time>2020-09-26T10:38:19.914Z</time>
      </trkpt>
      <trkpt lat="65.51449" lon="21.60042">
        <ele>52.669413</ele>
        <time>2020-09-26T10:38:21.897Z</time>
      </trkpt>
      <trkpt lat="65.51446" lon="21.6002">
        <ele>52.642419</ele>
        <time>2020-09-26T10:38:23.920Z</time>
      </trkpt>
      <trkpt lat="65.51442" lon="21.59997">
        <ele>52.614118</ele>
        <time>2020-09-26T10:38:25.870Z</time>
      </trkpt>
      <trkpt lat="65.51439" lon="21.59974">
        <ele>52.584398</ele>
        <time>2020-09-26T10:38:27.879Z</time>
      </trkpt>
      <trkpt lat="65.51435" lon="21.59948">
        <ele>52.552687</ele>
        <time>2020-09-26T10:38:29.914Z</time>
      </trkpt>
      <trkpt lat="65.51431" lon="21.5992">
        <ele>52.517779</ele>
        <time>2020-09-26T10:38:31.889Z</time>
      </trkpt>
      <trkpt lat="65.51426" lon="21.59892">
        <ele>51.935538</ele>
        <time>2020-09-26T10:38:33.889Z</time>
      </trkpt>
      <trkpt lat="65.51421" lon="21.59864">
        <ele>51.260851</ele>
        <time>2020-09-26T10:38:35.934Z</time>
      </trkpt>
      <trkpt lat="65.51416" lon="21.59837">
        <ele>50.600741</ele>
        <time>2020-09-26T10:38:37.877Z</time>
      </trkpt>
      <trkpt lat="65.51411" lon="21.59808">
        <ele>49.877756</ele>
        <time>2020-09-26T10:38:39.884Z</time>
      </trkpt>
      <trkpt lat="65.51405" lon="21.59778">
        <ele>49.11363</ele>
        <time>2020-09-26T10:38:41.868Z</time>
      </trkpt>
      <trkpt lat="65.51398" lon="21.59746">
        <ele>48.31104</ele>
        <time>2020-09-26T10:38:43.887Z</time>
      </trkpt>
      <trkpt lat="65.51391" lon="21.59714">
        <ele>47.4883</ele>
        <time>2020-09-26T10:38:45.918Z</time>
      </trkpt>
      <trkpt lat="65.51383" lon="21.59681">
        <ele>46.647832</ele>
        <time>2020-09-26T10:38:47.921Z</time>
      </trkpt>
      <trkpt lat="65.51376" lon="21.59647">
        <ele>45.783612</ele>
        <time>2020-09-26T10:38:49.874Z</time>
      </trkpt>
      <trkpt lat="65.51368" lon="21.59613">
        <ele>44.912844</ele>
        <time>2020-09-26T10:38:51.881Z</time>
      </trkpt>
      <trkpt lat="65.5136" lon="21.59579">
        <ele>44.012447</ele>
        <time>2020-09-26T10:38:53.895Z</time>
      </trkpt>
      <trkpt lat="65.51352" lon="21.59542">
        <ele>43.073195</ele>
        <time>2020-09-26T10:38:55.884Z</time>
      </trkpt>
      <trkpt lat="65.51343" lon="21.59505">
        <ele>42.284598</ele>
        <time>2020-09-26T10:38:57.877Z</time>
      </trkpt>
      <trkpt lat="65.51338" lon="21.59485">
        <ele>41.929144</ele>
        <time>2020-09-26T10:38:58.876Z</time>
      </trkpt>
      <trkpt lat="65.51334" lon="21.59466">
        <ele>41.581697</ele>
        <time>2020-09-26T10:38:59.894Z</time>
      </trkpt>
      <trkpt lat="65.51325" lon="21.59429">
        <ele>40.895682</ele>
        <time>2020-09-26T10:39:01.895Z</time>
      </trkpt>
      <trkpt lat="65.51316" lon="21.59393">
        <ele>40.227746</ele>
        <time>2020-09-26T10:39:03.896Z</time>
      </trkpt>
      <trkpt lat="65.51308" lon="21.59358">
        <ele>39.576348</ele>
        <time>2020-09-26T10:39:05.905Z</time>
      </trkpt>
      <trkpt lat="65.513" lon="21.59322">
        <ele>38.92254</ele>
        <time>2020-09-26T10:39:07.884Z</time>
      </trkpt>
      <trkpt lat="65.51292" lon="21.59288">
        <ele>38.282309</ele>
        <time>2020-09-26T10:39:09.896Z</time>
      </trkpt>
      <trkpt lat="65.51284" lon="21.59254">
        <ele>37.6579</ele>
        <time>2020-09-26T10:39:11.889Z</time>
      </trkpt>
      <trkpt lat="65.51276" lon="21.5922">
        <ele>37.043387</ele>
        <time>2020-09-26T10:39:13.897Z</time>
      </trkpt>
      <trkpt lat="65.51269" lon="21.59189">
        <ele>36.474694</ele>
        <time>2020-09-26T10:39:15.874Z</time>
      </trkpt>
      <trkpt lat="65.51262" lon="21.59159">
        <ele>35.921816</ele>
        <time>2020-09-26T10:39:17.876Z</time>
      </trkpt>
      <trkpt lat="65.51255" lon="21.5913">
        <ele>35.643321</ele>
        <time>2020-09-26T10:39:19.892Z</time>
      </trkpt>
      <trkpt lat="65.51249" lon="21.59103">
        <ele>35.470759</ele>
        <time>2020-09-26T10:39:21.879Z</time>
      </trkpt>
      <trkpt lat="65.51242" lon="21.59076">
        <ele>35.300923</ele>
        <time>2020-09-26T10:39:23.913Z</time>
      </trkpt>
      <trkpt lat="65.51236" lon="21.59048">
        <ele>35.127564</ele>
        <time>2020-09-26T10:39:25.869Z</time>
      </trkpt>
      <trkpt lat="65.5123" lon="21.59021">
        <ele>34.954822</ele>
        <time>2020-09-26T10:39:27.893Z</time>
      </trkpt>
      <trkpt lat="65.51224" lon="21.58995">
        <ele>34.790107</ele>
        <time>2020-09-26T10:39:29.888Z</time>
      </trkpt>
      <trkpt lat="65.51217" lon="21.58968">
        <ele>34.622966</ele>
        <time>2020-09-26T10:39:31.874Z</time>
      </trkpt>
      <trkpt lat="65.51211" lon="21.58942">
        <ele>34.456299</ele>
        <time>2020-09-26T10:39:33.910Z</time>
      </trkpt>
      <trkpt lat="65.51205" lon="21.58916">
        <ele>34.293503</ele>
        <time>2020-09-26T10:39:35.903Z</time>
      </trkpt>
      <trkpt lat="65.51199" lon="21.5889">
        <ele>34.132464</ele>
        <time>2020-09-26T10:39:37.873Z</time>
      </trkpt>
      <trkpt lat="65.51194" lon="21.58865">
        <ele>33.976685</ele>
        <time>2020-09-26T10:39:39.869Z</time>
      </trkpt>
      <trkpt lat="65.51188" lon="21.58841">
        <ele>33.823808</ele>
        <time>2020-09-26T10:39:41.947Z</time>
      </trkpt>
      <trkpt lat="65.51182" lon="21.58816">
        <ele>33.669953</ele>
        <time>2020-09-26T10:39:43.895Z</time>
      </trkpt>
      <trkpt lat="65.51177" lon="21.58793">
        <ele>33.525395</ele>
        <time>2020-09-26T10:39:45.870Z</time>
      </trkpt>
      <trkpt lat="65.51172" lon="21.58771">
        <ele>33.403328</ele>
        <time>2020-09-26T10:39:47.874Z</time>
      </trkpt>
      <trkpt lat="65.51167" lon="21.58748">
        <ele>33.599964</ele>
        <time>2020-09-26T10:39:49.893Z</time>
      </trkpt>
      <trkpt lat="65.51162" lon="21.58726">
        <ele>33.798204</ele>
        <time>2020-09-26T10:39:51.880Z</time>
      </trkpt>
      <trkpt lat="65.51157" lon="21.58704">
        <ele>33.987208</ele>
        <time>2020-09-26T10:39:53.919Z</time>
      </trkpt>
      <trkpt lat="65.51152" lon="21.58683">
        <ele>34.17602</ele>
        <time>2020-09-26T10:39:55.872Z</time>
      </trkpt>
      <trkpt lat="65.51147" lon="21.58662">
        <ele>34.356304</ele>
        <time>2020-09-26T10:39:57.913Z</time>
      </trkpt>
      <trkpt lat="65.51143" lon="21.58642">
        <ele>34.531872</ele>
        <time>2020-09-26T10:39:59.918Z</time>
      </trkpt>
      <trkpt lat="65.51138" lon="21.58622">
        <ele>34.708111</ele>
        <time>2020-09-26T10:40:01.890Z</time>
      </trkpt>
      <trkpt lat="65.51134" lon="21.58602">
        <ele>34.882135</ele>
        <time>2020-09-26T10:40:03.916Z</time>
      </trkpt>
      <trkpt lat="65.5113" lon="21.58581">
        <ele>35.058654</ele>
        <time>2020-09-26T10:40:05.893Z</time>
      </trkpt>
      <trkpt lat="65.51125" lon="21.58562">
        <ele>35.233794</ele>
        <time>2020-09-26T10:40:07.879Z</time>
      </trkpt>
      <trkpt lat="65.51118" lon="21.58535">
        <ele>35.480228</ele>
        <time>2020-09-26T10:40:10.889Z</time>
      </trkpt>
      <trkpt lat="65.51114" lon="21.58515">
        <ele>35.648064</ele>
        <time>2020-09-26T10:40:12.907Z</time>
      </trkpt>
      <trkpt lat="65.51109" lon="21.58494">
        <ele>35.825948</ele>
        <time>2020-09-26T10:40:14.900Z</time>
      </trkpt>
      <trkpt lat="65.51105" lon="21.58474">
        <ele>36.000254</ele>
        <time>2020-09-26T10:40:16.892Z</time>
      </trkpt>
      <trkpt lat="65.511" lon="21.58455">
        <ele>36.171811</ele>
        <time>2020-09-26T10:40:18.913Z</time>
      </trkpt>
      <trkpt lat="65.51094" lon="21.58439">
        <ele>36.340094</ele>
        <time>2020-09-26T10:40:20.874Z</time>
      </trkpt>
      <trkpt lat="65.51085" lon="21.58431">
        <ele>36.514924</ele>
        <time>2020-09-26T10:40:22.927Z</time>
      </trkpt>
      <trkpt lat="65.51076" lon="21.58432">
        <ele>36.683612</ele>
        <time>2020-09-26T10:40:24.878Z</time>
      </trkpt>
      <trkpt lat="65.51064" lon="21.58445">
        <ele>36.876139</ele>
        <time>2020-09-26T10:40:27.875Z</time>
      </trkpt>
      <trkpt lat="65.51054" lon="21.58456">
        <ele>37.038172</ele>
        <time>2020-09-26T10:40:30.899Z</time>
      </trkpt>
      <trkpt lat="65.51044" lon="21.58465">
        <ele>37.190693</ele>
        <time>2020-09-26T10:40:33.872Z</time>
      </trkpt>
      <trkpt lat="65.51034" lon="21.58473">
        <ele>37.341103</ele>
        <time>2020-09-26T10:40:36.887Z</time>
      </trkpt>
      <trkpt lat="65.51024" lon="21.58481">
        <ele>37.487841</ele>
        <time>2020-09-26T10:40:39.879Z</time>
      </trkpt>
      <trkpt lat="65.51013" lon="21.58491">
        <ele>37.655455</ele>
        <time>2020-09-26T10:40:42.905Z</time>
      </trkpt>
      <trkpt lat="65.51001" lon="21.58501">
        <ele>37.842684</ele>
        <time>2020-09-26T10:40:45.880Z</time>
      </trkpt>
      <trkpt lat="65.50992" lon="21.58509">
        <ele>37.978073</ele>
        <time>2020-09-26T10:40:47.879Z</time>
      </trkpt>
      <trkpt lat="65.50982" lon="21.58517">
        <ele>38.12616</ele>
        <time>2020-09-26T10:40:49.944Z</time>
      </trkpt>
      <trkpt lat="65.50972" lon="21.58527">
        <ele>38.285346</ele>
        <time>2020-09-26T10:40:51.879Z</time>
      </trkpt>
      <trkpt lat="65.5096" lon="21.58538">
        <ele>38.458437</ele>
        <time>2020-09-26T10:40:53.876Z</time>
      </trkpt>
      <trkpt lat="65.5095" lon="21.58549">
        <ele>38.6238</ele>
        <time>2020-09-26T10:40:55.881Z</time>
      </trkpt>
      <trkpt lat="65.50938" lon="21.5856">
        <ele>38.805714</ele>
        <time>2020-09-26T10:40:57.898Z</time>
      </trkpt>
      <trkpt lat="65.50925" lon="21.58573">
        <ele>39.005533</ele>
        <time>2020-09-26T10:40:59.886Z</time>
      </trkpt>
      <trkpt lat="65.50912" lon="21.58587">
        <ele>39.205126</ele>
        <time>2020-09-26T10:41:01.884Z</time>
      </trkpt>
      <trkpt lat="65.509" lon="21.58602">
        <ele>39.193696</ele>
        <time>2020-09-26T10:41:03.880Z</time>
      </trkpt>
      <trkpt lat="65.50888" lon="21.58616">
        <ele>39.025933</ele>
        <time>2020-09-26T10:41:05.890Z</time>
      </trkpt>
      <trkpt lat="65.50877" lon="21.58628">
        <ele>38.871825</ele>
        <time>2020-09-26T10:41:07.878Z</time>
      </trkpt>
      <trkpt lat="65.50867" lon="21.58639">
        <ele>38.729253</ele>
        <time>2020-09-26T10:41:09.894Z</time>
      </trkpt>
      <trkpt lat="65.50858" lon="21.58652">
        <ele>38.594996</ele>
        <time>2020-09-26T10:41:11.879Z</time>
      </trkpt>
      <trkpt lat="65.50849" lon="21.58665">
        <ele>38.460788</ele>
        <time>2020-09-26T10:41:13.887Z</time>
      </trkpt>
      <trkpt lat="65.5084" lon="21.58677">
        <ele>38.324888</ele>
        <time>2020-09-26T10:41:15.887Z</time>
      </trkpt>
      <trkpt lat="65.50831" lon="21.5869">
        <ele>38.185701</ele>
        <time>2020-09-26T10:41:17.898Z</time>
      </trkpt>
      <trkpt lat="65.50821" lon="21.58703">
        <ele>38.044797</ele>
        <time>2020-09-26T10:41:19.866Z</time>
      </trkpt>
      <trkpt lat="65.50811" lon="21.58716">
        <ele>37.901639</ele>
        <time>2020-09-26T10:41:21.927Z</time>
      </trkpt>
      <trkpt lat="65.50801" lon="21.58729">
        <ele>37.753045</ele>
        <time>2020-09-26T10:41:23.900Z</time>
      </trkpt>
      <trkpt lat="65.50791" lon="21.58742">
        <ele>37.60322</ele>
        <time>2020-09-26T10:41:25.873Z</time>
      </trkpt>
      <trkpt lat="65.5078" lon="21.58755">
        <ele>37.449736</ele>
        <time>2020-09-26T10:41:27.917Z</time>
      </trkpt>
      <trkpt lat="65.5077" lon="21.58767">
        <ele>37.308072</ele>
        <time>2020-09-26T10:41:29.888Z</time>
      </trkpt>
      <trkpt lat="65.50761" lon="21.5878">
        <ele>37.168807</ele>
        <time>2020-09-26T10:41:31.878Z</time>
      </trkpt>
      <trkpt lat="65.50751" lon="21.58792">
        <ele>37.031688</ele>
        <time>2020-09-26T10:41:33.899Z</time>
      </trkpt>
      <trkpt lat="65.50742" lon="21.58804">
        <ele>36.955718</ele>
        <time>2020-09-26T10:41:35.922Z</time>
      </trkpt>
      <trkpt lat="65.50733" lon="21.58816">
        <ele>36.915554</ele>
        <time>2020-09-26T10:41:37.880Z</time>
      </trkpt>
      <trkpt lat="65.50724" lon="21.58828">
        <ele>36.876726</ele>
        <time>2020-09-26T10:41:39.874Z</time>
      </trkpt>
      <trkpt lat="65.50716" lon="21.58838">
        <ele>36.839921</ele>
        <time>2020-09-26T10:41:41.905Z</time>
      </trkpt>
      <trkpt lat="65.50708" lon="21.58848">
        <ele>36.804798</ele>
        <time>2020-09-26T10:41:43.877Z</time>
      </trkpt>
      <trkpt lat="65.507" lon="21.58859">
        <ele>36.769295</ele>
        <time>2020-09-26T10:41:45.881Z</time>
      </trkpt>
      <trkpt lat="65.50692" lon="21.58869">
        <ele>36.734097</ele>
        <time>2020-09-26T10:41:47.881Z</time>
      </trkpt>
      <trkpt lat="65.5068" lon="21.58885">
        <ele>36.681766</ele>
        <time>2020-09-26T10:41:50.883Z</time>
      </trkpt>
      <trkpt lat="65.50672" lon="21.58896">
        <ele>36.644353</ele>
        <time>2020-09-26T10:41:52.905Z</time>
      </trkpt>
      <trkpt lat="65.50663" lon="21.58908">
        <ele>36.604686</ele>
        <time>2020-09-26T10:41:54.887Z</time>
      </trkpt>
      <trkpt lat="65.50654" lon="21.5892">
        <ele>36.563839</ele>
        <time>2020-09-26T10:41:56.912Z</time>
      </trkpt>
      <trkpt lat="65.50645" lon="21.58932">
        <ele>36.522914</ele>
        <time>2020-09-26T10:41:58.873Z</time>
      </trkpt>
      <trkpt lat="65.50635" lon="21.58945">
        <ele>36.480045</ele>
        <time>2020-09-26T10:42:00.912Z</time>
      </trkpt>
      <trkpt lat="65.50625" lon="21.58959">
        <ele>36.435972</ele>
        <time>2020-09-26T10:42:02.915Z</time>
      </trkpt>
      <trkpt lat="65.50615" lon="21.58973">
        <ele>36.389546</ele>
        <time>2020-09-26T10:42:04.887Z</time>
      </trkpt>
      <trkpt lat="65.50604" lon="21.58986">
        <ele>36.344156</ele>
        <time>2020-09-26T10:42:06.875Z</time>
      </trkpt>
      <trkpt lat="65.50594" lon="21.58999">
        <ele>36.298227</ele>
        <time>2020-09-26T10:42:08.887Z</time>
      </trkpt>
      <trkpt lat="65.50584" lon="21.59013">
        <ele>36.372778</ele>
        <time>2020-09-26T10:42:10.875Z</time>
      </trkpt>
      <trkpt lat="65.50573" lon="21.59026">
        <ele>36.527526</ele>
        <time>2020-09-26T10:42:12.888Z</time>
      </trkpt>
      <trkpt lat="65.50563" lon="21.59039">
        <ele>36.678077</ele>
        <time>2020-09-26T10:42:14.906Z</time>
      </trkpt>
      <trkpt lat="65.50553" lon="21.59052">
        <ele>36.823032</ele>
        <time>2020-09-26T10:42:16.877Z</time>
      </trkpt>
      <trkpt lat="65.50544" lon="21.59064">
        <ele>36.956431</ele>
        <time>2020-09-26T10:42:18.888Z</time>
      </trkpt>
      <trkpt lat="65.50535" lon="21.59074">
        <ele>37.083082</ele>
        <time>2020-09-26T10:42:20.882Z</time>
      </trkpt>
      <trkpt lat="65.50524" lon="21.59087">
        <ele>37.241299</ele>
        <time>2020-09-26T10:42:23.894Z</time>
      </trkpt>
      <trkpt lat="65.50516" lon="21.59098">
        <ele>37.365427</ele>
        <time>2020-09-26T10:42:26.878Z</time>
      </trkpt>
      <trkpt lat="65.50508" lon="21.59108">
        <ele>37.48438</ele>
        <time>2020-09-26T10:42:29.892Z</time>
      </trkpt>
      <trkpt lat="65.50499" lon="21.59118">
        <ele>37.6115</ele>
        <time>2020-09-26T10:42:32.874Z</time>
      </trkpt>
      <trkpt lat="65.50489" lon="21.59129">
        <ele>37.757624</ele>
        <time>2020-09-26T10:42:35.875Z</time>
      </trkpt>
      <trkpt lat="65.50477" lon="21.59142">
        <ele>37.926131</ele>
        <time>2020-09-26T10:42:38.874Z</time>
      </trkpt>
      <trkpt lat="65.50468" lon="21.59152">
        <ele>38.054672</ele>
        <time>2020-09-26T10:42:40.880Z</time>
      </trkpt>
      <trkpt lat="65.50458" lon="21.59162">
        <ele>38.194691</ele>
        <time>2020-09-26T10:42:42.885Z</time>
      </trkpt>
      <trkpt lat="65.50448" lon="21.59172">
        <ele>38.334309</ele>
        <time>2020-09-26T10:42:44.893Z</time>
      </trkpt>
      <trkpt lat="65.50437" lon="21.5918">
        <ele>38.47973</ele>
        <time>2020-09-26T10:42:46.904Z</time>
      </trkpt>
      <trkpt lat="65.50426" lon="21.5919">
        <ele>38.597622</ele>
        <time>2020-09-26T10:42:48.875Z</time>
      </trkpt>
      <trkpt lat="65.50415" lon="21.59199">
        <ele>38.438463</ele>
        <time>2020-09-26T10:42:50.922Z</time>
      </trkpt>
      <trkpt lat="65.50405" lon="21.59208">
        <ele>38.280805</ele>
        <time>2020-09-26T10:42:52.901Z</time>
      </trkpt>
      <trkpt lat="65.50394" lon="21.59216">
        <ele>38.128965</ele>
        <time>2020-09-26T10:42:54.873Z</time>
      </trkpt>
      <trkpt lat="65.50384" lon="21.59223">
        <ele>37.983509</ele>
        <time>2020-09-26T10:42:56.896Z</time>
      </trkpt>
      <trkpt lat="65.50374" lon="21.59229">
        <ele>37.839232</ele>
        <time>2020-09-26T10:42:58.875Z</time>
      </trkpt>
      <trkpt lat="65.50364" lon="21.59234">
        <ele>37.69976</ele>
        <time>2020-09-26T10:43:00.895Z</time>
      </trkpt>
      <trkpt lat="65.50354" lon="21.5924">
        <ele>37.559205</ele>
        <time>2020-09-26T10:43:02.903Z</time>
      </trkpt>
      <trkpt lat="65.50343" lon="21.59245">
        <ele>37.410839</ele>
        <time>2020-09-26T10:43:04.914Z</time>
      </trkpt>
      <trkpt lat="65.50332" lon="21.5925">
        <ele>37.260315</ele>
        <time>2020-09-26T10:43:06.879Z</time>
      </trkpt>
      <trkpt lat="65.50321" lon="21.59255">
        <ele>37.098486</ele>
        <time>2020-09-26T10:43:08.875Z</time>
      </trkpt>
      <trkpt lat="65.50308" lon="21.59261">
        <ele>36.92782</ele>
        <time>2020-09-26T10:43:10.875Z</time>
      </trkpt>
      <trkpt lat="65.50295" lon="21.59266">
        <ele>36.746791</ele>
        <time>2020-09-26T10:43:12.894Z</time>
      </trkpt>
      <trkpt lat="65.50282" lon="21.59272">
        <ele>36.566048</ele>
        <time>2020-09-26T10:43:14.879Z</time>
      </trkpt>
      <trkpt lat="65.5027" lon="21.59276">
        <ele>36.391085</ele>
        <time>2020-09-26T10:43:16.884Z</time>
      </trkpt>
      <trkpt lat="65.50257" lon="21.59282">
        <ele>36.210153</ele>
        <time>2020-09-26T10:43:18.871Z</time>
      </trkpt>
      <trkpt lat="65.50244" lon="21.59286">
        <ele>35.95828</ele>
        <time>2020-09-26T10:43:20.901Z</time>
      </trkpt>
      <trkpt lat="65.50232" lon="21.59292">
        <ele>35.67897</ele>
        <time>2020-09-26T10:43:22.920Z</time>
      </trkpt>
      <trkpt lat="65.5022" lon="21.59297">
        <ele>35.407672</ele>
        <time>2020-09-26T10:43:24.895Z</time>
      </trkpt>
      <trkpt lat="65.50209" lon="21.59301">
        <ele>35.146213</ele>
        <time>2020-09-26T10:43:26.911Z</time>
      </trkpt>
      <trkpt lat="65.50197" lon="21.59305">
        <ele>34.879232</ele>
        <time>2020-09-26T10:43:28.886Z</time>
      </trkpt>
      <trkpt lat="65.50186" lon="21.5931">
        <ele>34.624502</ele>
        <time>2020-09-26T10:43:30.900Z</time>
      </trkpt>
      <trkpt lat="65.50175" lon="21.59314">
        <ele>34.375557</ele>
        <time>2020-09-26T10:43:32.883Z</time>
      </trkpt>
      <trkpt lat="65.50165" lon="21.59319">
        <ele>34.137408</ele>
        <time>2020-09-26T10:43:34.873Z</time>
      </trkpt>
      <trkpt lat="65.50155" lon="21.59323">
        <ele>33.907468</ele>
        <time>2020-09-26T10:43:36.918Z</time>
      </trkpt>
      <trkpt lat="65.50144" lon="21.59328">
        <ele>33.662814</ele>
        <time>2020-09-26T10:43:38.896Z</time>
      </trkpt>
      <trkpt lat="65.50134" lon="21.59333">
        <ele>33.417056</ele>
        <time>2020-09-26T10:43:40.879Z</time>
      </trkpt>
      <trkpt lat="65.50123" lon="21.59338">
        <ele>33.175141</ele>
        <time>2020-09-26T10:43:42.921Z</time>
      </trkpt>
      <trkpt lat="65.50113" lon="21.59342">
        <ele>32.933389</ele>
        <time>2020-09-26T10:43:44.886Z</time>
      </trkpt>
      <trkpt lat="65.50102" lon="21.59346">
        <ele>32.683143</ele>
        <time>2020-09-26T10:43:46.892Z</time>
      </trkpt>
      <trkpt lat="65.50091" lon="21.59351">
        <ele>32.437229</ele>
        <time>2020-09-26T10:43:48.884Z</time>
      </trkpt>
      <trkpt lat="65.50081" lon="21.59354">
        <ele>32.202961</ele>
        <time>2020-09-26T10:43:50.916Z</time>
      </trkpt>
      <trkpt lat="65.50071" lon="21.59358">
        <ele>32.058002</ele>
        <time>2020-09-26T10:43:52.886Z</time>
      </trkpt>
      <trkpt lat="65.50061" lon="21.59362">
        <ele>32.037681</ele>
        <time>2020-09-26T10:43:54.885Z</time>
      </trkpt>
      <trkpt lat="65.5005" lon="21.59367">
        <ele>32.01676</ele>
        <time>2020-09-26T10:43:56.888Z</time>
      </trkpt>
      <trkpt lat="65.5004" lon="21.59371">
        <ele>31.995838</ele>
        <time>2020-09-26T10:43:58.877Z</time>
      </trkpt>
      <trkpt lat="65.50029" lon="21.59375">
        <ele>31.97447</ele>
        <time>2020-09-26T10:44:00.894Z</time>
      </trkpt>
      <trkpt lat="65.50019" lon="21.5938">
        <ele>31.95271</ele>
        <time>2020-09-26T10:44:02.877Z</time>
      </trkpt>
      <trkpt lat="65.50008" lon="21.59385">
        <ele>31.930665</ele>
        <time>2020-09-26T10:44:04.878Z</time>
      </trkpt>
      <trkpt lat="65.49997" lon="21.5939">
        <ele>31.908501</ele>
        <time>2020-09-26T10:44:06.908Z</time>
      </trkpt>
      <trkpt lat="65.49986" lon="21.59394">
        <ele>31.886208</ele>
        <time>2020-09-26T10:44:08.876Z</time>
      </trkpt>
      <trkpt lat="65.49975" lon="21.59399">
        <ele>31.864405</ele>
        <time>2020-09-26T10:44:10.895Z</time>
      </trkpt>
      <trkpt lat="65.49964" lon="21.59403">
        <ele>31.842659</ele>
        <time>2020-09-26T10:44:12.900Z</time>
      </trkpt>
      <trkpt lat="65.49953" lon="21.59408">
        <ele>31.821164</ele>
        <time>2020-09-26T10:44:14.882Z</time>
      </trkpt>
      <trkpt lat="65.49943" lon="21.59411">
        <ele>31.799717</ele>
        <time>2020-09-26T10:44:16.879Z</time>
      </trkpt>
      <trkpt lat="65.49932" lon="21.59416">
        <ele>31.778573</ele>
        <time>2020-09-26T10:44:18.885Z</time>
      </trkpt>
      <trkpt lat="65.49922" lon="21.59421">
        <ele>31.758327</ele>
        <time>2020-09-26T10:44:20.917Z</time>
      </trkpt>
      <trkpt lat="65.49912" lon="21.59424">
        <ele>31.738475</ele>
        <time>2020-09-26T10:44:22.883Z</time>
      </trkpt>
      <trkpt lat="65.49902" lon="21.59428">
        <ele>31.718964</ele>
        <time>2020-09-26T10:44:24.901Z</time>
      </trkpt>
      <trkpt lat="65.49893" lon="21.59432">
        <ele>31.888014</ele>
        <time>2020-09-26T10:44:26.897Z</time>
      </trkpt>
      <trkpt lat="65.4988" lon="21.59437">
        <ele>32.3691</ele>
        <time>2020-09-26T10:44:29.875Z</time>
      </trkpt>
      <trkpt lat="65.49867" lon="21.59443">
        <ele>32.859861</ele>
        <time>2020-09-26T10:44:32.923Z</time>
      </trkpt>
      <trkpt lat="65.49858" lon="21.59447">
        <ele>33.197344</ele>
        <time>2020-09-26T10:44:34.894Z</time>
      </trkpt>
      <trkpt lat="65.49848" lon="21.59452">
        <ele>33.554372</ele>
        <time>2020-09-26T10:44:36.917Z</time>
      </trkpt>
      <trkpt lat="65.49839" lon="21.59458">
        <ele>33.90946</ele>
        <time>2020-09-26T10:44:38.916Z</time>
      </trkpt>
      <trkpt lat="65.49829" lon="21.59464">
        <ele>34.275024</ele>
        <time>2020-09-26T10:44:40.879Z</time>
      </trkpt>
      <trkpt lat="65.4982" lon="21.5947">
        <ele>34.642214</ele>
        <time>2020-09-26T10:44:42.887Z</time>
      </trkpt>
      <trkpt lat="65.4981" lon="21.59478">
        <ele>35.00939</ele>
        <time>2020-09-26T10:44:44.934Z</time>
      </trkpt>
      <trkpt lat="65.49801" lon="21.59489">
        <ele>35.38855</ele>
        <time>2020-09-26T10:44:46.880Z</time>
      </trkpt>
      <trkpt lat="65.49792" lon="21.595">
        <ele>35.770247</ele>
        <time>2020-09-26T10:44:48.880Z</time>
      </trkpt>
      <trkpt lat="65.49783" lon="21.59513">
        <ele>36.155368</ele>
        <time>2020-09-26T10:44:50.879Z</time>
      </trkpt>
      <trkpt lat="65.49774" lon="21.59527">
        <ele>36.537048</ele>
        <time>2020-09-26T10:44:52.881Z</time>
      </trkpt>
      <trkpt lat="65.49766" lon="21.59541">
        <ele>36.908397</ele>
        <time>2020-09-26T10:44:54.886Z</time>
      </trkpt>
      <trkpt lat="65.49759" lon="21.59556">
        <ele>37.252174</ele>
        <time>2020-09-26T10:44:56.922Z</time>
      </trkpt>
      <trkpt lat="65.49749" lon="21.59578">
        <ele>37.742501</ele>
        <time>2020-09-26T10:44:59.891Z</time>
      </trkpt>
      <trkpt lat="65.49741" lon="21.59602">
        <ele>38.224611</ele>
        <time>2020-09-26T10:45:02.881Z</time>
      </trkpt>
      <trkpt lat="65.49732" lon="21.59623">
        <ele>38.860056</ele>
        <time>2020-09-26T10:45:05.897Z</time>
      </trkpt>
      <trkpt lat="65.49725" lon="21.59644">
        <ele>39.479437</ele>
        <time>2020-09-26T10:45:08.896Z</time>
      </trkpt>
      <trkpt lat="65.49718" lon="21.59662">
        <ele>40.050698</ele>
        <time>2020-09-26T10:45:11.890Z</time>
      </trkpt>
      <trkpt lat="65.49712" lon="21.5968">
        <ele>40.622326</ele>
        <time>2020-09-26T10:45:14.878Z</time>
      </trkpt>
      <trkpt lat="65.49706" lon="21.59698">
        <ele>41.169828</ele>
        <time>2020-09-26T10:45:17.897Z</time>
      </trkpt>
      <trkpt lat="65.497" lon="21.59715">
        <ele>41.681177</ele>
        <time>2020-09-26T10:45:20.882Z</time>
      </trkpt>
      <trkpt lat="65.49692" lon="21.59738">
        <ele>42.358227</ele>
        <time>2020-09-26T10:45:24.876Z</time>
      </trkpt>
      <trkpt lat="65.49685" lon="21.59758">
        <ele>43.002939</ele>
        <time>2020-09-26T10:45:28.889Z</time>
      </trkpt>
      <trkpt lat="65.49678" lon="21.5978">
        <ele>43.652894</ele>
        <time>2020-09-26T10:45:32.879Z</time>
      </trkpt>
      <trkpt lat="65.4967" lon="21.59801">
        <ele>44.308238</ele>
        <time>2020-09-26T10:45:36.892Z</time>
      </trkpt>
      <trkpt lat="65.49665" lon="21.59819">
        <ele>44.821578</ele>
        <time>2020-09-26T10:45:39.892Z</time>
      </trkpt>
      <trkpt lat="65.49659" lon="21.59835">
        <ele>45.329628</ele>
        <time>2020-09-26T10:45:42.880Z</time>
      </trkpt>
      <trkpt lat="65.49653" lon="21.59851">
        <ele>45.842935</ele>
        <time>2020-09-26T10:45:45.891Z</time>
      </trkpt>
      <trkpt lat="65.49645" lon="21.59873">
        <ele>46.525587</ele>
        <time>2020-09-26T10:45:49.875Z</time>
      </trkpt>
      <trkpt lat="65.49638" lon="21.5989">
        <ele>47.060912</ele>
        <time>2020-09-26T10:45:52.945Z</time>
      </trkpt>
      <trkpt lat="65.49632" lon="21.59907">
        <ele>47.577642</ele>
        <time>2020-09-26T10:45:55.890Z</time>
      </trkpt>
      <trkpt lat="65.49625" lon="21.59929">
        <ele>48.238395</ele>
        <time>2020-09-26T10:45:58.871Z</time>
      </trkpt>
      <trkpt lat="65.49617" lon="21.59951">
        <ele>48.083982</ele>
        <time>2020-09-26T10:46:01.886Z</time>
      </trkpt>
      <trkpt lat="65.49611" lon="21.59967">
        <ele>47.64384</ele>
        <time>2020-09-26T10:46:03.894Z</time>
      </trkpt>
      <trkpt lat="65.49603" lon="21.59986">
        <ele>47.130178</ele>
        <time>2020-09-26T10:46:05.900Z</time>
      </trkpt>
      <trkpt lat="65.49594" lon="21.60006">
        <ele>46.545639</ele>
        <time>2020-09-26T10:46:07.887Z</time>
      </trkpt>
      <trkpt lat="65.49584" lon="21.60027">
        <ele>45.920386</ele>
        <time>2020-09-26T10:46:09.892Z</time>
      </trkpt>
      <trkpt lat="65.49575" lon="21.60047">
        <ele>45.318212</ele>
        <time>2020-09-26T10:46:11.894Z</time>
      </trkpt>
      <trkpt lat="65.49565" lon="21.60067">
        <ele>44.715339</ele>
        <time>2020-09-26T10:46:13.896Z</time>
      </trkpt>
      <trkpt lat="65.49556" lon="21.60087">
        <ele>44.113748</ele>
        <time>2020-09-26T10:46:15.899Z</time>
      </trkpt>
      <trkpt lat="65.49546" lon="21.60107">
        <ele>43.500787</ele>
        <time>2020-09-26T10:46:17.887Z</time>
      </trkpt>
      <trkpt lat="65.49536" lon="21.60127">
        <ele>42.891698</ele>
        <time>2020-09-26T10:46:19.877Z</time>
      </trkpt>
      <trkpt lat="65.49527" lon="21.60146">
        <ele>42.284039</ele>
        <time>2020-09-26T10:46:21.896Z</time>
      </trkpt>
      <trkpt lat="65.49516" lon="21.60167">
        <ele>41.647829</ele>
        <time>2020-09-26T10:46:23.895Z</time>
      </trkpt>
      <trkpt lat="65.49506" lon="21.60186">
        <ele>41.035186</ele>
        <time>2020-09-26T10:46:25.886Z</time>
      </trkpt>
      <trkpt lat="65.49497" lon="21.60205">
        <ele>40.444732</ele>
        <time>2020-09-26T10:46:27.900Z</time>
      </trkpt>
      <trkpt lat="65.49487" lon="21.60222">
        <ele>39.88013</ele>
        <time>2020-09-26T10:46:29.874Z</time>
      </trkpt>
      <trkpt lat="65.49478" lon="21.60239">
        <ele>39.800508</ele>
        <time>2020-09-26T10:46:31.878Z</time>
      </trkpt>
      <trkpt lat="65.49468" lon="21.60256">
        <ele>39.730233</ele>
        <time>2020-09-26T10:46:33.896Z</time>
      </trkpt>
      <trkpt lat="65.49458" lon="21.60271">
        <ele>39.661149</ele>
        <time>2020-09-26T10:46:35.875Z</time>
      </trkpt>
      <trkpt lat="65.49448" lon="21.60286">
        <ele>39.594257</ele>
        <time>2020-09-26T10:46:37.882Z</time>
      </trkpt>
      <trkpt lat="65.49438" lon="21.60301">
        <ele>39.527029</ele>
        <time>2020-09-26T10:46:39.887Z</time>
      </trkpt>
      <trkpt lat="65.49428" lon="21.60314">
        <ele>39.461905</ele>
        <time>2020-09-26T10:46:41.881Z</time>
      </trkpt>
      <trkpt lat="65.49419" lon="21.60329">
        <ele>39.396018</ele>
        <time>2020-09-26T10:46:43.893Z</time>
      </trkpt>
      <trkpt lat="65.49409" lon="21.60343">
        <ele>39.331764</ele>
        <time>2020-09-26T10:46:45.890Z</time>
      </trkpt>
      <trkpt lat="65.49399" lon="21.60357">
        <ele>39.266382</ele>
        <time>2020-09-26T10:46:47.877Z</time>
      </trkpt>
      <trkpt lat="65.49389" lon="21.6037">
        <ele>39.199878</ele>
        <time>2020-09-26T10:46:49.874Z</time>
      </trkpt>
      <trkpt lat="65.49379" lon="21.60384">
        <ele>39.133841</ele>
        <time>2020-09-26T10:46:51.896Z</time>
      </trkpt>
      <trkpt lat="65.49369" lon="21.60397">
        <ele>39.067242</ele>
        <time>2020-09-26T10:46:53.921Z</time>
      </trkpt>
      <trkpt lat="65.49359" lon="21.60409">
        <ele>39.003022</ele>
        <time>2020-09-26T10:46:55.912Z</time>
      </trkpt>
      <trkpt lat="65.4935" lon="21.60421">
        <ele>38.942144</ele>
        <time>2020-09-26T10:46:57.876Z</time>
      </trkpt>
      <trkpt lat="65.49342" lon="21.60432">
        <ele>38.886986</ele>
        <time>2020-09-26T10:46:59.888Z</time>
      </trkpt>
      <trkpt lat="65.49331" lon="21.60447">
        <ele>38.810859</ele>
        <time>2020-09-26T10:47:02.887Z</time>
      </trkpt>
      <trkpt lat="65.49321" lon="21.6046">
        <ele>38.725269</ele>
        <time>2020-09-26T10:47:05.893Z</time>
      </trkpt>
      <trkpt lat="65.49312" lon="21.60473">
        <ele>38.645985</ele>
        <time>2020-09-26T10:47:08.881Z</time>
      </trkpt>
      <trkpt lat="65.49304" lon="21.60485">
        <ele>38.569809</ele>
        <time>2020-09-26T10:47:11.907Z</time>
      </trkpt>
      <trkpt lat="65.49294" lon="21.60496">
        <ele>38.485212</ele>
        <time>2020-09-26T10:47:14.880Z</time>
      </trkpt>
      <trkpt lat="65.49283" lon="21.60513">
        <ele>38.387945</ele>
        <time>2020-09-26T10:47:17.887Z</time>
      </trkpt>
      <trkpt lat="65.49275" lon="21.60523">
        <ele>38.317517</ele>
        <time>2020-09-26T10:47:19.891Z</time>
      </trkpt>
      <trkpt lat="65.49267" lon="21.60532">
        <ele>38.24822</ele>
        <time>2020-09-26T10:47:21.877Z</time>
      </trkpt>
      <trkpt lat="65.49258" lon="21.60542">
        <ele>38.174154</ele>
        <time>2020-09-26T10:47:23.889Z</time>
      </trkpt>
      <trkpt lat="65.4925" lon="21.60553">
        <ele>38.101313</ele>
        <time>2020-09-26T10:47:25.916Z</time>
      </trkpt>
      <trkpt lat="65.49241" lon="21.60563">
        <ele>38.027811</ele>
        <time>2020-09-26T10:47:27.887Z</time>
      </trkpt>
      <trkpt lat="65.49232" lon="21.60573">
        <ele>37.949024</ele>
        <time>2020-09-26T10:47:29.904Z</time>
      </trkpt>
      <trkpt lat="65.49222" lon="21.60583">
        <ele>37.865682</ele>
        <time>2020-09-26T10:47:31.886Z</time>
      </trkpt>
      <trkpt lat="65.49211" lon="21.60592">
        <ele>37.778122</ele>
        <time>2020-09-26T10:47:33.896Z</time>
      </trkpt>
      <trkpt lat="65.49201" lon="21.606">
        <ele>37.696214</ele>
        <time>2020-09-26T10:47:35.918Z</time>
      </trkpt>
      <trkpt lat="65.4919" lon="21.60607">
        <ele>37.603421</ele>
        <time>2020-09-26T10:47:37.898Z</time>
      </trkpt>
      <trkpt lat="65.49178" lon="21.60613">
        <ele>37.515556</ele>
        <time>2020-09-26T10:47:39.904Z</time>
      </trkpt>
      <trkpt lat="65.49168" lon="21.60617">
        <ele>37.414813</ele>
        <time>2020-09-26T10:47:41.879Z</time>
      </trkpt>
      <trkpt lat="65.49157" lon="21.6062">
        <ele>37.205794</ele>
        <time>2020-09-26T10:47:43.905Z</time>
      </trkpt>
      <trkpt lat="65.49146" lon="21.60622">
        <ele>36.997712</ele>
        <time>2020-09-26T10:47:45.876Z</time>
      </trkpt>
      <trkpt lat="65.49135" lon="21.60624">
        <ele>36.784229</ele>
        <time>2020-09-26T10:47:47.920Z</time>
      </trkpt>
      <trkpt lat="65.49124" lon="21.60625">
        <ele>36.563218</ele>
        <time>2020-09-26T10:47:49.916Z</time>
      </trkpt>
      <trkpt lat="65.49113" lon="21.60627">
        <ele>36.34947</ele>
        <time>2020-09-26T10:47:51.900Z</time>
      </trkpt>
      <trkpt lat="65.49102" lon="21.60628">
        <ele>36.134209</ele>
        <time>2020-09-26T10:47:53.883Z</time>
      </trkpt>
      <trkpt lat="65.49091" lon="21.60629">
        <ele>35.930626</ele>
        <time>2020-09-26T10:47:55.897Z</time>
      </trkpt>
      <trkpt lat="65.4908" lon="21.6063">
        <ele>35.721261</ele>
        <time>2020-09-26T10:47:57.882Z</time>
      </trkpt>
      <trkpt lat="65.4907" lon="21.60631">
        <ele>35.515643</ele>
        <time>2020-09-26T10:47:59.908Z</time>
      </trkpt>
      <trkpt lat="65.49059" lon="21.60632">
        <ele>35.308051</ele>
        <time>2020-09-26T10:48:01.892Z</time>
      </trkpt>
      <trkpt lat="65.49048" lon="21.60633">
        <ele>35.100683</ele>
        <time>2020-09-26T10:48:03.886Z</time>
      </trkpt>
      <trkpt lat="65.49038" lon="21.60633">
        <ele>34.899064</ele>
        <time>2020-09-26T10:48:05.896Z</time>
      </trkpt>
      <trkpt lat="65.49028" lon="21.60636">
        <ele>34.700146</ele>
        <time>2020-09-26T10:48:07.876Z</time>
      </trkpt>
      <trkpt lat="65.49018" lon="21.60639">
        <ele>34.50333</ele>
        <time>2020-09-26T10:48:09.906Z</time>
      </trkpt>
      <trkpt lat="65.49008" lon="21.60641">
        <ele>34.308525</ele>
        <time>2020-09-26T10:48:11.906Z</time>
      </trkpt>
      <trkpt lat="65.48997" lon="21.60644">
        <ele>34.107397</ele>
        <time>2020-09-26T10:48:13.884Z</time>
      </trkpt>
      <trkpt lat="65.48987" lon="21.60648">
        <ele>33.965144</ele>
        <time>2020-09-26T10:48:15.893Z</time>
      </trkpt>
      <trkpt lat="65.48977" lon="21.60654">
        <ele>33.990831</ele>
        <time>2020-09-26T10:48:17.876Z</time>
      </trkpt>
      <trkpt lat="65.48967" lon="21.60662">
        <ele>34.017288</ele>
        <time>2020-09-26T10:48:19.887Z</time>
      </trkpt>
      <trkpt lat="65.48958" lon="21.60671">
        <ele>34.044177</ele>
        <time>2020-09-26T10:48:21.926Z</time>
      </trkpt>
      <trkpt lat="65.48947" lon="21.60682">
        <ele>34.072224</ele>
        <time>2020-09-26T10:48:23.899Z</time>
      </trkpt>
      <trkpt lat="65.48937" lon="21.60695">
        <ele>34.101052</ele>
        <time>2020-09-26T10:48:25.881Z</time>
      </trkpt>
      <trkpt lat="65.48928" lon="21.6071">
        <ele>34.129678</ele>
        <time>2020-09-26T10:48:27.901Z</time>
      </trkpt>
      <trkpt lat="65.48918" lon="21.60725">
        <ele>34.158827</ele>
        <time>2020-09-26T10:48:29.879Z</time>
      </trkpt>
      <trkpt lat="65.48909" lon="21.60742">
        <ele>34.188316</ele>
        <time>2020-09-26T10:48:31.885Z</time>
      </trkpt>
      <trkpt lat="65.489" lon="21.6076">
        <ele>34.218368</ele>
        <time>2020-09-26T10:48:33.893Z</time>
      </trkpt>
      <trkpt lat="65.48891" lon="21.6078">
        <ele>34.248829</ele>
        <time>2020-09-26T10:48:35.876Z</time>
      </trkpt>
      <trkpt lat="65.48883" lon="21.60802">
        <ele>34.278649</ele>
        <time>2020-09-26T10:48:37.871Z</time>
      </trkpt>
      <trkpt lat="65.48876" lon="21.60824">
        <ele>34.308958</ele>
        <time>2020-09-26T10:48:39.882Z</time>
      </trkpt>
      <trkpt lat="65.48869" lon="21.60847">
        <ele>34.338269</ele>
        <time>2020-09-26T10:48:41.905Z</time>
      </trkpt>
      <trkpt lat="65.48863" lon="21.6087">
        <ele>34.367381</ele>
        <time>2020-09-26T10:48:43.880Z</time>
      </trkpt>
      <trkpt lat="65.48857" lon="21.60895">
        <ele>34.397578</ele>
        <time>2020-09-26T10:48:45.903Z</time>
      </trkpt>
      <trkpt lat="65.48853" lon="21.60919">
        <ele>34.391714</ele>
        <time>2020-09-26T10:48:47.917Z</time>
      </trkpt>
      <trkpt lat="65.48849" lon="21.60941">
        <ele>34.342462</ele>
        <time>2020-09-26T10:48:49.896Z</time>
      </trkpt>
      <trkpt lat="65.48846" lon="21.60964">
        <ele>34.292666</ele>
        <time>2020-09-26T10:48:51.888Z</time>
      </trkpt>
      <trkpt lat="65.48842" lon="21.60986">
        <ele>34.243456</ele>
        <time>2020-09-26T10:48:53.909Z</time>
      </trkpt>
      <trkpt lat="65.48839" lon="21.61009">
        <ele>34.193983</ele>
        <time>2020-09-26T10:48:55.874Z</time>
      </trkpt>
      <trkpt lat="65.48836" lon="21.6103">
        <ele>34.147451</ele>
        <time>2020-09-26T10:48:57.933Z</time>
      </trkpt>
      <trkpt lat="65.48833" lon="21.61051">
        <ele>34.101742</ele>
        <time>2020-09-26T10:48:59.884Z</time>
      </trkpt>
      <trkpt lat="65.48831" lon="21.61073">
        <ele>34.055752</ele>
        <time>2020-09-26T10:49:01.915Z</time>
      </trkpt>
      <trkpt lat="65.48828" lon="21.61094">
        <ele>34.010103</ele>
        <time>2020-09-26T10:49:03.927Z</time>
      </trkpt>
      <trkpt lat="65.48826" lon="21.61115">
        <ele>33.965054</ele>
        <time>2020-09-26T10:49:05.885Z</time>
      </trkpt>
      <trkpt lat="65.48823" lon="21.61146">
        <ele>33.898968</ele>
        <time>2020-09-26T10:49:08.907Z</time>
      </trkpt>
      <trkpt lat="65.48821" lon="21.61167">
        <ele>33.854074</ele>
        <time>2020-09-26T10:49:10.885Z</time>
      </trkpt>
      <trkpt lat="65.48818" lon="21.61188">
        <ele>33.809493</ele>
        <time>2020-09-26T10:49:12.874Z</time>
      </trkpt>
      <trkpt lat="65.48815" lon="21.61219">
        <ele>33.743328</ele>
        <time>2020-09-26T10:49:15.873Z</time>
      </trkpt>
      <trkpt lat="65.48813" lon="21.61241">
        <ele>33.697719</ele>
        <time>2020-09-26T10:49:17.877Z</time>
      </trkpt>
      <trkpt lat="65.4881" lon="21.61262">
        <ele>33.651522</ele>
        <time>2020-09-26T10:49:19.882Z</time>
      </trkpt>
      <trkpt lat="65.48806" lon="21.61283">
        <ele>33.603458</ele>
        <time>2020-09-26T10:49:21.893Z</time>
      </trkpt>
      <trkpt lat="65.48801" lon="21.61304">
        <ele>33.555019</ele>
        <time>2020-09-26T10:49:23.883Z</time>
      </trkpt>
      <trkpt lat="65.48796" lon="21.61325">
        <ele>33.514456</ele>
        <time>2020-09-26T10:49:25.881Z</time>
      </trkpt>
      <trkpt lat="65.48791" lon="21.61347">
        <ele>33.499038</ele>
        <time>2020-09-26T10:49:27.893Z</time>
      </trkpt>
      <trkpt lat="65.48784" lon="21.61368">
        <ele>33.482961</ele>
        <time>2020-09-26T10:49:29.924Z</time>
      </trkpt>
      <trkpt lat="65.48777" lon="21.6139">
        <ele>33.466448</ele>
        <time>2020-09-26T10:49:31.885Z</time>
      </trkpt>
      <trkpt lat="65.48769" lon="21.61412">
        <ele>33.44905</ele>
        <time>2020-09-26T10:49:33.905Z</time>
      </trkpt>
      <trkpt lat="65.4876" lon="21.61433">
        <ele>33.431222</ele>
        <time>2020-09-26T10:49:35.899Z</time>
      </trkpt>
      <trkpt lat="65.48752" lon="21.61453">
        <ele>33.414012</ele>
        <time>2020-09-26T10:49:37.905Z</time>
      </trkpt>
      <trkpt lat="65.48744" lon="21.61472">
        <ele>33.397891</ele>
        <time>2020-09-26T10:49:39.884Z</time>
      </trkpt>
      <trkpt lat="65.48737" lon="21.6149">
        <ele>33.383564</ele>
        <time>2020-09-26T10:49:41.887Z</time>
      </trkpt>
      <trkpt lat="65.48731" lon="21.61508">
        <ele>33.369127</ele>
        <time>2020-09-26T10:49:43.876Z</time>
      </trkpt>
      <trkpt lat="65.48725" lon="21.61528">
        <ele>33.354538</ele>
        <time>2020-09-26T10:49:45.887Z</time>
      </trkpt>
      <trkpt lat="65.48719" lon="21.61547">
        <ele>33.340276</ele>
        <time>2020-09-26T10:49:47.903Z</time>
      </trkpt>
      <trkpt lat="65.48714" lon="21.61567">
        <ele>33.326383</ele>
        <time>2020-09-26T10:49:49.906Z</time>
      </trkpt>
      <trkpt lat="65.4871" lon="21.61586">
        <ele>33.313271</ele>
        <time>2020-09-26T10:49:51.896Z</time>
      </trkpt>
      <trkpt lat="65.48704" lon="21.61614">
        <ele>33.294729</ele>
        <time>2020-09-26T10:49:54.921Z</time>
      </trkpt>
      <trkpt lat="65.487" lon="21.61641">
        <ele>33.277584</ele>
        <time>2020-09-26T10:49:57.886Z</time>
      </trkpt>
      <trkpt lat="65.48698" lon="21.6167">
        <ele>33.260033</ele>
        <time>2020-09-26T10:50:00.945Z</time>
      </trkpt>
      <trkpt lat="65.48697" lon="21.61701">
        <ele>33.266839</ele>
        <time>2020-09-26T10:50:03.879Z</time>
      </trkpt>
      <trkpt lat="65.48697" lon="21.61723">
        <ele>33.272981</ele>
        <time>2020-09-26T10:50:05.873Z</time>
      </trkpt>
      <trkpt lat="65.48697" lon="21.61744">
        <ele>33.279146</ele>
        <time>2020-09-26T10:50:07.883Z</time>
      </trkpt>
      <trkpt lat="65.48697" lon="21.61766">
        <ele>33.285368</ele>
        <time>2020-09-26T10:50:09.884Z</time>
      </trkpt>
      <trkpt lat="65.48698" lon="21.61789">
        <ele>33.291768</ele>
        <time>2020-09-26T10:50:11.897Z</time>
      </trkpt>
      <trkpt lat="65.487" lon="21.61811">
        <ele>33.298194</ele>
        <time>2020-09-26T10:50:13.898Z</time>
      </trkpt>
      <trkpt lat="65.48702" lon="21.61833">
        <ele>33.304628</ele>
        <time>2020-09-26T10:50:15.904Z</time>
      </trkpt>
      <trkpt lat="65.48705" lon="21.61855">
        <ele>33.31117</ele>
        <time>2020-09-26T10:50:17.895Z</time>
      </trkpt>
      <trkpt lat="65.48708" lon="21.61876">
        <ele>33.317479</ele>
        <time>2020-09-26T10:50:19.904Z</time>
      </trkpt>
      <trkpt lat="65.48712" lon="21.61897">
        <ele>33.324196</ele>
        <time>2020-09-26T10:50:21.875Z</time>
      </trkpt>
      <trkpt lat="65.48716" lon="21.61919">
        <ele>33.330808</ele>
        <time>2020-09-26T10:50:23.884Z</time>
      </trkpt>
      <trkpt lat="65.48719" lon="21.6194">
        <ele>33.337107</ele>
        <time>2020-09-26T10:50:25.893Z</time>
      </trkpt>
      <trkpt lat="65.48722" lon="21.61961">
        <ele>33.343427</ele>
        <time>2020-09-26T10:50:27.883Z</time>
      </trkpt>
      <trkpt lat="65.48725" lon="21.61981">
        <ele>33.349651</ele>
        <time>2020-09-26T10:50:29.900Z</time>
      </trkpt>
      <trkpt lat="65.48728" lon="21.62003">
        <ele>33.356046</ele>
        <time>2020-09-26T10:50:31.894Z</time>
      </trkpt>
      <trkpt lat="65.48731" lon="21.62026">
        <ele>33.362922</ele>
        <time>2020-09-26T10:50:33.883Z</time>
      </trkpt>
      <trkpt lat="65.48734" lon="21.62049">
        <ele>33.369921</ele>
        <time>2020-09-26T10:50:35.902Z</time>
      </trkpt>
      <trkpt lat="65.48737" lon="21.62073">
        <ele>33.376851</ele>
        <time>2020-09-26T10:50:37.925Z</time>
      </trkpt>
      <trkpt lat="65.4874" lon="21.62096">
        <ele>33.468322</ele>
        <time>2020-09-26T10:50:39.907Z</time>
      </trkpt>
      <trkpt lat="65.48743" lon="21.6212">
        <ele>33.756404</ele>
        <time>2020-09-26T10:50:41.899Z</time>
      </trkpt>
      <trkpt lat="65.48744" lon="21.62144">
        <ele>34.044816</ele>
        <time>2020-09-26T10:50:43.928Z</time>
      </trkpt>
      <trkpt lat="65.48746" lon="21.62168">
        <ele>34.336717</ele>
        <time>2020-09-26T10:50:45.880Z</time>
      </trkpt>
      <trkpt lat="65.48747" lon="21.62192">
        <ele>34.621293</ele>
        <time>2020-09-26T10:50:47.879Z</time>
      </trkpt>
      <trkpt lat="65.48748" lon="21.62216">
        <ele>34.897653</ele>
        <time>2020-09-26T10:50:49.902Z</time>
      </trkpt>
      <trkpt lat="65.48748" lon="21.62247">
        <ele>35.264746</ele>
        <time>2020-09-26T10:50:52.885Z</time>
      </trkpt>
      <trkpt lat="65.48749" lon="21.62273">
        <ele>35.574062</ele>
        <time>2020-09-26T10:50:55.878Z</time>
      </trkpt>
      <trkpt lat="65.48747" lon="21.62295">
        <ele>35.838737</ele>
        <time>2020-09-26T10:50:58.895Z</time>
      </trkpt>
      <trkpt lat="65.48745" lon="21.62322">
        <ele>36.164526</ele>
        <time>2020-09-26T10:51:02.917Z</time>
      </trkpt>
      <trkpt lat="65.48743" lon="21.62343">
        <ele>36.423329</ele>
        <time>2020-09-26T10:51:05.906Z</time>
      </trkpt>
      <trkpt lat="65.48741" lon="21.62365">
        <ele>36.685732</ele>
        <time>2020-09-26T10:51:08.892Z</time>
      </trkpt>
      <trkpt lat="65.48737" lon="21.62386">
        <ele>36.952786</ele>
        <time>2020-09-26T10:51:11.888Z</time>
      </trkpt>
      <trkpt lat="65.48734" lon="21.62408">
        <ele>37.232857</ele>
        <time>2020-09-26T10:51:14.891Z</time>
      </trkpt>
      <trkpt lat="65.4873" lon="21.62431">
        <ele>37.519063</ele>
        <time>2020-09-26T10:51:17.923Z</time>
      </trkpt>
      <trkpt lat="65.48727" lon="21.62454">
        <ele>37.812239</ele>
        <time>2020-09-26T10:51:20.886Z</time>
      </trkpt>
      <trkpt lat="65.48722" lon="21.62478">
        <ele>38.12189</ele>
        <time>2020-09-26T10:51:23.891Z</time>
      </trkpt>
      <trkpt lat="65.48718" lon="21.62505">
        <ele>38.459712</ele>
        <time>2020-09-26T10:51:26.892Z</time>
      </trkpt>
      <trkpt lat="65.48712" lon="21.62531">
        <ele>38.68541</ele>
        <time>2020-09-26T10:51:29.903Z</time>
      </trkpt>
      <trkpt lat="65.48707" lon="21.6255">
        <ele>38.835924</ele>
        <time>2020-09-26T10:51:31.905Z</time>
      </trkpt>
      <trkpt lat="65.48701" lon="21.6257">
        <ele>39.011212</ele>
        <time>2020-09-26T10:51:33.881Z</time>
      </trkpt>
      <trkpt lat="65.48694" lon="21.62592">
        <ele>39.206583</ele>
        <time>2020-09-26T10:51:35.886Z</time>
      </trkpt>
      <trkpt lat="65.48685" lon="21.62613">
        <ele>39.411331</ele>
        <time>2020-09-26T10:51:37.906Z</time>
      </trkpt>
      <trkpt lat="65.48676" lon="21.62638">
        <ele>39.642424</ele>
        <time>2020-09-26T10:51:39.905Z</time>
      </trkpt>
      <trkpt lat="65.48667" lon="21.62662">
        <ele>39.869105</ele>
        <time>2020-09-26T10:51:41.920Z</time>
      </trkpt>
      <trkpt lat="65.48658" lon="21.62683">
        <ele>40.081006</ele>
        <time>2020-09-26T10:51:43.904Z</time>
      </trkpt>
      <trkpt lat="65.48651" lon="21.62703">
        <ele>40.273114</ele>
        <time>2020-09-26T10:51:45.933Z</time>
      </trkpt>
      <trkpt lat="65.48643" lon="21.62721">
        <ele>40.449336</ele>
        <time>2020-09-26T10:51:47.887Z</time>
      </trkpt>
      <trkpt lat="65.48636" lon="21.62738">
        <ele>40.618252</ele>
        <time>2020-09-26T10:51:49.904Z</time>
      </trkpt>
      <trkpt lat="65.48629" lon="21.62754">
        <ele>40.783075</ele>
        <time>2020-09-26T10:51:51.896Z</time>
      </trkpt>
      <trkpt lat="65.48622" lon="21.62771">
        <ele>40.945538</ele>
        <time>2020-09-26T10:51:53.886Z</time>
      </trkpt>
      <trkpt lat="65.48615" lon="21.62788">
        <ele>41.111556</ele>
        <time>2020-09-26T10:51:55.907Z</time>
      </trkpt>
      <trkpt lat="65.48608" lon="21.62805">
        <ele>41.283913</ele>
        <time>2020-09-26T10:51:57.871Z</time>
      </trkpt>
      <trkpt lat="65.48601" lon="21.62823">
        <ele>41.457266</ele>
        <time>2020-09-26T10:51:59.893Z</time>
      </trkpt>
      <trkpt lat="65.48594" lon="21.62841">
        <ele>41.319855</ele>
        <time>2020-09-26T10:52:01.885Z</time>
      </trkpt>
      <trkpt lat="65.48587" lon="21.62857">
        <ele>40.995882</ele>
        <time>2020-09-26T10:52:03.925Z</time>
      </trkpt>
      <trkpt lat="65.48581" lon="21.62873">
        <ele>40.67433</ele>
        <time>2020-09-26T10:52:05.877Z</time>
      </trkpt>
      <trkpt lat="65.48574" lon="21.62889">
        <ele>40.348335</ele>
        <time>2020-09-26T10:52:07.904Z</time>
      </trkpt>
      <trkpt lat="65.48567" lon="21.62905">
        <ele>40.014726</ele>
        <time>2020-09-26T10:52:09.900Z</time>
      </trkpt>
      <trkpt lat="65.4856" lon="21.62921">
        <ele>39.677775</ele>
        <time>2020-09-26T10:52:11.924Z</time>
      </trkpt>
      <trkpt lat="65.48553" lon="21.62938">
        <ele>39.336365</ele>
        <time>2020-09-26T10:52:13.880Z</time>
      </trkpt>
      <trkpt lat="65.48546" lon="21.62955">
        <ele>38.989485</ele>
        <time>2020-09-26T10:52:15.923Z</time>
      </trkpt>
      <trkpt lat="65.48538" lon="21.62973">
        <ele>38.635238</ele>
        <time>2020-09-26T10:52:17.901Z</time>
      </trkpt>
      <trkpt lat="65.48532" lon="21.62991">
        <ele>38.287375</ele>
        <time>2020-09-26T10:52:19.874Z</time>
      </trkpt>
      <trkpt lat="65.48525" lon="21.6301">
        <ele>37.923918</ele>
        <time>2020-09-26T10:52:21.892Z</time>
      </trkpt>
      <trkpt lat="65.48518" lon="21.6303">
        <ele>37.543173</ele>
        <time>2020-09-26T10:52:23.884Z</time>
      </trkpt>
      <trkpt lat="65.48511" lon="21.6305">
        <ele>37.172348</ele>
        <time>2020-09-26T10:52:25.893Z</time>
      </trkpt>
      <trkpt lat="65.48504" lon="21.6307">
        <ele>36.807056</ele>
        <time>2020-09-26T10:52:27.872Z</time>
      </trkpt>
      <trkpt lat="65.48498" lon="21.63089">
        <ele>36.453707</ele>
        <time>2020-09-26T10:52:29.908Z</time>
      </trkpt>
      <trkpt lat="65.48491" lon="21.63108">
        <ele>36.111527</ele>
        <time>2020-09-26T10:52:31.935Z</time>
      </trkpt>
      <trkpt lat="65.48485" lon="21.63126">
        <ele>35.780183</ele>
        <time>2020-09-26T10:52:33.893Z</time>
      </trkpt>
      <trkpt lat="65.4848" lon="21.63144">
        <ele>35.457576</ele>
        <time>2020-09-26T10:52:35.887Z</time>
      </trkpt>
      <trkpt lat="65.48474" lon="21.63161">
        <ele>35.403451</ele>
        <time>2020-09-26T10:52:37.905Z</time>
      </trkpt>
      <trkpt lat="65.48465" lon="21.63186">
        <ele>35.586907</ele>
        <time>2020-09-26T10:52:40.907Z</time>
      </trkpt>
      <trkpt lat="65.48459" lon="21.63204">
        <ele>35.714445</ele>
        <time>2020-09-26T10:52:42.898Z</time>
      </trkpt>
      <trkpt lat="65.48453" lon="21.63221">
        <ele>35.844117</ele>
        <time>2020-09-26T10:52:44.896Z</time>
      </trkpt>
      <trkpt lat="65.48445" lon="21.63247">
        <ele>36.025616</ele>
        <time>2020-09-26T10:52:47.921Z</time>
      </trkpt>
      <trkpt lat="65.48439" lon="21.63264">
        <ele>36.152681</ele>
        <time>2020-09-26T10:52:49.900Z</time>
      </trkpt>
      <trkpt lat="65.48433" lon="21.63282">
        <ele>36.285833</ele>
        <time>2020-09-26T10:52:51.937Z</time>
      </trkpt>
      <trkpt lat="65.48426" lon="21.633">
        <ele>36.418187</ele>
        <time>2020-09-26T10:52:53.889Z</time>
      </trkpt>
      <trkpt lat="65.4842" lon="21.63318">
        <ele>36.547421</ele>
        <time>2020-09-26T10:52:55.883Z</time>
      </trkpt>
      <trkpt lat="65.48415" lon="21.63336">
        <ele>36.677572</ele>
        <time>2020-09-26T10:52:57.902Z</time>
      </trkpt>
      <trkpt lat="65.48409" lon="21.63354">
        <ele>36.804803</ele>
        <time>2020-09-26T10:52:59.900Z</time>
      </trkpt>
      <trkpt lat="65.48403" lon="21.63372">
        <ele>36.936632</ele>
        <time>2020-09-26T10:53:01.875Z</time>
      </trkpt>
      <trkpt lat="65.48394" lon="21.63398">
        <ele>37.122719</ele>
        <time>2020-09-26T10:53:04.919Z</time>
      </trkpt>
      <trkpt lat="65.48389" lon="21.63415">
        <ele>37.246765</ele>
        <time>2020-09-26T10:53:06.921Z</time>
      </trkpt>
      <trkpt lat="65.48382" lon="21.63433">
        <ele>37.378595</ele>
        <time>2020-09-26T10:53:08.884Z</time>
      </trkpt>
      <trkpt lat="65.48376" lon="21.63451">
        <ele>37.508303</ele>
        <time>2020-09-26T10:53:10.877Z</time>
      </trkpt>
      <trkpt lat="65.4837" lon="21.6347">
        <ele>37.644656</ele>
        <time>2020-09-26T10:53:12.886Z</time>
      </trkpt>
      <trkpt lat="65.48365" lon="21.63488">
        <ele>37.77264</ele>
        <time>2020-09-26T10:53:14.877Z</time>
      </trkpt>
      <trkpt lat="65.48358" lon="21.63508">
        <ele>38.127337</ele>
        <time>2020-09-26T10:53:16.899Z</time>
      </trkpt>
      <trkpt lat="65.48351" lon="21.63527">
        <ele>38.484979</ele>
        <time>2020-09-26T10:53:18.881Z</time>
      </trkpt>
      <trkpt lat="65.48344" lon="21.63545">
        <ele>38.836366</ele>
        <time>2020-09-26T10:53:20.883Z</time>
      </trkpt>
      <trkpt lat="65.48337" lon="21.63563">
        <ele>39.189021</ele>
        <time>2020-09-26T10:53:22.907Z</time>
      </trkpt>
      <trkpt lat="65.48331" lon="21.6358">
        <ele>39.505579</ele>
        <time>2020-09-26T10:53:24.882Z</time>
      </trkpt>
      <trkpt lat="65.48322" lon="21.63602">
        <ele>39.949127</ele>
        <time>2020-09-26T10:53:27.899Z</time>
      </trkpt>
      <trkpt lat="65.48313" lon="21.63624">
        <ele>40.384131</ele>
        <time>2020-09-26T10:53:30.881Z</time>
      </trkpt>
      <trkpt lat="65.48304" lon="21.63644">
        <ele>40.79992</ele>
        <time>2020-09-26T10:53:33.898Z</time>
      </trkpt>
      <trkpt lat="65.48296" lon="21.63663">
        <ele>41.20238</ele>
        <time>2020-09-26T10:53:36.896Z</time>
      </trkpt>
      <trkpt lat="65.48287" lon="21.63682">
        <ele>41.598802</ele>
        <time>2020-09-26T10:53:39.869Z</time>
      </trkpt>
      <trkpt lat="65.48278" lon="21.63701">
        <ele>42.008572</ele>
        <time>2020-09-26T10:53:42.903Z</time>
      </trkpt>
      <trkpt lat="65.4827" lon="21.63718">
        <ele>42.384239</ele>
        <time>2020-09-26T10:53:45.903Z</time>
      </trkpt>
      <trkpt lat="65.48262" lon="21.63733">
        <ele>42.727062</ele>
        <time>2020-09-26T10:53:48.887Z</time>
      </trkpt>
      <trkpt lat="65.48255" lon="21.63748">
        <ele>43.041228</ele>
        <time>2020-09-26T10:53:51.902Z</time>
      </trkpt>
      <trkpt lat="65.48246" lon="21.63766">
        <ele>43.440837</ele>
        <time>2020-09-26T10:53:55.887Z</time>
      </trkpt>
      <trkpt lat="65.48238" lon="21.63787">
        <ele>43.85027</ele>
        <time>2020-09-26T10:53:59.881Z</time>
      </trkpt>
      <trkpt lat="65.48232" lon="21.63803">
        <ele>43.91541</ele>
        <time>2020-09-26T10:54:02.885Z</time>
      </trkpt>
      <trkpt lat="65.48225" lon="21.6382">
        <ele>43.890171</ele>
        <time>2020-09-26T10:54:05.919Z</time>
      </trkpt>
      <trkpt lat="65.48218" lon="21.63842">
        <ele>43.859514</ele>
        <time>2020-09-26T10:54:09.881Z</time>
      </trkpt>
      <trkpt lat="65.48213" lon="21.6386">
        <ele>43.83547</ele>
        <time>2020-09-26T10:54:12.933Z</time>
      </trkpt>
      <trkpt lat="65.48207" lon="21.63884">
        <ele>43.803857</ele>
        <time>2020-09-26T10:54:16.878Z</time>
      </trkpt>
      <trkpt lat="65.48203" lon="21.63905">
        <ele>43.777883</ele>
        <time>2020-09-26T10:54:19.886Z</time>
      </trkpt>
      <trkpt lat="65.48198" lon="21.63926">
        <ele>43.752047</ele>
        <time>2020-09-26T10:54:22.872Z</time>
      </trkpt>
      <trkpt lat="65.48193" lon="21.63946">
        <ele>43.726046</ele>
        <time>2020-09-26T10:54:25.885Z</time>
      </trkpt>
      <trkpt lat="65.48189" lon="21.63969">
        <ele>43.698455</ele>
        <time>2020-09-26T10:54:28.896Z</time>
      </trkpt>
      <trkpt lat="65.48183" lon="21.63993">
        <ele>43.667015</ele>
        <time>2020-09-26T10:54:31.885Z</time>
      </trkpt>
      <trkpt lat="65.48176" lon="21.64021">
        <ele>43.631321</ele>
        <time>2020-09-26T10:54:34.902Z</time>
      </trkpt>
      <trkpt lat="65.48171" lon="21.64041">
        <ele>43.605699</ele>
        <time>2020-09-26T10:54:36.904Z</time>
      </trkpt>
      <trkpt lat="65.48165" lon="21.6406">
        <ele>43.57883</ele>
        <time>2020-09-26T10:54:38.894Z</time>
      </trkpt>
      <trkpt lat="65.48158" lon="21.6408">
        <ele>43.551404</ele>
        <time>2020-09-26T10:54:40.881Z</time>
      </trkpt>
      <trkpt lat="65.48152" lon="21.64099">
        <ele>43.523391</ele>
        <time>2020-09-26T10:54:42.885Z</time>
      </trkpt>
      <trkpt lat="65.48144" lon="21.64118">
        <ele>43.494781</ele>
        <time>2020-09-26T10:54:44.917Z</time>
      </trkpt>
      <trkpt lat="65.48136" lon="21.64135">
        <ele>43.4666</ele>
        <time>2020-09-26T10:54:46.932Z</time>
      </trkpt>
      <trkpt lat="65.48128" lon="21.64153">
        <ele>43.425145</ele>
        <time>2020-09-26T10:54:48.883Z</time>
      </trkpt>
      <trkpt lat="65.4812" lon="21.6417">
        <ele>43.373807</ele>
        <time>2020-09-26T10:54:50.912Z</time>
      </trkpt>
      <trkpt lat="65.48111" lon="21.64187">
        <ele>43.320903</ele>
        <time>2020-09-26T10:54:52.886Z</time>
      </trkpt>
      <trkpt lat="65.48102" lon="21.64203">
        <ele>43.268208</ele>
        <time>2020-09-26T10:54:54.898Z</time>
      </trkpt>
      <trkpt lat="65.48092" lon="21.64217">
        <ele>43.216666</ele>
        <time>2020-09-26T10:54:56.892Z</time>
      </trkpt>
      <trkpt lat="65.48083" lon="21.6423">
        <ele>43.168106</ele>
        <time>2020-09-26T10:54:58.875Z</time>
      </trkpt>
      <trkpt lat="65.48074" lon="21.64241">
        <ele>43.122092</ele>
        <time>2020-09-26T10:55:00.887Z</time>
      </trkpt>
      <trkpt lat="65.48065" lon="21.64251">
        <ele>43.076555</ele>
        <time>2020-09-26T10:55:02.884Z</time>
      </trkpt>
      <trkpt lat="65.48056" lon="21.64261">
        <ele>43.029639</ele>
        <time>2020-09-26T10:55:04.888Z</time>
      </trkpt>
      <trkpt lat="65.48047" lon="21.64272">
        <ele>42.98068</ele>
        <time>2020-09-26T10:55:06.909Z</time>
      </trkpt>
      <trkpt lat="65.48038" lon="21.64284">
        <ele>42.933792</ele>
        <time>2020-09-26T10:55:08.878Z</time>
      </trkpt>
      <trkpt lat="65.48029" lon="21.64296">
        <ele>42.88491</ele>
        <time>2020-09-26T10:55:10.903Z</time>
      </trkpt>
      <trkpt lat="65.48019" lon="21.64307">
        <ele>42.836282</ele>
        <time>2020-09-26T10:55:12.891Z</time>
      </trkpt>
      <trkpt lat="65.48011" lon="21.64318">
        <ele>42.79095</ele>
        <time>2020-09-26T10:55:14.901Z</time>
      </trkpt>
      <trkpt lat="65.48002" lon="21.64329">
        <ele>42.747799</ele>
        <time>2020-09-26T10:55:16.896Z</time>
      </trkpt>
      <trkpt lat="65.47994" lon="21.64341">
        <ele>42.703504</ele>
        <time>2020-09-26T10:55:18.884Z</time>
      </trkpt>
      <trkpt lat="65.47986" lon="21.64352">
        <ele>42.659107</ele>
        <time>2020-09-26T10:55:20.890Z</time>
      </trkpt>
      <trkpt lat="65.47977" lon="21.64365">
        <ele>42.646237</ele>
        <time>2020-09-26T10:55:22.898Z</time>
      </trkpt>
      <trkpt lat="65.47969" lon="21.64378">
        <ele>42.802635</ele>
        <time>2020-09-26T10:55:24.879Z</time>
      </trkpt>
      <trkpt lat="65.47961" lon="21.64393">
        <ele>42.958302</ele>
        <time>2020-09-26T10:55:26.889Z</time>
      </trkpt>
      <trkpt lat="65.47952" lon="21.64407">
        <ele>43.117565</ele>
        <time>2020-09-26T10:55:28.893Z</time>
      </trkpt>
      <trkpt lat="65.47945" lon="21.64422">
        <ele>43.265565</ele>
        <time>2020-09-26T10:55:30.872Z</time>
      </trkpt>
      <trkpt lat="65.47938" lon="21.64437">
        <ele>43.410762</ele>
        <time>2020-09-26T10:55:32.886Z</time>
      </trkpt>
      <trkpt lat="65.4793" lon="21.64453">
        <ele>43.559544</ele>
        <time>2020-09-26T10:55:34.883Z</time>
      </trkpt>
      <trkpt lat="65.47924" lon="21.64469">
        <ele>43.705897</ele>
        <time>2020-09-26T10:55:36.905Z</time>
      </trkpt>
      <trkpt lat="65.47917" lon="21.64486">
        <ele>43.85389</ele>
        <time>2020-09-26T10:55:38.878Z</time>
      </trkpt>
      <trkpt lat="65.47911" lon="21.64503">
        <ele>44.001095</ele>
        <time>2020-09-26T10:55:40.884Z</time>
      </trkpt>
      <trkpt lat="65.47904" lon="21.6452">
        <ele>44.145322</ele>
        <time>2020-09-26T10:55:42.890Z</time>
      </trkpt>
      <trkpt lat="65.47896" lon="21.64541">
        <ele>44.32906</ele>
        <time>2020-09-26T10:55:45.872Z</time>
      </trkpt>
      <trkpt lat="65.47889" lon="21.64559">
        <ele>44.482263</ele>
        <time>2020-09-26T10:55:48.919Z</time>
      </trkpt>
      <trkpt lat="65.47883" lon="21.64575">
        <ele>44.621142</ele>
        <time>2020-09-26T10:55:51.884Z</time>
      </trkpt>
      <trkpt lat="65.47875" lon="21.64595">
        <ele>44.798834</ele>
        <time>2020-09-26T10:55:55.884Z</time>
      </trkpt>
      <trkpt lat="65.47867" lon="21.64614">
        <ele>44.965256</ele>
        <time>2020-09-26T10:55:59.903Z</time>
      </trkpt>
      <trkpt lat="65.47861" lon="21.6463">
        <ele>45.105809</ele>
        <time>2020-09-26T10:56:02.878Z</time>
      </trkpt>
      <trkpt lat="65.47853" lon="21.64651">
        <ele>45.284208</ele>
        <time>2020-09-26T10:56:06.918Z</time>
      </trkpt>
      <trkpt lat="65.47846" lon="21.64672">
        <ele>45.436899</ele>
        <time>2020-09-26T10:56:10.876Z</time>
      </trkpt>
      <trkpt lat="65.4784" lon="21.64689">
        <ele>45.546019</ele>
        <time>2020-09-26T10:56:13.887Z</time>
      </trkpt>
      <trkpt lat="65.47832" lon="21.6471">
        <ele>45.685583</ele>
        <time>2020-09-26T10:56:17.915Z</time>
      </trkpt>
      <trkpt lat="65.47825" lon="21.64725">
        <ele>45.798712</ele>
        <time>2020-09-26T10:56:20.881Z</time>
      </trkpt>
      <trkpt lat="65.47819" lon="21.64741">
        <ele>45.910143</ele>
        <time>2020-09-26T10:56:23.882Z</time>
      </trkpt>
      <trkpt lat="65.47812" lon="21.64756">
        <ele>46.019193</ele>
        <time>2020-09-26T10:56:26.875Z</time>
      </trkpt>
      <trkpt lat="65.47803" lon="21.64776">
        <ele>46.159981</ele>
        <time>2020-09-26T10:56:30.892Z</time>
      </trkpt>
      <trkpt lat="65.47795" lon="21.64789">
        <ele>46.275635</ele>
        <time>2020-09-26T10:56:33.877Z</time>
      </trkpt>
      <trkpt lat="65.47787" lon="21.64802">
        <ele>46.391117</ele>
        <time>2020-09-26T10:56:36.881Z</time>
      </trkpt>
      <trkpt lat="65.4778" lon="21.64816">
        <ele>46.501984</ele>
        <time>2020-09-26T10:56:39.924Z</time>
      </trkpt>
      <trkpt lat="65.47772" lon="21.64829">
        <ele>46.620374</ele>
        <time>2020-09-26T10:56:42.912Z</time>
      </trkpt>
      <trkpt lat="65.47762" lon="21.64844">
        <ele>46.75387</ele>
        <time>2020-09-26T10:56:45.913Z</time>
      </trkpt>
      <trkpt lat="65.47751" lon="21.6486">
        <ele>46.905058</ele>
        <time>2020-09-26T10:56:48.888Z</time>
      </trkpt>
      <trkpt lat="65.4774" lon="21.64876">
        <ele>47.056048</ele>
        <time>2020-09-26T10:56:51.908Z</time>
      </trkpt>
      <trkpt lat="65.4773" lon="21.64895">
        <ele>47.209062</ele>
        <time>2020-09-26T10:56:54.894Z</time>
      </trkpt>
      <trkpt lat="65.47722" lon="21.64908">
        <ele>47.321869</ele>
        <time>2020-09-26T10:56:56.892Z</time>
      </trkpt>
      <trkpt lat="65.47713" lon="21.64922">
        <ele>47.447439</ele>
        <time>2020-09-26T10:56:58.897Z</time>
      </trkpt>
      <trkpt lat="65.47704" lon="21.64935">
        <ele>47.406998</ele>
        <time>2020-09-26T10:57:00.882Z</time>
      </trkpt>
      <trkpt lat="65.47694" lon="21.64952">
        <ele>47.203061</ele>
        <time>2020-09-26T10:57:02.885Z</time>
      </trkpt>
      <trkpt lat="65.47683" lon="21.64969">
        <ele>46.991688</ele>
        <time>2020-09-26T10:57:04.878Z</time>
      </trkpt>
      <trkpt lat="65.47673" lon="21.64987">
        <ele>46.777099</ele>
        <time>2020-09-26T10:57:06.885Z</time>
      </trkpt>
      <trkpt lat="65.47662" lon="21.65005">
        <ele>46.565477</ele>
        <time>2020-09-26T10:57:08.897Z</time>
      </trkpt>
      <trkpt lat="65.47652" lon="21.65025">
        <ele>46.351899</ele>
        <time>2020-09-26T10:57:10.905Z</time>
      </trkpt>
      <trkpt lat="65.47642" lon="21.65046">
        <ele>46.12925</ele>
        <time>2020-09-26T10:57:12.887Z</time>
      </trkpt>
      <trkpt lat="65.47632" lon="21.65067">
        <ele>45.912316</ele>
        <time>2020-09-26T10:57:14.881Z</time>
      </trkpt>
      <trkpt lat="65.47623" lon="21.65088">
        <ele>45.70482</ele>
        <time>2020-09-26T10:57:16.884Z</time>
      </trkpt>
      <trkpt lat="65.47616" lon="21.65108">
        <ele>45.514731</ele>
        <time>2020-09-26T10:57:18.878Z</time>
      </trkpt>
      <trkpt lat="65.47609" lon="21.65128">
        <ele>45.333929</ele>
        <time>2020-09-26T10:57:20.904Z</time>
      </trkpt>
      <trkpt lat="65.47602" lon="21.65148">
        <ele>45.161076</ele>
        <time>2020-09-26T10:57:22.881Z</time>
      </trkpt>
      <trkpt lat="65.47596" lon="21.65167">
        <ele>44.995487</ele>
        <time>2020-09-26T10:57:24.894Z</time>
      </trkpt>
      <trkpt lat="65.47591" lon="21.65187">
        <ele>44.829942</ele>
        <time>2020-09-26T10:57:26.885Z</time>
      </trkpt>
      <trkpt lat="65.47585" lon="21.65207">
        <ele>44.661648</ele>
        <time>2020-09-26T10:57:28.913Z</time>
      </trkpt>
      <trkpt lat="65.47579" lon="21.65228">
        <ele>44.563352</ele>
        <time>2020-09-26T10:57:30.887Z</time>
      </trkpt>
      <trkpt lat="65.47573" lon="21.6525">
        <ele>44.765483</ele>
        <time>2020-09-26T10:57:32.890Z</time>
      </trkpt>
      <trkpt lat="65.47567" lon="21.6527">
        <ele>44.959305</ele>
        <time>2020-09-26T10:57:34.905Z</time>
      </trkpt>
      <trkpt lat="65.47561" lon="21.65289">
        <ele>45.138647</ele>
        <time>2020-09-26T10:57:36.890Z</time>
      </trkpt>
      <trkpt lat="65.47554" lon="21.65313">
        <ele>45.372814</ele>
        <time>2020-09-26T10:57:39.906Z</time>
      </trkpt>
      <trkpt lat="65.47547" lon="21.65336">
        <ele>45.594169</ele>
        <time>2020-09-26T10:57:42.885Z</time>
      </trkpt>
      <trkpt lat="65.4754" lon="21.65357">
        <ele>45.797383</ele>
        <time>2020-09-26T10:57:45.879Z</time>
      </trkpt>
      <trkpt lat="65.47533" lon="21.65377">
        <ele>46.006805</ele>
        <time>2020-09-26T10:57:48.873Z</time>
      </trkpt>
      <trkpt lat="65.47526" lon="21.65399">
        <ele>46.222656</ele>
        <time>2020-09-26T10:57:51.916Z</time>
      </trkpt>
      <trkpt lat="65.47518" lon="21.65418">
        <ele>46.426109</ele>
        <time>2020-09-26T10:57:54.889Z</time>
      </trkpt>
      <trkpt lat="65.47511" lon="21.65436">
        <ele>46.626686</ele>
        <time>2020-09-26T10:57:57.878Z</time>
      </trkpt>
      <trkpt lat="65.47504" lon="21.65452">
        <ele>46.801642</ele>
        <time>2020-09-26T10:58:00.909Z</time>
      </trkpt>
      <trkpt lat="65.47495" lon="21.6547">
        <ele>47.015028</ele>
        <time>2020-09-26T10:58:04.902Z</time>
      </trkpt>
      <trkpt lat="65.47487" lon="21.6549">
        <ele>47.239363</ele>
        <time>2020-09-26T10:58:08.887Z</time>
      </trkpt>
      <trkpt lat="65.47479" lon="21.65506">
        <ele>47.423485</ele>
        <time>2020-09-26T10:58:11.895Z</time>
      </trkpt>
      <trkpt lat="65.47472" lon="21.65524">
        <ele>47.618835</ele>
        <time>2020-09-26T10:58:14.886Z</time>
      </trkpt>
      <trkpt lat="65.47464" lon="21.65542">
        <ele>47.819948</ele>
        <time>2020-09-26T10:58:17.900Z</time>
      </trkpt>
      <trkpt lat="65.47457" lon="21.6556">
        <ele>48.007333</ele>
        <time>2020-09-26T10:58:20.884Z</time>
      </trkpt>
      <trkpt lat="65.4745" lon="21.65578">
        <ele>48.185823</ele>
        <time>2020-09-26T10:58:23.885Z</time>
      </trkpt>
      <trkpt lat="65.47442" lon="21.65596">
        <ele>48.373584</ele>
        <time>2020-09-26T10:58:26.896Z</time>
      </trkpt>
      <trkpt lat="65.47433" lon="21.65615">
        <ele>48.578062</ele>
        <time>2020-09-26T10:58:29.896Z</time>
      </trkpt>
      <trkpt lat="65.47423" lon="21.65637">
        <ele>48.797599</ele>
        <time>2020-09-26T10:58:32.896Z</time>
      </trkpt>
      <trkpt lat="65.47414" lon="21.65657">
        <ele>49.011944</ele>
        <time>2020-09-26T10:58:35.889Z</time>
      </trkpt>
      <trkpt lat="65.47406" lon="21.65678">
        <ele>49.217181</ele>
        <time>2020-09-26T10:58:38.909Z</time>
      </trkpt>
      <trkpt lat="65.47397" lon="21.65696">
        <ele>49.420728</ele>
        <time>2020-09-26T10:58:41.883Z</time>
      </trkpt>
      <trkpt lat="65.47387" lon="21.65714">
        <ele>49.62413</ele>
        <time>2020-09-26T10:58:44.906Z</time>
      </trkpt>
      <trkpt lat="65.47378" lon="21.6573">
        <ele>49.825005</ele>
        <time>2020-09-26T10:58:47.919Z</time>
      </trkpt>
      <trkpt lat="65.47369" lon="21.65744">
        <ele>50.000351</ele>
        <time>2020-09-26T10:58:50.922Z</time>
      </trkpt>
      <trkpt lat="65.4736" lon="21.65758">
        <ele>50.185517</ele>
        <time>2020-09-26T10:58:54.888Z</time>
      </trkpt>
      <trkpt lat="65.47352" lon="21.65769">
        <ele>50.342913</ele>
        <time>2020-09-26T10:58:58.918Z</time>
      </trkpt>
      <trkpt lat="65.47344" lon="21.6578">
        <ele>50.50145</ele>
        <time>2020-09-26T10:59:02.891Z</time>
      </trkpt>
      <trkpt lat="65.47336" lon="21.6579">
        <ele>50.66197</ele>
        <time>2020-09-26T10:59:06.888Z</time>
      </trkpt>
      <trkpt lat="65.47326" lon="21.65804">
        <ele>50.850437</ele>
        <time>2020-09-26T10:59:11.882Z</time>
      </trkpt>
      <trkpt lat="65.47316" lon="21.65814">
        <ele>50.935705</ele>
        <time>2020-09-26T10:59:16.960Z</time>
      </trkpt>
      <trkpt lat="65.47307" lon="21.65822">
        <ele>50.879319</ele>
        <time>2020-09-26T10:59:20.908Z</time>
      </trkpt>
      <trkpt lat="65.47297" lon="21.65833">
        <ele>50.819337</ele>
        <time>2020-09-26T10:59:24.926Z</time>
      </trkpt>
      <trkpt lat="65.47288" lon="21.65845">
        <ele>50.756533</ele>
        <time>2020-09-26T10:59:28.893Z</time>
      </trkpt>
      <trkpt lat="65.47278" lon="21.65857">
        <ele>50.692779</ele>
        <time>2020-09-26T10:59:32.930Z</time>
      </trkpt>
      <trkpt lat="65.47268" lon="21.6587">
        <ele>50.628239</ele>
        <time>2020-09-26T10:59:36.900Z</time>
      </trkpt>
      <trkpt lat="65.4726" lon="21.65879">
        <ele>50.575351</ele>
        <time>2020-09-26T10:59:39.889Z</time>
      </trkpt>
      <trkpt lat="65.47251" lon="21.6589">
        <ele>50.515369</ele>
        <time>2020-09-26T10:59:42.886Z</time>
      </trkpt>
      <trkpt lat="65.4724" lon="21.65902">
        <ele>50.449338</ele>
        <time>2020-09-26T10:59:45.887Z</time>
      </trkpt>
      <trkpt lat="65.47229" lon="21.65915">
        <ele>50.378599</ele>
        <time>2020-09-26T10:59:48.879Z</time>
      </trkpt>
      <trkpt lat="65.47218" lon="21.6593">
        <ele>50.303674</ele>
        <time>2020-09-26T10:59:51.882Z</time>
      </trkpt>
      <trkpt lat="65.4721" lon="21.6594">
        <ele>50.251782</ele>
        <time>2020-09-26T10:59:53.884Z</time>
      </trkpt>
      <trkpt lat="65.47202" lon="21.6595">
        <ele>50.198572</ele>
        <time>2020-09-26T10:59:55.883Z</time>
      </trkpt>
      <trkpt lat="65.47193" lon="21.65959">
        <ele>50.144847</ele>
        <time>2020-09-26T10:59:57.892Z</time>
      </trkpt>
      <trkpt lat="65.47185" lon="21.6597">
        <ele>50.089211</ele>
        <time>2020-09-26T10:59:59.888Z</time>
      </trkpt>
      <trkpt lat="65.47176" lon="21.65982">
        <ele>50.03023</ele>
        <time>2020-09-26T11:00:01.878Z</time>
      </trkpt>
      <trkpt lat="65.47167" lon="21.65994">
        <ele>49.971084</ele>
        <time>2020-09-26T11:00:03.888Z</time>
      </trkpt>
      <trkpt lat="65.47157" lon="21.66009">
        <ele>49.887165</ele>
        <time>2020-09-26T11:00:05.895Z</time>
      </trkpt>
      <trkpt lat="65.47147" lon="21.66025">
        <ele>49.726805</ele>
        <time>2020-09-26T11:00:07.885Z</time>
      </trkpt>
      <trkpt lat="65.47136" lon="21.66041">
        <ele>49.560153</ele>
        <time>2020-09-26T11:00:09.899Z</time>
      </trkpt>
      <trkpt lat="65.47125" lon="21.66058">
        <ele>49.394815</ele>
        <time>2020-09-26T11:00:11.920Z</time>
      </trkpt>
      <trkpt lat="65.47115" lon="21.66076">
        <ele>49.234498</ele>
        <time>2020-09-26T11:00:13.895Z</time>
      </trkpt>
      <trkpt lat="65.47105" lon="21.66092">
        <ele>49.083606</ele>
        <time>2020-09-26T11:00:15.882Z</time>
      </trkpt>
      <trkpt lat="65.47096" lon="21.66108">
        <ele>48.930142</ele>
        <time>2020-09-26T11:00:17.920Z</time>
      </trkpt>
      <trkpt lat="65.47086" lon="21.66123">
        <ele>48.783764</ele>
        <time>2020-09-26T11:00:19.880Z</time>
      </trkpt>
      <trkpt lat="65.47077" lon="21.66138">
        <ele>48.640591</ele>
        <time>2020-09-26T11:00:21.936Z</time>
      </trkpt>
      <trkpt lat="65.47068" lon="21.66152">
        <ele>48.500857</ele>
        <time>2020-09-26T11:00:23.874Z</time>
      </trkpt>
      <trkpt lat="65.47059" lon="21.66168">
        <ele>48.365029</ele>
        <time>2020-09-26T11:00:25.886Z</time>
      </trkpt>
      <trkpt lat="65.4705" lon="21.66182">
        <ele>48.224581</ele>
        <time>2020-09-26T11:00:27.915Z</time>
      </trkpt>
      <trkpt lat="65.47041" lon="21.66197">
        <ele>48.086856</ele>
        <time>2020-09-26T11:00:29.892Z</time>
      </trkpt>
      <trkpt lat="65.47033" lon="21.66211">
        <ele>47.952</ele>
        <time>2020-09-26T11:00:31.884Z</time>
      </trkpt>
      <trkpt lat="65.47024" lon="21.66226">
        <ele>47.816884</ele>
        <time>2020-09-26T11:00:33.891Z</time>
      </trkpt>
      <trkpt lat="65.47016" lon="21.6624">
        <ele>47.689903</ele>
        <time>2020-09-26T11:00:35.874Z</time>
      </trkpt>
      <trkpt lat="65.47009" lon="21.66252">
        <ele>47.666928</ele>
        <time>2020-09-26T11:00:37.884Z</time>
      </trkpt>
      <trkpt lat="65.46998" lon="21.66271">
        <ele>47.94249</ele>
        <time>2020-09-26T11:00:40.895Z</time>
      </trkpt>
      <trkpt lat="65.46987" lon="21.66287">
        <ele>48.201762</ele>
        <time>2020-09-26T11:00:43.879Z</time>
      </trkpt>
      <trkpt lat="65.46977" lon="21.66303">
        <ele>48.461398</ele>
        <time>2020-09-26T11:00:46.886Z</time>
      </trkpt>
      <trkpt lat="65.46965" lon="21.66318">
        <ele>48.729782</ele>
        <time>2020-09-26T11:00:49.895Z</time>
      </trkpt>
      <trkpt lat="65.46957" lon="21.66329">
        <ele>48.917474</ele>
        <time>2020-09-26T11:00:51.930Z</time>
      </trkpt>
      <trkpt lat="65.46949" lon="21.66338">
        <ele>49.107085</ele>
        <time>2020-09-26T11:00:53.908Z</time>
      </trkpt>
      <trkpt lat="65.4694" lon="21.66347">
        <ele>49.301304</ele>
        <time>2020-09-26T11:00:55.875Z</time>
      </trkpt>
      <trkpt lat="65.46931" lon="21.66352">
        <ele>49.49402</ele>
        <time>2020-09-26T11:00:57.888Z</time>
      </trkpt>
      <trkpt lat="65.46922" lon="21.66357">
        <ele>49.687369</ele>
        <time>2020-09-26T11:00:59.932Z</time>
      </trkpt>
      <trkpt lat="65.46913" lon="21.6636">
        <ele>49.875947</ele>
        <time>2020-09-26T11:01:01.899Z</time>
      </trkpt>
      <trkpt lat="65.469" lon="21.66363">
        <ele>50.155266</ele>
        <time>2020-09-26T11:01:04.896Z</time>
      </trkpt>
      <trkpt lat="65.46891" lon="21.66364">
        <ele>50.346543</ele>
        <time>2020-09-26T11:01:06.905Z</time>
      </trkpt>
      <trkpt lat="65.46881" lon="21.66363">
        <ele>50.543838</ele>
        <time>2020-09-26T11:01:08.885Z</time>
      </trkpt>
      <trkpt lat="65.46868" lon="21.66361">
        <ele>50.814206</ele>
        <time>2020-09-26T11:01:11.891Z</time>
      </trkpt>
      <trkpt lat="65.46855" lon="21.6636">
        <ele>51.086407</ele>
        <time>2020-09-26T11:01:14.910Z</time>
      </trkpt>
      <trkpt lat="65.46842" lon="21.66358">
        <ele>51.330747</ele>
        <time>2020-09-26T11:01:17.880Z</time>
      </trkpt>
      <trkpt lat="65.46833" lon="21.66358">
        <ele>51.137539</ele>
        <time>2020-09-26T11:01:19.882Z</time>
      </trkpt>
      <trkpt lat="65.46824" lon="21.66358">
        <ele>50.933624</ele>
        <time>2020-09-26T11:01:21.903Z</time>
      </trkpt>
      <trkpt lat="65.46813" lon="21.66359">
        <ele>50.703875</ele>
        <time>2020-09-26T11:01:23.895Z</time>
      </trkpt>
      <trkpt lat="65.46802" lon="21.66361">
        <ele>50.462607</ele>
        <time>2020-09-26T11:01:25.883Z</time>
      </trkpt>
      <trkpt lat="65.4679" lon="21.66366">
        <ele>50.205893</ele>
        <time>2020-09-26T11:01:27.937Z</time>
      </trkpt>
      <trkpt lat="65.46778" lon="21.66373">
        <ele>49.940453</ele>
        <time>2020-09-26T11:01:29.897Z</time>
      </trkpt>
      <trkpt lat="65.46766" lon="21.66381">
        <ele>49.666036</ele>
        <time>2020-09-26T11:01:31.900Z</time>
      </trkpt>
      <trkpt lat="65.46753" lon="21.6639">
        <ele>49.3842</ele>
        <time>2020-09-26T11:01:33.912Z</time>
      </trkpt>
      <trkpt lat="65.46741" lon="21.66399">
        <ele>49.10436</ele>
        <time>2020-09-26T11:01:35.883Z</time>
      </trkpt>
      <trkpt lat="65.46729" lon="21.66409">
        <ele>48.83413</ele>
        <time>2020-09-26T11:01:37.919Z</time>
      </trkpt>
      <trkpt lat="65.46718" lon="21.66419">
        <ele>48.574321</ele>
        <time>2020-09-26T11:01:39.913Z</time>
      </trkpt>
      <trkpt lat="65.46707" lon="21.66429">
        <ele>48.321958</ele>
        <time>2020-09-26T11:01:41.879Z</time>
      </trkpt>
      <trkpt lat="65.46696" lon="21.66439">
        <ele>48.078252</ele>
        <time>2020-09-26T11:01:43.891Z</time>
      </trkpt>
      <trkpt lat="65.46686" lon="21.66449">
        <ele>47.837562</ele>
        <time>2020-09-26T11:01:45.887Z</time>
      </trkpt>
      <trkpt lat="65.46675" lon="21.66458">
        <ele>47.602829</ele>
        <time>2020-09-26T11:01:47.899Z</time>
      </trkpt>
      <trkpt lat="65.46665" lon="21.66467">
        <ele>47.580294</ele>
        <time>2020-09-26T11:01:49.911Z</time>
      </trkpt>
      <trkpt lat="65.46655" lon="21.66475">
        <ele>47.769732</ele>
        <time>2020-09-26T11:01:51.889Z</time>
      </trkpt>
      <trkpt lat="65.46646" lon="21.66484">
        <ele>47.949124</ele>
        <time>2020-09-26T11:01:53.904Z</time>
      </trkpt>
      <trkpt lat="65.46637" lon="21.66493">
        <ele>48.130788</ele>
        <time>2020-09-26T11:01:55.889Z</time>
      </trkpt>
      <trkpt lat="65.46628" lon="21.66502">
        <ele>48.307704</ele>
        <time>2020-09-26T11:01:57.951Z</time>
      </trkpt>
      <trkpt lat="65.46619" lon="21.66512">
        <ele>48.479228</ele>
        <time>2020-09-26T11:01:59.898Z</time>
      </trkpt>
      <trkpt lat="65.46611" lon="21.66522">
        <ele>48.646498</ele>
        <time>2020-09-26T11:02:01.885Z</time>
      </trkpt>
      <trkpt lat="65.466" lon="21.66537">
        <ele>48.875904</ele>
        <time>2020-09-26T11:02:04.880Z</time>
      </trkpt>
      <trkpt lat="65.46589" lon="21.66552">
        <ele>49.103215</ele>
        <time>2020-09-26T11:02:07.888Z</time>
      </trkpt>
      <trkpt lat="65.46578" lon="21.66568">
        <ele>49.343448</ele>
        <time>2020-09-26T11:02:10.924Z</time>
      </trkpt>
      <trkpt lat="65.46571" lon="21.66581">
        <ele>49.507228</ele>
        <time>2020-09-26T11:02:12.895Z</time>
      </trkpt>
      <trkpt lat="65.46563" lon="21.66595">
        <ele>49.681729</ele>
        <time>2020-09-26T11:02:14.903Z</time>
      </trkpt>
      <trkpt lat="65.46556" lon="21.66611">
        <ele>49.866201</ele>
        <time>2020-09-26T11:02:16.882Z</time>
      </trkpt>
      <trkpt lat="65.46548" lon="21.66629">
        <ele>50.063485</ele>
        <time>2020-09-26T11:02:18.900Z</time>
      </trkpt>
      <trkpt lat="65.46539" lon="21.66648">
        <ele>50.278165</ele>
        <time>2020-09-26T11:02:20.886Z</time>
      </trkpt>
      <trkpt lat="65.4653" lon="21.66669">
        <ele>50.505396</ele>
        <time>2020-09-26T11:02:22.903Z</time>
      </trkpt>
      <trkpt lat="65.4652" lon="21.6669">
        <ele>50.738698</ele>
        <time>2020-09-26T11:02:24.937Z</time>
      </trkpt>
      <trkpt lat="65.46511" lon="21.66711">
        <ele>50.863779</ele>
        <time>2020-09-26T11:02:26.908Z</time>
      </trkpt>
      <trkpt lat="65.46501" lon="21.66732">
        <ele>50.978043</ele>
        <time>2020-09-26T11:02:28.894Z</time>
      </trkpt>
      <trkpt lat="65.46492" lon="21.66753">
        <ele>51.088259</ele>
        <time>2020-09-26T11:02:30.891Z</time>
      </trkpt>
      <trkpt lat="65.46483" lon="21.66774">
        <ele>51.196117</ele>
        <time>2020-09-26T11:02:32.914Z</time>
      </trkpt>
      <trkpt lat="65.46474" lon="21.66793">
        <ele>51.296744</ele>
        <time>2020-09-26T11:02:34.911Z</time>
      </trkpt>
      <trkpt lat="65.46465" lon="21.66811">
        <ele>51.395325</ele>
        <time>2020-09-26T11:02:36.914Z</time>
      </trkpt>
      <trkpt lat="65.46458" lon="21.66828">
        <ele>51.485744</ele>
        <time>2020-09-26T11:02:38.880Z</time>
      </trkpt>
      <trkpt lat="65.4645" lon="21.66843">
        <ele>51.571486</ele>
        <time>2020-09-26T11:02:40.900Z</time>
      </trkpt>
      <trkpt lat="65.4644" lon="21.66864">
        <ele>51.684794</ele>
        <time>2020-09-26T11:02:43.920Z</time>
      </trkpt>
      <trkpt lat="65.46431" lon="21.66885">
        <ele>51.795929</ele>
        <time>2020-09-26T11:02:46.894Z</time>
      </trkpt>
      <trkpt lat="65.46421" lon="21.66905">
        <ele>51.906182</ele>
        <time>2020-09-26T11:02:49.887Z</time>
      </trkpt>
      <trkpt lat="65.46412" lon="21.66926">
        <ele>52.017417</ele>
        <time>2020-09-26T11:02:52.884Z</time>
      </trkpt>
      <trkpt lat="65.46403" lon="21.66946">
        <ele>52.122524</ele>
        <time>2020-09-26T11:02:55.887Z</time>
      </trkpt>
      <trkpt lat="65.46394" lon="21.66966">
        <ele>52.230805</ele>
        <time>2020-09-26T11:02:58.893Z</time>
      </trkpt>
      <trkpt lat="65.46384" lon="21.66985">
        <ele>52.275563</ele>
        <time>2020-09-26T11:03:01.882Z</time>
      </trkpt>
      <trkpt lat="65.46374" lon="21.67002">
        <ele>52.050805</ele>
        <time>2020-09-26T11:03:04.907Z</time>
      </trkpt>
      <trkpt lat="65.46366" lon="21.67014">
        <ele>51.883787</ele>
        <time>2020-09-26T11:03:06.911Z</time>
      </trkpt>
      <trkpt lat="65.46356" lon="21.67025">
        <ele>51.685345</ele>
        <time>2020-09-26T11:03:08.903Z</time>
      </trkpt>
      <trkpt lat="65.46344" lon="21.67034">
        <ele>51.46571</ele>
        <time>2020-09-26T11:03:10.886Z</time>
      </trkpt>
      <trkpt lat="65.46331" lon="21.67041">
        <ele>51.231463</ele>
        <time>2020-09-26T11:03:12.882Z</time>
      </trkpt>
      <trkpt lat="65.46317" lon="21.67044">
        <ele>50.981742</ele>
        <time>2020-09-26T11:03:14.917Z</time>
      </trkpt>
      <trkpt lat="65.46303" lon="21.67045">
        <ele>50.72769</ele>
        <time>2020-09-26T11:03:16.924Z</time>
      </trkpt>
      <trkpt lat="65.46289" lon="21.67044">
        <ele>50.477216</ele>
        <time>2020-09-26T11:03:18.895Z</time>
      </trkpt>
      <trkpt lat="65.46275" lon="21.67042">
        <ele>50.23483</ele>
        <time>2020-09-26T11:03:20.896Z</time>
      </trkpt>
      <trkpt lat="65.46261" lon="21.67037">
        <ele>49.990788</ele>
        <time>2020-09-26T11:03:22.886Z</time>
      </trkpt>
      <trkpt lat="65.46248" lon="21.67033">
        <ele>49.757811</ele>
        <time>2020-09-26T11:03:24.893Z</time>
      </trkpt>
      <trkpt lat="65.46236" lon="21.67028">
        <ele>49.542424</ele>
        <time>2020-09-26T11:03:26.873Z</time>
      </trkpt>
      <trkpt lat="65.46225" lon="21.67024">
        <ele>49.32986</ele>
        <time>2020-09-26T11:03:28.890Z</time>
      </trkpt>
      <trkpt lat="65.46213" lon="21.67021">
        <ele>49.12463</ele>
        <time>2020-09-26T11:03:30.906Z</time>
      </trkpt>
      <trkpt lat="65.46201" lon="21.67018">
        <ele>49.29152</ele>
        <time>2020-09-26T11:03:32.923Z</time>
      </trkpt>
      <trkpt lat="65.46191" lon="21.67016">
        <ele>49.44383</ele>
        <time>2020-09-26T11:03:34.894Z</time>
      </trkpt>
      <trkpt lat="65.46181" lon="21.67014">
        <ele>49.591487</ele>
        <time>2020-09-26T11:03:36.918Z</time>
      </trkpt>
      <trkpt lat="65.46172" lon="21.67012">
        <ele>49.726151</ele>
        <time>2020-09-26T11:03:38.898Z</time>
      </trkpt>
      <trkpt lat="65.46159" lon="21.67009">
        <ele>49.915407</ele>
        <time>2020-09-26T11:03:41.874Z</time>
      </trkpt>
      <trkpt lat="65.46146" lon="21.67006">
        <ele>50.101571</ele>
        <time>2020-09-26T11:03:44.905Z</time>
      </trkpt>
      <trkpt lat="65.46133" lon="21.67003">
        <ele>50.288959</ele>
        <time>2020-09-26T11:03:47.891Z</time>
      </trkpt>
      <trkpt lat="65.4612" lon="21.66999">
        <ele>50.483386</ele>
        <time>2020-09-26T11:03:50.925Z</time>
      </trkpt>
      <trkpt lat="65.4611" lon="21.66996">
        <ele>50.630073</ele>
        <time>2020-09-26T11:03:52.884Z</time>
      </trkpt>
      <trkpt lat="65.461" lon="21.66993">
        <ele>50.772698</ele>
        <time>2020-09-26T11:03:54.879Z</time>
      </trkpt>
      <trkpt lat="65.4609" lon="21.66991">
        <ele>50.917809</ele>
        <time>2020-09-26T11:03:56.921Z</time>
      </trkpt>
      <trkpt lat="65.46081" lon="21.66988">
        <ele>51.063045</ele>
        <time>2020-09-26T11:03:58.918Z</time>
      </trkpt>
      <trkpt lat="65.46071" lon="21.66985">
        <ele>51.202858</ele>
        <time>2020-09-26T11:04:00.894Z</time>
      </trkpt>
      <trkpt lat="65.46061" lon="21.66982">
        <ele>51.345408</ele>
        <time>2020-09-26T11:04:02.924Z</time>
      </trkpt>
      <trkpt lat="65.46051" lon="21.66979">
        <ele>51.49125</ele>
        <time>2020-09-26T11:04:04.910Z</time>
      </trkpt>
      <trkpt lat="65.46041" lon="21.66978">
        <ele>51.644477</ele>
        <time>2020-09-26T11:04:06.889Z</time>
      </trkpt>
      <trkpt lat="65.4603" lon="21.66975">
        <ele>51.632804</ele>
        <time>2020-09-26T11:04:08.892Z</time>
      </trkpt>
      <trkpt lat="65.4602" lon="21.66973">
        <ele>51.323813</ele>
        <time>2020-09-26T11:04:10.908Z</time>
      </trkpt>
      <trkpt lat="65.46009" lon="21.66971">
        <ele>51.000408</ele>
        <time>2020-09-26T11:04:12.900Z</time>
      </trkpt>
      <trkpt lat="65.45999" lon="21.66969">
        <ele>50.671094</ele>
        <time>2020-09-26T11:04:14.887Z</time>
      </trkpt>
      <trkpt lat="65.45988" lon="21.66966">
        <ele>50.338248</ele>
        <time>2020-09-26T11:04:16.903Z</time>
      </trkpt>
      <trkpt lat="65.45976" lon="21.66964">
        <ele>50.00273</ele>
        <time>2020-09-26T11:04:18.879Z</time>
      </trkpt>
      <trkpt lat="65.45965" lon="21.66962">
        <ele>49.649701</ele>
        <time>2020-09-26T11:04:20.904Z</time>
      </trkpt>
      <trkpt lat="65.45952" lon="21.66961">
        <ele>49.275742</ele>
        <time>2020-09-26T11:04:22.883Z</time>
      </trkpt>
      <trkpt lat="65.45939" lon="21.6696">
        <ele>48.877651</ele>
        <time>2020-09-26T11:04:24.897Z</time>
      </trkpt>
      <trkpt lat="65.45926" lon="21.66958">
        <ele>48.485785</ele>
        <time>2020-09-26T11:04:26.916Z</time>
      </trkpt>
      <trkpt lat="65.45913" lon="21.66958">
        <ele>48.076079</ele>
        <time>2020-09-26T11:04:28.883Z</time>
      </trkpt>
      <trkpt lat="65.45899" lon="21.66959">
        <ele>47.657192</ele>
        <time>2020-09-26T11:04:30.899Z</time>
      </trkpt>
      <trkpt lat="65.45885" lon="21.66961">
        <ele>47.237632</ele>
        <time>2020-09-26T11:04:32.914Z</time>
      </trkpt>
      <trkpt lat="65.45871" lon="21.66963">
        <ele>46.824237</ele>
        <time>2020-09-26T11:04:34.899Z</time>
      </trkpt>
      <trkpt lat="65.45857" lon="21.66966">
        <ele>46.410342</ele>
        <time>2020-09-26T11:04:36.888Z</time>
      </trkpt>
      <trkpt lat="65.45844" lon="21.66969">
        <ele>46.156334</ele>
        <time>2020-09-26T11:04:38.911Z</time>
      </trkpt>
      <trkpt lat="65.45831" lon="21.66971">
        <ele>45.946588</ele>
        <time>2020-09-26T11:04:40.881Z</time>
      </trkpt>
      <trkpt lat="65.45817" lon="21.66974">
        <ele>45.731787</ele>
        <time>2020-09-26T11:04:42.877Z</time>
      </trkpt>
      <trkpt lat="65.45804" lon="21.66977">
        <ele>45.516792</ele>
        <time>2020-09-26T11:04:44.889Z</time>
      </trkpt>
      <trkpt lat="65.45791" lon="21.6698">
        <ele>45.3037</ele>
        <time>2020-09-26T11:04:46.882Z</time>
      </trkpt>
      <trkpt lat="65.45778" lon="21.66983">
        <ele>45.092414</ele>
        <time>2020-09-26T11:04:48.918Z</time>
      </trkpt>
      <trkpt lat="65.45765" lon="21.66985">
        <ele>44.890727</ele>
        <time>2020-09-26T11:04:50.904Z</time>
      </trkpt>
      <trkpt lat="65.45753" lon="21.66987">
        <ele>44.693762</ele>
        <time>2020-09-26T11:04:52.891Z</time>
      </trkpt>
      <trkpt lat="65.45741" lon="21.6699">
        <ele>44.512515</ele>
        <time>2020-09-26T11:04:54.923Z</time>
      </trkpt>
      <trkpt lat="65.45731" lon="21.66993">
        <ele>44.34404</ele>
        <time>2020-09-26T11:04:56.933Z</time>
      </trkpt>
      <trkpt lat="65.45721" lon="21.66995">
        <ele>44.183702</ele>
        <time>2020-09-26T11:04:58.915Z</time>
      </trkpt>
      <trkpt lat="65.45711" lon="21.66997">
        <ele>44.032681</ele>
        <time>2020-09-26T11:05:00.899Z</time>
      </trkpt>
      <trkpt lat="65.45702" lon="21.66999">
        <ele>43.882173</ele>
        <time>2020-09-26T11:05:02.895Z</time>
      </trkpt>
      <trkpt lat="65.45692" lon="21.67002">
        <ele>43.724577</ele>
        <time>2020-09-26T11:05:04.915Z</time>
      </trkpt>
      <trkpt lat="65.45682" lon="21.67006">
        <ele>43.560869</ele>
        <time>2020-09-26T11:05:06.895Z</time>
      </trkpt>
      <trkpt lat="65.45672" lon="21.67011">
        <ele>43.458735</ele>
        <time>2020-09-26T11:05:08.923Z</time>
      </trkpt>
      <trkpt lat="65.45662" lon="21.67016">
        <ele>43.46602</ele>
        <time>2020-09-26T11:05:10.883Z</time>
      </trkpt>
      <trkpt lat="65.45651" lon="21.67022">
        <ele>43.473329</ele>
        <time>2020-09-26T11:05:12.893Z</time>
      </trkpt>
      <trkpt lat="65.45641" lon="21.67027">
        <ele>43.480726</ele>
        <time>2020-09-26T11:05:14.914Z</time>
      </trkpt>
      <trkpt lat="65.45631" lon="21.67033">
        <ele>43.488082</ele>
        <time>2020-09-26T11:05:16.952Z</time>
      </trkpt>
      <trkpt lat="65.4562" lon="21.67039">
        <ele>43.495778</ele>
        <time>2020-09-26T11:05:18.885Z</time>
      </trkpt>
      <trkpt lat="65.45609" lon="21.67047">
        <ele>43.504027</ele>
        <time>2020-09-26T11:05:20.915Z</time>
      </trkpt>
      <trkpt lat="65.45597" lon="21.67054">
        <ele>43.512479</ele>
        <time>2020-09-26T11:05:22.881Z</time>
      </trkpt>
      <trkpt lat="65.45586" lon="21.67061">
        <ele>43.520382</ele>
        <time>2020-09-26T11:05:24.880Z</time>
      </trkpt>
      <trkpt lat="65.45576" lon="21.67068">
        <ele>43.527842</ele>
        <time>2020-09-26T11:05:26.897Z</time>
      </trkpt>
      <trkpt lat="65.45566" lon="21.67074">
        <ele>43.53492</ele>
        <time>2020-09-26T11:05:28.879Z</time>
      </trkpt>
      <trkpt lat="65.45557" lon="21.6708">
        <ele>43.541666</ele>
        <time>2020-09-26T11:05:30.894Z</time>
      </trkpt>
      <trkpt lat="65.45548" lon="21.67085">
        <ele>43.547977</ele>
        <time>2020-09-26T11:05:32.902Z</time>
      </trkpt>
      <trkpt lat="65.45539" lon="21.67091">
        <ele>43.554386</ele>
        <time>2020-09-26T11:05:34.902Z</time>
      </trkpt>
      <trkpt lat="65.4553" lon="21.67096">
        <ele>43.560953</ele>
        <time>2020-09-26T11:05:36.899Z</time>
      </trkpt>
      <trkpt lat="65.45521" lon="21.67102">
        <ele>43.56782</ele>
        <time>2020-09-26T11:05:38.917Z</time>
      </trkpt>
      <trkpt lat="65.45511" lon="21.67108">
        <ele>43.574867</ele>
        <time>2020-09-26T11:05:40.929Z</time>
      </trkpt>
      <trkpt lat="65.455" lon="21.67117">
        <ele>43.570081</ele>
        <time>2020-09-26T11:05:42.882Z</time>
      </trkpt>
      <trkpt lat="65.45489" lon="21.67125">
        <ele>43.429169</ele>
        <time>2020-09-26T11:05:44.899Z</time>
      </trkpt>
      <trkpt lat="65.45477" lon="21.67133">
        <ele>43.280977</ele>
        <time>2020-09-26T11:05:46.899Z</time>
      </trkpt>
      <trkpt lat="65.45464" lon="21.67142">
        <ele>43.125676</ele>
        <time>2020-09-26T11:05:48.910Z</time>
      </trkpt>
      <trkpt lat="65.4545" lon="21.67151">
        <ele>42.962756</ele>
        <time>2020-09-26T11:05:50.895Z</time>
      </trkpt>
      <trkpt lat="65.45436" lon="21.6716">
        <ele>42.794838</ele>
        <time>2020-09-26T11:05:52.886Z</time>
      </trkpt>
      <trkpt lat="65.45422" lon="21.67169">
        <ele>42.618569</ele>
        <time>2020-09-26T11:05:54.908Z</time>
      </trkpt>
      <trkpt lat="65.45406" lon="21.6718">
        <ele>42.432726</ele>
        <time>2020-09-26T11:05:56.891Z</time>
      </trkpt>
      <trkpt lat="65.45392" lon="21.67192">
        <ele>42.253543</ele>
        <time>2020-09-26T11:05:58.883Z</time>
      </trkpt>
      <trkpt lat="65.45376" lon="21.67202">
        <ele>42.069428</ele>
        <time>2020-09-26T11:06:00.910Z</time>
      </trkpt>
      <trkpt lat="65.45361" lon="21.67212">
        <ele>41.887341</ele>
        <time>2020-09-26T11:06:02.896Z</time>
      </trkpt>
      <trkpt lat="65.45346" lon="21.67221">
        <ele>41.706563</ele>
        <time>2020-09-26T11:06:04.898Z</time>
      </trkpt>
      <trkpt lat="65.45331" lon="21.67231">
        <ele>41.526795</ele>
        <time>2020-09-26T11:06:06.904Z</time>
      </trkpt>
      <trkpt lat="65.45317" lon="21.67239">
        <ele>41.586287</ele>
        <time>2020-09-26T11:06:08.892Z</time>
      </trkpt>
      <trkpt lat="65.45303" lon="21.67247">
        <ele>41.704072</ele>
        <time>2020-09-26T11:06:10.887Z</time>
      </trkpt>
      <trkpt lat="65.4529" lon="21.67256">
        <ele>41.822034</ele>
        <time>2020-09-26T11:06:12.912Z</time>
      </trkpt>
      <trkpt lat="65.45277" lon="21.67265">
        <ele>41.933673</ele>
        <time>2020-09-26T11:06:14.883Z</time>
      </trkpt>
      <trkpt lat="65.45265" lon="21.67274">
        <ele>42.035172</ele>
        <time>2020-09-26T11:06:16.882Z</time>
      </trkpt>
      <trkpt lat="65.45255" lon="21.67281">
        <ele>42.12572</ele>
        <time>2020-09-26T11:06:18.897Z</time>
      </trkpt>
      <trkpt lat="65.45244" lon="21.67287">
        <ele>42.215266</ele>
        <time>2020-09-26T11:06:20.895Z</time>
      </trkpt>
      <trkpt lat="65.45234" lon="21.67292">
        <ele>42.301191</ele>
        <time>2020-09-26T11:06:22.916Z</time>
      </trkpt>
      <trkpt lat="65.45225" lon="21.67297">
        <ele>42.383286</ele>
        <time>2020-09-26T11:06:24.911Z</time>
      </trkpt>
      <trkpt lat="65.45214" lon="21.67302">
        <ele>42.468676</ele>
        <time>2020-09-26T11:06:26.934Z</time>
      </trkpt>
      <trkpt lat="65.45205" lon="21.67307">
        <ele>42.549431</ele>
        <time>2020-09-26T11:06:28.896Z</time>
      </trkpt>
      <trkpt lat="65.45196" lon="21.67311">
        <ele>42.626932</ele>
        <time>2020-09-26T11:06:30.902Z</time>
      </trkpt>
      <trkpt lat="65.45183" lon="21.67318">
        <ele>42.738347</ele>
        <time>2020-09-26T11:06:33.917Z</time>
      </trkpt>
      <trkpt lat="65.4517" lon="21.67323">
        <ele>42.84318</ele>
        <time>2020-09-26T11:06:36.887Z</time>
      </trkpt>
      <trkpt lat="65.45158" lon="21.67329">
        <ele>42.951172</ele>
        <time>2020-09-26T11:06:39.902Z</time>
      </trkpt>
      <trkpt lat="65.45146" lon="21.67333">
        <ele>43.062392</ele>
        <time>2020-09-26T11:06:42.912Z</time>
      </trkpt>
      <trkpt lat="65.45133" lon="21.67338">
        <ele>43.181453</ele>
        <time>2020-09-26T11:06:45.905Z</time>
      </trkpt>
      <trkpt lat="65.45122" lon="21.67342">
        <ele>43.296702</ele>
        <time>2020-09-26T11:06:48.904Z</time>
      </trkpt>
      <trkpt lat="65.45109" lon="21.67347">
        <ele>43.415414</ele>
        <time>2020-09-26T11:06:51.909Z</time>
      </trkpt>
      <trkpt lat="65.45097" lon="21.67353">
        <ele>43.538667</ele>
        <time>2020-09-26T11:06:54.937Z</time>
      </trkpt>
      <trkpt lat="65.45085" lon="21.6736">
        <ele>43.656839</ele>
        <time>2020-09-26T11:06:57.905Z</time>
      </trkpt>
      <trkpt lat="65.45073" lon="21.67365">
        <ele>43.770736</ele>
        <time>2020-09-26T11:07:00.925Z</time>
      </trkpt>
      <trkpt lat="65.45063" lon="21.6737">
        <ele>43.870541</ele>
        <time>2020-09-26T11:07:03.884Z</time>
      </trkpt>
      <trkpt lat="65.45055" lon="21.67376">
        <ele>43.957954</ele>
        <time>2020-09-26T11:07:07.875Z</time>
      </trkpt>
      <trkpt lat="65.45045" lon="21.67388">
        <ele>44.065744</ele>
        <time>2020-09-26T11:07:15.898Z</time>
      </trkpt>
      <trkpt lat="65.45037" lon="21.67406">
        <ele>44.167355</ele>
        <time>2020-09-26T11:07:18.899Z</time>
      </trkpt>
      <trkpt lat="65.45027" lon="21.6742">
        <ele>44.278323</ele>
        <time>2020-09-26T11:07:21.908Z</time>
      </trkpt>
      <trkpt lat="65.45017" lon="21.67433">
        <ele>44.38789</ele>
        <time>2020-09-26T11:07:24.896Z</time>
      </trkpt>
      <trkpt lat="65.45007" lon="21.67445">
        <ele>44.496221</ele>
        <time>2020-09-26T11:07:27.895Z</time>
      </trkpt>
      <trkpt lat="65.44997" lon="21.67457">
        <ele>44.601395</ele>
        <time>2020-09-26T11:07:30.939Z</time>
      </trkpt>
      <trkpt lat="65.44987" lon="21.6747">
        <ele>44.710466</ele>
        <time>2020-09-26T11:07:33.922Z</time>
      </trkpt>
      <trkpt lat="65.44977" lon="21.67481">
        <ele>44.962854</ele>
        <time>2020-09-26T11:07:36.886Z</time>
      </trkpt>
      <trkpt lat="65.44968" lon="21.67494">
        <ele>45.237192</ele>
        <time>2020-09-26T11:07:39.883Z</time>
      </trkpt>
      <trkpt lat="65.44958" lon="21.67505">
        <ele>45.49742</ele>
        <time>2020-09-26T11:07:42.884Z</time>
      </trkpt>
      <trkpt lat="65.4495" lon="21.67517">
        <ele>45.749819</ele>
        <time>2020-09-26T11:07:45.903Z</time>
      </trkpt>
      <trkpt lat="65.4494" lon="21.67529">
        <ele>46.021176</ele>
        <time>2020-09-26T11:07:48.883Z</time>
      </trkpt>
      <trkpt lat="65.4493" lon="21.67541">
        <ele>46.294372</ele>
        <time>2020-09-26T11:07:51.883Z</time>
      </trkpt>
      <trkpt lat="65.4492" lon="21.67553">
        <ele>46.562857</ele>
        <time>2020-09-26T11:07:54.904Z</time>
      </trkpt>
      <trkpt lat="65.4491" lon="21.67565">
        <ele>46.841895</ele>
        <time>2020-09-26T11:07:57.897Z</time>
      </trkpt>
      <trkpt lat="65.449" lon="21.67577">
        <ele>47.127613</ele>
        <time>2020-09-26T11:08:00.879Z</time>
      </trkpt>
      <trkpt lat="65.4489" lon="21.67589">
        <ele>47.415566</ele>
        <time>2020-09-26T11:08:03.891Z</time>
      </trkpt>
      <trkpt lat="65.44879" lon="21.67602">
        <ele>47.71027</ele>
        <time>2020-09-26T11:08:06.884Z</time>
      </trkpt>
      <trkpt lat="65.44869" lon="21.67616">
        <ele>47.995135</ele>
        <time>2020-09-26T11:08:09.901Z</time>
      </trkpt>
      <trkpt lat="65.44859" lon="21.67628">
        <ele>48.288019</ele>
        <time>2020-09-26T11:08:12.915Z</time>
      </trkpt>
      <trkpt lat="65.44848" lon="21.67641">
        <ele>48.583336</ele>
        <time>2020-09-26T11:08:15.885Z</time>
      </trkpt>
      <trkpt lat="65.44837" lon="21.67653">
        <ele>48.879546</ele>
        <time>2020-09-26T11:08:18.876Z</time>
      </trkpt>
      <trkpt lat="65.44826" lon="21.67666">
        <ele>49.180555</ele>
        <time>2020-09-26T11:08:21.883Z</time>
      </trkpt>
      <trkpt lat="65.44816" lon="21.6768">
        <ele>49.20165</ele>
        <time>2020-09-26T11:08:24.878Z</time>
      </trkpt>
      <trkpt lat="65.44805" lon="21.67694">
        <ele>49.203921</ele>
        <time>2020-09-26T11:08:27.912Z</time>
      </trkpt>
      <trkpt lat="65.44794" lon="21.67706">
        <ele>49.206165</ele>
        <time>2020-09-26T11:08:30.888Z</time>
      </trkpt>
      <trkpt lat="65.44782" lon="21.67718">
        <ele>49.208389</ele>
        <time>2020-09-26T11:08:33.902Z</time>
      </trkpt>
      <trkpt lat="65.44771" lon="21.67732">
        <ele>49.210675</ele>
        <time>2020-09-26T11:08:36.893Z</time>
      </trkpt>
      <trkpt lat="65.44759" lon="21.67746">
        <ele>49.213098</ele>
        <time>2020-09-26T11:08:39.931Z</time>
      </trkpt>
      <trkpt lat="65.44751" lon="21.67756">
        <ele>49.214775</ele>
        <time>2020-09-26T11:08:41.880Z</time>
      </trkpt>
      <trkpt lat="65.44739" lon="21.6777">
        <ele>49.217178</ele>
        <time>2020-09-26T11:08:44.894Z</time>
      </trkpt>
      <trkpt lat="65.44731" lon="21.6778">
        <ele>49.21881</ele>
        <time>2020-09-26T11:08:46.892Z</time>
      </trkpt>
      <trkpt lat="65.44723" lon="21.6779">
        <ele>49.220465</ele>
        <time>2020-09-26T11:08:48.903Z</time>
      </trkpt>
      <trkpt lat="65.44711" lon="21.67805">
        <ele>49.222863</ele>
        <time>2020-09-26T11:08:51.900Z</time>
      </trkpt>
      <trkpt lat="65.44703" lon="21.67816">
        <ele>49.224536</ele>
        <time>2020-09-26T11:08:53.896Z</time>
      </trkpt>
      <trkpt lat="65.44694" lon="21.67827">
        <ele>49.226291</ele>
        <time>2020-09-26T11:08:55.887Z</time>
      </trkpt>
      <trkpt lat="65.44685" lon="21.67839">
        <ele>49.228093</ele>
        <time>2020-09-26T11:08:57.913Z</time>
      </trkpt>
      <trkpt lat="65.44676" lon="21.67849">
        <ele>49.229913</ele>
        <time>2020-09-26T11:08:59.881Z</time>
      </trkpt>
      <trkpt lat="65.44667" lon="21.6786">
        <ele>49.231737</ele>
        <time>2020-09-26T11:09:01.938Z</time>
      </trkpt>
      <trkpt lat="65.44658" lon="21.67872">
        <ele>49.115009</ele>
        <time>2020-09-26T11:09:03.906Z</time>
      </trkpt>
      <trkpt lat="65.44649" lon="21.67883">
        <ele>48.96699</ele>
        <time>2020-09-26T11:09:05.886Z</time>
      </trkpt>
      <trkpt lat="65.4464" lon="21.67894">
        <ele>48.820735</ele>
        <time>2020-09-26T11:09:07.891Z</time>
      </trkpt>
      <trkpt lat="65.4463" lon="21.67907">
        <ele>48.66609</ele>
        <time>2020-09-26T11:09:09.885Z</time>
      </trkpt>
      <trkpt lat="65.44621" lon="21.67918">
        <ele>48.513655</ele>
        <time>2020-09-26T11:09:11.907Z</time>
      </trkpt>
      <trkpt lat="65.44611" lon="21.67931">
        <ele>48.357751</ele>
        <time>2020-09-26T11:09:13.899Z</time>
      </trkpt>
      <trkpt lat="65.44601" lon="21.67942">
        <ele>48.199921</ele>
        <time>2020-09-26T11:09:15.884Z</time>
      </trkpt>
      <trkpt lat="65.44591" lon="21.67954">
        <ele>48.036687</ele>
        <time>2020-09-26T11:09:17.898Z</time>
      </trkpt>
      <trkpt lat="65.44581" lon="21.67966">
        <ele>47.871889</ele>
        <time>2020-09-26T11:09:19.906Z</time>
      </trkpt>
      <trkpt lat="65.4457" lon="21.67978">
        <ele>47.70556</ele>
        <time>2020-09-26T11:09:21.902Z</time>
      </trkpt>
      <trkpt lat="65.44559" lon="21.67992">
        <ele>47.53296</ele>
        <time>2020-09-26T11:09:23.890Z</time>
      </trkpt>
      <trkpt lat="65.44549" lon="21.68005">
        <ele>47.359807</ele>
        <time>2020-09-26T11:09:25.912Z</time>
      </trkpt>
      <trkpt lat="65.44538" lon="21.68018">
        <ele>47.188292</ele>
        <time>2020-09-26T11:09:27.894Z</time>
      </trkpt>
      <trkpt lat="65.44527" lon="21.68031">
        <ele>47.017835</ele>
        <time>2020-09-26T11:09:29.898Z</time>
      </trkpt>
      <trkpt lat="65.44517" lon="21.68043">
        <ele>46.846862</ele>
        <time>2020-09-26T11:09:31.895Z</time>
      </trkpt>
      <trkpt lat="65.44506" lon="21.68056">
        <ele>46.680517</ele>
        <time>2020-09-26T11:09:33.916Z</time>
      </trkpt>
      <trkpt lat="65.44496" lon="21.68069">
        <ele>46.445879</ele>
        <time>2020-09-26T11:09:35.909Z</time>
      </trkpt>
      <trkpt lat="65.44485" lon="21.68083">
        <ele>46.192883</ele>
        <time>2020-09-26T11:09:37.904Z</time>
      </trkpt>
      <trkpt lat="65.44474" lon="21.68095">
        <ele>45.946039</ele>
        <time>2020-09-26T11:09:39.903Z</time>
      </trkpt>
      <trkpt lat="65.44464" lon="21.68108">
        <ele>45.703283</ele>
        <time>2020-09-26T11:09:41.920Z</time>
      </trkpt>
      <trkpt lat="65.44453" lon="21.68122">
        <ele>45.453933</ele>
        <time>2020-09-26T11:09:43.875Z</time>
      </trkpt>
      <trkpt lat="65.44442" lon="21.68135">
        <ele>45.19767</ele>
        <time>2020-09-26T11:09:45.923Z</time>
      </trkpt>
      <trkpt lat="65.44431" lon="21.68149">
        <ele>44.949133</ele>
        <time>2020-09-26T11:09:47.944Z</time>
      </trkpt>
      <trkpt lat="65.4442" lon="21.68162">
        <ele>44.693655</ele>
        <time>2020-09-26T11:09:49.911Z</time>
      </trkpt>
      <trkpt lat="65.44409" lon="21.68175">
        <ele>44.437857</ele>
        <time>2020-09-26T11:09:51.895Z</time>
      </trkpt>
      <trkpt lat="65.44399" lon="21.68188">
        <ele>44.190246</ele>
        <time>2020-09-26T11:09:53.890Z</time>
      </trkpt>
      <trkpt lat="65.44388" lon="21.682">
        <ele>43.944156</ele>
        <time>2020-09-26T11:09:55.883Z</time>
      </trkpt>
      <trkpt lat="65.44377" lon="21.68213">
        <ele>43.692833</ele>
        <time>2020-09-26T11:09:57.898Z</time>
      </trkpt>
      <trkpt lat="65.44366" lon="21.68224">
        <ele>43.45155</ele>
        <time>2020-09-26T11:09:59.915Z</time>
      </trkpt>
      <trkpt lat="65.44356" lon="21.68236">
        <ele>43.212028</ele>
        <time>2020-09-26T11:10:01.911Z</time>
      </trkpt>
      <trkpt lat="65.44345" lon="21.68247">
        <ele>42.979226</ele>
        <time>2020-09-26T11:10:03.896Z</time>
      </trkpt>
      <trkpt lat="65.44335" lon="21.68258">
        <ele>43.021486</ele>
        <time>2020-09-26T11:10:05.913Z</time>
      </trkpt>
      <trkpt lat="65.44324" lon="21.68269">
        <ele>43.126201</ele>
        <time>2020-09-26T11:10:07.906Z</time>
      </trkpt>
      <trkpt lat="65.44314" lon="21.68279">
        <ele>43.226518</ele>
        <time>2020-09-26T11:10:09.893Z</time>
      </trkpt>
      <trkpt lat="65.44304" lon="21.68288">
        <ele>43.324387</ele>
        <time>2020-09-26T11:10:11.878Z</time>
      </trkpt>
      <trkpt lat="65.44294" lon="21.68296">
        <ele>43.422143</ele>
        <time>2020-09-26T11:10:13.893Z</time>
      </trkpt>
      <trkpt lat="65.44283" lon="21.68304">
        <ele>43.523916</ele>
        <time>2020-09-26T11:10:15.907Z</time>
      </trkpt>
      <trkpt lat="65.44272" lon="21.68311">
        <ele>43.623196</ele>
        <time>2020-09-26T11:10:17.894Z</time>
      </trkpt>
      <trkpt lat="65.44262" lon="21.68319">
        <ele>43.720501</ele>
        <time>2020-09-26T11:10:19.902Z</time>
      </trkpt>
      <trkpt lat="65.44251" lon="21.68325">
        <ele>43.821052</ele>
        <time>2020-09-26T11:10:21.883Z</time>
      </trkpt>
      <trkpt lat="65.4424" lon="21.68332">
        <ele>43.920913</ele>
        <time>2020-09-26T11:10:23.910Z</time>
      </trkpt>
      <trkpt lat="65.4423" lon="21.68339">
        <ele>44.018001</ele>
        <time>2020-09-26T11:10:25.912Z</time>
      </trkpt>
      <trkpt lat="65.4422" lon="21.68347">
        <ele>44.11272</ele>
        <time>2020-09-26T11:10:27.896Z</time>
      </trkpt>
      <trkpt lat="65.4421" lon="21.68355">
        <ele>44.207534</ele>
        <time>2020-09-26T11:10:29.888Z</time>
      </trkpt>
      <trkpt lat="65.44201" lon="21.68364">
        <ele>44.299477</ele>
        <time>2020-09-26T11:10:31.899Z</time>
      </trkpt>
      <trkpt lat="65.44191" lon="21.68372">
        <ele>44.388067</ele>
        <time>2020-09-26T11:10:33.908Z</time>
      </trkpt>
      <trkpt lat="65.44182" lon="21.68379">
        <ele>44.474216</ele>
        <time>2020-09-26T11:10:35.920Z</time>
      </trkpt>
      <trkpt lat="65.44173" lon="21.68388">
        <ele>44.558495</ele>
        <time>2020-09-26T11:10:37.894Z</time>
      </trkpt>
      <trkpt lat="65.44164" lon="21.68397">
        <ele>44.484371</ele>
        <time>2020-09-26T11:10:39.936Z</time>
      </trkpt>
      <trkpt lat="65.44155" lon="21.68407">
        <ele>44.408097</ele>
        <time>2020-09-26T11:10:41.924Z</time>
      </trkpt>
      <trkpt lat="65.44145" lon="21.68418">
        <ele>44.331023</ele>
        <time>2020-09-26T11:10:43.892Z</time>
      </trkpt>
      <trkpt lat="65.44136" lon="21.68429">
        <ele>44.256655</ele>
        <time>2020-09-26T11:10:45.902Z</time>
      </trkpt>
      <trkpt lat="65.44128" lon="21.6844">
        <ele>44.186322</ele>
        <time>2020-09-26T11:10:47.879Z</time>
      </trkpt>
      <trkpt lat="65.4412" lon="21.68451">
        <ele>44.113119</ele>
        <time>2020-09-26T11:10:49.920Z</time>
      </trkpt>
      <trkpt lat="65.4411" lon="21.68464">
        <ele>44.031815</ele>
        <time>2020-09-26T11:10:51.887Z</time>
      </trkpt>
      <trkpt lat="65.441" lon="21.68477">
        <ele>43.948965</ele>
        <time>2020-09-26T11:10:53.896Z</time>
      </trkpt>
      <trkpt lat="65.44091" lon="21.68491">
        <ele>43.862636</ele>
        <time>2020-09-26T11:10:55.902Z</time>
      </trkpt>
      <trkpt lat="65.44081" lon="21.68506">
        <ele>43.775344</ele>
        <time>2020-09-26T11:10:57.879Z</time>
      </trkpt>
      <trkpt lat="65.44071" lon="21.68522">
        <ele>43.688641</ele>
        <time>2020-09-26T11:10:59.894Z</time>
      </trkpt>
      <trkpt lat="65.44061" lon="21.68537">
        <ele>43.601076</ele>
        <time>2020-09-26T11:11:01.884Z</time>
      </trkpt>
      <trkpt lat="65.44052" lon="21.68554">
        <ele>43.513356</ele>
        <time>2020-09-26T11:11:03.896Z</time>
      </trkpt>
      <trkpt lat="65.44042" lon="21.68571">
        <ele>43.423648</ele>
        <time>2020-09-26T11:11:05.903Z</time>
      </trkpt>
      <trkpt lat="65.44033" lon="21.68589">
        <ele>43.332475</ele>
        <time>2020-09-26T11:11:07.888Z</time>
      </trkpt>
      <trkpt lat="65.44023" lon="21.68607">
        <ele>43.243251</ele>
        <time>2020-09-26T11:11:09.895Z</time>
      </trkpt>
      <trkpt lat="65.44015" lon="21.68626">
        <ele>43.03981</ele>
        <time>2020-09-26T11:11:11.892Z</time>
      </trkpt>
      <trkpt lat="65.44006" lon="21.68645">
        <ele>42.787562</ele>
        <time>2020-09-26T11:11:13.906Z</time>
      </trkpt>
      <trkpt lat="65.43998" lon="21.68666">
        <ele>42.530914</ele>
        <time>2020-09-26T11:11:15.899Z</time>
      </trkpt>
      <trkpt lat="65.43989" lon="21.68687">
        <ele>42.269366</ele>
        <time>2020-09-26T11:11:17.896Z</time>
      </trkpt>
      <trkpt lat="65.43981" lon="21.68709">
        <ele>41.999674</ele>
        <time>2020-09-26T11:11:19.904Z</time>
      </trkpt>
      <trkpt lat="65.43972" lon="21.68731">
        <ele>41.733795</ele>
        <time>2020-09-26T11:11:21.905Z</time>
      </trkpt>
      <trkpt lat="65.43964" lon="21.68756">
        <ele>41.453619</ele>
        <time>2020-09-26T11:11:23.902Z</time>
      </trkpt>
      <trkpt lat="65.43955" lon="21.68781">
        <ele>41.159022</ele>
        <time>2020-09-26T11:11:25.921Z</time>
      </trkpt>
      <trkpt lat="65.43946" lon="21.68806">
        <ele>40.860084</ele>
        <time>2020-09-26T11:11:27.915Z</time>
      </trkpt>
      <trkpt lat="65.43937" lon="21.68832">
        <ele>40.555165</ele>
        <time>2020-09-26T11:11:29.902Z</time>
      </trkpt>
      <trkpt lat="65.43928" lon="21.68858">
        <ele>40.251639</ele>
        <time>2020-09-26T11:11:31.908Z</time>
      </trkpt>
      <trkpt lat="65.43918" lon="21.68884">
        <ele>39.943172</ele>
        <time>2020-09-26T11:11:33.899Z</time>
      </trkpt>
      <trkpt lat="65.43909" lon="21.68909">
        <ele>39.635936</ele>
        <time>2020-09-26T11:11:35.902Z</time>
      </trkpt>
      <trkpt lat="65.43899" lon="21.68935">
        <ele>39.289944</ele>
        <time>2020-09-26T11:11:37.895Z</time>
      </trkpt>
      <trkpt lat="65.43888" lon="21.68959">
        <ele>38.666903</ele>
        <time>2020-09-26T11:11:39.894Z</time>
      </trkpt>
      <trkpt lat="65.43877" lon="21.68981">
        <ele>38.040222</ele>
        <time>2020-09-26T11:11:41.880Z</time>
      </trkpt>
      <trkpt lat="65.43865" lon="21.69001">
        <ele>37.403553</ele>
        <time>2020-09-26T11:11:43.897Z</time>
      </trkpt>
      <trkpt lat="65.43853" lon="21.6902">
        <ele>36.776114</ele>
        <time>2020-09-26T11:11:45.898Z</time>
      </trkpt>
      <trkpt lat="65.4384" lon="21.69037">
        <ele>36.157943</ele>
        <time>2020-09-26T11:11:47.915Z</time>
      </trkpt>
      <trkpt lat="65.43827" lon="21.69052">
        <ele>35.540592</ele>
        <time>2020-09-26T11:11:49.909Z</time>
      </trkpt>
      <trkpt lat="65.43814" lon="21.69064">
        <ele>34.933944</ele>
        <time>2020-09-26T11:11:51.914Z</time>
      </trkpt>
      <trkpt lat="65.43801" lon="21.69076">
        <ele>34.339991</ele>
        <time>2020-09-26T11:11:53.886Z</time>
      </trkpt>
      <trkpt lat="65.43789" lon="21.69087">
        <ele>33.758243</ele>
        <time>2020-09-26T11:11:55.893Z</time>
      </trkpt>
      <trkpt lat="65.43776" lon="21.69096">
        <ele>33.186958</ele>
        <time>2020-09-26T11:11:57.887Z</time>
      </trkpt>
      <trkpt lat="65.43762" lon="21.69102">
        <ele>32.591059</ele>
        <time>2020-09-26T11:11:59.925Z</time>
      </trkpt>
      <trkpt lat="65.43748" lon="21.69105">
        <ele>31.987829</ele>
        <time>2020-09-26T11:12:01.880Z</time>
      </trkpt>
      <trkpt lat="65.43735" lon="21.69107">
        <ele>31.42858</ele>
        <time>2020-09-26T11:12:03.889Z</time>
      </trkpt>
      <trkpt lat="65.43721" lon="21.69107">
        <ele>30.952176</ele>
        <time>2020-09-26T11:12:05.998Z</time>
      </trkpt>
      <trkpt lat="65.43708" lon="21.69104">
        <ele>30.501654</ele>
        <time>2020-09-26T11:12:07.877Z</time>
      </trkpt>
      <trkpt lat="65.43695" lon="21.691">
        <ele>30.044095</ele>
        <time>2020-09-26T11:12:09.888Z</time>
      </trkpt>
      <trkpt lat="65.43682" lon="21.69094">
        <ele>29.59246</ele>
        <time>2020-09-26T11:12:11.924Z</time>
      </trkpt>
      <trkpt lat="65.4367" lon="21.69088">
        <ele>29.144961</ele>
        <time>2020-09-26T11:12:13.898Z</time>
      </trkpt>
      <trkpt lat="65.43657" lon="21.6908">
        <ele>28.700357</ele>
        <time>2020-09-26T11:12:15.921Z</time>
      </trkpt>
      <trkpt lat="65.43645" lon="21.69071">
        <ele>28.250205</ele>
        <time>2020-09-26T11:12:17.883Z</time>
      </trkpt>
      <trkpt lat="65.43633" lon="21.69064">
        <ele>27.82506</ele>
        <time>2020-09-26T11:12:19.902Z</time>
      </trkpt>
      <trkpt lat="65.43622" lon="21.69055">
        <ele>27.42375</ele>
        <time>2020-09-26T11:12:21.960Z</time>
      </trkpt>
      <trkpt lat="65.43611" lon="21.69048">
        <ele>27.018704</ele>
        <time>2020-09-26T11:12:23.894Z</time>
      </trkpt>
      <trkpt lat="65.436" lon="21.6904">
        <ele>26.616189</ele>
        <time>2020-09-26T11:12:25.921Z</time>
      </trkpt>
      <trkpt lat="65.43589" lon="21.69031">
        <ele>26.226735</ele>
        <time>2020-09-26T11:12:27.891Z</time>
      </trkpt>
      <trkpt lat="65.43579" lon="21.69023">
        <ele>25.839109</ele>
        <time>2020-09-26T11:12:29.937Z</time>
      </trkpt>
      <trkpt lat="65.43568" lon="21.69016">
        <ele>25.443452</ele>
        <time>2020-09-26T11:12:31.890Z</time>
      </trkpt>
      <trkpt lat="65.43556" lon="21.69009">
        <ele>25.27219</ele>
        <time>2020-09-26T11:12:33.886Z</time>
      </trkpt>
      <trkpt lat="65.43546" lon="21.69002">
        <ele>25.194611</ele>
        <time>2020-09-26T11:12:35.897Z</time>
      </trkpt>
      <trkpt lat="65.43535" lon="21.68995">
        <ele>25.116715</ele>
        <time>2020-09-26T11:12:37.933Z</time>
      </trkpt>
      <trkpt lat="65.43525" lon="21.68989">
        <ele>25.039212</ele>
        <time>2020-09-26T11:12:39.902Z</time>
      </trkpt>
      <trkpt lat="65.43514" lon="21.68982">
        <ele>24.957913</ele>
        <time>2020-09-26T11:12:41.913Z</time>
      </trkpt>
      <trkpt lat="65.43502" lon="21.68976">
        <ele>24.872502</ele>
        <time>2020-09-26T11:12:43.903Z</time>
      </trkpt>
      <trkpt lat="65.4349" lon="21.6897">
        <ele>24.786576</ele>
        <time>2020-09-26T11:12:45.892Z</time>
      </trkpt>
      <trkpt lat="65.43479" lon="21.68967">
        <ele>24.702422</ele>
        <time>2020-09-26T11:12:47.922Z</time>
      </trkpt>
      <trkpt lat="65.43466" lon="21.68965">
        <ele>24.615138</ele>
        <time>2020-09-26T11:12:49.892Z</time>
      </trkpt>
      <trkpt lat="65.43454" lon="21.68964">
        <ele>24.525236</ele>
        <time>2020-09-26T11:12:51.884Z</time>
      </trkpt>
      <trkpt lat="65.43441" lon="21.68964">
        <ele>24.433915</ele>
        <time>2020-09-26T11:12:53.916Z</time>
      </trkpt>
      <trkpt lat="65.43429" lon="21.68965">
        <ele>24.34473</ele>
        <time>2020-09-26T11:12:55.903Z</time>
      </trkpt>
      <trkpt lat="65.43416" lon="21.68964">
        <ele>24.254834</ele>
        <time>2020-09-26T11:12:57.895Z</time>
      </trkpt>
      <trkpt lat="65.43403" lon="21.68964">
        <ele>24.163508</ele>
        <time>2020-09-26T11:12:59.917Z</time>
      </trkpt>
      <trkpt lat="65.43391" lon="21.68964">
        <ele>24.073614</ele>
        <time>2020-09-26T11:13:01.934Z</time>
      </trkpt>
      <trkpt lat="65.43378" lon="21.68965">
        <ele>24.118071</ele>
        <time>2020-09-26T11:13:03.894Z</time>
      </trkpt>
      <trkpt lat="65.43367" lon="21.68966">
        <ele>24.21414</ele>
        <time>2020-09-26T11:13:05.927Z</time>
      </trkpt>
      <trkpt lat="65.43355" lon="21.68966">
        <ele>24.306921</ele>
        <time>2020-09-26T11:13:07.903Z</time>
      </trkpt>
      <trkpt lat="65.43345" lon="21.68965">
        <ele>24.394794</ele>
        <time>2020-09-26T11:13:09.889Z</time>
      </trkpt>
      <trkpt lat="65.43334" lon="21.68965">
        <ele>24.482649</ele>
        <time>2020-09-26T11:13:11.893Z</time>
      </trkpt>
      <trkpt lat="65.43324" lon="21.68962">
        <ele>24.565474</ele>
        <time>2020-09-26T11:13:13.898Z</time>
      </trkpt>
      <trkpt lat="65.43314" lon="21.68954">
        <ele>24.64892</ele>
        <time>2020-09-26T11:13:15.934Z</time>
      </trkpt>
      <trkpt lat="65.43304" lon="21.68947">
        <ele>24.735126</ele>
        <time>2020-09-26T11:13:17.911Z</time>
      </trkpt>
      <trkpt lat="65.43295" lon="21.68937">
        <ele>24.820354</ele>
        <time>2020-09-26T11:13:19.874Z</time>
      </trkpt>
      <trkpt lat="65.43285" lon="21.68927">
        <ele>24.904558</ele>
        <time>2020-09-26T11:13:21.880Z</time>
      </trkpt>
      <trkpt lat="65.43276" lon="21.68917">
        <ele>24.987874</ele>
        <time>2020-09-26T11:13:23.899Z</time>
      </trkpt>
      <trkpt lat="65.43267" lon="21.68906">
        <ele>25.070739</ele>
        <time>2020-09-26T11:13:25.946Z</time>
      </trkpt>
      <trkpt lat="65.43258" lon="21.68897">
        <ele>25.153554</ele>
        <time>2020-09-26T11:13:27.893Z</time>
      </trkpt>
      <trkpt lat="65.43248" lon="21.68889">
        <ele>25.234761</ele>
        <time>2020-09-26T11:13:29.895Z</time>
      </trkpt>
      <trkpt lat="65.43239" lon="21.68882">
        <ele>25.314767</ele>
        <time>2020-09-26T11:13:31.939Z</time>
      </trkpt>
      <trkpt lat="65.4323" lon="21.68877">
        <ele>25.394275</ele>
        <time>2020-09-26T11:13:33.892Z</time>
      </trkpt>
      <trkpt lat="65.4322" lon="21.68873">
        <ele>25.47466</ele>
        <time>2020-09-26T11:13:35.887Z</time>
      </trkpt>
      <trkpt lat="65.43205" lon="21.6887">
        <ele>25.633514</ele>
        <time>2020-09-26T11:13:38.878Z</time>
      </trkpt>
      <trkpt lat="65.43194" lon="21.68869">
        <ele>25.782465</ele>
        <time>2020-09-26T11:13:41.017Z</time>
      </trkpt>
      <trkpt lat="65.43182" lon="21.68868">
        <ele>25.932604</ele>
        <time>2020-09-26T11:13:42.907Z</time>
      </trkpt>
      <trkpt lat="65.43171" lon="21.6887">
        <ele>26.085797</ele>
        <time>2020-09-26T11:13:44.886Z</time>
      </trkpt>
      <trkpt lat="65.4316" lon="21.68874">
        <ele>26.229523</ele>
        <time>2020-09-26T11:13:46.903Z</time>
      </trkpt>
      <trkpt lat="65.4315" lon="21.68878">
        <ele>26.359086</ele>
        <time>2020-09-26T11:13:48.920Z</time>
      </trkpt>
      <trkpt lat="65.4314" lon="21.68881">
        <ele>26.484982</ele>
        <time>2020-09-26T11:13:50.899Z</time>
      </trkpt>
      <trkpt lat="65.43131" lon="21.68885">
        <ele>26.602142</ele>
        <time>2020-09-26T11:13:52.893Z</time>
      </trkpt>
      <trkpt lat="65.43119" lon="21.68892">
        <ele>26.767861</ele>
        <time>2020-09-26T11:13:55.888Z</time>
      </trkpt>
      <trkpt lat="65.43107" lon="21.68899">
        <ele>26.919128</ele>
        <time>2020-09-26T11:13:58.939Z</time>
      </trkpt>
      <trkpt lat="65.43096" lon="21.68906">
        <ele>27.073756</ele>
        <time>2020-09-26T11:14:01.924Z</time>
      </trkpt>
      <trkpt lat="65.43084" lon="21.68914">
        <ele>27.227801</ele>
        <time>2020-09-26T11:14:04.981Z</time>
      </trkpt>
      <trkpt lat="65.43072" lon="21.68921">
        <ele>27.388513</ele>
        <time>2020-09-26T11:14:07.905Z</time>
      </trkpt>
      <trkpt lat="65.4306" lon="21.68925">
        <ele>27.546153</ele>
        <time>2020-09-26T11:14:10.901Z</time>
      </trkpt>
      <trkpt lat="65.43047" lon="21.68922">
        <ele>27.720402</ele>
        <time>2020-09-26T11:14:13.903Z</time>
      </trkpt>
      <trkpt lat="65.43038" lon="21.68918">
        <ele>27.837465</ele>
        <time>2020-09-26T11:14:15.881Z</time>
      </trkpt>
      <trkpt lat="65.43029" lon="21.68912">
        <ele>27.871388</ele>
        <time>2020-09-26T11:14:18.021Z</time>
      </trkpt>
      <trkpt lat="65.43016" lon="21.68903">
        <ele>27.904158</ele>
        <time>2020-09-26T11:14:20.938Z</time>
      </trkpt>
      <trkpt lat="65.43004" lon="21.68894">
        <ele>27.937348</ele>
        <time>2020-09-26T11:14:23.887Z</time>
      </trkpt>
      <trkpt lat="65.42992" lon="21.68882">
        <ele>27.969786</ele>
        <time>2020-09-26T11:14:26.886Z</time>
      </trkpt>
      <trkpt lat="65.4298" lon="21.68869">
        <ele>28.001423</ele>
        <time>2020-09-26T11:14:29.884Z</time>
      </trkpt>
      <trkpt lat="65.42968" lon="21.68857">
        <ele>28.034525</ele>
        <time>2020-09-26T11:14:32.902Z</time>
      </trkpt>
      <trkpt lat="65.42956" lon="21.68843">
        <ele>28.066567</ele>
        <time>2020-09-26T11:14:35.938Z</time>
      </trkpt>
      <trkpt lat="65.42945" lon="21.6883">
        <ele>28.098301</ele>
        <time>2020-09-26T11:14:38.879Z</time>
      </trkpt>
      <trkpt lat="65.42933" lon="21.68818">
        <ele>28.130054</ele>
        <time>2020-09-26T11:14:41.901Z</time>
      </trkpt>
      <trkpt lat="65.42922" lon="21.68806">
        <ele>28.161577</ele>
        <time>2020-09-26T11:14:44.881Z</time>
      </trkpt>
      <trkpt lat="65.42911" lon="21.68794">
        <ele>28.19164</ele>
        <time>2020-09-26T11:14:47.883Z</time>
      </trkpt>
      <trkpt lat="65.42899" lon="21.68782">
        <ele>28.222002</ele>
        <time>2020-09-26T11:14:50.877Z</time>
      </trkpt>
      <trkpt lat="65.42888" lon="21.6877">
        <ele>28.253339</ele>
        <time>2020-09-26T11:14:53.914Z</time>
      </trkpt>
      <trkpt lat="65.42876" lon="21.68759">
        <ele>28.286093</ele>
        <time>2020-09-26T11:14:56.904Z</time>
      </trkpt>
      <trkpt lat="65.42864" lon="21.68746">
        <ele>28.412387</ele>
        <time>2020-09-26T11:14:59.903Z</time>
      </trkpt>
      <trkpt lat="65.42856" lon="21.68736">
        <ele>28.552426</ele>
        <time>2020-09-26T11:15:01.895Z</time>
      </trkpt>
      <trkpt lat="65.42848" lon="21.68722">
        <ele>28.69815</ele>
        <time>2020-09-26T11:15:03.899Z</time>
      </trkpt>
      <trkpt lat="65.4284" lon="21.68707">
        <ele>28.845122</ele>
        <time>2020-09-26T11:15:05.897Z</time>
      </trkpt>
      <trkpt lat="65.42834" lon="21.68691">
        <ele>28.990492</ele>
        <time>2020-09-26T11:15:07.903Z</time>
      </trkpt>
      <trkpt lat="65.42829" lon="21.68672">
        <ele>29.130603</ele>
        <time>2020-09-26T11:15:09.915Z</time>
      </trkpt>
      <trkpt lat="65.42825" lon="21.68642">
        <ele>29.331401</ele>
        <time>2020-09-26T11:15:12.887Z</time>
      </trkpt>
      <trkpt lat="65.42822" lon="21.68613">
        <ele>29.518788</ele>
        <time>2020-09-26T11:15:15.897Z</time>
      </trkpt>
      <trkpt lat="65.4282" lon="21.68583">
        <ele>29.711037</ele>
        <time>2020-09-26T11:15:18.916Z</time>
      </trkpt>
      <trkpt lat="65.42819" lon="21.68551">
        <ele>29.914567</ele>
        <time>2020-09-26T11:15:21.886Z</time>
      </trkpt>
      <trkpt lat="65.42817" lon="21.6852">
        <ele>30.110393</ele>
        <time>2020-09-26T11:15:24.940Z</time>
      </trkpt>
      <trkpt lat="65.42816" lon="21.68492">
        <ele>30.284475</ele>
        <time>2020-09-26T11:15:27.884Z</time>
      </trkpt>
      <trkpt lat="65.42815" lon="21.68463">
        <ele>30.471381</ele>
        <time>2020-09-26T11:15:30.890Z</time>
      </trkpt>
      <trkpt lat="65.42814" lon="21.68433">
        <ele>30.658064</ele>
        <time>2020-09-26T11:15:33.889Z</time>
      </trkpt>
      <trkpt lat="65.42813" lon="21.68405">
        <ele>30.837233</ele>
        <time>2020-09-26T11:15:36.884Z</time>
      </trkpt>
      <trkpt lat="65.42812" lon="21.68377">
        <ele>31.013206</ele>
        <time>2020-09-26T11:15:39.899Z</time>
      </trkpt>
      <trkpt lat="65.42812" lon="21.6835">
        <ele>30.966145</ele>
        <time>2020-09-26T11:15:42.898Z</time>
      </trkpt>
      <trkpt lat="65.42811" lon="21.68323">
        <ele>30.893342</ele>
        <time>2020-09-26T11:15:45.914Z</time>
      </trkpt>
      <trkpt lat="65.4281" lon="21.68295">
        <ele>30.820925</ele>
        <time>2020-09-26T11:15:48.937Z</time>
      </trkpt>
      <trkpt lat="65.42809" lon="21.68269">
        <ele>30.751284</ele>
        <time>2020-09-26T11:15:51.916Z</time>
      </trkpt>
      <trkpt lat="65.42806" lon="21.68242">
        <ele>30.676348</ele>
        <time>2020-09-26T11:15:54.883Z</time>
      </trkpt>
      <trkpt lat="65.42804" lon="21.68215">
        <ele>30.60388</ele>
        <time>2020-09-26T11:15:57.923Z</time>
      </trkpt>
      <trkpt lat="65.42801" lon="21.6819">
        <ele>30.535332</ele>
        <time>2020-09-26T11:16:00.916Z</time>
      </trkpt>
      <trkpt lat="65.428" lon="21.68167">
        <ele>30.472221</ele>
        <time>2020-09-26T11:16:03.882Z</time>
      </trkpt>
      <trkpt lat="65.42798" lon="21.68143">
        <ele>30.408345</ele>
        <time>2020-09-26T11:16:06.937Z</time>
      </trkpt>
      <trkpt lat="65.42795" lon="21.6812">
        <ele>30.344418</ele>
        <time>2020-09-26T11:16:09.886Z</time>
      </trkpt>
      <trkpt lat="65.4279" lon="21.68096">
        <ele>30.275606</ele>
        <time>2020-09-26T11:16:12.896Z</time>
      </trkpt>
      <trkpt lat="65.42787" lon="21.6807">
        <ele>30.202054</ele>
        <time>2020-09-26T11:16:15.887Z</time>
      </trkpt>
      <trkpt lat="65.42784" lon="21.68049">
        <ele>30.142998</ele>
        <time>2020-09-26T11:16:17.895Z</time>
      </trkpt>
      <trkpt lat="65.42781" lon="21.68024">
        <ele>30.076206</ele>
        <time>2020-09-26T11:16:19.896Z</time>
      </trkpt>
      <trkpt lat="65.42777" lon="21.67999">
        <ele>30.00583</ele>
        <time>2020-09-26T11:16:21.880Z</time>
      </trkpt>
      <trkpt lat="65.42773" lon="21.67973">
        <ele>29.929647</ele>
        <time>2020-09-26T11:16:23.899Z</time>
      </trkpt>
      <trkpt lat="65.42769" lon="21.67946">
        <ele>29.769707</ele>
        <time>2020-09-26T11:16:25.930Z</time>
      </trkpt>
      <trkpt lat="65.42765" lon="21.67918">
        <ele>29.45621</ele>
        <time>2020-09-26T11:16:27.921Z</time>
      </trkpt>
      <trkpt lat="65.42761" lon="21.67891">
        <ele>29.149794</ele>
        <time>2020-09-26T11:16:29.883Z</time>
      </trkpt>
      <trkpt lat="65.42757" lon="21.67866">
        <ele>28.863612</ele>
        <time>2020-09-26T11:16:31.908Z</time>
      </trkpt>
      <trkpt lat="65.42754" lon="21.67841">
        <ele>28.587555</ele>
        <time>2020-09-26T11:16:33.902Z</time>
      </trkpt>
      <trkpt lat="65.4275" lon="21.67817">
        <ele>28.316189</ele>
        <time>2020-09-26T11:16:35.938Z</time>
      </trkpt>
      <trkpt lat="65.42747" lon="21.67792">
        <ele>28.041909</ele>
        <time>2020-09-26T11:16:37.899Z</time>
      </trkpt>
      <trkpt lat="65.42744" lon="21.67769">
        <ele>27.787105</ele>
        <time>2020-09-26T11:16:39.907Z</time>
      </trkpt>
      <trkpt lat="65.42741" lon="21.67746">
        <ele>27.526486</ele>
        <time>2020-09-26T11:16:41.956Z</time>
      </trkpt>
      <trkpt lat="65.42739" lon="21.67722">
        <ele>27.271373</ele>
        <time>2020-09-26T11:16:43.907Z</time>
      </trkpt>
      <trkpt lat="65.42736" lon="21.677">
        <ele>27.021748</ele>
        <time>2020-09-26T11:16:45.888Z</time>
      </trkpt>
      <trkpt lat="65.42733" lon="21.67677">
        <ele>26.769056</ele>
        <time>2020-09-26T11:16:47.898Z</time>
      </trkpt>
      <trkpt lat="65.42731" lon="21.67653">
        <ele>26.509039</ele>
        <time>2020-09-26T11:16:49.916Z</time>
      </trkpt>
      <trkpt lat="65.42729" lon="21.6763">
        <ele>26.261104</ele>
        <time>2020-09-26T11:16:51.890Z</time>
      </trkpt>
      <trkpt lat="65.42727" lon="21.67607">
        <ele>26.013991</ele>
        <time>2020-09-26T11:16:53.905Z</time>
      </trkpt>
      <trkpt lat="65.42724" lon="21.67583">
        <ele>25.752401</ele>
        <time>2020-09-26T11:16:55.885Z</time>
      </trkpt>
      <trkpt lat="65.42722" lon="21.67559">
        <ele>25.484575</ele>
        <time>2020-09-26T11:16:57.915Z</time>
      </trkpt>
      <trkpt lat="65.4272" lon="21.67535">
        <ele>25.293026</ele>
        <time>2020-09-26T11:16:59.897Z</time>
      </trkpt>
      <trkpt lat="65.42719" lon="21.67511">
        <ele>25.273551</ele>
        <time>2020-09-26T11:17:01.898Z</time>
      </trkpt>
      <trkpt lat="65.42718" lon="21.67488">
        <ele>25.254345</ele>
        <time>2020-09-26T11:17:03.904Z</time>
      </trkpt>
      <trkpt lat="65.42716" lon="21.67464">
        <ele>25.235058</ele>
        <time>2020-09-26T11:17:05.923Z</time>
      </trkpt>
      <trkpt lat="65.42715" lon="21.67441">
        <ele>25.215582</ele>
        <time>2020-09-26T11:17:07.897Z</time>
      </trkpt>
      <trkpt lat="65.42714" lon="21.67417">
        <ele>25.195996</ele>
        <time>2020-09-26T11:17:09.898Z</time>
      </trkpt>
      <trkpt lat="65.42713" lon="21.67394">
        <ele>25.177058</ele>
        <time>2020-09-26T11:17:11.916Z</time>
      </trkpt>
      <trkpt lat="65.42712" lon="21.6737">
        <ele>25.15786</ele>
        <time>2020-09-26T11:17:13.907Z</time>
      </trkpt>
      <trkpt lat="65.42711" lon="21.67347">
        <ele>25.138856</ele>
        <time>2020-09-26T11:17:15.912Z</time>
      </trkpt>
      <trkpt lat="65.42711" lon="21.67324">
        <ele>25.119494</ele>
        <time>2020-09-26T11:17:17.897Z</time>
      </trkpt>
      <trkpt lat="65.42711" lon="21.673">
        <ele>25.100231</ele>
        <time>2020-09-26T11:17:19.931Z</time>
      </trkpt>
      <trkpt lat="65.4271" lon="21.67276">
        <ele>25.080544</ele>
        <time>2020-09-26T11:17:21.927Z</time>
      </trkpt>
      <trkpt lat="65.42709" lon="21.67251">
        <ele>25.060412</ele>
        <time>2020-09-26T11:17:23.908Z</time>
      </trkpt>
      <trkpt lat="65.42709" lon="21.67227">
        <ele>25.040381</ele>
        <time>2020-09-26T11:17:25.920Z</time>
      </trkpt>
      <trkpt lat="65.4271" lon="21.67203">
        <ele>25.020792</ele>
        <time>2020-09-26T11:17:27.940Z</time>
      </trkpt>
      <trkpt lat="65.42711" lon="21.67179">
        <ele>25.000729</ele>
        <time>2020-09-26T11:17:29.900Z</time>
      </trkpt>
      <trkpt lat="65.42711" lon="21.67155">
        <ele>24.981195</ele>
        <time>2020-09-26T11:17:31.915Z</time>
      </trkpt>
      <trkpt lat="65.42711" lon="21.67131">
        <ele>24.961584</ele>
        <time>2020-09-26T11:17:33.924Z</time>
      </trkpt>
      <trkpt lat="65.42712" lon="21.67107">
        <ele>24.984385</ele>
        <time>2020-09-26T11:17:35.909Z</time>
      </trkpt>
      <trkpt lat="65.42713" lon="21.67085">
        <ele>25.226376</ele>
        <time>2020-09-26T11:17:37.909Z</time>
      </trkpt>
      <trkpt lat="65.42713" lon="21.67055">
        <ele>25.558102</ele>
        <time>2020-09-26T11:17:40.914Z</time>
      </trkpt>
      <trkpt lat="65.42714" lon="21.67025">
        <ele>25.876626</ele>
        <time>2020-09-26T11:17:43.914Z</time>
      </trkpt>
      <trkpt lat="65.42714" lon="21.67">
        <ele>26.155527</ele>
        <time>2020-09-26T11:17:46.890Z</time>
      </trkpt>
      <trkpt lat="65.42715" lon="21.66974">
        <ele>26.433142</ele>
        <time>2020-09-26T11:17:49.913Z</time>
      </trkpt>
      <trkpt lat="65.42717" lon="21.6695">
        <ele>26.697443</ele>
        <time>2020-09-26T11:17:52.880Z</time>
      </trkpt>
      <trkpt lat="65.42719" lon="21.66928">
        <ele>26.949074</ele>
        <time>2020-09-26T11:17:55.884Z</time>
      </trkpt>
      <trkpt lat="65.42721" lon="21.66904">
        <ele>27.210299</ele>
        <time>2020-09-26T11:17:58.890Z</time>
      </trkpt>
      <trkpt lat="65.42722" lon="21.6688">
        <ele>27.472466</ele>
        <time>2020-09-26T11:18:01.894Z</time>
      </trkpt>
      <trkpt lat="65.42724" lon="21.66856">
        <ele>27.740682</ele>
        <time>2020-09-26T11:18:04.924Z</time>
      </trkpt>
      <trkpt lat="65.42727" lon="21.66832">
        <ele>28.011442</ele>
        <time>2020-09-26T11:18:07.887Z</time>
      </trkpt>
      <trkpt lat="65.42731" lon="21.66807">
        <ele>28.300426</ele>
        <time>2020-09-26T11:18:10.892Z</time>
      </trkpt>
      <trkpt lat="65.42735" lon="21.66781">
        <ele>28.61232</ele>
        <time>2020-09-26T11:18:13.898Z</time>
      </trkpt>
      <trkpt lat="65.42739" lon="21.66754">
        <ele>28.920874</ele>
        <time>2020-09-26T11:18:16.914Z</time>
      </trkpt>
      <trkpt lat="65.42743" lon="21.66727">
        <ele>29.229057</ele>
        <time>2020-09-26T11:18:19.906Z</time>
      </trkpt>
      <trkpt lat="65.42746" lon="21.667">
        <ele>29.536006</ele>
        <time>2020-09-26T11:18:22.939Z</time>
      </trkpt>
      <trkpt lat="65.4275" lon="21.66675">
        <ele>29.822034</ele>
        <time>2020-09-26T11:18:25.898Z</time>
      </trkpt>
      <trkpt lat="65.42753" lon="21.66652">
        <ele>30.085378</ele>
        <time>2020-09-26T11:18:28.879Z</time>
      </trkpt>
      <trkpt lat="65.42756" lon="21.66629">
        <ele>30.346338</ele>
        <time>2020-09-26T11:18:31.898Z</time>
      </trkpt>
      <trkpt lat="65.42761" lon="21.66608">
        <ele>30.602149</ele>
        <time>2020-09-26T11:18:34.881Z</time>
      </trkpt>
      <trkpt lat="65.42765" lon="21.66586">
        <ele>30.853946</ele>
        <time>2020-09-26T11:18:37.893Z</time>
      </trkpt>
      <trkpt lat="65.42768" lon="21.66565">
        <ele>31.103702</ele>
        <time>2020-09-26T11:18:40.879Z</time>
      </trkpt>
      <trkpt lat="65.42772" lon="21.66545">
        <ele>31.340716</ele>
        <time>2020-09-26T11:18:43.915Z</time>
      </trkpt>
      <trkpt lat="65.42776" lon="21.66525">
        <ele>31.574499</ele>
        <time>2020-09-26T11:18:46.884Z</time>
      </trkpt>
      <trkpt lat="65.4278" lon="21.66499">
        <ele>31.875926</ele>
        <time>2020-09-26T11:18:50.924Z</time>
      </trkpt>
      <trkpt lat="65.42785" lon="21.66474">
        <ele>32.168488</ele>
        <time>2020-09-26T11:18:54.921Z</time>
      </trkpt>
      <trkpt lat="65.42789" lon="21.66449">
        <ele>32.462221</ele>
        <time>2020-09-26T11:18:58.890Z</time>
      </trkpt>
      <trkpt lat="65.42793" lon="21.66425">
        <ele>32.738785</ele>
        <time>2020-09-26T11:19:02.925Z</time>
      </trkpt>
      <trkpt lat="65.42797" lon="21.66402">
        <ele>33.010688</ele>
        <time>2020-09-26T11:19:06.899Z</time>
      </trkpt>
      <trkpt lat="65.42802" lon="21.66379">
        <ele>33.289331</ele>
        <time>2020-09-26T11:19:10.883Z</time>
      </trkpt>
      <trkpt lat="65.42806" lon="21.66354">
        <ele>33.576849</ele>
        <time>2020-09-26T11:19:14.918Z</time>
      </trkpt>
      <trkpt lat="65.42811" lon="21.6633">
        <ele>33.872991</ele>
        <time>2020-09-26T11:19:18.885Z</time>
      </trkpt>
      <trkpt lat="65.42816" lon="21.66304">
        <ele>34.177439</ele>
        <time>2020-09-26T11:19:22.885Z</time>
      </trkpt>
      <trkpt lat="65.42821" lon="21.66278">
        <ele>34.471013</ele>
        <time>2020-09-26T11:19:26.895Z</time>
      </trkpt>
      <trkpt lat="65.42826" lon="21.66253">
        <ele>34.753156</ele>
        <time>2020-09-26T11:19:30.917Z</time>
      </trkpt>
      <trkpt lat="65.4283" lon="21.66234">
        <ele>34.97453</ele>
        <time>2020-09-26T11:19:33.908Z</time>
      </trkpt>
      <trkpt lat="65.42835" lon="21.66214">
        <ele>35.209492</ele>
        <time>2020-09-26T11:19:36.904Z</time>
      </trkpt>
      <trkpt lat="65.4284" lon="21.66193">
        <ele>35.450055</ele>
        <time>2020-09-26T11:19:39.929Z</time>
      </trkpt>
      <trkpt lat="65.42845" lon="21.66173">
        <ele>35.691692</ele>
        <time>2020-09-26T11:19:42.889Z</time>
      </trkpt>
      <trkpt lat="65.4285" lon="21.66152">
        <ele>35.934651</ele>
        <time>2020-09-26T11:19:45.885Z</time>
      </trkpt>
      <trkpt lat="65.42856" lon="21.66131">
        <ele>36.186484</ele>
        <time>2020-09-26T11:19:48.896Z</time>
      </trkpt>
      <trkpt lat="65.42862" lon="21.6611">
        <ele>36.447191</ele>
        <time>2020-09-26T11:19:51.895Z</time>
      </trkpt>
      <trkpt lat="65.42868" lon="21.66088">
        <ele>36.714942</ele>
        <time>2020-09-26T11:19:54.910Z</time>
      </trkpt>
      <trkpt lat="65.42874" lon="21.66064">
        <ele>36.990424</ele>
        <time>2020-09-26T11:19:57.917Z</time>
      </trkpt>
      <trkpt lat="65.4288" lon="21.66042">
        <ele>37.265262</ele>
        <time>2020-09-26T11:20:00.897Z</time>
      </trkpt>
      <trkpt lat="65.42886" lon="21.6602">
        <ele>37.536034</ele>
        <time>2020-09-26T11:20:03.929Z</time>
      </trkpt>
      <trkpt lat="65.42892" lon="21.65997">
        <ele>37.810602</ele>
        <time>2020-09-26T11:20:06.926Z</time>
      </trkpt>
      <trkpt lat="65.42898" lon="21.65975">
        <ele>38.07548</ele>
        <time>2020-09-26T11:20:09.918Z</time>
      </trkpt>
      <trkpt lat="65.42905" lon="21.65952">
        <ele>38.357379</ele>
        <time>2020-09-26T11:20:12.931Z</time>
      </trkpt>
      <trkpt lat="65.42912" lon="21.65928">
        <ele>38.649947</ele>
        <time>2020-09-26T11:20:15.909Z</time>
      </trkpt>
      <trkpt lat="65.42919" lon="21.65902">
        <ele>38.745161</ele>
        <time>2020-09-26T11:20:18.919Z</time>
      </trkpt>
      <trkpt lat="65.42927" lon="21.65876">
        <ele>38.812196</ele>
        <time>2020-09-26T11:20:21.904Z</time>
      </trkpt>
      <trkpt lat="65.42932" lon="21.65856">
        <ele>38.8611</ele>
        <time>2020-09-26T11:20:23.912Z</time>
      </trkpt>
      <trkpt lat="65.42938" lon="21.65837">
        <ele>38.909845</ele>
        <time>2020-09-26T11:20:25.894Z</time>
      </trkpt>
      <trkpt lat="65.42944" lon="21.65818">
        <ele>38.958802</ele>
        <time>2020-09-26T11:20:27.904Z</time>
      </trkpt>
      <trkpt lat="65.42949" lon="21.65797">
        <ele>39.00943</ele>
        <time>2020-09-26T11:20:29.915Z</time>
      </trkpt>
      <trkpt lat="65.42955" lon="21.65776">
        <ele>39.063091</ele>
        <time>2020-09-26T11:20:31.905Z</time>
      </trkpt>
      <trkpt lat="65.42961" lon="21.65755">
        <ele>39.114984</ele>
        <time>2020-09-26T11:20:33.888Z</time>
      </trkpt>
      <trkpt lat="65.42967" lon="21.65734">
        <ele>39.167779</ele>
        <time>2020-09-26T11:20:35.907Z</time>
      </trkpt>
      <trkpt lat="65.42973" lon="21.65715">
        <ele>39.216786</ele>
        <time>2020-09-26T11:20:37.896Z</time>
      </trkpt>
      <trkpt lat="65.4298" lon="21.65695">
        <ele>39.267705</ele>
        <time>2020-09-26T11:20:39.915Z</time>
      </trkpt>
      <trkpt lat="65.42986" lon="21.65676">
        <ele>39.318436</ele>
        <time>2020-09-26T11:20:41.933Z</time>
      </trkpt>
      <trkpt lat="65.42992" lon="21.65656">
        <ele>39.370148</ele>
        <time>2020-09-26T11:20:43.915Z</time>
      </trkpt>
      <trkpt lat="65.42998" lon="21.65637">
        <ele>39.419154</ele>
        <time>2020-09-26T11:20:45.892Z</time>
      </trkpt>
      <trkpt lat="65.43004" lon="21.65618">
        <ele>39.467775</ele>
        <time>2020-09-26T11:20:47.911Z</time>
      </trkpt>
      <trkpt lat="65.4301" lon="21.65599">
        <ele>39.517373</ele>
        <time>2020-09-26T11:20:49.899Z</time>
      </trkpt>
      <trkpt lat="65.43016" lon="21.6558">
        <ele>39.566174</ele>
        <time>2020-09-26T11:20:51.945Z</time>
      </trkpt>
      <trkpt lat="65.43021" lon="21.6556">
        <ele>39.516917</ele>
        <time>2020-09-26T11:20:53.936Z</time>
      </trkpt>
      <trkpt lat="65.43026" lon="21.65541">
        <ele>39.426584</ele>
        <time>2020-09-26T11:20:55.904Z</time>
      </trkpt>
      <trkpt lat="65.43032" lon="21.65523">
        <ele>39.334589</ele>
        <time>2020-09-26T11:20:57.942Z</time>
      </trkpt>
      <trkpt lat="65.43038" lon="21.65505">
        <ele>39.248499</ele>
        <time>2020-09-26T11:20:59.931Z</time>
      </trkpt>
      <trkpt lat="65.43043" lon="21.65488">
        <ele>39.161716</ele>
        <time>2020-09-26T11:21:01.946Z</time>
      </trkpt>
      <trkpt lat="65.43049" lon="21.6547">
        <ele>39.073471</ele>
        <time>2020-09-26T11:21:03.916Z</time>
      </trkpt>
      <trkpt lat="65.43057" lon="21.65445">
        <ele>38.946541</ele>
        <time>2020-09-26T11:21:06.897Z</time>
      </trkpt>
      <trkpt lat="65.43065" lon="21.6542">
        <ele>38.821578</ele>
        <time>2020-09-26T11:21:09.893Z</time>
      </trkpt>
      <trkpt lat="65.43072" lon="21.65395">
        <ele>38.698621</ele>
        <time>2020-09-26T11:21:12.940Z</time>
      </trkpt>
      <trkpt lat="65.4308" lon="21.65369">
        <ele>38.573939</ele>
        <time>2020-09-26T11:21:15.915Z</time>
      </trkpt>
      <trkpt lat="65.43087" lon="21.65345">
        <ele>38.456444</ele>
        <time>2020-09-26T11:21:18.919Z</time>
      </trkpt>
      <trkpt lat="65.43094" lon="21.6532">
        <ele>38.340301</ele>
        <time>2020-09-26T11:21:21.888Z</time>
      </trkpt>
      <trkpt lat="65.431" lon="21.65297">
        <ele>38.229878</ele>
        <time>2020-09-26T11:21:24.888Z</time>
      </trkpt>
      <trkpt lat="65.43106" lon="21.65275">
        <ele>38.125197</ele>
        <time>2020-09-26T11:21:27.897Z</time>
      </trkpt>
      <trkpt lat="65.43112" lon="21.65252">
        <ele>38.017453</ele>
        <time>2020-09-26T11:21:30.903Z</time>
      </trkpt>
      <trkpt lat="65.43117" lon="21.65229">
        <ele>37.91162</ele>
        <time>2020-09-26T11:21:33.893Z</time>
      </trkpt>
      <trkpt lat="65.43122" lon="21.65204">
        <ele>37.819791</ele>
        <time>2020-09-26T11:21:36.894Z</time>
      </trkpt>
      <trkpt lat="65.43127" lon="21.65182">
        <ele>37.745293</ele>
        <time>2020-09-26T11:21:39.883Z</time>
      </trkpt>
      <trkpt lat="65.43132" lon="21.65159">
        <ele>37.671412</ele>
        <time>2020-09-26T11:21:42.908Z</time>
      </trkpt>
      <trkpt lat="65.43135" lon="21.65136">
        <ele>37.602017</ele>
        <time>2020-09-26T11:21:45.890Z</time>
      </trkpt>
      <trkpt lat="65.43139" lon="21.65116">
        <ele>37.537827</ele>
        <time>2020-09-26T11:21:48.887Z</time>
      </trkpt>
      <trkpt lat="65.43142" lon="21.65094">
        <ele>37.470825</ele>
        <time>2020-09-26T11:21:51.889Z</time>
      </trkpt>
      <trkpt lat="65.43145" lon="21.65073">
        <ele>37.405932</ele>
        <time>2020-09-26T11:21:54.902Z</time>
      </trkpt>
      <trkpt lat="65.43148" lon="21.65051">
        <ele>37.338101</ele>
        <time>2020-09-26T11:21:57.899Z</time>
      </trkpt>
      <trkpt lat="65.43149" lon="21.65028">
        <ele>37.270511</ele>
        <time>2020-09-26T11:22:00.905Z</time>
      </trkpt>
      <trkpt lat="65.4315" lon="21.65007">
        <ele>37.20654</ele>
        <time>2020-09-26T11:22:03.899Z</time>
      </trkpt>
      <trkpt lat="65.43151" lon="21.64985">
        <ele>37.142344</ele>
        <time>2020-09-26T11:22:06.921Z</time>
      </trkpt>
      <trkpt lat="65.43152" lon="21.6496">
        <ele>37.069551</ele>
        <time>2020-09-26T11:22:09.910Z</time>
      </trkpt>
      <trkpt lat="65.43153" lon="21.64935">
        <ele>36.996494</ele>
        <time>2020-09-26T11:22:12.928Z</time>
      </trkpt>
      <trkpt lat="65.43153" lon="21.6491">
        <ele>36.924201</ele>
        <time>2020-09-26T11:22:15.905Z</time>
      </trkpt>
      <trkpt lat="65.43154" lon="21.64885">
        <ele>36.8504</ele>
        <time>2020-09-26T11:22:18.899Z</time>
      </trkpt>
      <trkpt lat="65.43155" lon="21.64859">
        <ele>36.773521</ele>
        <time>2020-09-26T11:22:21.922Z</time>
      </trkpt>
      <trkpt lat="65.43155" lon="21.64832">
        <ele>36.694679</ele>
        <time>2020-09-26T11:22:24.888Z</time>
      </trkpt>
      <trkpt lat="65.43155" lon="21.64798">
        <ele>36.58189</ele>
        <time>2020-09-26T11:22:27.916Z</time>
      </trkpt>
      <trkpt lat="65.43156" lon="21.64772">
        <ele>36.250897</ele>
        <time>2020-09-26T11:22:29.933Z</time>
      </trkpt>
      <trkpt lat="65.43157" lon="21.64742">
        <ele>35.874382</ele>
        <time>2020-09-26T11:22:31.883Z</time>
      </trkpt>
      <trkpt lat="65.43158" lon="21.6471">
        <ele>35.464227</ele>
        <time>2020-09-26T11:22:33.908Z</time>
      </trkpt>
      <trkpt lat="65.43158" lon="21.64675">
        <ele>35.029623</ele>
        <time>2020-09-26T11:22:35.900Z</time>
      </trkpt>
      <trkpt lat="65.43158" lon="21.64638">
        <ele>34.563623</ele>
        <time>2020-09-26T11:22:37.885Z</time>
      </trkpt>
      <trkpt lat="65.43159" lon="21.64598">
        <ele>34.056895</ele>
        <time>2020-09-26T11:22:39.897Z</time>
      </trkpt>
      <trkpt lat="65.4316" lon="21.64556">
        <ele>33.531348</ele>
        <time>2020-09-26T11:22:41.882Z</time>
      </trkpt>
      <trkpt lat="65.4316" lon="21.64514">
        <ele>33.005802</ele>
        <time>2020-09-26T11:22:43.925Z</time>
      </trkpt>
      <trkpt lat="65.43162" lon="21.64473">
        <ele>32.485827</ele>
        <time>2020-09-26T11:22:45.921Z</time>
      </trkpt>
      <trkpt lat="65.43162" lon="21.64433">
        <ele>31.989273</ele>
        <time>2020-09-26T11:22:47.912Z</time>
      </trkpt>
      <trkpt lat="65.43162" lon="21.64395">
        <ele>31.508204</ele>
        <time>2020-09-26T11:22:49.957Z</time>
      </trkpt>
      <trkpt lat="65.43163" lon="21.6436">
        <ele>31.112528</ele>
        <time>2020-09-26T11:22:51.895Z</time>
      </trkpt>
      <trkpt lat="65.43164" lon="21.64326">
        <ele>30.889823</ele>
        <time>2020-09-26T11:22:53.893Z</time>
      </trkpt>
      <trkpt lat="65.43165" lon="21.64294">
        <ele>30.672209</ele>
        <time>2020-09-26T11:22:55.899Z</time>
      </trkpt>
      <trkpt lat="65.43166" lon="21.64263">
        <ele>30.467168</ele>
        <time>2020-09-26T11:22:57.912Z</time>
      </trkpt>
      <trkpt lat="65.43166" lon="21.64234">
        <ele>30.275463</ele>
        <time>2020-09-26T11:22:59.886Z</time>
      </trkpt>
      <trkpt lat="65.43167" lon="21.64206">
        <ele>30.08791</ele>
        <time>2020-09-26T11:23:01.918Z</time>
      </trkpt>
      <trkpt lat="65.43168" lon="21.6418">
        <ele>29.911336</ele>
        <time>2020-09-26T11:23:03.946Z</time>
      </trkpt>
      <trkpt lat="65.43169" lon="21.64156">
        <ele>29.748426</ele>
        <time>2020-09-26T11:23:05.938Z</time>
      </trkpt>
      <trkpt lat="65.43169" lon="21.64133">
        <ele>29.597522</ele>
        <time>2020-09-26T11:23:07.902Z</time>
      </trkpt>
      <trkpt lat="65.4317" lon="21.64101">
        <ele>29.384806</ele>
        <time>2020-09-26T11:23:10.895Z</time>
      </trkpt>
      <trkpt lat="65.4317" lon="21.6408">
        <ele>29.240618</ele>
        <time>2020-09-26T11:23:12.884Z</time>
      </trkpt>
      <trkpt lat="65.4317" lon="21.64058">
        <ele>29.095798</ele>
        <time>2020-09-26T11:23:14.935Z</time>
      </trkpt>
      <trkpt lat="65.4317" lon="21.64036">
        <ele>28.948835</ele>
        <time>2020-09-26T11:23:16.935Z</time>
      </trkpt>
      <trkpt lat="65.43171" lon="21.64014">
        <ele>28.804245</ele>
        <time>2020-09-26T11:23:18.915Z</time>
      </trkpt>
      <trkpt lat="65.43172" lon="21.63983">
        <ele>28.592389</ele>
        <time>2020-09-26T11:23:21.898Z</time>
      </trkpt>
      <trkpt lat="65.43172" lon="21.63952">
        <ele>28.384532</ele>
        <time>2020-09-26T11:23:24.919Z</time>
      </trkpt>
      <trkpt lat="65.43173" lon="21.63922">
        <ele>28.457478</ele>
        <time>2020-09-26T11:23:27.920Z</time>
      </trkpt>
      <trkpt lat="65.43175" lon="21.63893">
        <ele>28.829752</ele>
        <time>2020-09-26T11:23:30.909Z</time>
      </trkpt>
      <trkpt lat="65.43176" lon="21.63863">
        <ele>29.221002</ele>
        <time>2020-09-26T11:23:33.908Z</time>
      </trkpt>
      <trkpt lat="65.43178" lon="21.63833">
        <ele>29.604726</ele>
        <time>2020-09-26T11:23:36.895Z</time>
      </trkpt>
      <trkpt lat="65.43182" lon="21.63805">
        <ele>29.97551</ele>
        <time>2020-09-26T11:23:39.910Z</time>
      </trkpt>
      <trkpt lat="65.43187" lon="21.63779">
        <ele>30.336195</ele>
        <time>2020-09-26T11:23:42.896Z</time>
      </trkpt>
      <trkpt lat="65.43193" lon="21.63755">
        <ele>30.690388</ele>
        <time>2020-09-26T11:23:45.909Z</time>
      </trkpt>
      <trkpt lat="65.43198" lon="21.63733">
        <ele>31.02503</ele>
        <time>2020-09-26T11:23:48.891Z</time>
      </trkpt>
      <trkpt lat="65.43204" lon="21.63713">
        <ele>31.33519</ele>
        <time>2020-09-26T11:23:51.895Z</time>
      </trkpt>
      <trkpt lat="65.4321" lon="21.63695">
        <ele>31.625857</ele>
        <time>2020-09-26T11:23:54.916Z</time>
      </trkpt>
      <trkpt lat="65.43218" lon="21.63675">
        <ele>31.969553</ele>
        <time>2020-09-26T11:23:58.897Z</time>
      </trkpt>
      <trkpt lat="65.43226" lon="21.63657">
        <ele>32.311023</ele>
        <time>2020-09-26T11:24:02.907Z</time>
      </trkpt>
      <trkpt lat="65.43234" lon="21.63643">
        <ele>32.617925</ele>
        <time>2020-09-26T11:24:06.918Z</time>
      </trkpt>
      <trkpt lat="65.43243" lon="21.63631">
        <ele>32.922136</ele>
        <time>2020-09-26T11:24:10.889Z</time>
      </trkpt>
      <trkpt lat="65.43252" lon="21.63622">
        <ele>33.217992</ele>
        <time>2020-09-26T11:24:14.931Z</time>
      </trkpt>
      <trkpt lat="65.43261" lon="21.63613">
        <ele>33.519002</ele>
        <time>2020-09-26T11:24:18.913Z</time>
      </trkpt>
      <trkpt lat="65.4327" lon="21.63603">
        <ele>33.793428</ele>
        <time>2020-09-26T11:24:22.895Z</time>
      </trkpt>
      <trkpt lat="65.43278" lon="21.63593">
        <ele>33.883703</ele>
        <time>2020-09-26T11:24:26.934Z</time>
      </trkpt>
      <trkpt lat="65.43287" lon="21.63584">
        <ele>33.966908</ele>
        <time>2020-09-26T11:24:30.904Z</time>
      </trkpt>
      <trkpt lat="65.43295" lon="21.63575">
        <ele>34.055035</ele>
        <time>2020-09-26T11:24:34.896Z</time>
      </trkpt>
      <trkpt lat="65.43304" lon="21.63566">
        <ele>34.142159</ele>
        <time>2020-09-26T11:24:38.881Z</time>
      </trkpt>
      <trkpt lat="65.43313" lon="21.63557">
        <ele>34.235984</ele>
        <time>2020-09-26T11:24:42.883Z</time>
      </trkpt>
      <trkpt lat="65.43323" lon="21.63549">
        <ele>34.329542</ele>
        <time>2020-09-26T11:24:46.892Z</time>
      </trkpt>
      <trkpt lat="65.43331" lon="21.63539">
        <ele>34.4163</ele>
        <time>2020-09-26T11:24:50.911Z</time>
      </trkpt>
      <trkpt lat="65.4334" lon="21.6353">
        <ele>34.502221</ele>
        <time>2020-09-26T11:24:54.901Z</time>
      </trkpt>
      <trkpt lat="65.43349" lon="21.63521">
        <ele>34.594155</ele>
        <time>2020-09-26T11:24:58.883Z</time>
      </trkpt>
      <trkpt lat="65.43358" lon="21.63513">
        <ele>34.687707</ele>
        <time>2020-09-26T11:25:02.907Z</time>
      </trkpt>
      <trkpt lat="65.43368" lon="21.63504">
        <ele>34.784083</ele>
        <time>2020-09-26T11:25:06.893Z</time>
      </trkpt>
      <trkpt lat="65.43377" lon="21.63496">
        <ele>34.869575</ele>
        <time>2020-09-26T11:25:10.907Z</time>
      </trkpt>
      <trkpt lat="65.43387" lon="21.63481">
        <ele>34.979857</ele>
        <time>2020-09-26T11:25:14.893Z</time>
      </trkpt>
      <trkpt lat="65.43391" lon="21.63456">
        <ele>35.083981</ele>
        <time>2020-09-26T11:25:17.921Z</time>
      </trkpt>
      <trkpt lat="65.43386" lon="21.63426">
        <ele>35.203789</ele>
        <time>2020-09-26T11:25:20.917Z</time>
      </trkpt>
      <trkpt lat="65.43381" lon="21.63401">
        <ele>35.313683</ele>
        <time>2020-09-26T11:25:23.900Z</time>
      </trkpt>
      <trkpt lat="65.43377" lon="21.63375">
        <ele>35.421732</ele>
        <time>2020-09-26T11:25:26.898Z</time>
      </trkpt>
      <trkpt lat="65.43372" lon="21.63348">
        <ele>35.511429</ele>
        <time>2020-09-26T11:25:29.900Z</time>
      </trkpt>
      <trkpt lat="65.43368" lon="21.63321">
        <ele>35.593855</ele>
        <time>2020-09-26T11:25:32.923Z</time>
      </trkpt>
      <trkpt lat="65.43363" lon="21.63293">
        <ele>35.678884</ele>
        <time>2020-09-26T11:25:35.894Z</time>
      </trkpt>
      <trkpt lat="65.43358" lon="21.63264">
        <ele>35.764951</ele>
        <time>2020-09-26T11:25:38.899Z</time>
      </trkpt>
      <trkpt lat="65.43353" lon="21.63237">
        <ele>35.846856</ele>
        <time>2020-09-26T11:25:41.918Z</time>
      </trkpt>
      <trkpt lat="65.43349" lon="21.6321">
        <ele>35.929831</ele>
        <time>2020-09-26T11:25:44.913Z</time>
      </trkpt>
      <trkpt lat="65.43344" lon="21.63182">
        <ele>36.014599</ele>
        <time>2020-09-26T11:25:47.913Z</time>
      </trkpt>
      <trkpt lat="65.4334" lon="21.63155">
        <ele>36.098325</ele>
        <time>2020-09-26T11:25:50.885Z</time>
      </trkpt>
      <trkpt lat="65.43335" lon="21.63127">
        <ele>36.182571</ele>
        <time>2020-09-26T11:25:53.895Z</time>
      </trkpt>
      <trkpt lat="65.4333" lon="21.63099">
        <ele>36.269159</ele>
        <time>2020-09-26T11:25:56.899Z</time>
      </trkpt>
      <trkpt lat="65.43326" lon="21.63071">
        <ele>36.351161</ele>
        <time>2020-09-26T11:25:59.938Z</time>
      </trkpt>
      <trkpt lat="65.43322" lon="21.63044">
        <ele>36.432339</ele>
        <time>2020-09-26T11:26:02.893Z</time>
      </trkpt>
      <trkpt lat="65.43317" lon="21.63018">
        <ele>36.512426</ele>
        <time>2020-09-26T11:26:05.913Z</time>
      </trkpt>
      <trkpt lat="65.43313" lon="21.62992">
        <ele>36.590525</ele>
        <time>2020-09-26T11:26:08.903Z</time>
      </trkpt>
      <trkpt lat="65.4331" lon="21.62967">
        <ele>36.665027</ele>
        <time>2020-09-26T11:26:11.894Z</time>
      </trkpt>
      <trkpt lat="65.43306" lon="21.62942">
        <ele>36.980431</ele>
        <time>2020-09-26T11:26:14.898Z</time>
      </trkpt>
      <trkpt lat="65.43303" lon="21.62917">
        <ele>37.304838</ele>
        <time>2020-09-26T11:26:17.916Z</time>
      </trkpt>
      <trkpt lat="65.43299" lon="21.62893">
        <ele>37.618367</ele>
        <time>2020-09-26T11:26:20.928Z</time>
      </trkpt>
      <trkpt lat="65.43295" lon="21.6287">
        <ele>37.924364</ele>
        <time>2020-09-26T11:26:23.938Z</time>
      </trkpt>
      <trkpt lat="65.43292" lon="21.62846">
        <ele>38.232243</ele>
        <time>2020-09-26T11:26:26.891Z</time>
      </trkpt>
      <trkpt lat="65.43288" lon="21.62823">
        <ele>38.5336</ele>
        <time>2020-09-26T11:26:29.906Z</time>
      </trkpt>
      <trkpt lat="65.43285" lon="21.628">
        <ele>38.833647</ele>
        <time>2020-09-26T11:26:32.898Z</time>
      </trkpt>
      <trkpt lat="65.43282" lon="21.62778">
        <ele>39.122603</ele>
        <time>2020-09-26T11:26:35.902Z</time>
      </trkpt>
      <trkpt lat="65.43278" lon="21.62756">
        <ele>39.40894</ele>
        <time>2020-09-26T11:26:38.932Z</time>
      </trkpt>
      <trkpt lat="65.43275" lon="21.62735">
        <ele>39.689635</ele>
        <time>2020-09-26T11:26:41.900Z</time>
      </trkpt>
      <trkpt lat="65.43271" lon="21.62709">
        <ele>40.030712</ele>
        <time>2020-09-26T11:26:45.880Z</time>
      </trkpt>
      <trkpt lat="65.43268" lon="21.62688">
        <ele>40.296642</ele>
        <time>2020-09-26T11:26:48.894Z</time>
      </trkpt>
      <trkpt lat="65.43265" lon="21.62662">
        <ele>40.630157</ele>
        <time>2020-09-26T11:26:52.904Z</time>
      </trkpt>
      <trkpt lat="65.43261" lon="21.62636">
        <ele>40.971407</ele>
        <time>2020-09-26T11:26:56.935Z</time>
      </trkpt>
      <trkpt lat="65.43257" lon="21.62611">
        <ele>41.293291</ele>
        <time>2020-09-26T11:27:00.899Z</time>
      </trkpt>
      <trkpt lat="65.43254" lon="21.62586">
        <ele>41.617941</ele>
        <time>2020-09-26T11:27:04.899Z</time>
      </trkpt>
      <trkpt lat="65.43251" lon="21.6256">
        <ele>41.954033</ele>
        <time>2020-09-26T11:27:08.927Z</time>
      </trkpt>
      <trkpt lat="65.43247" lon="21.62534">
        <ele>42.513324</ele>
        <time>2020-09-26T11:27:12.895Z</time>
      </trkpt>
      <trkpt lat="65.43244" lon="21.6251">
        <ele>43.054646</ele>
        <time>2020-09-26T11:27:16.900Z</time>
      </trkpt>
      <trkpt lat="65.43241" lon="21.62485">
        <ele>43.600403</ele>
        <time>2020-09-26T11:27:20.904Z</time>
      </trkpt>
      <trkpt lat="65.43237" lon="21.6246">
        <ele>44.15942</ele>
        <time>2020-09-26T11:27:24.911Z</time>
      </trkpt>
      <trkpt lat="65.43234" lon="21.62436">
        <ele>44.68748</ele>
        <time>2020-09-26T11:27:28.938Z</time>
      </trkpt>
      <trkpt lat="65.43231" lon="21.62411">
        <ele>45.241808</ele>
        <time>2020-09-26T11:27:32.896Z</time>
      </trkpt>
      <trkpt lat="65.43228" lon="21.62386">
        <ele>45.80372</ele>
        <time>2020-09-26T11:27:36.939Z</time>
      </trkpt>
      <trkpt lat="65.43224" lon="21.62363">
        <ele>46.329013</ele>
        <time>2020-09-26T11:27:40.900Z</time>
      </trkpt>
      <trkpt lat="65.43221" lon="21.62338">
        <ele>46.871554</ele>
        <time>2020-09-26T11:27:44.913Z</time>
      </trkpt>
      <trkpt lat="65.43218" lon="21.62311">
        <ele>47.458374</ele>
        <time>2020-09-26T11:27:48.924Z</time>
      </trkpt>
      <trkpt lat="65.43215" lon="21.62286">
        <ele>48.0261</ele>
        <time>2020-09-26T11:27:52.928Z</time>
      </trkpt>
      <trkpt lat="65.43212" lon="21.6226">
        <ele>48.585016</ele>
        <time>2020-09-26T11:27:56.904Z</time>
      </trkpt>
      <trkpt lat="65.43209" lon="21.62234">
        <ele>49.159579</ele>
        <time>2020-09-26T11:28:00.932Z</time>
      </trkpt>
      <trkpt lat="65.43207" lon="21.62208">
        <ele>49.722157</ele>
        <time>2020-09-26T11:28:04.904Z</time>
      </trkpt>
      <trkpt lat="65.43205" lon="21.62184">
        <ele>50.244096</ele>
        <time>2020-09-26T11:28:08.897Z</time>
      </trkpt>
      <trkpt lat="65.43201" lon="21.62159">
        <ele>50.792891</ele>
        <time>2020-09-26T11:28:12.900Z</time>
      </trkpt>
      <trkpt lat="65.43199" lon="21.62134">
        <ele>51.336002</ele>
        <time>2020-09-26T11:28:16.931Z</time>
      </trkpt>
      <trkpt lat="65.43196" lon="21.6211">
        <ele>51.850594</ele>
        <time>2020-09-26T11:28:20.905Z</time>
      </trkpt>
      <trkpt lat="65.43194" lon="21.62086">
        <ele>52.348806</ele>
        <time>2020-09-26T11:28:24.900Z</time>
      </trkpt>
      <trkpt lat="65.43191" lon="21.62062">
        <ele>52.865159</ele>
        <time>2020-09-26T11:28:28.922Z</time>
      </trkpt>
      <trkpt lat="65.43189" lon="21.62037">
        <ele>53.379482</ele>
        <time>2020-09-26T11:28:32.884Z</time>
      </trkpt>
      <trkpt lat="65.43186" lon="21.62014">
        <ele>53.881403</ele>
        <time>2020-09-26T11:28:36.903Z</time>
      </trkpt>
      <trkpt lat="65.43185" lon="21.61991">
        <ele>54.350851</ele>
        <time>2020-09-26T11:28:40.898Z</time>
      </trkpt>
      <trkpt lat="65.43182" lon="21.6197">
        <ele>54.799011</ele>
        <time>2020-09-26T11:28:44.916Z</time>
      </trkpt>
      <trkpt lat="65.4318" lon="21.61948">
        <ele>55.261133</ele>
        <time>2020-09-26T11:28:48.903Z</time>
      </trkpt>
      <trkpt lat="65.43179" lon="21.61926">
        <ele>55.721695</ele>
        <time>2020-09-26T11:28:52.908Z</time>
      </trkpt>
      <trkpt lat="65.43177" lon="21.61903">
        <ele>56.185089</ele>
        <time>2020-09-26T11:28:56.892Z</time>
      </trkpt>
      <trkpt lat="65.43175" lon="21.61882">
        <ele>56.640235</ele>
        <time>2020-09-26T11:29:00.903Z</time>
      </trkpt>
      <trkpt lat="65.43173" lon="21.61857">
        <ele>57.149496</ele>
        <time>2020-09-26T11:29:04.881Z</time>
      </trkpt>
      <trkpt lat="65.43171" lon="21.61834">
        <ele>57.6337</ele>
        <time>2020-09-26T11:29:08.895Z</time>
      </trkpt>
      <trkpt lat="65.43168" lon="21.6181">
        <ele>58.143549</ele>
        <time>2020-09-26T11:29:12.930Z</time>
      </trkpt>
      <trkpt lat="65.43166" lon="21.61785">
        <ele>58.672921</ele>
        <time>2020-09-26T11:29:16.939Z</time>
      </trkpt>
      <trkpt lat="65.43164" lon="21.6176">
        <ele>59.192237</ele>
        <time>2020-09-26T11:29:20.894Z</time>
      </trkpt>
      <trkpt lat="65.43162" lon="21.61735">
        <ele>59.702588</ele>
        <time>2020-09-26T11:29:24.905Z</time>
      </trkpt>
      <trkpt lat="65.4316" lon="21.61712">
        <ele>60.073152</ele>
        <time>2020-09-26T11:29:28.940Z</time>
      </trkpt>
      <trkpt lat="65.43158" lon="21.61688">
        <ele>60.235322</ele>
        <time>2020-09-26T11:29:32.900Z</time>
      </trkpt>
      <trkpt lat="65.43155" lon="21.61663">
        <ele>60.409223</ele>
        <time>2020-09-26T11:29:36.921Z</time>
      </trkpt>
      <trkpt lat="65.43153" lon="21.61638">
        <ele>60.58055</ele>
        <time>2020-09-26T11:29:40.893Z</time>
      </trkpt>
      <trkpt lat="65.43151" lon="21.61613">
        <ele>60.75193</ele>
        <time>2020-09-26T11:29:44.905Z</time>
      </trkpt>
      <trkpt lat="65.4315" lon="21.61588">
        <ele>60.920069</ele>
        <time>2020-09-26T11:29:48.900Z</time>
      </trkpt>
      <trkpt lat="65.43149" lon="21.61566">
        <ele>61.067221</ele>
        <time>2020-09-26T11:29:52.904Z</time>
      </trkpt>
      <trkpt lat="65.43147" lon="21.61544">
        <ele>61.220545</ele>
        <time>2020-09-26T11:29:56.902Z</time>
      </trkpt>
      <trkpt lat="65.43145" lon="21.6152">
        <ele>61.380965</ele>
        <time>2020-09-26T11:30:00.891Z</time>
      </trkpt>
      <trkpt lat="65.43143" lon="21.61496">
        <ele>61.541822</ele>
        <time>2020-09-26T11:30:04.919Z</time>
      </trkpt>
      <trkpt lat="65.43141" lon="21.6147">
        <ele>61.718758</ele>
        <time>2020-09-26T11:30:08.912Z</time>
      </trkpt>
      <trkpt lat="65.4314" lon="21.61444">
        <ele>61.897724</ele>
        <time>2020-09-26T11:30:12.924Z</time>
      </trkpt>
      <trkpt lat="65.43138" lon="21.61419">
        <ele>62.068722</ele>
        <time>2020-09-26T11:30:16.918Z</time>
      </trkpt>
      <trkpt lat="65.43135" lon="21.61391">
        <ele>62.25643</ele>
        <time>2020-09-26T11:30:20.887Z</time>
      </trkpt>
      <trkpt lat="65.43135" lon="21.61369">
        <ele>62.406356</ele>
        <time>2020-09-26T11:30:23.919Z</time>
      </trkpt>
      <trkpt lat="65.43133" lon="21.61347">
        <ele>62.555053</ele>
        <time>2020-09-26T11:30:26.892Z</time>
      </trkpt>
      <trkpt lat="65.43132" lon="21.61325">
        <ele>62.705523</ele>
        <time>2020-09-26T11:30:29.888Z</time>
      </trkpt>
      <trkpt lat="65.43131" lon="21.61302">
        <ele>62.859606</ele>
        <time>2020-09-26T11:30:32.904Z</time>
      </trkpt>
      <trkpt lat="65.4313" lon="21.61279">
        <ele>62.815872</ele>
        <time>2020-09-26T11:30:35.889Z</time>
      </trkpt>
      <trkpt lat="65.43129" lon="21.61257">
        <ele>62.680892</ele>
        <time>2020-09-26T11:30:38.967Z</time>
      </trkpt>
      <trkpt lat="65.43128" lon="21.61234">
        <ele>62.541298</ele>
        <time>2020-09-26T11:30:41.943Z</time>
      </trkpt>
      <trkpt lat="65.43127" lon="21.61211">
        <ele>62.401531</ele>
        <time>2020-09-26T11:30:44.916Z</time>
      </trkpt>
      <trkpt lat="65.43126" lon="21.61188">
        <ele>62.26313</ele>
        <time>2020-09-26T11:30:47.883Z</time>
      </trkpt>
      <trkpt lat="65.43124" lon="21.61165">
        <ele>62.124541</ele>
        <time>2020-09-26T11:30:50.932Z</time>
      </trkpt>
      <trkpt lat="65.43124" lon="21.61143">
        <ele>61.991355</ele>
        <time>2020-09-26T11:30:53.905Z</time>
      </trkpt>
      <trkpt lat="65.43123" lon="21.6112">
        <ele>61.850599</ele>
        <time>2020-09-26T11:30:56.932Z</time>
      </trkpt>
      <trkpt lat="65.43122" lon="21.61096">
        <ele>61.70688</ele>
        <time>2020-09-26T11:30:59.885Z</time>
      </trkpt>
      <trkpt lat="65.4312" lon="21.61072">
        <ele>61.559785</ele>
        <time>2020-09-26T11:31:02.902Z</time>
      </trkpt>
      <trkpt lat="65.4312" lon="21.61049">
        <ele>61.421508</ele>
        <time>2020-09-26T11:31:05.903Z</time>
      </trkpt>
      <trkpt lat="65.4312" lon="21.61026">
        <ele>61.285814</ele>
        <time>2020-09-26T11:31:08.910Z</time>
      </trkpt>
      <trkpt lat="65.43119" lon="21.61002">
        <ele>61.142741</ele>
        <time>2020-09-26T11:31:11.906Z</time>
      </trkpt>
      <trkpt lat="65.43118" lon="21.60978">
        <ele>60.994477</ele>
        <time>2020-09-26T11:31:14.901Z</time>
      </trkpt>
      <trkpt lat="65.43117" lon="21.60953">
        <ele>60.84382</ele>
        <time>2020-09-26T11:31:17.914Z</time>
      </trkpt>
      <trkpt lat="65.43117" lon="21.60925">
        <ele>60.680707</ele>
        <time>2020-09-26T11:31:20.919Z</time>
      </trkpt>
      <trkpt lat="65.43116" lon="21.60898">
        <ele>60.512803</ele>
        <time>2020-09-26T11:31:23.914Z</time>
      </trkpt>
      <trkpt lat="65.43115" lon="21.6087">
        <ele>60.347294</ele>
        <time>2020-09-26T11:31:26.912Z</time>
      </trkpt>
      <trkpt lat="65.43114" lon="21.60842">
        <ele>60.17075</ele>
        <time>2020-09-26T11:31:29.892Z</time>
      </trkpt>
      <trkpt lat="65.43114" lon="21.60813">
        <ele>59.98237</ele>
        <time>2020-09-26T11:31:32.887Z</time>
      </trkpt>
      <trkpt lat="65.43113" lon="21.6078">
        <ele>59.774438</ele>
        <time>2020-09-26T11:31:35.901Z</time>
      </trkpt>
      <trkpt lat="65.43112" lon="21.60758">
        <ele>59.632385</ele>
        <time>2020-09-26T11:31:37.904Z</time>
      </trkpt>
      <trkpt lat="65.43112" lon="21.60735">
        <ele>59.48906</ele>
        <time>2020-09-26T11:31:39.940Z</time>
      </trkpt>
      <trkpt lat="65.43111" lon="21.60712">
        <ele>59.34039</ele>
        <time>2020-09-26T11:31:41.928Z</time>
      </trkpt>
      <trkpt lat="65.4311" lon="21.60689">
        <ele>59.192714</ele>
        <time>2020-09-26T11:31:43.936Z</time>
      </trkpt>
      <trkpt lat="65.4311" lon="21.60666">
        <ele>59.042702</ele>
        <time>2020-09-26T11:31:45.924Z</time>
      </trkpt>
      <trkpt lat="65.4311" lon="21.60642">
        <ele>58.892761</ele>
        <time>2020-09-26T11:31:47.899Z</time>
      </trkpt>
      <trkpt lat="65.4311" lon="21.60619">
        <ele>58.742812</ele>
        <time>2020-09-26T11:31:49.939Z</time>
      </trkpt>
      <trkpt lat="65.4311" lon="21.60594">
        <ele>58.585185</ele>
        <time>2020-09-26T11:31:51.919Z</time>
      </trkpt>
      <trkpt lat="65.4311" lon="21.60569">
        <ele>58.426126</ele>
        <time>2020-09-26T11:31:53.890Z</time>
      </trkpt>
      <trkpt lat="65.43109" lon="21.60543">
        <ele>58.258144</ele>
        <time>2020-09-26T11:31:55.900Z</time>
      </trkpt>
      <trkpt lat="65.43109" lon="21.60516">
        <ele>58.086975</ele>
        <time>2020-09-26T11:31:57.897Z</time>
      </trkpt>
      <trkpt lat="65.43108" lon="21.60488">
        <ele>57.906245</ele>
        <time>2020-09-26T11:31:59.898Z</time>
      </trkpt>
      <trkpt lat="65.43108" lon="21.60459">
        <ele>57.72169</ele>
        <time>2020-09-26T11:32:01.905Z</time>
      </trkpt>
      <trkpt lat="65.43107" lon="21.6043">
        <ele>57.520099</ele>
        <time>2020-09-26T11:32:03.918Z</time>
      </trkpt>
      <trkpt lat="65.43106" lon="21.604">
        <ele>57.073672</ele>
        <time>2020-09-26T11:32:05.923Z</time>
      </trkpt>
      <trkpt lat="65.43106" lon="21.60369">
        <ele>56.607947</ele>
        <time>2020-09-26T11:32:07.919Z</time>
      </trkpt>
      <trkpt lat="65.43105" lon="21.60337">
        <ele>56.129001</ele>
        <time>2020-09-26T11:32:09.944Z</time>
      </trkpt>
      <trkpt lat="65.43105" lon="21.60305">
        <ele>55.643935</ele>
        <time>2020-09-26T11:32:11.913Z</time>
      </trkpt>
      <trkpt lat="65.43105" lon="21.60272">
        <ele>55.142488</ele>
        <time>2020-09-26T11:32:13.924Z</time>
      </trkpt>
      <trkpt lat="65.43104" lon="21.60238">
        <ele>54.639542</ele>
        <time>2020-09-26T11:32:15.912Z</time>
      </trkpt>
      <trkpt lat="65.43104" lon="21.60204">
        <ele>54.123283</ele>
        <time>2020-09-26T11:32:17.907Z</time>
      </trkpt>
      <trkpt lat="65.43104" lon="21.60169">
        <ele>53.607037</ele>
        <time>2020-09-26T11:32:19.897Z</time>
      </trkpt>
      <trkpt lat="65.43104" lon="21.60134">
        <ele>53.075478</ele>
        <time>2020-09-26T11:32:21.890Z</time>
      </trkpt>
      <trkpt lat="65.43103" lon="21.60098">
        <ele>52.52911</ele>
        <time>2020-09-26T11:32:23.922Z</time>
      </trkpt>
      <trkpt lat="65.43103" lon="21.60061">
        <ele>51.976847</ele>
        <time>2020-09-26T11:32:25.906Z</time>
      </trkpt>
      <trkpt lat="65.43103" lon="21.60023">
        <ele>51.412531</ele>
        <time>2020-09-26T11:32:27.915Z</time>
      </trkpt>
      <trkpt lat="65.43102" lon="21.59985">
        <ele>50.80263</ele>
        <time>2020-09-26T11:32:29.937Z</time>
      </trkpt>
      <trkpt lat="65.43102" lon="21.59946">
        <ele>50.139837</ele>
        <time>2020-09-26T11:32:31.936Z</time>
      </trkpt>
      <trkpt lat="65.43101" lon="21.59907">
        <ele>49.473859</ele>
        <time>2020-09-26T11:32:33.937Z</time>
      </trkpt>
      <trkpt lat="65.431" lon="21.59866">
        <ele>48.78875</ele>
        <time>2020-09-26T11:32:35.892Z</time>
      </trkpt>
      <trkpt lat="65.43099" lon="21.59827">
        <ele>48.110434</ele>
        <time>2020-09-26T11:32:37.916Z</time>
      </trkpt>
      <trkpt lat="65.43098" lon="21.59786">
        <ele>47.427255</ele>
        <time>2020-09-26T11:32:39.906Z</time>
      </trkpt>
      <trkpt lat="65.43097" lon="21.59746">
        <ele>46.745775</ele>
        <time>2020-09-26T11:32:41.924Z</time>
      </trkpt>
      <trkpt lat="65.43096" lon="21.59706">
        <ele>46.062106</ele>
        <time>2020-09-26T11:32:43.959Z</time>
      </trkpt>
      <trkpt lat="65.43094" lon="21.59666">
        <ele>45.378859</ele>
        <time>2020-09-26T11:32:45.914Z</time>
      </trkpt>
      <trkpt lat="65.43093" lon="21.59626">
        <ele>44.68256</ele>
        <time>2020-09-26T11:32:47.906Z</time>
      </trkpt>
      <trkpt lat="65.43091" lon="21.59586">
        <ele>44.008247</ele>
        <time>2020-09-26T11:32:49.891Z</time>
      </trkpt>
      <trkpt lat="65.43089" lon="21.59547">
        <ele>43.428863</ele>
        <time>2020-09-26T11:32:51.985Z</time>
      </trkpt>
      <trkpt lat="65.43087" lon="21.59508">
        <ele>42.929889</ele>
        <time>2020-09-26T11:32:53.928Z</time>
      </trkpt>
      <trkpt lat="65.43085" lon="21.59469">
        <ele>42.428228</ele>
        <time>2020-09-26T11:32:55.919Z</time>
      </trkpt>
      <trkpt lat="65.43083" lon="21.59431">
        <ele>41.93373</ele>
        <time>2020-09-26T11:32:57.896Z</time>
      </trkpt>
      <trkpt lat="65.4308" lon="21.59392">
        <ele>41.438361</ele>
        <time>2020-09-26T11:32:59.904Z</time>
      </trkpt>
      <trkpt lat="65.43077" lon="21.59353">
        <ele>40.939776</ele>
        <time>2020-09-26T11:33:01.894Z</time>
      </trkpt>
      <trkpt lat="65.43075" lon="21.59314">
        <ele>40.436399</ele>
        <time>2020-09-26T11:33:03.902Z</time>
      </trkpt>
      <trkpt lat="65.43072" lon="21.59275">
        <ele>39.933021</ele>
        <time>2020-09-26T11:33:05.919Z</time>
      </trkpt>
      <trkpt lat="65.4307" lon="21.59236">
        <ele>39.426384</ele>
        <time>2020-09-26T11:33:07.940Z</time>
      </trkpt>
      <trkpt lat="65.43066" lon="21.59197">
        <ele>38.917389</ele>
        <time>2020-09-26T11:33:09.917Z</time>
      </trkpt>
      <trkpt lat="65.43063" lon="21.59158">
        <ele>38.413393</ele>
        <time>2020-09-26T11:33:11.895Z</time>
      </trkpt>
      <trkpt lat="65.4306" lon="21.59119">
        <ele>37.944751</ele>
        <time>2020-09-26T11:33:13.898Z</time>
      </trkpt>
      <trkpt lat="65.43057" lon="21.59081">
        <ele>37.506524</ele>
        <time>2020-09-26T11:33:15.895Z</time>
      </trkpt>
      <trkpt lat="65.43053" lon="21.59043">
        <ele>37.075439</ele>
        <time>2020-09-26T11:33:17.899Z</time>
      </trkpt>
      <trkpt lat="65.4305" lon="21.59006">
        <ele>36.647542</ele>
        <time>2020-09-26T11:33:19.902Z</time>
      </trkpt>
      <trkpt lat="65.43046" lon="21.5897">
        <ele>36.22849</ele>
        <time>2020-09-26T11:33:21.932Z</time>
      </trkpt>
      <trkpt lat="65.43042" lon="21.58934">
        <ele>35.813468</ele>
        <time>2020-09-26T11:33:23.907Z</time>
      </trkpt>
      <trkpt lat="65.43039" lon="21.58899">
        <ele>35.409536</ele>
        <time>2020-09-26T11:33:25.898Z</time>
      </trkpt>
      <trkpt lat="65.43035" lon="21.58864">
        <ele>35.003587</ele>
        <time>2020-09-26T11:33:27.915Z</time>
      </trkpt>
      <trkpt lat="65.43031" lon="21.5883">
        <ele>34.614181</ele>
        <time>2020-09-26T11:33:29.927Z</time>
      </trkpt>
      <trkpt lat="65.43027" lon="21.58797">
        <ele>34.233431</ele>
        <time>2020-09-26T11:33:31.920Z</time>
      </trkpt>
      <trkpt lat="65.43023" lon="21.58765">
        <ele>33.856669</ele>
        <time>2020-09-26T11:33:33.899Z</time>
      </trkpt>
      <trkpt lat="65.43019" lon="21.58734">
        <ele>33.484169</ele>
        <time>2020-09-26T11:33:35.895Z</time>
      </trkpt>
      <trkpt lat="65.43015" lon="21.58703">
        <ele>33.193331</ele>
        <time>2020-09-26T11:33:37.939Z</time>
      </trkpt>
      <trkpt lat="65.43011" lon="21.58672">
        <ele>32.936053</ele>
        <time>2020-09-26T11:33:39.897Z</time>
      </trkpt>
      <trkpt lat="65.43007" lon="21.58641">
        <ele>32.676519</ele>
        <time>2020-09-26T11:33:41.886Z</time>
      </trkpt>
      <trkpt lat="65.43002" lon="21.5861">
        <ele>32.421807</ele>
        <time>2020-09-26T11:33:43.904Z</time>
      </trkpt>
      <trkpt lat="65.42998" lon="21.58579">
        <ele>32.161698</ele>
        <time>2020-09-26T11:33:45.894Z</time>
      </trkpt>
      <trkpt lat="65.42994" lon="21.58548">
        <ele>31.903478</ele>
        <time>2020-09-26T11:33:47.905Z</time>
      </trkpt>
      <trkpt lat="65.4299" lon="21.58517">
        <ele>31.649954</ele>
        <time>2020-09-26T11:33:49.915Z</time>
      </trkpt>
      <trkpt lat="65.42986" lon="21.58487">
        <ele>31.398836</ele>
        <time>2020-09-26T11:33:51.938Z</time>
      </trkpt>
      <trkpt lat="65.42981" lon="21.58457">
        <ele>31.149562</ele>
        <time>2020-09-26T11:33:53.907Z</time>
      </trkpt>
      <trkpt lat="65.42977" lon="21.58428">
        <ele>30.902417</ele>
        <time>2020-09-26T11:33:55.916Z</time>
      </trkpt>
      <trkpt lat="65.42973" lon="21.58397">
        <ele>30.650177</ele>
        <time>2020-09-26T11:33:57.902Z</time>
      </trkpt>
      <trkpt lat="65.42968" lon="21.58368">
        <ele>30.400902</ele>
        <time>2020-09-26T11:33:59.934Z</time>
      </trkpt>
      <trkpt lat="65.42964" lon="21.58338">
        <ele>30.14992</ele>
        <time>2020-09-26T11:34:01.906Z</time>
      </trkpt>
      <trkpt lat="65.4296" lon="21.58307">
        <ele>29.935167</ele>
        <time>2020-09-26T11:34:03.890Z</time>
      </trkpt>
      <trkpt lat="65.42956" lon="21.58279">
        <ele>29.91713</ele>
        <time>2020-09-26T11:34:05.915Z</time>
      </trkpt>
      <trkpt lat="65.42952" lon="21.5825">
        <ele>29.899348</ele>
        <time>2020-09-26T11:34:07.926Z</time>
      </trkpt>
      <trkpt lat="65.42948" lon="21.58222">
        <ele>29.881829</ele>
        <time>2020-09-26T11:34:09.900Z</time>
      </trkpt>
      <trkpt lat="65.42943" lon="21.58195">
        <ele>29.864174</ele>
        <time>2020-09-26T11:34:11.900Z</time>
      </trkpt>
      <trkpt lat="65.42939" lon="21.58167">
        <ele>29.846622</ele>
        <time>2020-09-26T11:34:13.915Z</time>
      </trkpt>
      <trkpt lat="65.42934" lon="21.58141">
        <ele>29.829734</ele>
        <time>2020-09-26T11:34:15.907Z</time>
      </trkpt>
      <trkpt lat="65.4293" lon="21.58114">
        <ele>29.812574</ele>
        <time>2020-09-26T11:34:17.900Z</time>
      </trkpt>
      <trkpt lat="65.42926" lon="21.58086">
        <ele>29.794966</ele>
        <time>2020-09-26T11:34:19.888Z</time>
      </trkpt>
      <trkpt lat="65.42921" lon="21.58058">
        <ele>29.777145</ele>
        <time>2020-09-26T11:34:21.908Z</time>
      </trkpt>
      <trkpt lat="65.42916" lon="21.5803">
        <ele>29.759111</ele>
        <time>2020-09-26T11:34:23.913Z</time>
      </trkpt>
      <trkpt lat="65.42911" lon="21.58002">
        <ele>29.741186</ele>
        <time>2020-09-26T11:34:25.892Z</time>
      </trkpt>
      <trkpt lat="65.42906" lon="21.57974">
        <ele>29.722863</ele>
        <time>2020-09-26T11:34:27.927Z</time>
      </trkpt>
      <trkpt lat="65.42901" lon="21.57946">
        <ele>29.704829</ele>
        <time>2020-09-26T11:34:29.903Z</time>
      </trkpt>
      <trkpt lat="65.42896" lon="21.57918">
        <ele>29.686606</ele>
        <time>2020-09-26T11:34:31.917Z</time>
      </trkpt>
      <trkpt lat="65.42891" lon="21.5789">
        <ele>29.635821</ele>
        <time>2020-09-26T11:34:33.914Z</time>
      </trkpt>
      <trkpt lat="65.42886" lon="21.57862">
        <ele>29.570593</ele>
        <time>2020-09-26T11:34:35.951Z</time>
      </trkpt>
      <trkpt lat="65.42881" lon="21.57833">
        <ele>29.504576</ele>
        <time>2020-09-26T11:34:37.921Z</time>
      </trkpt>
      <trkpt lat="65.42877" lon="21.57804">
        <ele>29.439739</ele>
        <time>2020-09-26T11:34:39.902Z</time>
      </trkpt>
      <trkpt lat="65.42872" lon="21.57776">
        <ele>29.374686</ele>
        <time>2020-09-26T11:34:41.915Z</time>
      </trkpt>
      <trkpt lat="65.42866" lon="21.57746">
        <ele>29.305328</ele>
        <time>2020-09-26T11:34:43.910Z</time>
      </trkpt>
      <trkpt lat="65.42861" lon="21.57717">
        <ele>29.237944</ele>
        <time>2020-09-26T11:34:45.900Z</time>
      </trkpt>
      <trkpt lat="65.42856" lon="21.57687">
        <ele>29.169771</ele>
        <time>2020-09-26T11:34:47.913Z</time>
      </trkpt>
      <trkpt lat="65.42851" lon="21.57658">
        <ele>29.102377</ele>
        <time>2020-09-26T11:34:49.926Z</time>
      </trkpt>
      <trkpt lat="65.42846" lon="21.57629">
        <ele>29.034398</ele>
        <time>2020-09-26T11:34:51.919Z</time>
      </trkpt>
      <trkpt lat="65.4284" lon="21.57599">
        <ele>28.965244</ele>
        <time>2020-09-26T11:34:53.907Z</time>
      </trkpt>
      <trkpt lat="65.42835" lon="21.57569">
        <ele>28.896089</ele>
        <time>2020-09-26T11:34:55.887Z</time>
      </trkpt>
      <trkpt lat="65.42829" lon="21.57539">
        <ele>28.826522</ele>
        <time>2020-09-26T11:34:57.898Z</time>
      </trkpt>
      <trkpt lat="65.42824" lon="21.5751">
        <ele>28.752558</ele>
        <time>2020-09-26T11:34:59.912Z</time>
      </trkpt>
      <trkpt lat="65.42818" lon="21.57481">
        <ele>28.607876</ele>
        <time>2020-09-26T11:35:01.909Z</time>
      </trkpt>
      <trkpt lat="65.42812" lon="21.57452">
        <ele>28.463249</ele>
        <time>2020-09-26T11:35:03.903Z</time>
      </trkpt>
      <trkpt lat="65.42806" lon="21.57423">
        <ele>28.316452</ele>
        <time>2020-09-26T11:35:05.897Z</time>
      </trkpt>
      <trkpt lat="65.42801" lon="21.57394">
        <ele>28.169588</ele>
        <time>2020-09-26T11:35:07.906Z</time>
      </trkpt>
      <trkpt lat="65.42795" lon="21.57365">
        <ele>28.024082</ele>
        <time>2020-09-26T11:35:09.899Z</time>
      </trkpt>
      <trkpt lat="65.42789" lon="21.57337">
        <ele>27.881448</ele>
        <time>2020-09-26T11:35:11.949Z</time>
      </trkpt>
      <trkpt lat="65.42784" lon="21.57309">
        <ele>27.739287</ele>
        <time>2020-09-26T11:35:13.937Z</time>
      </trkpt>
      <trkpt lat="65.42778" lon="21.5728">
        <ele>27.594946</ele>
        <time>2020-09-26T11:35:15.910Z</time>
      </trkpt>
      <trkpt lat="65.42772" lon="21.57251">
        <ele>27.449905</ele>
        <time>2020-09-26T11:35:17.899Z</time>
      </trkpt>
      <trkpt lat="65.42767" lon="21.57223">
        <ele>27.308343</ele>
        <time>2020-09-26T11:35:19.901Z</time>
      </trkpt>
      <trkpt lat="65.42766" lon="21.57194">
        <ele>27.177464</ele>
        <time>2020-09-26T11:35:21.906Z</time>
      </trkpt>
      <trkpt lat="65.4277" lon="21.57166">
        <ele>27.041298</ele>
        <time>2020-09-26T11:35:23.925Z</time>
      </trkpt>
      <trkpt lat="65.42778" lon="21.5714">
        <ele>26.896353</ele>
        <time>2020-09-26T11:35:25.900Z</time>
      </trkpt>
      <trkpt lat="65.42785" lon="21.57115">
        <ele>26.871583</ele>
        <time>2020-09-26T11:35:27.907Z</time>
      </trkpt>
      <trkpt lat="65.42791" lon="21.57091">
        <ele>27.132919</ele>
        <time>2020-09-26T11:35:29.928Z</time>
      </trkpt>
      <trkpt lat="65.42796" lon="21.57066">
        <ele>27.376367</ele>
        <time>2020-09-26T11:35:31.911Z</time>
      </trkpt>
      <trkpt lat="65.428" lon="21.57042">
        <ele>27.608338</ele>
        <time>2020-09-26T11:35:33.910Z</time>
      </trkpt>
      <trkpt lat="65.42802" lon="21.57018">
        <ele>27.829622</ele>
        <time>2020-09-26T11:35:35.896Z</time>
      </trkpt>
      <trkpt lat="65.42805" lon="21.56995">
        <ele>28.041851</ele>
        <time>2020-09-26T11:35:37.915Z</time>
      </trkpt>
      <trkpt lat="65.42807" lon="21.56973">
        <ele>28.250982</ele>
        <time>2020-09-26T11:35:39.894Z</time>
      </trkpt>
      <trkpt lat="65.4281" lon="21.56951">
        <ele>28.452603</ele>
        <time>2020-09-26T11:35:41.893Z</time>
      </trkpt>
      <trkpt lat="65.42812" lon="21.56929">
        <ele>28.65511</ele>
        <time>2020-09-26T11:35:43.905Z</time>
      </trkpt>
      <trkpt lat="65.42814" lon="21.56906">
        <ele>28.86465</ele>
        <time>2020-09-26T11:35:45.903Z</time>
      </trkpt>
      <trkpt lat="65.42815" lon="21.56883">
        <ele>29.074224</ele>
        <time>2020-09-26T11:35:47.904Z</time>
      </trkpt>
      <trkpt lat="65.42817" lon="21.56861">
        <ele>29.282885</ele>
        <time>2020-09-26T11:35:49.894Z</time>
      </trkpt>
      <trkpt lat="65.42819" lon="21.56838">
        <ele>29.487582</ele>
        <time>2020-09-26T11:35:51.913Z</time>
      </trkpt>
      <trkpt lat="65.42821" lon="21.56816">
        <ele>29.691608</ele>
        <time>2020-09-26T11:35:53.898Z</time>
      </trkpt>
      <trkpt lat="65.42823" lon="21.56793">
        <ele>29.899961</ele>
        <time>2020-09-26T11:35:55.886Z</time>
      </trkpt>
      <trkpt lat="65.42825" lon="21.56772">
        <ele>30.099832</ele>
        <time>2020-09-26T11:35:57.900Z</time>
      </trkpt>
      <trkpt lat="65.42827" lon="21.5675">
        <ele>30.303687</ele>
        <time>2020-09-26T11:35:59.901Z</time>
      </trkpt>
      <trkpt lat="65.42829" lon="21.56727">
        <ele>30.512377</ele>
        <time>2020-09-26T11:36:01.910Z</time>
      </trkpt>
      <trkpt lat="65.42831" lon="21.56704">
        <ele>30.72251</ele>
        <time>2020-09-26T11:36:03.898Z</time>
      </trkpt>
      <trkpt lat="65.42833" lon="21.56682">
        <ele>30.910958</ele>
        <time>2020-09-26T11:36:05.918Z</time>
      </trkpt>
      <trkpt lat="65.42834" lon="21.56659">
        <ele>31.102267</ele>
        <time>2020-09-26T11:36:07.910Z</time>
      </trkpt>
      <trkpt lat="65.42836" lon="21.56638">
        <ele>31.286209</ele>
        <time>2020-09-26T11:36:09.900Z</time>
      </trkpt>
      <trkpt lat="65.4284" lon="21.56608">
        <ele>31.546294</ele>
        <time>2020-09-26T11:36:12.906Z</time>
      </trkpt>
      <trkpt lat="65.42844" lon="21.5658">
        <ele>31.799345</ele>
        <time>2020-09-26T11:36:15.896Z</time>
      </trkpt>
      <trkpt lat="65.42847" lon="21.56553">
        <ele>32.031097</ele>
        <time>2020-09-26T11:36:18.907Z</time>
      </trkpt>
      <trkpt lat="65.4285" lon="21.5653">
        <ele>32.236969</ele>
        <time>2020-09-26T11:36:21.888Z</time>
      </trkpt>
      <trkpt lat="65.42852" lon="21.56507">
        <ele>32.433406</ele>
        <time>2020-09-26T11:36:24.896Z</time>
      </trkpt>
      <trkpt lat="65.42855" lon="21.56482">
        <ele>32.652537</ele>
        <time>2020-09-26T11:36:27.896Z</time>
      </trkpt>
      <trkpt lat="65.42858" lon="21.56456">
        <ele>32.878869</ele>
        <time>2020-09-26T11:36:30.895Z</time>
      </trkpt>
      <trkpt lat="65.4286" lon="21.56429">
        <ele>33.111023</ele>
        <time>2020-09-26T11:36:33.904Z</time>
      </trkpt>
      <trkpt lat="65.42862" lon="21.56403">
        <ele>33.331205</ele>
        <time>2020-09-26T11:36:36.915Z</time>
      </trkpt>
      <trkpt lat="65.42865" lon="21.56377">
        <ele>33.55689</ele>
        <time>2020-09-26T11:36:39.906Z</time>
      </trkpt>
      <trkpt lat="65.42867" lon="21.56351">
        <ele>33.783269</ele>
        <time>2020-09-26T11:36:42.903Z</time>
      </trkpt>
      <trkpt lat="65.4287" lon="21.56323">
        <ele>34.026918</ele>
        <time>2020-09-26T11:36:45.917Z</time>
      </trkpt>
      <trkpt lat="65.42872" lon="21.56294">
        <ele>34.270978</ele>
        <time>2020-09-26T11:36:48.899Z</time>
      </trkpt>
      <trkpt lat="65.42875" lon="21.56268">
        <ele>34.63558</ele>
        <time>2020-09-26T11:36:51.913Z</time>
      </trkpt>
      <trkpt lat="65.42878" lon="21.56242">
        <ele>35.020771</ele>
        <time>2020-09-26T11:36:54.907Z</time>
      </trkpt>
      <trkpt lat="65.42881" lon="21.56216">
        <ele>35.41201</ele>
        <time>2020-09-26T11:36:57.904Z</time>
      </trkpt>
      <trkpt lat="65.42884" lon="21.56191">
        <ele>35.800438</ele>
        <time>2020-09-26T11:37:00.895Z</time>
      </trkpt>
      <trkpt lat="65.42887" lon="21.56165">
        <ele>36.185606</ele>
        <time>2020-09-26T11:37:03.982Z</time>
      </trkpt>
      <trkpt lat="65.42889" lon="21.56142">
        <ele>36.538816</ele>
        <time>2020-09-26T11:37:06.893Z</time>
      </trkpt>
      <trkpt lat="65.42891" lon="21.56119">
        <ele>36.872683</ele>
        <time>2020-09-26T11:37:09.894Z</time>
      </trkpt>
      <trkpt lat="65.42893" lon="21.56093">
        <ele>37.261936</ele>
        <time>2020-09-26T11:37:13.906Z</time>
      </trkpt>
      <trkpt lat="65.42895" lon="21.56067">
        <ele>37.643986</ele>
        <time>2020-09-26T11:37:17.915Z</time>
      </trkpt>
      <trkpt lat="65.42897" lon="21.56042">
        <ele>38.018601</ele>
        <time>2020-09-26T11:37:21.902Z</time>
      </trkpt>
      <trkpt lat="65.42898" lon="21.56018">
        <ele>38.378314</ele>
        <time>2020-09-26T11:37:25.928Z</time>
      </trkpt>
      <trkpt lat="65.429" lon="21.55993">
        <ele>38.746589</ele>
        <time>2020-09-26T11:37:29.919Z</time>
      </trkpt>
      <trkpt lat="65.42903" lon="21.55969">
        <ele>39.111967</ele>
        <time>2020-09-26T11:37:33.902Z</time>
      </trkpt>
      <trkpt lat="65.42905" lon="21.55943">
        <ele>39.493421</ele>
        <time>2020-09-26T11:37:37.902Z</time>
      </trkpt>
      <trkpt lat="65.42908" lon="21.55918">
        <ele>39.874481</ele>
        <time>2020-09-26T11:37:41.897Z</time>
      </trkpt>
      <trkpt lat="65.4291" lon="21.55892">
        <ele>40.262681</ele>
        <time>2020-09-26T11:37:45.923Z</time>
      </trkpt>
      <trkpt lat="65.42913" lon="21.55866">
        <ele>40.644596</ele>
        <time>2020-09-26T11:37:49.900Z</time>
      </trkpt>
      <trkpt lat="65.42915" lon="21.55839">
        <ele>40.592292</ele>
        <time>2020-09-26T11:37:53.935Z</time>
      </trkpt>
      <trkpt lat="65.42917" lon="21.55816">
        <ele>40.549411</ele>
        <time>2020-09-26T11:37:56.917Z</time>
      </trkpt>
      <trkpt lat="65.4292" lon="21.55792">
        <ele>40.501654</ele>
        <time>2020-09-26T11:37:59.937Z</time>
      </trkpt>
      <trkpt lat="65.42922" lon="21.55764">
        <ele>40.448593</ele>
        <time>2020-09-26T11:38:02.914Z</time>
      </trkpt>
      <trkpt lat="65.42925" lon="21.55733">
        <ele>40.390621</ele>
        <time>2020-09-26T11:38:05.912Z</time>
      </trkpt>
      <trkpt lat="65.42928" lon="21.55702">
        <ele>40.329695</ele>
        <time>2020-09-26T11:38:08.899Z</time>
      </trkpt>
      <trkpt lat="65.4293" lon="21.55679">
        <ele>40.286526</ele>
        <time>2020-09-26T11:38:10.916Z</time>
      </trkpt>
      <trkpt lat="65.42932" lon="21.55655">
        <ele>40.241085</ele>
        <time>2020-09-26T11:38:12.891Z</time>
      </trkpt>
      <trkpt lat="65.42935" lon="21.55631">
        <ele>40.194073</ele>
        <time>2020-09-26T11:38:14.948Z</time>
      </trkpt>
      <trkpt lat="65.42938" lon="21.55605">
        <ele>40.144815</ele>
        <time>2020-09-26T11:38:16.902Z</time>
      </trkpt>
      <trkpt lat="65.4294" lon="21.55578">
        <ele>40.092334</ele>
        <time>2020-09-26T11:38:18.911Z</time>
      </trkpt>
      <trkpt lat="65.42942" lon="21.55551">
        <ele>40.040561</ele>
        <time>2020-09-26T11:38:20.908Z</time>
      </trkpt>
      <trkpt lat="65.42944" lon="21.55524">
        <ele>39.988903</ele>
        <time>2020-09-26T11:38:22.908Z</time>
      </trkpt>
      <trkpt lat="65.42947" lon="21.55497">
        <ele>39.93856</ele>
        <time>2020-09-26T11:38:24.908Z</time>
      </trkpt>
      <trkpt lat="65.4295" lon="21.55471">
        <ele>39.888328</ele>
        <time>2020-09-26T11:38:26.896Z</time>
      </trkpt>
      <trkpt lat="65.42952" lon="21.55446">
        <ele>39.83941</ele>
        <time>2020-09-26T11:38:28.903Z</time>
      </trkpt>
      <trkpt lat="65.42954" lon="21.5542">
        <ele>39.630749</ele>
        <time>2020-09-26T11:38:30.931Z</time>
      </trkpt>
      <trkpt lat="65.42956" lon="21.55395">
        <ele>39.417095</ele>
        <time>2020-09-26T11:38:32.895Z</time>
      </trkpt>
      <trkpt lat="65.42958" lon="21.55369">
        <ele>39.194897</ele>
        <time>2020-09-26T11:38:34.926Z</time>
      </trkpt>
      <trkpt lat="65.42961" lon="21.55343">
        <ele>38.976636</ele>
        <time>2020-09-26T11:38:36.928Z</time>
      </trkpt>
      <trkpt lat="65.42963" lon="21.55319">
        <ele>38.767732</ele>
        <time>2020-09-26T11:38:38.899Z</time>
      </trkpt>
      <trkpt lat="65.42966" lon="21.55294">
        <ele>38.55606</ele>
        <time>2020-09-26T11:38:40.900Z</time>
      </trkpt>
      <trkpt lat="65.42967" lon="21.5527">
        <ele>38.354</ele>
        <time>2020-09-26T11:38:42.890Z</time>
      </trkpt>
      <trkpt lat="65.42969" lon="21.55246">
        <ele>38.147262</ele>
        <time>2020-09-26T11:38:44.905Z</time>
      </trkpt>
      <trkpt lat="65.42972" lon="21.55222">
        <ele>37.945913</ele>
        <time>2020-09-26T11:38:46.920Z</time>
      </trkpt>
      <trkpt lat="65.42975" lon="21.55198">
        <ele>37.740031</ele>
        <time>2020-09-26T11:38:48.907Z</time>
      </trkpt>
      <trkpt lat="65.42977" lon="21.55174">
        <ele>37.530135</ele>
        <time>2020-09-26T11:38:50.904Z</time>
      </trkpt>
      <trkpt lat="65.4298" lon="21.5515">
        <ele>37.319717</ele>
        <time>2020-09-26T11:38:52.897Z</time>
      </trkpt>
      <trkpt lat="65.42984" lon="21.55127">
        <ele>37.117457</ele>
        <time>2020-09-26T11:38:54.932Z</time>
      </trkpt>
      <trkpt lat="65.42987" lon="21.55102">
        <ele>36.899413</ele>
        <time>2020-09-26T11:38:56.918Z</time>
      </trkpt>
      <trkpt lat="65.4299" lon="21.55077">
        <ele>36.679481</ele>
        <time>2020-09-26T11:38:58.888Z</time>
      </trkpt>
      <trkpt lat="65.42994" lon="21.55052">
        <ele>36.462885</ele>
        <time>2020-09-26T11:39:00.914Z</time>
      </trkpt>
      <trkpt lat="65.42999" lon="21.55028">
        <ele>36.241754</ele>
        <time>2020-09-26T11:39:02.900Z</time>
      </trkpt>
      <trkpt lat="65.43004" lon="21.55002">
        <ele>35.863382</ele>
        <time>2020-09-26T11:39:04.924Z</time>
      </trkpt>
      <trkpt lat="65.43009" lon="21.54975">
        <ele>35.470121</ele>
        <time>2020-09-26T11:39:06.908Z</time>
      </trkpt>
      <trkpt lat="65.43015" lon="21.54947">
        <ele>35.05408</ele>
        <time>2020-09-26T11:39:08.912Z</time>
      </trkpt>
      <trkpt lat="65.43021" lon="21.54919">
        <ele>34.648906</ele>
        <time>2020-09-26T11:39:10.921Z</time>
      </trkpt>
      <trkpt lat="65.43027" lon="21.54891">
        <ele>34.217605</ele>
        <time>2020-09-26T11:39:12.912Z</time>
      </trkpt>
      <trkpt lat="65.43034" lon="21.54862">
        <ele>33.775674</ele>
        <time>2020-09-26T11:39:14.940Z</time>
      </trkpt>
      <trkpt lat="65.43041" lon="21.54833">
        <ele>33.337088</ele>
        <time>2020-09-26T11:39:16.903Z</time>
      </trkpt>
      <trkpt lat="65.43047" lon="21.54804">
        <ele>32.914899</ele>
        <time>2020-09-26T11:39:18.896Z</time>
      </trkpt>
      <trkpt lat="65.43052" lon="21.54775">
        <ele>32.487024</ele>
        <time>2020-09-26T11:39:20.936Z</time>
      </trkpt>
      <trkpt lat="65.43058" lon="21.54745">
        <ele>32.05747</ele>
        <time>2020-09-26T11:39:22.907Z</time>
      </trkpt>
      <trkpt lat="65.43062" lon="21.54716">
        <ele>31.648496</ele>
        <time>2020-09-26T11:39:24.897Z</time>
      </trkpt>
      <trkpt lat="65.43066" lon="21.54688">
        <ele>31.247635</ele>
        <time>2020-09-26T11:39:26.905Z</time>
      </trkpt>
      <trkpt lat="65.4307" lon="21.54659">
        <ele>30.851089</ele>
        <time>2020-09-26T11:39:28.932Z</time>
      </trkpt>
      <trkpt lat="65.43073" lon="21.5463">
        <ele>30.471255</ele>
        <time>2020-09-26T11:39:30.896Z</time>
      </trkpt>
      <trkpt lat="65.43074" lon="21.54602">
        <ele>30.110229</ele>
        <time>2020-09-26T11:39:32.916Z</time>
      </trkpt>
      <trkpt lat="65.43075" lon="21.54573">
        <ele>29.748406</ele>
        <time>2020-09-26T11:39:34.920Z</time>
      </trkpt>
      <trkpt lat="65.43075" lon="21.54544">
        <ele>29.386793</ele>
        <time>2020-09-26T11:39:36.917Z</time>
      </trkpt>
      <trkpt lat="65.43076" lon="21.54515">
        <ele>29.031147</ele>
        <time>2020-09-26T11:39:38.903Z</time>
      </trkpt>
      <trkpt lat="65.43076" lon="21.54488">
        <ele>28.684545</ele>
        <time>2020-09-26T11:39:40.924Z</time>
      </trkpt>
      <trkpt lat="65.43075" lon="21.5446">
        <ele>28.344947</ele>
        <time>2020-09-26T11:39:42.917Z</time>
      </trkpt>
      <trkpt lat="65.43074" lon="21.54434">
        <ele>28.018489</ele>
        <time>2020-09-26T11:39:44.908Z</time>
      </trkpt>
      <trkpt lat="65.43072" lon="21.5441">
        <ele>27.702943</ele>
        <time>2020-09-26T11:39:46.898Z</time>
      </trkpt>
      <trkpt lat="65.43069" lon="21.54384">
        <ele>27.379937</ele>
        <time>2020-09-26T11:39:48.908Z</time>
      </trkpt>
      <trkpt lat="65.43067" lon="21.5436">
        <ele>27.062991</ele>
        <time>2020-09-26T11:39:50.904Z</time>
      </trkpt>
      <trkpt lat="65.43064" lon="21.54336">
        <ele>26.752583</ele>
        <time>2020-09-26T11:39:52.917Z</time>
      </trkpt>
      <trkpt lat="65.43061" lon="21.54313">
        <ele>26.451135</ele>
        <time>2020-09-26T11:39:54.920Z</time>
      </trkpt>
      <trkpt lat="65.43057" lon="21.54291">
        <ele>26.155255</ele>
        <time>2020-09-26T11:39:56.928Z</time>
      </trkpt>
      <trkpt lat="65.43052" lon="21.5427">
        <ele>25.859321</ele>
        <time>2020-09-26T11:39:58.900Z</time>
      </trkpt>
      <trkpt lat="65.43048" lon="21.54249">
        <ele>25.569196</ele>
        <time>2020-09-26T11:40:00.903Z</time>
      </trkpt>
      <trkpt lat="65.43043" lon="21.54228">
        <ele>25.26745</ele>
        <time>2020-09-26T11:40:02.940Z</time>
      </trkpt>
      <trkpt lat="65.43038" lon="21.54207">
        <ele>25.310526</ele>
        <time>2020-09-26T11:40:05.007Z</time>
      </trkpt>
      <trkpt lat="65.43034" lon="21.54186">
        <ele>25.626511</ele>
        <time>2020-09-26T11:40:06.915Z</time>
      </trkpt>
      <trkpt lat="65.43028" lon="21.54158">
        <ele>26.062201</ele>
        <time>2020-09-26T11:40:09.891Z</time>
      </trkpt>
      <trkpt lat="65.43022" lon="21.54133">
        <ele>26.466933</ele>
        <time>2020-09-26T11:40:12.898Z</time>
      </trkpt>
      <trkpt lat="65.43017" lon="21.54108">
        <ele>26.840126</ele>
        <time>2020-09-26T11:40:15.905Z</time>
      </trkpt>
      <trkpt lat="65.43012" lon="21.54087">
        <ele>27.185447</ele>
        <time>2020-09-26T11:40:18.918Z</time>
      </trkpt>
      <trkpt lat="65.43007" lon="21.54066">
        <ele>27.509917</ele>
        <time>2020-09-26T11:40:21.892Z</time>
      </trkpt>
      <trkpt lat="65.43003" lon="21.54045">
        <ele>27.827143</ele>
        <time>2020-09-26T11:40:24.901Z</time>
      </trkpt>
      <trkpt lat="65.42998" lon="21.54024">
        <ele>28.161202</ele>
        <time>2020-09-26T11:40:27.902Z</time>
      </trkpt>
      <trkpt lat="65.42993" lon="21.54005">
        <ele>28.462821</ele>
        <time>2020-09-26T11:40:30.922Z</time>
      </trkpt>
      <trkpt lat="65.42988" lon="21.5398">
        <ele>28.854299</ele>
        <time>2020-09-26T11:40:34.913Z</time>
      </trkpt>
      <trkpt lat="65.42982" lon="21.53957">
        <ele>29.224253</ele>
        <time>2020-09-26T11:40:38.928Z</time>
      </trkpt>
      <trkpt lat="65.42977" lon="21.53934">
        <ele>29.592459</ele>
        <time>2020-09-26T11:40:42.899Z</time>
      </trkpt>
      <trkpt lat="65.42971" lon="21.5391">
        <ele>29.973441</ele>
        <time>2020-09-26T11:40:46.902Z</time>
      </trkpt>
      <trkpt lat="65.42965" lon="21.53888">
        <ele>30.333421</ele>
        <time>2020-09-26T11:40:50.896Z</time>
      </trkpt>
      <trkpt lat="65.42959" lon="21.53865">
        <ele>30.710942</ele>
        <time>2020-09-26T11:40:54.931Z</time>
      </trkpt>
      <trkpt lat="65.42954" lon="21.53841">
        <ele>31.078798</ele>
        <time>2020-09-26T11:40:58.905Z</time>
      </trkpt>
      <trkpt lat="65.42948" lon="21.53819">
        <ele>31.333581</ele>
        <time>2020-09-26T11:41:02.899Z</time>
      </trkpt>
      <trkpt lat="65.42943" lon="21.53798">
        <ele>31.572792</ele>
        <time>2020-09-26T11:41:06.939Z</time>
      </trkpt>
      <trkpt lat="65.42937" lon="21.53779">
        <ele>31.809493</ele>
        <time>2020-09-26T11:41:10.927Z</time>
      </trkpt>
      <trkpt lat="65.42931" lon="21.53761">
        <ele>32.033704</ele>
        <time>2020-09-26T11:41:14.928Z</time>
      </trkpt>
      <trkpt lat="65.42925" lon="21.5374">
        <ele>32.284022</ele>
        <time>2020-09-26T11:41:18.915Z</time>
      </trkpt>
      <trkpt lat="65.42919" lon="21.53722">
        <ele>32.513176</ele>
        <time>2020-09-26T11:41:22.920Z</time>
      </trkpt>
      <trkpt lat="65.42913" lon="21.53702">
        <ele>32.747485</ele>
        <time>2020-09-26T11:41:26.898Z</time>
      </trkpt>
      <trkpt lat="65.42907" lon="21.53681">
        <ele>32.991398</ele>
        <time>2020-09-26T11:41:30.924Z</time>
      </trkpt>
      <trkpt lat="65.42901" lon="21.5366">
        <ele>33.241992</ele>
        <time>2020-09-26T11:41:34.897Z</time>
      </trkpt>
      <trkpt lat="65.42895" lon="21.5364">
        <ele>33.494444</ele>
        <time>2020-09-26T11:41:38.917Z</time>
      </trkpt>
      <trkpt lat="65.42887" lon="21.53619">
        <ele>33.760414</ele>
        <time>2020-09-26T11:41:42.915Z</time>
      </trkpt>
      <trkpt lat="65.4288" lon="21.53597">
        <ele>34.031775</ele>
        <time>2020-09-26T11:41:46.894Z</time>
      </trkpt>
      <trkpt lat="65.42873" lon="21.53575">
        <ele>34.306771</ele>
        <time>2020-09-26T11:41:50.940Z</time>
      </trkpt>
      <trkpt lat="65.42867" lon="21.53558">
        <ele>34.520171</ele>
        <time>2020-09-26T11:41:53.947Z</time>
      </trkpt>
      <trkpt lat="65.42861" lon="21.5354">
        <ele>34.751662</ele>
        <time>2020-09-26T11:41:56.889Z</time>
      </trkpt>
      <trkpt lat="65.42854" lon="21.5352">
        <ele>35.005625</ele>
        <time>2020-09-26T11:41:59.932Z</time>
      </trkpt>
      <trkpt lat="65.42846" lon="21.53499">
        <ele>35.281378</ele>
        <time>2020-09-26T11:42:02.893Z</time>
      </trkpt>
      <trkpt lat="65.42838" lon="21.53478">
        <ele>35.106582</ele>
        <time>2020-09-26T11:42:05.888Z</time>
      </trkpt>
      <trkpt lat="65.42829" lon="21.53457">
        <ele>34.864431</ele>
        <time>2020-09-26T11:42:08.906Z</time>
      </trkpt>
      <trkpt lat="65.42821" lon="21.53437">
        <ele>34.629393</ele>
        <time>2020-09-26T11:42:11.916Z</time>
      </trkpt>
      <trkpt lat="65.42813" lon="21.53417">
        <ele>34.392353</ele>
        <time>2020-09-26T11:42:14.906Z</time>
      </trkpt>
      <trkpt lat="65.42803" lon="21.53395">
        <ele>34.125506</ele>
        <time>2020-09-26T11:42:17.926Z</time>
      </trkpt>
      <trkpt lat="65.42796" lon="21.53379">
        <ele>33.93568</ele>
        <time>2020-09-26T11:42:19.903Z</time>
      </trkpt>
      <trkpt lat="65.42789" lon="21.53364">
        <ele>33.742071</ele>
        <time>2020-09-26T11:42:21.898Z</time>
      </trkpt>
      <trkpt lat="65.42781" lon="21.5335">
        <ele>33.554187</ele>
        <time>2020-09-26T11:42:23.904Z</time>
      </trkpt>
      <trkpt lat="65.42773" lon="21.53334">
        <ele>33.350787</ele>
        <time>2020-09-26T11:42:25.940Z</time>
      </trkpt>
      <trkpt lat="65.42765" lon="21.53318">
        <ele>33.127666</ele>
        <time>2020-09-26T11:42:27.905Z</time>
      </trkpt>
      <trkpt lat="65.42756" lon="21.53302">
        <ele>32.90549</ele>
        <time>2020-09-26T11:42:29.901Z</time>
      </trkpt>
      <trkpt lat="65.42747" lon="21.53285">
        <ele>32.678013</ele>
        <time>2020-09-26T11:42:31.905Z</time>
      </trkpt>
      <trkpt lat="65.42737" lon="21.53268">
        <ele>32.444523</ele>
        <time>2020-09-26T11:42:33.896Z</time>
      </trkpt>
      <trkpt lat="65.42728" lon="21.5325">
        <ele>32.204703</ele>
        <time>2020-09-26T11:42:35.905Z</time>
      </trkpt>
      <trkpt lat="65.42718" lon="21.53232">
        <ele>31.95977</ele>
        <time>2020-09-26T11:42:37.922Z</time>
      </trkpt>
      <trkpt lat="65.42709" lon="21.53213">
        <ele>31.701957</ele>
        <time>2020-09-26T11:42:39.920Z</time>
      </trkpt>
      <trkpt lat="65.42699" lon="21.53194">
        <ele>31.289227</ele>
        <time>2020-09-26T11:42:41.924Z</time>
      </trkpt>
      <trkpt lat="65.42689" lon="21.53175">
        <ele>30.882318</ele>
        <time>2020-09-26T11:42:43.893Z</time>
      </trkpt>
      <trkpt lat="65.42678" lon="21.53157">
        <ele>30.470957</ele>
        <time>2020-09-26T11:42:45.909Z</time>
      </trkpt>
      <trkpt lat="65.42668" lon="21.5314">
        <ele>30.079114</ele>
        <time>2020-09-26T11:42:47.902Z</time>
      </trkpt>
      <trkpt lat="65.42659" lon="21.53123">
        <ele>29.697459</ele>
        <time>2020-09-26T11:42:49.920Z</time>
      </trkpt>
      <trkpt lat="65.4265" lon="21.53107">
        <ele>29.334737</ele>
        <time>2020-09-26T11:42:51.896Z</time>
      </trkpt>
      <trkpt lat="65.4264" lon="21.53088">
        <ele>28.939533</ele>
        <time>2020-09-26T11:42:53.915Z</time>
      </trkpt>
      <trkpt lat="65.4263" lon="21.53068">
        <ele>28.509263</ele>
        <time>2020-09-26T11:42:55.961Z</time>
      </trkpt>
      <trkpt lat="65.42619" lon="21.53049">
        <ele>28.086467</ele>
        <time>2020-09-26T11:42:57.914Z</time>
      </trkpt>
      <trkpt lat="65.42609" lon="21.53028">
        <ele>27.659531</ele>
        <time>2020-09-26T11:42:59.908Z</time>
      </trkpt>
      <trkpt lat="65.42598" lon="21.53008">
        <ele>27.213315</ele>
        <time>2020-09-26T11:43:01.934Z</time>
      </trkpt>
      <trkpt lat="65.42587" lon="21.52989">
        <ele>26.77332</ele>
        <time>2020-09-26T11:43:03.940Z</time>
      </trkpt>
      <trkpt lat="65.42576" lon="21.52971">
        <ele>26.356144</ele>
        <time>2020-09-26T11:43:05.889Z</time>
      </trkpt>
      <trkpt lat="65.42567" lon="21.52952">
        <ele>25.960131</ele>
        <time>2020-09-26T11:43:07.922Z</time>
      </trkpt>
      <trkpt lat="65.42557" lon="21.52934">
        <ele>25.98138</ele>
        <time>2020-09-26T11:43:09.912Z</time>
      </trkpt>
      <trkpt lat="65.42547" lon="21.52916">
        <ele>26.013056</ele>
        <time>2020-09-26T11:43:11.928Z</time>
      </trkpt>
      <trkpt lat="65.42538" lon="21.52899">
        <ele>26.043628</ele>
        <time>2020-09-26T11:43:13.951Z</time>
      </trkpt>
      <trkpt lat="65.42528" lon="21.52882">
        <ele>26.075145</ele>
        <time>2020-09-26T11:43:15.933Z</time>
      </trkpt>
      <trkpt lat="65.42518" lon="21.52864">
        <ele>26.106883</ele>
        <time>2020-09-26T11:43:17.887Z</time>
      </trkpt>
      <trkpt lat="65.42508" lon="21.52847">
        <ele>26.137533</ele>
        <time>2020-09-26T11:43:19.955Z</time>
      </trkpt>
      <trkpt lat="65.425" lon="21.52832">
        <ele>26.165602</ele>
        <time>2020-09-26T11:43:21.907Z</time>
      </trkpt>
      <trkpt lat="65.42491" lon="21.52819">
        <ele>26.191418</ele>
        <time>2020-09-26T11:43:23.927Z</time>
      </trkpt>
      <trkpt lat="65.42484" lon="21.52807">
        <ele>26.215009</ele>
        <time>2020-09-26T11:43:25.917Z</time>
      </trkpt>
      <trkpt lat="65.42474" lon="21.52791">
        <ele>26.245577</ele>
        <time>2020-09-26T11:43:28.901Z</time>
      </trkpt>
      <trkpt lat="65.42465" lon="21.52779">
        <ele>26.271089</ele>
        <time>2020-09-26T11:43:31.946Z</time>
      </trkpt>
      <trkpt lat="65.42457" lon="21.52767">
        <ele>26.29549</ele>
        <time>2020-09-26T11:43:34.912Z</time>
      </trkpt>
      <trkpt lat="65.42449" lon="21.52755">
        <ele>26.321225</ele>
        <time>2020-09-26T11:43:37.916Z</time>
      </trkpt>
      <trkpt lat="65.4244" lon="21.52743">
        <ele>26.347757</ele>
        <time>2020-09-26T11:43:40.885Z</time>
      </trkpt>
      <trkpt lat="65.42431" lon="21.52732">
        <ele>26.373959</ele>
        <time>2020-09-26T11:43:43.920Z</time>
      </trkpt>
      <trkpt lat="65.42422" lon="21.52721">
        <ele>26.399291</ele>
        <time>2020-09-26T11:43:46.919Z</time>
      </trkpt>
      <trkpt lat="65.42413" lon="21.5271">
        <ele>26.48486</ele>
        <time>2020-09-26T11:43:49.922Z</time>
      </trkpt>
      <trkpt lat="65.42404" lon="21.52701">
        <ele>26.65375</ele>
        <time>2020-09-26T11:43:52.904Z</time>
      </trkpt>
      <trkpt lat="65.42394" lon="21.52692">
        <ele>26.833775</ele>
        <time>2020-09-26T11:43:55.896Z</time>
      </trkpt>
      <trkpt lat="65.42383" lon="21.52684">
        <ele>27.026008</ele>
        <time>2020-09-26T11:43:58.902Z</time>
      </trkpt>
      <trkpt lat="65.42373" lon="21.52675">
        <ele>27.216152</ele>
        <time>2020-09-26T11:44:01.912Z</time>
      </trkpt>
      <trkpt lat="65.42362" lon="21.52665">
        <ele>27.409759</ele>
        <time>2020-09-26T11:44:04.904Z</time>
      </trkpt>
      <trkpt lat="65.4235" lon="21.52657">
        <ele>27.619207</ele>
        <time>2020-09-26T11:44:07.915Z</time>
      </trkpt>
      <trkpt lat="65.42341" lon="21.52651">
        <ele>27.784213</ele>
        <time>2020-09-26T11:44:09.902Z</time>
      </trkpt>
      <trkpt lat="65.42331" lon="21.52645">
        <ele>27.967003</ele>
        <time>2020-09-26T11:44:11.903Z</time>
      </trkpt>
      <trkpt lat="65.4232" lon="21.52639">
        <ele>28.163331</ele>
        <time>2020-09-26T11:44:13.921Z</time>
      </trkpt>
      <trkpt lat="65.42307" lon="21.52633">
        <ele>28.379609</ele>
        <time>2020-09-26T11:44:15.914Z</time>
      </trkpt>
      <trkpt lat="65.42295" lon="21.52627">
        <ele>28.592186</ele>
        <time>2020-09-26T11:44:17.921Z</time>
      </trkpt>
      <trkpt lat="65.42283" lon="21.52622">
        <ele>28.810077</ele>
        <time>2020-09-26T11:44:19.896Z</time>
      </trkpt>
      <trkpt lat="65.4227" lon="21.52616">
        <ele>29.037053</ele>
        <time>2020-09-26T11:44:21.912Z</time>
      </trkpt>
      <trkpt lat="65.42257" lon="21.52609">
        <ele>29.264448</ele>
        <time>2020-09-26T11:44:23.939Z</time>
      </trkpt>
      <trkpt lat="65.42243" lon="21.52604">
        <ele>29.49661</ele>
        <time>2020-09-26T11:44:25.924Z</time>
      </trkpt>
      <trkpt lat="65.4223" lon="21.52598">
        <ele>29.078727</ele>
        <time>2020-09-26T11:44:27.910Z</time>
      </trkpt>
      <trkpt lat="65.42217" lon="21.52592">
        <ele>28.66844</ele>
        <time>2020-09-26T11:44:29.920Z</time>
      </trkpt>
      <trkpt lat="65.42204" lon="21.52587">
        <ele>28.258173</ele>
        <time>2020-09-26T11:44:31.907Z</time>
      </trkpt>
      <trkpt lat="65.42192" lon="21.52582">
        <ele>27.854725</ele>
        <time>2020-09-26T11:44:33.915Z</time>
      </trkpt>
      <trkpt lat="65.42179" lon="21.52576">
        <ele>27.442876</ele>
        <time>2020-09-26T11:44:35.902Z</time>
      </trkpt>
      <trkpt lat="65.42166" lon="21.5257">
        <ele>27.039264</ele>
        <time>2020-09-26T11:44:37.902Z</time>
      </trkpt>
      <trkpt lat="65.42153" lon="21.52566">
        <ele>26.621056</ele>
        <time>2020-09-26T11:44:39.899Z</time>
      </trkpt>
      <trkpt lat="65.4214" lon="21.5256">
        <ele>26.203728</ele>
        <time>2020-09-26T11:44:41.934Z</time>
      </trkpt>
      <trkpt lat="65.42127" lon="21.52554">
        <ele>25.806786</ele>
        <time>2020-09-26T11:44:43.914Z</time>
      </trkpt>
      <trkpt lat="65.42115" lon="21.52549">
        <ele>25.411545</ele>
        <time>2020-09-26T11:44:45.889Z</time>
      </trkpt>
      <trkpt lat="65.42103" lon="21.52543">
        <ele>25.021766</ele>
        <time>2020-09-26T11:44:47.915Z</time>
      </trkpt>
      <trkpt lat="65.42091" lon="21.52538">
        <ele>24.641724</ele>
        <time>2020-09-26T11:44:49.931Z</time>
      </trkpt>
      <trkpt lat="65.4208" lon="21.52534">
        <ele>24.282484</ele>
        <time>2020-09-26T11:44:51.913Z</time>
      </trkpt>
      <trkpt lat="65.42069" lon="21.5253">
        <ele>23.94305</ele>
        <time>2020-09-26T11:44:53.901Z</time>
      </trkpt>
      <trkpt lat="65.42058" lon="21.52526">
        <ele>24.015803</ele>
        <time>2020-09-26T11:44:55.897Z</time>
      </trkpt>
      <trkpt lat="65.42047" lon="21.52521">
        <ele>24.232657</ele>
        <time>2020-09-26T11:44:57.908Z</time>
      </trkpt>
      <trkpt lat="65.42037" lon="21.52518">
        <ele>24.444852</ele>
        <time>2020-09-26T11:44:59.941Z</time>
      </trkpt>
      <trkpt lat="65.42027" lon="21.52512">
        <ele>24.651472</ele>
        <time>2020-09-26T11:45:01.895Z</time>
      </trkpt>
      <trkpt lat="65.42017" lon="21.52508">
        <ele>24.850167</ele>
        <time>2020-09-26T11:45:03.911Z</time>
      </trkpt>
      <trkpt lat="65.42008" lon="21.52504">
        <ele>25.042057</ele>
        <time>2020-09-26T11:45:05.925Z</time>
      </trkpt>
      <trkpt lat="65.41999" lon="21.52501">
        <ele>25.231697</ele>
        <time>2020-09-26T11:45:07.956Z</time>
      </trkpt>
      <trkpt lat="65.41989" lon="21.52497">
        <ele>25.422013</ele>
        <time>2020-09-26T11:45:09.900Z</time>
      </trkpt>
      <trkpt lat="65.4198" lon="21.52493">
        <ele>25.609139</ele>
        <time>2020-09-26T11:45:11.916Z</time>
      </trkpt>
      <trkpt lat="65.41971" lon="21.52488">
        <ele>25.796266</ele>
        <time>2020-09-26T11:45:13.911Z</time>
      </trkpt>
      <trkpt lat="65.41962" lon="21.52483">
        <ele>25.986415</ele>
        <time>2020-09-26T11:45:15.914Z</time>
      </trkpt>
      <trkpt lat="65.41953" lon="21.52477">
        <ele>26.178369</ele>
        <time>2020-09-26T11:45:17.916Z</time>
      </trkpt>
      <trkpt lat="65.41944" lon="21.52472">
        <ele>26.365997</ele>
        <time>2020-09-26T11:45:19.906Z</time>
      </trkpt>
      <trkpt lat="65.41931" lon="21.52463">
        <ele>26.633155</ele>
        <time>2020-09-26T11:45:22.918Z</time>
      </trkpt>
      <trkpt lat="65.4192" lon="21.52452">
        <ele>26.876119</ele>
        <time>2020-09-26T11:45:25.953Z</time>
      </trkpt>
      <trkpt lat="65.41909" lon="21.52443">
        <ele>27.110913</ele>
        <time>2020-09-26T11:45:28.923Z</time>
      </trkpt>
      <trkpt lat="65.41898" lon="21.52432">
        <ele>27.337669</ele>
        <time>2020-09-26T11:45:31.908Z</time>
      </trkpt>
      <trkpt lat="65.41889" lon="21.52421">
        <ele>27.5304</ele>
        <time>2020-09-26T11:45:34.906Z</time>
      </trkpt>
      <trkpt lat="65.41878" lon="21.52406">
        <ele>27.688581</ele>
        <time>2020-09-26T11:45:37.896Z</time>
      </trkpt>
      <trkpt lat="65.4187" lon="21.52396">
        <ele>27.803202</ele>
        <time>2020-09-26T11:45:39.932Z</time>
      </trkpt>
      <trkpt lat="65.41858" lon="21.52382">
        <ele>27.962726</ele>
        <time>2020-09-26T11:45:42.903Z</time>
      </trkpt>
      <trkpt lat="65.41851" lon="21.52371">
        <ele>28.080269</ele>
        <time>2020-09-26T11:45:44.891Z</time>
      </trkpt>
      <trkpt lat="65.41839" lon="21.52353">
        <ele>28.254444</ele>
        <time>2020-09-26T11:45:47.914Z</time>
      </trkpt>
      <trkpt lat="65.41831" lon="21.52341">
        <ele>28.373474</ele>
        <time>2020-09-26T11:45:49.905Z</time>
      </trkpt>
      <trkpt lat="65.41824" lon="21.52328">
        <ele>28.490572</ele>
        <time>2020-09-26T11:45:51.913Z</time>
      </trkpt>
      <trkpt lat="65.41816" lon="21.52315">
        <ele>28.607262</ele>
        <time>2020-09-26T11:45:53.927Z</time>
      </trkpt>
      <trkpt lat="65.41806" lon="21.52296">
        <ele>28.773125</ele>
        <time>2020-09-26T11:45:56.924Z</time>
      </trkpt>
      <trkpt lat="65.41796" lon="21.52276">
        <ele>28.933471</ele>
        <time>2020-09-26T11:45:59.904Z</time>
      </trkpt>
      <trkpt lat="65.41787" lon="21.52258">
        <ele>29.087738</ele>
        <time>2020-09-26T11:46:02.899Z</time>
      </trkpt>
      <trkpt lat="65.41777" lon="21.5224">
        <ele>29.244399</ele>
        <time>2020-09-26T11:46:05.944Z</time>
      </trkpt>
      <trkpt lat="65.41767" lon="21.52223">
        <ele>29.396371</ele>
        <time>2020-09-26T11:46:08.921Z</time>
      </trkpt>
      <trkpt lat="65.41759" lon="21.52204">
        <ele>29.53623</ele>
        <time>2020-09-26T11:46:11.923Z</time>
      </trkpt>
      <trkpt lat="65.41751" lon="21.52187">
        <ele>29.674515</ele>
        <time>2020-09-26T11:46:14.902Z</time>
      </trkpt>
      <trkpt lat="65.41744" lon="21.5217">
        <ele>29.755519</ele>
        <time>2020-09-26T11:46:17.900Z</time>
      </trkpt>
      <trkpt lat="65.41736" lon="21.52153">
        <ele>29.730677</ele>
        <time>2020-09-26T11:46:21.926Z</time>
      </trkpt>
      <trkpt lat="65.41728" lon="21.52138">
        <ele>29.708065</ele>
        <time>2020-09-26T11:46:25.916Z</time>
      </trkpt>
      <trkpt lat="65.41727" lon="21.52115">
        <ele>29.685406</ele>
        <time>2020-09-26T11:46:29.947Z</time>
      </trkpt>
      <trkpt lat="65.41734" lon="21.52092">
        <ele>29.658618</ele>
        <time>2020-09-26T11:46:33.904Z</time>
      </trkpt>
      <trkpt lat="65.41741" lon="21.52075">
        <ele>29.634071</ele>
        <time>2020-09-26T11:46:36.936Z</time>
      </trkpt>
      <trkpt lat="65.41748" lon="21.5206">
        <ele>29.612919</ele>
        <time>2020-09-26T11:46:38.904Z</time>
      </trkpt>
      <trkpt lat="65.41755" lon="21.52045">
        <ele>29.590619</ele>
        <time>2020-09-26T11:46:40.926Z</time>
      </trkpt>
      <trkpt lat="65.41762" lon="21.52029">
        <ele>29.568266</ele>
        <time>2020-09-26T11:46:42.911Z</time>
      </trkpt>
      <trkpt lat="65.4177" lon="21.52013">
        <ele>29.544589</ele>
        <time>2020-09-26T11:46:44.912Z</time>
      </trkpt>
      <trkpt lat="65.4178" lon="21.51997">
        <ele>29.517898</ele>
        <time>2020-09-26T11:46:46.895Z</time>
      </trkpt>
      <trkpt lat="65.4179" lon="21.51978">
        <ele>29.488987</ele>
        <time>2020-09-26T11:46:48.909Z</time>
      </trkpt>
      <trkpt lat="65.418" lon="21.51959">
        <ele>29.458993</ele>
        <time>2020-09-26T11:46:50.893Z</time>
      </trkpt>
      <trkpt lat="65.4181" lon="21.5194">
        <ele>29.429066</ele>
        <time>2020-09-26T11:46:52.924Z</time>
      </trkpt>
      <trkpt lat="65.41821" lon="21.51919">
        <ele>29.397154</ele>
        <time>2020-09-26T11:46:54.907Z</time>
      </trkpt>
      <trkpt lat="65.41829" lon="21.51896">
        <ele>29.367475</ele>
        <time>2020-09-26T11:46:56.925Z</time>
      </trkpt>
      <trkpt lat="65.41837" lon="21.51875">
        <ele>29.325301</ele>
        <time>2020-09-26T11:46:58.939Z</time>
      </trkpt>
      <trkpt lat="65.41844" lon="21.51857">
        <ele>29.253711</ele>
        <time>2020-09-26T11:47:00.907Z</time>
      </trkpt>
      <trkpt lat="65.4185" lon="21.5184">
        <ele>29.189787</ele>
        <time>2020-09-26T11:47:02.918Z</time>
      </trkpt>
      <trkpt lat="65.41858" lon="21.51815">
        <ele>29.097937</ele>
        <time>2020-09-26T11:47:05.933Z</time>
      </trkpt>
      <trkpt lat="65.41866" lon="21.5179">
        <ele>29.003607</ele>
        <time>2020-09-26T11:47:08.909Z</time>
      </trkpt>
      <trkpt lat="65.41872" lon="21.51772">
        <ele>28.937333</ele>
        <time>2020-09-26T11:47:10.940Z</time>
      </trkpt>
      <trkpt lat="65.41877" lon="21.51754">
        <ele>28.871105</ele>
        <time>2020-09-26T11:47:12.910Z</time>
      </trkpt>
      <trkpt lat="65.41883" lon="21.51736">
        <ele>28.807551</ele>
        <time>2020-09-26T11:47:14.919Z</time>
      </trkpt>
      <trkpt lat="65.41891" lon="21.51711">
        <ele>28.715405</ele>
        <time>2020-09-26T11:47:17.944Z</time>
      </trkpt>
      <trkpt lat="65.41897" lon="21.51695">
        <ele>28.652083</ele>
        <time>2020-09-26T11:47:19.918Z</time>
      </trkpt>
      <trkpt lat="65.41902" lon="21.51677">
        <ele>28.586747</ele>
        <time>2020-09-26T11:47:21.932Z</time>
      </trkpt>
      <trkpt lat="65.41908" lon="21.51658">
        <ele>28.516393</ele>
        <time>2020-09-26T11:47:23.901Z</time>
      </trkpt>
      <trkpt lat="65.41915" lon="21.51639">
        <ele>28.445945</ele>
        <time>2020-09-26T11:47:25.964Z</time>
      </trkpt>
      <trkpt lat="65.41921" lon="21.5162">
        <ele>28.373663</ele>
        <time>2020-09-26T11:47:27.932Z</time>
      </trkpt>
      <trkpt lat="65.41927" lon="21.516">
        <ele>28.301531</ele>
        <time>2020-09-26T11:47:29.905Z</time>
      </trkpt>
      <trkpt lat="65.41933" lon="21.51581">
        <ele>28.231228</ele>
        <time>2020-09-26T11:47:31.904Z</time>
      </trkpt>
      <trkpt lat="65.41939" lon="21.51561">
        <ele>28.160977</ele>
        <time>2020-09-26T11:47:33.894Z</time>
      </trkpt>
      <trkpt lat="65.41944" lon="21.51542">
        <ele>28.093611</ele>
        <time>2020-09-26T11:47:35.917Z</time>
      </trkpt>
      <trkpt lat="65.41949" lon="21.51523">
        <ele>28.285301</ele>
        <time>2020-09-26T11:47:37.899Z</time>
      </trkpt>
      <trkpt lat="65.41955" lon="21.51505">
        <ele>28.535039</ele>
        <time>2020-09-26T11:47:39.911Z</time>
      </trkpt>
      <trkpt lat="65.41961" lon="21.51484">
        <ele>28.804142</ele>
        <time>2020-09-26T11:47:41.897Z</time>
      </trkpt>
      <trkpt lat="65.41967" lon="21.51465">
        <ele>29.068514</ele>
        <time>2020-09-26T11:47:43.952Z</time>
      </trkpt>
      <trkpt lat="65.41973" lon="21.51448">
        <ele>29.312679</ele>
        <time>2020-09-26T11:47:45.920Z</time>
      </trkpt>
      <trkpt lat="65.41981" lon="21.51424">
        <ele>29.653117</ele>
        <time>2020-09-26T11:47:48.925Z</time>
      </trkpt>
      <trkpt lat="65.41989" lon="21.51402">
        <ele>29.965093</ele>
        <time>2020-09-26T11:47:51.912Z</time>
      </trkpt>
      <trkpt lat="65.41996" lon="21.51381">
        <ele>30.251888</ele>
        <time>2020-09-26T11:47:54.937Z</time>
      </trkpt>
      <trkpt lat="65.42002" lon="21.51363">
        <ele>30.506952</ele>
        <time>2020-09-26T11:47:57.924Z</time>
      </trkpt>
      <trkpt lat="65.4201" lon="21.51343">
        <ele>30.810104</ele>
        <time>2020-09-26T11:48:01.915Z</time>
      </trkpt>
      <trkpt lat="65.42019" lon="21.51326">
        <ele>31.110778</ele>
        <time>2020-09-26T11:48:05.920Z</time>
      </trkpt>
      <trkpt lat="65.42028" lon="21.51311">
        <ele>31.398057</ele>
        <time>2020-09-26T11:48:09.915Z</time>
      </trkpt>
      <trkpt lat="65.42035" lon="21.51296">
        <ele>31.639662</ele>
        <time>2020-09-26T11:48:13.918Z</time>
      </trkpt>
      <trkpt lat="65.42042" lon="21.51278">
        <ele>31.915435</ele>
        <time>2020-09-26T11:48:17.924Z</time>
      </trkpt>
      <trkpt lat="65.42049" lon="21.5126">
        <ele>32.174691</ele>
        <time>2020-09-26T11:48:20.907Z</time>
      </trkpt>
      <trkpt lat="65.42056" lon="21.51242">
        <ele>32.445019</ele>
        <time>2020-09-26T11:48:23.919Z</time>
      </trkpt>
      <trkpt lat="65.42064" lon="21.51221">
        <ele>32.758106</ele>
        <time>2020-09-26T11:48:27.921Z</time>
      </trkpt>
      <trkpt lat="65.42071" lon="21.51207">
        <ele>32.592414</ele>
        <time>2020-09-26T11:48:30.904Z</time>
      </trkpt>
      <trkpt lat="65.42081" lon="21.51191">
        <ele>32.320235</ele>
        <time>2020-09-26T11:48:33.908Z</time>
      </trkpt>
      <trkpt lat="65.42089" lon="21.51178">
        <ele>32.085342</ele>
        <time>2020-09-26T11:48:35.962Z</time>
      </trkpt>
      <trkpt lat="65.42098" lon="21.51162">
        <ele>31.832717</ele>
        <time>2020-09-26T11:48:37.897Z</time>
      </trkpt>
      <trkpt lat="65.42107" lon="21.51146">
        <ele>31.573894</ele>
        <time>2020-09-26T11:48:39.941Z</time>
      </trkpt>
      <trkpt lat="65.42116" lon="21.51131">
        <ele>31.316378</ele>
        <time>2020-09-26T11:48:41.902Z</time>
      </trkpt>
      <trkpt lat="65.42125" lon="21.51115">
        <ele>31.063598</ele>
        <time>2020-09-26T11:48:43.894Z</time>
      </trkpt>
      <trkpt lat="65.42134" lon="21.511">
        <ele>30.801844</ele>
        <time>2020-09-26T11:48:45.939Z</time>
      </trkpt>
      <trkpt lat="65.42144" lon="21.51084">
        <ele>30.521711</ele>
        <time>2020-09-26T11:48:47.933Z</time>
      </trkpt>
      <trkpt lat="65.42153" lon="21.51067">
        <ele>30.254062</ele>
        <time>2020-09-26T11:48:49.900Z</time>
      </trkpt>
      <trkpt lat="65.42162" lon="21.5105">
        <ele>29.990681</ele>
        <time>2020-09-26T11:48:51.905Z</time>
      </trkpt>
      <trkpt lat="65.42171" lon="21.51034">
        <ele>29.739407</ele>
        <time>2020-09-26T11:48:53.927Z</time>
      </trkpt>
      <trkpt lat="65.42179" lon="21.51019">
        <ele>29.495963</ele>
        <time>2020-09-26T11:48:55.956Z</time>
      </trkpt>
      <trkpt lat="65.42187" lon="21.51004">
        <ele>29.261036</ele>
        <time>2020-09-26T11:48:57.903Z</time>
      </trkpt>
      <trkpt lat="65.42194" lon="21.50989">
        <ele>29.037023</ele>
        <time>2020-09-26T11:48:59.929Z</time>
      </trkpt>
      <trkpt lat="65.42204" lon="21.50969">
        <ele>28.733632</ele>
        <time>2020-09-26T11:49:02.901Z</time>
      </trkpt>
      <trkpt lat="65.42214" lon="21.50951">
        <ele>28.707883</ele>
        <time>2020-09-26T11:49:05.912Z</time>
      </trkpt>
      <trkpt lat="65.42223" lon="21.50932">
        <ele>28.920422</ele>
        <time>2020-09-26T11:49:08.909Z</time>
      </trkpt>
      <trkpt lat="65.42232" lon="21.50915">
        <ele>29.127468</ele>
        <time>2020-09-26T11:49:11.900Z</time>
      </trkpt>
      <trkpt lat="65.42241" lon="21.50896">
        <ele>29.339331</ele>
        <time>2020-09-26T11:49:14.961Z</time>
      </trkpt>
      <trkpt lat="65.4225" lon="21.50877">
        <ele>29.550475</ele>
        <time>2020-09-26T11:49:17.904Z</time>
      </trkpt>
      <trkpt lat="65.42259" lon="21.50861">
        <ele>29.746499</ele>
        <time>2020-09-26T11:49:20.892Z</time>
      </trkpt>
      <trkpt lat="65.42267" lon="21.50845">
        <ele>29.921037</ele>
        <time>2020-09-26T11:49:23.936Z</time>
      </trkpt>
      <trkpt lat="65.42275" lon="21.50831">
        <ele>30.106603</ele>
        <time>2020-09-26T11:49:26.894Z</time>
      </trkpt>
      <trkpt lat="65.42286" lon="21.50813">
        <ele>30.33841</ele>
        <time>2020-09-26T11:49:29.903Z</time>
      </trkpt>
      <trkpt lat="65.42295" lon="21.50797">
        <ele>30.536812</ele>
        <time>2020-09-26T11:49:32.901Z</time>
      </trkpt>
      <trkpt lat="65.42303" lon="21.50781">
        <ele>30.718182</ele>
        <time>2020-09-26T11:49:35.936Z</time>
      </trkpt>
      <trkpt lat="65.42313" lon="21.50766">
        <ele>30.920983</ele>
        <time>2020-09-26T11:49:38.897Z</time>
      </trkpt>
      <trkpt lat="65.42321" lon="21.50751">
        <ele>31.107509</ele>
        <time>2020-09-26T11:49:41.914Z</time>
      </trkpt>
      <trkpt lat="65.42329" lon="21.50738">
        <ele>31.277381</ele>
        <time>2020-09-26T11:49:44.910Z</time>
      </trkpt>
      <trkpt lat="65.42337" lon="21.50725">
        <ele>31.439517</ele>
        <time>2020-09-26T11:49:47.898Z</time>
      </trkpt>
      <trkpt lat="65.42345" lon="21.50711">
        <ele>31.612758</ele>
        <time>2020-09-26T11:49:50.912Z</time>
      </trkpt>
      <trkpt lat="65.42353" lon="21.50696">
        <ele>31.762802</ele>
        <time>2020-09-26T11:49:53.915Z</time>
      </trkpt>
      <trkpt lat="65.42361" lon="21.50678">
        <ele>31.743414</ele>
        <time>2020-09-26T11:49:56.934Z</time>
      </trkpt>
      <trkpt lat="65.4237" lon="21.50657">
        <ele>31.721547</ele>
        <time>2020-09-26T11:49:59.919Z</time>
      </trkpt>
      <trkpt lat="65.42379" lon="21.50638">
        <ele>31.699189</ele>
        <time>2020-09-26T11:50:02.936Z</time>
      </trkpt>
      <trkpt lat="65.42388" lon="21.50619">
        <ele>31.677966</ele>
        <time>2020-09-26T11:50:05.915Z</time>
      </trkpt>
      <trkpt lat="65.42396" lon="21.50598">
        <ele>31.657019</ele>
        <time>2020-09-26T11:50:08.888Z</time>
      </trkpt>
      <trkpt lat="65.42404" lon="21.50577">
        <ele>31.636786</ele>
        <time>2020-09-26T11:50:11.932Z</time>
      </trkpt>
      <trkpt lat="65.42411" lon="21.50556">
        <ele>31.616388</ele>
        <time>2020-09-26T11:50:14.908Z</time>
      </trkpt>
      <trkpt lat="65.42418" lon="21.50535">
        <ele>31.596607</ele>
        <time>2020-09-26T11:50:17.908Z</time>
      </trkpt>
      <trkpt lat="65.42424" lon="21.50514">
        <ele>31.577729</ele>
        <time>2020-09-26T11:50:20.917Z</time>
      </trkpt>
      <trkpt lat="65.42429" lon="21.50495">
        <ele>31.561151</ele>
        <time>2020-09-26T11:50:23.924Z</time>
      </trkpt>
      <trkpt lat="65.42435" lon="21.50474">
        <ele>31.542577</ele>
        <time>2020-09-26T11:50:26.902Z</time>
      </trkpt>
      <trkpt lat="65.42438" lon="21.50448">
        <ele>31.522842</ele>
        <time>2020-09-26T11:50:29.908Z</time>
      </trkpt>
      <trkpt lat="65.42433" lon="21.50422">
        <ele>31.501447</ele>
        <time>2020-09-26T11:50:32.905Z</time>
      </trkpt>
      <trkpt lat="65.42421" lon="21.50408">
        <ele>31.478381</ele>
        <time>2020-09-26T11:50:35.899Z</time>
      </trkpt>
      <trkpt lat="65.42413" lon="21.50401">
        <ele>31.46246</ele>
        <time>2020-09-26T11:50:37.913Z</time>
      </trkpt>
      <trkpt lat="65.42404" lon="21.50392">
        <ele>31.438187</ele>
        <time>2020-09-26T11:50:39.909Z</time>
      </trkpt>
      <trkpt lat="65.42394" lon="21.50381">
        <ele>31.315104</ele>
        <time>2020-09-26T11:50:41.913Z</time>
      </trkpt>
      <trkpt lat="65.42385" lon="21.50367">
        <ele>31.18878</ele>
        <time>2020-09-26T11:50:43.897Z</time>
      </trkpt>
      <trkpt lat="65.42376" lon="21.50351">
        <ele>31.05732</ele>
        <time>2020-09-26T11:50:45.913Z</time>
      </trkpt>
      <trkpt lat="65.42368" lon="21.50334">
        <ele>30.92654</ele>
        <time>2020-09-26T11:50:47.921Z</time>
      </trkpt>
      <trkpt lat="65.4236" lon="21.50316">
        <ele>30.798913</ele>
        <time>2020-09-26T11:50:49.919Z</time>
      </trkpt>
      <trkpt lat="65.42352" lon="21.50298">
        <ele>30.677885</ele>
        <time>2020-09-26T11:50:51.904Z</time>
      </trkpt>
      <trkpt lat="65.42345" lon="21.50281">
        <ele>30.556019</ele>
        <time>2020-09-26T11:50:53.902Z</time>
      </trkpt>
      <trkpt lat="65.42338" lon="21.50261">
        <ele>30.428844</ele>
        <time>2020-09-26T11:50:55.937Z</time>
      </trkpt>
      <trkpt lat="65.42331" lon="21.50241">
        <ele>30.299852</ele>
        <time>2020-09-26T11:50:57.914Z</time>
      </trkpt>
      <trkpt lat="65.42323" lon="21.5022">
        <ele>30.168245</ele>
        <time>2020-09-26T11:50:59.896Z</time>
      </trkpt>
      <trkpt lat="65.42316" lon="21.50199">
        <ele>30.037364</ele>
        <time>2020-09-26T11:51:01.904Z</time>
      </trkpt>
      <trkpt lat="65.42309" lon="21.50178">
        <ele>29.905749</ele>
        <time>2020-09-26T11:51:03.915Z</time>
      </trkpt>
      <trkpt lat="65.42302" lon="21.50155">
        <ele>29.768008</ele>
        <time>2020-09-26T11:51:05.916Z</time>
      </trkpt>
      <trkpt lat="65.42296" lon="21.50131">
        <ele>29.627089</ele>
        <time>2020-09-26T11:51:07.908Z</time>
      </trkpt>
      <trkpt lat="65.4229" lon="21.50107">
        <ele>29.489236</ele>
        <time>2020-09-26T11:51:09.906Z</time>
      </trkpt>
      <trkpt lat="65.42284" lon="21.50083">
        <ele>29.356513</ele>
        <time>2020-09-26T11:51:11.897Z</time>
      </trkpt>
      <trkpt lat="65.42278" lon="21.5006">
        <ele>29.374289</ele>
        <time>2020-09-26T11:51:13.920Z</time>
      </trkpt>
      <trkpt lat="65.42273" lon="21.50036">
        <ele>29.40893</ele>
        <time>2020-09-26T11:51:15.908Z</time>
      </trkpt>
      <trkpt lat="65.42269" lon="21.50011">
        <ele>29.442846</ele>
        <time>2020-09-26T11:51:17.955Z</time>
      </trkpt>
      <trkpt lat="65.42265" lon="21.49988">
        <ele>29.474122</ele>
        <time>2020-09-26T11:51:19.909Z</time>
      </trkpt>
      <trkpt lat="65.42263" lon="21.49965">
        <ele>29.50399</ele>
        <time>2020-09-26T11:51:21.903Z</time>
      </trkpt>
      <trkpt lat="65.4226" lon="21.49943">
        <ele>29.532715</ele>
        <time>2020-09-26T11:51:23.938Z</time>
      </trkpt>
      <trkpt lat="65.42256" lon="21.49913">
        <ele>29.572835</ele>
        <time>2020-09-26T11:51:26.903Z</time>
      </trkpt>
      <trkpt lat="65.42253" lon="21.49884">
        <ele>29.609803</ele>
        <time>2020-09-26T11:51:29.948Z</time>
      </trkpt>
      <trkpt lat="65.4225" lon="21.49859">
        <ele>29.643491</ele>
        <time>2020-09-26T11:51:32.926Z</time>
      </trkpt>
      <trkpt lat="65.42248" lon="21.49836">
        <ele>29.673111</ele>
        <time>2020-09-26T11:51:35.915Z</time>
      </trkpt>
      <trkpt lat="65.42246" lon="21.49814">
        <ele>29.701511</ele>
        <time>2020-09-26T11:51:38.911Z</time>
      </trkpt>
      <trkpt lat="65.42244" lon="21.49787">
        <ele>29.736851</ele>
        <time>2020-09-26T11:51:42.916Z</time>
      </trkpt>
      <trkpt lat="65.4224" lon="21.49761">
        <ele>29.771715</ele>
        <time>2020-09-26T11:51:46.917Z</time>
      </trkpt>
      <trkpt lat="65.42236" lon="21.49738">
        <ele>29.803643</ele>
        <time>2020-09-26T11:51:49.900Z</time>
      </trkpt>
      <trkpt lat="65.42232" lon="21.49716">
        <ele>29.834055</ele>
        <time>2020-09-26T11:51:52.888Z</time>
      </trkpt>
      <trkpt lat="65.4223" lon="21.49693">
        <ele>29.863838</ele>
        <time>2020-09-26T11:51:55.934Z</time>
      </trkpt>
      <trkpt lat="65.42228" lon="21.49671">
        <ele>29.903357</ele>
        <time>2020-09-26T11:51:58.905Z</time>
      </trkpt>
      <trkpt lat="65.42228" lon="21.49648">
        <ele>30.178868</ele>
        <time>2020-09-26T11:52:01.907Z</time>
      </trkpt>
      <trkpt lat="65.42228" lon="21.49622">
        <ele>30.501378</ele>
        <time>2020-09-26T11:52:04.915Z</time>
      </trkpt>
      <trkpt lat="65.42228" lon="21.49599">
        <ele>30.790328</ele>
        <time>2020-09-26T11:52:07.901Z</time>
      </trkpt>
      <trkpt lat="65.42227" lon="21.49576">
        <ele>31.07779</ele>
        <time>2020-09-26T11:52:10.909Z</time>
      </trkpt>
      <trkpt lat="65.42225" lon="21.49553">
        <ele>31.366048</ele>
        <time>2020-09-26T11:52:13.897Z</time>
      </trkpt>
      <trkpt lat="65.42224" lon="21.49528">
        <ele>31.666831</ele>
        <time>2020-09-26T11:52:16.962Z</time>
      </trkpt>
      <trkpt lat="65.42222" lon="21.49501">
        <ele>32.01322</ele>
        <time>2020-09-26T11:52:20.915Z</time>
      </trkpt>
      <trkpt lat="65.42219" lon="21.4948">
        <ele>32.280232</ele>
        <time>2020-09-26T11:52:23.906Z</time>
      </trkpt>
      <trkpt lat="65.42217" lon="21.49456">
        <ele>32.58934</ele>
        <time>2020-09-26T11:52:26.919Z</time>
      </trkpt>
      <trkpt lat="65.42214" lon="21.49432">
        <ele>32.900842</ele>
        <time>2020-09-26T11:52:29.932Z</time>
      </trkpt>
      <trkpt lat="65.42211" lon="21.49411">
        <ele>33.173444</ele>
        <time>2020-09-26T11:52:32.906Z</time>
      </trkpt>
      <trkpt lat="65.42208" lon="21.49383">
        <ele>33.524761</ele>
        <time>2020-09-26T11:52:36.906Z</time>
      </trkpt>
      <trkpt lat="65.42205" lon="21.49358">
        <ele>33.851904</ele>
        <time>2020-09-26T11:52:40.913Z</time>
      </trkpt>
      <trkpt lat="65.422" lon="21.49335">
        <ele>34.168001</ele>
        <time>2020-09-26T11:52:44.926Z</time>
      </trkpt>
      <trkpt lat="65.42195" lon="21.49314">
        <ele>34.465337</ele>
        <time>2020-09-26T11:52:48.884Z</time>
      </trkpt>
      <trkpt lat="65.42189" lon="21.49292">
        <ele>34.796556</ele>
        <time>2020-09-26T11:52:52.911Z</time>
      </trkpt>
      <trkpt lat="65.42182" lon="21.49272">
        <ele>35.122204</ele>
        <time>2020-09-26T11:52:56.903Z</time>
      </trkpt>
      <trkpt lat="65.42174" lon="21.49252">
        <ele>35.160415</ele>
        <time>2020-09-26T11:53:00.913Z</time>
      </trkpt>
      <trkpt lat="65.42167" lon="21.49232">
        <ele>35.058948</ele>
        <time>2020-09-26T11:53:04.952Z</time>
      </trkpt>
      <trkpt lat="65.42161" lon="21.49215">
        <ele>34.974465</ele>
        <time>2020-09-26T11:53:07.938Z</time>
      </trkpt>
      <trkpt lat="65.42154" lon="21.49196">
        <ele>34.879978</ele>
        <time>2020-09-26T11:53:10.918Z</time>
      </trkpt>
      <trkpt lat="65.42148" lon="21.49177">
        <ele>34.78913</ele>
        <time>2020-09-26T11:53:13.919Z</time>
      </trkpt>
      <trkpt lat="65.42142" lon="21.49157">
        <ele>34.694974</ele>
        <time>2020-09-26T11:53:16.907Z</time>
      </trkpt>
      <trkpt lat="65.42134" lon="21.49135">
        <ele>34.587065</ele>
        <time>2020-09-26T11:53:19.909Z</time>
      </trkpt>
      <trkpt lat="65.42126" lon="21.49112">
        <ele>34.474809</ele>
        <time>2020-09-26T11:53:22.961Z</time>
      </trkpt>
      <trkpt lat="65.42121" lon="21.49095">
        <ele>34.390019</ele>
        <time>2020-09-26T11:53:24.897Z</time>
      </trkpt>
      <trkpt lat="65.42115" lon="21.49077">
        <ele>34.302306</ele>
        <time>2020-09-26T11:53:26.911Z</time>
      </trkpt>
      <trkpt lat="65.42109" lon="21.49059">
        <ele>34.214262</ele>
        <time>2020-09-26T11:53:28.922Z</time>
      </trkpt>
      <trkpt lat="65.42103" lon="21.4904">
        <ele>34.126217</ele>
        <time>2020-09-26T11:53:30.905Z</time>
      </trkpt>
      <trkpt lat="65.42096" lon="21.49018">
        <ele>34.019428</ele>
        <time>2020-09-26T11:53:32.911Z</time>
      </trkpt>
      <trkpt lat="65.42088" lon="21.48994">
        <ele>33.901311</ele>
        <time>2020-09-26T11:53:34.926Z</time>
      </trkpt>
      <trkpt lat="65.42078" lon="21.48969">
        <ele>33.773204</ele>
        <time>2020-09-26T11:53:36.895Z</time>
      </trkpt>
      <trkpt lat="65.42069" lon="21.48944">
        <ele>33.646513</ele>
        <time>2020-09-26T11:53:38.914Z</time>
      </trkpt>
      <trkpt lat="65.4206" lon="21.48914">
        <ele>33.269507</ele>
        <time>2020-09-26T11:53:40.918Z</time>
      </trkpt>
      <trkpt lat="65.42049" lon="21.48882">
        <ele>32.672694</ele>
        <time>2020-09-26T11:53:42.900Z</time>
      </trkpt>
      <trkpt lat="65.42038" lon="21.48849">
        <ele>32.056832</ele>
        <time>2020-09-26T11:53:44.916Z</time>
      </trkpt>
      <trkpt lat="65.42033" lon="21.48832">
        <ele>31.741709</ele>
        <time>2020-09-26T11:53:45.952Z</time>
      </trkpt>
      <trkpt lat="65.42022" lon="21.488">
        <ele>31.131713</ele>
        <time>2020-09-26T11:53:47.915Z</time>
      </trkpt>
      <trkpt lat="65.42012" lon="21.48771">
        <ele>30.572322</ele>
        <time>2020-09-26T11:53:49.924Z</time>
      </trkpt>
      <trkpt lat="65.42002" lon="21.48744">
        <ele>30.052243</ele>
        <time>2020-09-26T11:53:51.917Z</time>
      </trkpt>
      <trkpt lat="65.41993" lon="21.48719">
        <ele>29.584041</ele>
        <time>2020-09-26T11:53:53.907Z</time>
      </trkpt>
      <trkpt lat="65.41986" lon="21.48693">
        <ele>29.12626</ele>
        <time>2020-09-26T11:53:55.901Z</time>
      </trkpt>
      <trkpt lat="65.4198" lon="21.48666">
        <ele>28.676175</ele>
        <time>2020-09-26T11:53:57.898Z</time>
      </trkpt>
      <trkpt lat="65.41975" lon="21.48639">
        <ele>28.237791</ele>
        <time>2020-09-26T11:53:59.906Z</time>
      </trkpt>
      <trkpt lat="65.41969" lon="21.48614">
        <ele>27.811432</ele>
        <time>2020-09-26T11:54:01.896Z</time>
      </trkpt>
      <trkpt lat="65.41963" lon="21.48589">
        <ele>27.400886</ele>
        <time>2020-09-26T11:54:03.920Z</time>
      </trkpt>
      <trkpt lat="65.41958" lon="21.48566">
        <ele>27.199414</ele>
        <time>2020-09-26T11:54:05.954Z</time>
      </trkpt>
      <trkpt lat="65.41953" lon="21.48542">
        <ele>27.108574</ele>
        <time>2020-09-26T11:54:07.961Z</time>
      </trkpt>
      <trkpt lat="65.41948" lon="21.48519">
        <ele>27.017562</ele>
        <time>2020-09-26T11:54:09.898Z</time>
      </trkpt>
      <trkpt lat="65.41943" lon="21.48497">
        <ele>26.932846</ele>
        <time>2020-09-26T11:54:11.908Z</time>
      </trkpt>
      <trkpt lat="65.41937" lon="21.48474">
        <ele>26.842916</ele>
        <time>2020-09-26T11:54:13.911Z</time>
      </trkpt>
      <trkpt lat="65.41933" lon="21.48451">
        <ele>26.753552</ele>
        <time>2020-09-26T11:54:15.919Z</time>
      </trkpt>
      <trkpt lat="65.41928" lon="21.48428">
        <ele>26.665363</ele>
        <time>2020-09-26T11:54:17.915Z</time>
      </trkpt>
      <trkpt lat="65.41922" lon="21.48405">
        <ele>26.573436</ele>
        <time>2020-09-26T11:54:19.936Z</time>
      </trkpt>
      <trkpt lat="65.41917" lon="21.48381">
        <ele>26.481622</ele>
        <time>2020-09-26T11:54:21.916Z</time>
      </trkpt>
      <trkpt lat="65.41911" lon="21.48358">
        <ele>26.387384</ele>
        <time>2020-09-26T11:54:23.911Z</time>
      </trkpt>
      <trkpt lat="65.41905" lon="21.48335">
        <ele>26.295649</ele>
        <time>2020-09-26T11:54:25.900Z</time>
      </trkpt>
      <trkpt lat="65.41899" lon="21.48313">
        <ele>26.20766</ele>
        <time>2020-09-26T11:54:27.897Z</time>
      </trkpt>
      <trkpt lat="65.41893" lon="21.48293">
        <ele>26.121073</ele>
        <time>2020-09-26T11:54:29.915Z</time>
      </trkpt>
      <trkpt lat="65.41887" lon="21.48273">
        <ele>26.037179</ele>
        <time>2020-09-26T11:54:31.939Z</time>
      </trkpt>
      <trkpt lat="65.41881" lon="21.48255">
        <ele>25.9581</ele>
        <time>2020-09-26T11:54:33.910Z</time>
      </trkpt>
      <trkpt lat="65.41875" lon="21.48238">
        <ele>25.879847</ele>
        <time>2020-09-26T11:54:35.905Z</time>
      </trkpt>
      <trkpt lat="65.41869" lon="21.48219">
        <ele>25.800258</ele>
        <time>2020-09-26T11:54:37.897Z</time>
      </trkpt>
      <trkpt lat="65.41863" lon="21.482">
        <ele>25.787628</ele>
        <time>2020-09-26T11:54:39.944Z</time>
      </trkpt>
      <trkpt lat="65.41856" lon="21.48182">
        <ele>25.806244</ele>
        <time>2020-09-26T11:54:41.910Z</time>
      </trkpt>
      <trkpt lat="65.41849" lon="21.48163">
        <ele>25.825463</ele>
        <time>2020-09-26T11:54:43.908Z</time>
      </trkpt>
      <trkpt lat="65.41842" lon="21.48145">
        <ele>25.844559</ele>
        <time>2020-09-26T11:54:45.919Z</time>
      </trkpt>
      <trkpt lat="65.41836" lon="21.48125">
        <ele>25.863264</ele>
        <time>2020-09-26T11:54:47.959Z</time>
      </trkpt>
      <trkpt lat="65.4183" lon="21.48106">
        <ele>25.882298</ele>
        <time>2020-09-26T11:54:49.911Z</time>
      </trkpt>
      <trkpt lat="65.41823" lon="21.48087">
        <ele>25.901336</ele>
        <time>2020-09-26T11:54:51.905Z</time>
      </trkpt>
      <trkpt lat="65.41816" lon="21.48068">
        <ele>25.920786</ele>
        <time>2020-09-26T11:54:53.914Z</time>
      </trkpt>
      <trkpt lat="65.41809" lon="21.48048">
        <ele>25.941002</ele>
        <time>2020-09-26T11:54:55.918Z</time>
      </trkpt>
      <trkpt lat="65.41802" lon="21.48028">
        <ele>25.961336</ele>
        <time>2020-09-26T11:54:57.907Z</time>
      </trkpt>
      <trkpt lat="65.41795" lon="21.48008">
        <ele>25.981374</ele>
        <time>2020-09-26T11:54:59.914Z</time>
      </trkpt>
      <trkpt lat="65.41789" lon="21.47989">
        <ele>26.000997</ele>
        <time>2020-09-26T11:55:01.906Z</time>
      </trkpt>
      <trkpt lat="65.41782" lon="21.4797">
        <ele>26.019494</ele>
        <time>2020-09-26T11:55:03.897Z</time>
      </trkpt>
      <trkpt lat="65.41776" lon="21.47951">
        <ele>26.038348</ele>
        <time>2020-09-26T11:55:05.921Z</time>
      </trkpt>
      <trkpt lat="65.41769" lon="21.47933">
        <ele>26.057264</ele>
        <time>2020-09-26T11:55:07.919Z</time>
      </trkpt>
      <trkpt lat="65.41762" lon="21.47914">
        <ele>26.076295</ele>
        <time>2020-09-26T11:55:09.900Z</time>
      </trkpt>
      <trkpt lat="65.41756" lon="21.47896">
        <ele>26.094317</ele>
        <time>2020-09-26T11:55:11.909Z</time>
      </trkpt>
      <trkpt lat="65.4175" lon="21.47879">
        <ele>26.205005</ele>
        <time>2020-09-26T11:55:13.904Z</time>
      </trkpt>
      <trkpt lat="65.41742" lon="21.47858">
        <ele>26.890379</ele>
        <time>2020-09-26T11:55:16.907Z</time>
      </trkpt>
      <trkpt lat="65.41736" lon="21.4784">
        <ele>27.451695</ele>
        <time>2020-09-26T11:55:19.917Z</time>
      </trkpt>
      <trkpt lat="65.41728" lon="21.47819">
        <ele>28.109114</ele>
        <time>2020-09-26T11:55:23.907Z</time>
      </trkpt>
      <trkpt lat="65.41721" lon="21.47801">
        <ele>28.688942</ele>
        <time>2020-09-26T11:55:27.890Z</time>
      </trkpt>
      <trkpt lat="65.41715" lon="21.47781">
        <ele>29.297407</ele>
        <time>2020-09-26T11:55:32.887Z</time>
      </trkpt>
      <trkpt lat="65.41708" lon="21.4776">
        <ele>29.916845</ele>
        <time>2020-09-26T11:55:37.905Z</time>
      </trkpt>
      <trkpt lat="65.41702" lon="21.47743">
        <ele>30.454191</ele>
        <time>2020-09-26T11:55:41.924Z</time>
      </trkpt>
      <trkpt lat="65.41695" lon="21.47726">
        <ele>30.999425</ele>
        <time>2020-09-26T11:55:45.898Z</time>
      </trkpt>
      <trkpt lat="65.41689" lon="21.47711">
        <ele>31.537204</ele>
        <time>2020-09-26T11:55:50.905Z</time>
      </trkpt>
      <trkpt lat="65.41681" lon="21.47692">
        <ele>32.128261</ele>
        <time>2020-09-26T11:55:55.919Z</time>
      </trkpt>
      <trkpt lat="65.41674" lon="21.47675">
        <ele>32.693212</ele>
        <time>2020-09-26T11:55:59.895Z</time>
      </trkpt>
      <trkpt lat="65.41668" lon="21.47655">
        <ele>33.303821</ele>
        <time>2020-09-26T11:56:04.914Z</time>
      </trkpt>
      <trkpt lat="65.41661" lon="21.47637">
        <ele>33.885802</ele>
        <time>2020-09-26T11:56:09.906Z</time>
      </trkpt>
      <trkpt lat="65.41653" lon="21.47618">
        <ele>34.523848</ele>
        <time>2020-09-26T11:56:13.922Z</time>
      </trkpt>
      <trkpt lat="65.41646" lon="21.47597">
        <ele>35.152668</ele>
        <time>2020-09-26T11:56:17.934Z</time>
      </trkpt>
      <trkpt lat="65.4164" lon="21.47577">
        <ele>35.760907</ele>
        <time>2020-09-26T11:56:21.923Z</time>
      </trkpt>
      <trkpt lat="65.41633" lon="21.47558">
        <ele>36.346672</ele>
        <time>2020-09-26T11:56:25.904Z</time>
      </trkpt>
      <trkpt lat="65.41626" lon="21.47536">
        <ele>36.118851</ele>
        <time>2020-09-26T11:56:29.907Z</time>
      </trkpt>
      <trkpt lat="65.41619" lon="21.47513">
        <ele>35.880637</ele>
        <time>2020-09-26T11:56:33.900Z</time>
      </trkpt>
      <trkpt lat="65.41614" lon="21.47495">
        <ele>35.689794</ele>
        <time>2020-09-26T11:56:36.905Z</time>
      </trkpt>
      <trkpt lat="65.41608" lon="21.47476">
        <ele>35.493709</ele>
        <time>2020-09-26T11:56:39.896Z</time>
      </trkpt>
      <trkpt lat="65.41603" lon="21.47456">
        <ele>35.297338</ele>
        <time>2020-09-26T11:56:42.913Z</time>
      </trkpt>
      <trkpt lat="65.41595" lon="21.47434">
        <ele>35.052999</ele>
        <time>2020-09-26T11:56:45.967Z</time>
      </trkpt>
      <trkpt lat="65.41589" lon="21.47416">
        <ele>34.865058</ele>
        <time>2020-09-26T11:56:47.904Z</time>
      </trkpt>
      <trkpt lat="65.41583" lon="21.47397">
        <ele>34.649885</ele>
        <time>2020-09-26T11:56:49.915Z</time>
      </trkpt>
      <trkpt lat="65.41575" lon="21.47375">
        <ele>34.413338</ele>
        <time>2020-09-26T11:56:51.903Z</time>
      </trkpt>
      <trkpt lat="65.41567" lon="21.47351">
        <ele>34.146294</ele>
        <time>2020-09-26T11:56:53.905Z</time>
      </trkpt>
      <trkpt lat="65.41556" lon="21.47325">
        <ele>33.843922</ele>
        <time>2020-09-26T11:56:55.929Z</time>
      </trkpt>
      <trkpt lat="65.41546" lon="21.47294">
        <ele>33.500439</ele>
        <time>2020-09-26T11:56:57.914Z</time>
      </trkpt>
      <trkpt lat="65.41534" lon="21.47262">
        <ele>33.149013</ele>
        <time>2020-09-26T11:56:59.912Z</time>
      </trkpt>
      <trkpt lat="65.41522" lon="21.47232">
        <ele>32.797871</ele>
        <time>2020-09-26T11:57:01.924Z</time>
      </trkpt>
      <trkpt lat="65.4151" lon="21.47202">
        <ele>32.143269</ele>
        <time>2020-09-26T11:57:03.902Z</time>
      </trkpt>
      <trkpt lat="65.41504" lon="21.47187">
        <ele>31.745874</ele>
        <time>2020-09-26T11:57:04.936Z</time>
      </trkpt>
      <trkpt lat="65.41497" lon="21.47171">
        <ele>31.350263</ele>
        <time>2020-09-26T11:57:05.902Z</time>
      </trkpt>
      <trkpt lat="65.41485" lon="21.47142">
        <ele>30.582592</ele>
        <time>2020-09-26T11:57:07.904Z</time>
      </trkpt>
      <trkpt lat="65.41473" lon="21.47113">
        <ele>29.827792</ele>
        <time>2020-09-26T11:57:09.930Z</time>
      </trkpt>
      <trkpt lat="65.41461" lon="21.47085">
        <ele>29.106377</ele>
        <time>2020-09-26T11:57:11.913Z</time>
      </trkpt>
      <trkpt lat="65.4145" lon="21.47058">
        <ele>28.417396</ele>
        <time>2020-09-26T11:57:13.911Z</time>
      </trkpt>
      <trkpt lat="65.41439" lon="21.47033">
        <ele>27.754987</ele>
        <time>2020-09-26T11:57:15.937Z</time>
      </trkpt>
      <trkpt lat="65.41429" lon="21.47009">
        <ele>27.128372</ele>
        <time>2020-09-26T11:57:17.904Z</time>
      </trkpt>
      <trkpt lat="65.4142" lon="21.46985">
        <ele>26.539565</ele>
        <time>2020-09-26T11:57:19.924Z</time>
      </trkpt>
      <trkpt lat="65.41411" lon="21.46962">
        <ele>25.973622</ele>
        <time>2020-09-26T11:57:21.930Z</time>
      </trkpt>
      <trkpt lat="65.41403" lon="21.46942">
        <ele>25.453984</ele>
        <time>2020-09-26T11:57:23.935Z</time>
      </trkpt>
      <trkpt lat="65.41395" lon="21.46924">
        <ele>24.969117</ele>
        <time>2020-09-26T11:57:25.904Z</time>
      </trkpt>
      <trkpt lat="65.41387" lon="21.46905">
        <ele>24.857728</ele>
        <time>2020-09-26T11:57:27.909Z</time>
      </trkpt>
      <trkpt lat="65.41379" lon="21.46888">
        <ele>24.924768</ele>
        <time>2020-09-26T11:57:29.897Z</time>
      </trkpt>
      <trkpt lat="65.41371" lon="21.4687">
        <ele>24.9956</ele>
        <time>2020-09-26T11:57:31.904Z</time>
      </trkpt>
      <trkpt lat="65.41362" lon="21.46852">
        <ele>25.067647</ele>
        <time>2020-09-26T11:57:33.938Z</time>
      </trkpt>
      <trkpt lat="65.41353" lon="21.46834">
        <ele>25.140728</ele>
        <time>2020-09-26T11:57:35.938Z</time>
      </trkpt>
      <trkpt lat="65.41344" lon="21.46816">
        <ele>25.213297</ele>
        <time>2020-09-26T11:57:37.908Z</time>
      </trkpt>
      <trkpt lat="65.41335" lon="21.46799">
        <ele>25.288183</ele>
        <time>2020-09-26T11:57:39.903Z</time>
      </trkpt>
      <trkpt lat="65.41325" lon="21.46783">
        <ele>25.365665</ele>
        <time>2020-09-26T11:57:41.932Z</time>
      </trkpt>
      <trkpt lat="65.41315" lon="21.46767">
        <ele>25.440144</ele>
        <time>2020-09-26T11:57:43.899Z</time>
      </trkpt>
      <trkpt lat="65.41305" lon="21.46752">
        <ele>25.513566</ele>
        <time>2020-09-26T11:57:45.902Z</time>
      </trkpt>
      <trkpt lat="65.41295" lon="21.46738">
        <ele>25.584527</ele>
        <time>2020-09-26T11:57:47.935Z</time>
      </trkpt>
      <trkpt lat="65.41286" lon="21.46724">
        <ele>25.652788</ele>
        <time>2020-09-26T11:57:49.910Z</time>
      </trkpt>
      <trkpt lat="65.41277" lon="21.46712">
        <ele>25.717146</ele>
        <time>2020-09-26T11:57:51.948Z</time>
      </trkpt>
      <trkpt lat="65.41268" lon="21.46698">
        <ele>25.782495</ele>
        <time>2020-09-26T11:57:53.897Z</time>
      </trkpt>
      <trkpt lat="65.41258" lon="21.46684">
        <ele>25.855075</ele>
        <time>2020-09-26T11:57:55.896Z</time>
      </trkpt>
      <trkpt lat="65.41248" lon="21.46668">
        <ele>25.930896</ele>
        <time>2020-09-26T11:57:57.899Z</time>
      </trkpt>
      <trkpt lat="65.41238" lon="21.46654">
        <ele>25.758201</ele>
        <time>2020-09-26T11:57:59.900Z</time>
      </trkpt>
      <trkpt lat="65.41227" lon="21.4664">
        <ele>25.537693</ele>
        <time>2020-09-26T11:58:01.896Z</time>
      </trkpt>
      <trkpt lat="65.41217" lon="21.46626">
        <ele>25.326077</ele>
        <time>2020-09-26T11:58:03.939Z</time>
      </trkpt>
      <trkpt lat="65.41208" lon="21.46613">
        <ele>25.122632</ele>
        <time>2020-09-26T11:58:05.973Z</time>
      </trkpt>
      <trkpt lat="65.41198" lon="21.466">
        <ele>24.920417</ele>
        <time>2020-09-26T11:58:07.932Z</time>
      </trkpt>
      <trkpt lat="65.41188" lon="21.46587">
        <ele>24.715097</ele>
        <time>2020-09-26T11:58:09.916Z</time>
      </trkpt>
      <trkpt lat="65.41179" lon="21.46574">
        <ele>24.512127</ele>
        <time>2020-09-26T11:58:11.912Z</time>
      </trkpt>
      <trkpt lat="65.41169" lon="21.46561">
        <ele>24.308682</ele>
        <time>2020-09-26T11:58:13.917Z</time>
      </trkpt>
      <trkpt lat="65.4116" lon="21.46548">
        <ele>24.109274</ele>
        <time>2020-09-26T11:58:15.893Z</time>
      </trkpt>
      <trkpt lat="65.4115" lon="21.46535">
        <ele>23.908173</ele>
        <time>2020-09-26T11:58:17.919Z</time>
      </trkpt>
      <trkpt lat="65.41141" lon="21.46522">
        <ele>23.71035</ele>
        <time>2020-09-26T11:58:19.928Z</time>
      </trkpt>
      <trkpt lat="65.41132" lon="21.46509">
        <ele>23.514495</ele>
        <time>2020-09-26T11:58:21.937Z</time>
      </trkpt>
      <trkpt lat="65.41122" lon="21.46496">
        <ele>23.313928</ele>
        <time>2020-09-26T11:58:23.919Z</time>
      </trkpt>
      <trkpt lat="65.41113" lon="21.46483">
        <ele>23.116489</ele>
        <time>2020-09-26T11:58:25.911Z</time>
      </trkpt>
      <trkpt lat="65.41103" lon="21.4647">
        <ele>22.918096</ele>
        <time>2020-09-26T11:58:27.902Z</time>
      </trkpt>
      <trkpt lat="65.41094" lon="21.46457">
        <ele>22.722627</ele>
        <time>2020-09-26T11:58:29.937Z</time>
      </trkpt>
      <trkpt lat="65.41085" lon="21.46445">
        <ele>22.730248</ele>
        <time>2020-09-26T11:58:31.918Z</time>
      </trkpt>
      <trkpt lat="65.41076" lon="21.46434">
        <ele>22.880614</ele>
        <time>2020-09-26T11:58:33.908Z</time>
      </trkpt>
      <trkpt lat="65.41068" lon="21.46422">
        <ele>23.025279</ele>
        <time>2020-09-26T11:58:35.919Z</time>
      </trkpt>
      <trkpt lat="65.4106" lon="21.46411">
        <ele>23.172483</ele>
        <time>2020-09-26T11:58:37.903Z</time>
      </trkpt>
      <trkpt lat="65.41052" lon="21.46399">
        <ele>23.307455</ele>
        <time>2020-09-26T11:58:39.925Z</time>
      </trkpt>
      <trkpt lat="65.41041" lon="21.46383">
        <ele>23.505414</ele>
        <time>2020-09-26T11:58:42.920Z</time>
      </trkpt>
      <trkpt lat="65.41029" lon="21.46367">
        <ele>23.69856</ele>
        <time>2020-09-26T11:58:45.955Z</time>
      </trkpt>
      <trkpt lat="65.41019" lon="21.46352">
        <ele>23.88723</ele>
        <time>2020-09-26T11:58:48.914Z</time>
      </trkpt>
      <trkpt lat="65.41008" lon="21.46336">
        <ele>24.077488</ele>
        <time>2020-09-26T11:58:51.947Z</time>
      </trkpt>
      <trkpt lat="65.40997" lon="21.46321">
        <ele>24.262625</ele>
        <time>2020-09-26T11:58:54.903Z</time>
      </trkpt>
      <trkpt lat="65.40987" lon="21.46307">
        <ele>24.443244</ele>
        <time>2020-09-26T11:58:57.920Z</time>
      </trkpt>
      <trkpt lat="65.40976" lon="21.46293">
        <ele>24.622005</ele>
        <time>2020-09-26T11:59:00.898Z</time>
      </trkpt>
      <trkpt lat="65.40966" lon="21.46279">
        <ele>24.804406</ele>
        <time>2020-09-26T11:59:03.927Z</time>
      </trkpt>
      <trkpt lat="65.40955" lon="21.46264">
        <ele>24.98405</ele>
        <time>2020-09-26T11:59:06.954Z</time>
      </trkpt>
      <trkpt lat="65.40944" lon="21.46249">
        <ele>25.180164</ele>
        <time>2020-09-26T11:59:09.899Z</time>
      </trkpt>
      <trkpt lat="65.40933" lon="21.46234">
        <ele>25.385327</ele>
        <time>2020-09-26T11:59:12.906Z</time>
      </trkpt>
      <trkpt lat="65.40922" lon="21.46219">
        <ele>25.639941</ele>
        <time>2020-09-26T11:59:15.932Z</time>
      </trkpt>
      <trkpt lat="65.40911" lon="21.46204">
        <ele>25.891157</ele>
        <time>2020-09-26T11:59:18.946Z</time>
      </trkpt>
      <trkpt lat="65.40901" lon="21.46191">
        <ele>26.125017</ele>
        <time>2020-09-26T11:59:21.920Z</time>
      </trkpt>
      <trkpt lat="65.4089" lon="21.46178">
        <ele>26.368549</ele>
        <time>2020-09-26T11:59:24.908Z</time>
      </trkpt>
      <trkpt lat="65.40878" lon="21.4617">
        <ele>26.615013</ele>
        <time>2020-09-26T11:59:27.944Z</time>
      </trkpt>
      <trkpt lat="65.40866" lon="21.46162">
        <ele>26.868936</ele>
        <time>2020-09-26T11:59:30.919Z</time>
      </trkpt>
      <trkpt lat="65.40852" lon="21.46156">
        <ele>27.142277</ele>
        <time>2020-09-26T11:59:33.956Z</time>
      </trkpt>
      <trkpt lat="65.4084" lon="21.46151">
        <ele>27.389701</ele>
        <time>2020-09-26T11:59:36.911Z</time>
      </trkpt>
      <trkpt lat="65.40827" lon="21.4615">
        <ele>27.65401</ele>
        <time>2020-09-26T11:59:39.895Z</time>
      </trkpt>
      <trkpt lat="65.40818" lon="21.4615">
        <ele>27.845585</ele>
        <time>2020-09-26T11:59:41.896Z</time>
      </trkpt>
      <trkpt lat="65.40808" lon="21.46149">
        <ele>28.035172</ele>
        <time>2020-09-26T11:59:43.905Z</time>
      </trkpt>
      <trkpt lat="65.40799" lon="21.46149">
        <ele>28.22673</ele>
        <time>2020-09-26T11:59:45.941Z</time>
      </trkpt>
      <trkpt lat="65.40789" lon="21.4615">
        <ele>28.422466</ele>
        <time>2020-09-26T11:59:47.914Z</time>
      </trkpt>
      <trkpt lat="65.40779" lon="21.46151">
        <ele>28.618315</ele>
        <time>2020-09-26T11:59:49.918Z</time>
      </trkpt>
      <trkpt lat="65.4077" lon="21.46153">
        <ele>28.812616</ele>
        <time>2020-09-26T11:59:51.905Z</time>
      </trkpt>
      <trkpt lat="65.4076" lon="21.46155">
        <ele>28.986416</ele>
        <time>2020-09-26T11:59:53.893Z</time>
      </trkpt>
      <trkpt lat="65.40751" lon="21.46156">
        <ele>29.093972</ele>
        <time>2020-09-26T11:59:55.938Z</time>
      </trkpt>
      <trkpt lat="65.40741" lon="21.46158">
        <ele>29.203781</ele>
        <time>2020-09-26T11:59:57.914Z</time>
      </trkpt>
      <trkpt lat="65.40732" lon="21.4616">
        <ele>29.31382</ele>
        <time>2020-09-26T11:59:59.926Z</time>
      </trkpt>
      <trkpt lat="65.40722" lon="21.46162">
        <ele>29.42269</ele>
        <time>2020-09-26T12:00:01.919Z</time>
      </trkpt>
      <trkpt lat="65.40712" lon="21.46165">
        <ele>29.539477</ele>
        <time>2020-09-26T12:00:03.901Z</time>
      </trkpt>
      <trkpt lat="65.40702" lon="21.46165">
        <ele>29.65248</ele>
        <time>2020-09-26T12:00:05.911Z</time>
      </trkpt>
      <trkpt lat="65.40692" lon="21.46166">
        <ele>29.75754</ele>
        <time>2020-09-26T12:00:07.906Z</time>
      </trkpt>
      <trkpt lat="65.40679" lon="21.46167">
        <ele>29.904509</ele>
        <time>2020-09-26T12:00:10.899Z</time>
      </trkpt>
      <trkpt lat="65.40667" lon="21.4617">
        <ele>30.04835</ele>
        <time>2020-09-26T12:00:13.942Z</time>
      </trkpt>
      <trkpt lat="65.40655" lon="21.46173">
        <ele>30.182465</ele>
        <time>2020-09-26T12:00:16.916Z</time>
      </trkpt>
      <trkpt lat="65.40644" lon="21.46174">
        <ele>30.310309</ele>
        <time>2020-09-26T12:00:19.909Z</time>
      </trkpt>
      <trkpt lat="65.40632" lon="21.46176">
        <ele>30.4381</ele>
        <time>2020-09-26T12:00:22.900Z</time>
      </trkpt>
      <trkpt lat="65.40621" lon="21.46177">
        <ele>30.570404</ele>
        <time>2020-09-26T12:00:25.981Z</time>
      </trkpt>
      <trkpt lat="65.40609" lon="21.4618">
        <ele>30.70194</ele>
        <time>2020-09-26T12:00:28.907Z</time>
      </trkpt>
      <trkpt lat="65.40597" lon="21.46183">
        <ele>30.832584</ele>
        <time>2020-09-26T12:00:31.929Z</time>
      </trkpt>
      <trkpt lat="65.40586" lon="21.46185">
        <ele>30.96412</ele>
        <time>2020-09-26T12:00:34.919Z</time>
      </trkpt>
      <trkpt lat="65.40575" lon="21.46188">
        <ele>31.039647</ele>
        <time>2020-09-26T12:00:37.904Z</time>
      </trkpt>
      <trkpt lat="65.40564" lon="21.46189">
        <ele>31.097132</ele>
        <time>2020-09-26T12:00:40.934Z</time>
      </trkpt>
      <trkpt lat="65.40553" lon="21.46192">
        <ele>31.153174</ele>
        <time>2020-09-26T12:00:43.923Z</time>
      </trkpt>
      <trkpt lat="65.40542" lon="21.46194">
        <ele>31.211809</ele>
        <time>2020-09-26T12:00:46.900Z</time>
      </trkpt>
      <trkpt lat="65.4053" lon="21.46196">
        <ele>31.269255</ele>
        <time>2020-09-26T12:00:49.896Z</time>
      </trkpt>
      <trkpt lat="65.40519" lon="21.46196">
        <ele>31.326093</ele>
        <time>2020-09-26T12:00:52.911Z</time>
      </trkpt>
      <trkpt lat="65.40508" lon="21.46195">
        <ele>31.384491</ele>
        <time>2020-09-26T12:00:55.905Z</time>
      </trkpt>
      <trkpt lat="65.40497" lon="21.46194">
        <ele>31.441408</ele>
        <time>2020-09-26T12:00:58.912Z</time>
      </trkpt>
      <trkpt lat="65.40486" lon="21.4619">
        <ele>31.498319</ele>
        <time>2020-09-26T12:01:01.916Z</time>
      </trkpt>
      <trkpt lat="65.40475" lon="21.46185">
        <ele>31.558317</ele>
        <time>2020-09-26T12:01:04.936Z</time>
      </trkpt>
      <trkpt lat="65.40463" lon="21.46179">
        <ele>31.61996</ele>
        <time>2020-09-26T12:01:07.909Z</time>
      </trkpt>
      <trkpt lat="65.40451" lon="21.46172">
        <ele>31.685374</ele>
        <time>2020-09-26T12:01:10.928Z</time>
      </trkpt>
      <trkpt lat="65.40439" lon="21.46163">
        <ele>31.750203</ele>
        <time>2020-09-26T12:01:13.899Z</time>
      </trkpt>
      <trkpt lat="65.40427" lon="21.46153">
        <ele>31.815296</ele>
        <time>2020-09-26T12:01:16.901Z</time>
      </trkpt>
      <trkpt lat="65.40415" lon="21.46142">
        <ele>31.880466</ele>
        <time>2020-09-26T12:01:19.906Z</time>
      </trkpt>
      <trkpt lat="65.40403" lon="21.46131">
        <ele>31.94035</ele>
        <time>2020-09-26T12:01:22.940Z</time>
      </trkpt>
      <trkpt lat="65.40392" lon="21.46119">
        <ele>31.984519</ele>
        <time>2020-09-26T12:01:25.921Z</time>
      </trkpt>
      <trkpt lat="65.40381" lon="21.46107">
        <ele>32.026779</ele>
        <time>2020-09-26T12:01:28.898Z</time>
      </trkpt>
      <trkpt lat="65.40371" lon="21.46096">
        <ele>32.067568</ele>
        <time>2020-09-26T12:01:31.914Z</time>
      </trkpt>
      <trkpt lat="65.4036" lon="21.46086">
        <ele>32.109056</ele>
        <time>2020-09-26T12:01:34.897Z</time>
      </trkpt>
      <trkpt lat="65.40349" lon="21.46074">
        <ele>32.151831</ele>
        <time>2020-09-26T12:01:37.905Z</time>
      </trkpt>
      <trkpt lat="65.40339" lon="21.46062">
        <ele>32.194564</ele>
        <time>2020-09-26T12:01:40.923Z</time>
      </trkpt>
      <trkpt lat="65.40328" lon="21.4605">
        <ele>32.237337</ele>
        <time>2020-09-26T12:01:43.916Z</time>
      </trkpt>
      <trkpt lat="65.40317" lon="21.46036">
        <ele>32.280757</ele>
        <time>2020-09-26T12:01:46.902Z</time>
      </trkpt>
      <trkpt lat="65.40306" lon="21.46024">
        <ele>32.324449</ele>
        <time>2020-09-26T12:01:49.931Z</time>
      </trkpt>
      <trkpt lat="65.40295" lon="21.46011">
        <ele>32.368715</ele>
        <time>2020-09-26T12:01:52.909Z</time>
      </trkpt>
      <trkpt lat="65.40284" lon="21.45998">
        <ele>32.413441</ele>
        <time>2020-09-26T12:01:55.914Z</time>
      </trkpt>
      <trkpt lat="65.40273" lon="21.45984">
        <ele>32.458195</ele>
        <time>2020-09-26T12:01:58.926Z</time>
      </trkpt>
      <trkpt lat="65.40262" lon="21.4597">
        <ele>32.50133</ele>
        <time>2020-09-26T12:02:01.932Z</time>
      </trkpt>
      <trkpt lat="65.40251" lon="21.45956">
        <ele>32.547018</ele>
        <time>2020-09-26T12:02:04.897Z</time>
      </trkpt>
      <trkpt lat="65.40239" lon="21.45943">
        <ele>32.583196</ele>
        <time>2020-09-26T12:02:07.904Z</time>
      </trkpt>
      <trkpt lat="65.40227" lon="21.45928">
        <ele>32.606367</ele>
        <time>2020-09-26T12:02:10.906Z</time>
      </trkpt>
      <trkpt lat="65.40219" lon="21.45918">
        <ele>32.621809</ele>
        <time>2020-09-26T12:02:12.927Z</time>
      </trkpt>
      <trkpt lat="65.40207" lon="21.45903">
        <ele>32.644677</ele>
        <time>2020-09-26T12:02:15.945Z</time>
      </trkpt>
      <trkpt lat="65.40199" lon="21.45893">
        <ele>32.660632</ele>
        <time>2020-09-26T12:02:17.919Z</time>
      </trkpt>
      <trkpt lat="65.40187" lon="21.45877">
        <ele>32.683871</ele>
        <time>2020-09-26T12:02:20.922Z</time>
      </trkpt>
      <trkpt lat="65.40175" lon="21.45863">
        <ele>32.706627</ele>
        <time>2020-09-26T12:02:23.911Z</time>
      </trkpt>
      <trkpt lat="65.40167" lon="21.45855">
        <ele>32.722348</ele>
        <time>2020-09-26T12:02:25.903Z</time>
      </trkpt>
      <trkpt lat="65.40158" lon="21.45845">
        <ele>32.738057</ele>
        <time>2020-09-26T12:02:27.941Z</time>
      </trkpt>
      <trkpt lat="65.4015" lon="21.45836">
        <ele>32.753483</ele>
        <time>2020-09-26T12:02:29.896Z</time>
      </trkpt>
      <trkpt lat="65.40142" lon="21.45827">
        <ele>32.769408</ele>
        <time>2020-09-26T12:02:31.921Z</time>
      </trkpt>
      <trkpt lat="65.40133" lon="21.45818">
        <ele>32.785503</ele>
        <time>2020-09-26T12:02:33.911Z</time>
      </trkpt>
      <trkpt lat="65.40124" lon="21.4581">
        <ele>32.802153</ele>
        <time>2020-09-26T12:02:35.906Z</time>
      </trkpt>
      <trkpt lat="65.40115" lon="21.45802">
        <ele>32.818813</ele>
        <time>2020-09-26T12:02:37.904Z</time>
      </trkpt>
      <trkpt lat="65.40106" lon="21.45793">
        <ele>32.835785</ele>
        <time>2020-09-26T12:02:39.904Z</time>
      </trkpt>
      <trkpt lat="65.40097" lon="21.45786">
        <ele>32.852862</ele>
        <time>2020-09-26T12:02:41.915Z</time>
      </trkpt>
      <trkpt lat="65.40087" lon="21.45778">
        <ele>32.870334</ele>
        <time>2020-09-26T12:02:43.934Z</time>
      </trkpt>
      <trkpt lat="65.40078" lon="21.4577">
        <ele>32.914384</ele>
        <time>2020-09-26T12:02:45.900Z</time>
      </trkpt>
      <trkpt lat="65.40068" lon="21.45762">
        <ele>33.018041</ele>
        <time>2020-09-26T12:02:47.915Z</time>
      </trkpt>
      <trkpt lat="65.40058" lon="21.45755">
        <ele>33.121781</ele>
        <time>2020-09-26T12:02:49.980Z</time>
      </trkpt>
      <trkpt lat="65.40049" lon="21.45748">
        <ele>33.224795</ele>
        <time>2020-09-26T12:02:51.908Z</time>
      </trkpt>
      <trkpt lat="65.40038" lon="21.4574">
        <ele>33.332186</ele>
        <time>2020-09-26T12:02:53.920Z</time>
      </trkpt>
      <trkpt lat="65.40028" lon="21.45733">
        <ele>33.439708</ele>
        <time>2020-09-26T12:02:55.899Z</time>
      </trkpt>
      <trkpt lat="65.40017" lon="21.45727">
        <ele>33.556425</ele>
        <time>2020-09-26T12:02:57.899Z</time>
      </trkpt>
      <trkpt lat="65.40005" lon="21.45721">
        <ele>33.680709</ele>
        <time>2020-09-26T12:02:59.916Z</time>
      </trkpt>
      <trkpt lat="65.39993" lon="21.45716">
        <ele>33.80436</ele>
        <time>2020-09-26T12:03:01.906Z</time>
      </trkpt>
      <trkpt lat="65.39981" lon="21.45711">
        <ele>33.927728</ele>
        <time>2020-09-26T12:03:03.926Z</time>
      </trkpt>
      <trkpt lat="65.39969" lon="21.45707">
        <ele>34.048766</ele>
        <time>2020-09-26T12:03:05.927Z</time>
      </trkpt>
      <trkpt lat="65.39958" lon="21.45703">
        <ele>34.167557</ele>
        <time>2020-09-26T12:03:07.923Z</time>
      </trkpt>
      <trkpt lat="65.39946" lon="21.45699">
        <ele>34.285343</ele>
        <time>2020-09-26T12:03:09.926Z</time>
      </trkpt>
      <trkpt lat="65.39935" lon="21.45696">
        <ele>34.398937</ele>
        <time>2020-09-26T12:03:11.889Z</time>
      </trkpt>
      <trkpt lat="65.39924" lon="21.45692">
        <ele>34.509514</ele>
        <time>2020-09-26T12:03:13.919Z</time>
      </trkpt>
      <trkpt lat="65.39914" lon="21.45689">
        <ele>34.618139</ele>
        <time>2020-09-26T12:03:15.906Z</time>
      </trkpt>
      <trkpt lat="65.39904" lon="21.45685">
        <ele>34.73254</ele>
        <time>2020-09-26T12:03:17.911Z</time>
      </trkpt>
      <trkpt lat="65.39894" lon="21.45683">
        <ele>34.915852</ele>
        <time>2020-09-26T12:03:19.910Z</time>
      </trkpt>
      <trkpt lat="65.39885" lon="21.45681">
        <ele>35.085609</ele>
        <time>2020-09-26T12:03:21.930Z</time>
      </trkpt>
      <trkpt lat="65.39872" lon="21.45676">
        <ele>35.324634</ele>
        <time>2020-09-26T12:03:24.901Z</time>
      </trkpt>
      <trkpt lat="65.3986" lon="21.45672">
        <ele>35.565102</ele>
        <time>2020-09-26T12:03:27.912Z</time>
      </trkpt>
      <trkpt lat="65.39847" lon="21.45669">
        <ele>35.806888</ele>
        <time>2020-09-26T12:03:30.913Z</time>
      </trkpt>
      <trkpt lat="65.39834" lon="21.45664">
        <ele>36.046494</ele>
        <time>2020-09-26T12:03:33.905Z</time>
      </trkpt>
      <trkpt lat="65.39822" lon="21.45661">
        <ele>36.279313</ele>
        <time>2020-09-26T12:03:36.898Z</time>
      </trkpt>
      <trkpt lat="65.3981" lon="21.45658">
        <ele>36.502015</ele>
        <time>2020-09-26T12:03:39.907Z</time>
      </trkpt>
      <trkpt lat="65.39799" lon="21.45654">
        <ele>36.708993</ele>
        <time>2020-09-26T12:03:42.918Z</time>
      </trkpt>
      <trkpt lat="65.39788" lon="21.45652">
        <ele>36.920183</ele>
        <time>2020-09-26T12:03:45.896Z</time>
      </trkpt>
      <trkpt lat="65.39777" lon="21.45648">
        <ele>37.12159</ele>
        <time>2020-09-26T12:03:48.929Z</time>
      </trkpt>
      <trkpt lat="65.39767" lon="21.45646">
        <ele>37.311806</ele>
        <time>2020-09-26T12:03:51.929Z</time>
      </trkpt>
      <trkpt lat="65.39758" lon="21.45643">
        <ele>37.491767</ele>
        <time>2020-09-26T12:03:54.900Z</time>
      </trkpt>
      <trkpt lat="65.39749" lon="21.4564">
        <ele>37.663708</ele>
        <time>2020-09-26T12:03:57.935Z</time>
      </trkpt>
      <trkpt lat="65.3974" lon="21.45637">
        <ele>37.836331</ele>
        <time>2020-09-26T12:04:00.926Z</time>
      </trkpt>
      <trkpt lat="65.3973" lon="21.45635">
        <ele>38.009828</ele>
        <time>2020-09-26T12:04:03.900Z</time>
      </trkpt>
      <trkpt lat="65.39719" lon="21.45632">
        <ele>38.109291</ele>
        <time>2020-09-26T12:04:07.895Z</time>
      </trkpt>
      <trkpt lat="65.39707" lon="21.45632">
        <ele>38.145735</ele>
        <time>2020-09-26T12:04:11.954Z</time>
      </trkpt>
      <trkpt lat="65.39695" lon="21.45631">
        <ele>38.182492</ele>
        <time>2020-09-26T12:04:15.908Z</time>
      </trkpt>
      <trkpt lat="65.39684" lon="21.45632">
        <ele>38.218332</ele>
        <time>2020-09-26T12:04:19.916Z</time>
      </trkpt>
      <trkpt lat="65.39674" lon="21.45621">
        <ele>38.250622</ele>
        <time>2020-09-26T12:04:23.906Z</time>
      </trkpt>
      <trkpt lat="65.3967" lon="21.45601">
        <ele>38.280159</ele>
        <time>2020-09-26T12:04:26.939Z</time>
      </trkpt>
      <trkpt lat="65.39667" lon="21.45579">
        <ele>38.310452</ele>
        <time>2020-09-26T12:04:29.894Z</time>
      </trkpt>
      <trkpt lat="65.39661" lon="21.45557">
        <ele>38.3444</ele>
        <time>2020-09-26T12:04:32.941Z</time>
      </trkpt>
      <trkpt lat="65.39653" lon="21.45533">
        <ele>38.383182</ele>
        <time>2020-09-26T12:04:35.909Z</time>
      </trkpt>
      <trkpt lat="65.39644" lon="21.45511">
        <ele>38.424962</ele>
        <time>2020-09-26T12:04:38.899Z</time>
      </trkpt>
      <trkpt lat="65.39636" lon="21.45495">
        <ele>38.455461</ele>
        <time>2020-09-26T12:04:40.899Z</time>
      </trkpt>
      <trkpt lat="65.39628" lon="21.45481">
        <ele>38.487638</ele>
        <time>2020-09-26T12:04:42.918Z</time>
      </trkpt>
      <trkpt lat="65.39618" lon="21.45469">
        <ele>38.521043</ele>
        <time>2020-09-26T12:04:44.919Z</time>
      </trkpt>
      <trkpt lat="65.39608" lon="21.45458">
        <ele>38.555428</ele>
        <time>2020-09-26T12:04:46.901Z</time>
      </trkpt>
      <trkpt lat="65.39596" lon="21.4545">
        <ele>38.594151</ele>
        <time>2020-09-26T12:04:48.905Z</time>
      </trkpt>
      <trkpt lat="65.39583" lon="21.45446">
        <ele>38.636261</ele>
        <time>2020-09-26T12:04:50.918Z</time>
      </trkpt>
      <trkpt lat="65.39569" lon="21.45445">
        <ele>38.166988</ele>
        <time>2020-09-26T12:04:52.917Z</time>
      </trkpt>
      <trkpt lat="65.39554" lon="21.45449">
        <ele>37.519343</ele>
        <time>2020-09-26T12:04:54.919Z</time>
      </trkpt>
      <trkpt lat="65.39538" lon="21.45457">
        <ele>36.842121</ele>
        <time>2020-09-26T12:04:56.899Z</time>
      </trkpt>
      <trkpt lat="65.39523" lon="21.45469">
        <ele>36.159117</ele>
        <time>2020-09-26T12:04:58.891Z</time>
      </trkpt>
      <trkpt lat="65.39508" lon="21.45482">
        <ele>35.459615</ele>
        <time>2020-09-26T12:05:00.917Z</time>
      </trkpt>
      <trkpt lat="65.39492" lon="21.45491">
        <ele>34.769211</ele>
        <time>2020-09-26T12:05:02.897Z</time>
      </trkpt>
      <trkpt lat="65.39476" lon="21.45491">
        <ele>34.073686</ele>
        <time>2020-09-26T12:05:04.902Z</time>
      </trkpt>
      <trkpt lat="65.39461" lon="21.45476">
        <ele>33.407152</ele>
        <time>2020-09-26T12:05:06.900Z</time>
      </trkpt>
      <trkpt lat="65.39449" lon="21.45452">
        <ele>32.733186</ele>
        <time>2020-09-26T12:05:08.914Z</time>
      </trkpt>
      <trkpt lat="65.39436" lon="21.45428">
        <ele>32.040328</ele>
        <time>2020-09-26T12:05:10.923Z</time>
      </trkpt>
      <trkpt lat="65.39423" lon="21.45403">
        <ele>31.337429</ele>
        <time>2020-09-26T12:05:12.953Z</time>
      </trkpt>
      <trkpt lat="65.3941" lon="21.45379">
        <ele>30.773021</ele>
        <time>2020-09-26T12:05:14.909Z</time>
      </trkpt>
      <trkpt lat="65.39397" lon="21.45355">
        <ele>30.364314</ele>
        <time>2020-09-26T12:05:16.956Z</time>
      </trkpt>
      <trkpt lat="65.39384" lon="21.45333">
        <ele>29.957079</ele>
        <time>2020-09-26T12:05:18.908Z</time>
      </trkpt>
      <trkpt lat="65.39371" lon="21.45311">
        <ele>29.553953</ele>
        <time>2020-09-26T12:05:20.926Z</time>
      </trkpt>
      <trkpt lat="65.39358" lon="21.45289">
        <ele>29.156952</ele>
        <time>2020-09-26T12:05:22.947Z</time>
      </trkpt>
      <trkpt lat="65.39344" lon="21.45266">
        <ele>28.753695</ele>
        <time>2020-09-26T12:05:24.945Z</time>
      </trkpt>
      <trkpt lat="65.39331" lon="21.45244">
        <ele>28.35202</ele>
        <time>2020-09-26T12:05:26.914Z</time>
      </trkpt>
      <trkpt lat="65.39318" lon="21.45221">
        <ele>27.948299</ele>
        <time>2020-09-26T12:05:28.915Z</time>
      </trkpt>
      <trkpt lat="65.39304" lon="21.45199">
        <ele>27.540475</ele>
        <time>2020-09-26T12:05:30.915Z</time>
      </trkpt>
      <trkpt lat="65.39291" lon="21.45177">
        <ele>27.133522</ele>
        <time>2020-09-26T12:05:32.937Z</time>
      </trkpt>
      <trkpt lat="65.39278" lon="21.45156">
        <ele>26.735632</ele>
        <time>2020-09-26T12:05:34.942Z</time>
      </trkpt>
      <trkpt lat="65.39265" lon="21.45135">
        <ele>26.457985</ele>
        <time>2020-09-26T12:05:36.907Z</time>
      </trkpt>
      <trkpt lat="65.39252" lon="21.45115">
        <ele>26.377422</ele>
        <time>2020-09-26T12:05:38.926Z</time>
      </trkpt>
      <trkpt lat="65.3924" lon="21.45097">
        <ele>26.301082</ele>
        <time>2020-09-26T12:05:40.915Z</time>
      </trkpt>
      <trkpt lat="65.39229" lon="21.45078">
        <ele>26.227214</ele>
        <time>2020-09-26T12:05:42.906Z</time>
      </trkpt>
      <trkpt lat="65.39218" lon="21.45061">
        <ele>26.158377</ele>
        <time>2020-09-26T12:05:44.900Z</time>
      </trkpt>
      <trkpt lat="65.39208" lon="21.45045">
        <ele>26.093313</ele>
        <time>2020-09-26T12:05:46.915Z</time>
      </trkpt>
      <trkpt lat="65.39198" lon="21.45029">
        <ele>26.032462</ele>
        <time>2020-09-26T12:05:48.907Z</time>
      </trkpt>
      <trkpt lat="65.39189" lon="21.45013">
        <ele>25.969222</ele>
        <time>2020-09-26T12:05:50.917Z</time>
      </trkpt>
      <trkpt lat="65.39179" lon="21.44997">
        <ele>25.905164</ele>
        <time>2020-09-26T12:05:52.896Z</time>
      </trkpt>
      <trkpt lat="65.39169" lon="21.4498">
        <ele>25.839598</ele>
        <time>2020-09-26T12:05:54.930Z</time>
      </trkpt>
      <trkpt lat="65.39159" lon="21.44963">
        <ele>25.774214</ele>
        <time>2020-09-26T12:05:56.914Z</time>
      </trkpt>
      <trkpt lat="65.39149" lon="21.44946">
        <ele>25.711549</ele>
        <time>2020-09-26T12:05:58.925Z</time>
      </trkpt>
      <trkpt lat="65.3914" lon="21.4493">
        <ele>25.649498</ele>
        <time>2020-09-26T12:06:00.918Z</time>
      </trkpt>
      <trkpt lat="65.3913" lon="21.44914">
        <ele>25.586506</ele>
        <time>2020-09-26T12:06:02.900Z</time>
      </trkpt>
      <trkpt lat="65.3912" lon="21.44898">
        <ele>25.529594</ele>
        <time>2020-09-26T12:06:04.919Z</time>
      </trkpt>
      <trkpt lat="65.39111" lon="21.44883">
        <ele>25.56846</ele>
        <time>2020-09-26T12:06:06.904Z</time>
      </trkpt>
      <trkpt lat="65.39102" lon="21.44867">
        <ele>25.607208</ele>
        <time>2020-09-26T12:06:08.946Z</time>
      </trkpt>
      <trkpt lat="65.39092" lon="21.44852">
        <ele>25.646246</ele>
        <time>2020-09-26T12:06:10.935Z</time>
      </trkpt>
      <trkpt lat="65.39083" lon="21.44836">
        <ele>25.684912</ele>
        <time>2020-09-26T12:06:12.913Z</time>
      </trkpt>
      <trkpt lat="65.39073" lon="21.44821">
        <ele>25.72406</ele>
        <time>2020-09-26T12:06:14.923Z</time>
      </trkpt>
      <trkpt lat="65.39064" lon="21.44805">
        <ele>25.763287</ele>
        <time>2020-09-26T12:06:16.923Z</time>
      </trkpt>
      <trkpt lat="65.39054" lon="21.44789">
        <ele>25.803117</ele>
        <time>2020-09-26T12:06:18.899Z</time>
      </trkpt>
      <trkpt lat="65.39044" lon="21.44773">
        <ele>25.844852</ele>
        <time>2020-09-26T12:06:20.913Z</time>
      </trkpt>
      <trkpt lat="65.39034" lon="21.44758">
        <ele>25.88548</ele>
        <time>2020-09-26T12:06:22.899Z</time>
      </trkpt>
      <trkpt lat="65.39024" lon="21.44743">
        <ele>25.926775</ele>
        <time>2020-09-26T12:06:24.927Z</time>
      </trkpt>
      <trkpt lat="65.39014" lon="21.44727">
        <ele>25.967498</ele>
        <time>2020-09-26T12:06:26.905Z</time>
      </trkpt>
      <trkpt lat="65.39004" lon="21.4471">
        <ele>26.009015</ele>
        <time>2020-09-26T12:06:28.908Z</time>
      </trkpt>
      <trkpt lat="65.38994" lon="21.44694">
        <ele>26.049614</ele>
        <time>2020-09-26T12:06:30.948Z</time>
      </trkpt>
      <trkpt lat="65.38985" lon="21.44677">
        <ele>26.088668</ele>
        <time>2020-09-26T12:06:32.938Z</time>
      </trkpt>
      <trkpt lat="65.38976" lon="21.44662">
        <ele>26.12629</ele>
        <time>2020-09-26T12:06:34.913Z</time>
      </trkpt>
      <trkpt lat="65.38967" lon="21.44648">
        <ele>26.11491</ele>
        <time>2020-09-26T12:06:36.916Z</time>
      </trkpt>
      <trkpt lat="65.38957" lon="21.44633">
        <ele>26.071986</ele>
        <time>2020-09-26T12:06:38.914Z</time>
      </trkpt>
      <trkpt lat="65.38949" lon="21.44618">
        <ele>26.030446</ele>
        <time>2020-09-26T12:06:40.940Z</time>
      </trkpt>
      <trkpt lat="65.3894" lon="21.44602">
        <ele>25.989194</ele>
        <time>2020-09-26T12:06:42.903Z</time>
      </trkpt>
      <trkpt lat="65.38931" lon="21.44588">
        <ele>25.947054</ele>
        <time>2020-09-26T12:06:44.935Z</time>
      </trkpt>
      <trkpt lat="65.38922" lon="21.44572">
        <ele>25.904004</ele>
        <time>2020-09-26T12:06:46.901Z</time>
      </trkpt>
      <trkpt lat="65.38912" lon="21.44557">
        <ele>25.859814</ele>
        <time>2020-09-26T12:06:48.914Z</time>
      </trkpt>
      <trkpt lat="65.38903" lon="21.44541">
        <ele>25.81558</ele>
        <time>2020-09-26T12:06:50.915Z</time>
      </trkpt>
      <trkpt lat="65.38893" lon="21.44525">
        <ele>25.770252</ele>
        <time>2020-09-26T12:06:52.909Z</time>
      </trkpt>
      <trkpt lat="65.38884" lon="21.44509">
        <ele>25.724471</ele>
        <time>2020-09-26T12:06:54.913Z</time>
      </trkpt>
      <trkpt lat="65.38874" lon="21.44494">
        <ele>25.67987</ele>
        <time>2020-09-26T12:06:56.907Z</time>
      </trkpt>
      <trkpt lat="65.38865" lon="21.44479">
        <ele>25.636622</ele>
        <time>2020-09-26T12:06:58.900Z</time>
      </trkpt>
      <trkpt lat="65.38856" lon="21.44465">
        <ele>25.594663</ele>
        <time>2020-09-26T12:07:00.903Z</time>
      </trkpt>
      <trkpt lat="65.38846" lon="21.4445">
        <ele>25.551913</ele>
        <time>2020-09-26T12:07:02.918Z</time>
      </trkpt>
      <trkpt lat="65.38837" lon="21.44435">
        <ele>25.510091</ele>
        <time>2020-09-26T12:07:04.922Z</time>
      </trkpt>
      <trkpt lat="65.38829" lon="21.44421">
        <ele>25.469132</ele>
        <time>2020-09-26T12:07:06.939Z</time>
      </trkpt>
      <trkpt lat="65.3882" lon="21.44407">
        <ele>25.473543</ele>
        <time>2020-09-26T12:07:08.915Z</time>
      </trkpt>
      <trkpt lat="65.38811" lon="21.44392">
        <ele>25.539422</ele>
        <time>2020-09-26T12:07:10.912Z</time>
      </trkpt>
      <trkpt lat="65.38803" lon="21.44378">
        <ele>25.605274</ele>
        <time>2020-09-26T12:07:12.901Z</time>
      </trkpt>
      <trkpt lat="65.38794" lon="21.44364">
        <ele>25.671644</ele>
        <time>2020-09-26T12:07:14.937Z</time>
      </trkpt>
      <trkpt lat="65.38785" lon="21.4435">
        <ele>25.739201</ele>
        <time>2020-09-26T12:07:16.948Z</time>
      </trkpt>
      <trkpt lat="65.38776" lon="21.44335">
        <ele>25.807664</ele>
        <time>2020-09-26T12:07:18.915Z</time>
      </trkpt>
      <trkpt lat="65.38767" lon="21.44321">
        <ele>25.874792</ele>
        <time>2020-09-26T12:07:20.896Z</time>
      </trkpt>
      <trkpt lat="65.38758" lon="21.44307">
        <ele>25.94073</ele>
        <time>2020-09-26T12:07:22.916Z</time>
      </trkpt>
      <trkpt lat="65.38749" lon="21.44294">
        <ele>26.005625</ele>
        <time>2020-09-26T12:07:24.905Z</time>
      </trkpt>
      <trkpt lat="65.38741" lon="21.44279">
        <ele>26.070961</ele>
        <time>2020-09-26T12:07:26.900Z</time>
      </trkpt>
      <trkpt lat="65.38732" lon="21.44266">
        <ele>26.136756</ele>
        <time>2020-09-26T12:07:28.918Z</time>
      </trkpt>
      <trkpt lat="65.38723" lon="21.44252">
        <ele>26.200841</ele>
        <time>2020-09-26T12:07:30.947Z</time>
      </trkpt>
      <trkpt lat="65.38715" lon="21.44238">
        <ele>26.26485</ele>
        <time>2020-09-26T12:07:32.910Z</time>
      </trkpt>
      <trkpt lat="65.38707" lon="21.44224">
        <ele>26.328416</ele>
        <time>2020-09-26T12:07:34.916Z</time>
      </trkpt>
      <trkpt lat="65.38698" lon="21.44211">
        <ele>26.392979</ele>
        <time>2020-09-26T12:07:36.947Z</time>
      </trkpt>
      <trkpt lat="65.38689" lon="21.44197">
        <ele>26.45773</ele>
        <time>2020-09-26T12:07:38.928Z</time>
      </trkpt>
      <trkpt lat="65.3868" lon="21.44183">
        <ele>26.523668</ele>
        <time>2020-09-26T12:07:40.927Z</time>
      </trkpt>
      <trkpt lat="65.38672" lon="21.44169">
        <ele>26.611334</ele>
        <time>2020-09-26T12:07:42.913Z</time>
      </trkpt>
      <trkpt lat="65.38664" lon="21.44155">
        <ele>26.762594</ele>
        <time>2020-09-26T12:07:44.897Z</time>
      </trkpt>
      <trkpt lat="65.38656" lon="21.44141">
        <ele>26.909978</ele>
        <time>2020-09-26T12:07:46.929Z</time>
      </trkpt>
      <trkpt lat="65.38647" lon="21.44127">
        <ele>27.064052</ele>
        <time>2020-09-26T12:07:48.895Z</time>
      </trkpt>
      <trkpt lat="65.38639" lon="21.44114">
        <ele>27.214252</ele>
        <time>2020-09-26T12:07:50.911Z</time>
      </trkpt>
      <trkpt lat="65.3863" lon="21.441">
        <ele>27.367835</ele>
        <time>2020-09-26T12:07:52.897Z</time>
      </trkpt>
      <trkpt lat="65.38622" lon="21.44086">
        <ele>27.519096</ele>
        <time>2020-09-26T12:07:54.917Z</time>
      </trkpt>
      <trkpt lat="65.38614" lon="21.44073">
        <ele>27.670002</ele>
        <time>2020-09-26T12:07:56.903Z</time>
      </trkpt>
      <trkpt lat="65.38605" lon="21.44059">
        <ele>27.819325</ele>
        <time>2020-09-26T12:07:58.896Z</time>
      </trkpt>
      <trkpt lat="65.38597" lon="21.44045">
        <ele>27.966356</ele>
        <time>2020-09-26T12:08:00.951Z</time>
      </trkpt>
      <trkpt lat="65.38589" lon="21.44033">
        <ele>28.11096</ele>
        <time>2020-09-26T12:08:02.944Z</time>
      </trkpt>
      <trkpt lat="65.38581" lon="21.4402">
        <ele>28.255224</ele>
        <time>2020-09-26T12:08:04.944Z</time>
      </trkpt>
      <trkpt lat="65.38573" lon="21.44007">
        <ele>28.406537</ele>
        <time>2020-09-26T12:08:06.923Z</time>
      </trkpt>
      <trkpt lat="65.38564" lon="21.43993">
        <ele>28.556738</ele>
        <time>2020-09-26T12:08:08.904Z</time>
      </trkpt>
      <trkpt lat="65.38556" lon="21.4398">
        <ele>28.703274</ele>
        <time>2020-09-26T12:08:10.914Z</time>
      </trkpt>
      <trkpt lat="65.38548" lon="21.43968">
        <ele>28.849811</ele>
        <time>2020-09-26T12:08:12.903Z</time>
      </trkpt>
      <trkpt lat="65.3854" lon="21.43954">
        <ele>28.997727</ele>
        <time>2020-09-26T12:08:14.933Z</time>
      </trkpt>
      <trkpt lat="65.38531" lon="21.43941">
        <ele>29.150408</ele>
        <time>2020-09-26T12:08:16.911Z</time>
      </trkpt>
      <trkpt lat="65.38523" lon="21.43927">
        <ele>29.299995</ele>
        <time>2020-09-26T12:08:18.915Z</time>
      </trkpt>
      <trkpt lat="65.38515" lon="21.43915">
        <ele>29.453569</ele>
        <time>2020-09-26T12:08:20.910Z</time>
      </trkpt>
      <trkpt lat="65.38507" lon="21.43903">
        <ele>29.604094</ele>
        <time>2020-09-26T12:08:22.934Z</time>
      </trkpt>
      <trkpt lat="65.38498" lon="21.43891">
        <ele>29.756644</ele>
        <time>2020-09-26T12:08:24.914Z</time>
      </trkpt>
      <trkpt lat="65.3849" lon="21.4388">
        <ele>29.90481</ele>
        <time>2020-09-26T12:08:26.922Z</time>
      </trkpt>
      <trkpt lat="65.38482" lon="21.43868">
        <ele>30.049936</ele>
        <time>2020-09-26T12:08:28.915Z</time>
      </trkpt>
      <trkpt lat="65.38474" lon="21.43857">
        <ele>30.194401</ele>
        <time>2020-09-26T12:08:30.945Z</time>
      </trkpt>
      <trkpt lat="65.38463" lon="21.43841">
        <ele>30.405367</ele>
        <time>2020-09-26T12:08:33.964Z</time>
      </trkpt>
      <trkpt lat="65.38455" lon="21.4383">
        <ele>30.547799</ele>
        <time>2020-09-26T12:08:35.916Z</time>
      </trkpt>
      <trkpt lat="65.38444" lon="21.43814">
        <ele>30.754691</ele>
        <time>2020-09-26T12:08:38.905Z</time>
      </trkpt>
      <trkpt lat="65.38432" lon="21.43799">
        <ele>30.965405</ele>
        <time>2020-09-26T12:08:41.912Z</time>
      </trkpt>
      <trkpt lat="65.38424" lon="21.43789">
        <ele>31.107634</ele>
        <time>2020-09-26T12:08:43.909Z</time>
      </trkpt>
      <trkpt lat="65.38413" lon="21.43775">
        <ele>31.307985</ele>
        <time>2020-09-26T12:08:46.908Z</time>
      </trkpt>
      <trkpt lat="65.38402" lon="21.4376">
        <ele>31.502747</ele>
        <time>2020-09-26T12:08:49.907Z</time>
      </trkpt>
      <trkpt lat="65.38392" lon="21.43746">
        <ele>31.682664</ele>
        <time>2020-09-26T12:08:52.919Z</time>
      </trkpt>
      <trkpt lat="65.38383" lon="21.43733">
        <ele>31.852818</ele>
        <time>2020-09-26T12:08:55.963Z</time>
      </trkpt>
      <trkpt lat="65.38373" lon="21.43721">
        <ele>32.021065</ele>
        <time>2020-09-26T12:08:58.916Z</time>
      </trkpt>
      <trkpt lat="65.38364" lon="21.43709">
        <ele>32.404281</ele>
        <time>2020-09-26T12:09:01.943Z</time>
      </trkpt>
      <trkpt lat="65.38355" lon="21.43695">
        <ele>32.938594</ele>
        <time>2020-09-26T12:09:04.934Z</time>
      </trkpt>
      <trkpt lat="65.38346" lon="21.43683">
        <ele>33.459764</ele>
        <time>2020-09-26T12:09:07.942Z</time>
      </trkpt>
      <trkpt lat="65.38338" lon="21.43671">
        <ele>33.965536</ele>
        <time>2020-09-26T12:09:10.934Z</time>
      </trkpt>
      <trkpt lat="65.38329" lon="21.43659">
        <ele>34.481213</ele>
        <time>2020-09-26T12:09:13.925Z</time>
      </trkpt>
      <trkpt lat="65.3832" lon="21.43645">
        <ele>35.031966</ele>
        <time>2020-09-26T12:09:16.913Z</time>
      </trkpt>
      <trkpt lat="65.38311" lon="21.43633">
        <ele>35.576439</ele>
        <time>2020-09-26T12:09:19.913Z</time>
      </trkpt>
      <trkpt lat="65.38301" lon="21.43621">
        <ele>36.130904</ele>
        <time>2020-09-26T12:09:22.905Z</time>
      </trkpt>
      <trkpt lat="65.38291" lon="21.43608">
        <ele>36.691908</ele>
        <time>2020-09-26T12:09:25.917Z</time>
      </trkpt>
      <trkpt lat="65.38282" lon="21.43596">
        <ele>37.229294</ele>
        <time>2020-09-26T12:09:28.932Z</time>
      </trkpt>
      <trkpt lat="65.38273" lon="21.43584">
        <ele>37.779713</ele>
        <time>2020-09-26T12:09:31.917Z</time>
      </trkpt>
      <trkpt lat="65.38264" lon="21.43572">
        <ele>38.304256</ele>
        <time>2020-09-26T12:09:34.903Z</time>
      </trkpt>
      <trkpt lat="65.38254" lon="21.43561">
        <ele>38.833942</ele>
        <time>2020-09-26T12:09:37.900Z</time>
      </trkpt>
      <trkpt lat="65.38245" lon="21.4355">
        <ele>39.357335</ele>
        <time>2020-09-26T12:09:40.913Z</time>
      </trkpt>
      <trkpt lat="65.38237" lon="21.43537">
        <ele>39.869756</ele>
        <time>2020-09-26T12:09:43.914Z</time>
      </trkpt>
      <trkpt lat="65.38229" lon="21.43525">
        <ele>40.362595</ele>
        <time>2020-09-26T12:09:46.911Z</time>
      </trkpt>
      <trkpt lat="65.38221" lon="21.43512">
        <ele>40.855434</ele>
        <time>2020-09-26T12:09:49.943Z</time>
      </trkpt>
      <trkpt lat="65.38213" lon="21.435">
        <ele>41.304723</ele>
        <time>2020-09-26T12:09:52.926Z</time>
      </trkpt>
      <trkpt lat="65.38204" lon="21.43489">
        <ele>41.392405</ele>
        <time>2020-09-26T12:09:55.895Z</time>
      </trkpt>
      <trkpt lat="65.38196" lon="21.43476">
        <ele>41.482175</ele>
        <time>2020-09-26T12:09:58.920Z</time>
      </trkpt>
      <trkpt lat="65.38187" lon="21.43465">
        <ele>41.569261</ele>
        <time>2020-09-26T12:10:01.941Z</time>
      </trkpt>
      <trkpt lat="65.38179" lon="21.43454">
        <ele>41.654825</ele>
        <time>2020-09-26T12:10:04.919Z</time>
      </trkpt>
      <trkpt lat="65.3817" lon="21.43442">
        <ele>41.744258</ele>
        <time>2020-09-26T12:10:07.926Z</time>
      </trkpt>
      <trkpt lat="65.38161" lon="21.4343">
        <ele>41.83853</ele>
        <time>2020-09-26T12:10:10.940Z</time>
      </trkpt>
      <trkpt lat="65.38152" lon="21.43418">
        <ele>41.929075</ele>
        <time>2020-09-26T12:10:13.904Z</time>
      </trkpt>
      <trkpt lat="65.38144" lon="21.43405">
        <ele>42.018265</ele>
        <time>2020-09-26T12:10:16.925Z</time>
      </trkpt>
      <trkpt lat="65.38135" lon="21.43394">
        <ele>42.109633</ele>
        <time>2020-09-26T12:10:19.934Z</time>
      </trkpt>
      <trkpt lat="65.38125" lon="21.43382">
        <ele>42.204275</ele>
        <time>2020-09-26T12:10:22.936Z</time>
      </trkpt>
      <trkpt lat="65.38116" lon="21.43371">
        <ele>42.29761</ele>
        <time>2020-09-26T12:10:25.922Z</time>
      </trkpt>
      <trkpt lat="65.38107" lon="21.43359">
        <ele>42.392671</ele>
        <time>2020-09-26T12:10:28.897Z</time>
      </trkpt>
      <trkpt lat="65.38097" lon="21.43346">
        <ele>42.491785</ele>
        <time>2020-09-26T12:10:31.935Z</time>
      </trkpt>
      <trkpt lat="65.38087" lon="21.43335">
        <ele>42.588841</ele>
        <time>2020-09-26T12:10:34.955Z</time>
      </trkpt>
      <trkpt lat="65.38078" lon="21.43324">
        <ele>42.683303</ele>
        <time>2020-09-26T12:10:37.920Z</time>
      </trkpt>
      <trkpt lat="65.38068" lon="21.43313">
        <ele>42.777765</ele>
        <time>2020-09-26T12:10:40.901Z</time>
      </trkpt>
      <trkpt lat="65.38059" lon="21.43302">
        <ele>42.871949</ele>
        <time>2020-09-26T12:10:43.918Z</time>
      </trkpt>
      <trkpt lat="65.38049" lon="21.4329">
        <ele>42.704431</ele>
        <time>2020-09-26T12:10:46.925Z</time>
      </trkpt>
      <trkpt lat="65.38038" lon="21.43278">
        <ele>42.339513</ele>
        <time>2020-09-26T12:10:49.956Z</time>
      </trkpt>
      <trkpt lat="65.38026" lon="21.43266">
        <ele>41.975482</ele>
        <time>2020-09-26T12:10:52.896Z</time>
      </trkpt>
      <trkpt lat="65.38015" lon="21.43254">
        <ele>41.609691</ele>
        <time>2020-09-26T12:10:55.909Z</time>
      </trkpt>
      <trkpt lat="65.38004" lon="21.43241">
        <ele>41.227992</ele>
        <time>2020-09-26T12:10:58.925Z</time>
      </trkpt>
      <trkpt lat="65.37992" lon="21.43229">
        <ele>40.845443</ele>
        <time>2020-09-26T12:11:01.921Z</time>
      </trkpt>
      <trkpt lat="65.37981" lon="21.43218">
        <ele>40.480628</ele>
        <time>2020-09-26T12:11:04.915Z</time>
      </trkpt>
      <trkpt lat="65.37969" lon="21.43206">
        <ele>40.102315</ele>
        <time>2020-09-26T12:11:07.939Z</time>
      </trkpt>
      <trkpt lat="65.37957" lon="21.43194">
        <ele>39.706258</ele>
        <time>2020-09-26T12:11:10.916Z</time>
      </trkpt>
      <trkpt lat="65.37949" lon="21.43185">
        <ele>39.427925</ele>
        <time>2020-09-26T12:11:12.907Z</time>
      </trkpt>
      <trkpt lat="65.3794" lon="21.43177">
        <ele>39.140169</ele>
        <time>2020-09-26T12:11:14.918Z</time>
      </trkpt>
      <trkpt lat="65.37931" lon="21.43169">
        <ele>38.854386</ele>
        <time>2020-09-26T12:11:16.931Z</time>
      </trkpt>
      <trkpt lat="65.37922" lon="21.4316">
        <ele>38.578835</ele>
        <time>2020-09-26T12:11:18.945Z</time>
      </trkpt>
      <trkpt lat="65.37913" lon="21.43154">
        <ele>38.299122</ele>
        <time>2020-09-26T12:11:20.933Z</time>
      </trkpt>
      <trkpt lat="65.37904" lon="21.43147">
        <ele>38.015036</ele>
        <time>2020-09-26T12:11:22.926Z</time>
      </trkpt>
      <trkpt lat="65.37895" lon="21.4314">
        <ele>37.726924</ele>
        <time>2020-09-26T12:11:24.918Z</time>
      </trkpt>
      <trkpt lat="65.37886" lon="21.43131">
        <ele>37.465484</ele>
        <time>2020-09-26T12:11:26.920Z</time>
      </trkpt>
      <trkpt lat="65.37877" lon="21.43123">
        <ele>37.28772</ele>
        <time>2020-09-26T12:11:28.912Z</time>
      </trkpt>
      <trkpt lat="65.37867" lon="21.43116">
        <ele>37.109956</ele>
        <time>2020-09-26T12:11:30.908Z</time>
      </trkpt>
      <trkpt lat="65.37857" lon="21.43109">
        <ele>36.92541</ele>
        <time>2020-09-26T12:11:32.916Z</time>
      </trkpt>
      <trkpt lat="65.37848" lon="21.43101">
        <ele>36.747645</ele>
        <time>2020-09-26T12:11:34.949Z</time>
      </trkpt>
      <trkpt lat="65.37839" lon="21.43094">
        <ele>36.57468</ele>
        <time>2020-09-26T12:11:36.964Z</time>
      </trkpt>
      <trkpt lat="65.3783" lon="21.43088">
        <ele>36.401086</ele>
        <time>2020-09-26T12:11:38.910Z</time>
      </trkpt>
      <trkpt lat="65.3782" lon="21.43081">
        <ele>36.230498</ele>
        <time>2020-09-26T12:11:40.915Z</time>
      </trkpt>
      <trkpt lat="65.37811" lon="21.43074">
        <ele>36.05991</ele>
        <time>2020-09-26T12:11:42.916Z</time>
      </trkpt>
      <trkpt lat="65.37802" lon="21.43069">
        <ele>35.894633</ele>
        <time>2020-09-26T12:11:44.923Z</time>
      </trkpt>
      <trkpt lat="65.37794" lon="21.43063">
        <ele>35.731084</ele>
        <time>2020-09-26T12:11:46.941Z</time>
      </trkpt>
      <trkpt lat="65.37785" lon="21.43058">
        <ele>35.568664</ele>
        <time>2020-09-26T12:11:48.927Z</time>
      </trkpt>
      <trkpt lat="65.37775" lon="21.43052">
        <ele>35.39242</ele>
        <time>2020-09-26T12:11:50.925Z</time>
      </trkpt>
      <trkpt lat="65.37766" lon="21.43045">
        <ele>35.213859</ele>
        <time>2020-09-26T12:11:52.911Z</time>
      </trkpt>
      <trkpt lat="65.37756" lon="21.43039">
        <ele>35.03915</ele>
        <time>2020-09-26T12:11:54.901Z</time>
      </trkpt>
      <trkpt lat="65.37747" lon="21.43032">
        <ele>34.861484</ele>
        <time>2020-09-26T12:11:56.916Z</time>
      </trkpt>
      <trkpt lat="65.37737" lon="21.43026">
        <ele>34.680227</ele>
        <time>2020-09-26T12:11:58.926Z</time>
      </trkpt>
      <trkpt lat="65.37727" lon="21.43021">
        <ele>34.500824</ele>
        <time>2020-09-26T12:12:00.937Z</time>
      </trkpt>
      <trkpt lat="65.37718" lon="21.43016">
        <ele>34.323327</ele>
        <time>2020-09-26T12:12:02.910Z</time>
      </trkpt>
      <trkpt lat="65.37707" lon="21.43011">
        <ele>34.180087</ele>
        <time>2020-09-26T12:12:04.899Z</time>
      </trkpt>
      <trkpt lat="65.37697" lon="21.43007">
        <ele>34.053162</ele>
        <time>2020-09-26T12:12:06.914Z</time>
      </trkpt>
      <trkpt lat="65.37687" lon="21.43002">
        <ele>33.921798</ele>
        <time>2020-09-26T12:12:08.898Z</time>
      </trkpt>
      <trkpt lat="65.37677" lon="21.42998">
        <ele>33.791026</ele>
        <time>2020-09-26T12:12:10.940Z</time>
      </trkpt>
      <trkpt lat="65.37667" lon="21.42994">
        <ele>33.662316</ele>
        <time>2020-09-26T12:12:12.905Z</time>
      </trkpt>
      <trkpt lat="65.37656" lon="21.42989">
        <ele>33.530154</ele>
        <time>2020-09-26T12:12:14.904Z</time>
      </trkpt>
      <trkpt lat="65.37646" lon="21.42984">
        <ele>33.402102</ele>
        <time>2020-09-26T12:12:16.907Z</time>
      </trkpt>
      <trkpt lat="65.37636" lon="21.4298">
        <ele>33.272242</ele>
        <time>2020-09-26T12:12:18.920Z</time>
      </trkpt>
      <trkpt lat="65.37625" lon="21.42976">
        <ele>33.137077</ele>
        <time>2020-09-26T12:12:20.915Z</time>
      </trkpt>
      <trkpt lat="65.37615" lon="21.42971">
        <ele>32.999162</ele>
        <time>2020-09-26T12:12:22.917Z</time>
      </trkpt>
      <trkpt lat="65.37604" lon="21.42967">
        <ele>32.863106</ele>
        <time>2020-09-26T12:12:24.941Z</time>
      </trkpt>
      <trkpt lat="65.37593" lon="21.42963">
        <ele>32.72581</ele>
        <time>2020-09-26T12:12:26.951Z</time>
      </trkpt>
      <trkpt lat="65.37583" lon="21.42959">
        <ele>32.593556</ele>
        <time>2020-09-26T12:12:28.947Z</time>
      </trkpt>
      <trkpt lat="65.37572" lon="21.42953">
        <ele>32.451913</ele>
        <time>2020-09-26T12:12:30.931Z</time>
      </trkpt>
      <trkpt lat="65.3756" lon="21.42946">
        <ele>32.305504</ele>
        <time>2020-09-26T12:12:32.930Z</time>
      </trkpt>
      <trkpt lat="65.37549" lon="21.42938">
        <ele>32.157272</ele>
        <time>2020-09-26T12:12:34.916Z</time>
      </trkpt>
      <trkpt lat="65.37538" lon="21.42928">
        <ele>32.033323</ele>
        <time>2020-09-26T12:12:36.939Z</time>
      </trkpt>
      <trkpt lat="65.37528" lon="21.42918">
        <ele>32.049544</ele>
        <time>2020-09-26T12:12:38.900Z</time>
      </trkpt>
      <trkpt lat="65.37517" lon="21.42906">
        <ele>32.066371</ele>
        <time>2020-09-26T12:12:40.917Z</time>
      </trkpt>
      <trkpt lat="65.37507" lon="21.42892">
        <ele>32.082738</ele>
        <time>2020-09-26T12:12:42.904Z</time>
      </trkpt>
      <trkpt lat="65.37497" lon="21.42876">
        <ele>32.099155</ele>
        <time>2020-09-26T12:12:44.910Z</time>
      </trkpt>
      <trkpt lat="65.37487" lon="21.42859">
        <ele>32.116043</ele>
        <time>2020-09-26T12:12:46.935Z</time>
      </trkpt>
      <trkpt lat="65.37478" lon="21.4284">
        <ele>32.132575</ele>
        <time>2020-09-26T12:12:48.910Z</time>
      </trkpt>
      <trkpt lat="65.3747" lon="21.42821">
        <ele>32.149035</ele>
        <time>2020-09-26T12:12:50.895Z</time>
      </trkpt>
      <trkpt lat="65.37461" lon="21.42802">
        <ele>32.165097</ele>
        <time>2020-09-26T12:12:52.914Z</time>
      </trkpt>
      <trkpt lat="65.37453" lon="21.42784">
        <ele>32.180646</ele>
        <time>2020-09-26T12:12:54.937Z</time>
      </trkpt>
      <trkpt lat="65.37446" lon="21.42766">
        <ele>32.19515</ele>
        <time>2020-09-26T12:12:56.913Z</time>
      </trkpt>
      <trkpt lat="65.37439" lon="21.4275">
        <ele>32.208836</ele>
        <time>2020-09-26T12:12:58.908Z</time>
      </trkpt>
      <trkpt lat="65.37432" lon="21.42734">
        <ele>32.22237</ele>
        <time>2020-09-26T12:13:00.916Z</time>
      </trkpt>
      <trkpt lat="65.37422" lon="21.42713">
        <ele>32.241001</ele>
        <time>2020-09-26T12:13:03.915Z</time>
      </trkpt>
      <trkpt lat="65.37413" lon="21.42691">
        <ele>32.258939</ele>
        <time>2020-09-26T12:13:06.915Z</time>
      </trkpt>
      <trkpt lat="65.37404" lon="21.42674">
        <ele>32.274981</ele>
        <time>2020-09-26T12:13:09.900Z</time>
      </trkpt>
      <trkpt lat="65.37395" lon="21.42658">
        <ele>32.443968</ele>
        <time>2020-09-26T12:13:12.948Z</time>
      </trkpt>
      <trkpt lat="65.37387" lon="21.42645">
        <ele>32.78187</ele>
        <time>2020-09-26T12:13:15.907Z</time>
      </trkpt>
      <trkpt lat="65.37377" lon="21.42633">
        <ele>33.140568</ele>
        <time>2020-09-26T12:13:18.925Z</time>
      </trkpt>
      <trkpt lat="65.37367" lon="21.42626">
        <ele>33.479164</ele>
        <time>2020-09-26T12:13:21.896Z</time>
      </trkpt>
      <trkpt lat="65.37358" lon="21.42622">
        <ele>33.794073</ele>
        <time>2020-09-26T12:13:24.931Z</time>
      </trkpt>
      <trkpt lat="65.37348" lon="21.4262">
        <ele>34.121396</ele>
        <time>2020-09-26T12:13:27.911Z</time>
      </trkpt>
      <trkpt lat="65.37338" lon="21.42618">
        <ele>34.451238</ele>
        <time>2020-09-26T12:13:30.924Z</time>
      </trkpt>
      <trkpt lat="65.37328" lon="21.42617">
        <ele>34.760689</ele>
        <time>2020-09-26T12:13:33.948Z</time>
      </trkpt>
      <trkpt lat="65.37319" lon="21.42616">
        <ele>35.053654</ele>
        <time>2020-09-26T12:13:36.916Z</time>
      </trkpt>
      <trkpt lat="65.37308" lon="21.42615">
        <ele>35.415475</ele>
        <time>2020-09-26T12:13:40.906Z</time>
      </trkpt>
      <trkpt lat="65.373" lon="21.42619">
        <ele>35.711045</ele>
        <time>2020-09-26T12:13:43.911Z</time>
      </trkpt>
      <trkpt lat="65.3729" lon="21.42621">
        <ele>36.044165</ele>
        <time>2020-09-26T12:13:46.906Z</time>
      </trkpt>
      <trkpt lat="65.37278" lon="21.42625">
        <ele>36.433362</ele>
        <time>2020-09-26T12:13:50.907Z</time>
      </trkpt>
      <trkpt lat="65.3727" lon="21.42639">
        <ele>36.761119</ele>
        <time>2020-09-26T12:13:53.925Z</time>
      </trkpt>
      <trkpt lat="65.37266" lon="21.42666">
        <ele>37.153966</ele>
        <time>2020-09-26T12:13:56.931Z</time>
      </trkpt>
      <trkpt lat="65.37266" lon="21.42696">
        <ele>37.556862</ele>
        <time>2020-09-26T12:13:59.905Z</time>
      </trkpt>
      <trkpt lat="65.37266" lon="21.42724">
        <ele>37.944646</ele>
        <time>2020-09-26T12:14:02.925Z</time>
      </trkpt>
      <trkpt lat="65.37265" lon="21.42751">
        <ele>38.19791</ele>
        <time>2020-09-26T12:14:05.919Z</time>
      </trkpt>
      <trkpt lat="65.37265" lon="21.4278">
        <ele>38.198172</ele>
        <time>2020-09-26T12:14:08.925Z</time>
      </trkpt>
      <trkpt lat="65.37265" lon="21.42808">
        <ele>38.198431</ele>
        <time>2020-09-26T12:14:11.908Z</time>
      </trkpt>
      <trkpt lat="65.37264" lon="21.42836">
        <ele>38.198697</ele>
        <time>2020-09-26T12:14:14.954Z</time>
      </trkpt>
      <trkpt lat="65.37264" lon="21.42866">
        <ele>38.198972</ele>
        <time>2020-09-26T12:14:17.923Z</time>
      </trkpt>
      <trkpt lat="65.37263" lon="21.42895">
        <ele>38.199245</ele>
        <time>2020-09-26T12:14:20.935Z</time>
      </trkpt>
      <trkpt lat="65.37263" lon="21.42926">
        <ele>38.199528</ele>
        <time>2020-09-26T12:14:23.914Z</time>
      </trkpt>
      <trkpt lat="65.37263" lon="21.42956">
        <ele>38.199812</ele>
        <time>2020-09-26T12:14:26.939Z</time>
      </trkpt>
      <trkpt lat="65.37263" lon="21.42987">
        <ele>38.2001</ele>
        <time>2020-09-26T12:14:29.933Z</time>
      </trkpt>
      <trkpt lat="65.37263" lon="21.4302">
        <ele>38.200406</ele>
        <time>2020-09-26T12:14:32.917Z</time>
      </trkpt>
      <trkpt lat="65.37264" lon="21.43043">
        <ele>38.200616</ele>
        <time>2020-09-26T12:14:34.908Z</time>
      </trkpt>
      <trkpt lat="65.37264" lon="21.43066">
        <ele>38.200833</ele>
        <time>2020-09-26T12:14:36.916Z</time>
      </trkpt>
      <trkpt lat="65.37264" lon="21.4309">
        <ele>38.201054</ele>
        <time>2020-09-26T12:14:38.914Z</time>
      </trkpt>
      <trkpt lat="65.37263" lon="21.43114">
        <ele>38.201273</ele>
        <time>2020-09-26T12:14:40.941Z</time>
      </trkpt>
      <trkpt lat="65.37256" lon="21.43132">
        <ele>38.201497</ele>
        <time>2020-09-26T12:14:42.902Z</time>
      </trkpt>
      <trkpt lat="65.37245" lon="21.43135">
        <ele>38.201739</ele>
        <time>2020-09-26T12:14:44.925Z</time>
      </trkpt>
      <trkpt lat="65.37235" lon="21.43132">
        <ele>38.120042</ele>
        <time>2020-09-26T12:14:46.915Z</time>
      </trkpt>
      <trkpt lat="65.37225" lon="21.43128">
        <ele>37.990056</ele>
        <time>2020-09-26T12:14:48.904Z</time>
      </trkpt>
      <trkpt lat="65.37216" lon="21.43124">
        <ele>37.865335</ele>
        <time>2020-09-26T12:14:50.914Z</time>
      </trkpt>
      <trkpt lat="65.37207" lon="21.43118">
        <ele>37.740757</ele>
        <time>2020-09-26T12:14:52.910Z</time>
      </trkpt>
      <trkpt lat="65.37197" lon="21.43113">
        <ele>37.609045</ele>
        <time>2020-09-26T12:14:54.904Z</time>
      </trkpt>
      <trkpt lat="65.37187" lon="21.43107">
        <ele>37.477453</ele>
        <time>2020-09-26T12:14:56.954Z</time>
      </trkpt>
      <trkpt lat="65.37177" lon="21.43103">
        <ele>37.33978</ele>
        <time>2020-09-26T12:14:58.925Z</time>
      </trkpt>
      <trkpt lat="65.37167" lon="21.43097">
        <ele>37.205269</ele>
        <time>2020-09-26T12:15:00.917Z</time>
      </trkpt>
      <trkpt lat="65.37157" lon="21.43092">
        <ele>37.070058</ele>
        <time>2020-09-26T12:15:02.914Z</time>
      </trkpt>
      <trkpt lat="65.37146" lon="21.43087">
        <ele>36.929379</ele>
        <time>2020-09-26T12:15:04.923Z</time>
      </trkpt>
      <trkpt lat="65.37135" lon="21.43081">
        <ele>36.781946</ele>
        <time>2020-09-26T12:15:06.912Z</time>
      </trkpt>
      <trkpt lat="65.37124" lon="21.43075">
        <ele>36.637496</ele>
        <time>2020-09-26T12:15:08.924Z</time>
      </trkpt>
      <trkpt lat="65.37113" lon="21.43069">
        <ele>36.490873</ele>
        <time>2020-09-26T12:15:10.907Z</time>
      </trkpt>
      <trkpt lat="65.37102" lon="21.43064">
        <ele>36.34022</ele>
        <time>2020-09-26T12:15:12.933Z</time>
      </trkpt>
      <trkpt lat="65.37091" lon="21.43059">
        <ele>36.188374</ele>
        <time>2020-09-26T12:15:14.915Z</time>
      </trkpt>
      <trkpt lat="65.37079" lon="21.43054">
        <ele>36.034943</ele>
        <time>2020-09-26T12:15:16.927Z</time>
      </trkpt>
      <trkpt lat="65.37067" lon="21.4305">
        <ele>35.868761</ele>
        <time>2020-09-26T12:15:18.924Z</time>
      </trkpt>
      <trkpt lat="65.37054" lon="21.43047">
        <ele>35.457515</ele>
        <time>2020-09-26T12:15:20.914Z</time>
      </trkpt>
      <trkpt lat="65.37041" lon="21.43044">
        <ele>34.994381</ele>
        <time>2020-09-26T12:15:22.915Z</time>
      </trkpt>
      <trkpt lat="65.37027" lon="21.43043">
        <ele>34.504523</ele>
        <time>2020-09-26T12:15:24.941Z</time>
      </trkpt>
      <trkpt lat="65.37012" lon="21.43043">
        <ele>33.983888</ele>
        <time>2020-09-26T12:15:26.916Z</time>
      </trkpt>
      <trkpt lat="65.36997" lon="21.43043">
        <ele>33.459759</ele>
        <time>2020-09-26T12:15:28.907Z</time>
      </trkpt>
      <trkpt lat="65.36981" lon="21.43045">
        <ele>32.921118</ele>
        <time>2020-09-26T12:15:30.918Z</time>
      </trkpt>
      <trkpt lat="65.36965" lon="21.43047">
        <ele>32.368223</ele>
        <time>2020-09-26T12:15:32.897Z</time>
      </trkpt>
      <trkpt lat="65.36949" lon="21.43051">
        <ele>31.796162</ele>
        <time>2020-09-26T12:15:34.920Z</time>
      </trkpt>
      <trkpt lat="65.36932" lon="21.43056">
        <ele>31.193348</ele>
        <time>2020-09-26T12:15:36.908Z</time>
      </trkpt>
      <trkpt lat="65.36915" lon="21.43063">
        <ele>30.602458</ele>
        <time>2020-09-26T12:15:38.907Z</time>
      </trkpt>
      <trkpt lat="65.369" lon="21.4307">
        <ele>30.046564</ele>
        <time>2020-09-26T12:15:40.950Z</time>
      </trkpt>
      <trkpt lat="65.36886" lon="21.43079">
        <ele>29.546311</ele>
        <time>2020-09-26T12:15:42.927Z</time>
      </trkpt>
      <trkpt lat="65.36873" lon="21.43091">
        <ele>29.294442</ele>
        <time>2020-09-26T12:15:44.902Z</time>
      </trkpt>
      <trkpt lat="65.36862" lon="21.43105">
        <ele>29.065791</ele>
        <time>2020-09-26T12:15:46.914Z</time>
      </trkpt>
      <trkpt lat="65.36849" lon="21.431">
        <ele>28.830312</ele>
        <time>2020-09-26T12:15:49.914Z</time>
      </trkpt>
      <trkpt lat="65.36847" lon="21.43074">
        <ele>28.626195</ele>
        <time>2020-09-26T12:15:51.934Z</time>
      </trkpt>
      <trkpt lat="65.36852" lon="21.43051">
        <ele>28.429557</ele>
        <time>2020-09-26T12:15:53.919Z</time>
      </trkpt>
      <trkpt lat="65.36859" lon="21.43031">
        <ele>28.22884</ele>
        <time>2020-09-26T12:15:55.915Z</time>
      </trkpt>
      <trkpt lat="65.36864" lon="21.43009">
        <ele>28.028164</ele>
        <time>2020-09-26T12:15:57.899Z</time>
      </trkpt>
      <trkpt lat="65.36867" lon="21.42981">
        <ele>27.810091</ele>
        <time>2020-09-26T12:15:59.919Z</time>
      </trkpt>
      <trkpt lat="65.36865" lon="21.42954">
        <ele>27.601564</ele>
        <time>2020-09-26T12:16:01.915Z</time>
      </trkpt>
      <trkpt lat="65.36863" lon="21.42925">
        <ele>27.372087</ele>
        <time>2020-09-26T12:16:03.924Z</time>
      </trkpt>
      <trkpt lat="65.36864" lon="21.42893">
        <ele>27.126724</ele>
        <time>2020-09-26T12:16:05.916Z</time>
      </trkpt>
      <trkpt lat="65.36866" lon="21.42863">
        <ele>26.891296</ele>
        <time>2020-09-26T12:16:08.922Z</time>
      </trkpt>
      <trkpt lat="65.36854" lon="21.42864">
        <ele>26.658117</ele>
        <time>2020-09-26T12:16:12.915Z</time>
      </trkpt>
      <trkpt lat="65.36842" lon="21.42864">
        <ele>26.436177</ele>
        <time>2020-09-26T12:16:15.912Z</time>
      </trkpt>
      <trkpt lat="65.36829" lon="21.42869">
        <ele>26.22527</ele>
        <time>2020-09-26T12:16:18.913Z</time>
      </trkpt>
      <trkpt lat="65.36816" lon="21.4287">
        <ele>26.180559</ele>
        <time>2020-09-26T12:16:21.916Z</time>
      </trkpt>
      <trkpt lat="65.36802" lon="21.42871">
        <ele>26.134126</ele>
        <time>2020-09-26T12:16:24.933Z</time>
      </trkpt>
      <trkpt lat="65.3679" lon="21.42873">
        <ele>26.089388</ele>
        <time>2020-09-26T12:16:27.909Z</time>
      </trkpt>
      <trkpt lat="65.36776" lon="21.42872">
        <ele>26.043656</ele>
        <time>2020-09-26T12:16:30.934Z</time>
      </trkpt>
      <trkpt lat="65.36767" lon="21.42871">
        <ele>26.011407</ele>
        <time>2020-09-26T12:16:32.915Z</time>
      </trkpt>
      <trkpt lat="65.36757" lon="21.42868">
        <ele>25.97585</ele>
        <time>2020-09-26T12:16:34.900Z</time>
      </trkpt>
      <trkpt lat="65.36746" lon="21.42865">
        <ele>25.939553</ele>
        <time>2020-09-26T12:16:36.921Z</time>
      </trkpt>
      <trkpt lat="65.36736" lon="21.42861">
        <ele>25.902433</ele>
        <time>2020-09-26T12:16:38.900Z</time>
      </trkpt>
      <trkpt lat="65.36726" lon="21.42856">
        <ele>25.867333</ele>
        <time>2020-09-26T12:16:40.938Z</time>
      </trkpt>
      <trkpt lat="65.36716" lon="21.42851">
        <ele>25.833031</ele>
        <time>2020-09-26T12:16:42.911Z</time>
      </trkpt>
      <trkpt lat="65.36707" lon="21.42846">
        <ele>25.798638</ele>
        <time>2020-09-26T12:16:44.919Z</time>
      </trkpt>
      <trkpt lat="65.36697" lon="21.42841">
        <ele>25.765058</ele>
        <time>2020-09-26T12:16:46.923Z</time>
      </trkpt>
      <trkpt lat="65.36688" lon="21.42834">
        <ele>25.73096</ele>
        <time>2020-09-26T12:16:48.905Z</time>
      </trkpt>
      <trkpt lat="65.36678" lon="21.42826">
        <ele>25.696137</ele>
        <time>2020-09-26T12:16:50.916Z</time>
      </trkpt>
      <trkpt lat="65.36669" lon="21.42818">
        <ele>25.66119</ele>
        <time>2020-09-26T12:16:52.907Z</time>
      </trkpt>
      <trkpt lat="65.36659" lon="21.42809">
        <ele>25.626243</ele>
        <time>2020-09-26T12:16:54.907Z</time>
      </trkpt>
      <trkpt lat="65.3665" lon="21.42799">
        <ele>25.831877</ele>
        <time>2020-09-26T12:16:56.899Z</time>
      </trkpt>
      <trkpt lat="65.36641" lon="21.42788">
        <ele>26.268549</ele>
        <time>2020-09-26T12:16:58.915Z</time>
      </trkpt>
      <trkpt lat="65.36631" lon="21.42776">
        <ele>26.712684</ele>
        <time>2020-09-26T12:17:00.927Z</time>
      </trkpt>
      <trkpt lat="65.36622" lon="21.42765">
        <ele>27.148567</ele>
        <time>2020-09-26T12:17:02.942Z</time>
      </trkpt>
      <trkpt lat="65.36613" lon="21.42754">
        <ele>27.569597</ele>
        <time>2020-09-26T12:17:04.918Z</time>
      </trkpt>
      <trkpt lat="65.36604" lon="21.42743">
        <ele>27.986623</ele>
        <time>2020-09-26T12:17:06.932Z</time>
      </trkpt>
      <trkpt lat="65.36595" lon="21.42732">
        <ele>28.423297</ele>
        <time>2020-09-26T12:17:08.897Z</time>
      </trkpt>
      <trkpt lat="65.36586" lon="21.42719">
        <ele>28.867328</ele>
        <time>2020-09-26T12:17:10.915Z</time>
      </trkpt>
      <trkpt lat="65.36576" lon="21.42708">
        <ele>29.299486</ele>
        <time>2020-09-26T12:17:12.934Z</time>
      </trkpt>
      <trkpt lat="65.36568" lon="21.42698">
        <ele>29.700616</ele>
        <time>2020-09-26T12:17:14.907Z</time>
      </trkpt>
      <trkpt lat="65.36556" lon="21.42684">
        <ele>30.254793</ele>
        <time>2020-09-26T12:17:17.909Z</time>
      </trkpt>
      <trkpt lat="65.36544" lon="21.42671">
        <ele>30.8008</ele>
        <time>2020-09-26T12:17:20.939Z</time>
      </trkpt>
      <trkpt lat="65.36533" lon="21.42658">
        <ele>31.32708</ele>
        <time>2020-09-26T12:17:23.913Z</time>
      </trkpt>
      <trkpt lat="65.36521" lon="21.42644">
        <ele>31.857256</ele>
        <time>2020-09-26T12:17:26.914Z</time>
      </trkpt>
      <trkpt lat="65.3651" lon="21.4263">
        <ele>32.39434</ele>
        <time>2020-09-26T12:17:29.904Z</time>
      </trkpt>
      <trkpt lat="65.36499" lon="21.42617">
        <ele>32.916099</ele>
        <time>2020-09-26T12:17:32.903Z</time>
      </trkpt>
      <trkpt lat="65.36489" lon="21.42606">
        <ele>33.063548</ele>
        <time>2020-09-26T12:17:35.927Z</time>
      </trkpt>
      <trkpt lat="65.3648" lon="21.42597">
        <ele>32.952134</ele>
        <time>2020-09-26T12:17:38.927Z</time>
      </trkpt>
      <trkpt lat="65.36471" lon="21.42585">
        <ele>32.822331</ele>
        <time>2020-09-26T12:17:42.910Z</time>
      </trkpt>
      <trkpt lat="65.36463" lon="21.42576">
        <ele>32.712468</ele>
        <time>2020-09-26T12:17:46.965Z</time>
      </trkpt>
      <trkpt lat="65.36453" lon="21.42565">
        <ele>32.585766</ele>
        <time>2020-09-26T12:17:51.916Z</time>
      </trkpt>
      <trkpt lat="65.36445" lon="21.42553">
        <ele>32.470492</ele>
        <time>2020-09-26T12:17:55.915Z</time>
      </trkpt>
      <trkpt lat="65.36436" lon="21.42544">
        <ele>32.351299</ele>
        <time>2020-09-26T12:17:59.902Z</time>
      </trkpt>
      <trkpt lat="65.36427" lon="21.42533">
        <ele>32.234501</ele>
        <time>2020-09-26T12:18:03.921Z</time>
      </trkpt>
      <trkpt lat="65.36418" lon="21.42524">
        <ele>32.122677</ele>
        <time>2020-09-26T12:18:07.911Z</time>
      </trkpt>
      <trkpt lat="65.36408" lon="21.42513">
        <ele>31.990577</ele>
        <time>2020-09-26T12:18:12.903Z</time>
      </trkpt>
      <trkpt lat="65.364" lon="21.42504">
        <ele>31.881551</ele>
        <time>2020-09-26T12:18:16.906Z</time>
      </trkpt>
      <trkpt lat="65.36391" lon="21.42494">
        <ele>31.768013</ele>
        <time>2020-09-26T12:18:20.935Z</time>
      </trkpt>
      <trkpt lat="65.36383" lon="21.42485">
        <ele>31.654408</ele>
        <time>2020-09-26T12:18:24.943Z</time>
      </trkpt>
      <trkpt lat="65.36374" lon="21.42475">
        <ele>31.54174</ele>
        <time>2020-09-26T12:18:28.926Z</time>
      </trkpt>
      <trkpt lat="65.36365" lon="21.42465">
        <ele>31.424538</ele>
        <time>2020-09-26T12:18:32.906Z</time>
      </trkpt>
      <trkpt lat="65.36356" lon="21.42454">
        <ele>31.301273</ele>
        <time>2020-09-26T12:18:36.921Z</time>
      </trkpt>
      <trkpt lat="65.36347" lon="21.42444">
        <ele>31.178591</ele>
        <time>2020-09-26T12:18:40.932Z</time>
      </trkpt>
      <trkpt lat="65.36337" lon="21.42434">
        <ele>31.054009</ele>
        <time>2020-09-26T12:18:44.903Z</time>
      </trkpt>
      <trkpt lat="65.36328" lon="21.42421">
        <ele>30.927546</ele>
        <time>2020-09-26T12:18:48.903Z</time>
      </trkpt>
      <trkpt lat="65.36319" lon="21.42412">
        <ele>30.825044</ele>
        <time>2020-09-26T12:18:51.911Z</time>
      </trkpt>
      <trkpt lat="65.3631" lon="21.42402">
        <ele>30.717304</ele>
        <time>2020-09-26T12:18:54.904Z</time>
      </trkpt>
      <trkpt lat="65.363" lon="21.4239">
        <ele>30.602023</ele>
        <time>2020-09-26T12:18:57.920Z</time>
      </trkpt>
      <trkpt lat="65.3629" lon="21.42378">
        <ele>30.488704</ele>
        <time>2020-09-26T12:19:00.911Z</time>
      </trkpt>
      <trkpt lat="65.36281" lon="21.42366">
        <ele>30.378372</ele>
        <time>2020-09-26T12:19:03.897Z</time>
      </trkpt>
      <trkpt lat="65.36271" lon="21.42354">
        <ele>30.256262</ele>
        <time>2020-09-26T12:19:06.939Z</time>
      </trkpt>
      <trkpt lat="65.36259" lon="21.4234">
        <ele>30.115365</ele>
        <time>2020-09-26T12:19:09.979Z</time>
      </trkpt>
      <trkpt lat="65.36251" lon="21.4233">
        <ele>30.016262</ele>
        <time>2020-09-26T12:19:11.914Z</time>
      </trkpt>
      <trkpt lat="65.36242" lon="21.4232">
        <ele>29.909253</ele>
        <time>2020-09-26T12:19:13.916Z</time>
      </trkpt>
      <trkpt lat="65.36232" lon="21.42309">
        <ele>29.799579</ele>
        <time>2020-09-26T12:19:15.921Z</time>
      </trkpt>
      <trkpt lat="65.36223" lon="21.42299">
        <ele>29.693751</ele>
        <time>2020-09-26T12:19:17.905Z</time>
      </trkpt>
      <trkpt lat="65.36214" lon="21.42289">
        <ele>29.584439</ele>
        <time>2020-09-26T12:19:19.933Z</time>
      </trkpt>
      <trkpt lat="65.36204" lon="21.42279">
        <ele>29.473356</ele>
        <time>2020-09-26T12:19:21.914Z</time>
      </trkpt>
      <trkpt lat="65.36195" lon="21.42268">
        <ele>29.365051</ele>
        <time>2020-09-26T12:19:23.935Z</time>
      </trkpt>
      <trkpt lat="65.36185" lon="21.42257">
        <ele>29.249653</ele>
        <time>2020-09-26T12:19:25.925Z</time>
      </trkpt>
      <trkpt lat="65.36175" lon="21.42245">
        <ele>29.123679</ele>
        <time>2020-09-26T12:19:27.925Z</time>
      </trkpt>
      <trkpt lat="65.36163" lon="21.42233">
        <ele>28.900547</ele>
        <time>2020-09-26T12:19:29.912Z</time>
      </trkpt>
      <trkpt lat="65.36152" lon="21.4222">
        <ele>28.583082</ele>
        <time>2020-09-26T12:19:31.922Z</time>
      </trkpt>
      <trkpt lat="65.36139" lon="21.42206">
        <ele>28.242795</ele>
        <time>2020-09-26T12:19:33.963Z</time>
      </trkpt>
      <trkpt lat="65.36127" lon="21.4219">
        <ele>27.901548</ele>
        <time>2020-09-26T12:19:35.912Z</time>
      </trkpt>
      <trkpt lat="65.36114" lon="21.42177">
        <ele>27.564524</ele>
        <time>2020-09-26T12:19:37.915Z</time>
      </trkpt>
      <trkpt lat="65.36102" lon="21.42164">
        <ele>27.243069</ele>
        <time>2020-09-26T12:19:39.919Z</time>
      </trkpt>
      <trkpt lat="65.3609" lon="21.4215">
        <ele>26.917264</ele>
        <time>2020-09-26T12:19:41.936Z</time>
      </trkpt>
      <trkpt lat="65.36078" lon="21.42136">
        <ele>26.595415</ele>
        <time>2020-09-26T12:19:43.910Z</time>
      </trkpt>
      <trkpt lat="65.36066" lon="21.42124">
        <ele>26.280905</ele>
        <time>2020-09-26T12:19:45.910Z</time>
      </trkpt>
      <trkpt lat="65.36054" lon="21.42111">
        <ele>25.967214</ele>
        <time>2020-09-26T12:19:47.917Z</time>
      </trkpt>
      <trkpt lat="65.36042" lon="21.42099">
        <ele>25.651292</ele>
        <time>2020-09-26T12:19:49.929Z</time>
      </trkpt>
      <trkpt lat="65.3603" lon="21.42087">
        <ele>25.335369</ele>
        <time>2020-09-26T12:19:51.941Z</time>
      </trkpt>
      <trkpt lat="65.36019" lon="21.42074">
        <ele>25.022084</ele>
        <time>2020-09-26T12:19:53.939Z</time>
      </trkpt>
      <trkpt lat="65.36007" lon="21.42063">
        <ele>24.715276</ele>
        <time>2020-09-26T12:19:55.910Z</time>
      </trkpt>
      <trkpt lat="65.35996" lon="21.42052">
        <ele>24.74993</ele>
        <time>2020-09-26T12:19:57.937Z</time>
      </trkpt>
      <trkpt lat="65.35985" lon="21.42042">
        <ele>24.81679</ele>
        <time>2020-09-26T12:19:59.924Z</time>
      </trkpt>
      <trkpt lat="65.35975" lon="21.42034">
        <ele>24.880213</ele>
        <time>2020-09-26T12:20:01.926Z</time>
      </trkpt>
      <trkpt lat="65.35965" lon="21.42028">
        <ele>24.938725</ele>
        <time>2020-09-26T12:20:03.911Z</time>
      </trkpt>
      <trkpt lat="65.35956" lon="21.42021">
        <ele>24.99624</ele>
        <time>2020-09-26T12:20:05.916Z</time>
      </trkpt>
      <trkpt lat="65.35947" lon="21.42015">
        <ele>25.052225</ele>
        <time>2020-09-26T12:20:07.903Z</time>
      </trkpt>
      <trkpt lat="65.35938" lon="21.42011">
        <ele>25.107437</ele>
        <time>2020-09-26T12:20:09.920Z</time>
      </trkpt>
      <trkpt lat="65.35928" lon="21.42008">
        <ele>25.164324</ele>
        <time>2020-09-26T12:20:11.937Z</time>
      </trkpt>
      <trkpt lat="65.35918" lon="21.42006">
        <ele>25.22388</ele>
        <time>2020-09-26T12:20:13.916Z</time>
      </trkpt>
      <trkpt lat="65.35908" lon="21.42006">
        <ele>25.285112</ele>
        <time>2020-09-26T12:20:15.941Z</time>
      </trkpt>
      <trkpt lat="65.35897" lon="21.42007">
        <ele>25.347546</ele>
        <time>2020-09-26T12:20:17.938Z</time>
      </trkpt>
      <trkpt lat="65.35886" lon="21.4201">
        <ele>25.40984</ele>
        <time>2020-09-26T12:20:19.919Z</time>
      </trkpt>
      <trkpt lat="65.35876" lon="21.42014">
        <ele>25.471754</ele>
        <time>2020-09-26T12:20:21.926Z</time>
      </trkpt>
      <trkpt lat="65.35866" lon="21.42016">
        <ele>25.532592</ele>
        <time>2020-09-26T12:20:23.906Z</time>
      </trkpt>
      <trkpt lat="65.35855" lon="21.42019">
        <ele>25.593657</ele>
        <time>2020-09-26T12:20:25.918Z</time>
      </trkpt>
      <trkpt lat="65.35846" lon="21.42024">
        <ele>25.652625</ele>
        <time>2020-09-26T12:20:27.917Z</time>
      </trkpt>
      <trkpt lat="65.35834" lon="21.42032">
        <ele>25.726494</ele>
        <time>2020-09-26T12:20:30.924Z</time>
      </trkpt>
      <trkpt lat="65.35825" lon="21.42037">
        <ele>25.963367</ele>
        <time>2020-09-26T12:20:32.907Z</time>
      </trkpt>
      <trkpt lat="65.35812" lon="21.42046">
        <ele>26.429787</ele>
        <time>2020-09-26T12:20:35.907Z</time>
      </trkpt>
      <trkpt lat="65.358" lon="21.42055">
        <ele>26.896207</ele>
        <time>2020-09-26T12:20:38.932Z</time>
      </trkpt>
      <trkpt lat="65.35788" lon="21.42065">
        <ele>27.356536</ele>
        <time>2020-09-26T12:20:41.910Z</time>
      </trkpt>
      <trkpt lat="65.35778" lon="21.42076">
        <ele>27.744979</ele>
        <time>2020-09-26T12:20:44.951Z</time>
      </trkpt>
      <trkpt lat="65.3577" lon="21.42085">
        <ele>28.09682</ele>
        <time>2020-09-26T12:20:47.919Z</time>
      </trkpt>
      <trkpt lat="65.35761" lon="21.42095">
        <ele>28.426866</ele>
        <time>2020-09-26T12:20:50.927Z</time>
      </trkpt>
      <trkpt lat="65.35751" lon="21.4211">
        <ele>28.86687</ele>
        <time>2020-09-26T12:20:54.913Z</time>
      </trkpt>
      <trkpt lat="65.35743" lon="21.42121">
        <ele>29.191598</ele>
        <time>2020-09-26T12:20:57.899Z</time>
      </trkpt>
      <trkpt lat="65.35733" lon="21.42134">
        <ele>29.613091</ele>
        <time>2020-09-26T12:21:01.905Z</time>
      </trkpt>
      <trkpt lat="65.35726" lon="21.42148">
        <ele>29.945909</ele>
        <time>2020-09-26T12:21:04.950Z</time>
      </trkpt>
      <trkpt lat="65.35717" lon="21.42165">
        <ele>30.367497</ele>
        <time>2020-09-26T12:21:08.896Z</time>
      </trkpt>
      <trkpt lat="65.35707" lon="21.4218">
        <ele>30.790216</ele>
        <time>2020-09-26T12:21:12.931Z</time>
      </trkpt>
      <trkpt lat="65.35699" lon="21.42198">
        <ele>31.202205</ele>
        <time>2020-09-26T12:21:16.903Z</time>
      </trkpt>
      <trkpt lat="65.35691" lon="21.42218">
        <ele>31.622543</ele>
        <time>2020-09-26T12:21:20.917Z</time>
      </trkpt>
      <trkpt lat="65.35683" lon="21.42238">
        <ele>32.019698</ele>
        <time>2020-09-26T12:21:24.921Z</time>
      </trkpt>
      <trkpt lat="65.35676" lon="21.42258">
        <ele>32.266386</ele>
        <time>2020-09-26T12:21:28.940Z</time>
      </trkpt>
      <trkpt lat="65.3567" lon="21.4228">
        <ele>32.244895</ele>
        <time>2020-09-26T12:21:32.911Z</time>
      </trkpt>
      <trkpt lat="65.35662" lon="21.42301">
        <ele>32.222335</ele>
        <time>2020-09-26T12:21:36.911Z</time>
      </trkpt>
      <trkpt lat="65.35655" lon="21.42324">
        <ele>32.199483</ele>
        <time>2020-09-26T12:21:40.919Z</time>
      </trkpt>
      <trkpt lat="65.3565" lon="21.42344">
        <ele>32.180589</ele>
        <time>2020-09-26T12:21:43.907Z</time>
      </trkpt>
      <trkpt lat="65.35644" lon="21.42363">
        <ele>32.161525</ele>
        <time>2020-09-26T12:21:46.914Z</time>
      </trkpt>
      <trkpt lat="65.35638" lon="21.42383">
        <ele>32.141469</ele>
        <time>2020-09-26T12:21:49.911Z</time>
      </trkpt>
      <trkpt lat="65.35632" lon="21.42403">
        <ele>32.12184</ele>
        <time>2020-09-26T12:21:52.949Z</time>
      </trkpt>
      <trkpt lat="65.35625" lon="21.42424">
        <ele>32.101036</ele>
        <time>2020-09-26T12:21:55.899Z</time>
      </trkpt>
      <trkpt lat="65.35619" lon="21.42445">
        <ele>32.08025</ele>
        <time>2020-09-26T12:21:58.915Z</time>
      </trkpt>
      <trkpt lat="65.35613" lon="21.42466">
        <ele>32.059488</ele>
        <time>2020-09-26T12:22:01.942Z</time>
      </trkpt>
      <trkpt lat="65.35606" lon="21.42486">
        <ele>32.038829</ele>
        <time>2020-09-26T12:22:04.904Z</time>
      </trkpt>
      <trkpt lat="65.35599" lon="21.42507">
        <ele>32.017006</ele>
        <time>2020-09-26T12:22:07.921Z</time>
      </trkpt>
      <trkpt lat="65.35593" lon="21.42528">
        <ele>31.996376</ele>
        <time>2020-09-26T12:22:10.906Z</time>
      </trkpt>
      <trkpt lat="65.35587" lon="21.42548">
        <ele>31.976798</ele>
        <time>2020-09-26T12:22:13.925Z</time>
      </trkpt>
      <trkpt lat="65.35581" lon="21.4257">
        <ele>31.955727</ele>
        <time>2020-09-26T12:22:16.920Z</time>
      </trkpt>
      <trkpt lat="65.35575" lon="21.42593">
        <ele>31.934054</ele>
        <time>2020-09-26T12:22:19.918Z</time>
      </trkpt>
      <trkpt lat="65.35569" lon="21.42614">
        <ele>31.883238</ele>
        <time>2020-09-26T12:22:22.949Z</time>
      </trkpt>
      <trkpt lat="65.35562" lon="21.42635">
        <ele>31.821003</ele>
        <time>2020-09-26T12:22:25.899Z</time>
      </trkpt>
      <trkpt lat="65.35556" lon="21.42655">
        <ele>31.756976</ele>
        <time>2020-09-26T12:22:28.911Z</time>
      </trkpt>
      <trkpt lat="65.35549" lon="21.42677">
        <ele>31.690635</ele>
        <time>2020-09-26T12:22:31.895Z</time>
      </trkpt>
      <trkpt lat="65.35543" lon="21.42699">
        <ele>31.624641</ele>
        <time>2020-09-26T12:22:34.897Z</time>
      </trkpt>
      <trkpt lat="65.35536" lon="21.42721">
        <ele>31.55642</ele>
        <time>2020-09-26T12:22:37.925Z</time>
      </trkpt>
      <trkpt lat="65.3553" lon="21.42741">
        <ele>31.496606</ele>
        <time>2020-09-26T12:22:40.914Z</time>
      </trkpt>
      <trkpt lat="65.35525" lon="21.42762">
        <ele>31.437197</ele>
        <time>2020-09-26T12:22:43.952Z</time>
      </trkpt>
      <trkpt lat="65.35519" lon="21.42781">
        <ele>31.37926</ele>
        <time>2020-09-26T12:22:46.942Z</time>
      </trkpt>
      <trkpt lat="65.35513" lon="21.42801">
        <ele>31.318832</ele>
        <time>2020-09-26T12:22:49.925Z</time>
      </trkpt>
      <trkpt lat="65.35506" lon="21.42821">
        <ele>31.256684</ele>
        <time>2020-09-26T12:22:52.917Z</time>
      </trkpt>
      <trkpt lat="65.355" lon="21.42843">
        <ele>31.191556</ele>
        <time>2020-09-26T12:22:55.915Z</time>
      </trkpt>
      <trkpt lat="65.35493" lon="21.42863">
        <ele>31.127568</ele>
        <time>2020-09-26T12:22:58.916Z</time>
      </trkpt>
      <trkpt lat="65.35486" lon="21.42883">
        <ele>31.063037</ele>
        <time>2020-09-26T12:23:01.920Z</time>
      </trkpt>
      <trkpt lat="65.35479" lon="21.42904">
        <ele>30.997926</ele>
        <time>2020-09-26T12:23:04.948Z</time>
      </trkpt>
      <trkpt lat="65.35472" lon="21.42925">
        <ele>30.931874</ele>
        <time>2020-09-26T12:23:07.944Z</time>
      </trkpt>
      <trkpt lat="65.35465" lon="21.42946">
        <ele>30.855011</ele>
        <time>2020-09-26T12:23:10.941Z</time>
      </trkpt>
      <trkpt lat="65.35457" lon="21.42967">
        <ele>30.641161</ele>
        <time>2020-09-26T12:23:13.921Z</time>
      </trkpt>
      <trkpt lat="65.3545" lon="21.42987">
        <ele>30.433183</ele>
        <time>2020-09-26T12:23:16.918Z</time>
      </trkpt>
      <trkpt lat="65.35441" lon="21.43005">
        <ele>30.217547</ele>
        <time>2020-09-26T12:23:19.945Z</time>
      </trkpt>
      <trkpt lat="65.35431" lon="21.43025">
        <ele>29.981416</ele>
        <time>2020-09-26T12:23:22.905Z</time>
      </trkpt>
      <trkpt lat="65.3542" lon="21.43043">
        <ele>29.737295</ele>
        <time>2020-09-26T12:23:25.931Z</time>
      </trkpt>
      <trkpt lat="65.35412" lon="21.43057">
        <ele>29.555585</ele>
        <time>2020-09-26T12:23:27.921Z</time>
      </trkpt>
      <trkpt lat="65.35403" lon="21.43071">
        <ele>29.363966</ele>
        <time>2020-09-26T12:23:29.895Z</time>
      </trkpt>
      <trkpt lat="65.35394" lon="21.43084">
        <ele>29.170691</ele>
        <time>2020-09-26T12:23:31.956Z</time>
      </trkpt>
      <trkpt lat="65.35385" lon="21.43095">
        <ele>28.97598</ele>
        <time>2020-09-26T12:23:33.908Z</time>
      </trkpt>
      <trkpt lat="65.35375" lon="21.43106">
        <ele>28.775611</ele>
        <time>2020-09-26T12:23:35.917Z</time>
      </trkpt>
      <trkpt lat="65.35365" lon="21.43117">
        <ele>28.581237</ele>
        <time>2020-09-26T12:23:37.963Z</time>
      </trkpt>
      <trkpt lat="65.35356" lon="21.43128">
        <ele>28.388512</ele>
        <time>2020-09-26T12:23:39.939Z</time>
      </trkpt>
      <trkpt lat="65.35347" lon="21.43139">
        <ele>28.194985</ele>
        <time>2020-09-26T12:23:41.924Z</time>
      </trkpt>
      <trkpt lat="65.35337" lon="21.4315">
        <ele>28.001608</ele>
        <time>2020-09-26T12:23:43.920Z</time>
      </trkpt>
      <trkpt lat="65.35328" lon="21.4316">
        <ele>27.815818</ele>
        <time>2020-09-26T12:23:45.963Z</time>
      </trkpt>
      <trkpt lat="65.35319" lon="21.4317">
        <ele>27.631577</ele>
        <time>2020-09-26T12:23:47.952Z</time>
      </trkpt>
      <trkpt lat="65.3531" lon="21.4318">
        <ele>27.667776</ele>
        <time>2020-09-26T12:23:49.931Z</time>
      </trkpt>
      <trkpt lat="65.35301" lon="21.4319">
        <ele>27.825532</ele>
        <time>2020-09-26T12:23:51.909Z</time>
      </trkpt>
      <trkpt lat="65.35289" lon="21.43205">
        <ele>28.045231</ele>
        <time>2020-09-26T12:23:54.934Z</time>
      </trkpt>
      <trkpt lat="65.35277" lon="21.43217">
        <ele>28.262422</ele>
        <time>2020-09-26T12:23:57.934Z</time>
      </trkpt>
      <trkpt lat="65.35269" lon="21.43226">
        <ele>28.413176</ele>
        <time>2020-09-26T12:23:59.912Z</time>
      </trkpt>
      <trkpt lat="65.3526" lon="21.43235">
        <ele>28.566542</ele>
        <time>2020-09-26T12:24:01.932Z</time>
      </trkpt>
      <trkpt lat="65.35248" lon="21.43247">
        <ele>28.777957</ele>
        <time>2020-09-26T12:24:04.939Z</time>
      </trkpt>
      <trkpt lat="65.35237" lon="21.4326">
        <ele>28.982446</ele>
        <time>2020-09-26T12:24:07.936Z</time>
      </trkpt>
      <trkpt lat="65.35226" lon="21.43273">
        <ele>29.185782</ele>
        <time>2020-09-26T12:24:10.927Z</time>
      </trkpt>
      <trkpt lat="65.35216" lon="21.43287">
        <ele>29.377994</ele>
        <time>2020-09-26T12:24:13.916Z</time>
      </trkpt>
      <trkpt lat="65.35206" lon="21.43302">
        <ele>29.574065</ele>
        <time>2020-09-26T12:24:16.921Z</time>
      </trkpt>
      <trkpt lat="65.35197" lon="21.43317">
        <ele>29.760433</ele>
        <time>2020-09-26T12:24:19.940Z</time>
      </trkpt>
      <trkpt lat="65.35187" lon="21.43333">
        <ele>29.951655</ele>
        <time>2020-09-26T12:24:22.915Z</time>
      </trkpt>
      <trkpt lat="65.35179" lon="21.43348">
        <ele>30.124036</ele>
        <time>2020-09-26T12:24:25.924Z</time>
      </trkpt>
      <trkpt lat="65.35171" lon="21.43363">
        <ele>30.288271</ele>
        <time>2020-09-26T12:24:28.930Z</time>
      </trkpt>
      <trkpt lat="65.35164" lon="21.43379">
        <ele>30.445538</ele>
        <time>2020-09-26T12:24:31.951Z</time>
      </trkpt>
      <trkpt lat="65.35158" lon="21.43395">
        <ele>30.66675</ele>
        <time>2020-09-26T12:24:34.921Z</time>
      </trkpt>
      <trkpt lat="65.3515" lon="21.43416">
        <ele>31.045452</ele>
        <time>2020-09-26T12:24:38.979Z</time>
      </trkpt>
      <trkpt lat="65.35142" lon="21.43437">
        <ele>31.415268</ele>
        <time>2020-09-26T12:24:42.916Z</time>
      </trkpt>
      <trkpt lat="65.35135" lon="21.43457">
        <ele>31.760495</ele>
        <time>2020-09-26T12:24:46.917Z</time>
      </trkpt>
      <trkpt lat="65.3513" lon="21.43477">
        <ele>32.088535</ele>
        <time>2020-09-26T12:24:50.931Z</time>
      </trkpt>
      <trkpt lat="65.35124" lon="21.43498">
        <ele>32.422437</ele>
        <time>2020-09-26T12:24:54.914Z</time>
      </trkpt>
      <trkpt lat="65.35119" lon="21.4352">
        <ele>32.761098</ele>
        <time>2020-09-26T12:24:58.916Z</time>
      </trkpt>
      <trkpt lat="65.35113" lon="21.43542">
        <ele>33.101677</ele>
        <time>2020-09-26T12:25:02.925Z</time>
      </trkpt>
      <trkpt lat="65.35109" lon="21.43564">
        <ele>33.432872</ele>
        <time>2020-09-26T12:25:06.914Z</time>
      </trkpt>
      <trkpt lat="65.35104" lon="21.43586">
        <ele>33.76206</ele>
        <time>2020-09-26T12:25:10.905Z</time>
      </trkpt>
      <trkpt lat="65.351" lon="21.43608">
        <ele>34.080007</ele>
        <time>2020-09-26T12:25:14.949Z</time>
      </trkpt>
      <trkpt lat="65.35096" lon="21.4363">
        <ele>34.396053</ele>
        <time>2020-09-26T12:25:18.904Z</time>
      </trkpt>
      <trkpt lat="65.35093" lon="21.43654">
        <ele>34.740576</ele>
        <time>2020-09-26T12:25:22.964Z</time>
      </trkpt>
      <trkpt lat="65.35091" lon="21.43679">
        <ele>35.079817</ele>
        <time>2020-09-26T12:25:26.927Z</time>
      </trkpt>
      <trkpt lat="65.35089" lon="21.43707">
        <ele>35.45969</ele>
        <time>2020-09-26T12:25:30.955Z</time>
      </trkpt>
      <trkpt lat="65.35087" lon="21.43735">
        <ele>35.842053</ele>
        <time>2020-09-26T12:25:34.935Z</time>
      </trkpt>
      <trkpt lat="65.35085" lon="21.43757">
        <ele>36.136873</ele>
        <time>2020-09-26T12:25:37.920Z</time>
      </trkpt>
      <trkpt lat="65.35083" lon="21.43778">
        <ele>36.275496</ele>
        <time>2020-09-26T12:25:40.920Z</time>
      </trkpt>
      <trkpt lat="65.35082" lon="21.43806">
        <ele>36.205428</ele>
        <time>2020-09-26T12:25:44.912Z</time>
      </trkpt>
      <trkpt lat="65.35081" lon="21.43828">
        <ele>36.151077</ele>
        <time>2020-09-26T12:25:47.916Z</time>
      </trkpt>
      <trkpt lat="65.35081" lon="21.43853">
        <ele>36.088258</ele>
        <time>2020-09-26T12:25:50.903Z</time>
      </trkpt>
      <trkpt lat="65.35081" lon="21.43879">
        <ele>36.023064</ele>
        <time>2020-09-26T12:25:53.916Z</time>
      </trkpt>
      <trkpt lat="65.3508" lon="21.43907">
        <ele>35.953292</ele>
        <time>2020-09-26T12:25:56.950Z</time>
      </trkpt>
      <trkpt lat="65.35079" lon="21.43939">
        <ele>35.87361</ele>
        <time>2020-09-26T12:25:59.916Z</time>
      </trkpt>
      <trkpt lat="65.35079" lon="21.43962">
        <ele>35.81448</ele>
        <time>2020-09-26T12:26:01.921Z</time>
      </trkpt>
      <trkpt lat="65.35078" lon="21.43987">
        <ele>35.752413</ele>
        <time>2020-09-26T12:26:03.949Z</time>
      </trkpt>
      <trkpt lat="65.35078" lon="21.44014">
        <ele>35.685309</ele>
        <time>2020-09-26T12:26:05.904Z</time>
      </trkpt>
      <trkpt lat="65.35077" lon="21.44042">
        <ele>35.613791</ele>
        <time>2020-09-26T12:26:07.929Z</time>
      </trkpt>
      <trkpt lat="65.35076" lon="21.44073">
        <ele>35.53788</ele>
        <time>2020-09-26T12:26:09.914Z</time>
      </trkpt>
      <trkpt lat="65.35074" lon="21.44103">
        <ele>35.45989</ele>
        <time>2020-09-26T12:26:11.913Z</time>
      </trkpt>
      <trkpt lat="65.35072" lon="21.44134">
        <ele>35.381901</ele>
        <time>2020-09-26T12:26:13.916Z</time>
      </trkpt>
      <trkpt lat="65.3507" lon="21.44167">
        <ele>35.300007</ele>
        <time>2020-09-26T12:26:15.920Z</time>
      </trkpt>
      <trkpt lat="65.35067" lon="21.442">
        <ele>35.189586</ele>
        <time>2020-09-26T12:26:17.920Z</time>
      </trkpt>
      <trkpt lat="65.35064" lon="21.44232">
        <ele>34.785329</ele>
        <time>2020-09-26T12:26:19.907Z</time>
      </trkpt>
      <trkpt lat="65.3506" lon="21.44264">
        <ele>34.373997</ele>
        <time>2020-09-26T12:26:21.919Z</time>
      </trkpt>
      <trkpt lat="65.35055" lon="21.44295">
        <ele>33.964473</ele>
        <time>2020-09-26T12:26:23.918Z</time>
      </trkpt>
      <trkpt lat="65.35049" lon="21.44324">
        <ele>33.580515</ele>
        <time>2020-09-26T12:26:25.947Z</time>
      </trkpt>
      <trkpt lat="65.35043" lon="21.4435">
        <ele>33.201722</ele>
        <time>2020-09-26T12:26:27.922Z</time>
      </trkpt>
      <trkpt lat="65.35036" lon="21.44377">
        <ele>32.817911</ele>
        <time>2020-09-26T12:26:29.923Z</time>
      </trkpt>
      <trkpt lat="65.35028" lon="21.44403">
        <ele>32.419502</ele>
        <time>2020-09-26T12:26:31.938Z</time>
      </trkpt>
      <trkpt lat="65.35021" lon="21.44428">
        <ele>32.043171</ele>
        <time>2020-09-26T12:26:33.908Z</time>
      </trkpt>
      <trkpt lat="65.35013" lon="21.44452">
        <ele>31.676041</ele>
        <time>2020-09-26T12:26:35.914Z</time>
      </trkpt>
      <trkpt lat="65.35006" lon="21.44476">
        <ele>31.317511</ele>
        <time>2020-09-26T12:26:37.917Z</time>
      </trkpt>
      <trkpt lat="65.34999" lon="21.44498">
        <ele>30.982981</ele>
        <time>2020-09-26T12:26:39.915Z</time>
      </trkpt>
      <trkpt lat="65.34992" lon="21.44519">
        <ele>30.654136</ele>
        <time>2020-09-26T12:26:41.943Z</time>
      </trkpt>
      <trkpt lat="65.34986" lon="21.4454">
        <ele>30.335188</ele>
        <time>2020-09-26T12:26:43.941Z</time>
      </trkpt>
      <trkpt lat="65.3498" lon="21.44562">
        <ele>30.024071</ele>
        <time>2020-09-26T12:26:45.948Z</time>
      </trkpt>
      <trkpt lat="65.34975" lon="21.44581">
        <ele>30.018646</ele>
        <time>2020-09-26T12:26:47.922Z</time>
      </trkpt>
      <trkpt lat="65.34969" lon="21.44599">
        <ele>30.129438</ele>
        <time>2020-09-26T12:26:49.910Z</time>
      </trkpt>
      <trkpt lat="65.34964" lon="21.44616">
        <ele>30.237814</ele>
        <time>2020-09-26T12:26:51.916Z</time>
      </trkpt>
      <trkpt lat="65.34956" lon="21.44642">
        <ele>30.397128</ele>
        <time>2020-09-26T12:26:54.900Z</time>
      </trkpt>
      <trkpt lat="65.34951" lon="21.44661">
        <ele>30.509736</ele>
        <time>2020-09-26T12:26:56.926Z</time>
      </trkpt>
      <trkpt lat="65.34945" lon="21.4468">
        <ele>30.628896</ele>
        <time>2020-09-26T12:26:58.913Z</time>
      </trkpt>
      <trkpt lat="65.34939" lon="21.44701">
        <ele>30.752287</ele>
        <time>2020-09-26T12:27:00.917Z</time>
      </trkpt>
      <trkpt lat="65.34934" lon="21.4472">
        <ele>30.871591</ele>
        <time>2020-09-26T12:27:02.920Z</time>
      </trkpt>
      <trkpt lat="65.34928" lon="21.44739">
        <ele>30.986929</ele>
        <time>2020-09-26T12:27:04.932Z</time>
      </trkpt>
      <trkpt lat="65.3492" lon="21.44764">
        <ele>31.140579</ele>
        <time>2020-09-26T12:27:07.898Z</time>
      </trkpt>
      <trkpt lat="65.34913" lon="21.44789">
        <ele>31.295966</ele>
        <time>2020-09-26T12:27:10.912Z</time>
      </trkpt>
      <trkpt lat="65.34905" lon="21.44812">
        <ele>31.443799</ele>
        <time>2020-09-26T12:27:13.919Z</time>
      </trkpt>
      <trkpt lat="65.34896" lon="21.44835">
        <ele>31.598549</ele>
        <time>2020-09-26T12:27:16.937Z</time>
      </trkpt>
      <trkpt lat="65.34889" lon="21.44852">
        <ele>31.716376</ele>
        <time>2020-09-26T12:27:18.911Z</time>
      </trkpt>
      <trkpt lat="65.34883" lon="21.4487">
        <ele>31.83602</ele>
        <time>2020-09-26T12:27:20.926Z</time>
      </trkpt>
      <trkpt lat="65.34876" lon="21.44888">
        <ele>31.95839</ele>
        <time>2020-09-26T12:27:22.946Z</time>
      </trkpt>
      <trkpt lat="65.34868" lon="21.44907">
        <ele>32.097306</ele>
        <time>2020-09-26T12:27:24.903Z</time>
      </trkpt>
      <trkpt lat="65.34861" lon="21.44927">
        <ele>32.969848</ele>
        <time>2020-09-26T12:27:26.934Z</time>
      </trkpt>
      <trkpt lat="65.34853" lon="21.44947">
        <ele>33.836529</ele>
        <time>2020-09-26T12:27:28.905Z</time>
      </trkpt>
      <trkpt lat="65.34846" lon="21.44964">
        <ele>34.617856</ele>
        <time>2020-09-26T12:27:30.923Z</time>
      </trkpt>
      <trkpt lat="65.3484" lon="21.44981">
        <ele>35.33376</ele>
        <time>2020-09-26T12:27:32.920Z</time>
      </trkpt>
      <trkpt lat="65.34831" lon="21.45005">
        <ele>36.386957</ele>
        <time>2020-09-26T12:27:35.899Z</time>
      </trkpt>
      <trkpt lat="65.34822" lon="21.45027">
        <ele>37.349983</ele>
        <time>2020-09-26T12:27:38.928Z</time>
      </trkpt>
      <trkpt lat="65.34815" lon="21.45045">
        <ele>38.163698</ele>
        <time>2020-09-26T12:27:41.910Z</time>
      </trkpt>
      <trkpt lat="65.34806" lon="21.45063">
        <ele>39.044357</ele>
        <time>2020-09-26T12:27:44.950Z</time>
      </trkpt>
      <trkpt lat="65.34799" lon="21.45081">
        <ele>39.865854</ele>
        <time>2020-09-26T12:27:47.940Z</time>
      </trkpt>
      <trkpt lat="65.34792" lon="21.45099">
        <ele>40.644836</ele>
        <time>2020-09-26T12:27:50.916Z</time>
      </trkpt>
      <trkpt lat="65.34785" lon="21.45115">
        <ele>41.403855</ele>
        <time>2020-09-26T12:27:53.907Z</time>
      </trkpt>
      <trkpt lat="65.34777" lon="21.45132">
        <ele>42.214168</ele>
        <time>2020-09-26T12:27:56.920Z</time>
      </trkpt>
      <trkpt lat="65.34769" lon="21.45149">
        <ele>43.046536</ele>
        <time>2020-09-26T12:27:59.912Z</time>
      </trkpt>
      <trkpt lat="65.34761" lon="21.45165">
        <ele>43.866125</ele>
        <time>2020-09-26T12:28:02.910Z</time>
      </trkpt>
      <trkpt lat="65.34753" lon="21.45181">
        <ele>44.666173</ele>
        <time>2020-09-26T12:28:05.916Z</time>
      </trkpt>
      <trkpt lat="65.34746" lon="21.45195">
        <ele>45.384973</ele>
        <time>2020-09-26T12:28:08.922Z</time>
      </trkpt>
      <trkpt lat="65.34737" lon="21.45212">
        <ele>46.111705</ele>
        <time>2020-09-26T12:28:12.926Z</time>
      </trkpt>
      <trkpt lat="65.34729" lon="21.45232">
        <ele>46.555111</ele>
        <time>2020-09-26T12:28:16.919Z</time>
      </trkpt>
      <trkpt lat="65.34723" lon="21.45248">
        <ele>46.91233</ele>
        <time>2020-09-26T12:28:19.917Z</time>
      </trkpt>
      <trkpt lat="65.34713" lon="21.45267">
        <ele>47.383581</ele>
        <time>2020-09-26T12:28:23.927Z</time>
      </trkpt>
      <trkpt lat="65.34705" lon="21.45286">
        <ele>47.813733</ele>
        <time>2020-09-26T12:28:26.947Z</time>
      </trkpt>
      <trkpt lat="65.34696" lon="21.45305">
        <ele>48.265994</ele>
        <time>2020-09-26T12:28:30.912Z</time>
      </trkpt>
      <trkpt lat="65.34689" lon="21.45319">
        <ele>48.609568</ele>
        <time>2020-09-26T12:28:33.934Z</time>
      </trkpt>
      <trkpt lat="65.34681" lon="21.45337">
        <ele>49.035647</ele>
        <time>2020-09-26T12:28:37.919Z</time>
      </trkpt>
      <trkpt lat="65.34673" lon="21.45354">
        <ele>49.455354</ele>
        <time>2020-09-26T12:28:41.953Z</time>
      </trkpt>
      <trkpt lat="65.34665" lon="21.4537">
        <ele>49.845665</ele>
        <time>2020-09-26T12:28:45.941Z</time>
      </trkpt>
      <trkpt lat="65.34658" lon="21.45385">
        <ele>50.19947</ele>
        <time>2020-09-26T12:28:48.935Z</time>
      </trkpt>
      <trkpt lat="65.3465" lon="21.45403">
        <ele>50.625215</ele>
        <time>2020-09-26T12:28:52.931Z</time>
      </trkpt>
      <trkpt lat="65.34643" lon="21.45417">
        <ele>50.97146</ele>
        <time>2020-09-26T12:28:55.914Z</time>
      </trkpt>
      <trkpt lat="65.34636" lon="21.45431">
        <ele>51.318957</ele>
        <time>2020-09-26T12:28:58.943Z</time>
      </trkpt>
      <trkpt lat="65.34629" lon="21.45445">
        <ele>51.668541</ele>
        <time>2020-09-26T12:29:01.916Z</time>
      </trkpt>
      <trkpt lat="65.34622" lon="21.4546">
        <ele>52.019802</ele>
        <time>2020-09-26T12:29:04.918Z</time>
      </trkpt>
      <trkpt lat="65.34614" lon="21.45473">
        <ele>52.374281</ele>
        <time>2020-09-26T12:29:07.924Z</time>
      </trkpt>
      <trkpt lat="65.34605" lon="21.45492">
        <ele>52.837758</ele>
        <time>2020-09-26T12:29:11.915Z</time>
      </trkpt>
      <trkpt lat="65.34598" lon="21.45508">
        <ele>52.476796</ele>
        <time>2020-09-26T12:29:14.931Z</time>
      </trkpt>
      <trkpt lat="65.3459" lon="21.45525">
        <ele>52.092633</ele>
        <time>2020-09-26T12:29:17.920Z</time>
      </trkpt>
      <trkpt lat="65.34582" lon="21.45541">
        <ele>51.694788</ele>
        <time>2020-09-26T12:29:20.925Z</time>
      </trkpt>
      <trkpt lat="65.34573" lon="21.45561">
        <ele>51.243788</ele>
        <time>2020-09-26T12:29:23.916Z</time>
      </trkpt>
      <trkpt lat="65.34564" lon="21.45579">
        <ele>50.802798</ele>
        <time>2020-09-26T12:29:26.931Z</time>
      </trkpt>
      <trkpt lat="65.34555" lon="21.45597">
        <ele>50.386302</ele>
        <time>2020-09-26T12:29:29.925Z</time>
      </trkpt>
      <trkpt lat="65.34547" lon="21.45613">
        <ele>49.998673</ele>
        <time>2020-09-26T12:29:32.921Z</time>
      </trkpt>
      <trkpt lat="65.34539" lon="21.4563">
        <ele>49.593687</ele>
        <time>2020-09-26T12:29:35.924Z</time>
      </trkpt>
      <trkpt lat="65.34531" lon="21.45648">
        <ele>49.17767</ele>
        <time>2020-09-26T12:29:38.903Z</time>
      </trkpt>
      <trkpt lat="65.34522" lon="21.45666">
        <ele>48.746765</ele>
        <time>2020-09-26T12:29:41.909Z</time>
      </trkpt>
      <trkpt lat="65.34513" lon="21.45685">
        <ele>48.303373</ele>
        <time>2020-09-26T12:29:44.920Z</time>
      </trkpt>
      <trkpt lat="65.34505" lon="21.45705">
        <ele>47.859055</ele>
        <time>2020-09-26T12:29:47.949Z</time>
      </trkpt>
      <trkpt lat="65.34497" lon="21.45724">
        <ele>47.438937</ele>
        <time>2020-09-26T12:29:50.914Z</time>
      </trkpt>
      <trkpt lat="65.34489" lon="21.45742">
        <ele>47.036575</ele>
        <time>2020-09-26T12:29:53.911Z</time>
      </trkpt>
      <trkpt lat="65.34483" lon="21.45763">
        <ele>46.642201</ele>
        <time>2020-09-26T12:29:56.925Z</time>
      </trkpt>
      <trkpt lat="65.34478" lon="21.4579">
        <ele>46.180204</ele>
        <time>2020-09-26T12:29:59.909Z</time>
      </trkpt>
      <trkpt lat="65.34471" lon="21.45815">
        <ele>45.978534</ele>
        <time>2020-09-26T12:30:02.940Z</time>
      </trkpt>
      <trkpt lat="65.34463" lon="21.45835">
        <ele>45.796561</ele>
        <time>2020-09-26T12:30:05.927Z</time>
      </trkpt>
      <trkpt lat="65.34454" lon="21.45855">
        <ele>45.61843</ele>
        <time>2020-09-26T12:30:08.925Z</time>
      </trkpt>
      <trkpt lat="65.34445" lon="21.45876">
        <ele>45.439865</ele>
        <time>2020-09-26T12:30:11.947Z</time>
      </trkpt>
      <trkpt lat="65.34437" lon="21.45897">
        <ele>45.258963</ele>
        <time>2020-09-26T12:30:14.931Z</time>
      </trkpt>
      <trkpt lat="65.34429" lon="21.4592">
        <ele>45.068901</ele>
        <time>2020-09-26T12:30:17.915Z</time>
      </trkpt>
      <trkpt lat="65.3442" lon="21.45945">
        <ele>44.867488</ele>
        <time>2020-09-26T12:30:20.937Z</time>
      </trkpt>
      <trkpt lat="65.34413" lon="21.45962">
        <ele>44.726403</ele>
        <time>2020-09-26T12:30:22.937Z</time>
      </trkpt>
      <trkpt lat="65.34407" lon="21.45978">
        <ele>44.586897</ele>
        <time>2020-09-26T12:30:24.918Z</time>
      </trkpt>
      <trkpt lat="65.344" lon="21.45996">
        <ele>44.440298</ele>
        <time>2020-09-26T12:30:26.924Z</time>
      </trkpt>
      <trkpt lat="65.34393" lon="21.46014">
        <ele>44.289559</ele>
        <time>2020-09-26T12:30:28.915Z</time>
      </trkpt>
      <trkpt lat="65.34386" lon="21.46033">
        <ele>44.130219</ele>
        <time>2020-09-26T12:30:30.919Z</time>
      </trkpt>
      <trkpt lat="65.34379" lon="21.46053">
        <ele>43.968972</ele>
        <time>2020-09-26T12:30:32.938Z</time>
      </trkpt>
      <trkpt lat="65.34371" lon="21.46074">
        <ele>43.794904</ele>
        <time>2020-09-26T12:30:34.917Z</time>
      </trkpt>
      <trkpt lat="65.34364" lon="21.46094">
        <ele>43.63279</ele>
        <time>2020-09-26T12:30:36.933Z</time>
      </trkpt>
      <trkpt lat="65.34357" lon="21.46112">
        <ele>43.479122</ele>
        <time>2020-09-26T12:30:38.911Z</time>
      </trkpt>
      <trkpt lat="65.3435" lon="21.46129">
        <ele>42.934975</ele>
        <time>2020-09-26T12:30:40.931Z</time>
      </trkpt>
      <trkpt lat="65.34343" lon="21.46145">
        <ele>42.426071</ele>
        <time>2020-09-26T12:30:42.926Z</time>
      </trkpt>
      <trkpt lat="65.34336" lon="21.46162">
        <ele>41.932868</ele>
        <time>2020-09-26T12:30:44.903Z</time>
      </trkpt>
      <trkpt lat="65.34329" lon="21.46178">
        <ele>41.439813</ele>
        <time>2020-09-26T12:30:46.915Z</time>
      </trkpt>
      <trkpt lat="65.34322" lon="21.46194">
        <ele>40.929513</ele>
        <time>2020-09-26T12:30:48.908Z</time>
      </trkpt>
      <trkpt lat="65.34315" lon="21.46211">
        <ele>40.400418</ele>
        <time>2020-09-26T12:30:50.933Z</time>
      </trkpt>
      <trkpt lat="65.34308" lon="21.46229">
        <ele>39.83881</ele>
        <time>2020-09-26T12:30:52.936Z</time>
      </trkpt>
      <trkpt lat="65.34299" lon="21.4625">
        <ele>39.199067</ele>
        <time>2020-09-26T12:30:54.924Z</time>
      </trkpt>
      <trkpt lat="65.34289" lon="21.46273">
        <ele>38.499747</ele>
        <time>2020-09-26T12:30:56.935Z</time>
      </trkpt>
      <trkpt lat="65.34279" lon="21.46296">
        <ele>37.777064</ele>
        <time>2020-09-26T12:30:58.913Z</time>
      </trkpt>
      <trkpt lat="65.3427" lon="21.46319">
        <ele>37.06658</ele>
        <time>2020-09-26T12:31:00.919Z</time>
      </trkpt>
      <trkpt lat="65.3426" lon="21.46343">
        <ele>36.32053</ele>
        <time>2020-09-26T12:31:02.902Z</time>
      </trkpt>
      <trkpt lat="65.3425" lon="21.46369">
        <ele>35.556517</ele>
        <time>2020-09-26T12:31:04.931Z</time>
      </trkpt>
      <trkpt lat="65.3424" lon="21.46394">
        <ele>34.80322</ele>
        <time>2020-09-26T12:31:06.914Z</time>
      </trkpt>
      <trkpt lat="65.3423" lon="21.46416">
        <ele>34.125718</ele>
        <time>2020-09-26T12:31:08.928Z</time>
      </trkpt>
      <trkpt lat="65.34222" lon="21.46438">
        <ele>33.890313</ele>
        <time>2020-09-26T12:31:10.904Z</time>
      </trkpt>
      <trkpt lat="65.34214" lon="21.46461">
        <ele>33.664752</ele>
        <time>2020-09-26T12:31:12.914Z</time>
      </trkpt>
      <trkpt lat="65.34207" lon="21.46486">
        <ele>33.441931</ele>
        <time>2020-09-26T12:31:14.964Z</time>
      </trkpt>
      <trkpt lat="65.34201" lon="21.46511">
        <ele>33.223638</ele>
        <time>2020-09-26T12:31:16.914Z</time>
      </trkpt>
      <trkpt lat="65.34195" lon="21.46532">
        <ele>33.030025</ele>
        <time>2020-09-26T12:31:18.942Z</time>
      </trkpt>
      <trkpt lat="65.34188" lon="21.46554">
        <ele>32.827024</ele>
        <time>2020-09-26T12:31:21.934Z</time>
      </trkpt>
      <trkpt lat="65.34182" lon="21.46572">
        <ele>32.661067</ele>
        <time>2020-09-26T12:31:25.909Z</time>
      </trkpt>
      <trkpt lat="65.34178" lon="21.46592">
        <ele>32.495695</ele>
        <time>2020-09-26T12:31:28.928Z</time>
      </trkpt>
      <trkpt lat="65.34173" lon="21.46611">
        <ele>32.321987</ele>
        <time>2020-09-26T12:31:31.905Z</time>
      </trkpt>
      <trkpt lat="65.34167" lon="21.46634">
        <ele>32.120454</ele>
        <time>2020-09-26T12:31:34.959Z</time>
      </trkpt>
      <trkpt lat="65.34161" lon="21.46657">
        <ele>31.922036</ele>
        <time>2020-09-26T12:31:37.948Z</time>
      </trkpt>
      <trkpt lat="65.34155" lon="21.4668">
        <ele>31.718296</ele>
        <time>2020-09-26T12:31:40.928Z</time>
      </trkpt>
      <trkpt lat="65.34149" lon="21.46704">
        <ele>31.502523</ele>
        <time>2020-09-26T12:31:43.911Z</time>
      </trkpt>
      <trkpt lat="65.34142" lon="21.46729">
        <ele>31.278699</ele>
        <time>2020-09-26T12:31:46.921Z</time>
      </trkpt>
      <trkpt lat="65.34135" lon="21.46753">
        <ele>31.066409</ele>
        <time>2020-09-26T12:31:49.927Z</time>
      </trkpt>
      <trkpt lat="65.34129" lon="21.46776">
        <ele>30.908535</ele>
        <time>2020-09-26T12:31:52.937Z</time>
      </trkpt>
      <trkpt lat="65.34123" lon="21.46797">
        <ele>31.068645</ele>
        <time>2020-09-26T12:31:55.935Z</time>
      </trkpt>
      <trkpt lat="65.34118" lon="21.46816">
        <ele>31.217645</ele>
        <time>2020-09-26T12:31:58.977Z</time>
      </trkpt>
      <trkpt lat="65.34113" lon="21.46837">
        <ele>31.37885</ele>
        <time>2020-09-26T12:32:01.918Z</time>
      </trkpt>
      <trkpt lat="65.34107" lon="21.46858">
        <ele>31.542005</ele>
        <time>2020-09-26T12:32:04.971Z</time>
      </trkpt>
      <trkpt lat="65.34102" lon="21.46877">
        <ele>31.686899</ele>
        <time>2020-09-26T12:32:07.918Z</time>
      </trkpt>
      <trkpt lat="65.34098" lon="21.46896">
        <ele>31.832854</ele>
        <time>2020-09-26T12:32:11.917Z</time>
      </trkpt>
      <trkpt lat="65.34093" lon="21.46915">
        <ele>31.977699</ele>
        <time>2020-09-26T12:32:15.915Z</time>
      </trkpt>
      <trkpt lat="65.34087" lon="21.46935">
        <ele>32.13739</ele>
        <time>2020-09-26T12:32:19.918Z</time>
      </trkpt>
      <trkpt lat="65.3408" lon="21.4696">
        <ele>32.328764</ele>
        <time>2020-09-26T12:32:23.922Z</time>
      </trkpt>
      <trkpt lat="65.34076" lon="21.46979">
        <ele>32.476279</ele>
        <time>2020-09-26T12:32:25.911Z</time>
      </trkpt>
      <trkpt lat="65.3407" lon="21.47">
        <ele>32.63955</ele>
        <time>2020-09-26T12:32:27.968Z</time>
      </trkpt>
      <trkpt lat="65.34063" lon="21.47021">
        <ele>32.808749</ele>
        <time>2020-09-26T12:32:29.903Z</time>
      </trkpt>
      <trkpt lat="65.34057" lon="21.47039">
        <ele>32.958917</ele>
        <time>2020-09-26T12:32:31.905Z</time>
      </trkpt>
      <trkpt lat="65.34052" lon="21.47067">
        <ele>33.159753</ele>
        <time>2020-09-26T12:32:34.917Z</time>
      </trkpt>
      <trkpt lat="65.3406" lon="21.47094">
        <ele>33.367798</ele>
        <time>2020-09-26T12:32:37.905Z</time>
      </trkpt>
      <trkpt lat="65.34067" lon="21.47112">
        <ele>33.53885</ele>
        <time>2020-09-26T12:32:39.953Z</time>
      </trkpt>
      <trkpt lat="65.34076" lon="21.47133">
        <ele>33.605007</ele>
        <time>2020-09-26T12:32:41.933Z</time>
      </trkpt>
      <trkpt lat="65.34085" lon="21.47155">
        <ele>32.97575</ele>
        <time>2020-09-26T12:32:43.926Z</time>
      </trkpt>
      <trkpt lat="65.34093" lon="21.47177">
        <ele>32.365873</ele>
        <time>2020-09-26T12:32:45.905Z</time>
      </trkpt>
      <trkpt lat="65.34101" lon="21.47197">
        <ele>31.773201</ele>
        <time>2020-09-26T12:32:47.933Z</time>
      </trkpt>
      <trkpt lat="65.34108" lon="21.47215">
        <ele>31.264927</ele>
        <time>2020-09-26T12:32:49.923Z</time>
      </trkpt>
      <trkpt lat="65.34115" lon="21.47229">
        <ele>30.813081</ele>
        <time>2020-09-26T12:32:51.925Z</time>
      </trkpt>
      <trkpt lat="65.34122" lon="21.47248">
        <ele>30.28014</ele>
        <time>2020-09-26T12:32:54.934Z</time>
      </trkpt>
      <trkpt lat="65.34127" lon="21.47267">
        <ele>29.797617</ele>
        <time>2020-09-26T12:32:57.935Z</time>
      </trkpt>
      <trkpt lat="65.34124" lon="21.47291">
        <ele>29.277187</ele>
        <time>2020-09-26T12:33:00.913Z</time>
      </trkpt>
      <trkpt lat="65.34119" lon="21.47309">
        <ele>28.823898</ele>
        <time>2020-09-26T12:33:02.908Z</time>
      </trkpt>
      <trkpt lat="65.34116" lon="21.47332">
        <ele>28.32583</ele>
        <time>2020-09-26T12:33:04.923Z</time>
      </trkpt>
      <trkpt lat="65.34114" lon="21.47356">
        <ele>27.800438</ele>
        <time>2020-09-26T12:33:06.917Z</time>
      </trkpt>
      <trkpt lat="65.34112" lon="21.47383">
        <ele>27.235089</ele>
        <time>2020-09-26T12:33:08.917Z</time>
      </trkpt>
      <trkpt lat="65.34108" lon="21.47409">
        <ele>26.656832</ele>
        <time>2020-09-26T12:33:10.919Z</time>
      </trkpt>
      <trkpt lat="65.34101" lon="21.47432">
        <ele>26.075286</ele>
        <time>2020-09-26T12:33:12.943Z</time>
      </trkpt>
      <trkpt lat="65.34095" lon="21.47454">
        <ele>25.508818</ele>
        <time>2020-09-26T12:33:14.912Z</time>
      </trkpt>
      <trkpt lat="65.34087" lon="21.47473">
        <ele>24.956106</ele>
        <time>2020-09-26T12:33:16.909Z</time>
      </trkpt>
      <trkpt lat="65.3408" lon="21.47491">
        <ele>24.732135</ele>
        <time>2020-09-26T12:33:18.933Z</time>
      </trkpt>
      <trkpt lat="65.34073" lon="21.47506">
        <ele>24.794455</ele>
        <time>2020-09-26T12:33:20.945Z</time>
      </trkpt>
      <trkpt lat="65.34066" lon="21.47521">
        <ele>24.856715</ele>
        <time>2020-09-26T12:33:22.918Z</time>
      </trkpt>
      <trkpt lat="65.34056" lon="21.4754">
        <ele>24.941346</ele>
        <time>2020-09-26T12:33:25.939Z</time>
      </trkpt>
      <trkpt lat="65.34046" lon="21.47558">
        <ele>25.022691</ele>
        <time>2020-09-26T12:33:28.925Z</time>
      </trkpt>
      <trkpt lat="65.34035" lon="21.47576">
        <ele>25.11071</ele>
        <time>2020-09-26T12:33:31.922Z</time>
      </trkpt>
      <trkpt lat="65.34027" lon="21.47588">
        <ele>25.172532</ele>
        <time>2020-09-26T12:33:33.919Z</time>
      </trkpt>
      <trkpt lat="65.34019" lon="21.47599">
        <ele>25.234726</ele>
        <time>2020-09-26T12:33:35.905Z</time>
      </trkpt>
      <trkpt lat="65.3401" lon="21.47607">
        <ele>25.294288</ele>
        <time>2020-09-26T12:33:37.940Z</time>
      </trkpt>
      <trkpt lat="65.33998" lon="21.47618">
        <ele>25.380366</ele>
        <time>2020-09-26T12:33:40.910Z</time>
      </trkpt>
      <trkpt lat="65.3399" lon="21.47628">
        <ele>25.440557</ele>
        <time>2020-09-26T12:33:42.925Z</time>
      </trkpt>
      <trkpt lat="65.33982" lon="21.47638">
        <ele>25.500249</ele>
        <time>2020-09-26T12:33:44.909Z</time>
      </trkpt>
      <trkpt lat="65.33974" lon="21.4765">
        <ele>25.560519</ele>
        <time>2020-09-26T12:33:46.917Z</time>
      </trkpt>
      <trkpt lat="65.33967" lon="21.47664">
        <ele>25.62015</ele>
        <time>2020-09-26T12:33:48.940Z</time>
      </trkpt>
      <trkpt lat="65.33957" lon="21.47682">
        <ele>25.701706</ele>
        <time>2020-09-26T12:33:51.945Z</time>
      </trkpt>
      <trkpt lat="65.33949" lon="21.47694">
        <ele>25.763978</ele>
        <time>2020-09-26T12:33:54.915Z</time>
      </trkpt>
      <trkpt lat="65.33941" lon="21.47704">
        <ele>25.824847</ele>
        <time>2020-09-26T12:34:00.924Z</time>
      </trkpt>
      <trkpt lat="65.33932" lon="21.47715">
        <ele>25.896227</ele>
        <time>2020-09-26T12:34:05.909Z</time>
      </trkpt>
      <trkpt lat="65.33922" lon="21.47729">
        <ele>26.071228</ele>
        <time>2020-09-26T12:34:09.918Z</time>
      </trkpt>
      <trkpt lat="65.33914" lon="21.4774">
        <ele>26.212746</ele>
        <time>2020-09-26T12:34:12.930Z</time>
      </trkpt>
      <trkpt lat="65.33905" lon="21.47754">
        <ele>26.36599</ele>
        <time>2020-09-26T12:34:15.977Z</time>
      </trkpt>
      <trkpt lat="65.33896" lon="21.47766">
        <ele>26.515977</ele>
        <time>2020-09-26T12:34:18.963Z</time>
      </trkpt>
      <trkpt lat="65.33887" lon="21.47776">
        <ele>26.661007</ele>
        <time>2020-09-26T12:34:21.936Z</time>
      </trkpt>
      <trkpt lat="65.33878" lon="21.47789">
        <ele>26.815446</ele>
        <time>2020-09-26T12:34:24.944Z</time>
      </trkpt>
      <trkpt lat="65.33871" lon="21.47811">
        <ele>26.995521</ele>
        <time>2020-09-26T12:34:27.910Z</time>
      </trkpt>
      <trkpt lat="65.33864" lon="21.47839">
        <ele>27.189726</ele>
        <time>2020-09-26T12:34:30.933Z</time>
      </trkpt>
      <trkpt lat="65.33857" lon="21.47856">
        <ele>27.339041</ele>
        <time>2020-09-26T12:34:32.915Z</time>
      </trkpt>
      <trkpt lat="65.33848" lon="21.47865">
        <ele>27.483883</ele>
        <time>2020-09-26T12:34:34.996Z</time>
      </trkpt>
      <trkpt lat="65.33835" lon="21.47871">
        <ele>27.678643</ele>
        <time>2020-09-26T12:34:37.938Z</time>
      </trkpt>
      <trkpt lat="65.33822" lon="21.47882">
        <ele>27.880857</ele>
        <time>2020-09-26T12:34:40.902Z</time>
      </trkpt>
      <trkpt lat="65.33813" lon="21.47894">
        <ele>28.034633</ele>
        <time>2020-09-26T12:34:42.940Z</time>
      </trkpt>
      <trkpt lat="65.33805" lon="21.47909">
        <ele>28.189279</ele>
        <time>2020-09-26T12:34:44.925Z</time>
      </trkpt>
      <trkpt lat="65.33797" lon="21.47922">
        <ele>28.323396</ele>
        <time>2020-09-26T12:34:46.935Z</time>
      </trkpt>
      <trkpt lat="65.3379" lon="21.47937">
        <ele>28.463672</ele>
        <time>2020-09-26T12:34:48.915Z</time>
      </trkpt>
      <trkpt lat="65.33782" lon="21.47951">
        <ele>28.451806</ele>
        <time>2020-09-26T12:34:50.922Z</time>
      </trkpt>
      <trkpt lat="65.33773" lon="21.47964">
        <ele>28.288754</ele>
        <time>2020-09-26T12:34:52.921Z</time>
      </trkpt>
      <trkpt lat="65.33764" lon="21.47972">
        <ele>28.122954</ele>
        <time>2020-09-26T12:34:54.903Z</time>
      </trkpt>
      <trkpt lat="65.33754" lon="21.47976">
        <ele>27.962696</ele>
        <time>2020-09-26T12:34:56.937Z</time>
      </trkpt>
      <trkpt lat="65.33745" lon="21.47981">
        <ele>27.808823</ele>
        <time>2020-09-26T12:34:58.918Z</time>
      </trkpt>
      <trkpt lat="65.33736" lon="21.47986">
        <ele>27.660551</ele>
        <time>2020-09-26T12:35:00.926Z</time>
      </trkpt>
      <trkpt lat="65.33724" lon="21.48">
        <ele>27.446341</ele>
        <time>2020-09-26T12:35:03.923Z</time>
      </trkpt>
      <trkpt lat="65.33714" lon="21.48017">
        <ele>27.24814</ele>
        <time>2020-09-26T12:35:06.923Z</time>
      </trkpt>
      <trkpt lat="65.33704" lon="21.48035">
        <ele>27.04672</ele>
        <time>2020-09-26T12:35:09.936Z</time>
      </trkpt>
      <trkpt lat="65.33693" lon="21.48055">
        <ele>26.823695</ele>
        <time>2020-09-26T12:35:12.945Z</time>
      </trkpt>
      <trkpt lat="65.33685" lon="21.48069">
        <ele>26.666065</ele>
        <time>2020-09-26T12:35:14.942Z</time>
      </trkpt>
      <trkpt lat="65.33677" lon="21.48081">
        <ele>26.502974</ele>
        <time>2020-09-26T12:35:16.927Z</time>
      </trkpt>
      <trkpt lat="65.33669" lon="21.48095">
        <ele>26.348944</ele>
        <time>2020-09-26T12:35:18.922Z</time>
      </trkpt>
      <trkpt lat="65.3366" lon="21.48115">
        <ele>26.146173</ele>
        <time>2020-09-26T12:35:21.919Z</time>
      </trkpt>
      <trkpt lat="65.33652" lon="21.48138">
        <ele>25.935372</ele>
        <time>2020-09-26T12:35:24.920Z</time>
      </trkpt>
      <trkpt lat="65.33647" lon="21.48157">
        <ele>25.788247</ele>
        <time>2020-09-26T12:35:26.903Z</time>
      </trkpt>
      <trkpt lat="65.33643" lon="21.48177">
        <ele>25.640083</ele>
        <time>2020-09-26T12:35:28.922Z</time>
      </trkpt>
      <trkpt lat="65.33639" lon="21.48197">
        <ele>25.682748</ele>
        <time>2020-09-26T12:35:30.930Z</time>
      </trkpt>
      <trkpt lat="65.33636" lon="21.48227">
        <ele>25.805098</ele>
        <time>2020-09-26T12:35:33.943Z</time>
      </trkpt>
      <trkpt lat="65.33635" lon="21.4825">
        <ele>25.894323</ele>
        <time>2020-09-26T12:35:35.915Z</time>
      </trkpt>
      <trkpt lat="65.33634" lon="21.48282">
        <ele>26.016879</ele>
        <time>2020-09-26T12:35:38.961Z</time>
      </trkpt>
      <trkpt lat="65.33632" lon="21.48311">
        <ele>26.12963</ele>
        <time>2020-09-26T12:35:41.916Z</time>
      </trkpt>
      <trkpt lat="65.3363" lon="21.48338">
        <ele>26.238981</ele>
        <time>2020-09-26T12:35:44.907Z</time>
      </trkpt>
      <trkpt lat="65.33628" lon="21.48366">
        <ele>26.349299</ele>
        <time>2020-09-26T12:35:47.917Z</time>
      </trkpt>
      <trkpt lat="65.33627" lon="21.48395">
        <ele>26.459104</ele>
        <time>2020-09-26T12:35:50.944Z</time>
      </trkpt>
      <trkpt lat="65.33625" lon="21.48422">
        <ele>26.56674</ele>
        <time>2020-09-26T12:35:53.960Z</time>
      </trkpt>
      <trkpt lat="65.33623" lon="21.4845">
        <ele>26.676126</ele>
        <time>2020-09-26T12:35:56.921Z</time>
      </trkpt>
      <trkpt lat="65.33621" lon="21.48478">
        <ele>26.787977</ele>
        <time>2020-09-26T12:35:59.938Z</time>
      </trkpt>
      <trkpt lat="65.33619" lon="21.48508">
        <ele>26.904075</ele>
        <time>2020-09-26T12:36:02.918Z</time>
      </trkpt>
      <trkpt lat="65.33617" lon="21.48537">
        <ele>27.016128</ele>
        <time>2020-09-26T12:36:05.902Z</time>
      </trkpt>
      <trkpt lat="65.33616" lon="21.48564">
        <ele>27.123777</ele>
        <time>2020-09-26T12:36:08.922Z</time>
      </trkpt>
      <trkpt lat="65.33614" lon="21.48592">
        <ele>27.232309</ele>
        <time>2020-09-26T12:36:11.923Z</time>
      </trkpt>
      <trkpt lat="65.3361" lon="21.48618">
        <ele>27.310136</ele>
        <time>2020-09-26T12:36:14.911Z</time>
      </trkpt>
      <trkpt lat="65.33604" lon="21.4864">
        <ele>27.361835</ele>
        <time>2020-09-26T12:36:17.901Z</time>
      </trkpt>
      <trkpt lat="65.33598" lon="21.48659">
        <ele>27.407796</ele>
        <time>2020-09-26T12:36:20.920Z</time>
      </trkpt>
      <trkpt lat="65.33592" lon="21.48674">
        <ele>27.44995</ele>
        <time>2020-09-26T12:36:23.963Z</time>
      </trkpt>
      <trkpt lat="65.33584" lon="21.48695">
        <ele>27.50463</ele>
        <time>2020-09-26T12:36:27.908Z</time>
      </trkpt>
      <trkpt lat="65.33577" lon="21.4871">
        <ele>27.546969</ele>
        <time>2020-09-26T12:36:30.939Z</time>
      </trkpt>
      <trkpt lat="65.3357" lon="21.48728">
        <ele>27.595116</ele>
        <time>2020-09-26T12:36:33.907Z</time>
      </trkpt>
      <trkpt lat="65.33562" lon="21.48747">
        <ele>27.6467</ele>
        <time>2020-09-26T12:36:36.919Z</time>
      </trkpt>
      <trkpt lat="65.33553" lon="21.48767">
        <ele>27.702883</ele>
        <time>2020-09-26T12:36:39.921Z</time>
      </trkpt>
      <trkpt lat="65.33543" lon="21.48789">
        <ele>27.766501</ele>
        <time>2020-09-26T12:36:42.932Z</time>
      </trkpt>
      <trkpt lat="65.33536" lon="21.48806">
        <ele>27.813516</ele>
        <time>2020-09-26T12:36:44.920Z</time>
      </trkpt>
      <trkpt lat="65.33529" lon="21.48822">
        <ele>27.857719</ele>
        <time>2020-09-26T12:36:46.912Z</time>
      </trkpt>
      <trkpt lat="65.33522" lon="21.48838">
        <ele>27.903322</ele>
        <time>2020-09-26T12:36:48.927Z</time>
      </trkpt>
      <trkpt lat="65.33513" lon="21.48861">
        <ele>27.965124</ele>
        <time>2020-09-26T12:36:51.939Z</time>
      </trkpt>
      <trkpt lat="65.33506" lon="21.48876">
        <ele>28.007311</ele>
        <time>2020-09-26T12:36:53.975Z</time>
      </trkpt>
      <trkpt lat="65.335" lon="21.48894">
        <ele>28.051146</ele>
        <time>2020-09-26T12:36:55.917Z</time>
      </trkpt>
      <trkpt lat="65.33493" lon="21.48911">
        <ele>28.098664</ele>
        <time>2020-09-26T12:36:57.907Z</time>
      </trkpt>
      <trkpt lat="65.33486" lon="21.4893">
        <ele>27.986334</ele>
        <time>2020-09-26T12:36:59.921Z</time>
      </trkpt>
      <trkpt lat="65.33479" lon="21.48949">
        <ele>27.776232</ele>
        <time>2020-09-26T12:37:01.975Z</time>
      </trkpt>
      <trkpt lat="65.33472" lon="21.48967">
        <ele>27.567945</ele>
        <time>2020-09-26T12:37:03.920Z</time>
      </trkpt>
      <trkpt lat="65.33466" lon="21.48984">
        <ele>27.36814</ele>
        <time>2020-09-26T12:37:05.927Z</time>
      </trkpt>
      <trkpt lat="65.33456" lon="21.49007">
        <ele>27.088797</ele>
        <time>2020-09-26T12:37:08.912Z</time>
      </trkpt>
      <trkpt lat="65.33449" lon="21.49023">
        <ele>26.898431</ele>
        <time>2020-09-26T12:37:10.937Z</time>
      </trkpt>
      <trkpt lat="65.33443" lon="21.4904">
        <ele>26.713083</ele>
        <time>2020-09-26T12:37:12.923Z</time>
      </trkpt>
      <trkpt lat="65.33436" lon="21.49066">
        <ele>26.442103</ele>
        <time>2020-09-26T12:37:15.923Z</time>
      </trkpt>
      <trkpt lat="65.33429" lon="21.49092">
        <ele>26.177865</ele>
        <time>2020-09-26T12:37:18.918Z</time>
      </trkpt>
      <trkpt lat="65.33421" lon="21.49118">
        <ele>25.910201</ele>
        <time>2020-09-26T12:37:21.913Z</time>
      </trkpt>
      <trkpt lat="65.33413" lon="21.49144">
        <ele>25.635726</ele>
        <time>2020-09-26T12:37:24.942Z</time>
      </trkpt>
      <trkpt lat="65.33408" lon="21.49162">
        <ele>25.447573</ele>
        <time>2020-09-26T12:37:26.929Z</time>
      </trkpt>
      <trkpt lat="65.33401" lon="21.49177">
        <ele>25.262347</ele>
        <time>2020-09-26T12:37:28.999Z</time>
      </trkpt>
      <trkpt lat="65.33394" lon="21.49191">
        <ele>25.08092</ele>
        <time>2020-09-26T12:37:30.957Z</time>
      </trkpt>
      <trkpt lat="65.33387" lon="21.49204">
        <ele>24.895287</ele>
        <time>2020-09-26T12:37:32.905Z</time>
      </trkpt>
      <trkpt lat="65.3338" lon="21.49218">
        <ele>24.710665</ele>
        <time>2020-09-26T12:37:34.930Z</time>
      </trkpt>
      <trkpt lat="65.33373" lon="21.49235">
        <ele>24.51949</ele>
        <time>2020-09-26T12:37:36.918Z</time>
      </trkpt>
      <trkpt lat="65.33368" lon="21.49252">
        <ele>24.497005</ele>
        <time>2020-09-26T12:37:38.913Z</time>
      </trkpt>
      <trkpt lat="65.33363" lon="21.4927">
        <ele>24.540424</ele>
        <time>2020-09-26T12:37:40.930Z</time>
      </trkpt>
      <trkpt lat="65.33358" lon="21.49288">
        <ele>24.584579</ele>
        <time>2020-09-26T12:37:42.940Z</time>
      </trkpt>
      <trkpt lat="65.3335" lon="21.49314">
        <ele>24.646293</ele>
        <time>2020-09-26T12:37:45.958Z</time>
      </trkpt>
      <trkpt lat="65.33343" lon="21.4934">
        <ele>24.709874</ele>
        <time>2020-09-26T12:37:48.913Z</time>
      </trkpt>
      <trkpt lat="65.33337" lon="21.49359">
        <ele>24.756622</ele>
        <time>2020-09-26T12:37:50.913Z</time>
      </trkpt>
      <trkpt lat="65.33332" lon="21.49379">
        <ele>24.803494</ele>
        <time>2020-09-26T12:37:52.923Z</time>
      </trkpt>
      <trkpt lat="65.33327" lon="21.49399">
        <ele>24.848928</ele>
        <time>2020-09-26T12:37:54.945Z</time>
      </trkpt>
      <trkpt lat="65.33325" lon="21.4943">
        <ele>24.911353</ele>
        <time>2020-09-26T12:37:57.945Z</time>
      </trkpt>
      <trkpt lat="65.33321" lon="21.49451">
        <ele>24.957398</ele>
        <time>2020-09-26T12:37:59.905Z</time>
      </trkpt>
      <trkpt lat="65.33312" lon="21.49468">
        <ele>25.013571</ele>
        <time>2020-09-26T12:38:01.958Z</time>
      </trkpt>
      <trkpt lat="65.33301" lon="21.49482">
        <ele>25.073189</ele>
        <time>2020-09-26T12:38:03.916Z</time>
      </trkpt>
      <trkpt lat="65.3329" lon="21.49496">
        <ele>25.132382</ele>
        <time>2020-09-26T12:38:05.916Z</time>
      </trkpt>
      <trkpt lat="65.33279" lon="21.49509">
        <ele>25.188334</ele>
        <time>2020-09-26T12:38:07.905Z</time>
      </trkpt>
      <trkpt lat="65.3327" lon="21.49522">
        <ele>25.239208</ele>
        <time>2020-09-26T12:38:09.911Z</time>
      </trkpt>
      <trkpt lat="65.33261" lon="21.49533">
        <ele>25.287563</ele>
        <time>2020-09-26T12:38:11.919Z</time>
      </trkpt>
      <trkpt lat="65.33253" lon="21.49546">
        <ele>25.336017</ele>
        <time>2020-09-26T12:38:13.940Z</time>
      </trkpt>
      <trkpt lat="65.33244" lon="21.49558">
        <ele>25.387116</ele>
        <time>2020-09-26T12:38:15.955Z</time>
      </trkpt>
      <trkpt lat="65.33236" lon="21.49571">
        <ele>25.436472</ele>
        <time>2020-09-26T12:38:17.915Z</time>
      </trkpt>
      <trkpt lat="65.33229" lon="21.49583">
        <ele>25.484608</ele>
        <time>2020-09-26T12:38:19.981Z</time>
      </trkpt>
      <trkpt lat="65.3322" lon="21.49593">
        <ele>25.533011</ele>
        <time>2020-09-26T12:38:21.909Z</time>
      </trkpt>
      <trkpt lat="65.33212" lon="21.49604">
        <ele>25.580121</ele>
        <time>2020-09-26T12:38:23.926Z</time>
      </trkpt>
      <trkpt lat="65.33204" lon="21.49614">
        <ele>25.628884</ele>
        <time>2020-09-26T12:38:25.943Z</time>
      </trkpt>
      <trkpt lat="65.33196" lon="21.49626">
        <ele>25.677767</ele>
        <time>2020-09-26T12:38:27.925Z</time>
      </trkpt>
      <trkpt lat="65.33187" lon="21.49637">
        <ele>25.727445</ele>
        <time>2020-09-26T12:38:29.915Z</time>
      </trkpt>
      <trkpt lat="65.33179" lon="21.49648">
        <ele>25.777266</ele>
        <time>2020-09-26T12:38:31.909Z</time>
      </trkpt>
      <trkpt lat="65.3317" lon="21.4966">
        <ele>25.831091</ele>
        <time>2020-09-26T12:38:33.935Z</time>
      </trkpt>
      <trkpt lat="65.33161" lon="21.49671">
        <ele>25.884916</ele>
        <time>2020-09-26T12:38:35.924Z</time>
      </trkpt>
      <trkpt lat="65.33151" lon="21.49683">
        <ele>25.93915</ele>
        <time>2020-09-26T12:38:37.912Z</time>
      </trkpt>
      <trkpt lat="65.33143" lon="21.49695">
        <ele>25.990291</ele>
        <time>2020-09-26T12:38:39.909Z</time>
      </trkpt>
      <trkpt lat="65.33134" lon="21.49706">
        <ele>26.040214</ele>
        <time>2020-09-26T12:38:41.924Z</time>
      </trkpt>
      <trkpt lat="65.33126" lon="21.49717">
        <ele>26.090765</ele>
        <time>2020-09-26T12:38:43.926Z</time>
      </trkpt>
      <trkpt lat="65.33117" lon="21.49729">
        <ele>26.141415</ele>
        <time>2020-09-26T12:38:45.904Z</time>
      </trkpt>
      <trkpt lat="65.33109" lon="21.49739">
        <ele>26.189522</ele>
        <time>2020-09-26T12:38:47.948Z</time>
      </trkpt>
      <trkpt lat="65.331" lon="21.49749">
        <ele>26.240139</ele>
        <time>2020-09-26T12:38:49.935Z</time>
      </trkpt>
      <trkpt lat="65.33089" lon="21.49764">
        <ele>26.648755</ele>
        <time>2020-09-26T12:38:52.913Z</time>
      </trkpt>
      <trkpt lat="65.33076" lon="21.49777">
        <ele>27.186722</ele>
        <time>2020-09-26T12:38:55.926Z</time>
      </trkpt>
      <trkpt lat="65.33068" lon="21.49785">
        <ele>27.545282</ele>
        <time>2020-09-26T12:38:57.913Z</time>
      </trkpt>
      <trkpt lat="65.33059" lon="21.49792">
        <ele>27.920443</ele>
        <time>2020-09-26T12:38:59.929Z</time>
      </trkpt>
      <trkpt lat="65.33049" lon="21.49798">
        <ele>28.309128</ele>
        <time>2020-09-26T12:39:01.934Z</time>
      </trkpt>
      <trkpt lat="65.3304" lon="21.49801">
        <ele>28.693878</ele>
        <time>2020-09-26T12:39:03.921Z</time>
      </trkpt>
      <trkpt lat="65.33031" lon="21.49803">
        <ele>29.056182</ele>
        <time>2020-09-26T12:39:05.954Z</time>
      </trkpt>
      <trkpt lat="65.33022" lon="21.49805">
        <ele>29.42202</ele>
        <time>2020-09-26T12:39:07.915Z</time>
      </trkpt>
      <trkpt lat="65.33012" lon="21.49804">
        <ele>29.787079</ele>
        <time>2020-09-26T12:39:09.921Z</time>
      </trkpt>
      <trkpt lat="65.33003" lon="21.49803">
        <ele>30.160588</ele>
        <time>2020-09-26T12:39:11.901Z</time>
      </trkpt>
      <trkpt lat="65.32993" lon="21.498">
        <ele>30.544215</ele>
        <time>2020-09-26T12:39:13.911Z</time>
      </trkpt>
      <trkpt lat="65.32984" lon="21.49796">
        <ele>30.927223</ele>
        <time>2020-09-26T12:39:15.944Z</time>
      </trkpt>
      <trkpt lat="65.32975" lon="21.49791">
        <ele>31.287856</ele>
        <time>2020-09-26T12:39:17.940Z</time>
      </trkpt>
      <trkpt lat="65.32966" lon="21.49787">
        <ele>31.64718</ele>
        <time>2020-09-26T12:39:19.921Z</time>
      </trkpt>
      <trkpt lat="65.32953" lon="21.49779">
        <ele>32.163142</ele>
        <time>2020-09-26T12:39:22.942Z</time>
      </trkpt>
      <trkpt lat="65.32944" lon="21.49773">
        <ele>32.537346</ele>
        <time>2020-09-26T12:39:24.915Z</time>
      </trkpt>
      <trkpt lat="65.32935" lon="21.49767">
        <ele>32.907728</ele>
        <time>2020-09-26T12:39:26.920Z</time>
      </trkpt>
      <trkpt lat="65.32927" lon="21.49759">
        <ele>33.279736</ele>
        <time>2020-09-26T12:39:28.967Z</time>
      </trkpt>
      <trkpt lat="65.32918" lon="21.49749">
        <ele>33.33447</ele>
        <time>2020-09-26T12:39:30.921Z</time>
      </trkpt>
      <trkpt lat="65.32909" lon="21.49739">
        <ele>33.263873</ele>
        <time>2020-09-26T12:39:32.922Z</time>
      </trkpt>
      <trkpt lat="65.32901" lon="21.49728">
        <ele>33.189764</ele>
        <time>2020-09-26T12:39:34.918Z</time>
      </trkpt>
      <trkpt lat="65.32892" lon="21.49717">
        <ele>33.117335</ele>
        <time>2020-09-26T12:39:36.928Z</time>
      </trkpt>
      <trkpt lat="65.32884" lon="21.49705">
        <ele>33.044604</ele>
        <time>2020-09-26T12:39:38.927Z</time>
      </trkpt>
      <trkpt lat="65.32876" lon="21.49694">
        <ele>32.976066</ele>
        <time>2020-09-26T12:39:40.933Z</time>
      </trkpt>
      <trkpt lat="65.32868" lon="21.49683">
        <ele>32.907528</ele>
        <time>2020-09-26T12:39:42.918Z</time>
      </trkpt>
      <trkpt lat="65.3286" lon="21.49671">
        <ele>32.838148</ele>
        <time>2020-09-26T12:39:44.917Z</time>
      </trkpt>
      <trkpt lat="65.32852" lon="21.49659">
        <ele>32.767509</ele>
        <time>2020-09-26T12:39:46.916Z</time>
      </trkpt>
      <trkpt lat="65.32844" lon="21.49647">
        <ele>32.697528</ele>
        <time>2020-09-26T12:39:48.934Z</time>
      </trkpt>
      <trkpt lat="65.32835" lon="21.49636">
        <ele>32.624144</ele>
        <time>2020-09-26T12:39:50.935Z</time>
      </trkpt>
      <trkpt lat="65.32827" lon="21.49625">
        <ele>32.554428</ele>
        <time>2020-09-26T12:39:52.927Z</time>
      </trkpt>
      <trkpt lat="65.32816" lon="21.49609">
        <ele>32.453995</ele>
        <time>2020-09-26T12:39:55.904Z</time>
      </trkpt>
      <trkpt lat="65.32808" lon="21.49599">
        <ele>32.386037</ele>
        <time>2020-09-26T12:39:57.928Z</time>
      </trkpt>
      <trkpt lat="65.32799" lon="21.49589">
        <ele>32.315057</ele>
        <time>2020-09-26T12:39:59.953Z</time>
      </trkpt>
      <trkpt lat="65.3279" lon="21.49578">
        <ele>32.241897</ele>
        <time>2020-09-26T12:40:01.938Z</time>
      </trkpt>
      <trkpt lat="65.32782" lon="21.49567">
        <ele>32.1694</ele>
        <time>2020-09-26T12:40:03.914Z</time>
      </trkpt>
      <trkpt lat="65.32774" lon="21.49555">
        <ele>32.09798</ele>
        <time>2020-09-26T12:40:05.922Z</time>
      </trkpt>
      <trkpt lat="65.32761" lon="21.49544">
        <ele>32.032917</ele>
        <time>2020-09-26T12:40:08.916Z</time>
      </trkpt>
      <trkpt lat="65.32749" lon="21.49539">
        <ele>32.009227</ele>
        <time>2020-09-26T12:40:11.921Z</time>
      </trkpt>
      <trkpt lat="65.32737" lon="21.49536">
        <ele>31.986991</ele>
        <time>2020-09-26T12:40:14.923Z</time>
      </trkpt>
      <trkpt lat="65.32725" lon="21.49534">
        <ele>31.964106</ele>
        <time>2020-09-26T12:40:17.910Z</time>
      </trkpt>
      <trkpt lat="65.32714" lon="21.49535">
        <ele>31.941996</ele>
        <time>2020-09-26T12:40:20.918Z</time>
      </trkpt>
      <trkpt lat="65.32701" lon="21.49537">
        <ele>31.917933</ele>
        <time>2020-09-26T12:40:23.915Z</time>
      </trkpt>
      <trkpt lat="65.32689" lon="21.49537">
        <ele>31.894683</ele>
        <time>2020-09-26T12:40:26.898Z</time>
      </trkpt>
      <trkpt lat="65.32676" lon="21.49538">
        <ele>31.869915</ele>
        <time>2020-09-26T12:40:29.923Z</time>
      </trkpt>
      <trkpt lat="65.32662" lon="21.4954">
        <ele>31.844949</ele>
        <time>2020-09-26T12:40:32.929Z</time>
      </trkpt>
      <trkpt lat="65.32653" lon="21.49539">
        <ele>31.827168</ele>
        <time>2020-09-26T12:40:34.906Z</time>
      </trkpt>
      <trkpt lat="65.3264" lon="21.49537">
        <ele>31.803332</ele>
        <time>2020-09-26T12:40:37.924Z</time>
      </trkpt>
      <trkpt lat="65.32631" lon="21.49538">
        <ele>31.785929</ele>
        <time>2020-09-26T12:40:39.922Z</time>
      </trkpt>
      <trkpt lat="65.32622" lon="21.4954">
        <ele>31.768706</ele>
        <time>2020-09-26T12:40:41.914Z</time>
      </trkpt>
      <trkpt lat="65.32612" lon="21.49543">
        <ele>31.749839</ele>
        <time>2020-09-26T12:40:43.933Z</time>
      </trkpt>
      <trkpt lat="65.32603" lon="21.49545">
        <ele>31.732193</ele>
        <time>2020-09-26T12:40:45.913Z</time>
      </trkpt>
      <trkpt lat="65.3259" lon="21.49546">
        <ele>31.707032</ele>
        <time>2020-09-26T12:40:48.953Z</time>
      </trkpt>
      <trkpt lat="65.3258" lon="21.49547">
        <ele>31.743479</ele>
        <time>2020-09-26T12:40:50.902Z</time>
      </trkpt>
      <trkpt lat="65.32571" lon="21.49547">
        <ele>31.795972</ele>
        <time>2020-09-26T12:40:52.905Z</time>
      </trkpt>
      <trkpt lat="65.32562" lon="21.49548">
        <ele>31.845738</ele>
        <time>2020-09-26T12:40:54.913Z</time>
      </trkpt>
      <trkpt lat="65.32552" lon="21.49548">
        <ele>31.898219</ele>
        <time>2020-09-26T12:40:56.923Z</time>
      </trkpt>
      <trkpt lat="65.32542" lon="21.49547">
        <ele>31.955674</ele>
        <time>2020-09-26T12:40:58.905Z</time>
      </trkpt>
      <trkpt lat="65.32531" lon="21.49545">
        <ele>32.015436</ele>
        <time>2020-09-26T12:41:00.910Z</time>
      </trkpt>
      <trkpt lat="65.3252" lon="21.49539">
        <ele>32.074024</ele>
        <time>2020-09-26T12:41:02.911Z</time>
      </trkpt>
      <trkpt lat="65.32511" lon="21.49529">
        <ele>32.131649</ele>
        <time>2020-09-26T12:41:04.924Z</time>
      </trkpt>
      <trkpt lat="65.32501" lon="21.49521">
        <ele>32.185473</ele>
        <time>2020-09-26T12:41:06.941Z</time>
      </trkpt>
      <trkpt lat="65.32492" lon="21.49513">
        <ele>32.239378</ele>
        <time>2020-09-26T12:41:08.921Z</time>
      </trkpt>
      <trkpt lat="65.32484" lon="21.495">
        <ele>32.293903</ele>
        <time>2020-09-26T12:41:10.935Z</time>
      </trkpt>
      <trkpt lat="65.32476" lon="21.49485">
        <ele>32.350154</ele>
        <time>2020-09-26T12:41:12.907Z</time>
      </trkpt>
      <trkpt lat="65.32468" lon="21.49471">
        <ele>32.403651</ele>
        <time>2020-09-26T12:41:14.921Z</time>
      </trkpt>
      <trkpt lat="65.3246" lon="21.49458">
        <ele>32.455815</ele>
        <time>2020-09-26T12:41:16.923Z</time>
      </trkpt>
      <trkpt lat="65.32453" lon="21.49443">
        <ele>32.507386</ele>
        <time>2020-09-26T12:41:18.925Z</time>
      </trkpt>
      <trkpt lat="65.32445" lon="21.49428">
        <ele>32.561365</ele>
        <time>2020-09-26T12:41:20.936Z</time>
      </trkpt>
      <trkpt lat="65.32438" lon="21.49413">
        <ele>32.611999</ele>
        <time>2020-09-26T12:41:22.918Z</time>
      </trkpt>
      <trkpt lat="65.32431" lon="21.49398">
        <ele>32.663397</ele>
        <time>2020-09-26T12:41:24.904Z</time>
      </trkpt>
      <trkpt lat="65.32423" lon="21.49375">
        <ele>32.53766</ele>
        <time>2020-09-26T12:41:27.938Z</time>
      </trkpt>
      <trkpt lat="65.32414" lon="21.49353">
        <ele>32.296865</ele>
        <time>2020-09-26T12:41:30.913Z</time>
      </trkpt>
      <trkpt lat="65.32407" lon="21.49334">
        <ele>32.097773</ele>
        <time>2020-09-26T12:41:32.922Z</time>
      </trkpt>
      <trkpt lat="65.324" lon="21.49313">
        <ele>31.888053</ele>
        <time>2020-09-26T12:41:34.921Z</time>
      </trkpt>
      <trkpt lat="65.32393" lon="21.49293">
        <ele>31.688422</ele>
        <time>2020-09-26T12:41:36.936Z</time>
      </trkpt>
      <trkpt lat="65.32387" lon="21.49276">
        <ele>31.50722</ele>
        <time>2020-09-26T12:41:38.926Z</time>
      </trkpt>
      <trkpt lat="65.32378" lon="21.49253">
        <ele>31.268598</ele>
        <time>2020-09-26T12:41:41.948Z</time>
      </trkpt>
      <trkpt lat="65.32371" lon="21.49235">
        <ele>31.080794</ele>
        <time>2020-09-26T12:41:44.918Z</time>
      </trkpt>
      <trkpt lat="65.32365" lon="21.49217">
        <ele>30.904929</ele>
        <time>2020-09-26T12:41:47.905Z</time>
      </trkpt>
      <trkpt lat="65.32359" lon="21.49199">
        <ele>30.720144</ele>
        <time>2020-09-26T12:41:50.922Z</time>
      </trkpt>
      <trkpt lat="65.32351" lon="21.49179">
        <ele>30.508436</ele>
        <time>2020-09-26T12:41:53.908Z</time>
      </trkpt>
      <trkpt lat="65.32342" lon="21.49155">
        <ele>30.268994</ele>
        <time>2020-09-26T12:41:56.917Z</time>
      </trkpt>
      <trkpt lat="65.32336" lon="21.49139">
        <ele>30.100801</ele>
        <time>2020-09-26T12:41:58.906Z</time>
      </trkpt>
      <trkpt lat="65.3233" lon="21.49122">
        <ele>29.922477</ele>
        <time>2020-09-26T12:42:00.926Z</time>
      </trkpt>
      <trkpt lat="65.32324" lon="21.49106">
        <ele>29.752475</ele>
        <time>2020-09-26T12:42:02.918Z</time>
      </trkpt>
      <trkpt lat="65.32317" lon="21.49089">
        <ele>29.569315</ele>
        <time>2020-09-26T12:42:04.975Z</time>
      </trkpt>
      <trkpt lat="65.32309" lon="21.49072">
        <ele>29.377261</ele>
        <time>2020-09-26T12:42:06.914Z</time>
      </trkpt>
      <trkpt lat="65.32302" lon="21.49055">
        <ele>29.299847</ele>
        <time>2020-09-26T12:42:08.918Z</time>
      </trkpt>
      <trkpt lat="65.32295" lon="21.49039">
        <ele>29.241855</ele>
        <time>2020-09-26T12:42:10.914Z</time>
      </trkpt>
      <trkpt lat="65.32287" lon="21.49025">
        <ele>29.185566</ele>
        <time>2020-09-26T12:42:12.927Z</time>
      </trkpt>
      <trkpt lat="65.3228" lon="21.49011">
        <ele>29.130857</ele>
        <time>2020-09-26T12:42:14.936Z</time>
      </trkpt>
      <trkpt lat="65.32273" lon="21.48998">
        <ele>29.076274</ele>
        <time>2020-09-26T12:42:16.921Z</time>
      </trkpt>
      <trkpt lat="65.32261" lon="21.48983">
        <ele>28.996455</ele>
        <time>2020-09-26T12:42:19.934Z</time>
      </trkpt>
      <trkpt lat="65.32251" lon="21.48967">
        <ele>28.924409</ele>
        <time>2020-09-26T12:42:22.923Z</time>
      </trkpt>
      <trkpt lat="65.32242" lon="21.48943">
        <ele>28.846678</ele>
        <time>2020-09-26T12:42:25.907Z</time>
      </trkpt>
      <trkpt lat="65.32233" lon="21.48922">
        <ele>28.77064</ele>
        <time>2020-09-26T12:42:28.928Z</time>
      </trkpt>
      <trkpt lat="65.32226" lon="21.48909">
        <ele>28.717266</ele>
        <time>2020-09-26T12:42:30.922Z</time>
      </trkpt>
      <trkpt lat="65.32215" lon="21.4889">
        <ele>28.640677</ele>
        <time>2020-09-26T12:42:33.977Z</time>
      </trkpt>
      <trkpt lat="65.32206" lon="21.48872">
        <ele>28.571315</ele>
        <time>2020-09-26T12:42:36.931Z</time>
      </trkpt>
      <trkpt lat="65.32197" lon="21.48854">
        <ele>28.498232</ele>
        <time>2020-09-26T12:42:39.926Z</time>
      </trkpt>
      <trkpt lat="65.32186" lon="21.48836">
        <ele>28.422417</ele>
        <time>2020-09-26T12:42:42.926Z</time>
      </trkpt>
      <trkpt lat="65.32176" lon="21.48818">
        <ele>28.348756</ele>
        <time>2020-09-26T12:42:45.928Z</time>
      </trkpt>
      <trkpt lat="65.32166" lon="21.48799">
        <ele>28.378168</ele>
        <time>2020-09-26T12:42:48.918Z</time>
      </trkpt>
      <trkpt lat="65.32157" lon="21.48782">
        <ele>28.840571</ele>
        <time>2020-09-26T12:42:51.912Z</time>
      </trkpt>
      <trkpt lat="65.32148" lon="21.48763">
        <ele>29.305006</ele>
        <time>2020-09-26T12:42:54.943Z</time>
      </trkpt>
      <trkpt lat="65.32138" lon="21.48747">
        <ele>29.746463</ele>
        <time>2020-09-26T12:42:57.922Z</time>
      </trkpt>
      <trkpt lat="65.32129" lon="21.48732">
        <ele>30.161062</ele>
        <time>2020-09-26T12:43:00.937Z</time>
      </trkpt>
      <trkpt lat="65.32121" lon="21.48717">
        <ele>30.574161</ele>
        <time>2020-09-26T12:43:03.934Z</time>
      </trkpt>
      <trkpt lat="65.32112" lon="21.48703">
        <ele>30.977941</ele>
        <time>2020-09-26T12:43:06.904Z</time>
      </trkpt>
      <trkpt lat="65.32103" lon="21.48687">
        <ele>31.427243</ele>
        <time>2020-09-26T12:43:09.939Z</time>
      </trkpt>
      <trkpt lat="65.32093" lon="21.48668">
        <ele>31.906283</ele>
        <time>2020-09-26T12:43:12.926Z</time>
      </trkpt>
      <trkpt lat="65.32083" lon="21.48649">
        <ele>32.406373</ele>
        <time>2020-09-26T12:43:15.936Z</time>
      </trkpt>
      <trkpt lat="65.32074" lon="21.4863">
        <ele>32.87477</ele>
        <time>2020-09-26T12:43:18.954Z</time>
      </trkpt>
      <trkpt lat="65.32065" lon="21.48612">
        <ele>33.302314</ele>
        <time>2020-09-26T12:43:21.935Z</time>
      </trkpt>
      <trkpt lat="65.32058" lon="21.48597">
        <ele>33.675275</ele>
        <time>2020-09-26T12:43:24.912Z</time>
      </trkpt>
      <trkpt lat="65.3205" lon="21.48581">
        <ele>34.08117</ele>
        <time>2020-09-26T12:43:27.914Z</time>
      </trkpt>
      <trkpt lat="65.32043" lon="21.48566">
        <ele>34.447928</ele>
        <time>2020-09-26T12:43:30.915Z</time>
      </trkpt>
      <trkpt lat="65.32036" lon="21.48551">
        <ele>34.802138</ele>
        <time>2020-09-26T12:43:33.916Z</time>
      </trkpt>
      <trkpt lat="65.32027" lon="21.48533">
        <ele>35.213355</ele>
        <time>2020-09-26T12:43:37.939Z</time>
      </trkpt>
      <trkpt lat="65.32019" lon="21.48518">
        <ele>35.280903</ele>
        <time>2020-09-26T12:43:41.938Z</time>
      </trkpt>
      <trkpt lat="65.3201" lon="21.48502">
        <ele>35.349782</ele>
        <time>2020-09-26T12:43:45.925Z</time>
      </trkpt>
      <trkpt lat="65.32001" lon="21.48484">
        <ele>35.425173</ele>
        <time>2020-09-26T12:43:49.927Z</time>
      </trkpt>
      <trkpt lat="65.31994" lon="21.4847">
        <ele>35.483767</ele>
        <time>2020-09-26T12:43:52.921Z</time>
      </trkpt>
      <trkpt lat="65.31985" lon="21.48453">
        <ele>35.557165</ele>
        <time>2020-09-26T12:43:56.926Z</time>
      </trkpt>
      <trkpt lat="65.31976" lon="21.48438">
        <ele>35.628195</ele>
        <time>2020-09-26T12:44:00.925Z</time>
      </trkpt>
      <trkpt lat="65.31969" lon="21.48425">
        <ele>35.687428</ele>
        <time>2020-09-26T12:44:03.924Z</time>
      </trkpt>
      <trkpt lat="65.3196" lon="21.48412">
        <ele>35.752824</ele>
        <time>2020-09-26T12:44:06.945Z</time>
      </trkpt>
      <trkpt lat="65.31952" lon="21.48399">
        <ele>35.815858</ele>
        <time>2020-09-26T12:44:09.941Z</time>
      </trkpt>
      <trkpt lat="65.31944" lon="21.48386">
        <ele>35.875289</ele>
        <time>2020-09-26T12:44:12.929Z</time>
      </trkpt>
      <trkpt lat="65.31936" lon="21.48371">
        <ele>35.940336</ele>
        <time>2020-09-26T12:44:15.946Z</time>
      </trkpt>
      <trkpt lat="65.31928" lon="21.48356">
        <ele>36.004047</ele>
        <time>2020-09-26T12:44:18.923Z</time>
      </trkpt>
      <trkpt lat="65.3192" lon="21.48343">
        <ele>36.067688</ele>
        <time>2020-09-26T12:44:21.959Z</time>
      </trkpt>
      <trkpt lat="65.31913" lon="21.48329">
        <ele>36.125728</ele>
        <time>2020-09-26T12:44:24.914Z</time>
      </trkpt>
      <trkpt lat="65.31904" lon="21.48314">
        <ele>36.197744</ele>
        <time>2020-09-26T12:44:28.937Z</time>
      </trkpt>
      <trkpt lat="65.31896" lon="21.48297">
        <ele>36.267319</ele>
        <time>2020-09-26T12:44:32.916Z</time>
      </trkpt>
      <trkpt lat="65.31887" lon="21.48281">
        <ele>36.338762</ele>
        <time>2020-09-26T12:44:36.952Z</time>
      </trkpt>
      <trkpt lat="65.31879" lon="21.48267">
        <ele>36.485665</ele>
        <time>2020-09-26T12:44:39.926Z</time>
      </trkpt>
      <trkpt lat="65.31871" lon="21.48254">
        <ele>36.686048</ele>
        <time>2020-09-26T12:44:42.928Z</time>
      </trkpt>
      <trkpt lat="65.31861" lon="21.48237">
        <ele>36.945285</ele>
        <time>2020-09-26T12:44:45.917Z</time>
      </trkpt>
      <trkpt lat="65.31852" lon="21.48224">
        <ele>37.165263</ele>
        <time>2020-09-26T12:44:48.909Z</time>
      </trkpt>
      <trkpt lat="65.31844" lon="21.48211">
        <ele>37.358542</ele>
        <time>2020-09-26T12:44:51.925Z</time>
      </trkpt>
      <trkpt lat="65.31837" lon="21.48198">
        <ele>37.555381</ele>
        <time>2020-09-26T12:44:54.912Z</time>
      </trkpt>
      <trkpt lat="65.31827" lon="21.48187">
        <ele>37.780968</ele>
        <time>2020-09-26T12:44:57.908Z</time>
      </trkpt>
      <trkpt lat="65.31816" lon="21.48177">
        <ele>38.021185</ele>
        <time>2020-09-26T12:45:00.915Z</time>
      </trkpt>
      <trkpt lat="65.31806" lon="21.48162">
        <ele>38.272408</ele>
        <time>2020-09-26T12:45:06.947Z</time>
      </trkpt>
      <trkpt lat="65.31801" lon="21.48141">
        <ele>38.485554</ele>
        <time>2020-09-26T12:45:09.913Z</time>
      </trkpt>
      <trkpt lat="65.31795" lon="21.48124">
        <ele>38.672913</ele>
        <time>2020-09-26T12:45:12.949Z</time>
      </trkpt>
      <trkpt lat="65.31786" lon="21.48107">
        <ele>38.907114</ele>
        <time>2020-09-26T12:45:16.910Z</time>
      </trkpt>
      <trkpt lat="65.3178" lon="21.48088">
        <ele>39.110856</ele>
        <time>2020-09-26T12:45:20.930Z</time>
      </trkpt>
      <trkpt lat="65.31773" lon="21.48072">
        <ele>39.31307</ele>
        <time>2020-09-26T12:45:25.924Z</time>
      </trkpt>
      <trkpt lat="65.31763" lon="21.48066">
        <ele>39.526902</ele>
        <time>2020-09-26T12:45:29.906Z</time>
      </trkpt>
      <trkpt lat="65.31755" lon="21.48051">
        <ele>39.749401</ele>
        <time>2020-09-26T12:45:34.920Z</time>
      </trkpt>
      <trkpt lat="65.31745" lon="21.48038">
        <ele>39.974765</ele>
        <time>2020-09-26T12:45:40.921Z</time>
      </trkpt>
      <trkpt lat="65.31736" lon="21.48027">
        <ele>40.423442</ele>
        <time>2020-09-26T12:45:46.915Z</time>
      </trkpt>
      <trkpt lat="65.31728" lon="21.48015">
        <ele>41.2208</ele>
        <time>2020-09-26T12:45:51.939Z</time>
      </trkpt>
      <trkpt lat="65.3172" lon="21.47998">
        <ele>42.07232</ele>
        <time>2020-09-26T12:45:56.921Z</time>
      </trkpt>
      <trkpt lat="65.31716" lon="21.47977">
        <ele>42.855535</ele>
        <time>2020-09-26T12:46:00.929Z</time>
      </trkpt>
      <trkpt lat="65.31715" lon="21.47951">
        <ele>43.726797</ele>
        <time>2020-09-26T12:46:04.933Z</time>
      </trkpt>
      <trkpt lat="65.31709" lon="21.47934">
        <ele>44.483677</ele>
        <time>2020-09-26T12:46:09.949Z</time>
      </trkpt>
      <trkpt lat="65.317" lon="21.47928">
        <ele>45.245719</ele>
        <time>2020-09-26T12:46:14.908Z</time>
      </trkpt>
      <trkpt lat="65.31681" lon="21.47919">
        <ele>46.805892</ele>
        <time>2020-09-26T12:48:16.936Z</time>
      </trkpt>
      <trkpt lat="65.3167" lon="21.47905">
        <ele>47.777258</ele>
        <time>2020-09-26T12:48:20.923Z</time>
      </trkpt>
      <trkpt lat="65.31662" lon="21.47892">
        <ele>48.532579</ele>
        <time>2020-09-26T12:48:24.921Z</time>
      </trkpt>
      <trkpt lat="65.31656" lon="21.47867">
        <ele>49.499236</ele>
        <time>2020-09-26T12:48:28.911Z</time>
      </trkpt>
      <trkpt lat="65.31658" lon="21.47841">
        <ele>50.403933</ele>
        <time>2020-09-26T12:48:31.912Z</time>
      </trkpt>
      <trkpt lat="65.31661" lon="21.47815">
        <ele>51.280245</ele>
        <time>2020-09-26T12:48:34.911Z</time>
      </trkpt>
      <trkpt lat="65.31667" lon="21.47795">
        <ele>52.135627</ele>
        <time>2020-09-26T12:48:38.936Z</time>
      </trkpt>
      <trkpt lat="65.31673" lon="21.47774">
        <ele>52.967517</ele>
        <time>2020-09-26T12:48:41.943Z</time>
      </trkpt>
      <trkpt lat="65.31678" lon="21.47757">
        <ele>53.702376</ele>
        <time>2020-09-26T12:48:44.916Z</time>
      </trkpt>
      <trkpt lat="65.31684" lon="21.47735">
        <ele>54.546285</ele>
        <time>2020-09-26T12:48:47.942Z</time>
      </trkpt>
      <trkpt lat="65.31691" lon="21.47707">
        <ele>54.717928</ele>
        <time>2020-09-26T12:48:50.919Z</time>
      </trkpt>
      <trkpt lat="65.31698" lon="21.47685">
        <ele>54.863246</ele>
        <time>2020-09-26T12:48:53.910Z</time>
      </trkpt>
      <trkpt lat="65.31704" lon="21.47664">
        <ele>54.996445</ele>
        <time>2020-09-26T12:48:56.969Z</time>
      </trkpt>
      <trkpt lat="65.31711" lon="21.47645">
        <ele>55.135021</ele>
        <time>2020-09-26T12:48:59.972Z</time>
      </trkpt>
      <trkpt lat="65.31718" lon="21.4763">
        <ele>55.258582</ele>
        <time>2020-09-26T12:49:03.926Z</time>
      </trkpt>
      <trkpt lat="65.31728" lon="21.47623">
        <ele>55.382853</ele>
        <time>2020-09-26T12:49:08.915Z</time>
      </trkpt>
      <trkpt lat="65.31719" lon="21.4762">
        <ele>55.498297</ele>
        <time>2020-09-26T12:57:59.960Z</time>
      </trkpt>
      <trkpt lat="65.31712" lon="21.47639">
        <ele>55.634289</ele>
        <time>2020-09-26T12:58:04.907Z</time>
      </trkpt>
      <trkpt lat="65.31706" lon="21.47659">
        <ele>55.766034</ele>
        <time>2020-09-26T12:58:09.944Z</time>
      </trkpt>
      <trkpt lat="65.31699" lon="21.47678">
        <ele>55.898873</ele>
        <time>2020-09-26T12:58:15.940Z</time>
      </trkpt>
      <trkpt lat="65.31691" lon="21.47696">
        <ele>56.042495</ele>
        <time>2020-09-26T12:58:19.950Z</time>
      </trkpt>
      <trkpt lat="65.31683" lon="21.4772">
        <ele>56.205116</ele>
        <time>2020-09-26T12:58:22.937Z</time>
      </trkpt>
      <trkpt lat="65.31676" lon="21.47743">
        <ele>56.357007</ele>
        <time>2020-09-26T12:58:25.963Z</time>
      </trkpt>
      <trkpt lat="65.31667" lon="21.47763">
        <ele>56.51206</ele>
        <time>2020-09-26T12:58:28.916Z</time>
      </trkpt>
      <trkpt lat="65.31659" lon="21.47778">
        <ele>56.643677</ele>
        <time>2020-09-26T12:58:31.939Z</time>
      </trkpt>
      <trkpt lat="65.31652" lon="21.47799">
        <ele>56.785025</ele>
        <time>2020-09-26T12:58:35.947Z</time>
      </trkpt>
      <trkpt lat="65.31653" lon="21.47828">
        <ele>58.877479</ele>
        <time>2020-09-26T12:58:39.921Z</time>
      </trkpt>
      <trkpt lat="65.31656" lon="21.47853">
        <ele>61.811063</ele>
        <time>2020-09-26T12:58:43.937Z</time>
      </trkpt>
      <trkpt lat="65.31659" lon="21.47875">
        <ele>64.406706</ele>
        <time>2020-09-26T12:58:49.910Z</time>
      </trkpt>
      <trkpt lat="65.31664" lon="21.47896">
        <ele>67.093865</ele>
        <time>2020-09-26T12:58:54.937Z</time>
      </trkpt>
      <trkpt lat="65.31672" lon="21.47916">
        <ele>70.153364</ele>
        <time>2020-09-26T12:58:58.939Z</time>
      </trkpt>
      <trkpt lat="65.31686" lon="21.4795">
        <ele>75.483676</ele>
        <time>2020-09-26T13:06:47.855Z</time>
      </trkpt>
      <trkpt lat="65.31704" lon="21.47754">
        <ele>97.819067</ele>
        <time>2020-09-26T13:09:20.040Z</time>
      </trkpt>
      <trkpt lat="65.31701" lon="21.47798">
        <ele>102.69975</ele>
        <time>2020-09-26T13:09:27.922Z</time>
      </trkpt>
      <trkpt lat="65.31712" lon="21.47835">
        <ele>111.197445</ele>
        <time>2020-09-26T13:09:39.915Z</time>
      </trkpt>
      <trkpt lat="65.31724" lon="21.47869">
        <ele>121.972168</ele>
        <time>2020-09-26T13:09:43.949Z</time>
      </trkpt>
      <trkpt lat="65.31739" lon="21.47899">
        <ele>133.185987</ele>
        <time>2020-09-26T13:09:47.935Z</time>
      </trkpt>
      <trkpt lat="65.31759" lon="21.47924">
        <ele>146.631958</ele>
        <time>2020-09-26T13:09:51.925Z</time>
      </trkpt>
      <trkpt lat="65.31776" lon="21.47949">
        <ele>157.923126</ele>
        <time>2020-09-26T13:09:57.946Z</time>
      </trkpt>
      <trkpt lat="65.31792" lon="21.47973">
        <ele>168.859505</ele>
        <time>2020-09-26T13:10:07.908Z</time>
      </trkpt>
      <trkpt lat="65.31812" lon="21.47996">
        <ele>181.909844</ele>
        <time>2020-09-26T13:10:11.951Z</time>
      </trkpt>
      <trkpt lat="65.31829" lon="21.48017">
        <ele>193.115371</ele>
        <time>2020-09-26T13:10:15.922Z</time>
      </trkpt>
      <trkpt lat="65.31845" lon="21.48045">
        <ele>204.45502</ele>
        <time>2020-09-26T13:10:23.932Z</time>
      </trkpt>
      <trkpt lat="65.317" lon="21.48034">
        <ele>208.956036</ele>
        <time>2020-09-26T13:14:52.991Z</time>
      </trkpt>
      <trkpt lat="65.31703" lon="21.47881">
        <ele>208.956036</ele>
        <time>2020-09-26T13:14:53.940Z</time>
      </trkpt>
      <trkpt lat="65.31698" lon="21.4794">
        <ele>208.956036</ele>
        <time>2020-09-26T13:28:03.404Z</time>
      </trkpt>
    </trkseg>
  </trk>
</gpx>